
Distance (Route):
Temperature : 18.3°C
Humidity : 54.9%
Pressure : 987.1hPa| Receiver | Frames | First received | Last received |
|---|---|---|---|
| DM0DOS-11 | 900 | 2026-09-02 09:46:23 | 2026-09-02 12:18:49 |
| BIOWL1-15 | 768 | 2026-09-02 09:49:45 | 2026-09-02 12:19:43 |
| DL1XH-west | 696 | 2026-09-02 09:54:41 | 2026-09-02 12:09:26 |
| DO2JMG | 630 | 2026-09-02 10:03:42 | 2026-09-02 12:13:48 |
| DL1XH1-15 | 576 | 2026-09-02 09:52:49 | 2026-09-02 12:07:24 |
| DL1XH-15 | 434 | 2026-09-02 09:58:46 | 2026-09-02 12:01:12 |
| HSKMA3-T | 419 | 2026-09-02 10:25:44 | 2026-09-02 11:57:31 |
| AA1-15 | 412 | 2026-09-02 10:11:06 | 2026-09-02 11:54:37 |
| GOEST3-10 | 256 | 2026-09-02 09:50:56 | 2026-09-02 12:04:32 |
| DB0DAN | 248 | 2026-09-02 09:58:25 | 2026-09-02 12:15:55 |
| DJ2DS-15 | 197 | 2026-09-02 09:47:50 | 2026-09-02 12:10:35 |
| DD8BA-10 | 194 | 2026-09-02 09:48:13 | 2026-09-02 12:12:35 |
| DL3AQ-11 | 162 | 2026-09-02 09:59:14 | 2026-09-02 12:17:37 |
| DF8AY | 161 | 2026-09-02 10:37:58 | 2026-09-02 11:49:11 |
| DF5WG-10 | 117 | 2026-09-02 09:57:46 | 2026-09-02 11:52:44 |
| DL4XJ-10 | 102 | 2026-09-02 10:13:19 | 2026-09-02 12:18:39 |
| DO9LL-15 | 68 | 2026-09-02 09:48:21 | 2026-09-02 11:39:08 |
| DO3DL | 62 | 2026-09-02 10:12:16 | 2026-09-02 11:42:14 |
| DL4BBY-15 | 58 | 2026-09-02 09:48:05 | 2026-09-02 12:01:04 |
| BIOWL9-15 | 57 | 2026-09-02 09:48:37 | 2026-09-02 12:19:13 |
| BUE01 | 45 | 2026-09-02 10:01:02 | 2026-09-02 12:15:36 |
| DL1LOL-11 | 36 | 2026-09-02 09:46:24 | 2026-09-02 12:10:28 |
| DJ2KF-10 | 35 | 2026-09-02 10:05:56 | 2026-09-02 11:42:48 |
| DD1CC2-15 | 33 | 2026-09-02 09:57:16 | 2026-09-02 11:49:31 |
| HTAHTA | 32 | 2026-09-02 09:54:17 | 2026-09-02 11:50:12 |
| BIOWL7-15 | 30 | 2026-09-02 09:47:57 | 2026-09-02 12:18:42 |
| DC6BW-12 | 30 | 2026-09-02 09:48:12 | 2026-09-02 11:52:29 |
| DK9SH | 27 | 2026-09-02 09:53:45 | 2026-09-02 11:57:35 |
| DD1CC3-15 | 27 | 2026-09-02 09:55:08 | 2026-09-02 11:47:26 |
| DD1CC8 | 27 | 2026-09-02 10:16:41 | 2026-09-02 12:05:22 |
| DL1CLM-18 | 23 | 2026-09-02 09:47:58 | 2026-09-02 12:03:46 |
| DO2SHX-10 | 23 | 2026-09-02 10:58:52 | 2026-09-02 11:08:09 |
| DL3OBA | 21 | 2026-09-02 10:32:19 | 2026-09-02 12:01:26 |
| DB0UT-7 | 19 | 2026-09-02 10:01:09 | 2026-09-02 10:42:20 |
| SONCRA | 19 | 2026-09-02 10:03:44 | 2026-09-02 12:01:14 |
| SONDE2-11 | 19 | 2026-09-02 10:24:47 | 2026-09-02 11:38:46 |
| AU51GT2 | 18 | 2026-09-02 10:17:20 | 2026-09-02 11:25:05 |
| SMARD9-15 | 17 | 2026-09-02 10:34:37 | 2026-09-02 11:32:35 |
| SMARD9-10 | 14 | 2026-09-02 10:16:08 | 2026-09-02 11:47:54 |
| D01LWL | 14 | 2026-09-02 10:28:37 | 2026-09-02 11:31:46 |
| DF4FW | 13 | 2026-09-02 09:54:59 | 2026-09-02 10:37:28 |
| DL8DAS-14 | 12 | 2026-09-02 10:35:45 | 2026-09-02 11:34:42 |
| MET0W-2 | 10 | 2026-09-02 10:03:22 | 2026-09-02 11:13:15 |
| DF8AY-15 | 10 | 2026-09-02 10:53:37 | 2026-09-02 11:04:43 |
| EDDB2-11 | 9 | 2026-09-02 10:49:39 | 2026-09-02 11:35:40 |
| DO2LYB-13 | 8 | 2026-09-02 10:11:53 | 2026-09-02 11:03:44 |
| DB0NH | 8 | 2026-09-02 10:13:18 | 2026-09-02 10:47:09 |
| EDDB2-12 | 8 | 2026-09-02 10:58:39 | 2026-09-02 11:35:54 |
| WEDDY | 7 | 2026-09-02 10:12:36 | 2026-09-02 11:00:43 |
| DO2KSM | 4 | 2026-09-02 09:57:34 | 2026-09-02 10:52:43 |
| DJ3KS | 3 | 2026-09-02 10:35:48 | 2026-09-02 10:38:21 |
| DO1YAY-16 | 3 | 2026-09-02 10:56:44 | 2026-09-02 11:10:12 |
| DL8OAI-8 | 2 | 2026-09-02 10:21:47 | 2026-09-02 10:23:27 |
| NBG1-10 | 2 | 2026-09-02 10:38:41 | 2026-09-02 10:41:59 |
| DL8DAS-15 | 2 | 2026-09-02 11:21:25 | 2026-09-02 11:39:06 |
| DD1CC9-15 | 1 | 2026-09-02 10:23:14 | 2026-09-02 10:23:14 |
| DD1CC1-15 | 1 | 2026-09-02 10:23:37 | 2026-09-02 10:23:37 |
| Receiver | Date | Latitude | Longitude | Direction | Speed | Altitude | Climb | Temperature | Humidity | Pressure | Voltage | Killtimer | Uptime | BKT | XDATA |
|---|---|---|---|---|---|---|---|---|---|---|---|---|---|---|---|
| BIOWL1-15 | 2026-09-02 12:19:43 | 52.35590 | 9.06711 | 84° | 13km/h | 305m | -3.4m/s | 18.3°C | 54.9% | 987.1hPa | 2.8V | 07:19:53 | 02:42:05 | 00:00:00 | |
| BIOWL1-15 | 2026-09-02 12:19:42 | 52.35589 | 9.06706 | 60° | 16km/h | 309m | -3.9m/s | 18.3°C | 55.2% | 986.7hPa | 2.8V | 07:19:53 | 02:42:04 | 00:00:00 | |
| BIOWL1-15 | 2026-09-02 12:19:41 | 52.35577 | 9.06657 | 90° | 26km/h | 333m | -3.3m/s | 18.1°C | 55% | 984.1hPa | 2.8V | 07:19:53 | 02:41:58 | 00:00:00 | |
| BIOWL1-15 | 2026-09-02 12:19:39 | 52.35577 | 9.06647 | 91° | 22km/h | 336m | -3m/s | 18.1°C | 54.9% | 983.5hPa | 2.8V | 07:19:53 | 02:41:57 | 00:00:00 | |
| BIOWL1-15 | 2026-09-02 12:19:31 | 52.35577 | 9.06626 | 86° | 13km/h | 346m | -3.8m/s | 18°C | 56.7% | 982.8hPa | 2.8V | 07:19:53 | 02:41:54 | 00:00:00 | |
| BIOWL1-15 | 2026-09-02 12:19:30 | 52.35572 | 9.06604 | 76° | 18km/h | 361m | -3.7m/s | 17.9°C | 57% | 981hPa | 2.8V | 07:19:53 | 02:41:50 | 00:00:00 | |
| BIOWL1-15 | 2026-09-02 12:19:29 | 52.35571 | 9.06588 | 88° | 18km/h | 369m | -3.8m/s | 17.8°C | 56.6% | 980hPa | 2.8V | 07:19:53 | 02:41:48 | 00:00:00 | |
| BIOWL1-15 | 2026-09-02 12:19:25 | 52.35571 | 9.06581 | 85° | 16km/h | 372m | -3.4m/s | 17.8°C | 56.4% | 979.8hPa | 2.8V | 07:19:53 | 02:41:47 | 00:00:00 | |
| BIOWL1-15 | 2026-09-02 12:19:19 | 52.35570 | 9.06575 | 76° | 16km/h | 376m | -3.8m/s | 17.7°C | 56.5% | 979.7hPa | 2.8V | 07:19:53 | 02:41:46 | 00:00:00 | |
| BIOWL1-15 | 2026-09-02 12:19:18 | 52.35568 | 9.06561 | 78° | 20km/h | 383m | -3.7m/s | 17.6°C | 56.6% | 978.5hPa | 2.8V | 07:19:53 | 02:41:44 | 00:00:00 | |
| BIOWL1-15 | 2026-09-02 12:19:17 | 52.35567 | 9.06545 | 92° | 16km/h | 390m | -3.9m/s | 17.5°C | 56.4% | 977.7hPa | 2.8V | 07:19:53 | 02:41:42 | 00:00:00 | |
| BIOWL1-15 | 2026-09-02 12:19:16 | 52.35567 | 9.06539 | 88° | 11km/h | 394m | -3.4m/s | 17.5°C | 57% | 977.4hPa | 2.7V | 07:19:53 | 02:41:41 | 00:00:00 | |
| BIOWL9-15 | 2026-09-02 12:19:13 | 52.35590 | 9.06711 | 83° | 11km/h | 305m | -3.4m/s | 18.3°C | 49.7% | 987.1hPa | 2.8V | 00:00:00 | 00:00:00 | 00:00:00 | |
| BIOWL1-15 | 2026-09-02 12:19:12 | 52.35567 | 9.06535 | 60° | 11km/h | 397m | -3.2m/s | 17.5°C | 57.5% | 976.9hPa | 2.8V | 07:19:53 | 02:41:40 | 00:00:00 | |
| BIOWL1-15 | 2026-09-02 12:19:10 | 52.35564 | 9.06531 | 46° | 16km/h | 400m | -3m/s | 17.4°C | 58.1% | 976.6hPa | 2.8V | 07:19:53 | 02:41:39 | 00:00:00 | |
| BIOWL1-15 | 2026-09-02 12:19:08 | 52.35561 | 9.06525 | 50° | 20km/h | 404m | -3.3m/s | 17.3°C | 58.8% | 976.2hPa | 2.8V | 07:19:53 | 02:41:38 | 00:00:00 | |
| BIOWL1-15 | 2026-09-02 12:19:07 | 52.35558 | 9.06453 | 108° | 16km/h | 434m | -3.7m/s | 17.1°C | 59.3% | 972.6hPa | 2.8V | 07:19:53 | 02:41:30 | 00:00:00 | |
| BIOWL1-15 | 2026-09-02 12:19:02 | 52.35527 | 9.06368 | 60° | 27km/h | 490m | -3.8m/s | 16.4°C | 63.3% | 966.5hPa | 2.8V | 07:20:44 | 02:41:15 | 00:00:00 | |
| BIOWL1-15 | 2026-09-02 12:18:59 | 52.35511 | 9.06255 | 98° | 24km/h | 529m | -3.8m/s | 16.1°C | 62.8% | 962.1hPa | 2.8V | 07:20:44 | 02:41:05 | 00:00:00 | |
| BIOWL1-15 | 2026-09-02 12:18:52 | 52.35513 | 9.06238 | 103° | 18km/h | 536m | -4.1m/s | 16°C | 63% | 961.1hPa | 2.8V | 07:20:44 | 02:41:03 | 00:00:00 | |
| DM0DOS-11 | 2026-09-02 12:18:49 | 52.35564 | 9.06531 | 46° | 15km/h | 400m | -3m/s | 17.4°C | 53.3% | 976.6hPa | 2.8V | 07:19:44 | 02:41:39 | 00:00:00 | |
| BIOWL1-15 | 2026-09-02 12:18:45 | 52.35514 | 9.06225 | 95° | 15km/h | 545m | -4.1m/s | 16°C | 63.2% | 960.3hPa | 2.8V | 07:20:44 | 02:41:01 | 00:00:00 | |
| DM0DOS-11 | 2026-09-02 12:18:43 | 52.35554 | 9.06487 | 90° | 26km/h | 418m | -3.8m/s | 17.2°C | 53.4% | 974.5hPa | 2.8V | 07:19:49 | 02:41:34 | 00:00:00 | |
| DM0DOS-11 | 2026-09-02 12:18:43 | 52.35557 | 9.06460 | 107° | 18km/h | 430m | -4m/s | 17.1°C | 54.7% | 973.3hPa | 2.8V | 07:19:52 | 02:41:31 | 00:00:00 | |
| BIOWL7-15 | 2026-09-02 12:18:42 | 52.35558 | 9.06517 | 61° | 24km/h | 407m | -3.8m/s | 17.3°C | 53.2% | 975.7hPa | 2.7V | 00:00:00 | 00:00:00 | 00:00:00 | |
| BIOWL1-15 | 2026-09-02 12:18:41 | 52.35494 | 9.06171 | 64° | 29km/h | 578m | -4.3m/s | 15.6°C | 66% | 956.3hPa | 2.7V | 07:20:44 | 02:40:53 | 00:00:00 | |
| BIOWL9-15 | 2026-09-02 12:18:41 | 52.35554 | 9.06498 | 80° | 26km/h | 415m | -3.6m/s | 17.3°C | 53.4% | 974.9hPa | 2.8V | 00:00:00 | 00:00:00 | 00:00:00 | |
| DL4XJ-10 | 2026-09-02 12:18:39 | 52.35554 | 9.06477 | 100° | 16km/h | 422m | -3.9m/s | 16.2°C | 0% | 0hPa | 2.8V | 00:00:00 | 00:00:00 | 00:00:00 | |
| DM0DOS-11 | 2026-09-02 12:18:37 | 52.35558 | 9.06453 | 107° | 16km/h | 434m | -3.7m/s | 17.1°C | 54.8% | 972.6hPa | 2.8V | 07:19:53 | 02:41:30 | 00:00:00 | |
| DM0DOS-11 | 2026-09-02 12:18:37 | 52.35559 | 9.06442 | 85° | 11km/h | 441m | -3.2m/s | 17°C | 54.7% | 971.8hPa | 2.8V | 07:19:55 | 02:41:28 | 00:00:00 | |
| DM0DOS-11 | 2026-09-02 12:18:37 | 52.35557 | 9.06433 | 61° | 13km/h | 448m | -3.9m/s | 16.9°C | 55.2% | 971hPa | 2.8V | 07:19:57 | 02:41:26 | 00:00:00 | |
| BIOWL1-15 | 2026-09-02 12:18:35 | 52.35489 | 9.06148 | 74° | 31km/h | 586m | -4m/s | 15.5°C | 65.9% | 955.5hPa | 2.8V | 07:20:44 | 02:40:51 | 00:00:00 | |
| DM0DOS-11 | 2026-09-02 12:18:31 | 52.35553 | 9.06423 | 57° | 16km/h | 455m | -3.5m/s | 16.8°C | 55.4% | 970.5hPa | 2.7V | 07:19:59 | 02:41:24 | 00:00:00 | |
| DM0DOS-11 | 2026-09-02 12:18:31 | 52.35549 | 9.06412 | 54° | 18km/h | 463m | -3.7m/s | 16.8°C | 55.5% | 969.5hPa | 2.8V | 07:20:01 | 02:41:22 | 00:00:00 | |
| DM0DOS-11 | 2026-09-02 12:18:31 | 52.35540 | 9.06395 | 47° | 16km/h | 474m | -3.6m/s | 16.6°C | 57.5% | 968.2hPa | 2.8V | 07:20:04 | 02:41:19 | 00:00:00 | |
| DL4XJ-10 | 2026-09-02 12:18:29 | 52.35551 | 9.06417 | 57° | 20km/h | 458m | -3.6m/s | 15.7°C | 0% | 0hPa | 2.8V | 00:00:00 | 00:00:00 | 00:00:00 | |
| DM0DOS-11 | 2026-09-02 12:18:26 | 52.35537 | 9.06390 | 46° | 18km/h | 478m | -4m/s | 16.6°C | 56.5% | 967.8hPa | 2.8V | 07:20:05 | 02:41:18 | 00:00:00 | |
| DM0DOS-11 | 2026-09-02 12:18:26 | 52.35531 | 9.06377 | 54° | 24km/h | 486m | -3.9m/s | 16.4°C | 58.2% | 967hPa | 2.8V | 07:20:07 | 02:41:16 | 00:00:00 | |
| DM0DOS-11 | 2026-09-02 12:18:26 | 52.35524 | 9.06358 | 63° | 27km/h | 493m | -3.7m/s | 16.4°C | 58.2% | 965.9hPa | 2.8V | 07:20:09 | 02:41:14 | 00:00:00 | |
| BIOWL1-15 | 2026-09-02 12:18:26 | 52.35490 | 9.06053 | 85° | 13km/h | 626m | -3.6m/s | 15.2°C | 66.3% | 951hPa | 2.8V | 07:20:44 | 02:40:41 | 00:00:00 | |
| BIOWL1-15 | 2026-09-02 12:18:21 | 52.35472 | 9.05991 | 73° | 29km/h | 656m | -3.7m/s | 14.9°C | 67.1% | 947.7hPa | 2.8V | 07:21:35 | 02:40:33 | 00:00:00 | |
| DM0DOS-11 | 2026-09-02 12:18:19 | 52.35519 | 9.06336 | 69° | 29km/h | 501m | -4m/s | 16.3°C | 58% | 965.1hPa | 2.8V | 07:20:11 | 02:41:12 | 00:00:00 | |
| DM0DOS-11 | 2026-09-02 12:18:19 | 52.35514 | 9.06313 | 74° | 29km/h | 509m | -3.8m/s | 16.2°C | 58.7% | 964.2hPa | 2.8V | 07:20:13 | 02:41:10 | 00:00:00 | |
| DM0DOS-11 | 2026-09-02 12:18:19 | 52.35511 | 9.06288 | 82° | 29km/h | 517m | -4.1m/s | 16.2°C | 58.5% | 963.2hPa | 2.7V | 07:20:15 | 02:41:08 | 00:00:00 | |
| DL4XJ-10 | 2026-09-02 12:18:19 | 52.35521 | 9.06347 | 68° | 27km/h | 497m | -3.9m/s | 15.3°C | 0% | 0hPa | 2.8V | 00:00:00 | 00:00:00 | 00:00:00 | |
| DM0DOS-11 | 2026-09-02 12:18:13 | 52.35510 | 9.06265 | 92° | 26km/h | 525m | -3.8m/s | 16.1°C | 58.6% | 962.4hPa | 2.8V | 07:20:17 | 02:41:06 | 00:00:00 | |
| DM0DOS-11 | 2026-09-02 12:18:13 | 52.35511 | 9.06246 | 102° | 20km/h | 532m | -3.9m/s | 16.1°C | 58.4% | 961.5hPa | 2.8V | 07:20:19 | 02:41:04 | 00:00:00 | |
| DM0DOS-11 | 2026-09-02 12:18:13 | 52.35514 | 9.06225 | 94° | 15km/h | 545m | -4.1m/s | 16°C | 58.5% | 960.3hPa | 2.8V | 07:20:22 | 02:41:01 | 00:00:00 | |
| BIOWL1-15 | 2026-09-02 12:18:11 | 52.35469 | 9.05967 | 80° | 31km/h | 664m | -3.9m/s | 14.8°C | 66.8% | 946.8hPa | 2.8V | 07:21:35 | 02:40:31 | 00:00:00 | |
| BIOWL9-15 | 2026-09-02 12:18:10 | 52.35512 | 9.06246 | 102° | 20km/h | 532m | -3.9m/s | 16.1°C | 58.1% | 961.5hPa | 2.8V | 00:00:00 | 00:00:00 | 00:00:00 | |
| DL4XJ-10 | 2026-09-02 12:18:09 | 52.35512 | 9.06238 | 103° | 18km/h | 537m | -4.1m/s | 15.0°C | 0% | 0hPa | 2.8V | 00:00:00 | 00:00:00 | 00:00:00 | |
| DM0DOS-11 | 2026-09-02 12:18:08 | 52.35514 | 9.06220 | 79° | 13km/h | 549m | -4.1m/s | 15.9°C | 59.5% | 959.7hPa | 2.8V | 07:20:23 | 02:41:00 | 00:00:00 | |
| DM0DOS-11 | 2026-09-02 12:18:08 | 52.35511 | 9.06209 | 54° | 16km/h | 557m | -4m/s | 15.8°C | 60.3% | 958.6hPa | 2.8V | 07:20:25 | 02:40:58 | 00:00:00 | |
| DM0DOS-11 | 2026-09-02 12:18:08 | 52.35501 | 9.06189 | 54° | 24km/h | 569m | -4.3m/s | 15.6°C | 60.9% | 957.4hPa | 2.8V | 07:20:28 | 02:40:55 | 00:00:00 | |
| DM0DOS-11 | 2026-09-02 12:18:02 | 52.35498 | 9.06181 | 58° | 26km/h | 574m | -4.1m/s | 15.6°C | 61.1% | 956.9hPa | 2.8V | 07:20:29 | 02:40:54 | 00:00:00 | |
| DM0DOS-11 | 2026-09-02 12:18:02 | 52.35491 | 9.06160 | 68° | 29km/h | 582m | -4.2m/s | 15.6°C | 58.9% | 955.9hPa | 2.8V | 07:20:31 | 02:40:52 | 00:00:00 | |
| DM0DOS-11 | 2026-09-02 12:18:02 | 52.35486 | 9.06122 | 84° | 31km/h | 594m | -3.9m/s | 15.4°C | 60.8% | 954.6hPa | 2.8V | 07:20:34 | 02:40:49 | 00:00:00 | |
| BIOWL1-15 | 2026-09-02 12:18:00 | 52.35467 | 9.05941 | 90° | 31km/h | 671m | -3.7m/s | 14.8°C | 66.2% | 946hPa | 2.8V | 07:21:35 | 02:40:29 | 00:00:00 | |
| DL4XJ-10 | 2026-09-02 12:17:59 | 52.35494 | 9.06171 | 64° | 27km/h | 578m | -4.2m/s | 14.5°C | 0% | 0hPa | 2.8V | 00:00:00 | 00:00:00 | 00:00:00 | |
| DM0DOS-11 | 2026-09-02 12:17:56 | 52.35485 | 9.06109 | 89° | 31km/h | 598m | -3.9m/s | 15.4°C | 61.3% | 954hPa | 2.8V | 07:20:35 | 02:40:48 | 00:00:00 | |
| DM0DOS-11 | 2026-09-02 12:17:56 | 52.35487 | 9.06087 | 100° | 24km/h | 606m | -3.7m/s | 15.4°C | 61.1% | 953.4hPa | 2.8V | 07:20:37 | 02:40:46 | 00:00:00 | |
| DM0DOS-11 | 2026-09-02 12:17:56 | 52.35489 | 9.06070 | 102° | 16km/h | 614m | -4.1m/s | 15.3°C | 60.6% | 952.2hPa | 2.8V | 07:20:39 | 02:40:44 | 00:00:00 | |
| BIOWL1-15 | 2026-09-02 12:17:50 | 52.35473 | 9.05867 | 77° | 16km/h | 698m | -3.4m/s | 14.6°C | 62.1% | 943.1hPa | 2.8V | 07:21:35 | 02:40:21 | 00:00:00 | |
| DM0DOS-11 | 2026-09-02 12:17:49 | 52.35490 | 9.06058 | 92° | 13km/h | 622m | -4m/s | 15.2°C | 62% | 951.5hPa | 2.8V | 07:20:41 | 02:40:42 | 00:00:00 | |
| DM0DOS-11 | 2026-09-02 12:17:49 | 52.35489 | 9.06047 | 72° | 13km/h | 629m | -3.7m/s | 15.1°C | 61.7% | 950.6hPa | 2.8V | 07:20:43 | 02:40:40 | 00:00:00 | |
| DM0DOS-11 | 2026-09-02 12:17:49 | 52.35485 | 9.06036 | 55° | 16km/h | 637m | -3.8m/s | 15.1°C | 61.5% | 949.6hPa | 2.8V | 07:20:45 | 02:40:38 | 00:00:00 | |
| DL4XJ-10 | 2026-09-02 12:17:49 | 52.35489 | 9.06064 | 97° | 18km/h | 618m | -4.0m/s | 14.2°C | 0% | 0hPa | 2.7V | 00:00:00 | 00:00:00 | 00:00:00 | |
| BIOWL1-15 | 2026-09-02 12:17:44 | 52.35459 | 9.05630 | 99° | 16km/h | 778m | -3.9m/s | 13.9°C | 62.2% | 934.1hPa | 2.7V | 07:21:35 | 02:39:59 | 00:00:00 | |
| DM0DOS-11 | 2026-09-02 12:17:43 | 52.35480 | 9.06022 | 60° | 24km/h | 645m | -3.8m/s | 15°C | 60.6% | 948.8hPa | 2.8V | 07:20:47 | 02:40:36 | 00:00:00 | |
| DM0DOS-11 | 2026-09-02 12:17:43 | 52.35474 | 9.06003 | 70° | 29km/h | 652m | -3.8m/s | 14.9°C | 62.6% | 948hPa | 2.8V | 07:20:49 | 02:40:34 | 00:00:00 | |
| DM0DOS-11 | 2026-09-02 12:17:43 | 52.35470 | 9.05979 | 76° | 31km/h | 660m | -3.8m/s | 14.8°C | 62.1% | 947.1hPa | 2.8V | 07:20:51 | 02:40:32 | 00:00:00 | |
| BIOWL1-15 | 2026-09-02 12:17:42 | 52.35458 | 9.05606 | 69° | 16km/h | 793m | -3.7m/s | 13.7°C | 65.5% | 932.2hPa | 2.8V | 07:21:35 | 02:39:55 | 00:00:00 | |
| DL4XJ-10 | 2026-09-02 12:17:39 | 52.35472 | 9.05991 | 74° | 27km/h | 657m | -3.6m/s | 13.8°C | 0% | 0hPa | 2.8V | 00:00:00 | 00:00:00 | 00:00:00 | |
| DM0DOS-11 | 2026-09-02 12:17:38 | 52.35468 | 9.05954 | 85° | 31km/h | 668m | -3.7m/s | 14.8°C | 61.8% | 946.4hPa | 2.8V | 07:20:53 | 02:40:30 | 00:00:00 | |
| DM0DOS-11 | 2026-09-02 12:17:38 | 52.35468 | 9.05928 | 93° | 31km/h | 675m | -3.7m/s | 14.8°C | 62.1% | 945.6hPa | 2.8V | 07:20:55 | 02:40:28 | 00:00:00 | |
| DL3AQ-11 | 2026-09-02 12:17:37 | 52.35468 | 9.05954 | 85° | 31km/h | 667m | -3.7m/s | 14.8°C | 61.5% | 946.4hPa | 2.8V | 00:00:00 | 00:00:00 | 00:00:00 | |
| BIOWL1-15 | 2026-09-02 12:17:36 | 52.35443 | 9.05551 | 77° | 31km/h | 817m | -4.1m/s | 13.5°C | 64.3% | 929.8hPa | 2.8V | 07:21:35 | 02:39:49 | 00:00:00 | |
| DM0DOS-11 | 2026-09-02 12:17:33 | 52.35469 | 9.05905 | 100° | 24km/h | 682m | -3.3m/s | 14.7°C | 62.7% | 944.7hPa | 2.8V | 07:20:57 | 02:40:26 | 00:00:00 | |
| DM0DOS-11 | 2026-09-02 12:17:33 | 52.35472 | 9.05888 | 103° | 20km/h | 689m | -3.3m/s | 14.7°C | 62.7% | 944.1hPa | 2.8V | 07:20:59 | 02:40:24 | 00:00:00 | |
| DM0DOS-11 | 2026-09-02 12:17:33 | 52.35473 | 9.05874 | 90° | 15km/h | 695m | -3.2m/s | 14.7°C | 59.4% | 943.1hPa | 2.8V | 07:21:01 | 02:40:22 | 00:00:00 | |
| DL4XJ-10 | 2026-09-02 12:17:30 | 52.35473 | 9.05880 | 102° | 22km/h | 692m | -3.1m/s | 13.6°C | 0% | 0hPa | 2.8V | 00:00:00 | 00:00:00 | 00:00:00 | |
| DM0DOS-11 | 2026-09-02 12:17:27 | 52.35471 | 9.05860 | 69° | 18km/h | 701m | -3.2m/s | 14.6°C | 57.8% | 942.6hPa | 2.8V | 07:21:03 | 02:40:20 | 00:00:00 | |
| DM0DOS-11 | 2026-09-02 12:17:27 | 52.35467 | 9.05843 | 66° | 26km/h | 708m | -3.5m/s | 14.5°C | 59.6% | 941.8hPa | 2.8V | 07:21:05 | 02:40:18 | 00:00:00 | |
| DM0DOS-11 | 2026-09-02 12:17:27 | 52.35462 | 9.05823 | 70° | 27km/h | 715m | -3.6m/s | 14.4°C | 58.2% | 941hPa | 2.8V | 07:21:07 | 02:40:16 | 00:00:00 | |
| DL3AQ-11 | 2026-09-02 12:17:26 | 52.35469 | 9.05852 | 64° | 22km/h | 705m | -3.5m/s | 14.5°C | 57.5% | 942.2hPa | 2.8V | 00:00:00 | 00:00:00 | 00:00:00 | |
| DM0DOS-11 | 2026-09-02 12:17:21 | 52.35457 | 9.05801 | 73° | 29km/h | 723m | -3.6m/s | 14.4°C | 57.6% | 940.2hPa | 2.8V | 07:21:09 | 02:40:14 | 00:00:00 | |
| DM0DOS-11 | 2026-09-02 12:17:21 | 52.35453 | 9.05776 | 76° | 31km/h | 730m | -3.7m/s | 14.3°C | 56.2% | 939.4hPa | 2.7V | 07:21:11 | 02:40:12 | 00:00:00 | |
| DM0DOS-11 | 2026-09-02 12:17:21 | 52.35450 | 9.05751 | 81° | 33km/h | 738m | -3.8m/s | 14.3°C | 55.1% | 938.5hPa | 2.8V | 07:21:13 | 02:40:10 | 00:00:00 | |
| DL4XJ-10 | 2026-09-02 12:17:19 | 52.35455 | 9.05789 | 75° | 31km/h | 726m | -3.6m/s | 13.3°C | 0% | 0hPa | 2.7V | 00:00:00 | 00:00:00 | 00:00:00 | |
| BIOWL1-15 | 2026-09-02 12:17:17 | 52.35442 | 9.05526 | 97° | 29km/h | 824m | -3.6m/s | 13.5°C | 60% | 929hPa | 2.7V | 07:22:26 | 02:39:47 | 00:00:00 | |
| BIOWL7-15 | 2026-09-02 12:17:17 | 52.35453 | 9.05776 | 78° | 31km/h | 730m | -3.7m/s | 14.4°C | 55.9% | 939.4hPa | 2.8V | 00:00:00 | 00:00:00 | 00:00:00 | |
| DM0DOS-11 | 2026-09-02 12:17:15 | 52.35448 | 9.05724 | 89° | 33km/h | 745m | -3.6m/s | 14.2°C | 55% | 937.8hPa | 2.8V | 07:21:15 | 02:40:08 | 00:00:00 | |
| DM0DOS-11 | 2026-09-02 12:17:15 | 52.35450 | 9.05697 | 98° | 31km/h | 752m | -3.6m/s | 14.2°C | 55.6% | 937.1hPa | 2.8V | 07:21:17 | 02:40:06 | 00:00:00 | |
| DM0DOS-11 | 2026-09-02 12:17:15 | 52.35453 | 9.05673 | 104° | 27km/h | 759m | -3.6m/s | 14.1°C | 56% | 936.4hPa | 2.8V | 07:21:19 | 02:40:04 | 00:00:00 | |
| DM0DOS-11 | 2026-09-02 12:17:10 | 52.35456 | 9.05653 | 106° | 22km/h | 766m | -3.6m/s | 14°C | 56.2% | 935.2hPa | 2.8V | 07:21:21 | 02:40:02 | 00:00:00 | |
| DM0DOS-11 | 2026-09-02 12:17:10 | 52.35459 | 9.05637 | 102° | 16km/h | 774m | -3.7m/s | 14°C | 54.9% | 934.5hPa | 2.8V | 07:21:23 | 02:40:00 | 00:00:00 | |
| DL3AQ-11 | 2026-09-02 12:17:10 | 52.35454 | 9.05662 | 105° | 26km/h | 763m | -3.6m/s | 14.1°C | 55.0% | 935.8hPa | 2.8V | 00:00:00 | 00:00:00 | 00:00:00 | |
| DL4XJ-10 | 2026-09-02 12:17:09 | 52.35454 | 9.05662 | 106° | 18km/h | 762m | -3.5m/s | 13.0°C | 0% | 0hPa | 2.8V | 00:00:00 | 00:00:00 | 00:00:00 | |
| BIOWL1-15 | 2026-09-02 12:17:09 | 52.35447 | 9.05490 | 93° | 16km/h | 839m | -3.5m/s | 13.4°C | 60.8% | 927.3hPa | 2.8V | 07:22:26 | 02:39:43 | 00:00:00 | |
| BIOWL9-15 | 2026-09-02 12:17:08 | 52.35458 | 9.05644 | 105° | 18km/h | 770m | -3.7m/s | 14.0°C | 56.4% | 934.9hPa | 2.8V | 00:00:00 | 00:00:00 | 00:00:00 | |
| BIOWL1-15 | 2026-09-02 12:17:07 | 52.35444 | 9.05464 | 70° | 20km/h | 853m | -3.6m/s | 13.1°C | 65.2% | 926hPa | 2.8V | 07:22:26 | 02:39:39 | 00:00:00 | |
| DM0DOS-11 | 2026-09-02 12:17:05 | 52.35460 | 9.05624 | 91° | 15km/h | 781m | -3.7m/s | 13.8°C | 61.4% | 933.7hPa | 2.8V | 07:21:25 | 02:39:58 | 00:00:00 | |
| DM0DOS-11 | 2026-09-02 12:17:05 | 52.35459 | 9.05612 | 74° | 15km/h | 789m | -3.9m/s | 13.7°C | 60.2% | 932.8hPa | 2.8V | 07:21:27 | 02:39:56 | 00:00:00 | |
| DM0DOS-11 | 2026-09-02 12:17:05 | 52.35456 | 9.05600 | 63° | 18km/h | 796m | -3.9m/s | 13.6°C | 59.9% | 931.9hPa | 2.8V | 07:21:29 | 02:39:54 | 00:00:00 | |
| BIOWL1-15 | 2026-09-02 12:17:05 | 52.35444 | 9.05260 | 104° | 20km/h | 915m | -3.2m/s | 12.6°C | 65.9% | 918.7hPa | 2.8V | 07:22:26 | 02:39:21 | 00:00:00 | |
| BIOWL1-15 | 2026-09-02 12:17:04 | 52.35444 | 9.05220 | 93° | 27km/h | 928m | -3.1m/s | 12.6°C | 64.9% | 917.6hPa | 2.8V | 07:22:26 | 02:39:17 | 00:00:00 | |
| DM0DOS-11 | 2026-09-02 12:16:59 | 52.35451 | 9.05584 | 62° | 24km/h | 804m | -4m/s | 13.5°C | 60.1% | 931.1hPa | 2.8V | 07:21:31 | 02:39:52 | 00:00:00 | |
| DM0DOS-11 | 2026-09-02 12:16:59 | 52.35445 | 9.05563 | 69° | 29km/h | 812m | -4m/s | 13.5°C | 56.6% | 930.1hPa | 2.8V | 07:21:33 | 02:39:50 | 00:00:00 | |
| DM0DOS-11 | 2026-09-02 12:16:59 | 52.35442 | 9.05526 | 97° | 29km/h | 824m | -3.6m/s | 13.5°C | 55.6% | 929hPa | 2.7V | 07:21:36 | 02:39:47 | 00:00:00 | |
| DL3AQ-11 | 2026-09-02 12:16:57 | 52.35445 | 9.05563 | 69° | 29km/h | 812m | -4.0m/s | 13.5°C | 56.2% | 930.1hPa | 2.8V | 00:00:00 | 00:00:00 | 00:00:00 | |
| BIOWL1-15 | 2026-09-02 12:16:56 | 52.35445 | 9.05199 | 93° | 24km/h | 935m | -3.1m/s | 12.4°C | 65.9% | 916.9hPa | 2.8V | 07:22:26 | 02:39:15 | 00:00:00 | |
| BIOWL1-15 | 2026-09-02 12:16:55 | 52.35450 | 9.05110 | 81° | 18km/h | 960m | -3.1m/s | 12.3°C | 66.8% | 914hPa | 2.8V | 07:22:26 | 02:39:07 | 00:00:00 | |
| DM0DOS-11 | 2026-09-02 12:16:54 | 52.35443 | 9.05514 | 106° | 26km/h | 828m | -3.8m/s | 13.5°C | 55.8% | 928.5hPa | 2.8V | 07:21:37 | 02:39:46 | 00:00:00 | |
| DM0DOS-11 | 2026-09-02 12:16:54 | 52.35447 | 9.05497 | 102° | 18km/h | 835m | -3.6m/s | 13.4°C | 56% | 927.7hPa | 2.8V | 07:21:39 | 02:39:44 | 00:00:00 | |
| DM0DOS-11 | 2026-09-02 12:16:54 | 52.35447 | 9.05478 | 77° | 16km/h | 846m | -3.5m/s | 13.2°C | 60.3% | 926.3hPa | 2.8V | 07:21:42 | 02:39:41 | 00:00:00 | |
| BIOWL1-15 | 2026-09-02 12:16:49 | 52.35447 | 9.05091 | 76° | 29km/h | 967m | -3.2m/s | 12.3°C | 65.3% | 913.2hPa | 2.8V | 07:22:26 | 02:39:05 | 00:00:00 | |
| DL4XJ-10 | 2026-09-02 12:16:49 | 52.35447 | 9.05490 | 94° | 22km/h | 839m | -3.5m/s | 12.3°C | 0% | 0hPa | 2.8V | 00:00:00 | 00:00:00 | 00:00:00 | |
| DM0DOS-11 | 2026-09-02 12:16:48 | 52.35445 | 9.05471 | 72° | 18km/h | 849m | -3.5m/s | 13.2°C | 62% | 926.2hPa | 2.8V | 07:21:43 | 02:39:40 | 00:00:00 | |
| DM0DOS-11 | 2026-09-02 12:16:48 | 52.35442 | 9.05456 | 67° | 22km/h | 856m | -3.6m/s | 13.1°C | 60.2% | 925.2hPa | 2.8V | 07:21:45 | 02:39:38 | 00:00:00 | |
| DM0DOS-11 | 2026-09-02 12:16:48 | 52.35435 | 9.05427 | 73° | 27km/h | 867m | -3.2m/s | 13°C | 57% | 924.1hPa | 2.7V | 07:21:48 | 02:39:35 | 00:00:00 | |
| DL3AQ-11 | 2026-09-02 12:16:46 | 52.35444 | 9.05464 | 69° | 18km/h | 853m | -3.6m/s | 13.1°C | 60.4% | 926.0hPa | 2.8V | 00:00:00 | 00:00:00 | 00:00:00 | |
| DM0DOS-11 | 2026-09-02 12:16:42 | 52.35434 | 9.05415 | 77° | 29km/h | 870m | -3.3m/s | 13°C | 57.4% | 923.8hPa | 2.8V | 07:21:49 | 02:39:34 | 00:00:00 | |
| DM0DOS-11 | 2026-09-02 12:16:42 | 52.35431 | 9.05390 | 82° | 31km/h | 877m | -3.5m/s | 13°C | 57.4% | 923.1hPa | 2.8V | 07:21:51 | 02:39:32 | 00:00:00 | |
| DM0DOS-11 | 2026-09-02 12:16:42 | 52.35429 | 9.05364 | 87° | 33km/h | 884m | -3.2m/s | 12.9°C | 57.2% | 922.3hPa | 2.8V | 07:21:53 | 02:39:30 | 00:00:00 | |
| DL4XJ-10 | 2026-09-02 12:16:41 | 52.35432 | 9.05403 | 80° | 31km/h | 873m | -3.4m/s | 11.9°C | 0% | 0hPa | 2.8V | 00:00:00 | 00:00:00 | 00:00:00 | |
| BIOWL9-15 | 2026-09-02 12:16:37 | 52.35429 | 9.05364 | 87° | 31km/h | 884m | -3.2m/s | 12.9°C | 56.9% | 922.3hPa | 2.8V | 00:00:00 | 00:00:00 | 00:00:00 | |
| DM0DOS-11 | 2026-09-02 12:16:35 | 52.35429 | 9.05337 | 95° | 33km/h | 890m | -3.4m/s | 12.9°C | 60.8% | 921.7hPa | 2.8V | 07:21:55 | 02:39:28 | 00:00:00 | |
| DM0DOS-11 | 2026-09-02 12:16:35 | 52.35432 | 9.05310 | 103° | 31km/h | 897m | -3.5m/s | 12.8°C | 59.4% | 920.9hPa | 2.8V | 07:21:57 | 02:39:26 | 00:00:00 | |
| DM0DOS-11 | 2026-09-02 12:16:35 | 52.35440 | 9.05277 | 115° | 24km/h | 908m | -3.4m/s | 12.7°C | 60.1% | 919.6hPa | 2.8V | 07:22:00 | 02:39:23 | 00:00:00 | |
| BIOWL1-15 | 2026-09-02 12:16:34 | 52.35445 | 9.05064 | 95° | 35km/h | 973m | -2.5m/s | 12.4°C | 61.9% | 912.6hPa | 2.8V | 07:22:26 | 02:39:03 | 00:00:00 | |
| DM0DOS-11 | 2026-09-02 12:16:29 | 52.35442 | 9.05268 | 110° | 22km/h | 912m | -3.4m/s | 12.6°C | 61.8% | 919.3hPa | 2.8V | 07:22:01 | 02:39:22 | 00:00:00 | |
| DM0DOS-11 | 2026-09-02 12:16:29 | 52.35445 | 9.05252 | 92° | 22km/h | 918m | -3.2m/s | 12.5°C | 63.2% | 918.6hPa | 2.8V | 07:22:03 | 02:39:20 | 00:00:00 | |
| DM0DOS-11 | 2026-09-02 12:16:29 | 52.35444 | 9.05220 | 92° | 27km/h | 928m | -3.1m/s | 12.6°C | 60.9% | 917.5hPa | 2.8V | 07:22:06 | 02:39:17 | 00:00:00 | |
| DL4XJ-10 | 2026-09-02 12:16:29 | 52.35440 | 9.05277 | 116° | 24km/h | 908m | -3.4m/s | 11.6°C | 0% | 0hPa | 2.8V | 00:00:00 | 00:00:00 | 00:00:00 | |
| DM0DOS-11 | 2026-09-02 12:16:23 | 52.35445 | 9.05209 | 96° | 26km/h | 931m | -3.2m/s | 12.5°C | 63.2% | 917.1hPa | 2.8V | 07:22:07 | 02:39:16 | 00:00:00 | |
| DM0DOS-11 | 2026-09-02 12:16:23 | 52.35445 | 9.05189 | 84° | 24km/h | 938m | -3.2m/s | 12.4°C | 63.5% | 916.4hPa | 2.8V | 07:22:09 | 02:39:14 | 00:00:00 | |
| DM0DOS-11 | 2026-09-02 12:16:23 | 52.35445 | 9.05151 | 98° | 35km/h | 948m | -3m/s | 12.4°C | 62% | 915.4hPa | 2.8V | 07:22:12 | 02:39:11 | 00:00:00 | |
| BIOWL1-15 | 2026-09-02 12:16:21 | 52.35461 | 9.04935 | 82° | 26km/h | 1008m | -2.9m/s | 11.8°C | 68.6% | 908.8hPa | 2.7V | 07:23:17 | 02:38:51 | 00:00:00 | |
| DL4XJ-10 | 2026-09-02 12:16:19 | 52.35444 | 9.05178 | 84° | 27km/h | 941m | -3.5m/s | 11.4°C | 0% | 0hPa | 2.8V | 00:00:00 | 00:00:00 | 00:00:00 | |
| DM0DOS-11 | 2026-09-02 12:16:18 | 52.35447 | 9.05138 | 106° | 31km/h | 951m | -3.3m/s | 12.4°C | 61.5% | 915hPa | 2.8V | 07:22:13 | 02:39:10 | 00:00:00 | |
| DM0DOS-11 | 2026-09-02 12:16:18 | 52.35450 | 9.05118 | 98° | 20km/h | 957m | -3.1m/s | 12.3°C | 61.3% | 914.6hPa | 2.8V | 07:22:15 | 02:39:08 | 00:00:00 | |
| BIOWL1-15 | 2026-09-02 12:16:14 | 52.35460 | 9.04923 | 80° | 29km/h | 1011m | -3.1m/s | 11.9°C | 67.5% | 908.5hPa | 2.8V | 07:23:17 | 02:38:50 | 00:00:00 | |
| DM0DOS-11 | 2026-09-02 12:16:11 | 52.35445 | 9.05078 | 83° | 33km/h | 970m | -2.8m/s | 12.4°C | 57.2% | 912.8hPa | 2.8V | 07:22:19 | 02:39:04 | 00:00:00 | |
| DM0DOS-11 | 2026-09-02 12:16:11 | 52.35447 | 9.05050 | 105° | 33km/h | 975m | -2.9m/s | 12.4°C | 58.2% | 912.1hPa | 2.8V | 07:22:21 | 02:39:02 | 00:00:00 | |
| DM0DOS-11 | 2026-09-02 12:16:11 | 52.35452 | 9.05027 | 112° | 26km/h | 981m | -3m/s | 12.3°C | 56.8% | 911.8hPa | 2.8V | 07:22:23 | 02:39:00 | 00:00:00 | |
| DL4XJ-10 | 2026-09-02 12:16:09 | 52.35445 | 9.05064 | 96° | 27km/h | 973m | -2.4m/s | 11.3°C | 0% | 0hPa | 2.8V | 00:00:00 | 00:00:00 | 00:00:00 | |
| DM0DOS-11 | 2026-09-02 12:16:05 | 52.35456 | 9.05009 | 106° | 22km/h | 988m | -3.2m/s | 12.2°C | 57.8% | 911.1hPa | 2.8V | 07:22:25 | 02:38:58 | 00:00:00 | |
| DM0DOS-11 | 2026-09-02 12:16:05 | 52.35458 | 9.04991 | 96° | 26km/h | 994m | -2.6m/s | 12.1°C | 58.9% | 910.5hPa | 2.8V | 07:22:27 | 02:38:56 | 00:00:00 | |
| DM0DOS-11 | 2026-09-02 12:16:05 | 52.35461 | 9.04956 | 97° | 27km/h | 1002m | -3m/s | 11.9°C | 61.6% | 909.4hPa | 2.8V | 07:22:30 | 02:38:53 | 00:00:00 | |
| BIOWL1-15 | 2026-09-02 12:16:00 | 52.35459 | 9.04910 | 87° | 35km/h | 1014m | -2.8m/s | 11.9°C | 62.4% | 908.2hPa | 2.8V | 07:23:17 | 02:38:49 | 00:00:00 | |
| DM0DOS-11 | 2026-09-02 12:16:00 | 52.35461 | 9.04945 | 90° | 26km/h | 1006m | -2.9m/s | 11.8°C | 63% | 909hPa | 2.8V | 07:22:31 | 02:38:52 | 00:00:00 | |
| DM0DOS-11 | 2026-09-02 12:16:00 | 52.35459 | 9.04896 | 96° | 33km/h | 1017m | -2.9m/s | 11.9°C | 59.1% | 907.8hPa | 2.8V | 07:22:35 | 02:38:48 | 00:00:00 | |
| DL4XJ-10 | 2026-09-02 12:15:59 | 52.35461 | 9.04956 | 98° | 27km/h | 1003m | -3.0m/s | 10.9°C | 0% | 0hPa | 2.8V | 00:00:00 | 00:00:00 | 00:00:00 | |
| DB0DAN | 2026-09-02 12:15:55 | 52.35459 | 9.04910 | 87° | 33km/h | 1014m | -2.8m/s | 11.9°C | 57.1% | 908.19hPa | 2.8V | 00:00:00 | 00:00:00 | 00:00:00 | |
| BIOWL1-15 | 2026-09-02 12:15:53 | 52.35464 | 9.04718 | 104° | 31km/h | 1057m | -2.9m/s | 11.6°C | 61.2% | 903.4hPa | 2.8V | 07:23:17 | 02:38:34 | 00:00:00 | |
| DM0DOS-11 | 2026-09-02 12:15:53 | 52.35462 | 9.04873 | 105° | 24km/h | 1023m | -2.7m/s | 11.9°C | 58.6% | 907.2hPa | 2.8V | 07:22:37 | 02:38:46 | 00:00:00 | |
| DM0DOS-11 | 2026-09-02 12:15:53 | 52.35463 | 9.04855 | 79° | 24km/h | 1028m | -2.9m/s | 11.8°C | 61.2% | 906.7hPa | 2.8V | 07:22:39 | 02:38:44 | 00:00:00 | |
| DM0DOS-11 | 2026-09-02 12:15:53 | 52.35460 | 9.04832 | 79° | 33km/h | 1034m | -2.8m/s | 11.8°C | 56.5% | 906hPa | 2.8V | 07:22:41 | 02:38:42 | 00:00:00 | |
| BIOWL7-15 | 2026-09-02 12:15:52 | 52.35460 | 9.04883 | 105° | 29km/h | 1020m | -2.5m/s | 11.9°C | 57.8% | 907.5hPa | 2.8V | 00:00:00 | 00:00:00 | 00:00:00 | |
| BIOWL1-15 | 2026-09-02 12:15:51 | 52.35472 | 9.04666 | 100° | 22km/h | 1072m | -3.1m/s | 11.4°C | 62% | 901.9hPa | 2.8V | 07:23:17 | 02:38:29 | 00:00:00 | |
| DL3AQ-11 | 2026-09-02 12:15:50 | 52.35461 | 9.04844 | 76° | 27km/h | 1031m | -3.0m/s | 11.8°C | 56.0% | 906.5hPa | 2.8V | 00:00:00 | 00:00:00 | 00:00:00 | |
| BIOWL1-15 | 2026-09-02 12:15:49 | 52.35473 | 9.04632 | 83° | 20km/h | 1085m | -3.2m/s | 11.3°C | 63.6% | 900.4hPa | 2.8V | 07:23:17 | 02:38:25 | 00:00:00 | |
| DL4XJ-10 | 2026-09-02 12:15:49 | 52.35461 | 9.04844 | 77° | 33km/h | 1031m | -3.0m/s | 10.8°C | 0% | 0hPa | 2.8V | 00:00:00 | 00:00:00 | 00:00:00 | |
| BIOWL1-15 | 2026-09-02 12:15:48 | 52.35461 | 9.04573 | 70° | 31km/h | 1105m | -3.4m/s | 11°C | 65.6% | 898.1hPa | 2.8V | 07:23:17 | 02:38:19 | 00:00:00 | |
| DM0DOS-11 | 2026-09-02 12:15:48 | 52.35458 | 9.04803 | 88° | 37km/h | 1040m | -2.7m/s | 11.7°C | 56.7% | 905.3hPa | 2.7V | 07:22:43 | 02:38:40 | 00:00:00 | |
| DM0DOS-11 | 2026-09-02 12:15:48 | 52.35459 | 9.04772 | 95° | 37km/h | 1045m | -3.1m/s | 11.7°C | 56.6% | 904.8hPa | 2.8V | 07:22:45 | 02:38:38 | 00:00:00 | |
| DM0DOS-11 | 2026-09-02 12:15:43 | 52.35461 | 9.04744 | 99° | 33km/h | 1052m | -2.9m/s | 11.7°C | 57% | 904hPa | 2.8V | 07:22:47 | 02:38:36 | 00:00:00 | |
| DM0DOS-11 | 2026-09-02 12:15:43 | 52.35464 | 9.04718 | 103° | 31km/h | 1057m | -2.9m/s | 11.6°C | 57.1% | 903.4hPa | 2.8V | 07:22:49 | 02:38:34 | 00:00:00 | |
| DM0DOS-11 | 2026-09-02 12:15:43 | 52.35468 | 9.04695 | 105° | 26km/h | 1063m | -2.9m/s | 11.5°C | 57.3% | 902.8hPa | 2.8V | 07:22:51 | 02:38:32 | 00:00:00 | |
| DB0DAN | 2026-09-02 12:15:40 | 52.35464 | 9.04718 | 104° | 29km/h | 1057m | -2.9m/s | 11.6°C | 56.7% | 903.41hPa | 2.8V | 00:00:00 | 00:00:00 | 00:00:00 | |
| BIOWL1-15 | 2026-09-02 12:15:39 | 52.35456 | 9.04547 | 75° | 35km/h | 1111m | -3.3m/s | 11°C | 64.3% | 897.5hPa | 2.8V | 07:23:17 | 02:38:17 | 00:00:00 | |
| DL4XJ-10 | 2026-09-02 12:15:39 | 52.35466 | 9.04706 | 104° | 22km/h | 1060m | -3.0m/s | 10.5°C | 0% | 0hPa | 2.7V | 00:00:00 | 00:00:00 | 00:00:00 | |
| DM0DOS-11 | 2026-09-02 12:15:38 | 52.35471 | 9.04675 | 101° | 24km/h | 1069m | -3.2m/s | 11.5°C | 57.6% | 902.1hPa | 2.7V | 07:22:53 | 02:38:30 | 00:00:00 | |
| DM0DOS-11 | 2026-09-02 12:15:38 | 52.35472 | 9.04657 | 97° | 22km/h | 1075m | -3m/s | 11.4°C | 57.7% | 901.4hPa | 2.8V | 07:22:55 | 02:38:28 | 00:00:00 | |
| DL3AQ-11 | 2026-09-02 12:15:37 | 52.35471 | 9.04675 | 101° | 24km/h | 1069m | -3.2m/s | 11.5°C | 57.2% | 902.1hPa | 2.7V | 00:00:00 | 00:00:00 | 00:00:00 | |
| BUE01 | 2026-09-02 12:15:36 | 52.35471 | 9.04675 | 101° | 24km/h | 1069m | -3.2m/s | 11.5°C | 57.2% | 902.1hPa | 2.7V | 00:00:00 | 00:00:00 | 00:00:00 | |
| BIOWL1-15 | 2026-09-02 12:15:36 | 52.35453 | 9.04358 | 70° | 33km/h | 1164m | -3.2m/s | 10.5°C | 66.5% | 891.9hPa | 2.7V | 07:24:08 | 02:38:01 | 00:00:00 | |
| BIOWL9-15 | 2026-09-02 12:15:35 | 52.35473 | 9.04657 | 97° | 20km/h | 1075m | -3.0m/s | 11.4°C | 57.2% | 901.4hPa | 2.8V | 00:00:00 | 00:00:00 | 00:00:00 | |
| DM0DOS-11 | 2026-09-02 12:15:33 | 52.35473 | 9.04640 | 88° | 20km/h | 1081m | -3.2m/s | 11.3°C | 57.8% | 900.8hPa | 2.8V | 07:22:57 | 02:38:26 | 00:00:00 | |
| DM0DOS-11 | 2026-09-02 12:15:33 | 52.35472 | 9.04624 | 76° | 20km/h | 1088m | -3.4m/s | 11.3°C | 58.1% | 900.3hPa | 2.8V | 07:22:59 | 02:38:24 | 00:00:00 | |
| DM0DOS-11 | 2026-09-02 12:15:33 | 52.35466 | 9.04596 | 68° | 27km/h | 1098m | -3.3m/s | 11.1°C | 58.9% | 899hPa | 2.8V | 07:23:02 | 02:38:21 | 00:00:00 | |
| BIOWL1-15 | 2026-09-02 12:15:32 | 52.35448 | 9.04331 | 76° | 35km/h | 1171m | -3.2m/s | 10.5°C | 65.3% | 891.2hPa | 2.8V | 07:24:08 | 02:37:59 | 00:00:00 | |
| DL4XJ-10 | 2026-09-02 12:15:29 | 52.35471 | 9.04615 | 73° | 31km/h | 1091m | -3.2m/s | 10.2°C | 0% | 0hPa | 2.7V | 00:00:00 | 00:00:00 | 00:00:00 | |
| DM0DOS-11 | 2026-09-02 12:15:28 | 52.35464 | 9.04585 | 68° | 29km/h | 1101m | -3.4m/s | 11.1°C | 59.2% | 898.5hPa | 2.7V | 07:23:03 | 02:38:20 | 00:00:00 | |
| DM0DOS-11 | 2026-09-02 12:15:28 | 52.35458 | 9.04561 | 71° | 33km/h | 1108m | -3.2m/s | 11°C | 58.9% | 897.9hPa | 2.8V | 07:23:05 | 02:38:18 | 00:00:00 | |
| DM0DOS-11 | 2026-09-02 12:15:28 | 52.35454 | 9.04533 | 79° | 37km/h | 1114m | -3.4m/s | 11°C | 58.7% | 897.4hPa | 2.8V | 07:23:07 | 02:38:16 | 00:00:00 | |
| DB0DAN | 2026-09-02 12:15:25 | 52.35461 | 9.04573 | 70° | 29km/h | 1105m | -3.4m/s | 11°C | 59.3% | 898.14hPa | 2.8V | 00:00:00 | 00:00:00 | 00:00:00 | |
| DM0DOS-11 | 2026-09-02 12:15:21 | 52.35452 | 9.04502 | 88° | 38km/h | 1121m | -3.4m/s | 10.9°C | 58.8% | 896.5hPa | 2.8V | 07:23:09 | 02:38:14 | 00:00:00 | |
| BIOWL1-15 | 2026-09-02 12:15:20 | 52.35445 | 9.04303 | 85° | 33km/h | 1177m | -3m/s | 10.4°C | 64% | 890.5hPa | 2.8V | 07:24:08 | 02:37:57 | 00:00:00 | |
| DL4XJ-10 | 2026-09-02 12:15:19 | 52.35452 | 9.04487 | 95° | 27km/h | 1124m | -3.3m/s | 9.9°C | 0% | 0hPa | 2.8V | 00:00:00 | 00:00:00 | 00:00:00 | |
| DM0DOS-11 | 2026-09-02 12:15:15 | 52.35461 | 9.04425 | 108° | 24km/h | 1141m | -3.4m/s | 10.8°C | 59.5% | 894.4hPa | 2.8V | 07:23:15 | 02:38:08 | 00:00:00 | |
| DM0DOS-11 | 2026-09-02 12:15:15 | 52.35461 | 9.04390 | 68° | 24km/h | 1155m | -3m/s | 10.6°C | 59.9% | 892.8hPa | 2.8V | 07:23:19 | 02:38:04 | 00:00:00 | |
| DB0DAN | 2026-09-02 12:15:10 | 52.35461 | 9.04390 | 69° | 22km/h | 1155m | -3m/s | 10.6°C | 59.4% | 892.77hPa | 2.8V | 00:00:00 | 00:00:00 | 00:00:00 | |
| DM0DOS-11 | 2026-09-02 12:15:09 | 52.35456 | 9.04370 | 67° | 29km/h | 1161m | -3.2m/s | 10.5°C | 60.2% | 892.4hPa | 2.8V | 07:23:21 | 02:38:02 | 00:00:00 | |
| DM0DOS-11 | 2026-09-02 12:15:09 | 52.35450 | 9.04345 | 72° | 35km/h | 1167m | -3.3m/s | 10.5°C | 59.9% | 891.5hPa | 2.8V | 07:23:23 | 02:38:00 | 00:00:00 | |
| BIOWL1-15 | 2026-09-02 12:15:04 | 52.35445 | 9.04290 | 90° | 29km/h | 1180m | -2.7m/s | 10.4°C | 63.8% | 890.1hPa | 2.8V | 07:24:08 | 02:37:56 | 00:00:00 | |
| BIOWL9-15 | 2026-09-02 12:15:03 | 52.35445 | 9.04303 | 85° | 31km/h | 1177m | -3.0m/s | 10.4°C | 59.3% | 890.5hPa | 2.8V | 00:00:00 | 00:00:00 | 00:00:00 | |
| DM0DOS-11 | 2026-09-02 12:15:03 | 52.35443 | 9.04243 | 91° | 33km/h | 1191m | -2.8m/s | 10.3°C | 60.7% | 889hPa | 2.8V | 07:23:31 | 02:37:52 | 00:00:00 | |
| BIOWL1-15 | 2026-09-02 12:15:00 | 52.35444 | 9.04267 | 85° | 27km/h | 1185m | -2.9m/s | 10.3°C | 64.3% | 889.4hPa | 2.8V | 07:24:08 | 02:37:54 | 00:00:00 | |
| BIOWL1-15 | 2026-09-02 12:14:58 | 52.35445 | 9.04217 | 98° | 27km/h | 1197m | -2.8m/s | 10.2°C | 64.9% | 888.4hPa | 2.8V | 07:24:08 | 02:37:50 | 00:00:00 | |
| DM0DOS-11 | 2026-09-02 12:14:57 | 52.35445 | 9.04217 | 97° | 27km/h | 1197m | -2.8m/s | 10.2°C | 60.7% | 888.4hPa | 2.8V | 07:23:33 | 02:37:50 | 00:00:00 | |
| DM0DOS-11 | 2026-09-02 12:14:57 | 52.35445 | 9.04198 | 74° | 24km/h | 1202m | -2.4m/s | 10.1°C | 61.1% | 887.8hPa | 2.8V | 07:23:35 | 02:37:48 | 00:00:00 | |
| BIOWL1-15 | 2026-09-02 12:14:57 | 52.35446 | 9.04207 | 89° | 24km/h | 1200m | -2.8m/s | 10.2°C | 65.4% | 888hPa | 2.8V | 07:24:08 | 02:37:49 | 00:00:00 | |
| BIOWL1-15 | 2026-09-02 12:14:56 | 52.35443 | 9.04120 | 105° | 29km/h | 1219m | -3m/s | 10°C | 66.4% | 885.9hPa | 2.7V | 07:24:08 | 02:37:42 | 00:00:00 | |
| DB0DAN | 2026-09-02 12:14:55 | 52.35446 | 9.04207 | 89° | 22km/h | 1200m | -2.8m/s | 10.2°C | 60.7% | 887.99hPa | 2.8V | 00:00:00 | 00:00:00 | 00:00:00 | |
| BIOWL1-15 | 2026-09-02 12:14:52 | 52.35445 | 9.04109 | 97° | 26km/h | 1221m | -2.6m/s | 9.9°C | 66.5% | 885.8hPa | 2.8V | 07:24:08 | 02:37:41 | 00:00:00 | |
| DM0DOS-11 | 2026-09-02 12:14:51 | 52.35443 | 9.04120 | 105° | 29km/h | 1219m | -3m/s | 9.9°C | 61.2% | 885.9hPa | 2.7V | 07:23:41 | 02:37:42 | 00:00:00 | |
| DM0DOS-11 | 2026-09-02 12:14:51 | 52.35444 | 9.04088 | 80° | 29km/h | 1227m | -2.6m/s | 9.9°C | 61.4% | 885.3hPa | 2.8V | 07:23:44 | 02:37:39 | 00:00:00 | |
| BIOWL1-15 | 2026-09-02 12:14:46 | 52.35445 | 9.04099 | 86° | 26km/h | 1224m | -2.7m/s | 9.9°C | 66.6% | 885.6hPa | 2.8V | 07:24:08 | 02:37:40 | 00:00:00 | |
| DM0DOS-11 | 2026-09-02 12:14:46 | 52.35443 | 9.04075 | 84° | 35km/h | 1229m | -2.6m/s | 9.9°C | 61.3% | 885hPa | 2.8V | 07:23:45 | 02:37:38 | 00:00:00 | |
| DM0DOS-11 | 2026-09-02 12:14:46 | 52.35447 | 9.04021 | 97° | 26km/h | 1240m | -2.2m/s | 9.9°C | 61.8% | 883.8hPa | 2.8V | 07:23:49 | 02:37:34 | 00:00:00 | |
| BIOWL1-15 | 2026-09-02 12:14:45 | 52.35444 | 9.04088 | 81° | 29km/h | 1227m | -2.7m/s | 9.9°C | 66.3% | 885.3hPa | 2.8V | 07:24:08 | 02:37:39 | 00:00:00 | |
| BIOWL1-15 | 2026-09-02 12:14:44 | 52.35443 | 9.04075 | 85° | 35km/h | 1229m | -2.7m/s | 9.9°C | 66.1% | 885hPa | 2.8V | 07:24:08 | 02:37:38 | 00:00:00 | |
| BIOWL1-15 | 2026-09-02 12:14:42 | 52.35444 | 9.03989 | 78° | 31km/h | 1247m | -2.9m/s | 9.7°C | 65.8% | 883hPa | 2.8V | 07:24:08 | 02:37:31 | 00:00:00 | |
| BIOWL1-15 | 2026-09-02 12:14:41 | 52.35443 | 9.03976 | 88° | 35km/h | 1250m | -2.5m/s | 9.8°C | 65.4% | 882.7hPa | 2.8V | 07:24:08 | 02:37:30 | 00:00:00 | |
| DB0DAN | 2026-09-02 12:14:40 | 52.35447 | 9.04021 | 98° | 24km/h | 1240m | -2.2m/s | 9.9°C | 61.4% | 883.83hPa | 2.8V | 00:00:00 | 00:00:00 | 00:00:00 | |
| BIOWL1-15 | 2026-09-02 12:14:39 | 52.35443 | 9.03961 | 99° | 35km/h | 1252m | -2.3m/s | 9.8°C | 65% | 882.4hPa | 2.8V | 07:24:08 | 02:37:29 | 00:00:00 | |
| DM0DOS-11 | 2026-09-02 12:14:39 | 52.35443 | 9.03976 | 87° | 35km/h | 1250m | -2.5m/s | 9.8°C | 61.8% | 882.7hPa | 2.8V | 07:23:53 | 02:37:30 | 00:00:00 | |
| DM0DOS-11 | 2026-09-02 12:14:39 | 52.35448 | 9.03934 | 108° | 35km/h | 1257m | -2.8m/s | 9.8°C | 61.3% | 881.9hPa | 2.8V | 07:23:56 | 02:37:27 | 00:00:00 | |
| BIOWL1-15 | 2026-09-02 12:14:36 | 52.35445 | 9.03947 | 106° | 35km/h | 1255m | -2.4m/s | 9.8°C | 65.1% | 882.2hPa | 2.8V | 07:24:08 | 02:37:28 | 00:00:00 | |
| BIOWL1-15 | 2026-09-02 12:14:32 | 52.35452 | 9.03843 | 81° | 37km/h | 1273m | -2.6m/s | 9.6°C | 67.5% | 880.2hPa | 2.8V | 07:24:08 | 02:37:21 | 00:00:00 | |
| BIOWL1-15 | 2026-09-02 12:14:28 | 52.35451 | 9.03829 | 79° | 35km/h | 1276m | -2.8m/s | 9.5°C | 67.5% | 879.9hPa | 2.8V | 07:24:08 | 02:37:20 | 00:00:00 | |
| DM0DOS-11 | 2026-09-02 12:14:27 | 52.35451 | 9.03829 | 78° | 35km/h | 1276m | -2.8m/s | 9.5°C | 62.2% | 879.9hPa | 2.8V | 07:24:03 | 02:37:20 | 00:00:00 | |
| DM0DOS-11 | 2026-09-02 12:14:27 | 52.35447 | 9.03801 | 74° | 33km/h | 1281m | -2.7m/s | 9.5°C | 62% | 879.3hPa | 2.8V | 07:24:05 | 02:37:18 | 00:00:00 | |
| DB0DAN | 2026-09-02 12:14:25 | 52.35449 | 9.03815 | 77° | 33km/h | 1279m | -2.6m/s | 9.5°C | 61.2% | 879.65hPa | 2.8V | 00:00:00 | 00:00:00 | 00:00:00 | |
| BIOWL1-15 | 2026-09-02 12:14:24 | 52.35443 | 9.03778 | 79° | 26km/h | 1287m | -2.8m/s | 9.5°C | 66.4% | 878.7hPa | 2.8V | 07:24:08 | 02:37:16 | 00:00:00 | |
| BIOWL1-15 | 2026-09-02 12:14:23 | 52.35442 | 9.03768 | 87° | 22km/h | 1290m | -2.7m/s | 9.5°C | 66% | 878.4hPa | 2.7V | 07:24:08 | 02:37:15 | 00:00:00 | |
| DM0DOS-11 | 2026-09-02 12:14:22 | 52.35451 | 9.03715 | 108° | 35km/h | 1304m | -2.7m/s | 9.4°C | 61.7% | 876.9hPa | 2.8V | 07:24:13 | 02:37:10 | 00:00:00 | |
| BIOWL1-15 | 2026-09-02 12:14:19 | 52.35444 | 9.03749 | 104° | 24km/h | 1295m | -2.8m/s | 9.5°C | 65.9% | 877.8hPa | 2.8V | 07:24:59 | 02:37:13 | 00:00:00 | |
| BIOWL1-15 | 2026-09-02 12:14:18 | 52.35448 | 9.03728 | 111° | 31km/h | 1301m | -2.9m/s | 9.4°C | 65.7% | 877.1hPa | 2.8V | 07:24:59 | 02:37:11 | 00:00:00 | |
| DL3AQ-11 | 2026-09-02 12:14:17 | 52.35451 | 9.03715 | 108° | 35km/h | 1304m | -2.7m/s | 9.4°C | 61.2% | 876.9hPa | 2.7V | 00:00:00 | 00:00:00 | 00:00:00 | |
| DM0DOS-11 | 2026-09-02 12:14:16 | 52.35455 | 9.03651 | 84° | 40km/h | 1314m | -2.6m/s | 9.3°C | 62.7% | 876hPa | 2.7V | 07:24:17 | 02:37:06 | 00:00:00 | |
| BIOWL1-15 | 2026-09-02 12:14:16 | 52.35451 | 9.03715 | 108° | 35km/h | 1304m | -2.7m/s | 9.4°C | 66% | 876.9hPa | 2.8V | 07:24:59 | 02:37:10 | 00:00:00 | |
| BIOWL1-15 | 2026-09-02 12:14:14 | 52.35455 | 9.03685 | 96° | 40km/h | 1309m | -2.7m/s | 9.4°C | 67.4% | 876.3hPa | 2.8V | 07:24:59 | 02:37:08 | 00:00:00 | |
| BIOWL1-15 | 2026-09-02 12:14:12 | 52.35455 | 9.03651 | 84° | 40km/h | 1314m | -2.6m/s | 9.3°C | 68.2% | 876hPa | 2.7V | 07:24:59 | 02:37:06 | 00:00:00 | |
| DM0DOS-11 | 2026-09-02 12:14:11 | 52.35452 | 9.03621 | 78° | 35km/h | 1320m | -2.7m/s | 9.2°C | 63% | 875.3hPa | 2.8V | 07:24:19 | 02:37:04 | 00:00:00 | |
| BIOWL1-15 | 2026-09-02 12:14:10 | 52.35447 | 9.03581 | 78° | 29km/h | 1328m | -2.9m/s | 9.1°C | 68.4% | 874.5hPa | 2.8V | 07:24:59 | 02:37:01 | 00:00:00 | |
| DB0DAN | 2026-09-02 12:14:10 | 52.35452 | 9.03621 | 78° | 33km/h | 1320m | -2.7m/s | 9.2°C | 62.5% | 875.26hPa | 2.8V | 00:00:00 | 00:00:00 | 00:00:00 | |
| BIOWL1-15 | 2026-09-02 12:14:07 | 52.35445 | 9.03570 | 79° | 27km/h | 1331m | -3m/s | 9.1°C | 68.3% | 874.2hPa | 2.8V | 07:24:59 | 02:37:00 | 00:00:00 | |
| DL3AQ-11 | 2026-09-02 12:14:06 | 52.35444 | 9.03560 | 81° | 24km/h | 1334m | -3.1m/s | 9.1°C | 62.1% | 873.8hPa | 2.8V | 00:00:00 | 00:00:00 | 00:00:00 | |
| DM0DOS-11 | 2026-09-02 12:14:05 | 52.35442 | 9.03531 | 93° | 22km/h | 1344m | -3.3m/s | 9°C | 63.2% | 872.9hPa | 2.8V | 07:24:27 | 02:36:56 | 00:00:00 | |
| DM0DOS-11 | 2026-09-02 12:14:05 | 52.35444 | 9.03511 | 103° | 26km/h | 1350m | -3m/s | 8.9°C | 63.2% | 872.2hPa | 2.8V | 07:24:29 | 02:36:54 | 00:00:00 | |
| BIOWL1-15 | 2026-09-02 12:14:05 | 52.35444 | 9.03560 | 81° | 26km/h | 1334m | -3.1m/s | 9.1°C | 68.4% | 873.8hPa | 2.8V | 07:24:59 | 02:36:59 | 00:00:00 | |
| BIOWL1-15 | 2026-09-02 12:14:04 | 52.35443 | 9.03550 | 83° | 24km/h | 1337m | -3.1m/s | 9.1°C | 68.6% | 873.4hPa | 2.7V | 07:24:59 | 02:36:58 | 00:00:00 | |
| BIOWL1-15 | 2026-09-02 12:14:02 | 52.35442 | 9.03531 | 93° | 22km/h | 1344m | -3.3m/s | 9°C | 67.9% | 872.9hPa | 2.8V | 07:24:59 | 02:36:56 | 00:00:00 | |
| BIOWL1-15 | 2026-09-02 12:14:01 | 52.35443 | 9.03521 | 100° | 24km/h | 1347m | -3.2m/s | 9°C | 67.9% | 872.4hPa | 2.8V | 07:24:59 | 02:36:55 | 00:00:00 | |
| BIOWL1-15 | 2026-09-02 12:14:00 | 52.35448 | 9.03487 | 104° | 35km/h | 1356m | -2.9m/s | 8.9°C | 67.6% | 871.5hPa | 2.8V | 07:24:59 | 02:36:52 | 00:00:00 | |
| DM0DOS-11 | 2026-09-02 12:13:59 | 52.35453 | 9.03425 | 90° | 40km/h | 1368m | -3m/s | 8.6°C | 65.7% | 870hPa | 2.8V | 07:24:35 | 02:36:48 | 00:00:00 | |
| BIOWL1-15 | 2026-09-02 12:13:57 | 52.35450 | 9.03473 | 100° | 37km/h | 1359m | -2.9m/s | 8.8°C | 68.5% | 871.1hPa | 2.8V | 07:24:59 | 02:36:51 | 00:00:00 | |
| BIOWL1-15 | 2026-09-02 12:13:56 | 52.35452 | 9.03392 | 87° | 38km/h | 1373m | -3m/s | 8.6°C | 71.7% | 869.6hPa | 2.8V | 07:24:59 | 02:36:46 | 00:00:00 | |
| DB0DAN | 2026-09-02 12:13:55 | 52.35452 | 9.03441 | 93° | 38km/h | 1365m | -2.8m/s | 8.7°C | 65.2% | 870.49hPa | 2.7V | 00:00:00 | 00:00:00 | 00:00:00 | |
| BIOWL1-15 | 2026-09-02 12:13:54 | 52.35451 | 9.03376 | 86° | 38km/h | 1376m | -3.1m/s | 8.5°C | 71.6% | 869.2hPa | 2.8V | 07:24:59 | 02:36:45 | 00:00:00 | |
| DM0DOS-11 | 2026-09-02 12:13:53 | 52.35452 | 9.03392 | 87° | 38km/h | 1373m | -3m/s | 8.6°C | 67.1% | 869.6hPa | 2.8V | 07:24:37 | 02:36:46 | 00:00:00 | |
| DM0DOS-11 | 2026-09-02 12:13:53 | 52.35450 | 9.03361 | 82° | 37km/h | 1380m | -3m/s | 8.5°C | 67.2% | 869hPa | 2.8V | 07:24:39 | 02:36:44 | 00:00:00 | |
| BIOWL1-15 | 2026-09-02 12:13:52 | 52.35450 | 9.03361 | 82° | 37km/h | 1380m | -3.1m/s | 8.5°C | 71.9% | 869hPa | 2.8V | 07:24:59 | 02:36:44 | 00:00:00 | |
| DL3AQ-11 | 2026-09-02 12:13:50 | 52.35449 | 9.03346 | 81° | 35km/h | 1383m | -3.1m/s | 8.5°C | 67.2% | 868.5hPa | 2.8V | 00:00:00 | 00:00:00 | 00:00:00 | |
| BIOWL1-15 | 2026-09-02 12:13:49 | 52.35439 | 9.03243 | 81° | 37km/h | 1405m | -3m/s | 8.3°C | 72.5% | 866.4hPa | 2.8V | 07:24:59 | 02:36:36 | 00:00:00 | |
| DO2JMG | 2026-09-02 12:13:48 | 52.35448 | 9.03331 | 82° | 37km/h | 1386m | -3.2m/s | 0°C | 0% | 0hPa | 2.8V | 18:12:15 | 02:36:42 | 00:00:00 | |
| BIOWL1-15 | 2026-09-02 12:13:48 | 52.35436 | 9.03212 | 82° | 38km/h | 1411m | -3.2m/s | 8.2°C | 72.9% | 865.7hPa | 2.8V | 07:24:59 | 02:36:34 | 00:00:00 | |
| DM0DOS-11 | 2026-09-02 12:13:47 | 52.35445 | 9.03302 | 80° | 35km/h | 1392m | -3.2m/s | 8.4°C | 67.8% | 867.7hPa | 2.8V | 07:24:43 | 02:36:40 | 00:00:00 | |
| DM0DOS-11 | 2026-09-02 12:13:47 | 52.35439 | 9.03243 | 80° | 37km/h | 1405m | -3m/s | 8.3°C | 68.4% | 866.4hPa | 2.8V | 07:24:47 | 02:36:36 | 00:00:00 | |
| BIOWL1-15 | 2026-09-02 12:13:46 | 52.35435 | 9.03197 | 82° | 38km/h | 1414m | -3.3m/s | 8.2°C | 73.1% | 865.3hPa | 2.8V | 07:24:59 | 02:36:33 | 00:00:00 | |
| BIOWL1-15 | 2026-09-02 12:13:46 | 52.35424 | 9.03107 | 76° | 31km/h | 1433m | -2.9m/s | 8°C | 75.7% | 863.2hPa | 2.8V | 07:24:59 | 02:36:27 | 00:00:00 | |
| DM0DOS-11 | 2026-09-02 12:13:42 | 52.35436 | 9.03212 | 81° | 38km/h | 1411m | -3.2m/s | 8.2°C | 68.5% | 865.7hPa | 2.8V | 07:24:49 | 02:36:34 | 00:00:00 | |
| DB0DAN | 2026-09-02 12:13:40 | 52.35436 | 9.03212 | 82° | 37km/h | 1411m | -3.2m/s | 8.2°C | 67.9% | 865.73hPa | 2.8V | 00:00:00 | 00:00:00 | 00:00:00 | |
| DL4XJ-10 | 2026-09-02 12:13:39 | 52.35434 | 9.03197 | 83° | 35km/h | 1414m | -3.3m/s | 7.2°C | 0% | 0hPa | 2.8V | 00:00:00 | 00:00:00 | 00:00:00 | |
| DM0DOS-11 | 2026-09-02 12:13:37 | 52.35430 | 9.03149 | 79° | 38km/h | 1424m | -3.2m/s | 8.1°C | 69.6% | 864.4hPa | 2.8V | 07:24:53 | 02:36:30 | 00:00:00 | |
| DM0DOS-11 | 2026-09-02 12:13:37 | 52.35426 | 9.03120 | 76° | 35km/h | 1430m | -2.9m/s | 8°C | 70.5% | 863.5hPa | 2.8V | 07:24:55 | 02:36:28 | 00:00:00 | |
| DM0DOS-11 | 2026-09-02 12:13:37 | 52.35423 | 9.03095 | 77° | 29km/h | 1436m | -3.3m/s | 8°C | 70.1% | 863.1hPa | 2.8V | 07:24:57 | 02:36:26 | 00:00:00 | |
| BIOWL1-15 | 2026-09-02 12:13:36 | 52.35423 | 9.03095 | 78° | 29km/h | 1436m | -3.3m/s | 8°C | 75.6% | 863.1hPa | 2.8V | 07:24:59 | 02:36:26 | 00:00:00 | |
| BIOWL1-15 | 2026-09-02 12:13:31 | 52.35421 | 9.03083 | 79° | 27km/h | 1439m | -3.2m/s | 8°C | 75.5% | 862.6hPa | 2.8V | 07:24:59 | 02:36:25 | 00:00:00 | |
| DM0DOS-11 | 2026-09-02 12:13:31 | 52.35420 | 9.03072 | 79° | 27km/h | 1442m | -3.1m/s | 8°C | 70.5% | 862.2hPa | 2.7V | 07:24:59 | 02:36:24 | 00:00:00 | |
| DM0DOS-11 | 2026-09-02 12:13:31 | 52.35418 | 9.03051 | 83° | 26km/h | 1449m | -3.1m/s | 7.9°C | 70.9% | 861.7hPa | 2.8V | 07:25:01 | 02:36:22 | 00:00:00 | |
| BIOWL1-15 | 2026-09-02 12:13:29 | 52.35418 | 9.03051 | 84° | 26km/h | 1449m | -3.1m/s | 7.9°C | 75.4% | 861.7hPa | 2.8V | 07:25:50 | 02:36:22 | 00:00:00 | |
| BIOWL1-15 | 2026-09-02 12:13:28 | 52.35419 | 9.03002 | 101° | 24km/h | 1464m | -3.2m/s | 7.9°C | 74.6% | 860hPa | 2.8V | 07:25:50 | 02:36:17 | 00:00:00 | |
| BIOWL1-15 | 2026-09-02 12:13:26 | 52.35420 | 9.02991 | 103° | 26km/h | 1468m | -3.2m/s | 8°C | 74.1% | 859.7hPa | 2.7V | 07:25:50 | 02:36:16 | 00:00:00 | |
| DL3AQ-11 | 2026-09-02 12:13:26 | 52.35417 | 9.03021 | 93° | 24km/h | 1458m | -3.1m/s | 7.9°C | 70.3% | 860.6hPa | 2.7V | 00:00:00 | 00:00:00 | 00:00:00 | |
| DM0DOS-11 | 2026-09-02 12:13:25 | 52.35420 | 9.02991 | 103° | 26km/h | 1468m | -3.2m/s | 8°C | 70.6% | 859.7hPa | 2.7V | 07:25:07 | 02:36:16 | 00:00:00 | |
| DM0DOS-11 | 2026-09-02 12:13:25 | 52.35424 | 9.02968 | 101° | 33km/h | 1474m | -3.2m/s | 8°C | 68.9% | 859.1hPa | 2.8V | 07:25:09 | 02:36:14 | 00:00:00 | |
| DB0DAN | 2026-09-02 12:13:25 | 52.35417 | 9.03021 | 93° | 24km/h | 1458m | -3.1m/s | 7.9°C | 70.3% | 860.59hPa | 2.8V | 00:00:00 | 00:00:00 | 00:00:00 | |
| BIOWL1-15 | 2026-09-02 12:13:23 | 52.35422 | 9.02980 | 104° | 29km/h | 1471m | -3.4m/s | 8°C | 72.2% | 859.1hPa | 2.8V | 07:25:50 | 02:36:15 | 00:00:00 | |
| BIOWL1-15 | 2026-09-02 12:13:19 | 52.35423 | 9.02890 | 79° | 38km/h | 1489m | -3.1m/s | 7.8°C | 73.3% | 857.3hPa | 2.8V | 07:25:50 | 02:36:09 | 00:00:00 | |
| DM0DOS-11 | 2026-09-02 12:13:19 | 52.35424 | 9.02906 | 82° | 38km/h | 1486m | -3m/s | 7.8°C | 68.9% | 857.6hPa | 2.8V | 07:25:13 | 02:36:10 | 00:00:00 | |
| DM0DOS-11 | 2026-09-02 12:13:19 | 52.35419 | 9.02859 | 78° | 38km/h | 1495m | -3.2m/s | 7.7°C | 69.5% | 856.8hPa | 2.8V | 07:25:16 | 02:36:07 | 00:00:00 | |
| BIOWL1-15 | 2026-09-02 12:13:18 | 52.35414 | 9.02813 | 79° | 38km/h | 1505m | -3.3m/s | 7.7°C | 74.3% | 855.8hPa | 2.8V | 07:25:50 | 02:36:04 | 00:00:00 | |
| BIOWL1-15 | 2026-09-02 12:13:15 | 52.35412 | 9.02797 | 81° | 38km/h | 1508m | -3.3m/s | 7.7°C | 74.1% | 855.3hPa | 2.8V | 07:25:50 | 02:36:03 | 00:00:00 | |
| DM0DOS-11 | 2026-09-02 12:13:14 | 52.35412 | 9.02797 | 80° | 38km/h | 1508m | -3.3m/s | 7.7°C | 69.7% | 855.3hPa | 2.8V | 07:25:20 | 02:36:03 | 00:00:00 | |
| BIOWL1-15 | 2026-09-02 12:13:10 | 52.35411 | 9.02781 | 82° | 40km/h | 1512m | -3.2m/s | 7.6°C | 74.5% | 855hPa | 2.8V | 07:25:50 | 02:36:02 | 00:00:00 | |
| DB0DAN | 2026-09-02 12:13:10 | 52.35414 | 9.02813 | 79° | 37km/h | 1505m | -3.3m/s | 7.7°C | 69.3% | 855.75hPa | 2.8V | 00:00:00 | 00:00:00 | 00:00:00 | |
| DL3AQ-11 | 2026-09-02 12:13:09 | 52.35412 | 9.02797 | 80° | 38km/h | 1508m | -3.3m/s | 7.7°C | 69.0% | 855.3hPa | 2.8V | 00:00:00 | 00:00:00 | 00:00:00 | |
| DL4XJ-10 | 2026-09-02 12:13:09 | 52.35412 | 9.02797 | 81° | 37km/h | 1508m | -3.2m/s | 6.6°C | 0% | 0hPa | 2.8V | 00:00:00 | 00:00:00 | 00:00:00 | |
| DM0DOS-11 | 2026-09-02 12:13:08 | 52.35409 | 9.02765 | 80° | 40km/h | 1515m | -3.1m/s | 7.6°C | 69.3% | 854.7hPa | 2.8V | 07:25:22 | 02:36:01 | 00:00:00 | |
| DM0DOS-11 | 2026-09-02 12:13:08 | 52.35405 | 9.02732 | 75° | 40km/h | 1521m | -3.5m/s | 7.5°C | 69.6% | 854.1hPa | 2.8V | 07:25:24 | 02:35:59 | 00:00:00 | |
| BIOWL1-15 | 2026-09-02 12:13:06 | 52.35399 | 9.02703 | 67° | 35km/h | 1528m | -3.5m/s | 7.4°C | 75.7% | 853.2hPa | 2.8V | 07:25:50 | 02:35:57 | 00:00:00 | |
| BIOWL1-15 | 2026-09-02 12:13:06 | 52.35396 | 9.02690 | 65° | 31km/h | 1532m | -3.4m/s | 7.4°C | 75.7% | 853hPa | 2.8V | 07:25:50 | 02:35:56 | 00:00:00 | |
| BIOWL1-15 | 2026-09-02 12:13:03 | 52.35386 | 9.02641 | 92° | 24km/h | 1549m | -3.6m/s | 7.4°C | 74.2% | 851.1hPa | 2.8V | 07:25:50 | 02:35:51 | 00:00:00 | |
| DM0DOS-11 | 2026-09-02 12:13:02 | 52.35393 | 9.02679 | 64° | 29km/h | 1535m | -3.5m/s | 7.4°C | 70.2% | 852.5hPa | 2.8V | 07:25:28 | 02:35:55 | 00:00:00 | |
| DM0DOS-11 | 2026-09-02 12:13:02 | 52.35387 | 9.02659 | 71° | 24km/h | 1542m | -3.6m/s | 7.4°C | 70% | 851.9hPa | 2.8V | 07:25:30 | 02:35:53 | 00:00:00 | |
| DM0DOS-11 | 2026-09-02 12:13:02 | 52.35386 | 9.02641 | 91° | 24km/h | 1549m | -3.5m/s | 7.3°C | 69.7% | 851hPa | 2.8V | 07:25:32 | 02:35:51 | 00:00:00 | |
| BIOWL1-15 | 2026-09-02 12:13:01 | 52.35386 | 9.02631 | 97° | 26km/h | 1553m | -3.5m/s | 7.3°C | 74% | 850.8hPa | 2.8V | 07:25:50 | 02:35:50 | 00:00:00 | |
| BIOWL1-15 | 2026-09-02 12:13:00 | 52.35387 | 9.02619 | 99° | 31km/h | 1556m | -3.5m/s | 7.3°C | 73.8% | 850.4hPa | 2.8V | 07:25:50 | 02:35:49 | 00:00:00 | |
| BIOWL1-15 | 2026-09-02 12:12:57 | 52.35388 | 9.02606 | 96° | 35km/h | 1559m | -3.2m/s | 7.3°C | 73.8% | 850hPa | 2.8V | 07:25:50 | 02:35:48 | 00:00:00 | |
| DM0DOS-11 | 2026-09-02 12:12:56 | 52.35389 | 9.02591 | 90° | 38km/h | 1562m | -3.1m/s | 7.2°C | 70.1% | 849.6hPa | 2.8V | 07:25:36 | 02:35:47 | 00:00:00 | |
| DM0DOS-11 | 2026-09-02 12:12:56 | 52.35387 | 9.02559 | 76° | 38km/h | 1569m | -3.1m/s | 7.1°C | 70.6% | 849.1hPa | 2.7V | 07:25:38 | 02:35:45 | 00:00:00 | |
| DB0DAN | 2026-09-02 12:12:55 | 52.35387 | 9.02619 | 99° | 29km/h | 1556m | -3.5m/s | 7.3°C | 69.2% | 850.42hPa | 2.8V | 00:00:00 | 00:00:00 | 00:00:00 | |
| BIOWL1-15 | 2026-09-02 12:12:52 | 52.35388 | 9.02575 | 83° | 40km/h | 1565m | -3m/s | 7.2°C | 74.2% | 849.3hPa | 2.8V | 07:25:50 | 02:35:46 | 00:00:00 | |
| BIOWL1-15 | 2026-09-02 12:12:51 | 52.35384 | 9.02544 | 71° | 38km/h | 1572m | -3m/s | 7.1°C | 75% | 848.8hPa | 2.8V | 07:25:50 | 02:35:44 | 00:00:00 | |
| BIOWL1-15 | 2026-09-02 12:12:50 | 52.35377 | 9.02516 | 66° | 35km/h | 1578m | -3.2m/s | 7°C | 75.3% | 848hPa | 2.8V | 07:25:50 | 02:35:42 | 00:00:00 | |
| DM0DOS-11 | 2026-09-02 12:12:50 | 52.35374 | 9.02504 | 64° | 31km/h | 1581m | -3.3m/s | 7°C | 70.9% | 847.8hPa | 2.8V | 07:25:42 | 02:35:41 | 00:00:00 | |
| BIOWL1-15 | 2026-09-02 12:12:48 | 52.35374 | 9.02504 | 64° | 31km/h | 1581m | -3.3m/s | 7°C | 75.1% | 847.8hPa | 2.8V | 07:25:50 | 02:35:41 | 00:00:00 | |
| BIOWL1-15 | 2026-09-02 12:12:47 | 52.35370 | 9.02492 | 64° | 29km/h | 1584m | -3.4m/s | 7°C | 74.9% | 847.4hPa | 2.8V | 07:25:50 | 02:35:40 | 00:00:00 | |
| BIOWL1-15 | 2026-09-02 12:12:46 | 52.35367 | 9.02426 | 103° | 31km/h | 1608m | -3.3m/s | 6.9°C | 75.2% | 845.1hPa | 2.8V | 07:25:50 | 02:35:33 | 00:00:00 | |
| DL3AQ-11 | 2026-09-02 12:12:46 | 52.35368 | 9.02482 | 66° | 24km/h | 1588m | -3.3m/s | 7.0°C | 70.0% | 847.0hPa | 2.8V | 00:00:00 | 00:00:00 | 00:00:00 | |
| BIOWL1-15 | 2026-09-02 12:12:45 | 52.35370 | 9.02382 | 87° | 38km/h | 1618m | -3.4m/s | 6.8°C | 76.3% | 844.1hPa | 2.8V | 07:26:41 | 02:35:30 | 00:00:00 | |
| BIOWL1-15 | 2026-09-02 12:12:44 | 52.35364 | 9.02338 | 67° | 31km/h | 1628m | -3.3m/s | 6.7°C | 75.6% | 843.1hPa | 2.8V | 07:26:41 | 02:35:27 | 00:00:00 | |
| BIOWL1-15 | 2026-09-02 12:12:43 | 52.35356 | 9.02309 | 75° | 20km/h | 1638m | -3.4m/s | 6.7°C | 75% | 842hPa | 2.8V | 07:26:41 | 02:35:24 | 00:00:00 | |
| BIOWL1-15 | 2026-09-02 12:12:42 | 52.35355 | 9.02301 | 86° | 20km/h | 1641m | -3.3m/s | 6.7°C | 74.9% | 841.8hPa | 2.8V | 07:26:41 | 02:35:23 | 00:00:00 | |
| BIOWL1-15 | 2026-09-02 12:12:40 | 52.35355 | 9.02293 | 96° | 20km/h | 1644m | -3.5m/s | 6.7°C | 74.9% | 841.4hPa | 2.7V | 07:26:41 | 02:35:22 | 00:00:00 | |
| DB0DAN | 2026-09-02 12:12:40 | 52.35366 | 9.02437 | 104° | 26km/h | 1604m | -3.5m/s | 7°C | 69.6% | 845.42hPa | 2.8V | 00:00:00 | 00:00:00 | 00:00:00 | |
| DM0DOS-11 | 2026-09-02 12:12:39 | 52.35370 | 9.02398 | 93° | 38km/h | 1615m | -3.2m/s | 6.9°C | 71.4% | 844.4hPa | 2.8V | 07:25:52 | 02:35:31 | 00:00:00 | |
| DM0DOS-11 | 2026-09-02 12:12:39 | 52.35369 | 9.02366 | 79° | 38km/h | 1621m | -3.3m/s | 6.8°C | 71.7% | 843.7hPa | 2.7V | 07:25:54 | 02:35:29 | 00:00:00 | |
| DM0DOS-11 | 2026-09-02 12:12:39 | 52.35364 | 9.02338 | 66° | 31km/h | 1628m | -3.3m/s | 6.7°C | 71.1% | 843.1hPa | 2.8V | 07:25:56 | 02:35:27 | 00:00:00 | |
| DL4XJ-10 | 2026-09-02 12:12:39 | 52.35368 | 9.02425 | 104° | 31km/h | 1608m | -3.3m/s | 5.9°C | 0% | 0hPa | 2.8V | 00:00:00 | 00:00:00 | 00:00:00 | |
| DD8BA-10 | 2026-09-02 12:12:35 | 52.35369 | 9.02366 | 80° | 26km/h | 1621m | -3.2m/s | 6.8°C | 71.7% | 843.7hPa | 2.8V | 07:25:00 | 00:00:00 | 00:00:00 | |
| DM0DOS-11 | 2026-09-02 12:12:33 | 52.35358 | 9.02317 | 67° | 24km/h | 1634m | -3.3m/s | 6.7°C | 70.8% | 842.4hPa | 2.8V | 07:25:58 | 02:35:25 | 00:00:00 | |
| DM0DOS-11 | 2026-09-02 12:12:33 | 52.35355 | 9.02301 | 85° | 18km/h | 1641m | -3.3m/s | 6.7°C | 70.8% | 841.8hPa | 2.8V | 07:26:00 | 02:35:23 | 00:00:00 | |
| BIOWL1-15 | 2026-09-02 12:12:32 | 52.35356 | 9.02284 | 102° | 24km/h | 1648m | -3.7m/s | 6.7°C | 75% | 841hPa | 2.8V | 07:26:41 | 02:35:21 | 00:00:00 | |
| DL3AQ-11 | 2026-09-02 12:12:30 | 52.35355 | 9.02301 | 85° | 18km/h | 1641m | -3.3m/s | 6.7°C | 70.1% | 841.8hPa | 2.8V | 00:00:00 | 00:00:00 | 00:00:00 | |
| BUE01 | 2026-09-02 12:12:30 | 52.35355 | 9.02301 | 85° | 18km/h | 1641m | -3.3m/s | 6.7°C | 70.1% | 841.8hPa | 2.8V | 00:00:00 | 00:00:00 | 00:00:00 | |
| DL4XJ-10 | 2026-09-02 12:12:29 | 52.35355 | 9.02301 | 86° | 31km/h | 1641m | -3.2m/s | 5.7°C | 0% | 0hPa | 2.8V | 00:00:00 | 00:00:00 | 00:00:00 | |
| DM0DOS-11 | 2026-09-02 12:12:28 | 52.35356 | 9.02284 | 101° | 24km/h | 1648m | -3.6m/s | 6.7°C | 71% | 841hPa | 2.8V | 07:26:02 | 02:35:21 | 00:00:00 | |
| BIOWL1-15 | 2026-09-02 12:12:26 | 52.35358 | 9.02274 | 104° | 26km/h | 1651m | -3.4m/s | 6.6°C | 75.3% | 840.6hPa | 2.8V | 07:26:41 | 02:35:20 | 00:00:00 | |
| BIOWL1-15 | 2026-09-02 12:12:25 | 52.35359 | 9.02262 | 102° | 31km/h | 1655m | -3.5m/s | 6.6°C | 75.6% | 840.3hPa | 2.8V | 07:26:41 | 02:35:19 | 00:00:00 | |
| DB0DAN | 2026-09-02 12:12:25 | 52.35359 | 9.02262 | 102° | 29km/h | 1655m | -3.5m/s | 6.6°C | 70.5% | 840.28hPa | 2.8V | 00:00:00 | 00:00:00 | 00:00:00 | |
| BIOWL1-15 | 2026-09-02 12:12:23 | 52.35361 | 9.02234 | 93° | 38km/h | 1661m | -3.3m/s | 6.5°C | 76.5% | 839.6hPa | 2.8V | 07:26:41 | 02:35:17 | 00:00:00 | |
| DM0DOS-11 | 2026-09-02 12:12:22 | 52.35360 | 9.02202 | 81° | 38km/h | 1668m | -3.3m/s | 6.5°C | 71.3% | 839hPa | 2.8V | 07:26:08 | 02:35:15 | 00:00:00 | |
| BIOWL1-15 | 2026-09-02 12:12:21 | 52.35352 | 9.02159 | 65° | 31km/h | 1678m | -3.2m/s | 6.3°C | 76.4% | 837.9hPa | 2.8V | 07:26:41 | 02:35:12 | 00:00:00 | |
| BIOWL1-15 | 2026-09-02 12:12:20 | 52.35348 | 9.02065 | 91° | 38km/h | 1706m | -3.1m/s | 6.1°C | 77% | 835.1hPa | 2.8V | 07:26:41 | 02:35:03 | 00:00:00 | |
| BIOWL1-15 | 2026-09-02 12:12:19 | 52.35348 | 9.02049 | 85° | 38km/h | 1709m | -3.1m/s | 6.1°C | 77.1% | 834.8hPa | 2.8V | 07:26:41 | 02:35:02 | 00:00:00 | |
| DL3AQ-11 | 2026-09-02 12:12:17 | 52.35346 | 9.02139 | 65° | 22km/h | 1684m | -3.1m/s | 6.3°C | 70.8% | 837.4hPa | 2.8V | 00:00:00 | 00:00:00 | 00:00:00 | |
| DM0DOS-11 | 2026-09-02 12:12:16 | 52.35348 | 9.02080 | 96° | 35km/h | 1703m | -3.2m/s | 6.2°C | 72% | 835.3hPa | 2.8V | 07:26:19 | 02:35:04 | 00:00:00 | |
| BIOWL1-15 | 2026-09-02 12:12:14 | 52.35347 | 9.02033 | 81° | 40km/h | 1712m | -3.1m/s | 6.1°C | 77.5% | 834.4hPa | 2.8V | 07:26:41 | 02:35:01 | 00:00:00 | |
| DM0DOS-11 | 2026-09-02 12:12:11 | 52.35349 | 9.02065 | 90° | 38km/h | 1706m | -3.1m/s | 6.2°C | 71.9% | 835.1hPa | 2.8V | 07:26:20 | 02:35:03 | 00:00:00 | |
| DM0DOS-11 | 2026-09-02 12:12:11 | 52.35347 | 9.02033 | 80° | 40km/h | 1712m | -3.1m/s | 6°C | 71.9% | 834.4hPa | 2.8V | 07:26:22 | 02:35:01 | 00:00:00 | |
| DB0DAN | 2026-09-02 12:12:10 | 52.35348 | 9.02080 | 97° | 33km/h | 1703m | -3.2m/s | 6.2°C | 71.2% | 835.35hPa | 2.8V | 00:00:00 | 00:00:00 | 00:00:00 | |
| BIOWL1-15 | 2026-09-02 12:12:09 | 52.35336 | 9.01976 | 65° | 31km/h | 1725m | -3.2m/s | 5.9°C | 76.2% | 833.1hPa | 2.8V | 07:26:41 | 02:34:57 | 00:00:00 | |
| BIOWL1-15 | 2026-09-02 12:12:07 | 52.35333 | 9.01965 | 65° | 26km/h | 1728m | -3.1m/s | 6°C | 75.4% | 832.7hPa | 2.8V | 07:26:41 | 02:34:56 | 00:00:00 | |
| DL3AQ-11 | 2026-09-02 12:12:06 | 52.35342 | 9.02002 | 71° | 37km/h | 1718m | -3.2m/s | 6.0°C | 71.2% | 833.8hPa | 2.8V | 00:00:00 | 00:00:00 | 00:00:00 | |
| DM0DOS-11 | 2026-09-02 12:12:05 | 52.35336 | 9.01976 | 64° | 31km/h | 1725m | -3.2m/s | 5.9°C | 71.8% | 833.1hPa | 2.8V | 07:26:26 | 02:34:57 | 00:00:00 | |
| DM0DOS-11 | 2026-09-02 12:12:05 | 52.35331 | 9.01956 | 72° | 22km/h | 1731m | -3.1m/s | 6°C | 71.7% | 832.5hPa | 2.8V | 07:26:28 | 02:34:55 | 00:00:00 | |
| BIOWL1-15 | 2026-09-02 12:12:03 | 52.35330 | 9.01956 | 73° | 22km/h | 1731m | -3.1m/s | 6°C | 74.8% | 832.5hPa | 2.8V | 07:26:41 | 02:34:55 | 00:00:00 | |
| DM0DOS-11 | 2026-09-02 12:12:00 | 52.35329 | 9.01939 | 92° | 22km/h | 1738m | -3.3m/s | 6°C | 71.4% | 832.1hPa | 2.8V | 07:26:30 | 02:34:53 | 00:00:00 | |
| DM0DOS-11 | 2026-09-02 12:12:00 | 52.35334 | 9.01894 | 97° | 35km/h | 1750m | -3.2m/s | 5.9°C | 70.7% | 830.6hPa | 2.8V | 07:26:34 | 02:34:49 | 00:00:00 | |
| BIOWL1-15 | 2026-09-02 12:11:59 | 52.35329 | 9.01939 | 93° | 22km/h | 1738m | -3.3m/s | 6°C | 74.2% | 832.1hPa | 2.8V | 07:26:41 | 02:34:53 | 00:00:00 | |
| BIOWL1-15 | 2026-09-02 12:11:57 | 52.35331 | 9.01919 | 102° | 27km/h | 1744m | -3.2m/s | 5.9°C | 73.4% | 831.2hPa | 2.8V | 07:26:41 | 02:34:51 | 00:00:00 | |
| BIOWL1-15 | 2026-09-02 12:11:56 | 52.35325 | 9.01800 | 67° | 37km/h | 1770m | -3.5m/s | 5.6°C | 76.4% | 828.6hPa | 2.8V | 07:26:41 | 02:34:43 | 00:00:00 | |
| BIOWL1-15 | 2026-09-02 12:11:55 | 52.35313 | 9.01716 | 99° | 31km/h | 1797m | -3.5m/s | 5.7°C | 70.4% | 825.9hPa | 2.8V | 07:27:32 | 02:34:35 | 00:00:00 | |
| DD8BA-10 | 2026-09-02 12:11:55 | 52.35333 | 9.01894 | 98° | 37km/h | 1751m | -3.2m/s | 5.8°C | 70.7% | 830.6hPa | 2.7V | 00:00:00 | 00:00:00 | 00:00:00 | |
| DB0DAN | 2026-09-02 12:11:55 | 52.35333 | 9.01894 | 97° | 33km/h | 1751m | -3.2m/s | 5.9°C | 70% | 830.64hPa | 2.8V | 00:00:00 | 00:00:00 | 00:00:00 | |
| DM0DOS-11 | 2026-09-02 12:11:54 | 52.35334 | 9.01863 | 87° | 40km/h | 1757m | -3.2m/s | 5.8°C | 70.8% | 829.8hPa | 2.8V | 07:26:36 | 02:34:47 | 00:00:00 | |
| DM0DOS-11 | 2026-09-02 12:11:54 | 52.35321 | 9.01787 | 62° | 33km/h | 1774m | -3.4m/s | 5.6°C | 71% | 828.1hPa | 2.8V | 07:26:41 | 02:34:42 | 00:00:00 | |
| BIOWL1-15 | 2026-09-02 12:11:54 | 52.35312 | 9.01639 | 78° | 40km/h | 1814m | -3.3m/s | 5.5°C | 72.5% | 824.1hPa | 2.8V | 07:27:32 | 02:34:30 | 00:00:00 | |
| BIOWL1-15 | 2026-09-02 12:11:53 | 52.35309 | 9.01623 | 73° | 40km/h | 1817m | -3.5m/s | 5.5°C | 72.8% | 823.7hPa | 2.8V | 07:27:32 | 02:34:29 | 00:00:00 | |
| BIOWL1-15 | 2026-09-02 12:11:51 | 52.35306 | 9.01607 | 70° | 38km/h | 1821m | -3.4m/s | 5.4°C | 72.8% | 823.2hPa | 2.8V | 07:27:32 | 02:34:28 | 00:00:00 | |
| BIOWL1-15 | 2026-09-02 12:11:50 | 52.35299 | 9.01580 | 64° | 33km/h | 1827m | -3.3m/s | 5.4°C | 72.6% | 822.8hPa | 2.8V | 07:27:32 | 02:34:26 | 00:00:00 | |
| DL3AQ-11 | 2026-09-02 12:11:49 | 52.35325 | 9.01800 | 66° | 35km/h | 1770m | -3.5m/s | 5.6°C | 70.3% | 828.6hPa | 2.8V | 00:00:00 | 00:00:00 | 00:00:00 | |
| DL4XJ-10 | 2026-09-02 12:11:49 | 52.35325 | 9.01800 | 67° | 27km/h | 1770m | -3.4m/s | 4.6°C | 0% | 0hPa | 2.8V | 00:00:00 | 00:00:00 | 00:00:00 | |
| DM0DOS-11 | 2026-09-02 12:11:48 | 52.35312 | 9.01756 | 72° | 22km/h | 1784m | -3.1m/s | 5.7°C | 67.6% | 827.2hPa | 2.8V | 07:26:44 | 02:34:39 | 00:00:00 | |
| DM0DOS-11 | 2026-09-02 12:11:48 | 52.35311 | 9.01738 | 95° | 24km/h | 1790m | -3.3m/s | 5.7°C | 67% | 826.6hPa | 2.8V | 07:26:46 | 02:34:37 | 00:00:00 | |
| BIOWL1-15 | 2026-09-02 12:11:47 | 52.35295 | 9.01568 | 62° | 29km/h | 1831m | -3.4m/s | 5.4°C | 70.9% | 822.6hPa | 2.8V | 07:27:32 | 02:34:25 | 00:00:00 | |
| DD8BA-10 | 2026-09-02 12:11:45 | 52.35312 | 9.01756 | 73° | 33km/h | 1784m | -3.0m/s | 5.7°C | 67.6% | 827.2hPa | 2.8V | 00:00:00 | 00:00:00 | 00:00:00 | |
| DM0DOS-11 | 2026-09-02 12:11:43 | 52.35313 | 9.01716 | 98° | 31km/h | 1797m | -3.5m/s | 5.7°C | 66.9% | 825.9hPa | 2.8V | 07:26:48 | 02:34:35 | 00:00:00 | |
| DM0DOS-11 | 2026-09-02 12:11:43 | 52.35315 | 9.01688 | 91° | 37km/h | 1804m | -3.4m/s | 5.7°C | 66% | 825.1hPa | 2.8V | 07:26:50 | 02:34:33 | 00:00:00 | |
| BIOWL1-15 | 2026-09-02 12:11:41 | 52.35292 | 9.01558 | 64° | 26km/h | 1834m | -3.3m/s | 5.4°C | 70% | 822.1hPa | 2.7V | 07:27:32 | 02:34:24 | 00:00:00 | |
| DB0DAN | 2026-09-02 12:11:40 | 52.35314 | 9.01703 | 97° | 33km/h | 1800m | -3.5m/s | 5.6°C | 66.1% | 825.47hPa | 2.8V | 00:00:00 | 00:00:00 | 00:00:00 | |
| DL4XJ-10 | 2026-09-02 12:11:39 | 52.35315 | 9.01688 | 92° | 37km/h | 1803m | -3.3m/s | 4.6°C | 0% | 0hPa | 2.7V | 00:00:00 | 00:00:00 | 00:00:00 | |
| DM0DOS-11 | 2026-09-02 12:11:38 | 52.35314 | 9.01656 | 81° | 40km/h | 1811m | -3.3m/s | 5.6°C | 66.8% | 824.5hPa | 2.7V | 07:26:52 | 02:34:31 | 00:00:00 | |
| DM0DOS-11 | 2026-09-02 12:11:38 | 52.35310 | 9.01623 | 73° | 40km/h | 1817m | -3.5m/s | 5.5°C | 66.8% | 823.7hPa | 2.8V | 07:26:54 | 02:34:29 | 00:00:00 | |
| BIOWL1-15 | 2026-09-02 12:11:36 | 52.35287 | 9.01521 | 93° | 26km/h | 1848m | -3.6m/s | 5.4°C | 68.5% | 820.8hPa | 2.8V | 07:27:32 | 02:34:20 | 00:00:00 | |
| BIOWL1-15 | 2026-09-02 12:11:35 | 52.35273 | 9.01386 | 60° | 37km/h | 1878m | -3.3m/s | 4.9°C | 74.5% | 817.7hPa | 2.8V | 07:27:32 | 02:34:11 | 00:00:00 | |
| DD8BA-10 | 2026-09-02 12:11:34 | 52.35306 | 9.01607 | 70° | 29km/h | 1821m | -3.4m/s | 5.4°C | 66.9% | 823.1hPa | 2.8V | 00:00:00 | 00:00:00 | 00:00:00 | |
| DM0DOS-11 | 2026-09-02 12:11:33 | 52.35295 | 9.01568 | 62° | 29km/h | 1831m | -3.4m/s | 5.4°C | 65.3% | 822.5hPa | 2.8V | 07:26:58 | 02:34:25 | 00:00:00 | |
| DM0DOS-11 | 2026-09-02 12:11:33 | 52.35290 | 9.01549 | 68° | 24km/h | 1837m | -3.5m/s | 5.4°C | 64.3% | 821.9hPa | 2.8V | 07:27:00 | 02:34:23 | 00:00:00 | |
| DM0DOS-11 | 2026-09-02 12:11:33 | 52.35287 | 9.01531 | 85° | 22km/h | 1844m | -3.4m/s | 5.4°C | 64.2% | 821.2hPa | 2.8V | 07:27:02 | 02:34:21 | 00:00:00 | |
| BIOWL1-15 | 2026-09-02 12:11:31 | 52.35259 | 9.01286 | 90° | 37km/h | 1908m | -3.3m/s | 4.7°C | 78.4% | 814.8hPa | 2.8V | 07:27:32 | 02:34:02 | 00:00:00 | |
| DL4XJ-10 | 2026-09-02 12:11:29 | 52.35290 | 9.01549 | 69° | 33km/h | 1838m | -3.4m/s | 4.4°C | 0% | 0hPa | 2.8V | 00:00:00 | 00:00:00 | 00:00:00 | |
| DM0DOS-11 | 2026-09-02 12:11:27 | 52.35287 | 9.01509 | 96° | 29km/h | 1851m | -3.5m/s | 5.3°C | 64.4% | 820.4hPa | 2.8V | 07:27:04 | 02:34:19 | 00:00:00 | |
| DB0DAN | 2026-09-02 12:11:25 | 52.35288 | 9.01509 | 96° | 27km/h | 1851m | -3.5m/s | 5.3°C | 63.8% | 820.4hPa | 2.8V | 00:00:00 | 00:00:00 | 00:00:00 | |
| BIOWL1-15 | 2026-09-02 12:11:21 | 52.35259 | 9.01270 | 85° | 40km/h | 1912m | -3m/s | 4.7°C | 79.5% | 814.4hPa | 2.8V | 07:27:32 | 02:34:01 | 00:00:00 | |
| DL4XJ-10 | 2026-09-02 12:11:19 | 52.35282 | 9.01415 | 69° | 31km/h | 1871m | -3.2m/s | 4.0°C | 0% | 0hPa | 2.8V | 00:00:00 | 00:00:00 | 00:00:00 | |
| DM0DOS-11 | 2026-09-02 12:11:17 | 52.35260 | 9.01344 | 72° | 22km/h | 1892m | -3.4m/s | 4.9°C | 68.9% | 816.3hPa | 2.8V | 07:27:16 | 02:34:07 | 00:00:00 | |
| BIOWL1-15 | 2026-09-02 12:11:12 | 52.35258 | 9.01253 | 78° | 40km/h | 1914m | -3.2m/s | 4.6°C | 82% | 813.9hPa | 2.8V | 07:27:32 | 02:34:00 | 00:00:00 | |
| DM0DOS-11 | 2026-09-02 12:11:12 | 52.35258 | 9.01325 | 91° | 26km/h | 1898m | -3.4m/s | 4.8°C | 68% | 815.6hPa | 2.8V | 07:27:18 | 02:34:05 | 00:00:00 | |
| DM0DOS-11 | 2026-09-02 12:11:12 | 52.35259 | 9.01300 | 93° | 33km/h | 1905m | -3.5m/s | 4.7°C | 73.4% | 815hPa | 2.7V | 07:27:20 | 02:34:03 | 00:00:00 | |
| DM0DOS-11 | 2026-09-02 12:11:12 | 52.35259 | 9.01270 | 84° | 40km/h | 1911m | -3m/s | 4.7°C | 76.1% | 814.4hPa | 2.8V | 07:27:22 | 02:34:01 | 00:00:00 | |
| DB0DAN | 2026-09-02 12:11:10 | 52.35259 | 9.01313 | 94° | 27km/h | 1902m | -3.4m/s | 4.8°C | 71.9% | 815.36hPa | 2.8V | 00:00:00 | 00:00:00 | 00:00:00 | |
| DL3AQ-11 | 2026-09-02 12:11:09 | 52.35259 | 9.01300 | 93° | 33km/h | 1905m | -3.5m/s | 4.7°C | 72.6% | 815.0hPa | 2.8V | 00:00:00 | 00:00:00 | 00:00:00 | |
| DL4XJ-10 | 2026-09-02 12:11:09 | 52.35259 | 9.01300 | 94° | 37km/h | 1904m | -3.4m/s | 3.7°C | 0% | 0hPa | 2.8V | 00:00:00 | 00:00:00 | 00:00:00 | |
| DM0DOS-11 | 2026-09-02 12:11:07 | 52.35248 | 9.01210 | 64° | 35km/h | 1924m | -3m/s | 4.5°C | 81.1% | 813.2hPa | 2.8V | 07:27:26 | 02:33:57 | 00:00:00 | |
| BIOWL1-15 | 2026-09-02 12:11:07 | 52.35255 | 9.01238 | 72° | 38km/h | 1918m | -3m/s | 4.5°C | 82.2% | 813.7hPa | 2.8V | 07:27:32 | 02:33:59 | 00:00:00 | |
| BIOWL1-15 | 2026-09-02 12:11:04 | 52.35252 | 9.01223 | 67° | 37km/h | 1921m | -2.9m/s | 4.5°C | 83.9% | 813.4hPa | 2.8V | 07:27:32 | 02:33:58 | 00:00:00 | |
| BIOWL1-15 | 2026-09-02 12:11:03 | 52.35248 | 9.01210 | 65° | 35km/h | 1924m | -3m/s | 4.5°C | 85.3% | 813.2hPa | 2.8V | 07:27:32 | 02:33:57 | 00:00:00 | |
| DM0DOS-11 | 2026-09-02 12:11:02 | 52.35240 | 9.01184 | 64° | 37km/h | 1930m | -3m/s | 4.4°C | 81.2% | 812.5hPa | 2.8V | 07:27:28 | 02:33:55 | 00:00:00 | |
| BIOWL1-15 | 2026-09-02 12:11:01 | 52.35240 | 9.01183 | 65° | 37km/h | 1930m | -3m/s | 4.4°C | 85.5% | 812.5hPa | 2.8V | 07:27:32 | 02:33:55 | 00:00:00 | |
| BIOWL1-15 | 2026-09-02 12:10:59 | 52.35233 | 9.01156 | 66° | 37km/h | 1936m | -3.3m/s | 4.3°C | 86.5% | 811.9hPa | 2.8V | 07:27:32 | 02:33:53 | 00:00:00 | |
| BIOWL1-15 | 2026-09-02 12:10:58 | 52.35229 | 9.01142 | 66° | 37km/h | 1939m | -3.1m/s | 4.3°C | 86.3% | 811.7hPa | 2.8V | 07:27:32 | 02:33:52 | 00:00:00 | |
| DM0DOS-11 | 2026-09-02 12:10:57 | 52.35210 | 9.01082 | 61° | 29km/h | 1955m | -3.3m/s | 4.2°C | 72.7% | 810hPa | 2.8V | 07:27:36 | 02:33:47 | 00:00:00 | |
| BIOWL1-15 | 2026-09-02 12:10:56 | 52.35221 | 9.01116 | 64° | 33km/h | 1945m | -3.2m/s | 4.2°C | 86.8% | 810.9hPa | 2.8V | 07:28:23 | 02:33:50 | 00:00:00 | |
| BIOWL1-15 | 2026-09-02 12:10:55 | 52.35202 | 9.01050 | 74° | 26km/h | 1965m | -3.2m/s | 4.1°C | 85.2% | 809hPa | 2.8V | 07:28:23 | 02:33:44 | 00:00:00 | |
| DB0DAN | 2026-09-02 12:10:55 | 52.35218 | 9.01104 | 63° | 29km/h | 1949m | -3.2m/s | 4.2°C | 81% | 810.72hPa | 2.7V | 00:00:00 | 00:00:00 | 00:00:00 | |
| BIOWL1-15 | 2026-09-02 12:10:54 | 52.35200 | 9.01039 | 82° | 26km/h | 1968m | -3m/s | 4.1°C | 84.9% | 808.5hPa | 2.8V | 07:28:23 | 02:33:43 | 00:00:00 | |
| DM0DOS-11 | 2026-09-02 12:10:52 | 52.35204 | 9.01060 | 66° | 27km/h | 1962m | -3.2m/s | 4.2°C | 82.3% | 809.3hPa | 2.8V | 07:27:38 | 02:33:45 | 00:00:00 | |
| DM0DOS-11 | 2026-09-02 12:10:52 | 52.35200 | 9.01039 | 81° | 26km/h | 1968m | -3m/s | 4.1°C | 82.3% | 808.5hPa | 2.8V | 07:27:40 | 02:33:43 | 00:00:00 | |
| DM0DOS-11 | 2026-09-02 12:10:52 | 52.35199 | 9.01018 | 91° | 27km/h | 1974m | -3.2m/s | 4.1°C | 82.4% | 808.1hPa | 2.8V | 07:27:42 | 02:33:41 | 00:00:00 | |
| BIOWL1-15 | 2026-09-02 12:10:50 | 52.35200 | 9.01029 | 88° | 27km/h | 1971m | -3.1m/s | 4.1°C | 84.5% | 808.3hPa | 2.7V | 07:28:23 | 02:33:42 | 00:00:00 | |
| DL4XJ-10 | 2026-09-02 12:10:49 | 52.35200 | 9.01039 | 82° | 33km/h | 1968m | -2.9m/s | 3.1°C | 0% | 0hPa | 2.8V | 00:00:00 | 00:00:00 | 00:00:00 | |
| DM0DOS-11 | 2026-09-02 12:10:47 | 52.35200 | 9.00994 | 94° | 29km/h | 1980m | -3.3m/s | 4°C | 82.7% | 807.4hPa | 2.8V | 07:27:44 | 02:33:39 | 00:00:00 | |
| BIOWL1-15 | 2026-09-02 12:10:46 | 52.35200 | 9.01006 | 93° | 27km/h | 1977m | -3.2m/s | 4.1°C | 85.2% | 807.7hPa | 2.8V | 07:28:23 | 02:33:40 | 00:00:00 | |
| BIOWL1-15 | 2026-09-02 12:10:44 | 52.35201 | 9.00982 | 95° | 31km/h | 1984m | -3.6m/s | 4°C | 78.9% | 807.1hPa | 2.8V | 07:28:23 | 02:33:38 | 00:00:00 | |
| BIOWL1-15 | 2026-09-02 12:10:43 | 52.35202 | 9.00968 | 95° | 35km/h | 1987m | -3.2m/s | 4°C | 77.7% | 806.7hPa | 2.8V | 07:28:23 | 02:33:37 | 00:00:00 | |
| DM0DOS-11 | 2026-09-02 12:10:42 | 52.35202 | 9.00937 | 84° | 42km/h | 1994m | -3.2m/s | 4°C | 71.5% | 806.1hPa | 2.8V | 07:27:48 | 02:33:35 | 00:00:00 | |
| DM0DOS-11 | 2026-09-02 12:10:42 | 52.35197 | 9.00903 | 70° | 42km/h | 2000m | -3.1m/s | 3.8°C | 76.5% | 805.5hPa | 2.8V | 07:27:50 | 02:33:33 | 00:00:00 | |
| DM0DOS-11 | 2026-09-02 12:10:42 | 52.35189 | 9.00874 | 62° | 37km/h | 2006m | -3.2m/s | 3.7°C | 74.1% | 804.9hPa | 2.8V | 07:27:52 | 02:33:31 | 00:00:00 | |
| BIOWL1-15 | 2026-09-02 12:10:41 | 52.35202 | 9.00937 | 84° | 42km/h | 1994m | -3.2m/s | 4°C | 75.9% | 806.1hPa | 2.8V | 07:28:23 | 02:33:35 | 00:00:00 | |
| BIOWL1-15 | 2026-09-02 12:10:40 | 52.35200 | 9.00920 | 78° | 42km/h | 1997m | -3.1m/s | 3.9°C | 79.4% | 805.8hPa | 2.8V | 07:28:23 | 02:33:34 | 00:00:00 | |
| DB0DAN | 2026-09-02 12:10:40 | 52.35200 | 9.00920 | 78° | 40km/h | 1997m | -3.1m/s | 3.9°C | 74.2% | 805.83hPa | 2.8V | 00:00:00 | 00:00:00 | 00:00:00 | |
| BIOWL1-15 | 2026-09-02 12:10:39 | 52.35197 | 9.00903 | 71° | 42km/h | 2000m | -3.1m/s | 3.8°C | 81.1% | 805.5hPa | 2.8V | 07:28:23 | 02:33:33 | 00:00:00 | |
| DL4XJ-10 | 2026-09-02 12:10:39 | 52.35197 | 9.00903 | 71° | 35km/h | 1999m | -3.1m/s | 2.8°C | 0% | 0hPa | 2.7V | 00:00:00 | 00:00:00 | 00:00:00 | |
| DM0DOS-11 | 2026-09-02 12:10:37 | 52.35173 | 9.00812 | 91° | 26km/h | 2025m | -3m/s | 3.8°C | 74.6% | 803hPa | 2.7V | 07:27:58 | 02:33:25 | 00:00:00 | |
| DJ2DS-15 | 2026-09-02 12:10:35 | 52.35175 | 9.00774 | 92° | 37km/h | 2034m | -3.4m/s | 3.8°C | 69.0% | 802.1hPa | 2.8V | 00:00:00 | 00:00:00 | 00:00:00 | |
| DM0DOS-11 | 2026-09-02 12:10:32 | 52.35175 | 9.00741 | 83° | 42km/h | 2041m | -3.2m/s | 3.7°C | 71.9% | 801.5hPa | 2.8V | 07:28:03 | 02:33:20 | 00:00:00 | |
| BIOWL1-15 | 2026-09-02 12:10:31 | 52.35175 | 9.00758 | 88° | 40km/h | 2037m | -3.3m/s | 3.7°C | 74.6% | 801.6hPa | 2.8V | 07:28:23 | 02:33:21 | 00:00:00 | |
| DL1LOL-11 | 2026-09-02 12:10:28 | 52.35175 | 9.00788 | 96° | 33km/h | 2031m | -3.0m/s | 3.8°C | 76.6% | 802.3hPa | 2.8V | 00:00:00 | 00:00:00 | 00:00:00 | |
| DM0DOS-11 | 2026-09-02 12:10:26 | 52.35160 | 9.00662 | 65° | 35km/h | 2056m | -2.5m/s | 3.4°C | 73.9% | 799.9hPa | 2.8V | 07:28:08 | 02:33:15 | 00:00:00 | |
| DB0DAN | 2026-09-02 12:10:25 | 52.35173 | 9.00724 | 78° | 40km/h | 2044m | -3.3m/s | 3.6°C | 71% | 801.03hPa | 2.8V | 00:00:00 | 00:00:00 | 00:00:00 | |
| BIOWL9-15 | 2026-09-02 12:10:24 | 52.35170 | 9.00707 | 73° | 42km/h | 2047m | -3.1m/s | 3.5°C | 71.7% | 800.8hPa | 2.8V | 00:00:00 | 00:00:00 | 00:00:00 | |
| DL4XJ-10 | 2026-09-02 12:10:20 | 52.35156 | 9.00649 | 67° | 33km/h | 2058m | -2.6m/s | 2.4°C | 0% | 0hPa | 2.8V | 00:00:00 | 00:00:00 | 00:00:00 | |
| BIOWL1-15 | 2026-09-02 12:10:17 | 52.35116 | 9.00391 | 63° | 35km/h | 2120m | -3.1m/s | 3°C | 74.7% | 793.7hPa | 2.8V | 07:29:14 | 02:32:54 | 00:00:00 | |
| DL3AQ-11 | 2026-09-02 12:10:17 | 52.35145 | 9.00604 | 64° | 29km/h | 2070m | -2.9m/s | 3.3°C | 74.7% | 798.6hPa | 2.8V | 00:00:00 | 00:00:00 | 00:00:00 | |
| DM0DOS-11 | 2026-09-02 12:10:16 | 52.35131 | 9.00554 | 75° | 22km/h | 2086m | -3.4m/s | 3.3°C | 69.5% | 796.9hPa | 2.8V | 07:28:18 | 02:33:05 | 00:00:00 | |
| DD8BA-10 | 2026-09-02 12:10:14 | 52.35138 | 9.00582 | 64° | 33km/h | 2076m | -3.3m/s | 3.3°C | 72.2% | 797.7hPa | 2.7V | 00:00:00 | 00:00:00 | 00:00:00 | |
| DM0DOS-11 | 2026-09-02 12:10:11 | 52.35131 | 9.00490 | 88° | 42km/h | 2101m | -3.2m/s | 3.1°C | 74.8% | 795.4hPa | 2.7V | 07:28:23 | 02:33:00 | 00:00:00 | |
| DB0DAN | 2026-09-02 12:10:10 | 52.35130 | 9.00544 | 85° | 24km/h | 2089m | -3.2m/s | 3.3°C | 69.2% | 796.53hPa | 2.8V | 00:00:00 | 00:00:00 | 00:00:00 | |
| DM0DOS-11 | 2026-09-02 12:10:06 | 52.35120 | 9.00405 | 66° | 38km/h | 2117m | -3m/s | 3°C | 69.7% | 794hPa | 2.8V | 07:28:28 | 02:32:55 | 00:00:00 | |
| DL3AQ-11 | 2026-09-02 12:10:06 | 52.35130 | 9.00472 | 84° | 42km/h | 2104m | -3.1m/s | 3.1°C | 69.8% | 795.1hPa | 2.7V | 00:00:00 | 00:00:00 | 00:00:00 | |
| DJ2DS-15 | 2026-09-02 12:10:04 | 52.35129 | 9.00454 | 81° | 37km/h | 2107m | -3.2m/s | 3.0°C | 70.2% | 794.8hPa | 2.7V | 00:00:00 | 02:32:58 | 00:00:00 | |
| DM0DOS-11 | 2026-09-02 12:10:01 | 52.35105 | 9.00349 | 79° | 26km/h | 2132m | -2.9m/s | 3°C | 69.9% | 792.6hPa | 2.8V | 07:28:33 | 02:32:50 | 00:00:00 | |
| BIOWL1-15 | 2026-09-02 12:10:00 | 52.35107 | 9.00359 | 72° | 26km/h | 2129m | -3m/s | 3°C | 74% | 792.8hPa | 2.8V | 07:29:14 | 02:32:51 | 00:00:00 | |
| DJ2DS-15 | 2026-09-02 12:09:59 | 52.35112 | 9.00380 | 63° | 29km/h | 2123m | -3.2m/s | 3.0°C | 68.1% | 793.2hPa | 2.8V | 00:00:00 | 00:00:00 | 00:00:00 | |
| BIOWL7-15 | 2026-09-02 12:09:58 | 52.35112 | 9.00380 | 64° | 31km/h | 2123m | -3.2m/s | 3.0°C | 68.1% | 793.2hPa | 2.8V | 00:00:00 | 00:00:00 | 00:00:00 | |
| DM0DOS-11 | 2026-09-02 12:09:56 | 52.35106 | 9.00283 | 89° | 42km/h | 2146m | -2.8m/s | 2.8°C | 71% | 790.9hPa | 2.8V | 07:28:38 | 02:32:45 | 00:00:00 | |
| BUE01 | 2026-09-02 12:09:54 | 52.35104 | 9.00327 | 92° | 27km/h | 2138m | -2.8m/s | 2.9°C | 69.2% | 791.9hPa | 2.7V | 00:00:00 | 00:00:00 | 00:00:00 | |
| DD8BA-10 | 2026-09-02 12:09:53 | 52.35105 | 9.00314 | 96° | 40km/h | 2141m | -3.0m/s | 2.8°C | 71.4% | 791.6hPa | 2.7V | 00:00:00 | 00:00:00 | 00:00:00 | |
| DM0DOS-11 | 2026-09-02 12:09:51 | 52.35094 | 9.00196 | 64° | 42km/h | 2161m | -2.9m/s | 2.5°C | 70% | 789.6hPa | 2.7V | 07:28:43 | 02:32:40 | 00:00:00 | |
| BIOWL1-15 | 2026-09-02 12:09:47 | 52.35094 | 9.00196 | 65° | 42km/h | 2161m | -2.9m/s | 2.5°C | 74.9% | 789.6hPa | 2.7V | 07:29:14 | 02:32:40 | 00:00:00 | |
| DJ2DS-15 | 2026-09-02 12:09:43 | 52.35081 | 9.00156 | 65° | 35km/h | 2170m | -3.1m/s | 2.4°C | 70.1% | 788.7hPa | 2.7V | 00:00:00 | 02:32:37 | 00:00:00 | |
| DL4XJ-10 | 2026-09-02 12:09:40 | 52.35077 | 9.00124 | 92° | 37km/h | 2179m | -2.8m/s | 1.4°C | 0% | 0hPa | 2.7V | 00:00:00 | 00:00:00 | 00:00:00 | |
| DM0DOS-11 | 2026-09-02 12:09:39 | 52.35079 | 9.00065 | 87° | 44km/h | 2190m | -2.9m/s | 2.3°C | 70.6% | 786.9hPa | 2.7V | 07:28:53 | 02:32:30 | 00:00:00 | |
| BIOWL1-15 | 2026-09-02 12:09:37 | 52.35079 | 9.00082 | 93° | 40km/h | 2187m | -3.1m/s | 2.3°C | 74.2% | 787.2hPa | 2.8V | 07:29:14 | 02:32:31 | 00:00:00 | |
| DL3AQ-11 | 2026-09-02 12:09:37 | 52.35079 | 9.00065 | 87° | 42km/h | 2190m | -2.9m/s | 2.3°C | 69.7% | 786.9hPa | 2.7V | 00:00:00 | 00:00:00 | 00:00:00 | |
| DM0DOS-11 | 2026-09-02 12:09:34 | 52.35067 | 8.99974 | 66° | 42km/h | 2205m | -2.7m/s | 2.1°C | 71.9% | 785.3hPa | 2.7V | 07:28:58 | 02:32:25 | 00:00:00 | |
| BIOWL1-15 | 2026-09-02 12:09:27 | 52.35052 | 8.99900 | 92° | 29km/h | 2221m | -2.8m/s | 2.2°C | 75.1% | 783.7hPa | 2.7V | 07:29:14 | 02:32:19 | 00:00:00 | |
| DM0DOS-11 | 2026-09-02 12:09:26 | 52.35052 | 8.99912 | 85° | 27km/h | 2219m | -2.8m/s | 2.2°C | 73% | 784hPa | 2.8V | 07:29:03 | 02:32:20 | 00:00:00 | |
| DM0DOS-11 | 2026-09-02 12:09:26 | 52.35055 | 8.99839 | 90° | 44km/h | 2232m | -2.9m/s | 2°C | 73.9% | 782.8hPa | 2.8V | 07:29:08 | 02:32:15 | 00:00:00 | |
| DL1XH-west | 2026-09-02 12:09:26 | 52.35053 | 8.99912 | 86° | 27km/h | 2219m | -2.8m/s | 2.2°C | 75.8% | 784hPa | 2.8V | 07:30:05 | 02:32:20 | 00:00:00 | |
| DB0DAN | 2026-09-02 12:09:25 | 52.35052 | 8.99900 | 92° | 27km/h | 2221m | -2.8m/s | 2.2°C | 71.7% | 783.71hPa | 2.7V | 00:00:00 | 00:00:00 | 00:00:00 | |
| DD8BA-10 | 2026-09-02 12:09:23 | 52.35054 | 8.99873 | 96° | 42km/h | 2227m | -2.8m/s | 2.0°C | 73.3% | 783.2hPa | 2.7V | 00:00:00 | 00:00:00 | 00:00:00 | |
| BIOWL9-15 | 2026-09-02 12:09:22 | 52.35055 | 8.99857 | 93° | 40km/h | 2230m | -2.8m/s | 2.0°C | 71.8% | 783.1hPa | 2.7V | 00:00:00 | 00:00:00 | 00:00:00 | |
| DM0DOS-11 | 2026-09-02 12:09:21 | 52.35044 | 8.99746 | 68° | 42km/h | 2246m | -2.6m/s | 1.8°C | 75.9% | 781.4hPa | 2.7V | 07:29:13 | 02:32:10 | 00:00:00 | |
| DO2JMG | 2026-09-02 12:09:19 | 52.35054 | 8.99801 | 82° | 47km/h | 2238m | -2.6m/s | 1.9°C | 77.1% | 782.2hPa | 2.7V | 07:29:14 | 02:32:13 | 00:00:00 | |
| DL1XH-west | 2026-09-02 12:09:14 | 52.35033 | 8.99705 | 67° | 31km/h | 2254m | -2.5m/s | 1.8°C | 82% | 780.5hPa | 2.8V | 07:30:05 | 02:32:07 | 00:00:00 | |
| DB0DAN | 2026-09-02 12:09:10 | 52.35027 | 8.99672 | 82° | 24km/h | 2262m | -2.7m/s | 1.8°C | 77.8% | 779.76hPa | 2.7V | 00:00:00 | 00:00:00 | 00:00:00 | |
| DO2JMG | 2026-09-02 12:09:08 | 52.35027 | 8.99650 | 93° | 29km/h | 2267m | -2.5m/s | 1.9°C | 79% | 779.2hPa | 2.7V | 07:30:05 | 02:32:02 | 00:00:00 | |
| BIOWL1-15 | 2026-09-02 12:09:06 | 52.35012 | 8.99446 | 101° | 26km/h | 2306m | -3m/s | 2.2°C | 65.6% | 775.6hPa | 2.7V | 07:30:05 | 02:31:47 | 00:00:00 | |
| DM0DOS-11 | 2026-09-02 12:09:05 | 52.35023 | 8.99522 | 70° | 38km/h | 2288m | -2.6m/s | 2°C | 64.9% | 777.4hPa | 2.7V | 07:29:29 | 02:31:54 | 00:00:00 | |
| DL1XH-west | 2026-09-02 12:09:02 | 52.35026 | 8.99537 | 75° | 42km/h | 2285m | -2.6m/s | 2°C | 68.6% | 777.6hPa | 2.7V | 07:30:05 | 02:31:55 | 00:00:00 | |
| DL4XJ-10 | 2026-09-02 12:09:00 | 52.35023 | 8.99521 | 71° | 31km/h | 2288m | -2.6m/s | 1.0°C | 0% | 0hPa | 2.7V | 00:00:00 | 00:00:00 | 00:00:00 | |
| DM0DOS-11 | 2026-09-02 12:08:59 | 52.35011 | 8.99465 | 85° | 22km/h | 2300m | -2.6m/s | 2.2°C | 63.1% | 776.1hPa | 2.7V | 07:29:34 | 02:31:49 | 00:00:00 | |
| BIOWL1-15 | 2026-09-02 12:08:58 | 52.35013 | 8.99435 | 104° | 29km/h | 2309m | -2.8m/s | 2.2°C | 65.5% | 775.4hPa | 2.7V | 07:30:05 | 02:31:46 | 00:00:00 | |
| DO2JMG | 2026-09-02 12:08:58 | 52.35014 | 8.99484 | 69° | 27km/h | 2295m | -2.6m/s | 2.2°C | 66.7% | 776.7hPa | 2.7V | 07:30:05 | 02:31:51 | 00:00:00 | |
| DL3AQ-11 | 2026-09-02 12:08:57 | 52.35012 | 8.99474 | 75° | 22km/h | 2298m | -2.5m/s | 2.2°C | 62.3% | 776.4hPa | 2.7V | 00:00:00 | 00:00:00 | 00:00:00 | |
| DB0DAN | 2026-09-02 12:08:55 | 52.35011 | 8.99465 | 85° | 22km/h | 2300m | -2.6m/s | 2.2°C | 62.3% | 776.14hPa | 2.7V | 00:00:00 | 00:00:00 | 00:00:00 | |
| DM0DOS-11 | 2026-09-02 12:08:53 | 52.35017 | 8.99409 | 102° | 37km/h | 2314m | -2.5m/s | 2.2°C | 60.6% | 774.8hPa | 2.7V | 07:29:39 | 02:31:44 | 00:00:00 | |
| DL1XH-west | 2026-09-02 12:08:52 | 52.35015 | 8.99423 | 105° | 33km/h | 2311m | -2.7m/s | 2.2°C | 64.6% | 775hPa | 2.7V | 07:30:05 | 02:31:45 | 00:00:00 | |
| DO2JMG | 2026-09-02 12:08:46 | 52.35017 | 8.99342 | 79° | 40km/h | 2324m | -2.6m/s | 2.1°C | 63.1% | 773.8hPa | 2.7V | 07:30:05 | 02:31:40 | 00:00:00 | |
| DM0DOS-11 | 2026-09-02 12:08:45 | 52.35005 | 8.99273 | 74° | 22km/h | 2339m | -2.9m/s | 2.1°C | 56.5% | 772.5hPa | 2.7V | 07:29:49 | 02:31:34 | 00:00:00 | |
| BIOWL1-15 | 2026-09-02 12:08:42 | 52.35008 | 8.99291 | 71° | 24km/h | 2333m | -2.4m/s | 2.1°C | 61.1% | 773hPa | 2.7V | 07:30:05 | 02:31:36 | 00:00:00 | |
| DL1XH-west | 2026-09-02 12:08:41 | 52.35006 | 8.99282 | 73° | 22km/h | 2336m | -2.9m/s | 2.1°C | 60.3% | 772.8hPa | 2.7V | 07:30:05 | 02:31:35 | 00:00:00 | |
| DM0DOS-11 | 2026-09-02 12:08:40 | 52.35004 | 8.99232 | 107° | 22km/h | 2353m | -2.6m/s | 2.1°C | 54.1% | 771.1hPa | 2.7V | 07:29:54 | 02:31:29 | 00:00:00 | |
| DB0DAN | 2026-09-02 12:08:40 | 52.35005 | 8.99273 | 74° | 20km/h | 2339m | -2.9m/s | 2.1°C | 55.8% | 772.49hPa | 2.7V | 00:00:00 | 00:00:00 | 00:00:00 | |
| DO2JMG | 2026-09-02 12:08:36 | 52.35003 | 8.99241 | 101° | 20km/h | 2350m | -2.7m/s | 2.1°C | 57.6% | 771.4hPa | 2.7V | 07:30:05 | 02:31:30 | 00:00:00 | |
| BIOWL1-15 | 2026-09-02 12:08:31 | 52.35008 | 8.99129 | 72° | 31km/h | 2373m | -2.7m/s | 2.8°C | 33.2% | 769.2hPa | 2.7V | 07:30:05 | 02:31:21 | 00:00:00 | |
| DL1XH-west | 2026-09-02 12:08:30 | 52.35012 | 8.99155 | 81° | 35km/h | 2368m | -2.3m/s | 2.4°C | 44.4% | 769.7hPa | 2.7V | 07:30:05 | 02:31:23 | 00:00:00 | |
| DM0DOS-11 | 2026-09-02 12:08:29 | 52.35003 | 8.99107 | 66° | 24km/h | 2378m | -2.8m/s | 2.9°C | 26.9% | 768.7hPa | 2.7V | 07:30:04 | 02:31:19 | 00:00:00 | |
| DO2JMG | 2026-09-02 12:08:25 | 52.35003 | 8.99107 | 67° | 24km/h | 2378m | -2.8m/s | 2.9°C | 30.3% | 768.8hPa | 2.7V | 07:30:05 | 02:31:19 | 00:00:00 | |
| DB0DAN | 2026-09-02 12:08:25 | 52.35003 | 8.99107 | 67° | 24km/h | 2378m | -2.8m/s | 2.9°C | 26.6% | 768.75hPa | 2.7V | 00:00:00 | 00:00:00 | 00:00:00 | |
| DM0DOS-11 | 2026-09-02 12:08:23 | 52.35000 | 8.99073 | 113° | 18km/h | 2391m | -2.7m/s | 2.9°C | 25.5% | 767.6hPa | 2.7V | 07:30:09 | 02:31:14 | 00:00:00 | |
| BIOWL1-15 | 2026-09-02 12:08:23 | 52.34999 | 8.99079 | 104° | 15km/h | 2389m | -2.6m/s | 2.9°C | 28.4% | 767.8hPa | 2.7V | 07:30:56 | 02:31:15 | 00:00:00 | |
| DL1XH-west | 2026-09-02 12:08:19 | 52.35005 | 8.99056 | 115° | 26km/h | 2396m | -2.5m/s | 2.9°C | 27.4% | 767.1hPa | 2.7V | 07:30:56 | 02:31:12 | 00:00:00 | |
| DO2JMG | 2026-09-02 12:08:15 | 52.35012 | 8.99006 | 88° | 33km/h | 2406m | -2.4m/s | 2.9°C | 27.2% | 766.1hPa | 2.7V | 07:33:29 | 02:31:08 | 00:00:00 | |
| BIOWL1-15 | 2026-09-02 12:08:11 | 52.35002 | 8.98934 | 109° | 16km/h | 2427m | -2.4m/s | 2.8°C | 24.8% | 764.1hPa | 2.7V | 07:30:56 | 02:31:00 | 00:00:00 | |
| DB0DAN | 2026-09-02 12:08:10 | 52.35005 | 8.98960 | 66° | 20km/h | 2416m | -2.5m/s | 2.8°C | 23.4% | 765.22hPa | 2.6V | 00:00:00 | 00:00:00 | 00:00:00 | |
| DL1XH-west | 2026-09-02 12:08:08 | 52.35001 | 8.98946 | 77° | 15km/h | 2421m | -2.5m/s | 2.8°C | 25.6% | 764.7hPa | 2.7V | 07:30:56 | 02:31:02 | 00:00:00 | |
| DL3AQ-11 | 2026-09-02 12:08:06 | 52.35003 | 8.98928 | 117° | 18km/h | 2429m | -2.5m/s | 2.8°C | 21.9% | 764.0hPa | 2.7V | 00:00:00 | 00:00:00 | 00:00:00 | |
| DM0DOS-11 | 2026-09-02 12:08:04 | 52.35014 | 8.98847 | 83° | 31km/h | 2446m | -2.5m/s | 2.6°C | 22.1% | 762.3hPa | 2.7V | 07:30:31 | 02:30:52 | 00:00:00 | |
| BIOWL1-15 | 2026-09-02 12:07:59 | 52.35015 | 8.98861 | 88° | 33km/h | 2444m | -2.4m/s | 2.7°C | 25.3% | 762.5hPa | 2.7V | 07:30:56 | 02:30:53 | 00:00:00 | |
| DM0DOS-11 | 2026-09-02 12:07:58 | 52.35005 | 8.98798 | 68° | 16km/h | 2459m | -2.7m/s | 2.5°C | 22.1% | 761.1hPa | 2.7V | 07:30:36 | 02:30:47 | 00:00:00 | |
| DL1XH-west | 2026-09-02 12:07:57 | 52.35013 | 8.98835 | 77° | 29km/h | 2449m | -2.5m/s | 2.6°C | 25.6% | 762hPa | 2.6V | 07:30:56 | 02:30:51 | 00:00:00 | |
| DB0DAN | 2026-09-02 12:07:55 | 52.35009 | 8.98814 | 68° | 22km/h | 2454m | -2.6m/s | 2.5°C | 22% | 761.67hPa | 2.7V | 00:00:00 | 00:00:00 | 00:00:00 | |
| DO2JMG | 2026-09-02 12:07:54 | 52.35007 | 8.98805 | 66° | 20km/h | 2456m | -2.5m/s | 2.5°C | 25.3% | 761.3hPa | 2.7V | 07:33:29 | 02:30:48 | 00:00:00 | |
| DM0DOS-11 | 2026-09-02 12:07:53 | 52.35010 | 8.98768 | 118° | 26km/h | 2472m | -2.5m/s | 2.5°C | 21.6% | 759.9hPa | 2.6V | 07:30:41 | 02:30:42 | 00:00:00 | |
| BIOWL1-15 | 2026-09-02 12:07:49 | 52.35010 | 8.98768 | 118° | 26km/h | 2472m | -2.5m/s | 2.5°C | 24% | 759.9hPa | 2.6V | 07:30:56 | 02:30:42 | 00:00:00 | |
| DM0DOS-11 | 2026-09-02 12:07:48 | 52.35017 | 8.98708 | 82° | 31km/h | 2484m | -2.7m/s | 2.4°C | 21.6% | 758.6hPa | 2.7V | 07:30:46 | 02:30:37 | 00:00:00 | |
| DL1XH-west | 2026-09-02 12:07:46 | 52.35015 | 8.98746 | 104° | 31km/h | 2477m | -2.5m/s | 2.5°C | 24.3% | 759.4hPa | 2.7V | 07:30:56 | 02:30:40 | 00:00:00 | |
| DO2JMG | 2026-09-02 12:07:43 | 52.35017 | 8.98708 | 82° | 31km/h | 2484m | -2.7m/s | 2.4°C | 25% | 758.6hPa | 2.7V | 07:33:29 | 02:30:37 | 00:00:00 | |
| DJ2DS-15 | 2026-09-02 12:07:43 | 52.35017 | 8.98708 | 83° | 24km/h | 2484m | -2.6m/s | 2.3°C | 21.6% | 758.6hPa | 2.7V | 00:00:00 | 02:30:37 | 00:00:00 | |
| DB0DAN | 2026-09-02 12:07:40 | 52.35011 | 8.98675 | 69° | 22km/h | 2492m | -2.6m/s | 2.3°C | 21.6% | 757.88hPa | 2.7V | 00:00:00 | 00:00:00 | 00:00:00 | |
| BIOWL1-15 | 2026-09-02 12:07:40 | 52.35008 | 8.98660 | 72° | 15km/h | 2498m | -2.7m/s | 2.3°C | 24.7% | 757.5hPa | 2.7V | 07:30:56 | 02:30:32 | 00:00:00 | |
| DM0DOS-11 | 2026-09-02 12:07:38 | 52.35016 | 8.98626 | 119° | 24km/h | 2514m | -2.8m/s | 2.2°C | 21.8% | 756hPa | 2.7V | 07:30:57 | 02:30:26 | 00:00:00 | |
| DL1XH-west | 2026-09-02 12:07:36 | 52.35009 | 8.98646 | 119° | 13km/h | 2505m | -2.7m/s | 2.2°C | 24.1% | 756.7hPa | 2.7V | 07:30:56 | 02:30:29 | 00:00:00 | |
| BIOWL1-15 | 2026-09-02 12:07:28 | 52.35024 | 8.98580 | 91° | 31km/h | 2525m | -2.8m/s | 2.1°C | 24.2% | 754.9hPa | 2.7V | 07:31:47 | 02:30:22 | 00:00:00 | |
| DM0DOS-11 | 2026-09-02 12:07:27 | 52.35013 | 8.98520 | 61° | 15km/h | 2543m | -2.8m/s | 2°C | 20.4% | 753.1hPa | 2.7V | 07:31:07 | 02:30:16 | 00:00:00 | |
| DB0DAN | 2026-09-02 12:07:25 | 52.35020 | 8.98544 | 70° | 26km/h | 2533m | -3.1m/s | 2°C | 20.6% | 754.11hPa | 2.7V | 00:00:00 | 00:00:00 | 00:00:00 | |
| DL1XH1-15 | 2026-09-02 12:07:24 | 52.35012 | 8.98506 | 115° | 15km/h | 2551m | -2.9m/s | 2.1°C | 19.7% | 752.4hPa | 2.7V | 07:31:10 | 02:30:13 | 00:00:00 | |
| DO2JMG | 2026-09-02 12:07:22 | 52.35013 | 8.98520 | 61° | 15km/h | 2543m | -2.8m/s | 2°C | 22.8% | 753.1hPa | 2.7V | 07:33:29 | 02:30:16 | 00:00:00 | |
| DL4XJ-10 | 2026-09-02 12:07:20 | 52.35011 | 8.98511 | 103° | 22km/h | 2548m | -2.7m/s | 1.1°C | 0% | 0hPa | 2.7V | 00:00:00 | 00:00:00 | 00:00:00 | |
| BUE01 | 2026-09-02 12:07:19 | 52.35013 | 8.98506 | 115° | 13km/h | 2551m | -2.9m/s | 2.1°C | 19.5% | 752.4hPa | 2.7V | 00:00:00 | 00:00:00 | 00:00:00 | |
| BIOWL9-15 | 2026-09-02 12:07:18 | 52.35017 | 8.98492 | 112° | 22km/h | 2557m | -3.0m/s | 2.1°C | 18.4% | 751.8hPa | 2.7V | 00:00:00 | 00:00:00 | 00:00:00 | |
| DM0DOS-11 | 2026-09-02 12:07:17 | 52.35019 | 8.98432 | 74° | 31km/h | 2572m | -3m/s | 2.1°C | 21.2% | 750.5hPa | 2.7V | 07:31:17 | 02:30:06 | 00:00:00 | |
| BIOWL1-15 | 2026-09-02 12:07:17 | 52.35017 | 8.98492 | 113° | 24km/h | 2557m | -3m/s | 2.1°C | 20.3% | 751.8hPa | 2.7V | 07:31:47 | 02:30:11 | 00:00:00 | |
| DL1XH-west | 2026-09-02 12:07:13 | 52.35019 | 8.98432 | 75° | 31km/h | 2572m | -3m/s | 2.1°C | 23.7% | 750.5hPa | 2.7V | 07:31:47 | 02:30:06 | 00:00:00 | |
| DL1XH1-15 | 2026-09-02 12:07:12 | 52.35003 | 8.98387 | 49° | 18km/h | 2587m | -3.1m/s | 2.2°C | 19.6% | 748.9hPa | 2.7V | 07:31:22 | 02:30:01 | 00:00:00 | |
| DO2JMG | 2026-09-02 12:07:11 | 52.35016 | 8.98420 | 68° | 29km/h | 2575m | -2.9m/s | 2.2°C | 22.8% | 750.2hPa | 2.6V | 07:33:29 | 02:30:05 | 00:00:00 | |
| DB0DAN | 2026-09-02 12:07:10 | 52.35013 | 8.98410 | 60° | 26km/h | 2578m | -2.8m/s | 2.2°C | 19.7% | 749.8hPa | 2.6V | 00:00:00 | 00:00:00 | 00:00:00 | |
| DL3AQ-11 | 2026-09-02 12:07:10 | 52.35010 | 8.98401 | 55° | 24km/h | 2580m | -3.0m/s | 2.2°C | 19.7% | 749.6hPa | 2.7V | 00:00:00 | 00:00:00 | 00:00:00 | |
| DL1XH1-15 | 2026-09-02 12:07:06 | 52.34998 | 8.98360 | 107° | 18km/h | 2602m | -3.2m/s | 2.2°C | 19.1% | 747.6hPa | 2.7V | 07:31:27 | 02:29:56 | 00:00:00 | |
| BIOWL1-15 | 2026-09-02 12:07:06 | 52.34997 | 8.98372 | 85° | 11km/h | 2596m | -3m/s | 2.2°C | 21% | 748.1hPa | 2.7V | 07:31:47 | 02:29:58 | 00:00:00 | |
| DO2JMG | 2026-09-02 12:07:01 | 52.35000 | 8.98351 | 104° | 24km/h | 2606m | -3.3m/s | 2.2°C | 21.2% | 747.1hPa | 2.6V | 07:33:29 | 02:29:55 | 00:00:00 | |
| DJ2DS-15 | 2026-09-02 12:06:59 | 52.35002 | 8.98330 | 93° | 29km/h | 2612m | -3.4m/s | 2.2°C | 18.3% | 746.6hPa | 2.7V | 00:00:00 | 00:00:00 | 00:00:00 | |
| DL3AQ-11 | 2026-09-02 12:06:57 | 52.34998 | 8.98292 | 65° | 29km/h | 2622m | -3.3m/s | 2.2°C | 17.8% | 745.7hPa | 2.7V | 00:00:00 | 00:00:00 | 00:00:00 | |
| DM0DOS-11 | 2026-09-02 12:06:56 | 52.34985 | 8.98263 | 58° | 13km/h | 2635m | -3.4m/s | 2.4°C | 15.5% | 744.6hPa | 2.7V | 07:31:37 | 02:29:46 | 00:00:00 | |
| DB0DAN | 2026-09-02 12:06:55 | 52.34995 | 8.98282 | 56° | 26km/h | 2626m | -3.1m/s | 2.3°C | 16.8% | 745.53hPa | 2.7V | 00:00:00 | 00:00:00 | 00:00:00 | |
| BIOWL1-15 | 2026-09-02 12:06:55 | 52.34983 | 8.98166 | 60° | 27km/h | 2672m | -3.5m/s | 2.1°C | 16.6% | 741hPa | 2.7V | 07:32:38 | 02:29:35 | 00:00:00 | |
| DL1XH1-15 | 2026-09-02 12:06:54 | 52.34985 | 8.98249 | 108° | 15km/h | 2645m | -3.4m/s | 2.4°C | 14.9% | 743.6hPa | 2.7V | 07:31:40 | 02:29:43 | 00:00:00 | |
| DL1XH-west | 2026-09-02 12:06:52 | 52.34986 | 8.98263 | 59° | 13km/h | 2635m | -3.4m/s | 2.4°C | 16.8% | 744.6hPa | 2.7V | 07:31:47 | 02:29:46 | 00:00:00 | |
| DM0DOS-11 | 2026-09-02 12:06:51 | 52.34988 | 8.98234 | 107° | 24km/h | 2652m | -3.5m/s | 2.3°C | 15% | 742.9hPa | 2.7V | 07:31:42 | 02:29:41 | 00:00:00 | |
| DO2JMG | 2026-09-02 12:06:50 | 52.34984 | 8.98254 | 100° | 11km/h | 2642m | -3.4m/s | 2.4°C | 16.4% | 743.8hPa | 2.6V | 07:33:29 | 02:29:44 | 00:00:00 | |
| DL1XH1-15 | 2026-09-02 12:06:49 | 52.34990 | 8.98200 | 82° | 31km/h | 2662m | -3.3m/s | 2.2°C | 14.7% | 741.9hPa | 2.6V | 07:31:45 | 02:29:38 | 00:00:00 | |
| BUE01 | 2026-09-02 12:06:48 | 52.34987 | 8.98242 | 110° | 16km/h | 2649m | -3.4m/s | 2.3°C | 14.8% | 743.2hPa | 2.6V | 00:00:00 | 00:00:00 | 00:00:00 | |
| BIOWL9-15 | 2026-09-02 12:06:47 | 52.34990 | 8.98224 | 100° | 26km/h | 2655m | -3.4m/s | 2.3°C | 14.7% | 742.7hPa | 2.6V | 00:00:00 | 00:00:00 | 00:00:00 | |
| BIOWL1-15 | 2026-09-02 12:06:45 | 52.34976 | 8.98150 | 47° | 20km/h | 2679m | -3.4m/s | 2.1°C | 18.3% | 740.3hPa | 2.6V | 07:32:38 | 02:29:33 | 00:00:00 | |
| DL1XH1-15 | 2026-09-02 12:06:44 | 52.34973 | 8.98145 | 45° | 15km/h | 2683m | -3.5m/s | 2.2°C | 18.4% | 740.1hPa | 2.7V | 07:31:51 | 02:29:32 | 00:00:00 | |
| DM0DOS-11 | 2026-09-02 12:06:41 | 52.34970 | 8.98141 | 54° | 11km/h | 2687m | -3.5m/s | 2.3°C | 17.9% | 739.8hPa | 2.7V | 07:31:52 | 02:29:31 | 00:00:00 | |
| DO2JMG | 2026-09-02 12:06:40 | 52.34979 | 8.98157 | 54° | 24km/h | 2676m | -3.6m/s | 2.1°C | 16.7% | 740.8hPa | 2.7V | 07:33:29 | 02:29:34 | 00:00:00 | |
| DL4XJ-10 | 2026-09-02 12:06:40 | 52.34979 | 8.98157 | 55° | 18km/h | 2676m | -3.6m/s | 1.1°C | 0% | 0hPa | 2.7V | 00:00:00 | 00:00:00 | 00:00:00 | |
| DB0DAN | 2026-09-02 12:06:40 | 52.34979 | 8.98157 | 54° | 24km/h | 2676m | -3.6m/s | 2.1°C | 14.9% | 740.76hPa | 2.7V | 00:00:00 | 00:00:00 | 00:00:00 | |
| DL1XH1-15 | 2026-09-02 12:06:39 | 52.34972 | 8.98121 | 111° | 20km/h | 2701m | -3.6m/s | 2.4°C | 18.8% | 738.6hPa | 2.7V | 07:31:56 | 02:29:27 | 00:00:00 | |
| DM0DOS-11 | 2026-09-02 12:06:35 | 52.34974 | 8.98112 | 106° | 24km/h | 2704m | -3.6m/s | 2.4°C | 19.1% | 738hPa | 2.7V | 07:31:57 | 02:29:26 | 00:00:00 | |
| DL1XH1-15 | 2026-09-02 12:06:33 | 52.34975 | 8.98066 | 77° | 29km/h | 2719m | -3.6m/s | 2.5°C | 24.2% | 736.8hPa | 2.7V | 07:32:01 | 02:29:22 | 00:00:00 | |
| BIOWL1-15 | 2026-09-02 12:06:32 | 52.34974 | 8.98112 | 106° | 24km/h | 2704m | -3.6m/s | 2.4°C | 21.4% | 738hPa | 2.7V | 07:32:38 | 02:29:26 | 00:00:00 | |
| DL1XH-west | 2026-09-02 12:06:30 | 52.34976 | 8.98078 | 86° | 31km/h | 2715m | -3.7m/s | 2.5°C | 26.3% | 737hPa | 2.7V | 07:32:38 | 02:29:23 | 00:00:00 | |
| DL3AQ-11 | 2026-09-02 12:06:29 | 52.34976 | 8.98078 | 86° | 29km/h | 2715m | -3.7m/s | 2.5°C | 22.9% | 737.0hPa | 2.7V | 00:00:00 | 00:00:00 | 00:00:00 | |
| DL1XH1-15 | 2026-09-02 12:06:28 | 52.34965 | 8.98033 | 91° | 7km/h | 2736m | -3.6m/s | 2.5°C | 25.6% | 735.3hPa | 2.7V | 07:32:06 | 02:29:17 | 00:00:00 | |
| DM0DOS-11 | 2026-09-02 12:06:28 | 52.34966 | 8.98030 | 121° | 11km/h | 2740m | -3.6m/s | 2.5°C | 26.9% | 734.8hPa | 2.7V | 07:32:07 | 02:29:16 | 00:00:00 | |
| DO2JMG | 2026-09-02 12:06:26 | 52.34970 | 8.98046 | 55° | 22km/h | 2726m | -3.3m/s | 2.4°C | 27.8% | 736hPa | 2.7V | 07:33:29 | 02:29:20 | 00:00:00 | |
| DB0DAN | 2026-09-02 12:06:25 | 52.34968 | 8.98040 | 49° | 15km/h | 2729m | -3.4m/s | 2.4°C | 24.6% | 735.82hPa | 2.7V | 00:00:00 | 00:00:00 | 00:00:00 | |
| BIOWL1-15 | 2026-09-02 12:06:24 | 52.34966 | 8.98030 | 121° | 11km/h | 2740m | -3.6m/s | 2.5°C | 29.8% | 734.8hPa | 2.7V | 07:32:38 | 02:29:16 | 00:00:00 | |
| DL1XH1-15 | 2026-09-02 12:06:23 | 52.34975 | 8.98000 | 102° | 27km/h | 2754m | -3.7m/s | 2.5°C | 47.2% | 733.4hPa | 2.7V | 07:32:11 | 02:29:12 | 00:00:00 | |
| DJ2DS-15 | 2026-09-02 12:06:23 | 52.34965 | 8.98033 | 92° | 18km/h | 2736m | -3.6m/s | 2.4°C | 25.6% | 735.2hPa | 2.7V | 00:00:00 | 02:29:17 | 00:00:00 | |
| DM0DOS-11 | 2026-09-02 12:06:22 | 52.34975 | 8.97988 | 92° | 27km/h | 2758m | -3.8m/s | 2.5°C | 48.5% | 733.2hPa | 2.7V | 07:32:12 | 02:29:11 | 00:00:00 | |
| DL1XH-west | 2026-09-02 12:06:19 | 52.34975 | 8.98000 | 102° | 27km/h | 2754m | -3.7m/s | 2.5°C | 51.8% | 733.4hPa | 2.7V | 07:32:38 | 02:29:12 | 00:00:00 | |
| DO2JMG | 2026-09-02 12:06:13 | 52.34968 | 8.97950 | 54° | 18km/h | 2773m | -3.7m/s | 2.3°C | 53.8% | 731.9hPa | 2.7V | 07:33:29 | 02:29:07 | 00:00:00 | |
| DL1XH1-15 | 2026-09-02 12:06:13 | 52.34963 | 8.97931 | 120° | 11km/h | 2791m | -3.6m/s | 2.4°C | 30.8% | 730.3hPa | 2.7V | 07:32:21 | 02:29:02 | 00:00:00 | |
| DD8BA-10 | 2026-09-02 12:06:13 | 52.34968 | 8.97950 | 55° | 15km/h | 2773m | -3.7m/s | 2.3°C | 48.6% | 731.8hPa | 2.7V | 00:00:00 | 00:00:00 | 00:00:00 | |
| DM0DOS-11 | 2026-09-02 12:06:12 | 52.34965 | 8.97926 | 121° | 15km/h | 2794m | -3.7m/s | 2.4°C | 28.4% | 730hPa | 2.7V | 07:32:22 | 02:29:01 | 00:00:00 | |
| BIOWL1-15 | 2026-09-02 12:06:11 | 52.34963 | 8.97940 | 53° | 11km/h | 2780m | -3.7m/s | 2.4°C | 47.6% | 731.3hPa | 2.6V | 07:32:38 | 02:29:05 | 00:00:00 | |
| DB0DAN | 2026-09-02 12:06:10 | 52.34962 | 8.97937 | 69° | 7km/h | 2784m | -3.7m/s | 2.4°C | 40.4% | 730.78hPa | 2.7V | 00:00:00 | 00:00:00 | 00:00:00 | |
| DL1XH-west | 2026-09-02 12:06:09 | 52.34962 | 8.97934 | 101° | 7km/h | 2787m | -3.7m/s | 2.4°C | 36.3% | 730.5hPa | 2.7V | 07:32:38 | 02:29:03 | 00:00:00 | |
| DL1XH1-15 | 2026-09-02 12:06:08 | 52.34971 | 8.97892 | 90° | 27km/h | 2809m | -3.6m/s | 2.4°C | 26.2% | 728.6hPa | 2.7V | 07:32:26 | 02:28:57 | 00:00:00 | |
| DL3AQ-11 | 2026-09-02 12:06:06 | 52.34969 | 8.97912 | 109° | 22km/h | 2802m | -3.7m/s | 2.4°C | 26.6% | 729.2hPa | 2.7V | 00:00:00 | 00:00:00 | 00:00:00 | |
| DL1XH1-15 | 2026-09-02 12:06:03 | 52.34961 | 8.97841 | 57° | 24km/h | 2827m | -3.9m/s | 2.2°C | 29.8% | 727hPa | 2.7V | 07:32:31 | 02:28:52 | 00:00:00 | |
| DJ2DS-15 | 2026-09-02 12:06:03 | 52.34971 | 8.97892 | 91° | 24km/h | 2809m | -3.6m/s | 2.3°C | 26.2% | 728.6hPa | 2.7V | 00:00:00 | 02:28:57 | 00:00:00 | |
| DM0DOS-11 | 2026-09-02 12:06:02 | 52.34958 | 8.97833 | 51° | 22km/h | 2831m | -3.8m/s | 2.2°C | 25.7% | 726.5hPa | 2.7V | 07:32:32 | 02:28:51 | 00:00:00 | |
| BIOWL1-15 | 2026-09-02 12:06:00 | 52.34955 | 8.97827 | 47° | 16km/h | 2835m | -3.7m/s | 2.2°C | 24.2% | 726.2hPa | 2.6V | 07:32:38 | 02:28:50 | 00:00:00 | |
| DL4XJ-10 | 2026-09-02 12:06:00 | 52.34967 | 8.97859 | 69° | 22km/h | 2820m | -3.7m/s | 1.2°C | 0% | 0hPa | 2.7V | 00:00:00 | 00:00:00 | 00:00:00 | |
| DL1XH1-15 | 2026-09-02 12:05:58 | 52.34950 | 8.97815 | 99° | 9km/h | 2846m | -3.4m/s | 2.2°C | 25.3% | 725.1hPa | 2.7V | 07:32:36 | 02:28:47 | 00:00:00 | |
| DL1XH-west | 2026-09-02 12:05:58 | 52.34961 | 8.97841 | 58° | 24km/h | 2827m | -3.9m/s | 2.2°C | 34.2% | 727hPa | 2.7V | 07:32:38 | 02:28:52 | 00:00:00 | |
| DO2JMG | 2026-09-02 12:05:57 | 52.34958 | 8.97833 | 52° | 22km/h | 2831m | -3.8m/s | 2.2°C | 29.6% | 726.5hPa | 2.7V | 07:33:29 | 02:28:51 | 00:00:00 | |
| DB0DAN | 2026-09-02 12:05:55 | 52.34952 | 8.97822 | 49° | 11km/h | 2839m | -3.6m/s | 2.2°C | 21.1% | 725.87hPa | 2.7V | 00:00:00 | 00:00:00 | 00:00:00 | |
| DL1XH1-15 | 2026-09-02 12:05:53 | 52.34958 | 8.97765 | 87° | 29km/h | 2868m | -3.8m/s | 2°C | 41.8% | 723.3hPa | 2.6V | 07:32:42 | 02:28:41 | 00:00:00 | |
| DD8BA-10 | 2026-09-02 12:05:53 | 52.34950 | 8.97815 | 100° | 24km/h | 2846m | -3.4m/s | 2.2°C | 25.3% | 725.1hPa | 2.6V | 00:00:00 | 00:00:00 | 00:00:00 | |
| DM0DOS-11 | 2026-09-02 12:05:52 | 52.34958 | 8.97765 | 87° | 29km/h | 2868m | -3.8m/s | 2°C | 41.8% | 723.3hPa | 2.6V | 07:32:42 | 02:28:41 | 00:00:00 | |
| DL1XH-west | 2026-09-02 12:05:48 | 52.34957 | 8.97753 | 78° | 29km/h | 2872m | -3.7m/s | 1.9°C | 47.8% | 722.9hPa | 2.7V | 07:33:29 | 02:28:40 | 00:00:00 | |
| DJ2DS-15 | 2026-09-02 12:05:47 | 52.34958 | 8.97765 | 87° | 27km/h | 2868m | -3.8m/s | 2.0°C | 41.2% | 723.3hPa | 2.6V | 00:00:00 | 00:00:00 | 00:00:00 | |
| BIOWL1-15 | 2026-09-02 12:05:46 | 52.34938 | 8.97700 | 59° | 11km/h | 2898m | -3.7m/s | 1.8°C | 49.8% | 720.5hPa | 2.6V | 07:33:29 | 02:28:33 | 00:00:00 | |
| DM0DOS-11 | 2026-09-02 12:05:46 | 52.34945 | 8.97714 | 50° | 22km/h | 2887m | -3.8m/s | 1.8°C | 43.8% | 721.5hPa | 2.7V | 07:32:47 | 02:28:36 | 00:00:00 | |
| BUE01 | 2026-09-02 12:05:46 | 52.34957 | 8.97753 | 78° | 29km/h | 2872m | -3.7m/s | 1.9°C | 41.9% | 722.9hPa | 2.7V | 00:00:00 | 00:00:00 | 00:00:00 | |
| BIOWL9-15 | 2026-09-02 12:05:44 | 52.34952 | 8.97731 | 61° | 26km/h | 2879m | -3.8m/s | 1.8°C | 42.7% | 722.2hPa | 2.7V | 00:00:00 | 00:00:00 | 00:00:00 | |
| DJ2DS-15 | 2026-09-02 12:05:43 | 52.34949 | 8.97722 | 56° | 22km/h | 2883m | -3.7m/s | 1.7°C | 44.3% | 721.8hPa | 2.7V | 00:00:00 | 02:28:37 | 00:00:00 | |
| DM0DOS-11 | 2026-09-02 12:05:41 | 52.34937 | 8.97692 | 105° | 11km/h | 2906m | -3.8m/s | 1.8°C | 44.6% | 719.9hPa | 2.7V | 07:32:52 | 02:28:31 | 00:00:00 | |
| DL4XJ-10 | 2026-09-02 12:05:40 | 52.34939 | 8.97703 | 49° | 22km/h | 2894m | -3.6m/s | 0.8°C | 0% | 0hPa | 2.7V | 00:00:00 | 00:00:00 | 00:00:00 | |
| DM0DOS-11 | 2026-09-02 12:05:36 | 52.34939 | 8.97648 | 77° | 29km/h | 2923m | -3.5m/s | 1.6°C | 44.5% | 718.2hPa | 2.7V | 07:32:57 | 02:28:26 | 00:00:00 | |
| DL1XH-west | 2026-09-02 12:05:36 | 52.34938 | 8.97687 | 109° | 16km/h | 2909m | -3.8m/s | 1.7°C | 48.9% | 719.6hPa | 2.7V | 07:33:29 | 02:28:30 | 00:00:00 | |
| DD8BA-10 | 2026-09-02 12:05:33 | 52.34940 | 8.97659 | 85° | 27km/h | 2920m | -3.5m/s | 1.6°C | 44.4% | 718.5hPa | 2.7V | 00:00:00 | 00:00:00 | 00:00:00 | |
| DM0DOS-11 | 2026-09-02 12:05:31 | 52.34927 | 8.97593 | 60° | 26km/h | 2942m | -3.7m/s | 1.4°C | 45.1% | 716.6hPa | 2.7V | 07:33:02 | 02:28:21 | 00:00:00 | |
| DM0DOS-11 | 2026-09-02 12:05:26 | 52.34910 | 8.97554 | 52° | 24km/h | 2959m | -3.8m/s | 1.2°C | 45.9% | 715.1hPa | 2.7V | 07:33:07 | 02:28:16 | 00:00:00 | |
| DL1XH-west | 2026-09-02 12:05:25 | 52.34921 | 8.97576 | 55° | 24km/h | 2949m | -3.6m/s | 1.3°C | 50.7% | 716hPa | 2.7V | 07:33:29 | 02:28:19 | 00:00:00 | |
| DB0DAN | 2026-09-02 12:05:25 | 52.34921 | 8.97576 | 55° | 22km/h | 2949m | -3.6m/s | 1.3°C | 45% | 716.04hPa | 2.7V | 00:00:00 | 00:00:00 | 00:00:00 | |
| DD8BA-10 | 2026-09-02 12:05:23 | 52.34914 | 8.97561 | 54° | 18km/h | 2956m | -3.5m/s | 1.2°C | 45.9% | 715.4hPa | 2.7V | 00:00:00 | 00:00:00 | 00:00:00 | |
| DD1CC8 | 2026-09-02 12:05:22 | 52.34910 | 8.97554 | 52° | 22km/h | 2959m | -3.8m/s | 0°C | -1.0% | -1.0hPa | 2.7V | 00:00:00 | 00:00:00 | 00:00:00 | |
| DM0DOS-11 | 2026-09-02 12:05:21 | 52.34893 | 8.97522 | 50° | 15km/h | 2979m | -3.8m/s | 1.1°C | 46.2% | 713.4hPa | 2.7V | 07:33:12 | 02:28:11 | 00:00:00 | |
| DO2JMG | 2026-09-02 12:05:20 | 52.34903 | 8.97539 | 47° | 22km/h | 2967m | -3.9m/s | 1.2°C | 51.6% | 714.5hPa | 2.6V | 07:33:29 | 02:28:14 | 00:00:00 | |
| DL4XJ-10 | 2026-09-02 12:05:20 | 52.34903 | 8.97539 | 48° | 22km/h | 2967m | -3.8m/s | 0.2°C | 0% | 0hPa | 2.6V | 00:00:00 | 00:00:00 | 00:00:00 | |
| DM0DOS-11 | 2026-09-02 12:05:16 | 52.34894 | 8.97491 | 102° | 24km/h | 2997m | -3.7m/s | 1.1°C | 46.1% | 711.8hPa | 2.6V | 07:33:17 | 02:28:06 | 00:00:00 | |
| DL1XH-west | 2026-09-02 12:05:15 | 52.34891 | 8.97513 | 94° | 13km/h | 2986m | -3.6m/s | 1.2°C | 49.7% | 712.6hPa | 2.7V | 07:33:29 | 02:28:09 | 00:00:00 | |
| BUE01 | 2026-09-02 12:05:15 | 52.34891 | 8.97507 | 101° | 15km/h | 2989m | -3.6m/s | 1.2°C | 45.1% | 712.4hPa | 2.7V | 00:00:00 | 00:00:00 | 00:00:00 | |
| DD8BA-10 | 2026-09-02 12:05:13 | 52.34892 | 8.97500 | 105° | 27km/h | 2993m | -3.6m/s | 1.1°C | 45.8% | 712.1hPa | 2.7V | 00:00:00 | 00:00:00 | 00:00:00 | |
| DB0DAN | 2026-09-02 12:05:10 | 52.34896 | 8.97470 | 94° | 27km/h | 3004m | -3.8m/s | 1°C | 45.5% | 711.05hPa | 2.7V | 00:00:00 | 00:00:00 | 00:00:00 | |
| DO2JMG | 2026-09-02 12:05:09 | 52.34896 | 8.97458 | 87° | 31km/h | 3008m | -3.8m/s | 1°C | 51.7% | 710.8hPa | 2.7V | 07:33:29 | 02:28:03 | 00:00:00 | |
| DM0DOS-11 | 2026-09-02 12:05:05 | 52.34875 | 8.97393 | 51° | 13km/h | 3034m | -3.6m/s | 0.8°C | 46.3% | 708.6hPa | 2.6V | 07:33:27 | 02:27:56 | 00:00:00 | |
| DL1XH-west | 2026-09-02 12:05:04 | 52.34881 | 8.97403 | 46° | 22km/h | 3027m | -3.8m/s | 0.7°C | 51.1% | 709.1hPa | 2.7V | 07:33:29 | 02:27:58 | 00:00:00 | |
| BIOWL1-15 | 2026-09-02 12:05:03 | 52.34876 | 8.97370 | 102° | 24km/h | 3048m | -3.5m/s | 0.7°C | 50.8% | 707.2hPa | 2.7V | 07:34:20 | 02:27:52 | 00:00:00 | |
| DO2JMG | 2026-09-02 12:04:59 | 52.34875 | 8.97378 | 106° | 18km/h | 3045m | -3.6m/s | 0.7°C | 50.3% | 707.5hPa | 2.7V | 07:34:20 | 02:27:53 | 00:00:00 | |
| DL1XH1-15 | 2026-09-02 12:04:58 | 52.34877 | 8.97360 | 94° | 27km/h | 3052m | -3.6m/s | 0.6°C | 46.7% | 707hPa | 2.7V | 07:33:32 | 02:27:51 | 00:00:00 | |
| DL1XH-west | 2026-09-02 12:04:54 | 52.34875 | 8.97322 | 75° | 33km/h | 3063m | -3.7m/s | 0.5°C | 53.1% | 705.9hPa | 2.6V | 07:34:20 | 02:27:48 | 00:00:00 | |
| DL1XH1-15 | 2026-09-02 12:04:52 | 52.34869 | 8.97298 | 58° | 29km/h | 3070m | -3.6m/s | 0.4°C | 46.4% | 705.3hPa | 2.7V | 07:33:37 | 02:27:46 | 00:00:00 | |
| DL1XH1-15 | 2026-09-02 12:04:52 | 52.34855 | 8.97266 | 88° | 13km/h | 3088m | -3.6m/s | 0.5°C | 46.2% | 703.6hPa | 2.7V | 07:33:42 | 02:27:41 | 00:00:00 | |
| BIOWL1-15 | 2026-09-02 12:04:51 | 52.34865 | 8.97289 | 51° | 26km/h | 3074m | -3.6m/s | 0.4°C | 52.5% | 705hPa | 2.7V | 07:34:20 | 02:27:45 | 00:00:00 | |
| DO2JMG | 2026-09-02 12:04:48 | 52.34856 | 8.97271 | 65° | 13km/h | 3084m | -3.6m/s | 0.5°C | 50.9% | 704.1hPa | 2.7V | 07:34:20 | 02:27:42 | 00:00:00 | |
| DL3AQ-11 | 2026-09-02 12:04:46 | 52.34856 | 8.97254 | 102° | 18km/h | 3095m | -3.7m/s | 0.5°C | 45.5% | 703.1hPa | 2.7V | 00:00:00 | 00:00:00 | 00:00:00 | |
| DL1XH-west | 2026-09-02 12:04:44 | 52.34859 | 8.97235 | 99° | 26km/h | 3102m | -3.7m/s | 0.4°C | 52.5% | 702.4hPa | 2.7V | 07:34:20 | 02:27:37 | 00:00:00 | |
| BIOWL1-15 | 2026-09-02 12:04:40 | 52.34860 | 8.97198 | 86° | 33km/h | 3113m | -3.8m/s | 0.3°C | 53.1% | 701.5hPa | 2.7V | 07:34:20 | 02:27:34 | 00:00:00 | |
| DB0DAN | 2026-09-02 12:04:40 | 52.34860 | 8.97198 | 86° | 31km/h | 3113m | -3.8m/s | 0.3°C | 47.1% | 701.45hPa | 2.7V | 00:00:00 | 00:00:00 | 00:00:00 | |
| DO2JMG | 2026-09-02 12:04:37 | 52.34853 | 8.97158 | 66° | 33km/h | 3125m | -3.9m/s | 0.2°C | 53.4% | 700.6hPa | 2.6V | 07:34:20 | 02:27:31 | 00:00:00 | |
| BIOWL1-15 | 2026-09-02 12:04:34 | 52.34839 | 8.97105 | 107° | 20km/h | 3150m | -3.5m/s | 0.1°C | 56.5% | 698.2hPa | 2.7V | 07:34:20 | 02:27:24 | 00:00:00 | |
| DL1XH-west | 2026-09-02 12:04:33 | 52.34839 | 8.97123 | 57° | 15km/h | 3139m | -3.6m/s | 0.2°C | 54.1% | 699.3hPa | 2.7V | 07:34:20 | 02:27:27 | 00:00:00 | |
| DD8BA-10 | 2026-09-02 12:04:33 | 52.34839 | 8.97123 | 57° | 26km/h | 3139m | -3.6m/s | 0.1°C | 50.0% | 699.2hPa | 2.7V | 00:00:00 | 00:00:00 | 00:00:00 | |
| GOEST3-10 | 2026-09-02 12:04:32 | 52.34838 | 8.97118 | 81° | 22km/h | 3143m | -3.6m/s | 0.1°C | 50.9% | 698.8hPa | 2.7V | 00:00:00 | 02:27:26 | 00:00:00 | |
| DL1XH1-15 | 2026-09-02 12:04:31 | 52.34838 | 8.97043 | 68° | 33km/h | 3167m | -3.5m/s | -0°C | 52.5% | 696.7hPa | 2.7V | 07:34:04 | 02:27:19 | 00:00:00 | |
| DO2JMG | 2026-09-02 12:04:26 | 52.34840 | 8.97057 | 76° | 35km/h | 3164m | -3.5m/s | -0°C | 57.7% | 697.1hPa | 2.7V | 07:34:20 | 02:27:20 | 00:00:00 | |
| DM0DOS-11 | 2026-09-02 12:04:26 | 52.34824 | 8.97006 | 51° | 20km/h | 3182m | -3.7m/s | -0.1°C | 52.5% | 695.5hPa | 2.7V | 07:34:08 | 02:27:15 | 00:00:00 | |
| DB0DAN | 2026-09-02 12:04:25 | 52.34838 | 8.97043 | 68° | 31km/h | 3167m | -3.5m/s | -0.1°C | 51.7% | 696.68hPa | 2.7V | 00:00:00 | 00:00:00 | 00:00:00 | |
| DL1XH-west | 2026-09-02 12:04:22 | 52.34823 | 8.97006 | 52° | 20km/h | 3182m | -3.7m/s | -0.1°C | 57.2% | 695.5hPa | 2.7V | 07:34:20 | 02:27:15 | 00:00:00 | |
| DL1XH1-15 | 2026-09-02 12:04:20 | 52.34824 | 8.96961 | 97° | 31km/h | 3203m | -3.7m/s | -0.2°C | 51.4% | 693.5hPa | 2.7V | 07:34:14 | 02:27:09 | 00:00:00 | |
| BIOWL1-15 | 2026-09-02 12:04:19 | 52.34821 | 8.96982 | 106° | 20km/h | 3196m | -3.6m/s | -0.2°C | 55.5% | 694.1hPa | 2.7V | 07:34:20 | 02:27:11 | 00:00:00 | |
| DL3AQ-11 | 2026-09-02 12:04:17 | 52.34822 | 8.96973 | 103° | 26km/h | 3200m | -3.7m/s | -0.2°C | 50.5% | 693.9hPa | 2.6V | 00:00:00 | 00:00:00 | 00:00:00 | |
| DM0DOS-11 | 2026-09-02 12:04:15 | 52.34819 | 8.96905 | 71° | 37km/h | 3218m | -3.8m/s | -0.3°C | 51.5% | 692.3hPa | 2.6V | 07:34:18 | 02:27:05 | 00:00:00 | |
| DO2JMG | 2026-09-02 12:04:15 | 52.34823 | 8.96961 | 98° | 31km/h | 3203m | -3.7m/s | -0.2°C | 56.2% | 693.5hPa | 2.7V | 07:34:20 | 02:27:09 | 00:00:00 | |
| DL1XH1-15 | 2026-09-02 12:04:15 | 52.34812 | 8.96880 | 57° | 31km/h | 3226m | -3.7m/s | -0.4°C | 51.9% | 691.8hPa | 2.7V | 07:34:20 | 02:27:03 | 00:00:00 | |
| DL1XH-west | 2026-09-02 12:04:12 | 52.34819 | 8.96905 | 71° | 37km/h | 3218m | -3.8m/s | -0.4°C | 57.1% | 692.3hPa | 2.6V | 07:34:20 | 02:27:05 | 00:00:00 | |
| DB0DAN | 2026-09-02 12:04:10 | 52.34816 | 8.96892 | 65° | 33km/h | 3222m | -3.9m/s | -0.4°C | 51% | 692.05hPa | 2.6V | 00:00:00 | 00:00:00 | 00:00:00 | |
| DL1XH1-15 | 2026-09-02 12:04:10 | 52.34800 | 8.96844 | 93° | 16km/h | 3244m | -3.9m/s | -0.5°C | 51.9% | 690.2hPa | 2.7V | 07:34:25 | 02:26:58 | 00:00:00 | |
| BIOWL1-15 | 2026-09-02 12:04:07 | 52.34800 | 8.96837 | 103° | 20km/h | 3248m | -3.7m/s | -0.5°C | 55.8% | 689.8hPa | 2.6V | 07:35:11 | 02:26:57 | 00:00:00 | |
| DL3AQ-11 | 2026-09-02 12:04:06 | 52.34800 | 8.96850 | 75° | 13km/h | 3240m | -3.7m/s | -0.4°C | 51.1% | 690.5hPa | 2.7V | 00:00:00 | 00:00:00 | 00:00:00 | |
| DM0DOS-11 | 2026-09-02 12:04:05 | 52.34803 | 8.96817 | 100° | 29km/h | 3255m | -3.7m/s | -0.6°C | 52.4% | 689.3hPa | 2.7V | 07:34:28 | 02:26:55 | 00:00:00 | |
| DO2JMG | 2026-09-02 12:04:04 | 52.34800 | 8.96844 | 93° | 16km/h | 3244m | -3.9m/s | -0.5°C | 55.8% | 690.2hPa | 2.7V | 07:35:11 | 02:26:58 | 00:00:00 | |
| DL1XH-west | 2026-09-02 12:04:00 | 52.34804 | 8.96804 | 94° | 33km/h | 3258m | -3.6m/s | -0.6°C | 57.5% | 688.8hPa | 2.7V | 07:35:11 | 02:26:54 | 00:00:00 | |
| DM0DOS-11 | 2026-09-02 12:04:00 | 52.34797 | 8.96745 | 66° | 35km/h | 3273m | -3.7m/s | -0.8°C | 53% | 687.7hPa | 2.7V | 07:34:33 | 02:26:50 | 00:00:00 | |
| DJ2DS-15 | 2026-09-02 12:03:59 | 52.34803 | 8.96774 | 79° | 37km/h | 3265m | -3.5m/s | -0.7°C | 52.1% | 688.3hPa | 2.7V | 00:00:00 | 00:00:00 | 00:00:00 | |
| DM0DOS-11 | 2026-09-02 12:03:55 | 52.34782 | 8.96700 | 73° | 15km/h | 3290m | -3.6m/s | -0.8°C | 52.6% | 686.1hPa | 2.7V | 07:34:38 | 02:26:45 | 00:00:00 | |
| DB0DAN | 2026-09-02 12:03:55 | 52.34793 | 8.96733 | 61° | 31km/h | 3276m | -3.5m/s | -0.8°C | 52% | 687.35hPa | 2.7V | 00:00:00 | 00:00:00 | 00:00:00 | |
| DO2JMG | 2026-09-02 12:03:53 | 52.34786 | 8.96713 | 55° | 22km/h | 3283m | -3.5m/s | -0.8°C | 57.2% | 686.8hPa | 2.7V | 07:35:11 | 02:26:47 | 00:00:00 | |
| DD8BA-10 | 2026-09-02 12:03:53 | 52.34786 | 8.96713 | 56° | 26km/h | 3283m | -3.5m/s | -0.8°C | 52.5% | 686.8hPa | 2.6V | 00:00:00 | 00:00:00 | 00:00:00 | |
| DL1XH1-15 | 2026-09-02 12:03:52 | 52.34782 | 8.96687 | 100° | 18km/h | 3298m | -3.7m/s | -0.8°C | 52.9% | 685.5hPa | 2.6V | 07:34:40 | 02:26:43 | 00:00:00 | |
| BIOWL1-15 | 2026-09-02 12:03:52 | 52.34783 | 8.96706 | 61° | 18km/h | 3287m | -3.6m/s | -0.8°C | 56.8% | 686.5hPa | 2.7V | 07:35:11 | 02:26:46 | 00:00:00 | |
| DL1XH-west | 2026-09-02 12:03:50 | 52.34781 | 8.96694 | 90° | 16km/h | 3294m | -3.7m/s | -0.9°C | 56.7% | 685.8hPa | 2.6V | 07:35:11 | 02:26:44 | 00:00:00 | |
| DM0DOS-11 | 2026-09-02 12:03:50 | 52.34786 | 8.96656 | 98° | 33km/h | 3309m | -3.6m/s | -0.9°C | 53.4% | 684.6hPa | 2.7V | 07:34:43 | 02:26:40 | 00:00:00 | |
| DL3AQ-11 | 2026-09-02 12:03:50 | 52.34782 | 8.96687 | 100° | 18km/h | 3297m | -3.7m/s | -0.9°C | 52.1% | 685.5hPa | 2.7V | 00:00:00 | 00:00:00 | 00:00:00 | |
| GOEST3-10 | 2026-09-02 12:03:48 | 52.34783 | 8.96679 | 106° | 24km/h | 3301m | -3.6m/s | -0.8°C | 53.2% | 685.2hPa | 2.7V | 00:00:00 | 02:26:42 | 00:00:00 | |
| DL1CLM-18 | 2026-09-02 12:03:46 | 52.34784 | 8.96668 | 105° | 27km/h | 3305m | -3.8m/s | -0.9°C | 52.3% | 684.8hPa | 2.6V | 00:00:00 | 00:00:00 | 00:00:00 | |
| DM0DOS-11 | 2026-09-02 12:03:45 | 52.34778 | 8.96586 | 59° | 31km/h | 3327m | -3.7m/s | -1.2°C | 54.1% | 683.1hPa | 2.6V | 07:34:48 | 02:26:35 | 00:00:00 | |
| DO2JMG | 2026-09-02 12:03:43 | 52.34784 | 8.96612 | 75° | 37km/h | 3319m | -3.6m/s | -1.1°C | 59.5% | 683.6hPa | 2.7V | 07:35:11 | 02:26:37 | 00:00:00 | |
| DD8BA-10 | 2026-09-02 12:03:43 | 52.34784 | 8.96612 | 75° | 26km/h | 3319m | -3.6m/s | -1.1°C | 54.0% | 683.6hPa | 2.7V | 07:34:00 | 00:00:00 | 00:00:00 | |
| DL1XH1-15 | 2026-09-02 12:03:42 | 52.34771 | 8.96568 | 62° | 18km/h | 3334m | -3.5m/s | -1.2°C | 54.1% | 682.5hPa | 2.7V | 07:34:50 | 02:26:33 | 00:00:00 | |
| BIOWL1-15 | 2026-09-02 12:03:41 | 52.34778 | 8.96586 | 60° | 31km/h | 3327m | -3.7m/s | -1.2°C | 59.1% | 683.1hPa | 2.6V | 07:35:11 | 02:26:35 | 00:00:00 | |
| DM0DOS-11 | 2026-09-02 12:03:40 | 52.34771 | 8.96547 | 104° | 22km/h | 3344m | -3.5m/s | -1.3°C | 54.3% | 681.5hPa | 2.7V | 07:34:53 | 02:26:30 | 00:00:00 | |
| DB0DAN | 2026-09-02 12:03:40 | 52.34774 | 8.96576 | 58° | 24km/h | 3330m | -3.7m/s | -1.2°C | 53.3% | 682.7hPa | 2.7V | 00:00:00 | 00:00:00 | 00:00:00 | |
| DL1XH-west | 2026-09-02 12:03:39 | 52.34770 | 8.96562 | 77° | 16km/h | 3337m | -3.5m/s | -1.2°C | 57.9% | 682.2hPa | 2.7V | 07:35:11 | 02:26:32 | 00:00:00 | |
| DL1XH1-15 | 2026-09-02 12:03:37 | 52.34774 | 8.96527 | 106° | 29km/h | 3351m | -3.5m/s | -1.3°C | 54.6% | 680.9hPa | 2.6V | 07:34:55 | 02:26:28 | 00:00:00 | |
| DL3AQ-11 | 2026-09-02 12:03:36 | 52.34770 | 8.96547 | 104° | 20km/h | 3344m | -3.5m/s | -1.3°C | 53.4% | 681.5hPa | 2.7V | 00:00:00 | 00:00:00 | 00:00:00 | |
| DM0DOS-11 | 2026-09-02 12:03:35 | 52.34779 | 8.96486 | 92° | 37km/h | 3362m | -3.5m/s | -1.4°C | 55.1% | 680hPa | 2.7V | 07:34:58 | 02:26:25 | 00:00:00 | |
| DO2JMG | 2026-09-02 12:03:32 | 52.34778 | 8.96500 | 99° | 35km/h | 3358m | -3.9m/s | -1.4°C | 60.2% | 680.3hPa | 2.7V | 07:35:11 | 02:26:26 | 00:00:00 | |
| DL1XH1-15 | 2026-09-02 12:03:32 | 52.34777 | 8.96455 | 77° | 37km/h | 3369m | -3.2m/s | -1.6°C | 55.4% | 679.4hPa | 2.7V | 07:35:00 | 02:26:23 | 00:00:00 | |
| BIOWL1-15 | 2026-09-02 12:03:31 | 52.34779 | 8.96485 | 93° | 37km/h | 3362m | -3.5m/s | -1.5°C | 60.4% | 680.1hPa | 2.7V | 07:35:11 | 02:26:25 | 00:00:00 | |
| DM0DOS-11 | 2026-09-02 12:03:30 | 52.34768 | 8.96417 | 63° | 26km/h | 3379m | -3.6m/s | -1.6°C | 55.8% | 678.6hPa | 2.6V | 07:35:03 | 02:26:20 | 00:00:00 | |
| DL1XH-west | 2026-09-02 12:03:29 | 52.34774 | 8.96440 | 70° | 35km/h | 3372m | -3.4m/s | -1.6°C | 60.8% | 679hPa | 2.7V | 07:35:11 | 02:26:22 | 00:00:00 | |
| DL1XH1-15 | 2026-09-02 12:03:27 | 52.34764 | 8.96401 | 75° | 18km/h | 3386m | -3.5m/s | -1.6°C | 55.3% | 678hPa | 2.7V | 07:35:05 | 02:26:18 | 00:00:00 | |
| DL3AQ-11 | 2026-09-02 12:03:26 | 52.34766 | 8.96409 | 65° | 20km/h | 3383m | -3.5m/s | -1.6°C | 54.4% | 678.2hPa | 2.7V | 00:00:00 | 00:00:00 | 00:00:00 | |
| DM0DOS-11 | 2026-09-02 12:03:25 | 52.34765 | 8.96378 | 108° | 22km/h | 3397m | -3.5m/s | -1.6°C | 55.4% | 677hPa | 2.7V | 07:35:08 | 02:26:15 | 00:00:00 | |
| DB0DAN | 2026-09-02 12:03:25 | 52.34766 | 8.96409 | 66° | 20km/h | 3383m | -3.5m/s | -1.6°C | 54.4% | 678.2hPa | 2.6V | 00:00:00 | 00:00:00 | 00:00:00 | |
| DJ2DS-15 | 2026-09-02 12:03:23 | 52.34764 | 8.96386 | 102° | 18km/h | 3393m | -3.6m/s | -1.6°C | 54.7% | 677.4hPa | 2.7V | 00:00:00 | 00:00:00 | 00:00:00 | |
| DL1XH1-15 | 2026-09-02 12:03:22 | 52.34769 | 8.96357 | 107° | 31km/h | 3404m | -3.5m/s | -1.7°C | 55.6% | 676.5hPa | 2.7V | 07:35:10 | 02:26:13 | 00:00:00 | |
| BIOWL1-15 | 2026-09-02 12:03:22 | 52.34769 | 8.96357 | 107° | 31km/h | 3404m | -3.6m/s | -1.7°C | 59.6% | 676.5hPa | 2.7V | 07:35:11 | 02:26:13 | 00:00:00 | |
| DO2JMG | 2026-09-02 12:03:21 | 52.34765 | 8.96378 | 108° | 22km/h | 3397m | -3.6m/s | -1.6°C | 59.6% | 677hPa | 2.7V | 07:35:11 | 02:26:15 | 00:00:00 | |
| DJ2DS-15 | 2026-09-02 12:03:21 | 52.34765 | 8.96378 | 109° | 31km/h | 3397m | -3.5m/s | -1.6°C | 55.4% | 677.0hPa | 2.7V | 00:00:00 | 02:26:15 | 00:00:00 | |
| DL4XJ-10 | 2026-09-02 12:03:20 | 52.34767 | 8.96369 | 110° | 31km/h | 3401m | -3.6m/s | -2.5°C | 0% | 0hPa | 2.7V | 00:00:00 | 00:00:00 | 00:00:00 | |
| DL1XH1-15 | 2026-09-02 12:03:17 | 52.34772 | 8.96282 | 77° | 38km/h | 3421m | -3.5m/s | -1.8°C | 56.3% | 674.9hPa | 2.7V | 07:35:15 | 02:26:08 | 00:00:00 | |
| DL1XH-west | 2026-09-02 12:03:17 | 52.34773 | 8.96330 | 97° | 38km/h | 3411m | -3.5m/s | -1.7°C | 60.4% | 675.9hPa | 2.6V | 07:36:02 | 02:26:11 | 00:00:00 | |
| DM0DOS-11 | 2026-09-02 12:03:15 | 52.34763 | 8.96242 | 63° | 29km/h | 3432m | -3.6m/s | -1.9°C | 55.8% | 673.9hPa | 2.7V | 07:35:18 | 02:26:05 | 00:00:00 | |
| DD8BA-10 | 2026-09-02 12:03:13 | 52.34769 | 8.96267 | 72° | 26km/h | 3425m | -3.7m/s | -1.8°C | 55.7% | 674.6hPa | 2.6V | 00:00:00 | 00:00:00 | 00:00:00 | |
| DL1XH1-15 | 2026-09-02 12:03:12 | 52.34758 | 8.96224 | 74° | 20km/h | 3439m | -3.3m/s | -1.9°C | 55.8% | 673.4hPa | 2.6V | 07:35:20 | 02:26:03 | 00:00:00 | |
| BIOWL1-15 | 2026-09-02 12:03:11 | 52.34763 | 8.96242 | 64° | 29km/h | 3432m | -3.6m/s | -1.9°C | 60.4% | 674hPa | 2.7V | 07:36:02 | 02:26:05 | 00:00:00 | |
| BUE01 | 2026-09-02 12:03:11 | 52.34760 | 8.96232 | 66° | 22km/h | 3435m | -3.4m/s | -1.9°C | 54.8% | 673.7hPa | 2.7V | 00:00:00 | 00:00:00 | 00:00:00 | |
| DM0DOS-11 | 2026-09-02 12:03:10 | 52.34759 | 8.96199 | 107° | 24km/h | 3449m | -3.5m/s | -1.9°C | 55.7% | 672.7hPa | 2.7V | 07:35:23 | 02:26:00 | 00:00:00 | |
| DL1XH-west | 2026-09-02 12:03:07 | 52.34759 | 8.96199 | 108° | 24km/h | 3449m | -3.6m/s | -2°C | 59.9% | 672.7hPa | 2.7V | 07:36:02 | 02:26:00 | 00:00:00 | |
| DL1XH1-15 | 2026-09-02 12:03:06 | 52.34764 | 8.96177 | 105° | 33km/h | 3456m | -3.6m/s | -2°C | 55.9% | 671.9hPa | 2.7V | 07:35:25 | 02:25:58 | 00:00:00 | |
| BIOWL1-15 | 2026-09-02 12:03:01 | 52.34767 | 8.96132 | 88° | 40km/h | 3467m | -3.5m/s | -2.2°C | 62.6% | 671hPa | 2.6V | 07:36:02 | 02:25:55 | 00:00:00 | |
| DJ2DS-15 | 2026-09-02 12:03:01 | 52.34767 | 8.96132 | 88° | 31km/h | 3467m | -3.5m/s | -2.1°C | 57.0% | 670.9hPa | 2.6V | 00:00:00 | 02:25:55 | 00:00:00 | |
| DL1XH1-15 | 2026-09-02 12:03:00 | 52.34764 | 8.96100 | 73° | 38km/h | 3474m | -3.5m/s | -2.3°C | 57.7% | 670.5hPa | 2.7V | 07:35:30 | 02:25:53 | 00:00:00 | |
| DO2JMG | 2026-09-02 12:03:00 | 52.34766 | 8.96115 | 81° | 40km/h | 3470m | -3.5m/s | -2.2°C | 63.2% | 670.7hPa | 2.7V | 07:36:02 | 02:25:54 | 00:00:00 | |
| DL3AQ-11 | 2026-09-02 12:02:57 | 52.34755 | 8.96064 | 64° | 24km/h | 3484m | -3.6m/s | -2.3°C | 56.8% | 669.7hPa | 2.7V | 00:00:00 | 00:00:00 | 00:00:00 | |
| DM0DOS-11 | 2026-09-02 12:02:56 | 52.34755 | 8.96064 | 64° | 24km/h | 3484m | -3.6m/s | -2.3°C | 57.8% | 669.7hPa | 2.7V | 07:35:33 | 02:25:50 | 00:00:00 | |
| DM0DOS-11 | 2026-09-02 12:02:56 | 52.34755 | 8.96024 | 109° | 26km/h | 3502m | -3.5m/s | -2.4°C | 58.5% | 668hPa | 2.7V | 07:35:38 | 02:25:45 | 00:00:00 | |
| DL1XH-west | 2026-09-02 12:02:56 | 52.34755 | 8.96064 | 65° | 24km/h | 3485m | -3.6m/s | -2.3°C | 62.1% | 669.7hPa | 2.7V | 07:36:02 | 02:25:50 | 00:00:00 | |
| DL1XH1-15 | 2026-09-02 12:02:54 | 52.34761 | 8.95984 | 95° | 38km/h | 3513m | -3.5m/s | -2.5°C | 58.3% | 667.2hPa | 2.7V | 07:35:41 | 02:25:42 | 00:00:00 | |
| DD8BA-10 | 2026-09-02 12:02:53 | 52.34751 | 8.96041 | 96° | 31km/h | 3495m | -3.5m/s | -2.3°C | 58.1% | 668.6hPa | 2.6V | 00:00:00 | 00:00:00 | 00:00:00 | |
| GOEST3-10 | 2026-09-02 12:02:52 | 52.34753 | 8.96033 | 107° | 31km/h | 3499m | -3.5m/s | -2.4°C | 58.2% | 668.2hPa | 2.6V | 00:00:00 | 02:25:46 | 00:00:00 | |
| DM0DOS-11 | 2026-09-02 12:02:51 | 52.34758 | 8.95937 | 73° | 35km/h | 3523m | -3.4m/s | -2.7°C | 58.4% | 666.4hPa | 2.6V | 07:35:44 | 02:25:39 | 00:00:00 | |
| BIOWL1-15 | 2026-09-02 12:02:51 | 52.34754 | 8.96024 | 110° | 26km/h | 3502m | -3.5m/s | -2.4°C | 61.9% | 668.1hPa | 2.7V | 07:36:02 | 02:25:45 | 00:00:00 | |
| DO2JMG | 2026-09-02 12:02:50 | 52.34759 | 8.95999 | 104° | 37km/h | 3509m | -3.5m/s | -2.5°C | 62.5% | 667.5hPa | 2.7V | 07:36:02 | 02:25:43 | 00:00:00 | |
| DL1XH-west | 2026-09-02 12:02:46 | 52.34758 | 8.95937 | 74° | 35km/h | 3523m | -3.4m/s | -2.7°C | 63.6% | 666.4hPa | 2.6V | 07:36:02 | 02:25:39 | 00:00:00 | |
| DM0DOS-11 | 2026-09-02 12:02:46 | 52.34747 | 8.95888 | 89° | 18km/h | 3540m | -3.5m/s | -2.8°C | 57.8% | 665hPa | 2.7V | 07:35:49 | 02:25:34 | 00:00:00 | |
| DL3AQ-11 | 2026-09-02 12:02:46 | 52.34758 | 8.95937 | 73° | 35km/h | 3523m | -3.4m/s | -2.7°C | 57.4% | 666.4hPa | 2.7V | 00:00:00 | 00:00:00 | 00:00:00 | |
| DL1XH1-15 | 2026-09-02 12:02:43 | 52.34749 | 8.95872 | 109° | 24km/h | 3547m | -3.5m/s | -2.8°C | 57.2% | 664.2hPa | 2.7V | 07:35:51 | 02:25:32 | 00:00:00 | |
| DD8BA-10 | 2026-09-02 12:02:43 | 52.34752 | 8.95912 | 67° | 27km/h | 3530m | -3.4m/s | -2.7°C | 57.9% | 665.8hPa | 2.6V | 00:00:00 | 00:00:00 | 00:00:00 | |
| GOEST3-10 | 2026-09-02 12:02:42 | 52.34749 | 8.95903 | 67° | 20km/h | 3534m | -3.4m/s | -2.7°C | 58.0% | 665.4hPa | 2.6V | 00:00:00 | 02:25:36 | 00:00:00 | |
| DJ2DS-15 | 2026-09-02 12:02:41 | 52.34748 | 8.95895 | 75° | 27km/h | 3537m | -3.4m/s | -2.7°C | 57.8% | 665.1hPa | 2.6V | 00:00:00 | 02:25:35 | 00:00:00 | |
| DM0DOS-11 | 2026-09-02 12:02:40 | 52.34757 | 8.95837 | 107° | 37km/h | 3557m | -3.6m/s | -2.8°C | 57.2% | 663.4hPa | 2.6V | 07:35:54 | 02:25:29 | 00:00:00 | |
| DB0DAN | 2026-09-02 12:02:40 | 52.34747 | 8.95888 | 89° | 16km/h | 3540m | -3.5m/s | -2.8°C | 56.8% | 665.01hPa | 2.7V | 00:00:00 | 00:00:00 | 00:00:00 | |
| DO2JMG | 2026-09-02 12:02:38 | 52.34749 | 8.95872 | 110° | 24km/h | 3547m | -3.5m/s | -2.8°C | 61.6% | 664.3hPa | 2.7V | 07:36:02 | 02:25:32 | 00:00:00 | |
| DL1XH1-15 | 2026-09-02 12:02:38 | 52.34761 | 8.95806 | 96° | 40km/h | 3564m | -3.6m/s | -2.9°C | 57.8% | 662.9hPa | 2.7V | 07:35:56 | 02:25:27 | 00:00:00 | |
| GOEST3-10 | 2026-09-02 12:02:38 | 52.34751 | 8.95862 | 112° | 35km/h | 3551m | -3.2m/s | -2.7°C | 57.2% | 663.9hPa | 2.7V | 00:00:00 | 00:00:00 | 00:00:00 | |
| DM0DOS-11 | 2026-09-02 12:02:35 | 52.34760 | 8.95760 | 76° | 33km/h | 3574m | -3.1m/s | -3°C | 58.6% | 662hPa | 2.7V | 07:35:59 | 02:25:24 | 00:00:00 | |
| DL1XH-west | 2026-09-02 12:02:35 | 52.34759 | 8.95822 | 102° | 38km/h | 3561m | -3.6m/s | -2.8°C | 62.3% | 663.2hPa | 2.6V | 07:36:02 | 02:25:28 | 00:00:00 | |
| DD8BA-10 | 2026-09-02 12:02:33 | 52.34761 | 8.95806 | 97° | 29km/h | 3564m | -3.5m/s | -2.8°C | 57.8% | 662.8hPa | 2.7V | 00:00:00 | 00:00:00 | 00:00:00 | |
| GOEST3-10 | 2026-09-02 12:02:32 | 52.34761 | 8.95789 | 91° | 35km/h | 3568m | -3.3m/s | -2.9°C | 58.1% | 662.4hPa | 2.7V | 00:00:00 | 02:25:26 | 00:00:00 | |
| DM0DOS-11 | 2026-09-02 12:02:30 | 52.34751 | 8.95709 | 82° | 20km/h | 3591m | -3.4m/s | -3°C | 59.2% | 660.6hPa | 2.7V | 07:36:04 | 02:25:19 | 00:00:00 | |
| BIOWL1-15 | 2026-09-02 12:02:28 | 52.34755 | 8.95737 | 73° | 26km/h | 3580m | -3.3m/s | -3.1°C | 63% | 661.4hPa | 2.7V | 07:36:02 | 02:25:22 | 00:00:00 | |
| DL1XH1-15 | 2026-09-02 12:02:28 | 52.34752 | 8.95693 | 103° | 18km/h | 3598m | -3.6m/s | -3.1°C | 59.1% | 660.1hPa | 2.7V | 07:36:06 | 02:25:17 | 00:00:00 | |
| DO2JMG | 2026-09-02 12:02:27 | 52.34753 | 8.95726 | 73° | 26km/h | 3584m | -3.5m/s | -3.1°C | 63.1% | 661.2hPa | 2.6V | 07:36:02 | 02:25:21 | 00:00:00 | |
| GOEST3-10 | 2026-09-02 12:02:27 | 52.34753 | 8.95726 | 74° | 20km/h | 3584m | -3.4m/s | -3.0°C | 59.1% | 661.2hPa | 2.7V | 07:36:00 | 00:00:00 | 00:00:00 | |
| DM0DOS-11 | 2026-09-02 12:02:25 | 52.34758 | 8.95667 | 112° | 29km/h | 3609m | -3.5m/s | -3.1°C | 59.7% | 659.2hPa | 2.7V | 07:36:09 | 02:25:14 | 00:00:00 | |
| DL1XH-west | 2026-09-02 12:02:23 | 52.34751 | 8.95693 | 104° | 18km/h | 3598m | -3.6m/s | -3.1°C | 63.3% | 660.1hPa | 2.7V | 07:36:53 | 02:25:17 | 00:00:00 | |
| DD8BA-10 | 2026-09-02 12:02:23 | 52.34751 | 8.95693 | 104° | 33km/h | 3598m | -3.5m/s | -3.0°C | 59.1% | 660.0hPa | 2.7V | 07:36:00 | 00:00:00 | 00:00:00 | |
| GOEST3-10 | 2026-09-02 12:02:22 | 52.34753 | 8.95685 | 111° | 29km/h | 3602m | -3.5m/s | -3.0°C | 59.2% | 659.8hPa | 2.7V | 00:00:00 | 02:25:16 | 00:00:00 | |
| DJ2DS-15 | 2026-09-02 12:02:21 | 52.34755 | 8.95677 | 113° | 31km/h | 3605m | -3.6m/s | -3.1°C | 59.5% | 659.5hPa | 2.7V | 00:00:00 | 02:25:15 | 00:00:00 | |
| DL4XJ-10 | 2026-09-02 12:02:20 | 52.34758 | 8.95667 | 113° | 33km/h | 3609m | -3.4m/s | -4.0°C | 0% | 0hPa | 2.7V | 00:00:00 | 00:00:00 | 00:00:00 | |
| DL1XH1-15 | 2026-09-02 12:02:17 | 52.34761 | 8.95560 | 73° | 35km/h | 3633m | -3.6m/s | -3.4°C | 59.3% | 657.2hPa | 2.7V | 07:36:16 | 02:25:07 | 00:00:00 | |
| DO2JMG | 2026-09-02 12:02:16 | 52.34765 | 8.95607 | 90° | 40km/h | 3622m | -3.6m/s | -3.3°C | 63.9% | 658.2hPa | 2.7V | 07:36:53 | 02:25:10 | 00:00:00 | |
| DM0DOS-11 | 2026-09-02 12:02:15 | 52.34764 | 8.95590 | 84° | 40km/h | 3626m | -3.6m/s | -3.3°C | 59.3% | 657.7hPa | 2.7V | 07:36:14 | 02:25:09 | 00:00:00 | |
| DM0DOS-11 | 2026-09-02 12:02:15 | 52.34751 | 8.95517 | 77° | 20km/h | 3647m | -3.6m/s | -3.5°C | 58.5% | 656hPa | 2.7V | 07:36:20 | 02:25:03 | 00:00:00 | |
| DL1XH-west | 2026-09-02 12:02:12 | 52.34758 | 8.95547 | 69° | 31km/h | 3636m | -3.4m/s | -3.4°C | 63.9% | 656.9hPa | 2.6V | 07:36:53 | 02:25:06 | 00:00:00 | |
| DL1XH1-15 | 2026-09-02 12:02:11 | 52.34751 | 8.95509 | 90° | 18km/h | 3650m | -3.4m/s | -3.5°C | 58.3% | 655.8hPa | 2.7V | 07:36:21 | 02:25:02 | 00:00:00 | |
| DB0DAN | 2026-09-02 12:02:10 | 52.34753 | 8.95526 | 69° | 22km/h | 3643m | -3.5m/s | -3.5°C | 57.6% | 656.3hPa | 2.7V | 00:00:00 | 00:00:00 | 00:00:00 | |
| DM0DOS-11 | 2026-09-02 12:02:10 | 52.34759 | 8.95470 | 110° | 35km/h | 3664m | -3.3m/s | -3.6°C | 57.7% | 654.5hPa | 2.6V | 07:36:25 | 02:24:58 | 00:00:00 | |
| BIOWL1-15 | 2026-09-02 12:02:10 | 52.34765 | 8.95424 | 94° | 40km/h | 3674m | -3.4m/s | -3.7°C | 62.8% | 653.7hPa | 2.7V | 07:36:53 | 02:24:55 | 00:00:00 | |
| DO2JMG | 2026-09-02 12:02:05 | 52.34756 | 8.95482 | 112° | 29km/h | 3660m | -3.5m/s | -3.6°C | 61.9% | 654.8hPa | 2.7V | 07:36:53 | 02:24:59 | 00:00:00 | |
| DL1XH1-15 | 2026-09-02 12:02:04 | 52.34761 | 8.95456 | 105° | 37km/h | 3667m | -3.3m/s | -3.6°C | 57.5% | 654.3hPa | 2.6V | 07:36:26 | 02:24:57 | 00:00:00 | |
| DM0DOS-11 | 2026-09-02 12:02:04 | 52.34763 | 8.95391 | 78° | 38km/h | 3680m | -3.4m/s | -3.8°C | 57.6% | 652.9hPa | 2.7V | 07:36:30 | 02:24:53 | 00:00:00 | |
| DL1XH-west | 2026-09-02 12:02:02 | 52.34764 | 8.95441 | 100° | 40km/h | 3670m | -3.4m/s | -3.6°C | 62.3% | 654hPa | 2.7V | 07:36:53 | 02:24:56 | 00:00:00 | |
| DJ2DS-15 | 2026-09-02 12:02:01 | 52.34765 | 8.95424 | 94° | 31km/h | 3674m | -3.4m/s | -3.6°C | 57.5% | 653.6hPa | 2.7V | 00:00:00 | 02:24:55 | 00:00:00 | |
| DL4XJ-10 | 2026-09-02 12:02:00 | 52.34765 | 8.95407 | 86° | 29km/h | 3677m | -3.4m/s | -4.6°C | 0% | 0hPa | 2.7V | 00:00:00 | 00:00:00 | 00:00:00 | |
| DL1XH1-15 | 2026-09-02 12:01:59 | 52.34761 | 8.95377 | 73° | 35km/h | 3684m | -3.2m/s | -3.8°C | 57.7% | 652.9hPa | 2.7V | 07:36:31 | 02:24:52 | 00:00:00 | |
| DL1XH1-15 | 2026-09-02 12:01:59 | 52.34756 | 8.95329 | 111° | 20km/h | 3700m | -3.3m/s | -3.9°C | 60.1% | 651.5hPa | 2.7V | 07:36:36 | 02:24:47 | 00:00:00 | |
| DB0DAN | 2026-09-02 12:01:55 | 52.34755 | 8.95345 | 78° | 20km/h | 3694m | -3.3m/s | -3.9°C | 58.1% | 652.1hPa | 2.7V | 00:00:00 | 00:00:00 | 00:00:00 | |
| DO2JMG | 2026-09-02 12:01:55 | 52.34755 | 8.95345 | 78° | 20km/h | 3694m | -3.3m/s | -3.9°C | 63.3% | 652.1hPa | 2.7V | 07:36:53 | 02:24:49 | 00:00:00 | |
| DL1XH1-15 | 2026-09-02 12:01:53 | 52.34769 | 8.95269 | 96° | 40km/h | 3717m | -3.2m/s | -4°C | 59.8% | 650.2hPa | 2.6V | 07:36:41 | 02:24:42 | 00:00:00 | |
| BIOWL1-15 | 2026-09-02 12:01:51 | 52.34765 | 8.95299 | 113° | 35km/h | 3710m | -3.3m/s | -4°C | 62.8% | 650.6hPa | 2.7V | 07:36:53 | 02:24:44 | 00:00:00 | |
| DL1XH-west | 2026-09-02 12:01:51 | 52.34761 | 8.95311 | 117° | 29km/h | 3707m | -3.5m/s | -4°C | 63.2% | 651hPa | 2.7V | 07:36:53 | 02:24:45 | 00:00:00 | |
| DM0DOS-11 | 2026-09-02 12:01:50 | 52.34768 | 8.95285 | 105° | 38km/h | 3714m | -3.2m/s | -4°C | 58.9% | 650.5hPa | 2.6V | 07:36:40 | 02:24:43 | 00:00:00 | |
| DM0DOS-11 | 2026-09-02 12:01:50 | 52.34765 | 8.95209 | 72° | 31km/h | 3730m | -3.5m/s | -4.3°C | 62.8% | 649hPa | 2.7V | 07:36:45 | 02:24:38 | 00:00:00 | |
| DL3AQ-11 | 2026-09-02 12:01:50 | 52.34768 | 8.95285 | 105° | 37km/h | 3714m | -3.2m/s | -4.0°C | 57.8% | 650.5hPa | 2.7V | 00:00:00 | 00:00:00 | 00:00:00 | |
| DL1XH1-15 | 2026-09-02 12:01:48 | 52.34763 | 8.95198 | 70° | 27km/h | 3734m | -3.5m/s | -4.3°C | 64.6% | 648.7hPa | 2.7V | 07:36:46 | 02:24:37 | 00:00:00 | |
| DO2JMG | 2026-09-02 12:01:45 | 52.34767 | 8.95222 | 76° | 35km/h | 3727m | -3.5m/s | -4.2°C | 67.5% | 649.3hPa | 2.7V | 07:36:53 | 02:24:39 | 00:00:00 | |
| DM0DOS-11 | 2026-09-02 12:01:44 | 52.34761 | 8.95165 | 115° | 22km/h | 3747m | -3.4m/s | -4.3°C | 67% | 647.5hPa | 2.7V | 07:36:50 | 02:24:33 | 00:00:00 | |
| DL1XH1-15 | 2026-09-02 12:01:43 | 52.34764 | 8.95156 | 117° | 27km/h | 3751m | -3.2m/s | -4.4°C | 67.4% | 647.4hPa | 2.7V | 07:36:51 | 02:24:32 | 00:00:00 | |
| DL1XH-west | 2026-09-02 12:01:41 | 52.34760 | 8.95173 | 102° | 18km/h | 3744m | -3.3m/s | -4.3°C | 70.1% | 648hPa | 2.7V | 07:36:53 | 02:24:34 | 00:00:00 | |
| BIOWL1-15 | 2026-09-02 12:01:40 | 52.34764 | 8.95156 | 117° | 27km/h | 3751m | -3.2m/s | -4.4°C | 70.4% | 647.4hPa | 2.7V | 07:36:53 | 02:24:32 | 00:00:00 | |
| DB0DAN | 2026-09-02 12:01:40 | 52.34760 | 8.95173 | 102° | 16km/h | 3744m | -3.3m/s | -4.3°C | 65.5% | 647.99hPa | 2.7V | 00:00:00 | 00:00:00 | 00:00:00 | |
| DL4XJ-10 | 2026-09-02 12:01:40 | 52.34760 | 8.95173 | 102° | 29km/h | 3745m | -3.2m/s | -5.2°C | 0% | 0hPa | 2.6V | 00:00:00 | 00:00:00 | 00:00:00 | |
| DM0DOS-11 | 2026-09-02 12:01:39 | 52.34774 | 8.95082 | 87° | 38km/h | 3767m | -3.3m/s | -4.6°C | 68.8% | 646.1hPa | 2.6V | 07:36:56 | 02:24:27 | 00:00:00 | |
| DL1XH1-15 | 2026-09-02 12:01:38 | 52.34774 | 8.95082 | 87° | 38km/h | 3767m | -3.3m/s | -4.6°C | 68.8% | 646.1hPa | 2.6V | 07:36:56 | 02:24:27 | 00:00:00 | |
| DO2JMG | 2026-09-02 12:01:34 | 52.34774 | 8.95099 | 94° | 40km/h | 3764m | -3.5m/s | -4.5°C | 72.7% | 646.5hPa | 2.6V | 07:37:44 | 02:24:28 | 00:00:00 | |
| DL1XH1-15 | 2026-09-02 12:01:33 | 52.34764 | 8.95018 | 69° | 22km/h | 3784m | -3.4m/s | -4.8°C | 71.8% | 644.5hPa | 2.7V | 07:37:01 | 02:24:22 | 00:00:00 | |
| BIOWL1-15 | 2026-09-02 12:01:30 | 52.34769 | 8.95039 | 72° | 31km/h | 3777m | -3.4m/s | -4.7°C | 74.2% | 645.2hPa | 2.7V | 07:37:44 | 02:24:24 | 00:00:00 | |
| BIOWL7-15 | 2026-09-02 12:01:29 | 52.34769 | 8.95039 | 73° | 31km/h | 3777m | -3.4m/s | -4.7°C | 69.1% | 645.3hPa | 2.7V | 00:00:00 | 00:00:00 | 00:00:00 | |
| DL3OBA | 2026-09-02 12:01:26 | 52.34762 | 8.95003 | 88° | 16km/h | 3791m | -3.4m/s | -4.8°C | 70.9% | 644.0hPa | 2.7V | 07:37:00 | 00:00:00 | 00:00:00 | |
| DM0DOS-11 | 2026-09-02 12:01:25 | 52.34766 | 8.94980 | 114° | 26km/h | 3801m | -3.3m/s | -4.8°C | 73.3% | 643.3hPa | 2.7V | 07:37:06 | 02:24:17 | 00:00:00 | |
| DB0DAN | 2026-09-02 12:01:25 | 52.34762 | 8.94996 | 102° | 16km/h | 3794m | -3.4m/s | -4.8°C | 71.3% | 643.79hPa | 2.7V | 00:00:00 | 00:00:00 | 00:00:00 | |
| DO2JMG | 2026-09-02 12:01:24 | 52.34764 | 8.94989 | 112° | 22km/h | 3798m | -3.3m/s | -4.7°C | 75.8% | 643.5hPa | 2.7V | 07:37:44 | 02:24:18 | 00:00:00 | |
| BIOWL1-15 | 2026-09-02 12:01:22 | 52.34774 | 8.94940 | 97° | 38km/h | 3811m | -3.4m/s | -4.9°C | 78.6% | 642.6hPa | 2.6V | 07:37:44 | 02:24:14 | 00:00:00 | |
| DL1XH-west | 2026-09-02 12:01:19 | 52.34774 | 8.94924 | 89° | 40km/h | 3815m | -3.4m/s | -4.9°C | 79.1% | 642.1hPa | 2.6V | 07:37:44 | 02:24:13 | 00:00:00 | |
| DL1CLM-18 | 2026-09-02 12:01:18 | 52.34774 | 8.94924 | 90° | 40km/h | 3815m | -3.4m/s | -4.9°C | 73.5% | 642.1hPa | 2.7V | 00:00:00 | 00:00:00 | 00:00:00 | |
| SONCRA | 2026-09-02 12:01:14 | 52.34762 | 8.94850 | 75° | 16km/h | 3835m | -3.4m/s | -5.1°C | 75.2% | 640.5hPa | 2.7V | 00:00:00 | 00:00:00 | 00:00:00 | |
| DD8BA-10 | 2026-09-02 12:01:13 | 52.34762 | 8.94850 | 76° | 29km/h | 3835m | -3.4m/s | -5.0°C | 76.7% | 640.4hPa | 2.7V | 00:00:00 | 00:00:00 | 00:00:00 | |
| DO2JMG | 2026-09-02 12:01:13 | 52.34762 | 8.94850 | 75° | 18km/h | 3835m | -3.4m/s | -5.1°C | 79.1% | 640.5hPa | 2.7V | 07:37:44 | 02:24:07 | 00:00:00 | |
| DL1XH-15 | 2026-09-02 12:01:12 | 52.34771 | 8.94790 | 99° | 38km/h | 3855m | -3.2m/s | -5.2°C | 77.7% | 638.8hPa | 2.7V | 07:37:22 | 02:24:01 | 00:00:00 | |
| DB0DAN | 2026-09-02 12:01:10 | 52.34764 | 8.94828 | 113° | 22km/h | 3845m | -3.4m/s | -5.1°C | 76.4% | 639.71hPa | 2.7V | 00:00:00 | 00:00:00 | 00:00:00 | |
| BIOWL1-15 | 2026-09-02 12:01:09 | 52.34767 | 8.94818 | 112° | 29km/h | 3848m | -3.5m/s | -5.2°C | 79.6% | 639.4hPa | 2.7V | 07:37:44 | 02:24:03 | 00:00:00 | |
| DL1XH-west | 2026-09-02 12:01:08 | 52.34769 | 8.94805 | 107° | 35km/h | 3852m | -3.4m/s | -5.2°C | 79.4% | 639.2hPa | 2.7V | 07:37:44 | 02:24:02 | 00:00:00 | |
| DL1XH-15 | 2026-09-02 12:01:06 | 52.34762 | 8.94707 | 68° | 24km/h | 3874m | -3.2m/s | -5.4°C | 77.7% | 637.3hPa | 2.7V | 07:37:28 | 02:23:55 | 00:00:00 | |
| GOEST3-10 | 2026-09-02 12:01:06 | 52.34772 | 8.94774 | 92° | 37km/h | 3858m | -3.1m/s | -5.2°C | 78.4% | 638.6hPa | 2.6V | 00:00:00 | 02:24:00 | 00:00:00 | |
| BIOWL9-15 | 2026-09-02 12:01:05 | 52.34772 | 8.94758 | 83° | 38km/h | 3862m | -3.4m/s | -5.3°C | 77.0% | 638.4hPa | 2.6V | 00:00:00 | 00:00:00 | 00:00:00 | |
| DL4BBY-15 | 2026-09-02 12:01:04 | 52.34770 | 8.94742 | 76° | 31km/h | 3865m | -3.3m/s | -6.2°C | 0% | 0hPa | 2.6V | 00:00:00 | 00:00:00 | 00:00:00 | |
| DM0DOS-11 | 2026-09-02 12:01:03 | 52.34762 | 8.94674 | 108° | 24km/h | 3887m | -3.5m/s | -5.4°C | 78.1% | 636.2hPa | 2.6V | 07:37:32 | 02:23:51 | 00:00:00 | |
| DO2JMG | 2026-09-02 12:01:02 | 52.34764 | 8.94716 | 66° | 29km/h | 3871m | -3.3m/s | -5.4°C | 80.3% | 637.5hPa | 2.7V | 07:37:44 | 02:23:56 | 00:00:00 | |
| DL1XH-15 | 2026-09-02 12:01:01 | 52.34764 | 8.94664 | 111° | 29km/h | 3891m | -3.4m/s | -5.4°C | 76.9% | 636.1hPa | 2.7V | 07:37:33 | 02:23:50 | 00:00:00 | |
| DJ2DS-15 | 2026-09-02 12:00:58 | 52.34762 | 8.94674 | 108° | 24km/h | 3887m | -3.5m/s | -5.4°C | 76.6% | 636.2hPa | 2.7V | 00:00:00 | 00:00:00 | 00:00:00 | |
| DL3AQ-11 | 2026-09-02 12:00:57 | 52.34764 | 8.94664 | 111° | 29km/h | 3891m | -3.4m/s | -5.4°C | 75.4% | 636.1hPa | 2.7V | 00:00:00 | 00:00:00 | 00:00:00 | |
| DL1XH-west | 2026-09-02 12:00:57 | 52.34762 | 8.94674 | 109° | 24km/h | 3887m | -3.5m/s | -5.4°C | 80.3% | 636.2hPa | 2.6V | 07:37:44 | 02:23:51 | 00:00:00 | |
| DB0DAN | 2026-09-02 12:00:55 | 52.34767 | 8.94651 | 108° | 33km/h | 3894m | -3.3m/s | -5.4°C | 76.1% | 635.74hPa | 2.7V | 00:00:00 | 00:00:00 | 00:00:00 | |
| DM0DOS-11 | 2026-09-02 12:00:53 | 52.34772 | 8.94604 | 91° | 42km/h | 3904m | -3.3m/s | -5.5°C | 77.2% | 634.9hPa | 2.7V | 07:37:37 | 02:23:46 | 00:00:00 | |
| DL1XH1-15 | 2026-09-02 12:00:53 | 52.34763 | 8.94533 | 71° | 24km/h | 3921m | -3.2m/s | -5.6°C | 77.1% | 633.6hPa | 2.7V | 07:37:42 | 02:23:41 | 00:00:00 | |
| DO2JMG | 2026-09-02 12:00:52 | 52.34772 | 8.94604 | 92° | 42km/h | 3904m | -3.3m/s | -5.5°C | 81.7% | 634.9hPa | 2.7V | 07:37:44 | 02:23:46 | 00:00:00 | |
| DL1XH-15 | 2026-09-02 12:00:48 | 52.34762 | 8.94524 | 80° | 20km/h | 3924m | -3.3m/s | -5.6°C | 77.2% | 633.2hPa | 2.7V | 07:37:43 | 02:23:40 | 00:00:00 | |
| DL1XH-west | 2026-09-02 12:00:48 | 52.34763 | 8.94533 | 72° | 24km/h | 3921m | -3.2m/s | -5.6°C | 80% | 633.6hPa | 2.7V | 07:37:44 | 02:23:41 | 00:00:00 | |
| BIOWL1-15 | 2026-09-02 12:00:45 | 52.34762 | 8.94508 | 105° | 22km/h | 3930m | -3.3m/s | -5.6°C | 79.2% | 632.8hPa | 2.6V | 07:38:35 | 02:23:38 | 00:00:00 | |
| DO2JMG | 2026-09-02 12:00:42 | 52.34767 | 8.94489 | 113° | 29km/h | 3937m | -3.5m/s | -5.7°C | 79.5% | 632.1hPa | 2.7V | 07:38:35 | 02:23:36 | 00:00:00 | |
| DL1XH-15 | 2026-09-02 12:00:42 | 52.34769 | 8.94477 | 111° | 33km/h | 3940m | -3.5m/s | -5.7°C | 77.5% | 631.9hPa | 2.7V | 07:37:48 | 02:23:35 | 00:00:00 | |
| DL1XH-west | 2026-09-02 12:00:37 | 52.34778 | 8.94416 | 93° | 42km/h | 3954m | -3.1m/s | -5.8°C | 81.9% | 631hPa | 2.6V | 07:38:35 | 02:23:31 | 00:00:00 | |
| DL1XH-15 | 2026-09-02 12:00:36 | 52.34778 | 8.94399 | 86° | 42km/h | 3957m | -3.3m/s | -5.9°C | 78.4% | 630.6hPa | 2.6V | 07:37:53 | 02:23:30 | 00:00:00 | |
| DL1XH-15 | 2026-09-02 12:00:36 | 52.34766 | 8.94329 | 68° | 26km/h | 3974m | -3.5m/s | -6°C | 78.6% | 629.2hPa | 2.7V | 07:37:58 | 02:23:25 | 00:00:00 | |
| BIOWL1-15 | 2026-09-02 12:00:36 | 52.34777 | 8.94382 | 80° | 40km/h | 3960m | -3.4m/s | -6°C | 82.8% | 630.5hPa | 2.7V | 07:38:35 | 02:23:29 | 00:00:00 | |
| DO2JMG | 2026-09-02 12:00:31 | 52.34766 | 8.94329 | 69° | 26km/h | 3974m | -3.6m/s | -6.1°C | 81.7% | 629.2hPa | 2.7V | 07:38:35 | 02:23:25 | 00:00:00 | |
| DL3AQ-11 | 2026-09-02 12:00:30 | 52.34764 | 8.94312 | 91° | 18km/h | 3981m | -3.2m/s | -6.0°C | 77.0% | 628.7hPa | 2.7V | 00:00:00 | 00:00:00 | 00:00:00 | |
| DM0DOS-11 | 2026-09-02 12:00:27 | 52.34766 | 8.94295 | 110° | 26km/h | 3987m | -3.4m/s | -6.1°C | 78.7% | 628.2hPa | 2.7V | 07:38:02 | 02:23:21 | 00:00:00 | |
| DL1XH-west | 2026-09-02 12:00:26 | 52.34769 | 8.94285 | 111° | 29km/h | 3991m | -3.4m/s | -6.1°C | 80.2% | 628hPa | 2.7V | 07:38:35 | 02:23:20 | 00:00:00 | |
| BIOWL1-15 | 2026-09-02 12:00:26 | 52.34774 | 8.94258 | 104° | 38km/h | 3997m | -3.2m/s | -6.2°C | 82.2% | 627.5hPa | 2.7V | 07:38:35 | 02:23:18 | 00:00:00 | |
| DB0DAN | 2026-09-02 12:00:25 | 52.34772 | 8.94272 | 108° | 33km/h | 3994m | -3.4m/s | -6.2°C | 78.2% | 627.6hPa | 2.7V | 00:00:00 | 00:00:00 | 00:00:00 | |
| DD8BA-10 | 2026-09-02 12:00:23 | 52.34776 | 8.94242 | 99° | 33km/h | 4001m | -3.4m/s | -6.2°C | 80.3% | 627.1hPa | 2.7V | 00:00:00 | 00:00:00 | 00:00:00 | |
| DJ2DS-15 | 2026-09-02 12:00:22 | 52.34777 | 8.94225 | 91° | 40km/h | 4004m | -3.4m/s | -6.3°C | 79.0% | 626.8hPa | 2.7V | 00:00:00 | 00:00:00 | 00:00:00 | |
| DJ2DS-15 | 2026-09-02 12:00:21 | 52.34777 | 8.94208 | 85° | 35km/h | 4008m | -3.2m/s | -6.3°C | 80.8% | 626.5hPa | 2.7V | 00:00:00 | 02:23:15 | 00:00:00 | |
| DO2JMG | 2026-09-02 12:00:21 | 52.34777 | 8.94208 | 84° | 42km/h | 4008m | -3.3m/s | -6.3°C | 84.5% | 626.5hPa | 2.7V | 07:38:35 | 02:23:15 | 00:00:00 | |
| DL4XJ-10 | 2026-09-02 12:00:20 | 52.34775 | 8.94191 | 79° | 33km/h | 4011m | -3.2m/s | -7.3°C | 0% | 0hPa | 2.7V | 00:00:00 | 00:00:00 | 00:00:00 | |
| DL1XH1-15 | 2026-09-02 12:00:19 | 52.34767 | 8.94149 | 65° | 29km/h | 4021m | -3.5m/s | -6.5°C | 81.2% | 625.4hPa | 2.7V | 07:38:12 | 02:23:11 | 00:00:00 | |
| DL1XH-west | 2026-09-02 12:00:17 | 52.34764 | 8.94139 | 67° | 26km/h | 4024m | -3.5m/s | -6.5°C | 83.1% | 625.1hPa | 2.6V | 07:38:35 | 02:23:10 | 00:00:00 | |
| BIOWL1-15 | 2026-09-02 12:00:14 | 52.34762 | 8.93961 | 68° | 38km/h | 4068m | -3.1m/s | -6.8°C | 83.6% | 621.6hPa | 2.7V | 07:38:35 | 02:22:57 | 00:00:00 | |
| DD8BA-10 | 2026-09-02 12:00:13 | 52.34761 | 8.94114 | 100° | 37km/h | 4034m | -3.3m/s | -6.4°C | 80.9% | 624.4hPa | 2.7V | 00:00:00 | 00:00:00 | 00:00:00 | |
| DB0DAN | 2026-09-02 12:00:10 | 52.34767 | 8.94080 | 104° | 35km/h | 4044m | -3.4m/s | -6.6°C | 79.4% | 623.68hPa | 2.7V | 00:00:00 | 00:00:00 | 00:00:00 | |
| DO2JMG | 2026-09-02 12:00:10 | 52.34767 | 8.94080 | 104° | 37km/h | 4044m | -3.4m/s | -6.6°C | 82.3% | 623.7hPa | 2.7V | 07:38:35 | 02:23:04 | 00:00:00 | |
| DL1XH1-15 | 2026-09-02 12:00:09 | 52.34771 | 8.94030 | 88° | 44km/h | 4055m | -3.4m/s | -6.7°C | 80.6% | 622.8hPa | 2.7V | 07:38:22 | 02:23:01 | 00:00:00 | |
| DL1XH-west | 2026-09-02 12:00:06 | 52.34770 | 8.94012 | 83° | 46km/h | 4058m | -3.4m/s | -6.7°C | 84.7% | 622.6hPa | 2.7V | 07:38:35 | 02:23:00 | 00:00:00 | |
| DL3AQ-11 | 2026-09-02 12:00:06 | 52.34768 | 8.93993 | 77° | 44km/h | 4062m | -3.6m/s | -6.8°C | 79.2% | 622.1hPa | 2.7V | 00:00:00 | 00:00:00 | 00:00:00 | |
| DL4BBY-15 | 2026-09-02 12:00:04 | 52.34765 | 8.93976 | 73° | 38km/h | 4066m | -3.2m/s | -7.7°C | 0% | 0hPa | 2.7V | 00:00:00 | 00:00:00 | 00:00:00 | |
| DL1XH-15 | 2026-09-02 12:00:03 | 52.34756 | 8.93905 | 104° | 29km/h | 4084m | -3.4m/s | -6.8°C | 84.6% | 620.5hPa | 2.7V | 07:38:31 | 02:22:52 | 00:00:00 | |
| DM0DOS-11 | 2026-09-02 12:00:03 | 52.34758 | 8.93948 | 66° | 33km/h | 4072m | -3.1m/s | -6.8°C | 80.7% | 621.4hPa | 2.6V | 07:38:27 | 02:22:56 | 00:00:00 | |
| DO2JMG | 2026-09-02 12:00:00 | 52.34755 | 8.93926 | 85° | 24km/h | 4078m | -3.2m/s | -6.8°C | 83.3% | 621hPa | 2.7V | 07:38:35 | 02:22:54 | 00:00:00 | |
| BIOWL1-15 | 2026-09-02 11:59:59 | 52.34755 | 8.93916 | 98° | 26km/h | 4081m | -3.2m/s | -6.8°C | 83.9% | 620.8hPa | 2.7V | 07:38:35 | 02:22:53 | 00:00:00 | |
| DL1XH1-15 | 2026-09-02 11:59:58 | 52.34758 | 8.93893 | 105° | 33km/h | 4088m | -3.6m/s | -6.8°C | 85.2% | 620.2hPa | 2.7V | 07:38:32 | 02:22:51 | 00:00:00 | |
| DL1XH1-15 | 2026-09-02 11:59:58 | 52.34761 | 8.93788 | 76° | 46km/h | 4107m | -3.1m/s | -7°C | 85.7% | 618.7hPa | 2.7V | 07:38:38 | 02:22:45 | 00:00:00 | |
| DL1XH-west | 2026-09-02 11:59:56 | 52.34760 | 8.93879 | 104° | 37km/h | 4091m | -3.5m/s | -6.8°C | 85.8% | 620hPa | 2.7V | 07:38:35 | 02:22:50 | 00:00:00 | |
| DB0DAN | 2026-09-02 11:59:55 | 52.34762 | 8.93863 | 101° | 40km/h | 4095m | -3.3m/s | -6.8°C | 83.3% | 619.72hPa | 2.6V | 00:00:00 | 00:00:00 | 00:00:00 | |
| DD8BA-10 | 2026-09-02 11:59:53 | 52.34764 | 8.93827 | 89° | 37km/h | 4101m | -3.1m/s | -6.8°C | 85.2% | 619.0hPa | 2.7V | 00:00:00 | 00:00:00 | 00:00:00 | |
| DL1XH-15 | 2026-09-02 11:59:53 | 52.34764 | 8.93827 | 88° | 47km/h | 4101m | -3.1m/s | -6.8°C | 85.2% | 619.1hPa | 2.7V | 07:38:36 | 02:22:47 | 00:00:00 | |
| DL1XH-15 | 2026-09-02 11:59:53 | 52.34750 | 8.93740 | 66° | 35km/h | 4117m | -3.2m/s | -7°C | 85.9% | 617.8hPa | 2.6V | 07:38:41 | 02:22:42 | 00:00:00 | |
| DL1XH1-15 | 2026-09-02 11:59:52 | 52.34743 | 8.93706 | 84° | 26km/h | 4127m | -3.4m/s | -7°C | 86% | 617.1hPa | 2.7V | 07:38:44 | 02:22:39 | 00:00:00 | |
| BIOWL1-15 | 2026-09-02 11:59:51 | 52.34754 | 8.93754 | 68° | 40km/h | 4114m | -3.2m/s | -7°C | 88.9% | 617.9hPa | 2.6V | 07:39:26 | 02:22:43 | 00:00:00 | |
| DO2JMG | 2026-09-02 11:59:50 | 52.34758 | 8.93770 | 72° | 44km/h | 4111m | -3.3m/s | -7°C | 88.9% | 618.4hPa | 2.7V | 07:39:26 | 02:22:44 | 00:00:00 | |
| DL3AQ-11 | 2026-09-02 11:59:50 | 52.34754 | 8.93754 | 67° | 38km/h | 4114m | -3.2m/s | -7.0°C | 84.2% | 617.9hPa | 2.7V | 00:00:00 | 00:00:00 | 00:00:00 | |
| DL1XH-15 | 2026-09-02 11:59:48 | 52.34744 | 8.93683 | 100° | 31km/h | 4134m | -3.3m/s | -7.1°C | 86.3% | 616.5hPa | 2.7V | 07:38:46 | 02:22:37 | 00:00:00 | |
| DM0DOS-11 | 2026-09-02 11:59:47 | 52.34747 | 8.93727 | 67° | 31km/h | 4120m | -3.3m/s | -7°C | 85.9% | 617.5hPa | 2.7V | 07:38:42 | 02:22:41 | 00:00:00 | |
| DL1XH1-15 | 2026-09-02 11:59:46 | 52.34749 | 8.93636 | 96° | 44km/h | 4143m | -3.3m/s | -7.2°C | 86.6% | 615.8hPa | 2.7V | 07:38:49 | 02:22:34 | 00:00:00 | |
| DL1XH-west | 2026-09-02 11:59:45 | 52.34743 | 8.93706 | 85° | 26km/h | 4127m | -3.4m/s | -7°C | 87.4% | 617.1hPa | 2.7V | 07:39:26 | 02:22:39 | 00:00:00 | |
| DD8BA-10 | 2026-09-02 11:59:43 | 52.34744 | 8.93683 | 101° | 44km/h | 4134m | -3.3m/s | -7.0°C | 86.3% | 616.5hPa | 2.7V | 07:38:00 | 00:00:00 | 00:00:00 | |
| DM0DOS-11 | 2026-09-02 11:59:42 | 52.34749 | 8.93577 | 82° | 49km/h | 4154m | -3.5m/s | -7.3°C | 87% | 614.7hPa | 2.7V | 07:38:52 | 02:22:31 | 00:00:00 | |
| DB0DAN | 2026-09-02 11:59:40 | 52.34749 | 8.93636 | 96° | 42km/h | 4143m | -3.3m/s | -7.2°C | 84.8% | 615.77hPa | 2.7V | 00:00:00 | 00:00:00 | 00:00:00 | |
| DO2JMG | 2026-09-02 11:59:40 | 52.34749 | 8.93636 | 96° | 44km/h | 4143m | -3.3m/s | -7.2°C | 88.5% | 615.8hPa | 2.7V | 07:39:26 | 02:22:34 | 00:00:00 | |
| BIOWL1-15 | 2026-09-02 11:59:39 | 52.34744 | 8.93538 | 73° | 47km/h | 4161m | -3.5m/s | -7.4°C | 90.1% | 614.3hPa | 2.6V | 07:39:26 | 02:22:29 | 00:00:00 | |
| DL1XH-15 | 2026-09-02 11:59:38 | 52.34750 | 8.93597 | 87° | 49km/h | 4150m | -3.5m/s | -7.3°C | 86.9% | 615.2hPa | 2.7V | 07:38:51 | 02:22:32 | 00:00:00 | |
| DL1XH-15 | 2026-09-02 11:59:38 | 52.34736 | 8.93505 | 68° | 38km/h | 4167m | -3.4m/s | -7.5°C | 87.9% | 613.8hPa | 2.7V | 07:38:56 | 02:22:27 | 00:00:00 | |
| DL3AQ-11 | 2026-09-02 11:59:37 | 52.34747 | 8.93557 | 77° | 47km/h | 4157m | -3.6m/s | -7.4°C | 85.4% | 614.7hPa | 2.7V | 00:00:00 | 00:00:00 | 00:00:00 | |
| DL1XH1-15 | 2026-09-02 11:59:35 | 52.34730 | 8.93456 | 93° | 27km/h | 4180m | -3.4m/s | -7.5°C | 88.4% | 612.9hPa | 2.7V | 07:39:00 | 02:22:23 | 00:00:00 | |
| DL1XH-west | 2026-09-02 11:59:34 | 52.34740 | 8.93520 | 69° | 44km/h | 4164m | -3.3m/s | -7.4°C | 89.8% | 614.1hPa | 2.6V | 07:39:26 | 02:22:28 | 00:00:00 | |
| BUE01 | 2026-09-02 11:59:33 | 52.34736 | 8.93505 | 68° | 37km/h | 4167m | -3.4m/s | -7.5°C | 86.1% | 613.8hPa | 2.7V | 00:00:00 | 00:00:00 | 00:00:00 | |
| DM0DOS-11 | 2026-09-02 11:59:32 | 52.34734 | 8.93415 | 101° | 40km/h | 4191m | -3.6m/s | -7.5°C | 88.2% | 612hPa | 2.7V | 07:39:03 | 02:22:20 | 00:00:00 | |
| DO2JMG | 2026-09-02 11:59:29 | 52.34730 | 8.93456 | 93° | 27km/h | 4180m | -3.4m/s | -7.5°C | 88.6% | 612.9hPa | 2.7V | 07:39:26 | 02:22:23 | 00:00:00 | |
| BIOWL1-15 | 2026-09-02 11:59:28 | 52.34734 | 8.93415 | 101° | 40km/h | 4191m | -3.6m/s | -7.6°C | 89.4% | 612hPa | 2.7V | 07:39:26 | 02:22:20 | 00:00:00 | |
| DL3AQ-11 | 2026-09-02 11:59:26 | 52.34736 | 8.93398 | 97° | 44km/h | 4194m | -3.4m/s | -7.6°C | 86.6% | 611.7hPa | 2.7V | 00:00:00 | 00:00:00 | 00:00:00 | |
| GOEST3-10 | 2026-09-02 11:59:25 | 52.34736 | 8.93398 | 98° | 49km/h | 4194m | -3.3m/s | -7.6°C | 88.5% | 611.6hPa | 2.7V | 00:00:00 | 00:00:00 | 00:00:00 | |
| DL1XH1-15 | 2026-09-02 11:59:24 | 52.34727 | 8.93279 | 69° | 42km/h | 4214m | -3.2m/s | -7.8°C | 90% | 610hPa | 2.7V | 07:39:10 | 02:22:13 | 00:00:00 | |
| DL1XH-15 | 2026-09-02 11:59:23 | 52.34737 | 8.93357 | 88° | 53km/h | 4201m | -3.3m/s | -7.7°C | 88.9% | 611.2hPa | 2.7V | 07:39:06 | 02:22:17 | 00:00:00 | |
| DL1XH-15 | 2026-09-02 11:59:23 | 52.34723 | 8.93263 | 69° | 37km/h | 4218m | -3.3m/s | -7.8°C | 89.6% | 609.9hPa | 2.7V | 07:39:11 | 02:22:12 | 00:00:00 | |
| DL1XH-west | 2026-09-02 11:59:23 | 52.34737 | 8.93357 | 88° | 53km/h | 4201m | -3.3m/s | -7.7°C | 91.2% | 611.2hPa | 2.7V | 07:39:26 | 02:22:17 | 00:00:00 | |
| DO2JMG | 2026-09-02 11:59:19 | 52.34727 | 8.93278 | 70° | 42km/h | 4215m | -3.2m/s | -7.8°C | 91.6% | 610hPa | 2.7V | 07:39:26 | 02:22:13 | 00:00:00 | |
| DL1XH-15 | 2026-09-02 11:59:18 | 52.34720 | 8.93201 | 100° | 35km/h | 4235m | -3.4m/s | -7.9°C | 89.4% | 608.5hPa | 2.7V | 07:39:16 | 02:22:07 | 00:00:00 | |
| DM0DOS-11 | 2026-09-02 11:59:16 | 52.34721 | 8.93186 | 102° | 38km/h | 4238m | -3.5m/s | -8°C | 89.6% | 608.3hPa | 2.7V | 07:39:17 | 02:22:06 | 00:00:00 | |
| BIOWL1-15 | 2026-09-02 11:59:16 | 52.34719 | 8.93238 | 80° | 29km/h | 4225m | -3.3m/s | -7.8°C | 89.6% | 609.3hPa | 2.7V | 07:39:26 | 02:22:10 | 00:00:00 | |
| DL1XH-west | 2026-09-02 11:59:12 | 52.34722 | 8.93186 | 102° | 38km/h | 4238m | -3.5m/s | -8°C | 89% | 608.3hPa | 2.7V | 07:39:26 | 02:22:06 | 00:00:00 | |
| DB0DAN | 2026-09-02 11:59:10 | 52.34725 | 8.93151 | 97° | 46km/h | 4245m | -3.4m/s | -8°C | 89.2% | 607.67hPa | 2.7V | 00:00:00 | 00:00:00 | 00:00:00 | |
| DO2JMG | 2026-09-02 11:59:08 | 52.34726 | 8.93110 | 86° | 51km/h | 4252m | -3.5m/s | -8.1°C | 91.6% | 607.3hPa | 2.6V | 07:39:26 | 02:22:02 | 00:00:00 | |
| DM0DOS-11 | 2026-09-02 11:59:06 | 52.34709 | 8.93009 | 74° | 31km/h | 4272m | -3.4m/s | -8.2°C | 88.8% | 605.7hPa | 2.6V | 07:39:27 | 02:21:56 | 00:00:00 | |
| BIOWL1-15 | 2026-09-02 11:59:06 | 52.34722 | 8.93069 | 74° | 47km/h | 4259m | -3.4m/s | -8.2°C | 91.8% | 606.7hPa | 2.7V | 07:39:26 | 02:22:00 | 00:00:00 | |
| DL1XH1-15 | 2026-09-02 11:59:04 | 52.34715 | 8.93035 | 67° | 38km/h | 4265m | -3.5m/s | -8.2°C | 88.7% | 606.2hPa | 2.7V | 07:39:25 | 02:21:58 | 00:00:00 | |
| DL1XH1-15 | 2026-09-02 11:59:04 | 52.34710 | 8.92957 | 101° | 38km/h | 4286m | -3.5m/s | -8.2°C | 89.8% | 604.6hPa | 2.7V | 07:39:31 | 02:21:52 | 00:00:00 | |
| GOEST3-10 | 2026-09-02 11:59:04 | 52.34714 | 8.93035 | 68° | 33km/h | 4265m | -3.5m/s | -8.2°C | 88.7% | 606.1hPa | 2.7V | 00:00:00 | 00:00:00 | 00:00:00 | |
| DL1CLM-18 | 2026-09-02 11:59:03 | 52.34714 | 8.93035 | 69° | 38km/h | 4265m | -3.5m/s | -8.2°C | 86.8% | 606.2hPa | 2.7V | 07:39:00 | 00:00:00 | 00:00:00 | |
| DM0DOS-11 | 2026-09-02 11:59:01 | 52.34711 | 8.92940 | 99° | 44km/h | 4289m | -3.5m/s | -8.2°C | 83.4% | 604.3hPa | 2.7V | 07:39:32 | 02:21:51 | 00:00:00 | |
| DL1XH-west | 2026-09-02 11:59:01 | 52.34707 | 8.92997 | 83° | 29km/h | 4275m | -3.5m/s | -8.2°C | 88.9% | 605.5hPa | 2.6V | 07:40:17 | 02:21:55 | 00:00:00 | |
| DO2JMG | 2026-09-02 11:58:58 | 52.34710 | 8.92957 | 101° | 38km/h | 4286m | -3.5m/s | -8.2°C | 89.5% | 604.6hPa | 2.7V | 07:40:17 | 02:21:52 | 00:00:00 | |
| BIOWL1-15 | 2026-09-02 11:58:57 | 52.34711 | 8.92858 | 78° | 51km/h | 4303m | -3.4m/s | -8.4°C | 81.9% | 603.4hPa | 2.7V | 07:40:17 | 02:21:47 | 00:00:00 | |
| DL3AQ-11 | 2026-09-02 11:58:57 | 52.34713 | 8.92921 | 95° | 47km/h | 4292m | -3.4m/s | -8.3°C | 79.6% | 604.0hPa | 2.7V | 00:00:00 | 00:00:00 | 00:00:00 | |
| DM0DOS-11 | 2026-09-02 11:58:56 | 52.34708 | 8.92838 | 72° | 49km/h | 4306m | -3.5m/s | -8.4°C | 78.9% | 603hPa | 2.7V | 07:39:37 | 02:21:46 | 00:00:00 | |
| DB0DAN | 2026-09-02 11:58:55 | 52.34714 | 8.92900 | 90° | 49km/h | 4296m | -3.4m/s | -8.3°C | 77% | 603.73hPa | 2.6V | 00:00:00 | 00:00:00 | 00:00:00 | |
| GOEST3-10 | 2026-09-02 11:58:54 | 52.34713 | 8.92879 | 85° | 47km/h | 4300m | -3.3m/s | -8.3°C | 79.0% | 603.5hPa | 2.6V | 07:39:00 | 00:00:00 | 00:00:00 | |
| DL1XH1-15 | 2026-09-02 11:58:53 | 52.34694 | 8.92776 | 75° | 31km/h | 4320m | -3.4m/s | -8.4°C | 73.8% | 602hPa | 2.6V | 07:39:41 | 02:21:42 | 00:00:00 | |
| DL1XH-west | 2026-09-02 11:58:51 | 52.34704 | 8.92819 | 69° | 44km/h | 4310m | -3.4m/s | -8.5°C | 80.8% | 602.7hPa | 2.7V | 07:40:17 | 02:21:45 | 00:00:00 | |
| GOEST3-10 | 2026-09-02 11:58:49 | 52.34697 | 8.92789 | 71° | 31km/h | 4317m | -3.3m/s | -8.4°C | 72.9% | 602.2hPa | 2.7V | 00:00:00 | 02:21:43 | 00:00:00 | |
| DL1XH1-15 | 2026-09-02 11:58:48 | 52.34694 | 8.92714 | 98° | 35km/h | 4337m | -3.5m/s | -8.5°C | 66.2% | 600.5hPa | 2.7V | 07:39:46 | 02:21:37 | 00:00:00 | |
| DO2JMG | 2026-09-02 11:58:47 | 52.34693 | 8.92764 | 82° | 29km/h | 4324m | -3.5m/s | -8.4°C | 75.9% | 601.7hPa | 2.7V | 07:40:17 | 02:21:41 | 00:00:00 | |
| BIOWL1-15 | 2026-09-02 11:58:44 | 52.34692 | 8.92727 | 97° | 31km/h | 4334m | -3.5m/s | -8.5°C | 69.6% | 600.9hPa | 2.7V | 07:40:17 | 02:21:38 | 00:00:00 | |
| GOEST3-10 | 2026-09-02 11:58:44 | 52.34692 | 8.92727 | 97° | 38km/h | 4334m | -3.5m/s | -8.4°C | 66.9% | 600.8hPa | 2.7V | 00:00:00 | 00:00:00 | 00:00:00 | |
| DL1XH-15 | 2026-09-02 11:58:43 | 52.34696 | 8.92619 | 81° | 51km/h | 4355m | -3.5m/s | -8.7°C | 62.7% | 599.4hPa | 2.7V | 07:39:51 | 02:21:32 | 00:00:00 | |
| DD8BA-10 | 2026-09-02 11:58:43 | 52.34693 | 8.92714 | 99° | 46km/h | 4337m | -3.5m/s | -8.4°C | 66.2% | 600.5hPa | 2.7V | 00:00:00 | 00:00:00 | 00:00:00 | |
| DL3OBA | 2026-09-02 11:58:41 | 52.34696 | 8.92680 | 97° | 46km/h | 4344m | -3.5m/s | -8.5°C | 62.3% | 600.0hPa | 2.7V | 07:40:00 | 00:00:00 | 00:00:00 | |
| DM0DOS-11 | 2026-09-02 11:58:40 | 52.34693 | 8.92598 | 76° | 51km/h | 4359m | -3.6m/s | -8.7°C | 63.5% | 599hPa | 2.7V | 07:39:52 | 02:21:31 | 00:00:00 | |
| DL1XH-west | 2026-09-02 11:58:40 | 52.34697 | 8.92640 | 87° | 51km/h | 4351m | -3.7m/s | -8.6°C | 67.3% | 599.5hPa | 2.7V | 07:40:17 | 02:21:33 | 00:00:00 | |
| DB0DAN | 2026-09-02 11:58:40 | 52.34697 | 8.92661 | 92° | 47km/h | 4348m | -3.6m/s | -8.6°C | 62.2% | 599.76hPa | 2.7V | 00:00:00 | 00:00:00 | 00:00:00 | |
| DL4XJ-10 | 2026-09-02 11:58:40 | 52.34697 | 8.92661 | 92° | 44km/h | 4348m | -3.5m/s | -9.4°C | 0% | 0hPa | 2.7V | 00:00:00 | 00:00:00 | 00:00:00 | |
| GOEST3-10 | 2026-09-02 11:58:39 | 52.34697 | 8.92640 | 87° | 49km/h | 4351m | -3.6m/s | -8.5°C | 63.1% | 599.5hPa | 2.7V | 00:00:00 | 02:21:33 | 00:00:00 | |
| DL1XH1-15 | 2026-09-02 11:58:38 | 52.34678 | 8.92532 | 67° | 33km/h | 4373m | -3.5m/s | -8.8°C | 65.8% | 597.9hPa | 2.7V | 07:39:56 | 02:21:27 | 00:00:00 | |
| DO2JMG | 2026-09-02 11:58:37 | 52.34693 | 8.92598 | 77° | 51km/h | 4359m | -3.6m/s | -8.7°C | 68% | 599hPa | 2.7V | 07:40:17 | 02:21:31 | 00:00:00 | |
| BIOWL1-15 | 2026-09-02 11:58:34 | 52.34674 | 8.92509 | 85° | 27km/h | 4380m | -3.6m/s | -8.8°C | 70.7% | 597.2hPa | 2.7V | 07:40:17 | 02:21:25 | 00:00:00 | |
| GOEST3-10 | 2026-09-02 11:58:34 | 52.34681 | 8.92545 | 66° | 31km/h | 4369m | -3.4m/s | -8.7°C | 65.5% | 598.0hPa | 2.6V | 00:00:00 | 00:00:00 | 00:00:00 | |
| DL1XH1-15 | 2026-09-02 11:58:33 | 52.34676 | 8.92468 | 98° | 38km/h | 4390m | -3.4m/s | -8.8°C | 83% | 596.6hPa | 2.6V | 07:40:01 | 02:21:22 | 00:00:00 | |
| DL1XH-west | 2026-09-02 11:58:29 | 52.34676 | 8.92468 | 99° | 38km/h | 4390m | -3.4m/s | -8.8°C | 83.8% | 596.6hPa | 2.6V | 07:40:17 | 02:21:22 | 00:00:00 | |
| DM0DOS-11 | 2026-09-02 11:58:27 | 52.34678 | 8.92451 | 96° | 44km/h | 4394m | -3.2m/s | -8.8°C | 84.2% | 596.2hPa | 2.7V | 07:40:02 | 02:21:21 | 00:00:00 | |
| DO2JMG | 2026-09-02 11:58:26 | 52.34679 | 8.92433 | 94° | 47km/h | 4397m | -3.5m/s | -8.8°C | 86.5% | 596hPa | 2.7V | 07:40:17 | 02:21:20 | 00:00:00 | |
| DB0DAN | 2026-09-02 11:58:25 | 52.34679 | 8.92413 | 89° | 47km/h | 4401m | -3.7m/s | -8.9°C | 84.7% | 595.82hPa | 2.7V | 00:00:00 | 00:00:00 | 00:00:00 | |
| BIOWL1-15 | 2026-09-02 11:58:24 | 52.34676 | 8.92372 | 78° | 51km/h | 4408m | -3.7m/s | -9°C | 90.4% | 595.3hPa | 2.6V | 07:40:17 | 02:21:17 | 00:00:00 | |
| DM0DOS-11 | 2026-09-02 11:58:22 | 52.34673 | 8.92352 | 73° | 49km/h | 4411m | -3.7m/s | -9°C | 87.8% | 594.9hPa | 2.6V | 07:40:07 | 02:21:16 | 00:00:00 | |
| DM0DOS-11 | 2026-09-02 11:58:22 | 52.34656 | 8.92272 | 76° | 31km/h | 4429m | -3.5m/s | -9.2°C | 89% | 593.6hPa | 2.7V | 07:40:12 | 02:21:11 | 00:00:00 | |
| DJ2DS-15 | 2026-09-02 11:58:21 | 52.34669 | 8.92332 | 71° | 37km/h | 4415m | -3.7m/s | -9.1°C | 88.4% | 594.6hPa | 2.7V | 00:00:00 | 02:21:15 | 00:00:00 | |
| DL4XJ-10 | 2026-09-02 11:58:20 | 52.34666 | 8.92315 | 69° | 37km/h | 4419m | -3.8m/s | -10.0°C | 0% | 0hPa | 2.7V | 00:00:00 | 00:00:00 | 00:00:00 | |
| DL1XH1-15 | 2026-09-02 11:58:18 | 52.34658 | 8.92285 | 69° | 35km/h | 4426m | -3.2m/s | -9.2°C | 89.1% | 593.9hPa | 2.7V | 07:40:11 | 02:21:12 | 00:00:00 | |
| DL1XH1-15 | 2026-09-02 11:58:18 | 52.34654 | 8.92220 | 88° | 31km/h | 4443m | -3.4m/s | -9.3°C | 88.9% | 592.4hPa | 2.7V | 07:40:16 | 02:21:07 | 00:00:00 | |
| DL1XH-west | 2026-09-02 11:58:18 | 52.34658 | 8.92285 | 70° | 35km/h | 4426m | -3.2m/s | -9.2°C | 91.5% | 593.9hPa | 2.7V | 07:40:17 | 02:21:12 | 00:00:00 | |
| DO2JMG | 2026-09-02 11:58:16 | 52.34654 | 8.92259 | 84° | 31km/h | 4433m | -3.3m/s | -9.3°C | 91% | 593.3hPa | 2.6V | 07:40:17 | 02:21:10 | 00:00:00 | |
| BIOWL1-15 | 2026-09-02 11:58:12 | 52.34657 | 8.92020 | 90° | 46km/h | 4490m | -3.6m/s | -9.7°C | 90.8% | 589hPa | 2.7V | 07:41:08 | 02:20:54 | 00:00:00 | |
| DM0DOS-11 | 2026-09-02 11:58:12 | 52.34654 | 8.92142 | 95° | 35km/h | 4465m | -3.7m/s | -9.5°C | 90.6% | 590.8hPa | 2.7V | 07:40:22 | 02:21:01 | 00:00:00 | |
| DB0DAN | 2026-09-02 11:58:10 | 52.34653 | 8.92182 | 89° | 29km/h | 4454m | -3.8m/s | -9.4°C | 87.1% | 591.71hPa | 2.6V | 00:00:00 | 00:00:00 | 00:00:00 | |
| DL1XH1-15 | 2026-09-02 11:58:08 | 52.34653 | 8.92156 | 93° | 33km/h | 4461m | -3.9m/s | -9.5°C | 89.7% | 591.1hPa | 2.7V | 07:40:21 | 02:21:02 | 00:00:00 | |
| DL1XH1-15 | 2026-09-02 11:58:08 | 52.34657 | 8.92077 | 90° | 44km/h | 4479m | -3.4m/s | -9.6°C | 91.6% | 589.8hPa | 2.6V | 07:40:26 | 02:20:57 | 00:00:00 | |
| DL1XH-west | 2026-09-02 11:58:07 | 52.34654 | 8.92142 | 96° | 35km/h | 4465m | -3.7m/s | -9.5°C | 90.1% | 590.8hPa | 2.7V | 07:41:08 | 02:21:01 | 00:00:00 | |
| DM0DOS-11 | 2026-09-02 11:58:07 | 52.34657 | 8.92058 | 89° | 46km/h | 4483m | -3.5m/s | -9.7°C | 91.6% | 589.5hPa | 2.7V | 07:40:27 | 02:20:56 | 00:00:00 | |
| DL3AQ-11 | 2026-09-02 11:58:06 | 52.34656 | 8.92112 | 94° | 38km/h | 4472m | -3.5m/s | -9.6°C | 89.2% | 590.2hPa | 2.7V | 00:00:00 | 00:00:00 | 00:00:00 | |
| DO2JMG | 2026-09-02 11:58:05 | 52.34656 | 8.92112 | 95° | 40km/h | 4472m | -3.5m/s | -9.6°C | 90.4% | 590.2hPa | 2.7V | 07:41:08 | 02:20:59 | 00:00:00 | |
| BIOWL7-15 | 2026-09-02 11:58:04 | 52.34656 | 8.92112 | 96° | 40km/h | 4473m | -3.5m/s | -9.6°C | 89.2% | 590.2hPa | 2.7V | 00:00:00 | 00:00:00 | 00:00:00 | |
| DL1XH1-15 | 2026-09-02 11:58:03 | 52.34657 | 8.91982 | 91° | 46km/h | 4497m | -3.7m/s | -9.7°C | 91.8% | 588.3hPa | 2.7V | 07:40:31 | 02:20:52 | 00:00:00 | |
| DM0DOS-11 | 2026-09-02 11:58:02 | 52.34658 | 8.91963 | 93° | 46km/h | 4501m | -3.5m/s | -9.7°C | 91.7% | 588.1hPa | 2.6V | 07:40:32 | 02:20:51 | 00:00:00 | |
| BIOWL1-15 | 2026-09-02 11:58:01 | 52.34657 | 8.92001 | 91° | 46km/h | 4494m | -3.6m/s | -9.7°C | 90.7% | 588.6hPa | 2.7V | 07:41:08 | 02:20:53 | 00:00:00 | |
| BUE01 | 2026-09-02 11:58:00 | 52.34657 | 8.92020 | 89° | 46km/h | 4490m | -3.6m/s | -9.7°C | 89.6% | 589.0hPa | 2.7V | 00:00:00 | 00:00:00 | 00:00:00 | |
| BIOWL9-15 | 2026-09-02 11:57:59 | 52.34657 | 8.91982 | 91° | 46km/h | 4497m | -3.7m/s | -9.7°C | 89.7% | 588.3hPa | 2.7V | 00:00:00 | 00:00:00 | 00:00:00 | |
| DL1XH-15 | 2026-09-02 11:57:58 | 52.34660 | 8.91886 | 91° | 47km/h | 4516m | -3.7m/s | -9.8°C | 91.6% | 586.8hPa | 2.7V | 07:40:36 | 02:20:47 | 00:00:00 | |
| DL4BBY-15 | 2026-09-02 11:57:58 | 52.34657 | 8.91982 | 92° | 47km/h | 4498m | -3.6m/s | -10.6°C | 0% | 0hPa | 2.7V | 00:00:00 | 00:00:00 | 00:00:00 | |
| DM0DOS-11 | 2026-09-02 11:57:57 | 52.34660 | 8.91867 | 90° | 47km/h | 4520m | -3.8m/s | -9.9°C | 91.6% | 586.7hPa | 2.7V | 07:40:37 | 02:20:46 | 00:00:00 | |
| DL1XH-west | 2026-09-02 11:57:57 | 52.34658 | 8.91944 | 94° | 46km/h | 4505m | -3.7m/s | -9.8°C | 90.6% | 587.8hPa | 2.6V | 07:41:08 | 02:20:50 | 00:00:00 | |
| DB0DAN | 2026-09-02 11:57:55 | 52.34659 | 8.91925 | 93° | 44km/h | 4508m | -3.8m/s | -9.8°C | 89.4% | 587.49hPa | 2.7V | 00:00:00 | 00:00:00 | 00:00:00 | |
| DO2JMG | 2026-09-02 11:57:54 | 52.34660 | 8.91906 | 92° | 47km/h | 4512m | -3.8m/s | -9.8°C | 90.4% | 587.2hPa | 2.7V | 07:41:08 | 02:20:48 | 00:00:00 | |
| DL3AQ-11 | 2026-09-02 11:57:50 | 52.34659 | 8.91807 | 84° | 47km/h | 4531m | -3.7m/s | -9.9°C | 88.7% | 585.8hPa | 2.7V | 00:00:00 | 00:00:00 | 00:00:00 | |
| DL1XH1-15 | 2026-09-02 11:57:48 | 52.34656 | 8.91663 | 97° | 47km/h | 4557m | -3.8m/s | -9.7°C | 87.1% | 583.7hPa | 2.7V | 07:40:47 | 02:20:36 | 00:00:00 | |
| DM0DOS-11 | 2026-09-02 11:57:47 | 52.34656 | 8.91663 | 97° | 47km/h | 4557m | -3.8m/s | -9.7°C | 87.1% | 583.7hPa | 2.7V | 07:40:47 | 02:20:36 | 00:00:00 | |
| DL1XH-west | 2026-09-02 11:57:45 | 52.34654 | 8.91724 | 88° | 51km/h | 4546m | -3.8m/s | -9.8°C | 86.9% | 584.7hPa | 2.6V | 07:41:08 | 02:20:39 | 00:00:00 | |
| DO2JMG | 2026-09-02 11:57:43 | 52.34654 | 8.91683 | 94° | 49km/h | 4553m | -3.7m/s | -9.7°C | 85.6% | 584.2hPa | 2.7V | 07:41:08 | 02:20:37 | 00:00:00 | |
| DD8BA-10 | 2026-09-02 11:57:43 | 52.34654 | 8.91682 | 95° | 51km/h | 4553m | -3.6m/s | -9.7°C | 87.6% | 584.1hPa | 2.7V | 00:00:00 | 00:00:00 | 00:00:00 | |
| DB0DAN | 2026-09-02 11:57:40 | 52.34660 | 8.91623 | 101° | 46km/h | 4565m | -3.9m/s | -9.7°C | 83.4% | 583.14hPa | 2.7V | 00:00:00 | 00:00:00 | 00:00:00 | |
| DL4XJ-10 | 2026-09-02 11:57:40 | 52.34660 | 8.91623 | 102° | 46km/h | 4565m | -3.8m/s | -10.5°C | 0% | 0hPa | 2.7V | 00:00:00 | 00:00:00 | 00:00:00 | |
| DL3OBA | 2026-09-02 11:57:39 | 52.34660 | 8.91623 | 102° | 47km/h | 4565m | -3.9m/s | -9.7°C | 83.4% | 583.1hPa | 2.7V | 07:41:00 | 00:00:00 | 00:00:00 | |
| DL1XH-15 | 2026-09-02 11:57:38 | 52.34662 | 8.91476 | 77° | 47km/h | 4592m | -3.9m/s | -9.6°C | 74.9% | 581hPa | 2.7V | 07:40:56 | 02:20:27 | 00:00:00 | |
| DM0DOS-11 | 2026-09-02 11:57:37 | 52.34660 | 8.91459 | 76° | 42km/h | 4596m | -4m/s | -9.7°C | 75% | 580.8hPa | 2.6V | 07:40:57 | 02:20:26 | 00:00:00 | |
| DL1XH-west | 2026-09-02 11:57:35 | 52.34664 | 8.91496 | 80° | 51km/h | 4588m | -4m/s | -9.6°C | 79.3% | 581.5hPa | 2.7V | 07:41:08 | 02:20:28 | 00:00:00 | |
| DK9SH | 2026-09-02 11:57:35 | 52.34666 | 8.91517 | 86° | 53km/h | 4584m | -3.9m/s | -9.6°C | 73.8% | 581.8hPa | 2.7V | 00:00:00 | 00:00:00 | 00:00:00 | |
| DL1XH-15 | 2026-09-02 11:57:33 | 52.34657 | 8.91402 | 103° | 35km/h | 4611m | -3.7m/s | -9.7°C | 74.3% | 579.7hPa | 2.7V | 07:41:01 | 02:20:22 | 00:00:00 | |
| DO2JMG | 2026-09-02 11:57:32 | 52.34660 | 8.91459 | 76° | 42km/h | 4596m | -4.1m/s | -9.7°C | 78.4% | 580.8hPa | 2.6V | 07:41:08 | 02:20:26 | 00:00:00 | |
| DL1XH1-15 | 2026-09-02 11:57:31 | 52.34663 | 8.91371 | 107° | 44km/h | 4619m | -3.9m/s | -9.8°C | 74.9% | 579.2hPa | 2.6V | 07:41:03 | 02:20:20 | 00:00:00 | |
| HSKMA3-T | 2026-09-02 11:57:31 | 52.34657 | 8.91443 | 78° | 37km/h | 4600m | -3.8m/s | -9.7°C | 77.7% | 580.6hPa | 2.6V | 07:45:23 | 02:20:25 | 00:00:00 | |
| BUE01 | 2026-09-02 11:57:29 | 52.34656 | 8.91416 | 95° | 31km/h | 4608m | -3.7m/s | -9.7°C | 72.4% | 580.0hPa | 2.7V | 00:00:00 | 00:00:00 | 00:00:00 | |
| DL1XH-15 | 2026-09-02 11:57:28 | 52.34674 | 8.91292 | 97° | 51km/h | 4633m | -3.5m/s | -9.9°C | 75.1% | 578hPa | 2.7V | 07:41:07 | 02:20:16 | 00:00:00 | |
| DL4BBY-15 | 2026-09-02 11:57:28 | 52.34657 | 8.91402 | 104° | 47km/h | 4611m | -3.7m/s | -10.5°C | 0% | 0hPa | 2.6V | 00:00:00 | 00:00:00 | 00:00:00 | |
| DB0DAN | 2026-09-02 11:57:25 | 52.34667 | 8.91353 | 105° | 46km/h | 4622m | -3.8m/s | -9.8°C | 73.3% | 578.94hPa | 2.6V | 00:00:00 | 00:00:00 | 00:00:00 | |
| BIOWL1-15 | 2026-09-02 11:57:23 | 52.34674 | 8.91292 | 97° | 51km/h | 4633m | -3.6m/s | -9.9°C | 75.6% | 578hPa | 2.7V | 07:41:08 | 02:20:16 | 00:00:00 | |
| DL1XH-15 | 2026-09-02 11:57:22 | 52.34686 | 8.91161 | 98° | 57km/h | 4656m | -4m/s | -10.1°C | 74.4% | 576.4hPa | 2.7V | 07:41:13 | 02:20:10 | 00:00:00 | |
| DO2JMG | 2026-09-02 11:57:21 | 52.34675 | 8.91271 | 97° | 51km/h | 4637m | -3.7m/s | -10°C | 75.4% | 577.7hPa | 2.7V | 07:41:08 | 02:20:15 | 00:00:00 | |
| DJ2DS-15 | 2026-09-02 11:57:21 | 52.34675 | 8.91271 | 97° | 49km/h | 4637m | -3.7m/s | -9.9°C | 75.2% | 577.6hPa | 2.7V | 00:00:00 | 02:20:15 | 00:00:00 | |
| DL4XJ-10 | 2026-09-02 11:57:20 | 52.34677 | 8.91249 | 99° | 49km/h | 4640m | -3.6m/s | -10.8°C | 0% | 0hPa | 2.7V | 00:00:00 | 00:00:00 | 00:00:00 | |
| DL3OBA | 2026-09-02 11:57:19 | 52.34679 | 8.91228 | 101° | 53km/h | 4644m | -3.8m/s | -10.0°C | 72.8% | 577.3hPa | 2.7V | 07:41:00 | 00:00:00 | 00:00:00 | |
| DL1XH-15 | 2026-09-02 11:57:16 | 52.34687 | 8.91056 | 82° | 40km/h | 4675m | -3.9m/s | -10.2°C | 74% | 575hPa | 2.7V | 07:41:18 | 02:20:05 | 00:00:00 | |
| DM0DOS-11 | 2026-09-02 11:57:16 | 52.34686 | 8.91040 | 85° | 37km/h | 4679m | -4.1m/s | -10.2°C | 73.3% | 574.7hPa | 2.7V | 07:41:19 | 02:20:04 | 00:00:00 | |
| HSKMA3-T | 2026-09-02 11:57:14 | 52.34689 | 8.91115 | 92° | 55km/h | 4664m | -4m/s | -10.2°C | 77.9% | 575.7hPa | 2.6V | 07:45:23 | 02:20:08 | 00:00:00 | |
| BIOWL1-15 | 2026-09-02 11:57:12 | 52.34699 | 8.90965 | 114° | 49km/h | 4698m | -3.9m/s | -10.3°C | 74.2% | 573.2hPa | 2.7V | 07:41:59 | 02:19:59 | 00:00:00 | |
| DO2JMG | 2026-09-02 11:57:11 | 52.34687 | 8.91056 | 83° | 42km/h | 4675m | -3.9m/s | -10.3°C | 77.1% | 575hPa | 2.7V | 07:41:59 | 02:20:05 | 00:00:00 | |
| DB0DAN | 2026-09-02 11:57:10 | 52.34686 | 8.91040 | 86° | 35km/h | 4679m | -4.1m/s | -10.2°C | 71.5% | 574.68hPa | 2.7V | 00:00:00 | 00:00:00 | 00:00:00 | |
| DL3AQ-11 | 2026-09-02 11:57:09 | 52.34687 | 8.91011 | 103° | 33km/h | 4687m | -3.8m/s | -10.2°C | 71.0% | 574.0hPa | 2.6V | 00:00:00 | 00:00:00 | 00:00:00 | |
| DL1XH-15 | 2026-09-02 11:57:06 | 52.34712 | 8.90878 | 93° | 55km/h | 4713m | -3.4m/s | -10.4°C | 74.4% | 572.1hPa | 2.6V | 07:41:28 | 02:19:55 | 00:00:00 | |
| DL1XH1-15 | 2026-09-02 11:57:05 | 52.34712 | 8.90835 | 87° | 49km/h | 4720m | -3.7m/s | -10.5°C | 75.1% | 571.5hPa | 2.7V | 07:41:30 | 02:19:53 | 00:00:00 | |
| DD8BA-10 | 2026-09-02 11:57:03 | 52.34708 | 8.90923 | 105° | 53km/h | 4706m | -3.7m/s | -10.3°C | 73.5% | 572.5hPa | 2.7V | 07:41:00 | 00:00:00 | 00:00:00 | |
| DL1XH-15 | 2026-09-02 11:57:01 | 52.34711 | 8.90773 | 89° | 53km/h | 4732m | -3.7m/s | -10.6°C | 75.7% | 570.8hPa | 2.6V | 07:41:33 | 02:19:50 | 00:00:00 | |
| DO2JMG | 2026-09-02 11:57:00 | 52.34713 | 8.90856 | 90° | 51km/h | 4717m | -3.5m/s | -10.5°C | 76% | 571.8hPa | 2.7V | 07:41:59 | 02:19:54 | 00:00:00 | |
| BUE01 | 2026-09-02 11:56:58 | 52.34712 | 8.90815 | 86° | 47km/h | 4724m | -3.9m/s | -10.5°C | 73.4% | 571.3hPa | 2.7V | 00:00:00 | 00:00:00 | 00:00:00 | |
| BIOWL9-15 | 2026-09-02 11:56:57 | 52.34711 | 8.90773 | 89° | 51km/h | 4732m | -3.7m/s | -10.6°C | 73.9% | 570.8hPa | 2.7V | 00:00:00 | 00:00:00 | 00:00:00 | |
| DL1XH-15 | 2026-09-02 11:56:56 | 52.34717 | 8.90657 | 95° | 58km/h | 4750m | -4m/s | -10.6°C | 76.8% | 569.4hPa | 2.7V | 07:41:38 | 02:19:45 | 00:00:00 | |
| DM0DOS-11 | 2026-09-02 11:56:55 | 52.34718 | 8.90633 | 92° | 58km/h | 4754m | -4m/s | -10.7°C | 77.5% | 569hPa | 2.6V | 07:41:39 | 02:19:44 | 00:00:00 | |
| DB0DAN | 2026-09-02 11:56:55 | 52.34711 | 8.90751 | 93° | 51km/h | 4735m | -3.6m/s | -10.6°C | 73.8% | 570.51hPa | 2.6V | 00:00:00 | 00:00:00 | 00:00:00 | |
| DL1XH1-15 | 2026-09-02 11:56:54 | 52.34718 | 8.90609 | 89° | 57km/h | 4758m | -4.1m/s | -10.7°C | 77.9% | 568.8hPa | 2.6V | 07:41:40 | 02:19:43 | 00:00:00 | |
| BIOWL1-15 | 2026-09-02 11:56:53 | 52.34718 | 8.90609 | 89° | 57km/h | 4758m | -4.1m/s | -10.7°C | 80.7% | 568.8hPa | 2.6V | 07:41:59 | 02:19:43 | 00:00:00 | |
| DL1XH-15 | 2026-09-02 11:56:51 | 52.34714 | 8.90547 | 82° | 42km/h | 4770m | -3.9m/s | -10.8°C | 78.5% | 568hPa | 2.7V | 07:41:43 | 02:19:40 | 00:00:00 | |
| DM0DOS-11 | 2026-09-02 11:56:50 | 52.34713 | 8.90531 | 85° | 38km/h | 4774m | -3.7m/s | -10.8°C | 78.5% | 567.8hPa | 2.7V | 07:41:44 | 02:19:39 | 00:00:00 | |
| DO2JMG | 2026-09-02 11:56:50 | 52.34718 | 8.90633 | 92° | 58km/h | 4754m | -4m/s | -10.7°C | 80.2% | 569hPa | 2.6V | 07:41:59 | 02:19:44 | 00:00:00 | |
| HSKMA3-T | 2026-09-02 11:56:48 | 52.34717 | 8.90587 | 85° | 53km/h | 4762m | -4.1m/s | -10.8°C | 81% | 568.6hPa | 2.7V | 07:45:23 | 02:19:42 | 00:00:00 | |
| DL1XH-15 | 2026-09-02 11:56:46 | 52.34719 | 8.90471 | 108° | 40km/h | 4788m | -3.8m/s | -10.8°C | 79.4% | 566.6hPa | 2.7V | 07:41:48 | 02:19:35 | 00:00:00 | |
| DJ2DS-15 | 2026-09-02 11:56:46 | 52.34713 | 8.90531 | 85° | 38km/h | 4773m | -3.7m/s | -10.8°C | 76.6% | 567.8hPa | 2.7V | 00:00:00 | 00:00:00 | 00:00:00 | |
| DM0DOS-11 | 2026-09-02 11:56:45 | 52.34723 | 8.90454 | 109° | 46km/h | 4792m | -4m/s | -10.8°C | 79.8% | 566.3hPa | 2.7V | 07:41:49 | 02:19:34 | 00:00:00 | |
| DL3AQ-11 | 2026-09-02 11:56:45 | 52.34713 | 8.90515 | 92° | 35km/h | 4777m | -3.5m/s | -10.8°C | 76.9% | 567.4hPa | 2.7V | 00:00:00 | 00:00:00 | 00:00:00 | |
| DL1XH1-15 | 2026-09-02 11:56:44 | 52.34726 | 8.90435 | 108° | 49km/h | 4796m | -3.8m/s | -10.9°C | 79.9% | 566hPa | 2.7V | 07:41:50 | 02:19:33 | 00:00:00 | |
| DD8BA-10 | 2026-09-02 11:56:43 | 52.34714 | 8.90501 | 101° | 49km/h | 4781m | -3.6m/s | -10.7°C | 79.0% | 567.1hPa | 2.7V | 00:00:00 | 00:00:00 | 00:00:00 | |
| DL1XH-15 | 2026-09-02 11:56:41 | 52.34735 | 8.90368 | 96° | 58km/h | 4808m | -3.8m/s | -11°C | 80.6% | 565.3hPa | 2.7V | 07:41:53 | 02:19:30 | 00:00:00 | |
| DB0DAN | 2026-09-02 11:56:40 | 52.34722 | 8.90454 | 110° | 44km/h | 4792m | -4m/s | -10.8°C | 77.9% | 566.29hPa | 2.7V | 00:00:00 | 00:00:00 | 00:00:00 | |
| DM0DOS-11 | 2026-09-02 11:56:40 | 52.34737 | 8.90344 | 92° | 58km/h | 4811m | -3.7m/s | -11°C | 80.8% | 565hPa | 2.7V | 07:41:54 | 02:19:29 | 00:00:00 | |
| DO2JMG | 2026-09-02 11:56:39 | 52.34726 | 8.90435 | 108° | 49km/h | 4796m | -3.8m/s | -10.9°C | 79.9% | 566hPa | 2.7V | 07:41:59 | 02:19:33 | 00:00:00 | |
| DL1XH1-15 | 2026-09-02 11:56:39 | 52.34736 | 8.90296 | 84° | 55km/h | 4819m | -3.8m/s | -11.1°C | 81.5% | 564.3hPa | 2.7V | 07:41:56 | 02:19:27 | 00:00:00 | |
| BIOWL1-15 | 2026-09-02 11:56:38 | 52.34730 | 8.90414 | 105° | 55km/h | 4800m | -3.7m/s | -10.9°C | 80.7% | 565.8hPa | 2.6V | 07:41:59 | 02:19:32 | 00:00:00 | |
| HSKMA3-T | 2026-09-02 11:56:37 | 52.34733 | 8.90392 | 101° | 58km/h | 4804m | -3.8m/s | -10.9°C | 81.3% | 565.4hPa | 2.6V | 07:45:23 | 02:19:31 | 00:00:00 | |
| DM0DOS-11 | 2026-09-02 11:56:35 | 52.34731 | 8.90239 | 82° | 40km/h | 4830m | -3.8m/s | -11.1°C | 81% | 563.6hPa | 2.7V | 07:41:59 | 02:19:24 | 00:00:00 | |
| DL1XH1-15 | 2026-09-02 11:56:34 | 52.34730 | 8.90209 | 93° | 35km/h | 4838m | -3.9m/s | -11.1°C | 79% | 563hPa | 2.7V | 07:42:01 | 02:19:22 | 00:00:00 | |
| DL3AQ-11 | 2026-09-02 11:56:34 | 52.34736 | 8.90296 | 84° | 53km/h | 4819m | -3.8m/s | -11.1°C | 79.5% | 564.3hPa | 2.7V | 00:00:00 | 00:00:00 | 00:00:00 | |
| DD8BA-10 | 2026-09-02 11:56:33 | 52.34736 | 8.90296 | 85° | 42km/h | 4819m | -3.7m/s | -11.1°C | 81.5% | 564.3hPa | 2.7V | 00:00:00 | 00:00:00 | 00:00:00 | |
| DL1XH-15 | 2026-09-02 11:56:31 | 52.34734 | 8.90180 | 107° | 38km/h | 4846m | -3.7m/s | -11.1°C | 77% | 562.4hPa | 2.6V | 07:42:03 | 02:19:20 | 00:00:00 | |
| DM0DOS-11 | 2026-09-02 11:56:30 | 52.34737 | 8.90164 | 111° | 44km/h | 4850m | -3.9m/s | -11.1°C | 76.4% | 562.1hPa | 2.6V | 07:42:04 | 02:19:19 | 00:00:00 | |
| DO2JMG | 2026-09-02 11:56:28 | 52.34730 | 8.90209 | 94° | 35km/h | 4838m | -3.9m/s | -11.1°C | 80% | 563hPa | 2.7V | 07:42:50 | 02:19:22 | 00:00:00 | |
| HSKMA3-T | 2026-09-02 11:56:26 | 52.34733 | 8.90180 | 108° | 38km/h | 4846m | -3.7m/s | -11.1°C | 77.2% | 562.4hPa | 2.6V | 07:45:23 | 02:19:20 | 00:00:00 | |
| BIOWL9-15 | 2026-09-02 11:56:26 | 52.34737 | 8.90164 | 111° | 42km/h | 4850m | -3.9m/s | 0°C | -1.0% | 562.1hPa | 2.6V | 00:00:00 | 00:00:00 | 00:00:00 | |
| DM0DOS-11 | 2026-09-02 11:56:25 | 52.34752 | 8.90059 | 90° | 57km/h | 4869m | -3.6m/s | -11.3°C | 75.5% | 560.8hPa | 2.6V | 07:42:09 | 02:19:14 | 00:00:00 | |
| DB0DAN | 2026-09-02 11:56:25 | 52.34737 | 8.90164 | 111° | 42km/h | 4850m | -3.9m/s | -11.1°C | 74.5% | 562.11hPa | 2.6V | 00:00:00 | 00:00:00 | 00:00:00 | |
| DD8BA-10 | 2026-09-02 11:56:23 | 52.34745 | 8.90127 | 108° | 47km/h | 4858m | -3.9m/s | -11.1°C | 76.2% | 561.4hPa | 2.7V | 00:00:00 | 00:00:00 | 00:00:00 | |
| DL1XH1-15 | 2026-09-02 11:56:23 | 52.34750 | 8.90016 | 82° | 49km/h | 4876m | -3.9m/s | -11.4°C | 75.2% | 560.2hPa | 2.7V | 07:42:11 | 02:19:12 | 00:00:00 | |
| DL1XH-15 | 2026-09-02 11:56:21 | 52.34747 | 8.89979 | 80° | 40km/h | 4884m | -3.8m/s | -11.4°C | 73.6% | 559.6hPa | 2.7V | 07:42:13 | 02:19:10 | 00:00:00 | |
| DJ2DS-15 | 2026-09-02 11:56:21 | 52.34751 | 8.90082 | 97° | 47km/h | 4865m | -3.7m/s | -11.2°C | 75.7% | 560.9hPa | 2.6V | 00:00:00 | 02:19:15 | 00:00:00 | |
| DL4XJ-10 | 2026-09-02 11:56:20 | 52.34752 | 8.90059 | 91° | 47km/h | 4869m | -3.5m/s | -12.1°C | 0% | 0hPa | 2.6V | 00:00:00 | 00:00:00 | 00:00:00 | |
| DL1XH1-15 | 2026-09-02 11:56:18 | 52.34745 | 8.89935 | 96° | 33km/h | 4896m | -3.8m/s | -11.4°C | 70.8% | 558.8hPa | 2.6V | 07:42:16 | 02:19:07 | 00:00:00 | |
| DO2JMG | 2026-09-02 11:56:17 | 52.34748 | 8.89996 | 81° | 46km/h | 4880m | -4m/s | -11.4°C | 77.8% | 560hPa | 2.7V | 07:42:50 | 02:19:11 | 00:00:00 | |
| DL1XH-15 | 2026-09-02 11:56:16 | 52.34749 | 8.89907 | 108° | 37km/h | 4903m | -3.8m/s | -11.4°C | 71.3% | 558.3hPa | 2.7V | 07:42:18 | 02:19:05 | 00:00:00 | |
| HSKMA3-T | 2026-09-02 11:56:15 | 52.34745 | 8.89963 | 84° | 37km/h | 4888m | -4m/s | -11.4°C | 74.8% | 559.3hPa | 2.7V | 07:45:23 | 02:19:09 | 00:00:00 | |
| DM0DOS-11 | 2026-09-02 11:56:14 | 52.34753 | 8.89892 | 110° | 42km/h | 4907m | -3.8m/s | -11.5°C | 72.1% | 557.9hPa | 2.7V | 07:42:19 | 02:19:04 | 00:00:00 | |
| DD8BA-10 | 2026-09-02 11:56:13 | 52.34745 | 8.89935 | 97° | 46km/h | 4896m | -3.8m/s | -11.3°C | 70.8% | 558.7hPa | 2.7V | 00:00:00 | 00:00:00 | 00:00:00 | |
| DL1XH-15 | 2026-09-02 11:56:11 | 52.34768 | 8.89815 | 103° | 55km/h | 4922m | -3.9m/s | -11.5°C | 71.3% | 556.9hPa | 2.7V | 07:42:23 | 02:19:00 | 00:00:00 | |
| DB0DAN | 2026-09-02 11:56:10 | 52.34753 | 8.89892 | 111° | 40km/h | 4907m | -3.8m/s | -11.5°C | 70.3% | 557.94hPa | 2.7V | 00:00:00 | 00:00:00 | 00:00:00 | |
| DJ2DS-15 | 2026-09-02 11:56:09 | 52.34761 | 8.89856 | 109° | 49km/h | 4915m | -3.9m/s | -11.5°C | 70.5% | 557.4hPa | 2.7V | 00:00:00 | 00:00:00 | 00:00:00 | |
| DL1XH1-15 | 2026-09-02 11:56:08 | 52.34774 | 8.89745 | 90° | 57km/h | 4934m | -3.8m/s | -11.6°C | 58.7% | 556hPa | 2.7V | 07:42:26 | 02:18:57 | 00:00:00 | |
| BIOWL1-15 | 2026-09-02 11:56:08 | 52.34769 | 8.89661 | 81° | 44km/h | 4949m | -3.8m/s | -11.7°C | 53.9% | 554.9hPa | 2.7V | 07:42:50 | 02:18:53 | 00:00:00 | |
| DL1XH-west | 2026-09-02 11:56:07 | 52.34771 | 8.89792 | 100° | 57km/h | 4926m | -3.9m/s | -11.6°C | 68.1% | 556.5hPa | 2.7V | 07:42:50 | 02:18:59 | 00:00:00 | |
| DO2JMG | 2026-09-02 11:56:07 | 52.34765 | 8.89836 | 107° | 53km/h | 4919m | -3.9m/s | -11.6°C | 71.7% | 557hPa | 2.6V | 07:42:50 | 02:19:01 | 00:00:00 | |
| DM0DOS-11 | 2026-09-02 11:56:06 | 52.34771 | 8.89792 | 99° | 57km/h | 4926m | -3.9m/s | -11.6°C | 66.8% | 556.5hPa | 2.7V | 07:42:24 | 02:18:59 | 00:00:00 | |
| DL1XH-15 | 2026-09-02 11:56:06 | 52.34771 | 8.89680 | 81° | 49km/h | 4945m | -4m/s | -11.7°C | 51.1% | 555.1hPa | 2.7V | 07:42:29 | 02:18:54 | 00:00:00 | |
| DK9SH | 2026-09-02 11:56:05 | 52.34771 | 8.89792 | 101° | 57km/h | 4926m | -3.9m/s | -11.6°C | 65.1% | 556.5hPa | 2.7V | 07:42:00 | 00:00:00 | 00:00:00 | |
| DL1XH1-15 | 2026-09-02 11:56:03 | 52.34767 | 8.89644 | 82° | 40km/h | 4953m | -3.9m/s | -11.7°C | 47.2% | 554.8hPa | 2.7V | 07:42:31 | 02:18:52 | 00:00:00 | |
| DL1LOL-11 | 2026-09-02 11:56:03 | 52.34773 | 8.89745 | 92° | 57km/h | 4934m | -3.8m/s | -11.6°C | 57.1% | 556.0hPa | 2.7V | 00:00:00 | 00:00:00 | 00:00:00 | |
| DM0DOS-11 | 2026-09-02 11:56:01 | 52.34771 | 8.89680 | 81° | 49km/h | 4945m | -4m/s | -11.7°C | 51.1% | 555.1hPa | 2.7V | 07:42:29 | 02:18:54 | 00:00:00 | |
| DJ2DS-15 | 2026-09-02 11:56:01 | 52.34772 | 8.89701 | 84° | 46km/h | 4941m | -4.0m/s | -11.6°C | 51.9% | 555.4hPa | 2.6V | 07:42:00 | 02:18:55 | 00:00:00 | |
| DL4XJ-10 | 2026-09-02 11:56:00 | 52.34770 | 8.89680 | 82° | 46km/h | 4945m | -4.0m/s | -12.5°C | 0% | 0hPa | 2.7V | 00:00:00 | 00:00:00 | 00:00:00 | |
| DL1XH1-15 | 2026-09-02 11:55:58 | 52.34774 | 8.89567 | 108° | 46km/h | 4971m | -3.4m/s | -11.7°C | 49.1% | 553.4hPa | 2.7V | 07:42:36 | 02:18:47 | 00:00:00 | |
| DL4BBY-15 | 2026-09-02 11:55:58 | 52.34767 | 8.89644 | 83° | 47km/h | 4953m | -3.8m/s | -12.5°C | 0% | 0hPa | 2.7V | 00:00:00 | 00:00:00 | 00:00:00 | |
| DL3OBA | 2026-09-02 11:55:57 | 52.34767 | 8.89644 | 83° | 40km/h | 4953m | -3.9m/s | -11.7°C | 45.9% | 554.7hPa | 2.7V | 07:42:00 | 00:00:00 | 00:00:00 | |
| DM0DOS-11 | 2026-09-02 11:55:56 | 52.34768 | 8.89600 | 104° | 37km/h | 4964m | -3.5m/s | -11.6°C | 48.9% | 553.8hPa | 2.7V | 07:42:34 | 02:18:49 | 00:00:00 | |
| DL1XH-west | 2026-09-02 11:55:56 | 52.34767 | 8.89614 | 96° | 35km/h | 4961m | -3.6m/s | -11.6°C | 52.8% | 554.1hPa | 2.6V | 07:42:50 | 02:18:50 | 00:00:00 | |
| DB0DAN | 2026-09-02 11:55:55 | 52.34768 | 8.89600 | 105° | 35km/h | 4964m | -3.5m/s | -11.6°C | 47.5% | 553.82hPa | 2.7V | 00:00:00 | 00:00:00 | 00:00:00 | |
| BIOWL9-15 | 2026-09-02 11:55:55 | 52.34771 | 8.89584 | 108° | 40km/h | 4967m | -3.5m/s | 0°C | 0% | -1.0hPa | 2.7V | 00:00:00 | 00:00:00 | 00:00:00 | |
| DL3AQ-11 | 2026-09-02 11:55:54 | 52.34771 | 8.89584 | 108° | 40km/h | 4967m | -3.5m/s | -11.6°C | 0% | 553.6hPa | 2.7V | 00:00:00 | 00:00:00 | 00:00:00 | |
| DL1XH1-15 | 2026-09-02 11:55:53 | 52.34792 | 8.89463 | 105° | 53km/h | 4988m | -3.6m/s | -11.8°C | 49.6% | 552hPa | 2.7V | 07:42:41 | 02:18:42 | 00:00:00 | |
| BIOWL1-15 | 2026-09-02 11:55:52 | 52.34778 | 8.89548 | 106° | 51km/h | 4974m | -3.3m/s | -11.7°C | 53% | 553.1hPa | 2.7V | 07:42:50 | 02:18:46 | 00:00:00 | |
| DM0DOS-11 | 2026-09-02 11:55:51 | 52.34785 | 8.89506 | 104° | 53km/h | 4981m | -3.7m/s | -11.8°C | 49.3% | 552.6hPa | 2.6V | 07:42:39 | 02:18:44 | 00:00:00 | |
| DL1XH1-15 | 2026-09-02 11:55:48 | 52.34812 | 8.89372 | 112° | 40km/h | 5007m | -3.9m/s | -12°C | 51% | 550.6hPa | 2.7V | 07:42:46 | 02:18:37 | 00:00:00 | |
| DM0DOS-11 | 2026-09-02 11:55:46 | 52.34804 | 8.89404 | 110° | 46km/h | 4999m | -3.7m/s | -11.9°C | 50.6% | 551.3hPa | 2.6V | 07:42:44 | 02:18:39 | 00:00:00 | |
| DO2JMG | 2026-09-02 11:55:46 | 52.34800 | 8.89423 | 109° | 49km/h | 4996m | -3.7m/s | -11.9°C | 53.8% | 551.4hPa | 2.7V | 07:42:50 | 02:18:40 | 00:00:00 | |
| DD8BA-10 | 2026-09-02 11:55:43 | 52.34812 | 8.89371 | 113° | 47km/h | 5007m | -3.8m/s | -11.9°C | 51.0% | 550.6hPa | 2.7V | 07:42:00 | 00:00:00 | 00:00:00 | |
| DM0DOS-11 | 2026-09-02 11:55:41 | 52.34839 | 8.89246 | 105° | 53km/h | 5032m | -3.7m/s | -12.2°C | 53.5% | 548.9hPa | 2.7V | 07:42:53 | 02:18:30 | 00:00:00 | |
| BIOWL1-15 | 2026-09-02 11:55:41 | 52.34820 | 8.89341 | 113° | 40km/h | 5015m | -3.9m/s | -12°C | 56.1% | 550.2hPa | 2.7V | 07:42:50 | 02:18:35 | 00:00:00 | |
| DB0DAN | 2026-09-02 11:55:40 | 52.34824 | 8.89325 | 112° | 42km/h | 5018m | -3.8m/s | -12.1°C | 51.8% | 549.85hPa | 2.7V | 00:00:00 | 00:00:00 | 00:00:00 | |
| DL4XJ-10 | 2026-09-02 11:55:40 | 52.34824 | 8.89325 | 112° | 51km/h | 5018m | -3.7m/s | -12.9°C | 0% | 0hPa | 2.7V | 00:00:00 | 00:00:00 | 00:00:00 | |
| DL1XH1-15 | 2026-09-02 11:55:38 | 52.34856 | 8.89166 | 113° | 49km/h | 5046m | -3.6m/s | -12.3°C | 54.6% | 547.9hPa | 2.7V | 07:42:57 | 02:18:26 | 00:00:00 | |
| DO2JMG | 2026-09-02 11:55:35 | 52.34843 | 8.89225 | 107° | 53km/h | 5036m | -3.6m/s | -12.3°C | 55.6% | 548.6hPa | 2.7V | 07:43:41 | 02:18:29 | 00:00:00 | |
| BIOWL1-15 | 2026-09-02 11:55:34 | 52.34867 | 8.89128 | 115° | 51km/h | 5054m | -3.9m/s | -12.3°C | 57.4% | 547.3hPa | 2.7V | 07:43:41 | 02:18:24 | 00:00:00 | |
| DD1CC8 | 2026-09-02 11:55:33 | 52.34856 | 8.89166 | 113° | 49km/h | 5046m | -3.6m/s | -12.3°C | 53.1% | 548.0hPa | 2.7V | 00:00:00 | 00:00:00 | 00:00:00 | |
| SONCRA | 2026-09-02 11:55:32 | 52.34862 | 8.89147 | 114° | 49km/h | 5050m | -3.6m/s | -12.3°C | 53.1% | 547.6hPa | 2.7V | 00:00:00 | 00:00:00 | 00:00:00 | |
| DL1XH-15 | 2026-09-02 11:55:31 | 52.34872 | 8.89108 | 112° | 53km/h | 5058m | -4.3m/s | -12.4°C | 55.1% | 547.1hPa | 2.7V | 07:43:00 | 02:18:23 | 00:00:00 | |
| DM0DOS-11 | 2026-09-02 11:55:31 | 52.34885 | 8.89042 | 99° | 57km/h | 5069m | -3.8m/s | -12.4°C | 56.1% | 546.4hPa | 2.7V | 07:43:03 | 02:18:20 | 00:00:00 | |
| GOEST3-10 | 2026-09-02 11:55:31 | 52.34862 | 8.89147 | 115° | 51km/h | 5050m | -3.6m/s | -12.3°C | 54.6% | 547.6hPa | 2.7V | 00:00:00 | 00:00:00 | 00:00:00 | |
| DL4BBY-15 | 2026-09-02 11:55:28 | 52.34877 | 8.89087 | 110° | 49km/h | 5062m | -3.9m/s | -13.2°C | 0% | 0hPa | 2.7V | 00:00:00 | 00:00:00 | 00:00:00 | |
| DB0DAN | 2026-09-02 11:55:25 | 52.34886 | 8.89019 | 96° | 53km/h | 5073m | -3.8m/s | -12.5°C | 55.1% | 545.89hPa | 2.7V | 00:00:00 | 00:00:00 | 00:00:00 | |
| DO2JMG | 2026-09-02 11:55:25 | 52.34886 | 8.89019 | 96° | 57km/h | 5073m | -3.8m/s | -12.5°C | 60.2% | 545.9hPa | 2.7V | 07:43:41 | 02:18:19 | 00:00:00 | |
| DL3AQ-11 | 2026-09-02 11:55:25 | 52.34887 | 8.88996 | 92° | 51km/h | 5077m | -4.0m/s | -12.5°C | 55.9% | 545.7hPa | 2.7V | 00:00:00 | 00:00:00 | 00:00:00 | |
| DL1XH-15 | 2026-09-02 11:55:24 | 52.34890 | 8.88911 | 107° | 35km/h | 5096m | -3.6m/s | -12.6°C | 59% | 544.4hPa | 2.7V | 07:43:10 | 02:18:13 | 00:00:00 | |
| HSKMA3-T | 2026-09-02 11:55:23 | 52.34888 | 8.88975 | 90° | 49km/h | 5081m | -3.9m/s | -12.6°C | 61.6% | 545.5hPa | 2.7V | 07:45:23 | 02:18:17 | 00:00:00 | |
| BIOWL1-15 | 2026-09-02 11:55:21 | 52.34890 | 8.88911 | 107° | 35km/h | 5096m | -3.6m/s | -12.6°C | 61.3% | 544.4hPa | 2.7V | 07:43:41 | 02:18:13 | 00:00:00 | |
| DJ2DS-15 | 2026-09-02 11:55:21 | 52.34888 | 8.88939 | 92° | 47km/h | 5089m | -3.7m/s | -12.5°C | 59.1% | 544.9hPa | 2.7V | 00:00:00 | 02:18:15 | 00:00:00 | |
| DL4XJ-10 | 2026-09-02 11:55:20 | 52.34888 | 8.88924 | 98° | 47km/h | 5092m | -3.7m/s | -13.4°C | 0% | 0hPa | 2.7V | 00:00:00 | 00:00:00 | 00:00:00 | |
| DL1XH1-15 | 2026-09-02 11:55:17 | 52.34926 | 8.88782 | 104° | 60km/h | 5122m | -3.5m/s | -12.8°C | 62.6% | 542.5hPa | 2.7V | 07:43:17 | 02:18:06 | 00:00:00 | |
| DO2JMG | 2026-09-02 11:55:14 | 52.34916 | 8.88827 | 114° | 57km/h | 5115m | -3.7m/s | -12.7°C | 63.8% | 542.9hPa | 2.7V | 07:43:41 | 02:18:08 | 00:00:00 | |
| HSKMA3-T | 2026-09-02 11:55:12 | 52.34926 | 8.88782 | 104° | 60km/h | 5122m | -3.5m/s | -12.8°C | 65.9% | 542.5hPa | 2.7V | 07:45:23 | 02:18:06 | 00:00:00 | |
| DB0DAN | 2026-09-02 11:55:10 | 52.34931 | 8.88734 | 96° | 55km/h | 5129m | -3.5m/s | -12.9°C | 61.6% | 541.98hPa | 2.6V | 00:00:00 | 00:00:00 | 00:00:00 | |
| BIOWL1-15 | 2026-09-02 11:55:08 | 52.34933 | 8.88650 | 94° | 42km/h | 5144m | -3.6m/s | -13°C | 66.6% | 540.9hPa | 2.7V | 07:43:41 | 02:18:00 | 00:00:00 | |
| DM0DOS-11 | 2026-09-02 11:55:08 | 52.34933 | 8.88650 | 93° | 42km/h | 5144m | -3.6m/s | -13°C | 64.3% | 540.9hPa | 2.7V | 07:43:23 | 02:18:00 | 00:00:00 | |
| DL1XH1-15 | 2026-09-02 11:55:07 | 52.34945 | 8.88586 | 116° | 46km/h | 5158m | -3.8m/s | -13.1°C | 64.8% | 540hPa | 2.7V | 07:43:27 | 02:17:56 | 00:00:00 | |
| BIOWL7-15 | 2026-09-02 11:55:05 | 52.34934 | 8.88633 | 100° | 38km/h | 5147m | -3.3m/s | -13.0°C | 62.7% | 540.8hPa | 2.6V | 00:00:00 | 00:00:00 | 00:00:00 | |
| DL1XH-15 | 2026-09-02 11:55:04 | 52.34961 | 8.88526 | 107° | 58km/h | 5168m | -3.3m/s | -13.1°C | 65.7% | 539.3hPa | 2.6V | 07:43:30 | 02:17:53 | 00:00:00 | |
| DL1XH-west | 2026-09-02 11:55:04 | 52.34937 | 8.88618 | 109° | 38km/h | 5151m | -3.3m/s | -13°C | 66.3% | 540.6hPa | 2.6V | 07:43:41 | 02:17:58 | 00:00:00 | |
| HSKMA3-T | 2026-09-02 11:55:00 | 52.34956 | 8.88548 | 112° | 55km/h | 5165m | -3.3m/s | -13.1°C | 68% | 539.5hPa | 2.6V | 07:45:23 | 02:17:54 | 00:00:00 | |
| DL3AQ-11 | 2026-09-02 11:54:58 | 52.34969 | 8.88479 | 104° | 60km/h | 5175m | -3.9m/s | -13.2°C | 64.3% | 538.8hPa | 2.7V | 00:00:00 | 00:00:00 | 00:00:00 | |
| DJ2DS-15 | 2026-09-02 11:54:57 | 52.34969 | 8.88479 | 104° | 60km/h | 5175m | -3.9m/s | -13.2°C | 64.3% | 538.8hPa | 2.7V | 00:00:00 | 00:00:00 | 00:00:00 | |
| DM0DOS-11 | 2026-09-02 11:54:56 | 52.34974 | 8.88455 | 106° | 60km/h | 5179m | -3.6m/s | -13.2°C | 66.3% | 538.4hPa | 2.7V | 07:43:33 | 02:17:50 | 00:00:00 | |
| DL1XH1-15 | 2026-09-02 11:54:55 | 52.34994 | 8.88359 | 110° | 62km/h | 5195m | -4m/s | -13.3°C | 66.6% | 537.3hPa | 2.7V | 07:43:37 | 02:17:46 | 00:00:00 | |
| BIOWL1-15 | 2026-09-02 11:54:55 | 52.34978 | 8.88431 | 108° | 60km/h | 5183m | -4.1m/s | -13.2°C | 69% | 538.2hPa | 2.7V | 07:43:41 | 02:17:49 | 00:00:00 | |
| DL1XH-west | 2026-09-02 11:54:53 | 52.34994 | 8.88359 | 110° | 62km/h | 5195m | -4m/s | -13.3°C | 68.5% | 537.3hPa | 2.7V | 07:43:41 | 02:17:46 | 00:00:00 | |
| DO2JMG | 2026-09-02 11:54:53 | 52.34988 | 8.88383 | 110° | 62km/h | 5191m | -4m/s | -13.3°C | 68.6% | 537.6hPa | 2.6V | 07:43:41 | 02:17:47 | 00:00:00 | |
| BIOWL9-15 | 2026-09-02 11:54:52 | 52.35009 | 8.88284 | 103° | 62km/h | 5208m | -4.4m/s | -13.5°C | 65.3% | 536.4hPa | 2.7V | 00:00:00 | 00:00:00 | 00:00:00 | |
| DM0DOS-11 | 2026-09-02 11:54:51 | 52.35015 | 8.88214 | 93° | 51km/h | 5219m | -3.6m/s | -13.7°C | 68.6% | 535.5hPa | 2.7V | 07:43:43 | 02:17:40 | 00:00:00 | |
| DL1XH-15 | 2026-09-02 11:54:51 | 52.35009 | 8.88284 | 103° | 62km/h | 5208m | -4.4m/s | -13.4°C | 67.1% | 536.4hPa | 2.6V | 07:43:40 | 02:17:43 | 00:00:00 | |
| BIOWL1-15 | 2026-09-02 11:54:45 | 52.35015 | 8.88193 | 93° | 49km/h | 5223m | -3.8m/s | -13.7°C | 70.6% | 535.3hPa | 2.7V | 07:44:32 | 02:17:39 | 00:00:00 | |
| DL3AQ-11 | 2026-09-02 11:54:45 | 52.35016 | 8.88173 | 93° | 47km/h | 5227m | -4.1m/s | -13.8°C | 67.0% | 535.1hPa | 2.7V | 00:00:00 | 00:00:00 | 00:00:00 | |
| DL1XH-15 | 2026-09-02 11:54:44 | 52.35016 | 8.88071 | 87° | 47km/h | 5249m | -4.8m/s | -13.9°C | 69% | 533.6hPa | 2.7V | 07:43:50 | 02:17:33 | 00:00:00 | |
| DL1XH1-15 | 2026-09-02 11:54:43 | 52.35017 | 8.88132 | 90° | 51km/h | 5235m | -4.1m/s | -13.8°C | 69% | 534.5hPa | 2.6V | 07:43:47 | 02:17:36 | 00:00:00 | |
| DO2JMG | 2026-09-02 11:54:42 | 52.35017 | 8.88132 | 90° | 51km/h | 5235m | -4.1m/s | -13.8°C | 72.2% | 534.5hPa | 2.6V | 07:44:32 | 02:17:36 | 00:00:00 | |
| DB0DAN | 2026-09-02 11:54:40 | 52.35017 | 8.88091 | 88° | 47km/h | 5244m | -4.6m/s | -13.9°C | 67.2% | 533.86hPa | 2.7V | 00:00:00 | 00:00:00 | 00:00:00 | |
| DL4XJ-10 | 2026-09-02 11:54:40 | 52.35017 | 8.88090 | 89° | 53km/h | 5244m | -4.5m/s | -14.7°C | 0% | 0hPa | 2.6V | 00:00:00 | 00:00:00 | 00:00:00 | |
| DL1XH1-15 | 2026-09-02 11:54:37 | 52.35040 | 8.87936 | 111° | 62km/h | 5279m | -4.3m/s | -13.9°C | 67.6% | 531.3hPa | 2.6V | 07:43:57 | 02:17:26 | 00:00:00 | |
| AA1-15 | 2026-09-02 11:54:37 | 52.35017 | 8.88034 | 98° | 42km/h | 5258m | -4.3m/s | -13.9°C | 69.6% | 532.7hPa | 2.6V | 07:44:32 | 02:17:31 | 00:00:00 | |
| BIOWL1-15 | 2026-09-02 11:54:34 | 52.35056 | 8.87830 | 96° | 68km/h | 5297m | -4.3m/s | -14.1°C | 68.1% | 530hPa | 2.7V | 07:44:32 | 02:17:22 | 00:00:00 | |
| DL3AQ-11 | 2026-09-02 11:54:34 | 52.35034 | 8.87959 | 113° | 57km/h | 5275m | -4.3m/s | -14.0°C | 66.0% | 531.7hPa | 2.7V | 00:00:00 | 00:00:00 | 00:00:00 | |
| DD8BA-10 | 2026-09-02 11:54:33 | 52.35034 | 8.87959 | 114° | 62km/h | 5275m | -4.3m/s | -13.9°C | 67.9% | 531.6hPa | 2.7V | 00:00:00 | 00:00:00 | 00:00:00 | |
| DL1XH-15 | 2026-09-02 11:54:31 | 52.35054 | 8.87858 | 100° | 69km/h | 5293m | -4.2m/s | -14°C | 65.2% | 530.4hPa | 2.7V | 07:44:00 | 02:17:23 | 00:00:00 | |
| DO2JMG | 2026-09-02 11:54:31 | 52.35045 | 8.87912 | 109° | 66km/h | 5284m | -4.4m/s | -14°C | 68.6% | 531hPa | 2.6V | 07:44:32 | 02:17:25 | 00:00:00 | |
| SONCRA | 2026-09-02 11:54:30 | 52.35054 | 8.87858 | 100° | 68km/h | 5293m | -4.2m/s | -14.0°C | 63.3% | 530.4hPa | 2.7V | 00:00:00 | 00:00:00 | 00:00:00 | |
| DL4BBY-15 | 2026-09-02 11:54:28 | 52.35056 | 8.87830 | 97° | 57km/h | 5297m | -4.3m/s | -14.9°C | 0% | 0hPa | 2.7V | 00:00:00 | 00:00:00 | 00:00:00 | |
| DL1XH1-15 | 2026-09-02 11:54:25 | 52.35059 | 8.87696 | 101° | 44km/h | 5322m | -4.2m/s | -14.2°C | 63.9% | 528.2hPa | 2.7V | 07:44:07 | 02:17:16 | 00:00:00 | |
| DB0DAN | 2026-09-02 11:54:25 | 52.35057 | 8.87754 | 88° | 51km/h | 5310m | -4.1m/s | -14.2°C | 62.2% | 529.16hPa | 2.7V | 00:00:00 | 00:00:00 | 00:00:00 | |
| DL1XH-15 | 2026-09-02 11:54:24 | 52.35071 | 8.87639 | 113° | 55km/h | 5334m | -4.1m/s | -14.3°C | 64.6% | 527.4hPa | 2.7V | 07:44:10 | 02:17:13 | 00:00:00 | |
| AA1-15 | 2026-09-02 11:54:24 | 52.35057 | 8.87733 | 90° | 47km/h | 5314m | -4.1m/s | -14.2°C | 67.1% | 529hPa | 2.7V | 07:44:32 | 02:17:18 | 00:00:00 | |
| DL1XH-west | 2026-09-02 11:54:22 | 52.35059 | 8.87696 | 101° | 44km/h | 5322m | -4.2m/s | -14.2°C | 66.3% | 528.2hPa | 2.7V | 07:44:32 | 02:17:16 | 00:00:00 | |
| DM0DOS-11 | 2026-09-02 11:54:21 | 52.35088 | 8.87569 | 108° | 66km/h | 5347m | -4.2m/s | -14.4°C | 65.4% | 526.6hPa | 2.6V | 07:44:13 | 02:17:10 | 00:00:00 | |
| DO2JMG | 2026-09-02 11:54:20 | 52.35066 | 8.87659 | 112° | 49km/h | 5330m | -4.2m/s | -14.3°C | 65.9% | 527.8hPa | 2.6V | 07:44:32 | 02:17:14 | 00:00:00 | |
| BIOWL1-15 | 2026-09-02 11:54:17 | 52.35083 | 8.87594 | 111° | 64km/h | 5343m | -4.2m/s | -14.4°C | 66.4% | 526.9hPa | 2.7V | 07:44:32 | 02:17:11 | 00:00:00 | |
| DL3OBA | 2026-09-02 11:54:15 | 52.35093 | 8.87542 | 105° | 68km/h | 5351m | -4.2m/s | -14.5°C | 63.8% | 526.4hPa | 2.7V | 00:00:00 | 00:00:00 | 00:00:00 | |
| DD8BA-10 | 2026-09-02 11:54:13 | 52.35099 | 8.87488 | 97° | 55km/h | 5359m | -4.1m/s | -14.5°C | 66.4% | 525.7hPa | 2.7V | 00:00:00 | 00:00:00 | 00:00:00 | |
| DM0DOS-11 | 2026-09-02 11:54:11 | 52.35103 | 8.87325 | 99° | 44km/h | 5388m | -4.2m/s | -14.9°C | 67.7% | 523.8hPa | 2.7V | 07:44:23 | 02:17:00 | 00:00:00 | |
| DL1XH-15 | 2026-09-02 11:54:11 | 52.35101 | 8.87385 | 88° | 55km/h | 5376m | -4.3m/s | -14.8°C | 67.3% | 524.5hPa | 2.6V | 07:44:20 | 02:17:03 | 00:00:00 | |
| DL1XH-west | 2026-09-02 11:54:11 | 52.35101 | 8.87434 | 91° | 62km/h | 5367m | -4.1m/s | -14.7°C | 70.3% | 525.1hPa | 2.7V | 07:44:32 | 02:17:05 | 00:00:00 | |
| DB0DAN | 2026-09-02 11:54:10 | 52.35102 | 8.87409 | 90° | 57km/h | 5371m | -4.3m/s | -14.8°C | 65.1% | 525hPa | 2.6V | 00:00:00 | 00:00:00 | 00:00:00 | |
| DO2JMG | 2026-09-02 11:54:10 | 52.35102 | 8.87409 | 90° | 60km/h | 5371m | -4.3m/s | -14.8°C | 70.6% | 525hPa | 2.6V | 07:44:32 | 02:17:04 | 00:00:00 | |
| AA1-15 | 2026-09-02 11:54:08 | 52.35101 | 8.87363 | 90° | 49km/h | 5380m | -4m/s | -14.9°C | 70.5% | 524.3hPa | 2.7V | 07:44:32 | 02:17:02 | 00:00:00 | |
| BIOWL1-15 | 2026-09-02 11:54:06 | 52.35109 | 8.87289 | 111° | 47km/h | 5396m | -4.1m/s | -14.9°C | 68.8% | 523.2hPa | 2.6V | 07:44:32 | 02:16:58 | 00:00:00 | |
| GOEST3-10 | 2026-09-02 11:54:05 | 52.35105 | 8.87307 | 107° | 53km/h | 5392m | -4.2m/s | -14.8°C | 67.8% | 523.4hPa | 2.6V | 00:00:00 | 00:00:00 | 00:00:00 | |
| DL1XH-15 | 2026-09-02 11:54:04 | 52.35138 | 8.87176 | 106° | 68km/h | 5418m | -4.1m/s | -15.1°C | 69.2% | 521.8hPa | 2.6V | 07:44:30 | 02:16:53 | 00:00:00 | |
| DL1XH1-15 | 2026-09-02 11:54:03 | 52.35120 | 8.87249 | 114° | 58km/h | 5404m | -4.2m/s | -15°C | 68.3% | 522.6hPa | 2.7V | 07:44:27 | 02:16:56 | 00:00:00 | |
| DL1XH-west | 2026-09-02 11:54:01 | 52.35126 | 8.87227 | 113° | 62km/h | 5409m | -4.3m/s | -15°C | 68.8% | 522.3hPa | 2.7V | 07:44:32 | 02:16:55 | 00:00:00 | |
| DO2JMG | 2026-09-02 11:53:59 | 52.35138 | 8.87176 | 106° | 68km/h | 5418m | -4.1m/s | -15.1°C | 70.1% | 521.8hPa | 2.6V | 07:44:32 | 02:16:53 | 00:00:00 | |
| AA1-15 | 2026-09-02 11:53:56 | 52.35147 | 8.87093 | 94° | 66km/h | 5430m | -4.2m/s | -15.3°C | 72.5% | 521hPa | 2.7V | 07:45:23 | 02:16:50 | 00:00:00 | |
| DB0DAN | 2026-09-02 11:53:55 | 52.35148 | 8.87067 | 92° | 60km/h | 5434m | -4.1m/s | -15.3°C | 67.8% | 520.57hPa | 2.7V | 00:00:00 | 00:00:00 | 00:00:00 | |
| GOEST3-10 | 2026-09-02 11:53:55 | 52.35147 | 8.87067 | 92° | 55km/h | 5434m | -4.0m/s | -15.3°C | 69.9% | 520.5hPa | 2.7V | 07:44:00 | 00:00:00 | 00:00:00 | |
| DL1XH1-15 | 2026-09-02 11:53:53 | 52.35147 | 8.86996 | 90° | 51km/h | 5446m | -4.2m/s | -15.4°C | 70.1% | 519.8hPa | 2.7V | 07:44:37 | 02:16:46 | 00:00:00 | |
| BUE01 | 2026-09-02 11:53:52 | 52.35147 | 8.86996 | 90° | 49km/h | 5446m | -4.2m/s | -15.5°C | 68.0% | 519.8hPa | 2.6V | 00:00:00 | 00:00:00 | 00:00:00 | |
| DL1XH-15 | 2026-09-02 11:53:51 | 52.35152 | 8.86940 | 106° | 46km/h | 5459m | -4.2m/s | -15.5°C | 70.3% | 518.9hPa | 2.6V | 07:44:40 | 02:16:43 | 00:00:00 | |
| DL1XH-west | 2026-09-02 11:53:51 | 52.35148 | 8.86976 | 94° | 46km/h | 5450m | -4.1m/s | -15.5°C | 72.3% | 519.5hPa | 2.7V | 07:45:23 | 02:16:45 | 00:00:00 | |
| DO2JMG | 2026-09-02 11:53:48 | 52.35156 | 8.86922 | 112° | 47km/h | 5463m | -3.9m/s | -15.5°C | 71.2% | 518.5hPa | 2.6V | 07:45:23 | 02:16:42 | 00:00:00 | |
| DL1XH1-15 | 2026-09-02 11:53:47 | 52.35188 | 8.86781 | 102° | 69km/h | 5487m | -4m/s | -15.8°C | 72.5% | 516.9hPa | 2.6V | 07:44:47 | 02:16:36 | 00:00:00 | |
| BIOWL1-15 | 2026-09-02 11:53:45 | 52.35173 | 8.86859 | 113° | 62km/h | 5475m | -4m/s | -15.6°C | 71.8% | 517.7hPa | 2.7V | 07:45:23 | 02:16:39 | 00:00:00 | |
| AA1-15 | 2026-09-02 11:53:44 | 52.35179 | 8.86835 | 110° | 66km/h | 5479m | -4.1m/s | -15.7°C | 72.2% | 517.5hPa | 2.7V | 07:45:23 | 02:16:38 | 00:00:00 | |
| DL1XH-15 | 2026-09-02 11:53:44 | 52.35194 | 8.86700 | 91° | 62km/h | 5499m | -3.9m/s | -15.9°C | 73.1% | 516hPa | 2.7V | 07:44:50 | 02:16:33 | 00:00:00 | |
| DD8BA-10 | 2026-09-02 11:53:43 | 52.35184 | 8.86808 | 107° | 58km/h | 5483m | -3.8m/s | -15.7°C | 72.2% | 517.2hPa | 2.7V | 00:00:00 | 00:00:00 | 00:00:00 | |
| DM0DOS-11 | 2026-09-02 11:53:41 | 52.35194 | 8.86631 | 91° | 49km/h | 5511m | -4.2m/s | -16.1°C | 73.3% | 515.3hPa | 2.7V | 07:44:53 | 02:16:30 | 00:00:00 | |
| DB0DAN | 2026-09-02 11:53:40 | 52.35194 | 8.86726 | 95° | 62km/h | 5495m | -4.2m/s | -15.9°C | 70.7% | 516.3hPa | 2.7V | 00:00:00 | 00:00:00 | 00:00:00 | |
| DL1XH-west | 2026-09-02 11:53:40 | 52.35194 | 8.86726 | 95° | 66km/h | 5495m | -4.2m/s | -15.9°C | 75% | 516.3hPa | 2.7V | 07:45:23 | 02:16:34 | 00:00:00 | |
| DO2JMG | 2026-09-02 11:53:38 | 52.35195 | 8.86675 | 90° | 58km/h | 5503m | -4.2m/s | -16°C | 75.8% | 515.9hPa | 2.6V | 07:45:23 | 02:16:32 | 00:00:00 | |
| DL3AQ-11 | 2026-09-02 11:53:37 | 52.35194 | 8.86652 | 89° | 53km/h | 5507m | -4.1m/s | -16.0°C | 71.0% | 515.5hPa | 2.6V | 00:00:00 | 00:00:00 | 00:00:00 | |
| DL1XH1-15 | 2026-09-02 11:53:35 | 52.35204 | 8.86558 | 112° | 47km/h | 5528m | -4.2m/s | -16.1°C | 73.6% | 514.2hPa | 2.6V | 07:44:57 | 02:16:26 | 00:00:00 | |
| BIOWL1-15 | 2026-09-02 11:53:35 | 52.35242 | 8.86361 | 96° | 68km/h | 5560m | -4.1m/s | -16.5°C | 77.2% | 511.9hPa | 2.7V | 07:45:23 | 02:16:18 | 00:00:00 | |
| DL3OBA | 2026-09-02 11:53:33 | 52.35200 | 8.86575 | 109° | 46km/h | 5524m | -4.0m/s | -16.1°C | 71.2% | 514.5hPa | 2.7V | 07:45:00 | 00:00:00 | 00:00:00 | |
| DL1XH-15 | 2026-09-02 11:53:31 | 52.35221 | 8.86495 | 112° | 62km/h | 5540m | -4.1m/s | -16.2°C | 74.6% | 513.3hPa | 2.7V | 07:45:00 | 02:16:23 | 00:00:00 | |
| DM0DOS-11 | 2026-09-02 11:53:31 | 52.35236 | 8.86416 | 102° | 69km/h | 5552m | -4.1m/s | -16.4°C | 75.4% | 512.5hPa | 2.6V | 07:45:03 | 02:16:20 | 00:00:00 | |
| DL1XH-west | 2026-09-02 11:53:30 | 52.35215 | 8.86518 | 115° | 58km/h | 5536m | -4m/s | -16.2°C | 73.5% | 513.5hPa | 2.7V | 07:45:23 | 02:16:24 | 00:00:00 | |
| DO2JMG | 2026-09-02 11:53:28 | 52.35227 | 8.86470 | 109° | 66km/h | 5544m | -4m/s | -16.3°C | 74.4% | 513.1hPa | 2.7V | 07:45:23 | 02:16:22 | 00:00:00 | |
| SONCRA | 2026-09-02 11:53:28 | 52.35232 | 8.86444 | 105° | 68km/h | 5548m | -4.1m/s | -16.3°C | 73.0% | 512.8hPa | 2.7V | 00:00:00 | 00:00:00 | 00:00:00 | |
| DB0DAN | 2026-09-02 11:53:25 | 52.35239 | 8.86388 | 100° | 66km/h | 5556m | -4.2m/s | -16.4°C | 73.3% | 512.21hPa | 2.7V | 00:00:00 | 00:00:00 | 00:00:00 | |
| DL3AQ-11 | 2026-09-02 11:53:25 | 52.35242 | 8.86361 | 96° | 66km/h | 5560m | -4.1m/s | -16.5°C | 73.6% | 511.9hPa | 2.6V | 00:00:00 | 00:00:00 | 00:00:00 | |
| DL1XH-15 | 2026-09-02 11:53:24 | 52.35244 | 8.86244 | 95° | 46km/h | 5581m | -4.3m/s | -16.7°C | 76.3% | 510.5hPa | 2.6V | 07:45:10 | 02:16:13 | 00:00:00 | |
| DD8BA-10 | 2026-09-02 11:53:23 | 52.35243 | 8.86334 | 94° | 51km/h | 5564m | -4.0m/s | -16.5°C | 76.0% | 511.5hPa | 2.7V | 00:00:00 | 00:00:00 | 00:00:00 | |
| DJ2DS-15 | 2026-09-02 11:53:21 | 52.35244 | 8.86285 | 90° | 55km/h | 5572m | -3.9m/s | -16.6°C | 76.2% | 511.0hPa | 2.7V | 07:45:00 | 02:16:15 | 00:00:00 | |
| DM0DOS-11 | 2026-09-02 11:53:20 | 52.35253 | 8.86191 | 113° | 47km/h | 5593m | -4.1m/s | -16.7°C | 76.5% | 509.6hPa | 2.7V | 07:45:13 | 02:16:10 | 00:00:00 | |
| DL1XH-west | 2026-09-02 11:53:19 | 52.35244 | 8.86244 | 96° | 46km/h | 5581m | -4.3m/s | -16.7°C | 76.7% | 510.5hPa | 2.6V | 07:45:23 | 02:16:13 | 00:00:00 | |
| AA1-15 | 2026-09-02 11:53:18 | 52.35246 | 8.86226 | 101° | 44km/h | 5585m | -4.3m/s | -16.7°C | 76% | 510.2hPa | 2.7V | 07:45:23 | 02:16:12 | 00:00:00 | |
| BIOWL1-15 | 2026-09-02 11:53:17 | 52.35249 | 8.86209 | 108° | 44km/h | 5589m | -4.1m/s | -16.7°C | 75.5% | 510hPa | 2.7V | 07:45:23 | 02:16:11 | 00:00:00 | |
| GOEST3-10 | 2026-09-02 11:53:15 | 52.35258 | 8.86172 | 116° | 62km/h | 5597m | -4.1m/s | -16.7°C | 76.9% | 509.4hPa | 2.7V | 07:45:00 | 00:00:00 | 00:00:00 | |
| DL3AQ-11 | 2026-09-02 11:53:14 | 52.35270 | 8.86129 | 112° | 62km/h | 5605m | -4.2m/s | -16.8°C | 74.6% | 508.9hPa | 2.7V | 00:00:00 | 00:00:00 | 00:00:00 | |
| DD8BA-10 | 2026-09-02 11:53:13 | 52.35270 | 8.86129 | 113° | 60km/h | 5606m | -4.1m/s | -16.8°C | 77.0% | 508.8hPa | 2.7V | 00:00:00 | 00:00:00 | 00:00:00 | |
| DL3OBA | 2026-09-02 11:53:12 | 52.35270 | 8.86129 | 114° | 62km/h | 5606m | -4.2m/s | -16.8°C | 74.6% | 508.9hPa | 2.7V | 07:45:00 | 00:00:00 | 00:00:00 | |
| DL1XH-15 | 2026-09-02 11:53:11 | 52.35287 | 8.86024 | 96° | 64km/h | 5621m | -4m/s | -17°C | 77.7% | 507.7hPa | 2.7V | 07:45:20 | 02:16:03 | 00:00:00 | |
| DB0DAN | 2026-09-02 11:53:10 | 52.35285 | 8.86050 | 100° | 64km/h | 5618m | -3.9m/s | -17°C | 75.1% | 508.05hPa | 2.7V | 00:00:00 | 00:00:00 | 00:00:00 | |
| DL1XH-west | 2026-09-02 11:53:08 | 52.35288 | 8.85998 | 93° | 60km/h | 5625m | -3.9m/s | -17.1°C | 79.2% | 507.4hPa | 2.6V | 07:45:23 | 02:16:02 | 00:00:00 | |
| DO2JMG | 2026-09-02 11:53:07 | 52.35289 | 8.85973 | 91° | 57km/h | 5629m | -3.9m/s | -17.2°C | 79.4% | 507.1hPa | 2.6V | 07:45:23 | 02:16:01 | 00:00:00 | |
| DM0DOS-11 | 2026-09-02 11:53:07 | 52.35289 | 8.85951 | 90° | 53km/h | 5633m | -4m/s | -17.2°C | 77.9% | 506.9hPa | 2.6V | 07:45:23 | 02:16:00 | 00:00:00 | |
| BIOWL1-15 | 2026-09-02 11:53:06 | 52.35289 | 8.85909 | 92° | 47km/h | 5642m | -4.3m/s | -17.3°C | 77.6% | 506.3hPa | 2.7V | 07:46:14 | 02:15:58 | 00:00:00 | |
| HSKMA3-T | 2026-09-02 11:53:06 | 52.35289 | 8.85951 | 90° | 53km/h | 5633m | -4.1m/s | -17.2°C | 79.4% | 506.9hPa | 2.6V | 07:45:23 | 02:16:00 | 00:00:00 | |
| GOEST3-10 | 2026-09-02 11:53:05 | 52.35289 | 8.85929 | 91° | 47km/h | 5637m | -4.1m/s | -17.2°C | 77.4% | 506.5hPa | 2.7V | 00:00:00 | 00:00:00 | 00:00:00 | |
| DL1XH-15 | 2026-09-02 11:53:04 | 52.35303 | 8.85818 | 114° | 51km/h | 5662m | -4m/s | -17.3°C | 76.9% | 505hPa | 2.7V | 07:45:30 | 02:15:53 | 00:00:00 | |
| DD8BA-10 | 2026-09-02 11:53:03 | 52.35290 | 8.85890 | 96° | 55km/h | 5646m | -4.1m/s | -17.2°C | 76.5% | 506.1hPa | 2.7V | 07:45:00 | 00:00:00 | 00:00:00 | |
| DM0DOS-11 | 2026-09-02 11:53:01 | 52.35322 | 8.85753 | 112° | 64km/h | 5675m | -4.5m/s | -17.4°C | 77.2% | 504hPa | 2.7V | 07:45:33 | 02:15:50 | 00:00:00 | |
| DL1XH-west | 2026-09-02 11:52:57 | 52.35316 | 8.85776 | 115° | 60km/h | 5670m | -4.4m/s | -17.4°C | 75.5% | 504.4hPa | 2.7V | 07:46:14 | 02:15:51 | 00:00:00 | |
| DO2JMG | 2026-09-02 11:52:56 | 52.35322 | 8.85753 | 112° | 64km/h | 5675m | -4.5m/s | -17.4°C | 76.1% | 504hPa | 2.7V | 07:46:14 | 02:15:50 | 00:00:00 | |
| AA1-15 | 2026-09-02 11:52:55 | 52.35328 | 8.85728 | 109° | 68km/h | 5679m | -4.4m/s | -17.5°C | 76.2% | 503.8hPa | 2.6V | 07:46:14 | 02:15:49 | 00:00:00 | |
| GOEST3-10 | 2026-09-02 11:52:55 | 52.35327 | 8.85727 | 110° | 68km/h | 5680m | -4.4m/s | -17.4°C | 76.7% | 503.7hPa | 2.7V | 00:00:00 | 00:00:00 | 00:00:00 | |
| DD8BA-10 | 2026-09-02 11:52:53 | 52.35336 | 8.85673 | 100° | 55km/h | 5688m | -4.4m/s | -17.5°C | 73.3% | 503.2hPa | 2.7V | 00:00:00 | 00:00:00 | 00:00:00 | |
| DL3OBA | 2026-09-02 11:52:52 | 52.35336 | 8.85673 | 101° | 69km/h | 5688m | -4.5m/s | -17.5°C | 71.0% | 503.2hPa | 2.7V | 07:46:00 | 00:00:00 | 00:00:00 | |
| DM0DOS-11 | 2026-09-02 11:52:51 | 52.35344 | 8.85516 | 107° | 44km/h | 5717m | -4.1m/s | -17.7°C | 71.9% | 501.3hPa | 2.7V | 07:45:43 | 02:15:40 | 00:00:00 | |
| DL1XH-west | 2026-09-02 11:52:47 | 52.35341 | 8.85533 | 100° | 44km/h | 5713m | -4.1m/s | -17.7°C | 71.8% | 501.5hPa | 2.6V | 07:46:14 | 02:15:41 | 00:00:00 | |
| DO2JMG | 2026-09-02 11:52:46 | 52.35343 | 8.85516 | 108° | 44km/h | 5717m | -4.1m/s | -17.7°C | 71.1% | 501.3hPa | 2.7V | 07:46:14 | 02:15:40 | 00:00:00 | |
| BIOWL1-15 | 2026-09-02 11:52:45 | 52.35348 | 8.85498 | 113° | 49km/h | 5722m | -4.2m/s | -17.7°C | 70.8% | 500.9hPa | 2.7V | 07:46:14 | 02:15:39 | 00:00:00 | |
| AA1-15 | 2026-09-02 11:52:44 | 52.35353 | 8.85478 | 114° | 55km/h | 5726m | -4.1m/s | -17.7°C | 71% | 500.8hPa | 2.7V | 07:46:14 | 02:15:38 | 00:00:00 | |
| DL1XH-15 | 2026-09-02 11:52:44 | 52.35376 | 8.85351 | 97° | 68km/h | 5746m | -4m/s | -17.9°C | 73.1% | 499.4hPa | 2.7V | 07:45:50 | 02:15:33 | 00:00:00 | |
| DF5WG-10 | 2026-09-02 11:52:44 | 52.35353 | 8.85478 | 114° | 62km/h | 5726m | -4.0m/s | -17.7°C | 72.5% | 500.7hPa | 2.7V | 00:00:00 | 02:15:38 | 00:00:00 | |
| DD8BA-10 | 2026-09-02 11:52:43 | 52.35358 | 8.85456 | 113° | 62km/h | 5730m | -3.9m/s | -17.7°C | 72.8% | 500.5hPa | 2.7V | 00:00:00 | 00:00:00 | 00:00:00 | |
| DM0DOS-11 | 2026-09-02 11:52:41 | 52.35379 | 8.85272 | 88° | 58km/h | 5759m | -4m/s | -18.1°C | 73.2% | 498.5hPa | 2.7V | 07:45:53 | 02:15:30 | 00:00:00 | |
| BIOWL1-15 | 2026-09-02 11:52:37 | 52.35378 | 8.85249 | 89° | 53km/h | 5763m | -3.9m/s | -18.2°C | 74.6% | 498.3hPa | 2.7V | 07:46:14 | 02:15:29 | 00:00:00 | |
| DO2JMG | 2026-09-02 11:52:36 | 52.35379 | 8.85272 | 89° | 58km/h | 5759m | -4m/s | -18.1°C | 74.9% | 498.5hPa | 2.7V | 07:46:14 | 02:15:30 | 00:00:00 | |
| AA1-15 | 2026-09-02 11:52:33 | 52.35378 | 8.85209 | 94° | 46km/h | 5771m | -4m/s | -18.2°C | 73.3% | 497.7hPa | 2.7V | 07:46:14 | 02:15:27 | 00:00:00 | |
| DL1XH1-15 | 2026-09-02 11:52:32 | 52.35379 | 8.85191 | 98° | 44km/h | 5775m | -4.2m/s | -18.2°C | 72.4% | 497.5hPa | 2.6V | 07:45:57 | 02:15:26 | 00:00:00 | |
| DL3OBA | 2026-09-02 11:52:32 | 52.35379 | 8.85190 | 99° | 44km/h | 5775m | -4.2m/s | -18.2°C | 70.0% | 497.5hPa | 2.6V | 07:46:00 | 00:00:00 | 00:00:00 | |
| GOEST3-10 | 2026-09-02 11:52:30 | 52.35384 | 8.85155 | 109° | 53km/h | 5783m | -4.1m/s | -18.2°C | 72.0% | 496.9hPa | 2.6V | 00:00:00 | 02:15:24 | 00:00:00 | |
| DC6BW-12 | 2026-09-02 11:52:29 | 52.35385 | 8.85155 | 109° | 46km/h | 5783m | -4.1m/s | -18.2°C | 69.6% | 497.0hPa | 2.7V | 07:46:00 | 00:00:00 | 00:00:00 | |
| DL1XH1-15 | 2026-09-02 11:52:27 | 52.35423 | 8.84967 | 98° | 69km/h | 5816m | -4.2m/s | -18.6°C | 72% | 494.7hPa | 2.7V | 07:46:07 | 02:15:16 | 00:00:00 | |
| DO2JMG | 2026-09-02 11:52:26 | 52.35405 | 8.85074 | 112° | 62km/h | 5799m | -4.1m/s | -18.4°C | 71% | 495.9hPa | 2.7V | 07:46:14 | 02:15:20 | 00:00:00 | |
| DL1XH-west | 2026-09-02 11:52:25 | 52.35411 | 8.85049 | 109° | 66km/h | 5803m | -4.2m/s | -18.4°C | 71.6% | 495.6hPa | 2.6V | 07:46:14 | 02:15:19 | 00:00:00 | |
| DB0DAN | 2026-09-02 11:52:25 | 52.35411 | 8.85049 | 109° | 62km/h | 5803m | -4.2m/s | -18.4°C | 70.1% | 495.59hPa | 2.6V | 00:00:00 | 00:00:00 | 00:00:00 | |
| BIOWL1-15 | 2026-09-02 11:52:24 | 52.35416 | 8.85023 | 106° | 68km/h | 5807m | -4.2m/s | -18.5°C | 72.2% | 495.3hPa | 2.6V | 07:46:14 | 02:15:18 | 00:00:00 | |
| AA1-15 | 2026-09-02 11:52:22 | 52.35423 | 8.84967 | 98° | 69km/h | 5816m | -4.2m/s | -18.6°C | 72.8% | 494.7hPa | 2.7V | 07:46:14 | 02:15:16 | 00:00:00 | |
| DF5WG-10 | 2026-09-02 11:52:22 | 52.35423 | 8.84967 | 99° | 55km/h | 5816m | -4.2m/s | -18.5°C | 72.0% | 494.7hPa | 2.7V | 00:00:00 | 02:15:16 | 00:00:00 | |
| DJ2DS-15 | 2026-09-02 11:52:21 | 52.35425 | 8.84940 | 95° | 58km/h | 5820m | -4.2m/s | -18.6°C | 71.9% | 494.3hPa | 2.7V | 00:00:00 | 02:15:15 | 00:00:00 | |
| DL4XJ-10 | 2026-09-02 11:52:20 | 52.35426 | 8.84912 | 92° | 58km/h | 5824m | -4.1m/s | -19.5°C | 0% | 0hPa | 2.7V | 00:00:00 | 00:00:00 | 00:00:00 | |
| BUE01 | 2026-09-02 11:52:19 | 52.35425 | 8.84865 | 88° | 51km/h | 5832m | -3.7m/s | -18.7°C | 68.6% | 493.6hPa | 2.7V | 00:00:00 | 00:00:00 | 00:00:00 | |
| DL3AQ-11 | 2026-09-02 11:52:18 | 52.35426 | 8.84845 | 92° | 46km/h | 5836m | -3.9m/s | -18.8°C | 68.4% | 493.4hPa | 2.7V | 00:00:00 | 00:00:00 | 00:00:00 | |
| DL1XH1-15 | 2026-09-02 11:52:17 | 52.35440 | 8.84754 | 110° | 55km/h | 5857m | -3.8m/s | -18.9°C | 70.8% | 491.9hPa | 2.7V | 07:46:17 | 02:15:06 | 00:00:00 | |
| DO2JMG | 2026-09-02 11:52:15 | 52.35429 | 8.84809 | 104° | 42km/h | 5844m | -4.4m/s | -18.8°C | 70.9% | 492.9hPa | 2.6V | 07:46:14 | 02:15:09 | 00:00:00 | |
| DL1XH-west | 2026-09-02 11:52:14 | 52.35432 | 8.84792 | 108° | 46km/h | 5849m | -4.4m/s | -18.8°C | 70.2% | 492.6hPa | 2.6V | 07:47:05 | 02:15:08 | 00:00:00 | |
| BIOWL1-15 | 2026-09-02 11:52:13 | 52.35436 | 8.84774 | 111° | 49km/h | 5853m | -4.1m/s | -18.8°C | 69.8% | 492.2hPa | 2.7V | 07:47:05 | 02:15:07 | 00:00:00 | |
| AA1-15 | 2026-09-02 11:52:11 | 52.35445 | 8.84731 | 109° | 60km/h | 5860m | -3.8m/s | -18.9°C | 69.5% | 491.9hPa | 2.7V | 07:47:05 | 02:15:05 | 00:00:00 | |
| DL1XH-15 | 2026-09-02 11:52:11 | 52.35455 | 8.84682 | 106° | 64km/h | 5868m | -4m/s | -19°C | 70% | 491.2hPa | 2.6V | 07:46:20 | 02:15:03 | 00:00:00 | |
| DB0DAN | 2026-09-02 11:52:10 | 52.35450 | 8.84707 | 107° | 60km/h | 5864m | -3.8m/s | -19°C | 67.6% | 491.42hPa | 2.6V | 00:00:00 | 00:00:00 | 00:00:00 | |
| HSKMA3-T | 2026-09-02 11:52:10 | 52.35450 | 8.84707 | 107° | 64km/h | 5864m | -3.8m/s | -19°C | 69.4% | 491.4hPa | 2.6V | 07:47:05 | 02:15:04 | 00:00:00 | |
| GOEST3-10 | 2026-09-02 11:52:10 | 52.35450 | 8.84707 | 108° | 64km/h | 5864m | -3.7m/s | -18.9°C | 69.9% | 491.4hPa | 2.7V | 00:00:00 | 02:15:04 | 00:00:00 | |
| DL1LOL-11 | 2026-09-02 11:52:09 | 52.35450 | 8.84707 | 108° | 64km/h | 5864m | -3.8m/s | -19.0°C | 67.6% | 491.4hPa | 2.7V | 00:00:00 | 00:00:00 | 00:00:00 | |
| DL1XH1-15 | 2026-09-02 11:52:07 | 52.35493 | 8.84510 | 106° | 66km/h | 5897m | -4.1m/s | -19.1°C | 68% | 489.4hPa | 2.7V | 07:46:27 | 02:14:56 | 00:00:00 | |
| DM0DOS-11 | 2026-09-02 11:52:07 | 52.35470 | 8.84608 | 111° | 62km/h | 5880m | -4m/s | -19°C | 70.7% | 490.6hPa | 2.7V | 07:46:23 | 02:15:00 | 00:00:00 | |
| DO2JMG | 2026-09-02 11:52:05 | 52.35476 | 8.84584 | 113° | 62km/h | 5884m | -4.2m/s | -19.1°C | 68.7% | 490.1hPa | 2.6V | 07:47:05 | 02:14:59 | 00:00:00 | |
| GOEST3-10 | 2026-09-02 11:52:05 | 52.35476 | 8.84584 | 113° | 64km/h | 5884m | -4.1m/s | -19.0°C | 70.0% | 490.1hPa | 2.6V | 00:00:00 | 00:00:00 | 00:00:00 | |
| DL1XH-15 | 2026-09-02 11:52:04 | 52.35502 | 8.84431 | 95° | 62km/h | 5908m | -3.9m/s | -19.3°C | 67.1% | 488.6hPa | 2.6V | 07:46:30 | 02:14:53 | 00:00:00 | |
| BIOWL1-15 | 2026-09-02 11:52:03 | 52.35502 | 8.84431 | 96° | 62km/h | 5908m | -3.9m/s | -19.3°C | 66% | 488.6hPa | 2.6V | 07:47:05 | 02:14:53 | 00:00:00 | |
| DL1XH-west | 2026-09-02 11:52:03 | 52.35488 | 8.84535 | 110° | 64km/h | 5893m | -4.2m/s | -19.1°C | 67% | 489.6hPa | 2.7V | 07:47:05 | 02:14:57 | 00:00:00 | |
| DD8BA-10 | 2026-09-02 11:52:03 | 52.35488 | 8.84535 | 111° | 62km/h | 5893m | -4.2m/s | -19.1°C | 68.9% | 489.6hPa | 2.7V | 00:00:00 | 00:00:00 | 00:00:00 | |
| DM0DOS-11 | 2026-09-02 11:52:01 | 52.35506 | 8.84355 | 94° | 60km/h | 5920m | -3.8m/s | -19.4°C | 65.7% | 487.8hPa | 2.7V | 07:46:33 | 02:14:50 | 00:00:00 | |
| HSKMA3-T | 2026-09-02 11:52:00 | 52.35500 | 8.84457 | 99° | 64km/h | 5904m | -3.7m/s | -19.3°C | 66.3% | 488.8hPa | 2.6V | 07:47:05 | 02:14:54 | 00:00:00 | |
| DJ2DS-15 | 2026-09-02 11:51:57 | 52.35505 | 8.84380 | 93° | 58km/h | 5916m | -3.8m/s | -19.4°C | 63.7% | 488.2hPa | 2.7V | 00:00:00 | 00:00:00 | 00:00:00 | |
| DL1XH1-15 | 2026-09-02 11:51:56 | 52.35511 | 8.84256 | 94° | 60km/h | 5935m | -4.1m/s | -19.5°C | 64.9% | 486.8hPa | 2.7V | 07:46:37 | 02:14:46 | 00:00:00 | |
| DO2JMG | 2026-09-02 11:51:55 | 52.35507 | 8.84330 | 95° | 60km/h | 5923m | -3.9m/s | -19.4°C | 65.7% | 487.6hPa | 2.6V | 07:47:05 | 02:14:49 | 00:00:00 | |
| DL1XH-west | 2026-09-02 11:51:52 | 52.35511 | 8.84256 | 95° | 60km/h | 5935m | -4.1m/s | -19.5°C | 65.4% | 486.8hPa | 2.7V | 07:47:05 | 02:14:46 | 00:00:00 | |
| DF5WG-10 | 2026-09-02 11:51:51 | 52.35512 | 8.84230 | 96° | 64km/h | 5939m | -3.8m/s | -19.4°C | 63.4% | 486.5hPa | 2.7V | 00:00:00 | 02:14:45 | 00:00:00 | |
| DM0DOS-11 | 2026-09-02 11:51:50 | 52.35521 | 8.84099 | 100° | 68km/h | 5959m | -4.1m/s | -19.4°C | 60% | 485.3hPa | 2.7V | 07:46:43 | 02:14:40 | 00:00:00 | |
| AA1-15 | 2026-09-02 11:51:49 | 52.35515 | 8.84179 | 95° | 64km/h | 5947m | -4m/s | -19.4°C | 61.6% | 486.1hPa | 2.6V | 07:47:05 | 02:14:43 | 00:00:00 | |
| BIOWL1-15 | 2026-09-02 11:51:48 | 52.35517 | 8.84153 | 96° | 66km/h | 5951m | -4m/s | -19.4°C | 60.8% | 485.8hPa | 2.7V | 07:47:05 | 02:14:42 | 00:00:00 | |
| BUE01 | 2026-09-02 11:51:48 | 52.35519 | 8.84126 | 97° | 66km/h | 5955m | -4.0m/s | -19.4°C | 57.7% | 485.6hPa | 2.7V | 00:00:00 | 00:00:00 | 00:00:00 | |
| BIOWL9-15 | 2026-09-02 11:51:46 | 52.35521 | 8.84098 | 100° | 66km/h | 5959m | -4.1m/s | -19.4°C | 57.9% | 485.3hPa | 2.7V | 00:00:00 | 00:00:00 | 00:00:00 | |
| DL1XH1-15 | 2026-09-02 11:51:45 | 52.35539 | 8.83997 | 111° | 58km/h | 5975m | -3.9m/s | -19.5°C | 60.2% | 484.2hPa | 2.7V | 07:46:47 | 02:14:36 | 00:00:00 | |
| DO2JMG | 2026-09-02 11:51:44 | 52.35529 | 8.84045 | 106° | 64km/h | 5967m | -4.2m/s | -19.5°C | 59.7% | 484.8hPa | 2.6V | 07:47:05 | 02:14:38 | 00:00:00 | |
| DL1XH-west | 2026-09-02 11:51:41 | 52.35545 | 8.83975 | 115° | 57km/h | 5979m | -4.1m/s | -19.5°C | 58.9% | 484hPa | 2.7V | 07:47:05 | 02:14:35 | 00:00:00 | |
| DB0DAN | 2026-09-02 11:51:40 | 52.35551 | 8.83954 | 116° | 53km/h | 5983m | -4.2m/s | -19.5°C | 57.2% | 483.66hPa | 2.6V | 00:00:00 | 00:00:00 | 00:00:00 | |
| HSKMA3-T | 2026-09-02 11:51:39 | 52.35557 | 8.83933 | 116° | 58km/h | 5987m | -4.4m/s | -19.5°C | 57.6% | 483.5hPa | 2.6V | 07:47:05 | 02:14:33 | 00:00:00 | |
| DM0DOS-11 | 2026-09-02 11:51:39 | 52.35575 | 8.83861 | 106° | 66km/h | 6000m | -4.1m/s | -19.5°C | 56.6% | 482.6hPa | 2.7V | 07:46:53 | 02:14:30 | 00:00:00 | |
| AA1-15 | 2026-09-02 11:51:39 | 52.35564 | 8.83911 | 115° | 60km/h | 5992m | -4.3m/s | -19.5°C | 56.6% | 483.1hPa | 2.7V | 07:47:05 | 02:14:32 | 00:00:00 | |
| BIOWL1-15 | 2026-09-02 11:51:37 | 52.35585 | 8.83733 | 92° | 55km/h | 6020m | -4m/s | -19.8°C | 57% | 481.4hPa | 2.7V | 07:47:05 | 02:14:25 | 00:00:00 | |
| DO2JMG | 2026-09-02 11:51:33 | 52.35584 | 8.83781 | 94° | 62km/h | 6012m | -4.1m/s | -19.7°C | 57.7% | 481.9hPa | 2.7V | 07:47:05 | 02:14:27 | 00:00:00 | |
| DD8BA-10 | 2026-09-02 11:51:33 | 52.35584 | 8.83781 | 95° | 49km/h | 6012m | -4.0m/s | -19.6°C | 56.2% | 481.8hPa | 2.7V | 00:00:00 | 00:00:00 | 00:00:00 | |
| DL1XH-15 | 2026-09-02 11:51:32 | 52.35587 | 8.83692 | 95° | 46km/h | 6028m | -3.7m/s | -19.8°C | 54.6% | 480.8hPa | 2.6V | 07:47:00 | 02:14:23 | 00:00:00 | |
| HSKMA3-T | 2026-09-02 11:51:29 | 52.35587 | 8.83691 | 96° | 46km/h | 6028m | -3.7m/s | -19.8°C | 56% | 480.8hPa | 2.6V | 07:47:05 | 02:14:23 | 00:00:00 | |
| GOEST3-10 | 2026-09-02 11:51:29 | 52.35586 | 8.83691 | 96° | 44km/h | 6028m | -3.7m/s | -19.7°C | 54.6% | 480.8hPa | 2.6V | 00:00:00 | 02:14:23 | 00:00:00 | |
| DM0DOS-11 | 2026-09-02 11:51:28 | 52.35593 | 8.83639 | 109° | 42km/h | 6040m | -4.2m/s | -19.8°C | 53.5% | 480.1hPa | 2.7V | 07:47:03 | 02:14:20 | 00:00:00 | |
| AA1-15 | 2026-09-02 11:51:28 | 52.35590 | 8.83656 | 105° | 42km/h | 6036m | -4m/s | -19.8°C | 54.6% | 480.4hPa | 2.7V | 07:47:05 | 02:14:21 | 00:00:00 | |
| DC6BW-12 | 2026-09-02 11:51:27 | 52.35590 | 8.83656 | 106° | 42km/h | 6036m | -4.0m/s | -19.8°C | 51.7% | 480.4hPa | 2.6V | 07:47:00 | 00:00:00 | 00:00:00 | |
| DB0DAN | 2026-09-02 11:51:25 | 52.35598 | 8.83622 | 115° | 44km/h | 6044m | -4.2m/s | -19.8°C | 51.3% | 479.76hPa | 2.6V | 00:00:00 | 00:00:00 | 00:00:00 | |
| DL1LOL-11 | 2026-09-02 11:51:25 | 52.35597 | 8.83622 | 116° | 46km/h | 6044m | -4.2m/s | -19.8°C | 51.3% | 479.8hPa | 2.6V | 00:00:00 | 00:00:00 | 00:00:00 | |
| DL1XH-15 | 2026-09-02 11:51:24 | 52.35634 | 8.83491 | 107° | 69km/h | 6068m | -3.9m/s | -19.9°C | 50.7% | 478.1hPa | 2.6V | 07:47:10 | 02:14:13 | 00:00:00 | |
| DO2JMG | 2026-09-02 11:51:23 | 52.35609 | 8.83586 | 118° | 55km/h | 6052m | -4.1m/s | -19.8°C | 51.3% | 479.2hPa | 2.7V | 07:47:56 | 02:14:17 | 00:00:00 | |
| DL1XH-west | 2026-09-02 11:51:20 | 52.35639 | 8.83463 | 103° | 69km/h | 6072m | -4.2m/s | -19.9°C | 51.4% | 477.9hPa | 2.7V | 07:47:56 | 02:14:12 | 00:00:00 | |
| HSKMA3-T | 2026-09-02 11:51:18 | 52.35642 | 8.83436 | 100° | 68km/h | 6076m | -4.1m/s | -19.9°C | 51.7% | 477.6hPa | 2.7V | 07:47:56 | 02:14:11 | 00:00:00 | |
| DM0DOS-11 | 2026-09-02 11:51:17 | 52.35645 | 8.83409 | 96° | 64km/h | 6080m | -4.2m/s | -20°C | 50.3% | 477.4hPa | 2.7V | 07:47:13 | 02:14:10 | 00:00:00 | |
| BIOWL1-15 | 2026-09-02 11:51:16 | 52.35644 | 8.83409 | 96° | 64km/h | 6080m | -4.2m/s | -20°C | 52% | 477.4hPa | 2.7V | 07:47:56 | 02:14:10 | 00:00:00 | |
| DO2JMG | 2026-09-02 11:51:12 | 52.35648 | 8.83320 | 98° | 46km/h | 6096m | -4m/s | -20.1°C | 50.6% | 476.4hPa | 2.7V | 07:47:56 | 02:14:06 | 00:00:00 | |
| DB0DAN | 2026-09-02 11:51:10 | 52.35653 | 8.83283 | 108° | 46km/h | 6104m | -3.8m/s | -20.1°C | 46.3% | 475.92hPa | 2.6V | 00:00:00 | 00:00:00 | 00:00:00 | |
| DL1XH-west | 2026-09-02 11:51:08 | 52.35663 | 8.83242 | 113° | 58km/h | 6111m | -3.6m/s | -20.1°C | 48.7% | 475.5hPa | 2.7V | 07:47:56 | 02:14:02 | 00:00:00 | |
| DM0DOS-11 | 2026-09-02 11:51:07 | 52.35676 | 8.83197 | 115° | 60km/h | 6119m | -3.8m/s | -20.1°C | 44.7% | 474.9hPa | 2.7V | 07:47:23 | 02:14:00 | 00:00:00 | |
| AA1-15 | 2026-09-02 11:51:06 | 52.35676 | 8.83198 | 115° | 60km/h | 6119m | -3.8m/s | -20.1°C | 46.3% | 474.9hPa | 2.7V | 07:47:56 | 02:14:00 | 00:00:00 | |
| BIOWL1-15 | 2026-09-02 11:51:05 | 52.35710 | 8.83091 | 117° | 62km/h | 6139m | -4.3m/s | -20.1°C | 42.8% | 473.6hPa | 2.7V | 07:47:56 | 02:13:55 | 00:00:00 | |
| DL1XH-15 | 2026-09-02 11:51:04 | 52.35723 | 8.83042 | 108° | 68km/h | 6146m | -3.5m/s | -20.2°C | 40.7% | 473.1hPa | 2.5V | 07:47:30 | 02:13:53 | 00:00:00 | |
| DO2JMG | 2026-09-02 11:51:02 | 52.35703 | 8.83113 | 119° | 58km/h | 6134m | -4.4m/s | -20.2°C | 43.7% | 473.9hPa | 2.7V | 07:47:56 | 02:13:56 | 00:00:00 | |
| DL1XH-west | 2026-09-02 11:50:58 | 52.35728 | 8.83014 | 104° | 69km/h | 6150m | -3.5m/s | -20.2°C | 42% | 473hPa | 2.6V | 07:47:56 | 02:13:52 | 00:00:00 | |
| HSKMA3-T | 2026-09-02 11:50:56 | 52.35736 | 8.82959 | 102° | 69km/h | 6157m | -3.9m/s | -20.3°C | 41.2% | 472.5hPa | 2.7V | 07:47:56 | 02:13:50 | 00:00:00 | |
| AA1-15 | 2026-09-02 11:50:55 | 52.35740 | 8.82931 | 105° | 69km/h | 6161m | -3.9m/s | -20.3°C | 40.7% | 472.2hPa | 2.7V | 07:47:56 | 02:13:49 | 00:00:00 | |
| DB0DAN | 2026-09-02 11:50:55 | 52.35740 | 8.82931 | 105° | 68km/h | 6161m | -3.9m/s | -20.3°C | 37.7% | 472.18hPa | 2.7V | 00:00:00 | 00:00:00 | 00:00:00 | |
| BIOWL1-15 | 2026-09-02 11:50:53 | 52.35751 | 8.82875 | 111° | 71km/h | 6169m | -4m/s | -20.3°C | 40.6% | 471.8hPa | 2.5V | 07:47:56 | 02:13:47 | 00:00:00 | |
| DO2JMG | 2026-09-02 11:50:51 | 52.35764 | 8.82819 | 111° | 73km/h | 6177m | -4.3m/s | -20.3°C | 40.6% | 471.2hPa | 2.7V | 07:47:56 | 02:13:45 | 00:00:00 | |
| DL1XH-west | 2026-09-02 11:50:48 | 52.35780 | 8.82734 | 102° | 69km/h | 6189m | -3.7m/s | -20.5°C | 41.4% | 470.5hPa | 2.5V | 07:47:56 | 02:13:42 | 00:00:00 | |
| DL1XH1-15 | 2026-09-02 11:50:47 | 52.35799 | 8.82566 | 102° | 73km/h | 6212m | -4.1m/s | -20.5°C | 35.7% | 469.1hPa | 2.5V | 07:47:47 | 02:13:36 | 00:00:00 | |
| HSKMA3-T | 2026-09-02 11:50:46 | 52.35786 | 8.82679 | 99° | 66km/h | 6196m | -3.9m/s | -20.6°C | 41.3% | 469.9hPa | 2.7V | 07:47:56 | 02:13:40 | 00:00:00 | |
| BUE01 | 2026-09-02 11:50:46 | 52.35789 | 8.82652 | 99° | 66km/h | 6200m | -3.7m/s | -20.5°C | 36.2% | 469.8hPa | 2.7V | 00:00:00 | 00:00:00 | 00:00:00 | |
| DL3AQ-11 | 2026-09-02 11:50:45 | 52.35792 | 8.82624 | 100° | 69km/h | 6204m | -3.9m/s | -20.5°C | 35.4% | 469.4hPa | 2.7V | 00:00:00 | 00:00:00 | 00:00:00 | |
| DL1XH-15 | 2026-09-02 11:50:44 | 52.35819 | 8.82447 | 109° | 75km/h | 6227m | -3.7m/s | -20.5°C | 34.4% | 468hPa | 2.7V | 07:47:51 | 02:13:32 | 00:00:00 | |
| AA1-15 | 2026-09-02 11:50:44 | 52.35792 | 8.82624 | 100° | 69km/h | 6204m | -3.9m/s | -20.5°C | 40% | 469.4hPa | 2.6V | 07:47:56 | 02:13:38 | 00:00:00 | |
| BIOWL9-15 | 2026-09-02 11:50:44 | 52.35792 | 8.82624 | 100° | 69km/h | 6204m | -3.9m/s | -20.5°C | 35.4% | 469.4hPa | 2.6V | 00:00:00 | 00:00:00 | 00:00:00 | |
| DO2JMG | 2026-09-02 11:50:40 | 52.35808 | 8.82506 | 105° | 75km/h | 6220m | -3.9m/s | -20.5°C | 36.7% | 468.5hPa | 2.6V | 07:47:56 | 02:13:34 | 00:00:00 | |
| DL1XH-west | 2026-09-02 11:50:37 | 52.35826 | 8.82418 | 112° | 75km/h | 6231m | -3.8m/s | -20.6°C | 36% | 467.8hPa | 2.7V | 07:47:56 | 02:13:31 | 00:00:00 | |
| DL1XH1-15 | 2026-09-02 11:50:37 | 52.35862 | 8.82269 | 106° | 80km/h | 6251m | -4.1m/s | -20.7°C | 34.5% | 466.4hPa | 2.6V | 07:47:57 | 02:13:26 | 00:00:00 | |
| HSKMA3-T | 2026-09-02 11:50:36 | 52.35833 | 8.82389 | 114° | 77km/h | 6235m | -4.1m/s | -20.6°C | 36.1% | 467.5hPa | 2.5V | 07:47:56 | 02:13:30 | 00:00:00 | |
| AA1-15 | 2026-09-02 11:50:33 | 52.35856 | 8.82300 | 110° | 80km/h | 6247m | -4.1m/s | -20.7°C | 36.7% | 466.7hPa | 2.6V | 07:47:56 | 02:13:27 | 00:00:00 | |
| BIOWL1-15 | 2026-09-02 11:50:31 | 52.35868 | 8.82236 | 103° | 80km/h | 6255m | -4.3m/s | -20.7°C | 37.2% | 466.2hPa | 2.6V | 07:48:47 | 02:13:25 | 00:00:00 | |
| DO2JMG | 2026-09-02 11:50:30 | 52.35872 | 8.82204 | 100° | 78km/h | 6260m | -4m/s | -20.8°C | 37.5% | 465.9hPa | 2.5V | 07:48:47 | 02:13:24 | 00:00:00 | |
| DL1XH-west | 2026-09-02 11:50:27 | 52.35879 | 8.82115 | 96° | 66km/h | 6272m | -4.2m/s | -20.9°C | 37.3% | 465.3hPa | 2.7V | 07:48:47 | 02:13:21 | 00:00:00 | |
| HSKMA3-T | 2026-09-02 11:50:25 | 52.35883 | 8.82066 | 102° | 57km/h | 6279m | -3.9m/s | -20.9°C | 36.5% | 464.8hPa | 2.7V | 07:48:47 | 02:13:19 | 00:00:00 | |
| BIOWL1-15 | 2026-09-02 11:50:25 | 52.35912 | 8.81951 | 117° | 68km/h | 6299m | -3.6m/s | -21°C | 35% | 463.6hPa | 2.7V | 07:48:47 | 02:13:14 | 00:00:00 | |
| AA1-15 | 2026-09-02 11:50:22 | 52.35898 | 8.81999 | 116° | 60km/h | 6291m | -3.9m/s | -21°C | 35.2% | 464.1hPa | 2.7V | 07:48:47 | 02:13:16 | 00:00:00 | |
| DL1XH-15 | 2026-09-02 11:50:21 | 52.35927 | 8.81897 | 111° | 75km/h | 6306m | -3.6m/s | -21.1°C | 32.7% | 463.1hPa | 2.5V | 07:48:11 | 02:13:12 | 00:00:00 | |
| DM0DOS-11 | 2026-09-02 11:50:21 | 52.35940 | 8.81837 | 108° | 78km/h | 6313m | -3.9m/s | -21.2°C | 32.4% | 462.6hPa | 2.6V | 07:48:13 | 02:13:10 | 00:00:00 | |
| DO2JMG | 2026-09-02 11:50:19 | 52.35920 | 8.81925 | 115° | 73km/h | 6302m | -3.5m/s | -21.1°C | 35% | 463.3hPa | 2.6V | 07:48:47 | 02:13:13 | 00:00:00 | |
| DL1XH-west | 2026-09-02 11:50:17 | 52.35934 | 8.81867 | 109° | 77km/h | 6309m | -3.4m/s | -21.1°C | 34.7% | 462.8hPa | 2.5V | 07:48:47 | 02:13:11 | 00:00:00 | |
| HSKMA3-T | 2026-09-02 11:50:14 | 52.35952 | 8.81776 | 109° | 77km/h | 6320m | -3.6m/s | -21.2°C | 34.3% | 462.1hPa | 2.7V | 07:48:47 | 02:13:08 | 00:00:00 | |
| GOEST3-10 | 2026-09-02 11:50:14 | 52.35952 | 8.81776 | 110° | 77km/h | 6321m | -3.6m/s | -21.2°C | 32.0% | 462.1hPa | 2.7V | 00:00:00 | 00:00:00 | 00:00:00 | |
| BIOWL9-15 | 2026-09-02 11:50:13 | 52.35959 | 8.81746 | 110° | 77km/h | 6324m | -3.9m/s | -21.2°C | 30.4% | 461.9hPa | 2.6V | 00:00:00 | 00:00:00 | 00:00:00 | |
| HTAHTA | 2026-09-02 11:50:12 | 52.35981 | 8.81658 | 114° | 73km/h | 6336m | -3.8m/s | -21.3°C | 29.9% | 461.2hPa | 2.6V | 00:00:00 | 00:00:00 | 00:00:00 | |
| AA1-15 | 2026-09-02 11:50:12 | 52.35966 | 8.81716 | 111° | 77km/h | 6328m | -4.1m/s | -21.3°C | 33.9% | 461.7hPa | 2.5V | 07:48:47 | 02:13:06 | 00:00:00 | |
| DL1XH-15 | 2026-09-02 11:50:11 | 52.35996 | 8.81604 | 115° | 69km/h | 6343m | -3.9m/s | -21.3°C | 30.2% | 460.7hPa | 2.6V | 07:48:21 | 02:13:02 | 00:00:00 | |
| BIOWL1-15 | 2026-09-02 11:50:11 | 52.35981 | 8.81658 | 114° | 75km/h | 6336m | -3.8m/s | -21.3°C | 33.4% | 461.2hPa | 2.6V | 07:48:47 | 02:13:04 | 00:00:00 | |
| DO2JMG | 2026-09-02 11:50:09 | 52.35988 | 8.81631 | 115° | 71km/h | 6340m | -3.9m/s | -21.3°C | 32.8% | 461hPa | 2.7V | 07:48:47 | 02:13:03 | 00:00:00 | |
| DL1XH-west | 2026-09-02 11:50:06 | 52.36010 | 8.81555 | 114° | 64km/h | 6351m | -3.6m/s | -21.3°C | 31.5% | 460.3hPa | 2.5V | 07:48:47 | 02:13:00 | 00:00:00 | |
| HSKMA3-T | 2026-09-02 11:50:04 | 52.36028 | 8.81485 | 112° | 58km/h | 6362m | -3.8m/s | -21.4°C | 30.4% | 459.6hPa | 2.7V | 07:48:47 | 02:12:57 | 00:00:00 | |
| DL1XH1-15 | 2026-09-02 11:50:03 | 52.36033 | 8.81463 | 111° | 57km/h | 6366m | -3.8m/s | -21.4°C | 28.7% | 459.3hPa | 2.6V | 07:48:27 | 02:12:56 | 00:00:00 | |
| AA1-15 | 2026-09-02 11:50:02 | 52.36039 | 8.81441 | 111° | 57km/h | 6370m | -3.9m/s | -21.4°C | 30.3% | 459.1hPa | 2.6V | 07:48:47 | 02:12:55 | 00:00:00 | |
| BIOWL1-15 | 2026-09-02 11:50:00 | 52.36057 | 8.81327 | 97° | 62km/h | 6389m | -3.9m/s | -21.5°C | 29.2% | 457.9hPa | 2.6V | 07:48:47 | 02:12:50 | 00:00:00 | |
| DO2JMG | 2026-09-02 11:49:58 | 52.36052 | 8.81375 | 104° | 57km/h | 6382m | -3.8m/s | -21.5°C | 29.7% | 458.4hPa | 2.5V | 07:48:47 | 02:12:52 | 00:00:00 | |
| DL1XH1-15 | 2026-09-02 11:49:57 | 52.36061 | 8.81226 | 95° | 57km/h | 6405m | -4.2m/s | -21.5°C | 24.8% | 456.8hPa | 2.5V | 07:48:37 | 02:12:46 | 00:00:00 | |
| DM0DOS-11 | 2026-09-02 11:49:56 | 52.36058 | 8.81301 | 94° | 64km/h | 6393m | -4.1m/s | -21.4°C | 25.9% | 457.7hPa | 2.6V | 07:48:34 | 02:12:49 | 00:00:00 | |
| DL1XH-west | 2026-09-02 11:49:56 | 52.36058 | 8.81301 | 95° | 64km/h | 6393m | -4.1m/s | -21.4°C | 28.8% | 457.7hPa | 2.6V | 07:48:47 | 02:12:49 | 00:00:00 | |
| HSKMA3-T | 2026-09-02 11:49:53 | 52.36060 | 8.81250 | 94° | 60km/h | 6401m | -4.2m/s | -21.5°C | 27.6% | 457.1hPa | 2.6V | 07:48:47 | 02:12:47 | 00:00:00 | |
| AA1-15 | 2026-09-02 11:49:50 | 52.36066 | 8.81183 | 106° | 51km/h | 6413m | -3.8m/s | -21.5°C | 26.8% | 456.3hPa | 2.6V | 07:48:47 | 02:12:44 | 00:00:00 | |
| BIOWL1-15 | 2026-09-02 11:49:50 | 52.36076 | 8.81141 | 115° | 57km/h | 6421m | -3.9m/s | -21.4°C | 25.9% | 455.9hPa | 2.7V | 07:48:47 | 02:12:42 | 00:00:00 | |
| DO2JMG | 2026-09-02 11:49:47 | 52.36083 | 8.81119 | 116° | 64km/h | 6425m | -3.9m/s | -21.4°C | 25.9% | 455.6hPa | 2.6V | 07:48:47 | 02:12:41 | 00:00:00 | |
| DL1XH-west | 2026-09-02 11:49:45 | 52.36104 | 8.81039 | 109° | 75km/h | 6437m | -4m/s | -21.5°C | 26% | 455hPa | 2.5V | 07:48:47 | 02:12:38 | 00:00:00 | |
| HSKMA3-T | 2026-09-02 11:49:42 | 52.36114 | 8.80978 | 102° | 77km/h | 6445m | -4m/s | -21.6°C | 26.3% | 454.4hPa | 2.7V | 07:48:47 | 02:12:36 | 00:00:00 | |
| DL1XH-15 | 2026-09-02 11:49:42 | 52.36122 | 8.80861 | 92° | 64km/h | 6461m | -4m/s | -21.8°C | 23.4% | 453.4hPa | 2.5V | 07:48:51 | 02:12:32 | 00:00:00 | |
| AA1-15 | 2026-09-02 11:49:40 | 52.36119 | 8.80918 | 96° | 73km/h | 6453m | -3.8m/s | -21.7°C | 26.5% | 453.9hPa | 2.6V | 07:49:38 | 02:12:34 | 00:00:00 | |
| DB0DAN | 2026-09-02 11:49:40 | 52.36119 | 8.80918 | 96° | 69km/h | 6453m | -3.8m/s | -21.7°C | 22.3% | 453.88hPa | 2.6V | 00:00:00 | 00:00:00 | 00:00:00 | |
| DO2JMG | 2026-09-02 11:49:37 | 52.36122 | 8.80836 | 93° | 58km/h | 6465m | -3.8m/s | -21.8°C | 25.7% | 453.2hPa | 2.5V | 07:49:38 | 02:12:31 | 00:00:00 | |
| DM0DOS-11 | 2026-09-02 11:49:36 | 52.36126 | 8.80791 | 101° | 53km/h | 6472m | -3.8m/s | -21.7°C | 22.1% | 452.7hPa | 2.7V | 07:48:54 | 02:12:29 | 00:00:00 | |
| DL1XH-west | 2026-09-02 11:49:35 | 52.36126 | 8.80791 | 102° | 53km/h | 6472m | -3.8m/s | -21.7°C | 24.5% | 452.7hPa | 2.7V | 07:49:38 | 02:12:29 | 00:00:00 | |
| GOEST3-10 | 2026-09-02 11:49:34 | 52.36129 | 8.80769 | 108° | 60km/h | 6476m | -3.8m/s | -21.6°C | 21.6% | 452.5hPa | 2.6V | 00:00:00 | 00:00:00 | 00:00:00 | |
| DL1XH1-15 | 2026-09-02 11:49:33 | 52.36140 | 8.80727 | 114° | 58km/h | 6484m | -4m/s | -21.7°C | 20.1% | 452hPa | 2.6V | 07:48:57 | 02:12:26 | 00:00:00 | |
| HSKMA3-T | 2026-09-02 11:49:32 | 52.36140 | 8.80727 | 115° | 58km/h | 6484m | -4m/s | -21.7°C | 22.3% | 452hPa | 2.6V | 07:49:38 | 02:12:26 | 00:00:00 | |
| DD1CC2-15 | 2026-09-02 11:49:31 | 52.36146 | 8.80704 | 117° | 64km/h | 6488m | -4.2m/s | -21.7°C | 19.2% | 451.8hPa | 2.7V | 07:49:00 | 00:00:00 | 00:00:00 | |
| DL1XH-15 | 2026-09-02 11:49:30 | 52.36169 | 8.80625 | 112° | 77km/h | 6500m | -4m/s | -21.8°C | 19.3% | 451hPa | 2.7V | 07:49:01 | 02:12:22 | 00:00:00 | |
| DM0DOS-11 | 2026-09-02 11:49:30 | 52.36187 | 8.80534 | 103° | 77km/h | 6512m | -3.6m/s | -21.9°C | 18.9% | 450.4hPa | 2.6V | 07:49:04 | 02:12:19 | 00:00:00 | |
| AA1-15 | 2026-09-02 11:49:29 | 52.36161 | 8.80654 | 115° | 73km/h | 6496m | -3.9m/s | -21.7°C | 21.5% | 451.3hPa | 2.5V | 07:49:38 | 02:12:23 | 00:00:00 | |
| BIOWL1-15 | 2026-09-02 11:49:26 | 52.36182 | 8.80564 | 107° | 78km/h | 6508m | -3.9m/s | -21.8°C | 21% | 450.5hPa | 2.6V | 07:49:38 | 02:12:20 | 00:00:00 | |
| DB0DAN | 2026-09-02 11:49:25 | 52.36187 | 8.80534 | 103° | 73km/h | 6512m | -3.6m/s | -21.9°C | 17.8% | 450.41hPa | 2.6V | 00:00:00 | 00:00:00 | 00:00:00 | |
| DL1XH-west | 2026-09-02 11:49:24 | 52.36191 | 8.80503 | 100° | 73km/h | 6515m | -3.4m/s | -22°C | 21% | 450.1hPa | 2.5V | 07:49:38 | 02:12:18 | 00:00:00 | |
| GOEST3-10 | 2026-09-02 11:49:24 | 52.36191 | 8.80503 | 101° | 69km/h | 6515m | -3.3m/s | -21.9°C | 18.8% | 450.1hPa | 2.6V | 00:00:00 | 00:00:00 | 00:00:00 | |
| DL1XH-15 | 2026-09-02 11:49:23 | 52.36207 | 8.80330 | 102° | 75km/h | 6538m | -3.7m/s | -22.1°C | 18% | 448.7hPa | 2.6V | 07:49:11 | 02:12:12 | 00:00:00 | |
| HSKMA3-T | 2026-09-02 11:49:21 | 52.36198 | 8.80418 | 97° | 68km/h | 6527m | -3.9m/s | -22.1°C | 20.5% | 449.4hPa | 2.6V | 07:49:38 | 02:12:15 | 00:00:00 | |
| AA1-15 | 2026-09-02 11:49:18 | 52.36207 | 8.80330 | 103° | 75km/h | 6538m | -3.7m/s | -22.1°C | 20% | 448.7hPa | 2.6V | 07:49:38 | 02:12:12 | 00:00:00 | |
| DL1XH1-15 | 2026-09-02 11:49:18 | 52.36243 | 8.80146 | 105° | 80km/h | 6561m | -4.2m/s | -22.3°C | 17.1% | 447.3hPa | 2.6V | 07:49:17 | 02:12:06 | 00:00:00 | |
| DM0DOS-11 | 2026-09-02 11:49:16 | 52.36224 | 8.80240 | 109° | 78km/h | 6549m | -4m/s | -22.1°C | 17.7% | 448.1hPa | 2.5V | 07:49:14 | 02:12:09 | 00:00:00 | |
| DO2JMG | 2026-09-02 11:49:15 | 52.36224 | 8.80240 | 110° | 78km/h | 6549m | -4m/s | -22.1°C | 19.6% | 448.1hPa | 2.5V | 07:49:38 | 02:12:09 | 00:00:00 | |
| DL1XH-west | 2026-09-02 11:49:13 | 52.36237 | 8.80178 | 108° | 80km/h | 6557m | -4m/s | -22.2°C | 19.2% | 447.7hPa | 2.6V | 07:49:38 | 02:12:07 | 00:00:00 | |
| HSKMA3-T | 2026-09-02 11:49:11 | 52.36248 | 8.80114 | 102° | 77km/h | 6565m | -3.8m/s | -22.2°C | 18.9% | 447.1hPa | 2.6V | 07:49:38 | 02:12:05 | 00:00:00 | |
| DF8AY | 2026-09-02 11:49:11 | 52.36262 | 8.79981 | 106° | 58km/h | 6584m | -3.6m/s | 0°C | 0% | 0hPa | 2.6V | 18:12:15 | 02:12:00 | 00:00:00 | |
| DB0DAN | 2026-09-02 11:49:10 | 52.36251 | 8.80084 | 99° | 69km/h | 6569m | -3.8m/s | -22.3°C | 15.9% | 446.85hPa | 2.5V | 00:00:00 | 00:00:00 | 00:00:00 | |
| AA1-15 | 2026-09-02 11:49:07 | 52.36259 | 8.80004 | 101° | 58km/h | 6580m | -3.8m/s | -22.3°C | 18.7% | 446.1hPa | 2.6V | 07:49:38 | 02:12:01 | 00:00:00 | |
| DO2JMG | 2026-09-02 11:49:05 | 52.36267 | 8.79958 | 111° | 57km/h | 6587m | -3.5m/s | -22.3°C | 18.1% | 445.6hPa | 2.6V | 07:49:38 | 02:11:59 | 00:00:00 | |
| DL1XH-west | 2026-09-02 11:49:03 | 52.36278 | 8.79914 | 113° | 58km/h | 6594m | -3.7m/s | -22.3°C | 17.9% | 445.3hPa | 2.5V | 07:49:38 | 02:11:57 | 00:00:00 | |
| HSKMA3-T | 2026-09-02 11:49:01 | 52.36289 | 8.79870 | 111° | 58km/h | 6602m | -3.8m/s | -22.4°C | 17.7% | 444.8hPa | 2.5V | 07:49:38 | 02:11:55 | 00:00:00 | |
| DJ2DS-15 | 2026-09-02 11:49:01 | 52.36289 | 8.79870 | 112° | 66km/h | 6602m | -3.7m/s | -22.3°C | 16.0% | 444.7hPa | 2.5V | 00:00:00 | 02:11:55 | 00:00:00 | |
| DL4BBY-15 | 2026-09-02 11:49:00 | 52.36294 | 8.79848 | 111° | 71km/h | 6606m | -3.8m/s | -23.2°C | 0% | 0hPa | 2.6V | 00:00:00 | 00:00:00 | 00:00:00 | |
| GOEST3-10 | 2026-09-02 11:48:59 | 52.36299 | 8.79825 | 111° | 58km/h | 6610m | -3.8m/s | -22.4°C | 15.8% | 444.3hPa | 2.6V | 00:00:00 | 02:11:53 | 00:00:00 | |
| DF5WG-10 | 2026-09-02 11:48:58 | 52.36304 | 8.79803 | 108° | 60km/h | 6613m | -3.6m/s | -22.4°C | 15.5% | 444.1hPa | 2.5V | 00:00:00 | 02:11:52 | 00:00:00 | |
| DL1XH1-15 | 2026-09-02 11:48:57 | 52.36327 | 8.79661 | 101° | 60km/h | 6636m | -4m/s | -22.4°C | 13.7% | 442.7hPa | 2.5V | 07:49:37 | 02:11:46 | 00:00:00 | |
| DJ2DS-15 | 2026-09-02 11:48:57 | 52.36312 | 8.79757 | 105° | 58km/h | 6620m | -3.8m/s | -22.4°C | 13.6% | 443.6hPa | 2.6V | 00:00:00 | 00:00:00 | 00:00:00 | |
| DM0DOS-11 | 2026-09-02 11:48:56 | 52.36316 | 8.79734 | 105° | 58km/h | 6624m | -4m/s | -22.4°C | 14.4% | 443.5hPa | 2.6V | 07:49:34 | 02:11:49 | 00:00:00 | |
| DB0DAN | 2026-09-02 11:48:55 | 52.36316 | 8.79734 | 106° | 57km/h | 6624m | -4m/s | -22.4°C | 13.4% | 443.52hPa | 2.6V | 00:00:00 | 00:00:00 | 00:00:00 | |
| DO2JMG | 2026-09-02 11:48:54 | 52.36320 | 8.79710 | 105° | 60km/h | 6628m | -4m/s | -22.4°C | 15.8% | 443.2hPa | 2.6V | 07:49:38 | 02:11:48 | 00:00:00 | |
| DF8AY | 2026-09-02 11:48:54 | 52.36324 | 8.79685 | 103° | 60km/h | 6632m | -3.7m/s | 0°C | 0% | 0hPa | 2.6V | 18:12:15 | 02:11:47 | 00:00:00 | |
| DL1XH-west | 2026-09-02 11:48:52 | 52.36327 | 8.79661 | 102° | 60km/h | 6636m | -4m/s | -22.4°C | 15.2% | 442.7hPa | 2.5V | 07:49:38 | 02:11:46 | 00:00:00 | |
| BIOWL1-15 | 2026-09-02 11:48:51 | 52.36336 | 8.79584 | 100° | 66km/h | 6648m | -3.7m/s | -22.4°C | 14.9% | 442.1hPa | 2.6V | 07:50:29 | 02:11:43 | 00:00:00 | |
| HSKMA3-T | 2026-09-02 11:48:51 | 52.36330 | 8.79636 | 100° | 62km/h | 6640m | -4.1m/s | -22.4°C | 15% | 442.5hPa | 2.5V | 07:49:38 | 02:11:45 | 00:00:00 | |
| DM0DOS-11 | 2026-09-02 11:48:50 | 52.36351 | 8.79466 | 104° | 78km/h | 6663m | -4m/s | -22.4°C | 13.2% | 441.1hPa | 2.6V | 07:49:44 | 02:11:39 | 00:00:00 | |
| DD1CC8 | 2026-09-02 11:48:49 | 52.36357 | 8.79434 | 105° | 80km/h | 6667m | -3.9m/s | -22.5°C | 12.1% | 440.9hPa | 2.5V | 00:00:00 | 00:00:00 | 00:00:00 | |
| DF5WG-10 | 2026-09-02 11:48:48 | 52.36339 | 8.79556 | 102° | 77km/h | 6652m | -4.0m/s | -22.3°C | 13.4% | 441.8hPa | 2.5V | 00:00:00 | 02:11:42 | 00:00:00 | |
| DL1XH1-15 | 2026-09-02 11:48:46 | 52.36368 | 8.79371 | 107° | 80km/h | 6675m | -4m/s | -22.5°C | 12.9% | 440.5hPa | 2.5V | 07:49:47 | 02:11:36 | 00:00:00 | |
| AA1-15 | 2026-09-02 11:48:46 | 52.36347 | 8.79497 | 104° | 75km/h | 6659m | -4m/s | -22.4°C | 14.6% | 441.3hPa | 2.6V | 07:51:20 | 02:11:40 | 00:00:00 | |
| DL3AQ-11 | 2026-09-02 11:48:45 | 52.36357 | 8.79434 | 105° | 80km/h | 6667m | -3.9m/s | -22.5°C | 12.1% | 440.9hPa | 2.5V | 00:00:00 | 00:00:00 | 00:00:00 | |
| DO2JMG | 2026-09-02 11:48:43 | 52.36362 | 8.79402 | 107° | 80km/h | 6671m | -3.4m/s | -22.5°C | 14.4% | 440.6hPa | 2.5V | 07:50:29 | 02:11:37 | 00:00:00 | |
| DL1XH-west | 2026-09-02 11:48:42 | 52.36368 | 8.79371 | 107° | 80km/h | 6675m | -4m/s | -22.5°C | 14.3% | 440.5hPa | 2.5V | 07:50:29 | 02:11:36 | 00:00:00 | |
| BIOWL1-15 | 2026-09-02 11:48:40 | 52.36431 | 8.79050 | 114° | 82km/h | 6714m | -4m/s | -22.7°C | 12.8% | 438hPa | 2.6V | 07:50:29 | 02:11:26 | 00:00:00 | |
| HSKMA3-T | 2026-09-02 11:48:40 | 52.36379 | 8.79307 | 105° | 78km/h | 6682m | -3.9m/s | -22.6°C | 14.2% | 440hPa | 2.6V | 07:50:29 | 02:11:34 | 00:00:00 | |
| DB0DAN | 2026-09-02 11:48:40 | 52.36379 | 8.79307 | 104° | 75km/h | 6682m | -3.9m/s | -22.6°C | 11.9% | 440hPa | 2.6V | 00:00:00 | 00:00:00 | 00:00:00 | |
| AA1-15 | 2026-09-02 11:48:35 | 52.36408 | 8.79146 | 110° | 84km/h | 6702m | -3.6m/s | -22.7°C | 13.5% | 438.9hPa | 2.6V | 07:51:20 | 02:11:29 | 00:00:00 | |
| GOEST3-10 | 2026-09-02 11:48:34 | 52.36415 | 8.79114 | 111° | 82km/h | 6706m | -3.7m/s | -22.6°C | 12.0% | 438.4hPa | 2.6V | 07:49:00 | 00:00:00 | 00:00:00 | |
| DL1XH1-15 | 2026-09-02 11:48:33 | 52.36431 | 8.79050 | 113° | 82km/h | 6714m | -4m/s | -22.7°C | 11.6% | 438hPa | 2.6V | 07:49:57 | 02:11:26 | 00:00:00 | |
| DO2JMG | 2026-09-02 11:48:33 | 52.36423 | 8.79082 | 111° | 84km/h | 6710m | -4.2m/s | -22.7°C | 12.9% | 438.4hPa | 2.6V | 07:50:29 | 02:11:27 | 00:00:00 | |
| HSKMA3-T | 2026-09-02 11:48:31 | 52.36448 | 8.78988 | 115° | 80km/h | 6721m | -4.1m/s | -22.7°C | 12.4% | 437.7hPa | 2.5V | 07:50:29 | 02:11:24 | 00:00:00 | |
| BIOWL1-15 | 2026-09-02 11:48:29 | 52.36476 | 8.78902 | 120° | 77km/h | 6734m | -4.1m/s | -22.8°C | 12.1% | 437hPa | 2.6V | 07:50:29 | 02:11:21 | 00:00:00 | |
| GOEST3-10 | 2026-09-02 11:48:29 | 52.36457 | 8.78958 | 118° | 77km/h | 6726m | -3.8m/s | -22.7°C | 11.2% | 437.3hPa | 2.5V | 00:00:00 | 02:11:23 | 00:00:00 | |
| DL1CLM-18 | 2026-09-02 11:48:28 | 52.36457 | 8.78958 | 119° | 78km/h | 6726m | -3.9m/s | -22.7°C | 10.3% | 437.4hPa | 2.6V | 00:00:00 | 00:00:00 | 00:00:00 | |
| DL1XH1-15 | 2026-09-02 11:48:27 | 52.36519 | 8.78773 | 119° | 66km/h | 6753m | -4.1m/s | -22.9°C | 11% | 435.9hPa | 2.6V | 07:50:07 | 02:11:16 | 00:00:00 | |
| DB0DAN | 2026-09-02 11:48:25 | 52.36494 | 8.78848 | 118° | 69km/h | 6742m | -3.8m/s | -22.8°C | 10.1% | 436.54hPa | 2.5V | 00:00:00 | 00:00:00 | 00:00:00 | |
| GOEST3-10 | 2026-09-02 11:48:24 | 52.36503 | 8.78821 | 118° | 68km/h | 6746m | -4.0m/s | -22.8°C | 10.9% | 436.1hPa | 2.5V | 00:00:00 | 00:00:00 | 00:00:00 | |
| DL1XH-15 | 2026-09-02 11:48:23 | 52.36556 | 8.78678 | 120° | 75km/h | 6768m | -4.4m/s | -23°C | 10.9% | 434.9hPa | 2.5V | 07:50:11 | 02:11:12 | 00:00:00 | |
| DO2JMG | 2026-09-02 11:48:22 | 52.36519 | 8.78773 | 120° | 66km/h | 6753m | -4.1m/s | -22.9°C | 12.2% | 435.9hPa | 2.6V | 07:50:29 | 02:11:16 | 00:00:00 | |
| DL1XH-west | 2026-09-02 11:48:20 | 52.36537 | 8.78726 | 123° | 66km/h | 6761m | -4m/s | -23°C | 12.4% | 435.4hPa | 2.5V | 07:50:29 | 02:11:14 | 00:00:00 | |
| HSKMA3-T | 2026-09-02 11:48:19 | 52.36546 | 8.78703 | 122° | 68km/h | 6764m | -4.7m/s | -23°C | 12.4% | 435.1hPa | 2.5V | 07:50:29 | 02:11:13 | 00:00:00 | |
| GOEST3-10 | 2026-09-02 11:48:19 | 52.36546 | 8.78703 | 123° | 77km/h | 6764m | -4.7m/s | -22.9°C | 11.1% | 435.0hPa | 2.6V | 00:00:00 | 02:11:13 | 00:00:00 | |
| DL1XH1-15 | 2026-09-02 11:48:17 | 52.36609 | 8.78490 | 105° | 82km/h | 6791m | -4.3m/s | -23.1°C | 10.5% | 433.5hPa | 2.6V | 07:50:17 | 02:11:06 | 00:00:00 | |
| BIOWL1-15 | 2026-09-02 11:48:17 | 52.36609 | 8.78490 | 105° | 82km/h | 6791m | -4.3m/s | -23.2°C | 11.7% | 433.5hPa | 2.6V | 07:50:29 | 02:11:06 | 00:00:00 | |
| DL1LOL-11 | 2026-09-02 11:48:16 | 52.36566 | 8.78650 | 123° | 80km/h | 6772m | -4.4m/s | -23.0°C | 9.9% | 434.6hPa | 2.5V | 00:00:00 | 00:00:00 | 00:00:00 | |
| GOEST3-10 | 2026-09-02 11:48:14 | 52.36595 | 8.78558 | 113° | 82km/h | 6784m | -3.1m/s | -23.0°C | 10.8% | 433.9hPa | 2.5V | 00:00:00 | 00:00:00 | 00:00:00 | |
| DL1XH-15 | 2026-09-02 11:48:13 | 52.36625 | 8.78367 | 105° | 68km/h | 6807m | -3.1m/s | -23.3°C | 10.8% | 432.5hPa | 2.5V | 07:50:21 | 02:11:02 | 00:00:00 | |
| DO2JMG | 2026-09-02 11:48:11 | 52.36614 | 8.78457 | 102° | 80km/h | 6795m | -4m/s | -23.2°C | 11.8% | 433.2hPa | 2.6V | 07:50:29 | 02:11:05 | 00:00:00 | |
| DM0DOS-11 | 2026-09-02 11:48:10 | 52.36645 | 8.78291 | 118° | 66km/h | 6816m | -3.9m/s | -23.4°C | 10.8% | 432hPa | 2.6V | 07:50:24 | 02:10:59 | 00:00:00 | |
| DL1XH-west | 2026-09-02 11:48:10 | 52.36618 | 8.78425 | 100° | 75km/h | 6799m | -4m/s | -23.2°C | 12% | 433hPa | 2.6V | 07:50:29 | 02:11:04 | 00:00:00 | |
| DB0DAN | 2026-09-02 11:48:10 | 52.36618 | 8.78425 | 100° | 71km/h | 6799m | -4m/s | -23.2°C | 9.9% | 433.02hPa | 2.6V | 00:00:00 | 00:00:00 | 00:00:00 | |
| HSKMA3-T | 2026-09-02 11:48:09 | 52.36621 | 8.78395 | 103° | 73km/h | 6803m | -4.4m/s | -23.3°C | 12% | 432.7hPa | 2.5V | 07:50:29 | 02:11:03 | 00:00:00 | |
| BIOWL9-15 | 2026-09-02 11:48:09 | 52.36625 | 8.78367 | 105° | 68km/h | 6807m | -3.1m/s | -23.3°C | 9.9% | 432.5hPa | 2.5V | 00:00:00 | 00:00:00 | 00:00:00 | |
| HTAHTA | 2026-09-02 11:48:08 | 52.36630 | 8.78341 | 110° | 66km/h | 6810m | -3.1m/s | -23.3°C | 9.9% | 432.3hPa | 2.5V | 00:00:00 | 00:00:00 | 00:00:00 | |
| DL3AQ-11 | 2026-09-02 11:48:05 | 52.36653 | 8.78267 | 117° | 64km/h | 6820m | -3.5m/s | -23.4°C | 9.9% | 431.7hPa | 2.5V | 00:00:00 | 00:00:00 | 00:00:00 | |
| DL3OBA | 2026-09-02 11:48:04 | 52.36653 | 8.78267 | 119° | 66km/h | 6820m | -3.5m/s | -23.4°C | 9.9% | 431.7hPa | 2.5V | 07:50:00 | 00:00:00 | 00:00:00 | |
| DL1XH1-15 | 2026-09-02 11:48:03 | 52.36666 | 8.78218 | 112° | 68km/h | 6828m | -4.5m/s | -23.4°C | 10.6% | 431.3hPa | 2.5V | 07:50:27 | 02:10:56 | 00:00:00 | |
| BIOWL1-15 | 2026-09-02 11:48:02 | 52.36708 | 8.78012 | 114° | 69km/h | 6860m | -3.7m/s | -23.7°C | 11.6% | 429.4hPa | 2.6V | 07:51:20 | 02:10:48 | 00:00:00 | |
| DL1XH-15 | 2026-09-02 11:48:01 | 52.36687 | 8.78115 | 102° | 64km/h | 6844m | -4.1m/s | -23.6°C | 10.4% | 430.3hPa | 2.6V | 07:50:31 | 02:10:52 | 00:00:00 | |
| DO2JMG | 2026-09-02 11:48:01 | 52.36673 | 8.78192 | 112° | 64km/h | 6832m | -4.4m/s | -23.5°C | 11.7% | 431hPa | 2.5V | 07:50:29 | 02:10:55 | 00:00:00 | |
| DJ2DS-15 | 2026-09-02 11:48:01 | 52.36673 | 8.78192 | 112° | 68km/h | 6832m | -4.3m/s | -23.4°C | 10.5% | 430.9hPa | 2.5V | 07:50:00 | 02:10:55 | 00:00:00 | |
| DM0DOS-11 | 2026-09-02 11:48:00 | 52.36702 | 8.78038 | 111° | 64km/h | 6857m | -4m/s | -23.7°C | 10.5% | 429.6hPa | 2.5V | 07:50:34 | 02:10:49 | 00:00:00 | |
| DL1XH-west | 2026-09-02 11:47:59 | 52.36683 | 8.78141 | 105° | 66km/h | 6840m | -3.8m/s | -23.5°C | 11.5% | 430.6hPa | 2.6V | 07:51:20 | 02:10:53 | 00:00:00 | |
| HSKMA3-T | 2026-09-02 11:47:58 | 52.36687 | 8.78115 | 103° | 64km/h | 6844m | -4.1m/s | -23.6°C | 11.5% | 430.3hPa | 2.6V | 07:51:20 | 02:10:52 | 00:00:00 | |
| DB0DAN | 2026-09-02 11:47:55 | 52.36702 | 8.78038 | 111° | 60km/h | 6857m | -4m/s | -23.7°C | 9.6% | 429.59hPa | 2.5V | 00:00:00 | 00:00:00 | 00:00:00 | |
| SMARD9-10 | 2026-09-02 11:47:54 | 52.36708 | 8.78012 | 115° | 69km/h | 6860m | -3.7m/s | -23.7°C | 9.6% | 429.4hPa | 2.6V | 00:00:00 | 00:00:00 | 00:00:00 | |
| DL1XH-15 | 2026-09-02 11:47:53 | 52.36758 | 8.77857 | 116° | 69km/h | 6884m | -4.2m/s | -23.9°C | 10.6% | 428.1hPa | 2.6V | 07:50:41 | 02:10:42 | 00:00:00 | |
| BIOWL1-15 | 2026-09-02 11:47:50 | 52.36742 | 8.77908 | 119° | 71km/h | 6875m | -4m/s | -23.8°C | 11.6% | 428.4hPa | 2.5V | 07:51:20 | 02:10:44 | 00:00:00 | |
| DL1XH-west | 2026-09-02 11:47:48 | 52.36758 | 8.77857 | 116° | 69km/h | 6884m | -4.2m/s | -23.9°C | 11.6% | 428.1hPa | 2.6V | 07:51:20 | 02:10:42 | 00:00:00 | |
| HSKMA3-T | 2026-09-02 11:47:47 | 52.36766 | 8.77832 | 116° | 68km/h | 6888m | -4.3m/s | -23.9°C | 11.6% | 427.8hPa | 2.6V | 07:51:20 | 02:10:41 | 00:00:00 | |
| DL1XH1-15 | 2026-09-02 11:47:47 | 52.36793 | 8.77702 | 104° | 71km/h | 6909m | -4.5m/s | -24.1°C | 10.8% | 426.6hPa | 2.6V | 07:50:47 | 02:10:36 | 00:00:00 | |
| AA1-15 | 2026-09-02 11:47:44 | 52.36784 | 8.77758 | 107° | 66km/h | 6900m | -3.9m/s | -24°C | 11.8% | 427.1hPa | 2.5V | 07:51:20 | 02:10:38 | 00:00:00 | |
| BIOWL1-15 | 2026-09-02 11:47:42 | 52.36809 | 8.77580 | 99° | 73km/h | 6925m | -4.1m/s | -24.3°C | 12.1% | 425.6hPa | 2.5V | 07:51:20 | 02:10:32 | 00:00:00 | |
| DB0DAN | 2026-09-02 11:47:40 | 52.36802 | 8.77641 | 102° | 75km/h | 6917m | -3.7m/s | -24.2°C | 9.8% | 426.24hPa | 2.5V | 00:00:00 | 00:00:00 | 00:00:00 | |
| DO2JMG | 2026-09-02 11:47:40 | 52.36802 | 8.77641 | 102° | 78km/h | 6917m | -3.7m/s | -24.2°C | 12% | 426.2hPa | 2.5V | 07:51:20 | 02:10:34 | 00:00:00 | |
| DL1XH-west | 2026-09-02 11:47:37 | 52.36811 | 8.77550 | 99° | 71km/h | 6929m | -4.8m/s | -24.3°C | 12.1% | 425.4hPa | 2.6V | 07:51:20 | 02:10:31 | 00:00:00 | |
| HSKMA3-T | 2026-09-02 11:47:36 | 52.36814 | 8.77522 | 101° | 68km/h | 6933m | -4.8m/s | -24.3°C | 12.1% | 425.1hPa | 2.6V | 07:51:20 | 02:10:30 | 00:00:00 | |
| AA1-15 | 2026-09-02 11:47:33 | 52.36830 | 8.77446 | 113° | 64km/h | 6945m | -4m/s | -24.4°C | 12% | 424.5hPa | 2.5V | 07:51:20 | 02:10:27 | 00:00:00 | |
| DD8BA-10 | 2026-09-02 11:47:33 | 52.36830 | 8.77446 | 113° | 78km/h | 6945m | -3.9m/s | -24.4°C | 10.8% | 424.5hPa | 2.5V | 00:00:00 | 00:00:00 | 00:00:00 | |
| DL1XH-15 | 2026-09-02 11:47:31 | 52.36870 | 8.77310 | 112° | 84km/h | 6964m | -3.9m/s | -24.6°C | 11% | 423.2hPa | 2.5V | 07:51:01 | 02:10:22 | 00:00:00 | |
| DM0DOS-11 | 2026-09-02 11:47:30 | 52.36892 | 8.77210 | 109° | 89km/h | 6977m | -4.3m/s | -24.7°C | 10.9% | 422.6hPa | 2.6V | 07:51:04 | 02:10:19 | 00:00:00 | |
| BIOWL1-15 | 2026-09-02 11:47:30 | 52.36870 | 8.77310 | 112° | 84km/h | 6964m | -3.9m/s | -24.6°C | 12% | 423.2hPa | 2.5V | 07:51:20 | 02:10:22 | 00:00:00 | |
| DO2JMG | 2026-09-02 11:47:29 | 52.36862 | 8.77341 | 115° | 80km/h | 6960m | -3.9m/s | -24.6°C | 12% | 423.3hPa | 2.5V | 07:51:20 | 02:10:23 | 00:00:00 | |
| DL1XH-west | 2026-09-02 11:47:27 | 52.36878 | 8.77278 | 110° | 86km/h | 6968m | -4.1m/s | -24.6°C | 12.1% | 423.1hPa | 2.5V | 07:51:20 | 02:10:21 | 00:00:00 | |
| DD1CC3-15 | 2026-09-02 11:47:26 | 52.36877 | 8.77278 | 111° | 86km/h | 6968m | -4.1m/s | -24.6°C | 10.0% | 423.1hPa | 2.6V | 07:51:00 | 00:00:00 | 00:00:00 | |
| DB0DAN | 2026-09-02 11:47:25 | 52.36892 | 8.77210 | 110° | 84km/h | 6977m | -4.3m/s | -24.7°C | 10% | 422.65hPa | 2.6V | 00:00:00 | 00:00:00 | 00:00:00 | |
| HSKMA3-T | 2026-09-02 11:47:25 | 52.36892 | 8.77210 | 110° | 89km/h | 6977m | -4.3m/s | -24.7°C | 12% | 422.6hPa | 2.6V | 07:51:20 | 02:10:19 | 00:00:00 | |
| DK9SH | 2026-09-02 11:47:25 | 52.36892 | 8.77210 | 111° | 89km/h | 6977m | -4.3m/s | -24.7°C | 10.0% | 422.7hPa | 2.5V | 07:51:00 | 00:00:00 | 00:00:00 | |
| GOEST3-10 | 2026-09-02 11:47:24 | 52.36900 | 8.77175 | 111° | 84km/h | 6981m | -3.8m/s | -24.6°C | 10.9% | 422.4hPa | 2.5V | 00:00:00 | 00:00:00 | 00:00:00 | |
| DL1XH1-15 | 2026-09-02 11:47:23 | 52.36916 | 8.77110 | 112° | 82km/h | 6987m | -3.7m/s | -24.7°C | 10.8% | 422hPa | 2.5V | 07:51:07 | 02:10:16 | 00:00:00 | |
| DL1XH-15 | 2026-09-02 11:47:23 | 52.36951 | 8.76993 | 116° | 77km/h | 7001m | -4.3m/s | -24.8°C | 10.6% | 420.9hPa | 2.5V | 07:51:11 | 02:10:12 | 00:00:00 | |
| AA1-15 | 2026-09-02 11:47:23 | 52.36917 | 8.77110 | 112° | 84km/h | 6988m | -3.7m/s | -24.7°C | 11.9% | 422hPa | 2.5V | 07:51:20 | 02:10:16 | 00:00:00 | |
| DM0DOS-11 | 2026-09-02 11:47:20 | 52.36977 | 8.76902 | 113° | 86km/h | 7013m | -3.4m/s | -24.9°C | 10.3% | 420.2hPa | 2.6V | 07:51:14 | 02:10:09 | 00:00:00 | |
| BIOWL1-15 | 2026-09-02 11:47:19 | 52.36951 | 8.76993 | 116° | 77km/h | 7001m | -4.3m/s | -24.8°C | 11.6% | 420.9hPa | 2.5V | 07:51:20 | 02:10:12 | 00:00:00 | |
| DO2JMG | 2026-09-02 11:47:19 | 52.36942 | 8.77022 | 116° | 78km/h | 6997m | -4.5m/s | -24.8°C | 11.7% | 421.2hPa | 2.5V | 07:51:20 | 02:10:13 | 00:00:00 | |
| DL1XH-west | 2026-09-02 11:47:16 | 52.36969 | 8.76934 | 115° | 82km/h | 7009m | -3.9m/s | -24.9°C | 11.3% | 420.4hPa | 2.6V | 07:51:20 | 02:10:10 | 00:00:00 | |
| HSKMA3-T | 2026-09-02 11:47:14 | 52.36986 | 8.76870 | 112° | 86km/h | 7016m | -3.9m/s | -24.9°C | 10.9% | 420hPa | 2.5V | 07:51:20 | 02:10:08 | 00:00:00 | |
| GOEST3-10 | 2026-09-02 11:47:14 | 52.36986 | 8.76870 | 113° | 86km/h | 7016m | -3.9m/s | -24.9°C | 10.0% | 419.9hPa | 2.5V | 07:51:00 | 00:00:00 | 00:00:00 | |
| DL1XH-15 | 2026-09-02 11:47:13 | 52.37020 | 8.76664 | 101° | 86km/h | 7041m | -4.6m/s | -25.1°C | 9.7% | 418.6hPa | 2.5V | 07:51:21 | 02:10:02 | 00:00:00 | |
| AA1-15 | 2026-09-02 11:47:11 | 52.37007 | 8.76767 | 103° | 86km/h | 7029m | -4m/s | -25°C | 10.6% | 419.3hPa | 2.6V | 07:51:20 | 02:10:05 | 00:00:00 | |
| DB0DAN | 2026-09-02 11:47:10 | 52.37012 | 8.76732 | 102° | 80km/h | 7032m | -3.5m/s | -25°C | 8.8% | 419.13hPa | 2.6V | 00:00:00 | 00:00:00 | 00:00:00 | |
| BIOWL1-15 | 2026-09-02 11:47:08 | 52.37025 | 8.76629 | 105° | 86km/h | 7045m | -4.4m/s | -25.1°C | 10.6% | 418.4hPa | 2.5V | 07:52:11 | 02:10:01 | 00:00:00 | |
| DO2JMG | 2026-09-02 11:47:08 | 52.37020 | 8.76664 | 102° | 86km/h | 7041m | -4.6m/s | -25.1°C | 10.6% | 418.6hPa | 2.5V | 07:52:11 | 02:10:02 | 00:00:00 | |
| DL1XH-west | 2026-09-02 11:47:05 | 52.37039 | 8.76562 | 111° | 84km/h | 7052m | -3.9m/s | -25.2°C | 10.2% | 417.9hPa | 2.6V | 07:52:11 | 02:09:59 | 00:00:00 | |
| HSKMA3-T | 2026-09-02 11:47:04 | 52.37048 | 8.76529 | 114° | 86km/h | 7056m | -3.9m/s | -25.2°C | 10.1% | 417.8hPa | 2.5V | 07:52:11 | 02:09:58 | 00:00:00 | |
| DD8BA-10 | 2026-09-02 11:47:03 | 52.37056 | 8.76497 | 115° | 82km/h | 7060m | -4.5m/s | -25.1°C | 9.0% | 417.3hPa | 2.5V | 00:00:00 | 00:00:00 | 00:00:00 | |
| DL3OBA | 2026-09-02 11:47:02 | 52.37057 | 8.76497 | 115° | 84km/h | 7060m | -4.5m/s | -25.2°C | 8.1% | 417.4hPa | 2.5V | 07:52:00 | 00:00:00 | 00:00:00 | |
| DL1XH-15 | 2026-09-02 11:47:01 | 52.37098 | 8.76333 | 106° | 84km/h | 7083m | -3.9m/s | -25.2°C | 7.5% | 416.2hPa | 2.5V | 07:51:31 | 02:09:52 | 00:00:00 | |
| AA1-15 | 2026-09-02 11:47:00 | 52.37084 | 8.76399 | 111° | 86km/h | 7073m | -5.1m/s | -25.2°C | 7.9% | 416.7hPa | 2.6V | 07:52:11 | 02:09:54 | 00:00:00 | |
| DL3AQ-11 | 2026-09-02 11:46:58 | 52.37103 | 8.76301 | 102° | 77km/h | 7087m | -4.0m/s | -25.2°C | 6.6% | 415.9hPa | 2.5V | 00:00:00 | 00:00:00 | 00:00:00 | |
| DL1XH1-15 | 2026-09-02 11:46:57 | 52.37124 | 8.76149 | 103° | 78km/h | 7108m | -4.3m/s | -25.4°C | 7.4% | 414.8hPa | 2.5V | 07:51:37 | 02:09:46 | 00:00:00 | |
| DO2JMG | 2026-09-02 11:46:57 | 52.37103 | 8.76301 | 102° | 78km/h | 7087m | -4m/s | -25.2°C | 7.7% | 415.9hPa | 2.5V | 07:52:11 | 02:09:51 | 00:00:00 | |
| DM0DOS-11 | 2026-09-02 11:46:57 | 52.37111 | 8.76240 | 102° | 73km/h | 7095m | -3.9m/s | -25.3°C | 7.4% | 415.5hPa | 2.6V | 07:51:34 | 02:09:49 | 00:00:00 | |
| BIOWL1-15 | 2026-09-02 11:46:56 | 52.37107 | 8.76270 | 102° | 75km/h | 7091m | -4m/s | -25.2°C | 7.5% | 415.8hPa | 2.6V | 07:52:11 | 02:09:50 | 00:00:00 | |
| DL1XH-west | 2026-09-02 11:46:55 | 52.37111 | 8.76240 | 103° | 73km/h | 7095m | -3.9m/s | -25.3°C | 7.6% | 415.6hPa | 2.6V | 07:52:11 | 02:09:49 | 00:00:00 | |
| HSKMA3-T | 2026-09-02 11:46:53 | 52.37119 | 8.76180 | 103° | 77km/h | 7103m | -4.3m/s | -25.4°C | 7.6% | 415.1hPa | 2.5V | 07:52:11 | 02:09:47 | 00:00:00 | |
| AA1-15 | 2026-09-02 11:46:49 | 52.37141 | 8.76053 | 108° | 82km/h | 7121m | -3.7m/s | -25.5°C | 7.5% | 414.2hPa | 2.6V | 07:52:11 | 02:09:43 | 00:00:00 | |
| DO2JMG | 2026-09-02 11:46:46 | 52.37162 | 8.75955 | 111° | 84km/h | 7134m | -4.3m/s | -25.5°C | 7.2% | 413.4hPa | 2.5V | 07:52:11 | 02:09:40 | 00:00:00 | |
| DM0DOS-11 | 2026-09-02 11:46:46 | 52.37170 | 8.75922 | 113° | 86km/h | 7138m | -4.2m/s | -25.5°C | 7% | 413.2hPa | 2.6V | 07:51:44 | 02:09:39 | 00:00:00 | |
| DL1XH-west | 2026-09-02 11:46:45 | 52.37170 | 8.75922 | 114° | 86km/h | 7138m | -4.2m/s | -25.5°C | 7.1% | 413.2hPa | 2.6V | 07:52:11 | 02:09:39 | 00:00:00 | |
| DL3AQ-11 | 2026-09-02 11:46:45 | 52.37179 | 8.75890 | 112° | 82km/h | 7142m | -4.4m/s | -25.6°C | 6.2% | 412.9hPa | 2.6V | 00:00:00 | 00:00:00 | 00:00:00 | |
| GOEST3-10 | 2026-09-02 11:46:44 | 52.37179 | 8.75890 | 113° | 84km/h | 7142m | -4.3m/s | -25.5°C | 7.0% | 412.8hPa | 2.6V | 00:00:00 | 00:00:00 | 00:00:00 | |
| DL1XH1-15 | 2026-09-02 11:46:43 | 52.37197 | 8.75827 | 116° | 82km/h | 7151m | -4.5m/s | -25.6°C | 6.9% | 412.4hPa | 2.5V | 07:51:47 | 02:09:36 | 00:00:00 | |
| HSKMA3-T | 2026-09-02 11:46:43 | 52.37187 | 8.75858 | 115° | 86km/h | 7146m | -4.4m/s | -25.6°C | 7% | 412.7hPa | 2.6V | 07:52:11 | 02:09:37 | 00:00:00 | |
| DD8BA-10 | 2026-09-02 11:46:43 | 52.37187 | 8.75858 | 116° | 82km/h | 7147m | -4.3m/s | -25.5°C | 6.9% | 412.6hPa | 2.5V | 00:00:00 | 00:00:00 | 00:00:00 | |
| DD1CC3-15 | 2026-09-02 11:46:42 | 52.37188 | 8.75858 | 116° | 86km/h | 7147m | -4.4m/s | -25.6°C | 6.1% | 412.7hPa | 2.5V | 00:00:00 | 00:00:00 | 00:00:00 | |
| DF5WG-10 | 2026-09-02 11:46:41 | 52.37206 | 8.75796 | 116° | 73km/h | 7155m | -4.3m/s | -25.6°C | 6.9% | 412.2hPa | 2.5V | 00:00:00 | 02:09:35 | 00:00:00 | |
| DM0DOS-11 | 2026-09-02 11:46:40 | 52.37264 | 8.75616 | 118° | 84km/h | 7181m | -4.6m/s | -25.7°C | 7.2% | 410.8hPa | 2.5V | 07:51:54 | 02:09:29 | 00:00:00 | |
| DB0DAN | 2026-09-02 11:46:40 | 52.37215 | 8.75765 | 117° | 80km/h | 7160m | -4.4m/s | -25.6°C | 6.1% | 411.99hPa | 2.5V | 00:00:00 | 00:00:00 | 00:00:00 | |
| AA1-15 | 2026-09-02 11:46:38 | 52.37235 | 8.75705 | 118° | 80km/h | 7168m | -4.3m/s | -25.7°C | 7% | 411.5hPa | 2.6V | 07:52:11 | 02:09:32 | 00:00:00 | |
| DL1XH1-15 | 2026-09-02 11:46:37 | 52.37295 | 8.75531 | 119° | 75km/h | 7194m | -4.4m/s | -25.8°C | 7.4% | 410.1hPa | 2.6V | 07:51:57 | 02:09:26 | 00:00:00 | |
| DO2JMG | 2026-09-02 11:46:35 | 52.37264 | 8.75616 | 118° | 84km/h | 7181m | -4.6m/s | -25.7°C | 7.2% | 410.8hPa | 2.5V | 07:52:11 | 02:09:29 | 00:00:00 | |
| DL1XH-west | 2026-09-02 11:46:34 | 52.37274 | 8.75587 | 120° | 80km/h | 7185m | -4.6m/s | -25.7°C | 7.4% | 410.6hPa | 2.6V | 07:52:11 | 02:09:28 | 00:00:00 | |
| DL3AQ-11 | 2026-09-02 11:46:34 | 52.37285 | 8.75558 | 120° | 78km/h | 7189m | -4.1m/s | -25.8°C | 6.6% | 410.4hPa | 2.6V | 00:00:00 | 00:00:00 | 00:00:00 | |
| DL1XH-15 | 2026-09-02 11:46:33 | 52.37332 | 8.75432 | 118° | 66km/h | 7211m | -4.6m/s | -25.9°C | 7.6% | 409hPa | 2.6V | 07:52:01 | 02:09:22 | 00:00:00 | |
| HSKMA3-T | 2026-09-02 11:46:32 | 52.37295 | 8.75531 | 120° | 75km/h | 7194m | -4.4m/s | -25.8°C | 7.6% | 410.1hPa | 2.6V | 07:52:11 | 02:09:26 | 00:00:00 | |
| AA1-15 | 2026-09-02 11:46:28 | 52.37332 | 8.75432 | 119° | 66km/h | 7211m | -4.6m/s | -25.9°C | 7.8% | 409hPa | 2.6V | 07:52:11 | 02:09:22 | 00:00:00 | |
| DM0DOS-11 | 2026-09-02 11:46:26 | 52.37355 | 8.75362 | 115° | 62km/h | 7224m | -4.4m/s | -26°C | 8.3% | 408.4hPa | 2.5V | 07:52:04 | 02:09:19 | 00:00:00 | |
| DL1XH-west | 2026-09-02 11:46:24 | 52.37362 | 8.75339 | 113° | 64km/h | 7229m | -4.3m/s | -26°C | 9.1% | 408hPa | 2.5V | 07:52:11 | 02:09:18 | 00:00:00 | |
| DL1XH1-15 | 2026-09-02 11:46:23 | 52.37373 | 8.75291 | 108° | 62km/h | 7237m | -4.2m/s | -26.1°C | 9.3% | 407.6hPa | 2.6V | 07:52:07 | 02:09:16 | 00:00:00 | |
| HSKMA3-T | 2026-09-02 11:46:22 | 52.37373 | 8.75291 | 108° | 62km/h | 7237m | -4.2m/s | -26.1°C | 10.1% | 407.6hPa | 2.6V | 07:52:11 | 02:09:16 | 00:00:00 | |
| BIOWL1-15 | 2026-09-02 11:46:21 | 52.37379 | 8.75266 | 109° | 66km/h | 7242m | -4.4m/s | -26.1°C | 10.6% | 407.4hPa | 2.6V | 07:52:11 | 02:09:15 | 00:00:00 | |
| AA1-15 | 2026-09-02 11:46:18 | 52.37401 | 8.75158 | 107° | 75km/h | 7259m | -4.2m/s | -26.3°C | 11.6% | 406.5hPa | 2.6V | 07:53:02 | 02:09:11 | 00:00:00 | |
| DO2JMG | 2026-09-02 11:46:14 | 52.37418 | 8.75066 | 108° | 78km/h | 7272m | -4.5m/s | -26.3°C | 12.8% | 405.7hPa | 2.5V | 07:53:02 | 02:09:08 | 00:00:00 | |
| GOEST3-10 | 2026-09-02 11:46:14 | 52.37418 | 8.75066 | 108° | 82km/h | 7272m | -4.4m/s | -26.3°C | 11.3% | 405.6hPa | 2.5V | 00:00:00 | 00:00:00 | 00:00:00 | |
| DL1XH-15 | 2026-09-02 11:46:13 | 52.37471 | 8.74883 | 122° | 80km/h | 7297m | -4.4m/s | -26.5°C | 12.4% | 404.3hPa | 2.5V | 07:52:21 | 02:09:02 | 00:00:00 | |
| DL1XH-west | 2026-09-02 11:46:13 | 52.37425 | 8.75035 | 110° | 80km/h | 7276m | -4.2m/s | -26.4°C | 13.1% | 405.5hPa | 2.6V | 07:53:02 | 02:09:07 | 00:00:00 | |
| BIOWL1-15 | 2026-09-02 11:46:12 | 52.37450 | 8.74941 | 117° | 82km/h | 7289m | -4.5m/s | -26.5°C | 13.7% | 404.7hPa | 2.5V | 07:53:02 | 02:09:04 | 00:00:00 | |
| HSKMA3-T | 2026-09-02 11:46:11 | 52.37441 | 8.74972 | 115° | 82km/h | 7285m | -4.6m/s | -26.4°C | 13.5% | 404.9hPa | 2.6V | 07:53:02 | 02:09:05 | 00:00:00 | |
| AA1-15 | 2026-09-02 11:46:07 | 52.37482 | 8.74855 | 124° | 84km/h | 7302m | -4.9m/s | -26.5°C | 14.5% | 404hPa | 2.6V | 07:53:02 | 02:09:01 | 00:00:00 | |
| DO2JMG | 2026-09-02 11:46:04 | 52.37517 | 8.74768 | 120° | 84km/h | 7316m | -4.4m/s | -26.7°C | 14.9% | 403.1hPa | 2.5V | 07:53:02 | 02:08:58 | 00:00:00 | |
| GOEST3-10 | 2026-09-02 11:46:04 | 52.37517 | 8.74768 | 120° | 78km/h | 7316m | -4.4m/s | -26.6°C | 13.2% | 403.1hPa | 2.5V | 00:00:00 | 00:00:00 | 00:00:00 | |
| DL1XH1-15 | 2026-09-02 11:46:03 | 52.37535 | 8.74708 | 111° | 77km/h | 7324m | -3.9m/s | -26.7°C | 13.5% | 402.8hPa | 2.5V | 07:52:27 | 02:08:56 | 00:00:00 | |
| DL1XH-15 | 2026-09-02 11:46:03 | 52.37561 | 8.74590 | 110° | 77km/h | 7340m | -4.3m/s | -26.9°C | 14.1% | 401.7hPa | 2.5V | 07:52:31 | 02:08:52 | 00:00:00 | |
| DL1XH-west | 2026-09-02 11:46:02 | 52.37535 | 8.74708 | 112° | 77km/h | 7324m | -3.9m/s | -26.7°C | 15.4% | 402.8hPa | 2.5V | 07:53:02 | 02:08:56 | 00:00:00 | |
| HSKMA3-T | 2026-09-02 11:46:01 | 52.37542 | 8.74678 | 110° | 75km/h | 7328m | -4m/s | -26.8°C | 15.7% | 402.6hPa | 2.6V | 07:53:02 | 02:08:55 | 00:00:00 | |
| BIOWL1-15 | 2026-09-02 11:46:01 | 52.37554 | 8.74620 | 109° | 75km/h | 7337m | -4.2m/s | -26.8°C | 16% | 402hPa | 2.6V | 07:53:02 | 02:08:53 | 00:00:00 | |
| DL4BBY-15 | 2026-09-02 11:46:00 | 52.37548 | 8.74649 | 109° | 78km/h | 7332m | -4.3m/s | -27.6°C | 0% | 0hPa | 2.6V | 00:00:00 | 00:00:00 | 00:00:00 | |
| GOEST3-10 | 2026-09-02 11:45:59 | 52.37554 | 8.74620 | 109° | 80km/h | 7337m | -4.2m/s | -26.8°C | 14.1% | 401.9hPa | 2.6V | 00:00:00 | 02:08:53 | 00:00:00 | |
| DL1XH1-15 | 2026-09-02 11:45:57 | 52.37618 | 8.74410 | 119° | 82km/h | 7366m | -4.9m/s | -27.1°C | 14.4% | 400.4hPa | 2.6V | 07:52:37 | 02:08:46 | 00:00:00 | |
| AA1-15 | 2026-09-02 11:45:57 | 52.37577 | 8.74530 | 116° | 82km/h | 7349m | -4.2m/s | -26.9°C | 16.1% | 401.3hPa | 2.6V | 07:53:02 | 02:08:50 | 00:00:00 | |
| DO2JMG | 2026-09-02 11:45:54 | 52.37597 | 8.74469 | 120° | 82km/h | 7357m | -4.2m/s | -27°C | 16.2% | 400.9hPa | 2.5V | 07:53:02 | 02:08:48 | 00:00:00 | |
| GOEST3-10 | 2026-09-02 11:45:54 | 52.37597 | 8.74469 | 120° | 82km/h | 7357m | -4.1m/s | -26.9°C | 14.4% | 400.9hPa | 2.5V | 07:52:00 | 00:00:00 | 00:00:00 | |
| DL1XH-15 | 2026-09-02 11:45:53 | 52.37652 | 8.74291 | 110° | 77km/h | 7382m | -4.1m/s | -27.2°C | 15.1% | 399.4hPa | 2.5V | 07:52:41 | 02:08:42 | 00:00:00 | |
| DL1XH-west | 2026-09-02 11:45:51 | 52.37628 | 8.74380 | 117° | 82km/h | 7370m | -4.6m/s | -27.1°C | 16.4% | 400.1hPa | 2.6V | 07:53:02 | 02:08:45 | 00:00:00 | |
| BIOWL1-15 | 2026-09-02 11:45:49 | 52.37645 | 8.74320 | 112° | 77km/h | 7378m | -4m/s | -27.1°C | 16.9% | 399.7hPa | 2.5V | 07:53:02 | 02:08:43 | 00:00:00 | |
| GOEST3-10 | 2026-09-02 11:45:49 | 52.37645 | 8.74320 | 113° | 78km/h | 7379m | -4.0m/s | -27.1°C | 14.8% | 399.6hPa | 2.6V | 00:00:00 | 02:08:43 | 00:00:00 | |
| DM0DOS-11 | 2026-09-02 11:45:46 | 52.37674 | 8.74200 | 113° | 82km/h | 7396m | -4.3m/s | -27.3°C | 15.5% | 398.6hPa | 2.6V | 07:52:44 | 02:08:39 | 00:00:00 | |
| AA1-15 | 2026-09-02 11:45:45 | 52.37674 | 8.74200 | 114° | 82km/h | 7396m | -4.3m/s | -27.3°C | 17.9% | 398.6hPa | 2.6V | 07:53:02 | 02:08:39 | 00:00:00 | |
| GOEST3-10 | 2026-09-02 11:45:44 | 52.37683 | 8.74169 | 116° | 84km/h | 7400m | -4.5m/s | -27.3°C | 15.5% | 398.4hPa | 2.6V | 00:00:00 | 00:00:00 | 00:00:00 | |
| DL1XH1-15 | 2026-09-02 11:45:43 | 52.37704 | 8.74107 | 120° | 84km/h | 7409m | -4.5m/s | -27.4°C | 15.8% | 397.9hPa | 2.5V | 07:52:47 | 02:08:36 | 00:00:00 | |
| DO2JMG | 2026-09-02 11:45:43 | 52.37693 | 8.74138 | 119° | 86km/h | 7405m | -4.3m/s | -27.4°C | 17.9% | 398.1hPa | 2.5V | 07:53:02 | 02:08:37 | 00:00:00 | |
| DD8BA-10 | 2026-09-02 11:45:43 | 52.37693 | 8.74138 | 120° | 80km/h | 7405m | -4.2m/s | -27.3°C | 15.6% | 398.0hPa | 2.5V | 00:00:00 | 00:00:00 | 00:00:00 | |
| DK9SH | 2026-09-02 11:45:42 | 52.37704 | 8.74107 | 122° | 84km/h | 7409m | -4.5m/s | -27.4°C | 14.5% | 398.0hPa | 2.5V | 07:53:00 | 00:00:00 | 00:00:00 | |
| DD1CC3-15 | 2026-09-02 11:45:41 | 52.37704 | 8.74107 | 122° | 84km/h | 7409m | -4.5m/s | -27.4°C | 14.5% | 398.0hPa | 2.5V | 07:53:00 | 00:00:00 | 00:00:00 | |
| DM0DOS-11 | 2026-09-02 11:45:40 | 52.37789 | 8.73927 | 131° | 71km/h | 7441m | -4.8m/s | -27.6°C | 16.1% | 396.2hPa | 2.5V | 07:52:54 | 02:08:29 | 00:00:00 | |
| DB0DAN | 2026-09-02 11:45:40 | 52.37727 | 8.74050 | 127° | 77km/h | 7418m | -4.4m/s | -27.5°C | 14.6% | 397.36hPa | 2.6V | 00:00:00 | 00:00:00 | 00:00:00 | |
| DL1XH-west | 2026-09-02 11:45:40 | 52.37727 | 8.74050 | 127° | 82km/h | 7418m | -4.4m/s | -27.5°C | 18.2% | 397.4hPa | 2.6V | 07:53:02 | 02:08:34 | 00:00:00 | |
| BIOWL1-15 | 2026-09-02 11:45:39 | 52.37740 | 8.74024 | 128° | 78km/h | 7422m | -4.5m/s | -27.5°C | 18.3% | 397.2hPa | 2.6V | 07:53:02 | 02:08:33 | 00:00:00 | |
| AA1-15 | 2026-09-02 11:45:35 | 52.37801 | 8.73906 | 131° | 68km/h | 7445m | -4.5m/s | -27.7°C | 18.4% | 396.1hPa | 2.6V | 07:53:02 | 02:08:28 | 00:00:00 | |
| DO2JMG | 2026-09-02 11:45:33 | 52.37811 | 8.73885 | 129° | 64km/h | 7450m | -4.4m/s | -27.7°C | 18.5% | 395.8hPa | 2.6V | 07:53:02 | 02:08:27 | 00:00:00 | |
| DD8BA-10 | 2026-09-02 11:45:33 | 52.37811 | 8.73885 | 129° | 64km/h | 7450m | -4.4m/s | -27.7°C | 16.2% | 395.7hPa | 2.6V | 00:00:00 | 00:00:00 | 00:00:00 | |
| DL1XH-15 | 2026-09-02 11:45:32 | 52.37857 | 8.73781 | 121° | 60km/h | 7473m | -5.3m/s | -27.9°C | 16.1% | 394.5hPa | 2.6V | 07:53:01 | 02:08:22 | 00:00:00 | |
| DL1XH-west | 2026-09-02 11:45:29 | 52.37858 | 8.73781 | 121° | 60km/h | 7473m | -5.3m/s | -27.9°C | 18.5% | 394.5hPa | 2.6V | 07:53:02 | 02:08:22 | 00:00:00 | |
| GOEST3-10 | 2026-09-02 11:45:29 | 52.37849 | 8.73802 | 123° | 64km/h | 7468m | -5.3m/s | -27.8°C | 16.2% | 394.6hPa | 2.6V | 00:00:00 | 02:08:23 | 00:00:00 | |
| DM0DOS-11 | 2026-09-02 11:45:26 | 52.37879 | 8.73711 | 113° | 68km/h | 7487m | -4.7m/s | -28.1°C | 15.9% | 393.6hPa | 2.6V | 07:53:04 | 02:08:19 | 00:00:00 | |
| AA1-15 | 2026-09-02 11:45:23 | 52.37894 | 8.73657 | 114° | 73km/h | 7496m | -4.6m/s | -28.1°C | 17.4% | 393.2hPa | 2.5V | 07:53:53 | 02:08:17 | 00:00:00 | |
| DL1XH1-15 | 2026-09-02 11:45:23 | 52.37902 | 8.73629 | 114° | 75km/h | 7500m | -4.5m/s | -28.1°C | 14.9% | 393hPa | 2.5V | 07:53:07 | 02:08:16 | 00:00:00 | |
| DO2JMG | 2026-09-02 11:45:22 | 52.37902 | 8.73629 | 115° | 75km/h | 7500m | -4.5m/s | -28.2°C | 17.2% | 393hPa | 2.5V | 07:53:53 | 02:08:16 | 00:00:00 | |
| DL1XH-15 | 2026-09-02 11:45:21 | 52.37941 | 8.73512 | 121° | 82km/h | 7517m | -4.6m/s | -28.3°C | 16.6% | 391.9hPa | 2.5V | 07:53:11 | 02:08:12 | 00:00:00 | |
| DM0DOS-11 | 2026-09-02 11:45:20 | 52.37977 | 8.73424 | 126° | 84km/h | 7532m | -4.6m/s | -28.4°C | 17.5% | 391.3hPa | 2.6V | 07:53:14 | 02:08:09 | 00:00:00 | |
| DL1XH-west | 2026-09-02 11:45:19 | 52.37964 | 8.73453 | 126° | 88km/h | 7527m | -4.6m/s | -28.4°C | 19.9% | 391.5hPa | 2.6V | 07:53:53 | 02:08:10 | 00:00:00 | |
| HSKMA3-T | 2026-09-02 11:45:19 | 52.37941 | 8.73512 | 122° | 82km/h | 7517m | -4.6m/s | -28.3°C | 19.2% | 391.9hPa | 2.5V | 07:53:53 | 02:08:12 | 00:00:00 | |
| DL1XH1-15 | 2026-09-02 11:45:18 | 52.38017 | 8.73344 | 131° | 82km/h | 7547m | -4.9m/s | -28.5°C | 18.5% | 390.5hPa | 2.5V | 07:53:17 | 02:08:06 | 00:00:00 | |
| AA1-15 | 2026-09-02 11:45:13 | 52.38003 | 8.73370 | 131° | 82km/h | 7542m | -4.8m/s | -28.5°C | 20.6% | 390.7hPa | 2.5V | 07:53:53 | 02:08:07 | 00:00:00 | |
| DO2JMG | 2026-09-02 11:45:11 | 52.38030 | 8.73319 | 132° | 75km/h | 7551m | -5.1m/s | -28.6°C | 21.2% | 390.3hPa | 2.6V | 07:53:53 | 02:08:05 | 00:00:00 | |
| DL1XH-west | 2026-09-02 11:45:08 | 52.38067 | 8.73256 | 133° | 66km/h | 7565m | -4.8m/s | -28.7°C | 22.5% | 389.5hPa | 2.5V | 07:53:53 | 02:08:02 | 00:00:00 | |
| DM0DOS-11 | 2026-09-02 11:45:07 | 52.38097 | 8.73195 | 121° | 60km/h | 7578m | -4.6m/s | -28.8°C | 20.9% | 388.7hPa | 2.6V | 07:53:24 | 02:07:59 | 00:00:00 | |
| AA1-15 | 2026-09-02 11:45:03 | 52.38113 | 8.73150 | 118° | 68km/h | 7586m | -5.2m/s | -28.9°C | 24.3% | 388.3hPa | 2.6V | 07:53:53 | 02:07:57 | 00:00:00 | |
| DF5WG-10 | 2026-09-02 11:45:03 | 52.38113 | 8.73150 | 118° | 78km/h | 7586m | -5.1m/s | -28.8°C | 21.1% | 388.2hPa | 2.6V | 00:00:00 | 02:07:57 | 00:00:00 | |
| DL1XH-15 | 2026-09-02 11:45:01 | 52.38152 | 8.73010 | 116° | 80km/h | 7610m | -4.6m/s | -29.1°C | 21.8% | 387hPa | 2.6V | 07:53:31 | 02:07:52 | 00:00:00 | |
| DO2JMG | 2026-09-02 11:45:01 | 52.38128 | 8.73097 | 113° | 73km/h | 7596m | -5.3m/s | -29°C | 24.6% | 387.7hPa | 2.5V | 07:53:53 | 02:07:55 | 00:00:00 | |
| DL1XH-west | 2026-09-02 11:44:57 | 52.38162 | 8.72980 | 119° | 86km/h | 7615m | -4.1m/s | -29.1°C | 25.3% | 386.6hPa | 2.6V | 07:53:53 | 02:07:51 | 00:00:00 | |
| DM0DOS-11 | 2026-09-02 11:44:56 | 52.38184 | 8.72919 | 123° | 88km/h | 7623m | -4.5m/s | -29.2°C | 22.9% | 386.3hPa | 2.5V | 07:53:34 | 02:07:49 | 00:00:00 | |
| DC6BW-12 | 2026-09-02 11:44:55 | 52.38173 | 8.72949 | 122° | 88km/h | 7619m | -4.9m/s | -29.2°C | 20.8% | 386.5hPa | 2.5V | 07:53:00 | 00:00:00 | 00:00:00 | |
| GOEST3-10 | 2026-09-02 11:44:54 | 52.38197 | 8.72888 | 125° | 88km/h | 7628m | -4.4m/s | -29.2°C | 23.0% | 386.0hPa | 2.5V | 00:00:00 | 00:00:00 | 00:00:00 | |
| DL1XH-15 | 2026-09-02 11:44:53 | 52.38262 | 8.72707 | 115° | 78km/h | 7654m | -4.3m/s | -29.5°C | 23.9% | 384.6hPa | 2.5V | 07:53:41 | 02:07:42 | 00:00:00 | |
| AA1-15 | 2026-09-02 11:44:52 | 52.38222 | 8.72828 | 124° | 89km/h | 7637m | -5m/s | -29.3°C | 26.1% | 385.4hPa | 2.6V | 07:53:53 | 02:07:46 | 00:00:00 | |
| DO2JMG | 2026-09-02 11:44:50 | 52.38244 | 8.72767 | 118° | 82km/h | 7646m | -4.5m/s | -29.4°C | 26.3% | 385.1hPa | 2.5V | 07:53:53 | 02:07:44 | 00:00:00 | |
| BIOWL1-15 | 2026-09-02 11:44:47 | 52.38271 | 8.72679 | 114° | 77km/h | 7658m | -4.3m/s | -29.5°C | 27% | 384.3hPa | 2.6V | 07:53:53 | 02:07:41 | 00:00:00 | |
| HSKMA3-T | 2026-09-02 11:44:47 | 52.38279 | 8.72650 | 114° | 77km/h | 7662m | -4.7m/s | -29.6°C | 27.1% | 384.1hPa | 2.6V | 07:53:53 | 02:07:40 | 00:00:00 | |
| DL1XH-west | 2026-09-02 11:44:47 | 52.38287 | 8.72620 | 114° | 78km/h | 7666m | -4.3m/s | -29.6°C | 27.2% | 383.9hPa | 2.6V | 07:53:53 | 02:07:39 | 00:00:00 | |
| DL3AQ-11 | 2026-09-02 11:44:46 | 52.38287 | 8.72620 | 114° | 78km/h | 7666m | -4.3m/s | -29.6°C | 22.3% | 383.9hPa | 2.6V | 00:00:00 | 00:00:00 | 00:00:00 | |
| DJ2DS-15 | 2026-09-02 11:44:44 | 52.38295 | 8.72590 | 114° | 80km/h | 7670m | -4.4m/s | -29.7°C | 22.3% | 383.7hPa | 2.6V | 00:00:00 | 00:00:00 | 00:00:00 | |
| AA1-15 | 2026-09-02 11:44:42 | 52.38326 | 8.72497 | 121° | 89km/h | 7684m | -4.6m/s | -29.8°C | 27.8% | 382.9hPa | 2.6V | 07:53:53 | 02:07:35 | 00:00:00 | |
| DL1XH-15 | 2026-09-02 11:44:41 | 52.38362 | 8.72403 | 122° | 89km/h | 7697m | -4.4m/s | -29.9°C | 25.4% | 382.2hPa | 2.5V | 07:53:51 | 02:07:32 | 00:00:00 | |
| DO2JMG | 2026-09-02 11:44:40 | 52.38337 | 8.72465 | 122° | 89km/h | 7688m | -4.6m/s | -29.8°C | 28.1% | 382.7hPa | 2.6V | 07:53:53 | 02:07:34 | 00:00:00 | |
| DL1XH-west | 2026-09-02 11:44:36 | 52.38384 | 8.72341 | 118° | 86km/h | 7704m | -4.2m/s | -30°C | 28.8% | 381.7hPa | 2.5V | 07:53:53 | 02:07:30 | 00:00:00 | |
| DL1XH1-15 | 2026-09-02 11:44:35 | 52.38421 | 8.72216 | 114° | 82km/h | 7720m | -4.4m/s | -30.2°C | 26.2% | 380.8hPa | 2.5V | 07:53:57 | 02:07:26 | 00:00:00 | |
| GOEST3-10 | 2026-09-02 11:44:34 | 52.38403 | 8.72278 | 116° | 86km/h | 7712m | -4.1m/s | -30.0°C | 26.1% | 381.2hPa | 2.6V | 07:53:00 | 00:00:00 | 00:00:00 | |
| DL1XH-15 | 2026-09-02 11:44:33 | 52.38464 | 8.72089 | 122° | 89km/h | 7736m | -4.4m/s | -30.3°C | 27.2% | 379.9hPa | 2.6V | 07:54:01 | 02:07:22 | 00:00:00 | |
| AA1-15 | 2026-09-02 11:44:30 | 52.38441 | 8.72152 | 118° | 88km/h | 7728m | -4.3m/s | -30.3°C | 30% | 380.4hPa | 2.5V | 07:54:44 | 02:07:24 | 00:00:00 | |
| DO2JMG | 2026-09-02 11:44:29 | 52.38452 | 8.72120 | 122° | 91km/h | 7732m | -4.6m/s | -30.3°C | 30.3% | 380.1hPa | 2.6V | 07:54:44 | 02:07:23 | 00:00:00 | |
| DF5WG-10 | 2026-09-02 11:44:29 | 52.38452 | 8.72120 | 122° | 80km/h | 7732m | -4.5m/s | -30.2°C | 26.9% | 380.0hPa | 2.6V | 00:00:00 | 02:07:23 | 00:00:00 | |
| DL1XH1-15 | 2026-09-02 11:44:27 | 52.38547 | 8.71913 | 131° | 86km/h | 7763m | -5.2m/s | -30.5°C | 28.8% | 378.4hPa | 2.6V | 07:54:07 | 02:07:16 | 00:00:00 | |
| DM0DOS-11 | 2026-09-02 11:44:26 | 52.38505 | 8.71997 | 127° | 89km/h | 7749m | -5m/s | -30.4°C | 27.9% | 379.2hPa | 2.5V | 07:54:04 | 02:07:19 | 00:00:00 | |
| BIOWL1-15 | 2026-09-02 11:44:26 | 52.38491 | 8.72027 | 127° | 89km/h | 7745m | -4.4m/s | -30.4°C | 30.9% | 379.5hPa | 2.5V | 07:54:44 | 02:07:20 | 00:00:00 | |
| DL1XH-west | 2026-09-02 11:44:25 | 52.38505 | 8.71997 | 127° | 89km/h | 7749m | -5m/s | -30.4°C | 31.1% | 379.2hPa | 2.5V | 07:54:44 | 02:07:19 | 00:00:00 | |
| GOEST3-10 | 2026-09-02 11:44:24 | 52.38519 | 8.71968 | 130° | 84km/h | 7754m | -4.4m/s | -30.4°C | 28.2% | 379.0hPa | 2.5V | 00:00:00 | 00:00:00 | 00:00:00 | |
| DD8BA-10 | 2026-09-02 11:44:23 | 52.38533 | 8.71940 | 130° | 75km/h | 7758m | -5.1m/s | -30.5°C | 28.5% | 378.6hPa | 2.5V | 00:00:00 | 00:00:00 | 00:00:00 | |
| DL1XH-15 | 2026-09-02 11:44:21 | 52.38601 | 8.71816 | 129° | 71km/h | 7782m | -4.5m/s | -30.7°C | 29.9% | 377.5hPa | 2.5V | 07:54:11 | 02:07:12 | 00:00:00 | |
| DL4XJ-10 | 2026-09-02 11:44:20 | 52.38575 | 8.71863 | 133° | 82km/h | 7772m | -4.8m/s | -31.4°C | 0% | 0hPa | 2.5V | 00:00:00 | 00:00:00 | 00:00:00 | |
| GOEST3-10 | 2026-09-02 11:44:19 | 52.38588 | 8.71840 | 131° | 69km/h | 7777m | -4.8m/s | -30.6°C | 29.6% | 377.6hPa | 2.5V | 00:00:00 | 02:07:13 | 00:00:00 | |
| DO2JMG | 2026-09-02 11:44:19 | 52.38588 | 8.71840 | 131° | 75km/h | 7777m | -4.8m/s | -30.7°C | 32.5% | 377.7hPa | 2.5V | 07:54:44 | 02:07:13 | 00:00:00 | |
| DL3AQ-11 | 2026-09-02 11:44:18 | 52.38600 | 8.71816 | 129° | 71km/h | 7782m | -4.5m/s | -30.7°C | 27.8% | 377.5hPa | 2.5V | 00:00:00 | 00:00:00 | 00:00:00 | |
| DL1XH1-15 | 2026-09-02 11:44:17 | 52.38655 | 8.71670 | 113° | 77km/h | 7808m | -5m/s | -30.9°C | 30.7% | 376hPa | 2.5V | 07:54:17 | 02:07:06 | 00:00:00 | |
| HSKMA3-T | 2026-09-02 11:44:16 | 52.38631 | 8.71747 | 120° | 66km/h | 7794m | -5.1m/s | -30.8°C | 33.9% | 376.7hPa | 2.6V | 07:54:44 | 02:07:09 | 00:00:00 | |
| BIOWL1-15 | 2026-09-02 11:44:15 | 52.38647 | 8.71697 | 116° | 71km/h | 7803m | -4.8m/s | -30.9°C | 34.4% | 376.2hPa | 2.5V | 07:54:44 | 02:07:07 | 00:00:00 | |
| DL1XH-west | 2026-09-02 11:44:14 | 52.38639 | 8.71723 | 117° | 68km/h | 7799m | -4.9m/s | -30.9°C | 34.2% | 376.5hPa | 2.5V | 07:54:44 | 02:07:08 | 00:00:00 | |
| DL1XH-15 | 2026-09-02 11:44:13 | 52.38692 | 8.71539 | 117° | 95km/h | 7826m | -5.5m/s | -31.1°C | 31.1% | 375hPa | 2.5V | 07:54:21 | 02:07:02 | 00:00:00 | |
| DD8BA-10 | 2026-09-02 11:44:13 | 52.38647 | 8.71697 | 116° | 89km/h | 7803m | -4.7m/s | -30.9°C | 30.8% | 376.1hPa | 2.6V | 00:00:00 | 00:00:00 | 00:00:00 | |
| DB0DAN | 2026-09-02 11:44:10 | 52.38672 | 8.71607 | 113° | 84km/h | 7816m | -4.8m/s | -31°C | 28.6% | 375.58hPa | 2.6V | 00:00:00 | 00:00:00 | 00:00:00 | |
| DO2JMG | 2026-09-02 11:44:08 | 52.38692 | 8.71539 | 117° | 95km/h | 7826m | -5.5m/s | -31.1°C | 34.8% | 375.1hPa | 2.5V | 07:54:44 | 02:07:02 | 00:00:00 | |
| DJ2DS-15 | 2026-09-02 11:44:08 | 52.38692 | 8.71539 | 117° | 93km/h | 7826m | -5.5m/s | -31.1°C | 28.9% | 375.1hPa | 2.6V | 00:00:00 | 00:00:00 | 00:00:00 | |
| DM0DOS-11 | 2026-09-02 11:44:06 | 52.38730 | 8.71437 | 125° | 97km/h | 7842m | -5m/s | -31.2°C | 31.7% | 374.3hPa | 2.6V | 07:54:24 | 02:06:59 | 00:00:00 | |
| HSKMA3-T | 2026-09-02 11:44:05 | 52.38730 | 8.71437 | 126° | 97km/h | 7842m | -5m/s | -31.2°C | 35% | 374.3hPa | 2.6V | 07:54:44 | 02:06:59 | 00:00:00 | |
| DL1XH-west | 2026-09-02 11:44:04 | 52.38745 | 8.71406 | 129° | 95km/h | 7847m | -4.7m/s | -31.3°C | 35.1% | 374.1hPa | 2.6V | 07:54:44 | 02:06:58 | 00:00:00 | |
| BIOWL1-15 | 2026-09-02 11:44:03 | 52.38814 | 8.71272 | 129° | 77km/h | 7871m | -5.4m/s | -31.5°C | 36.4% | 372.9hPa | 2.5V | 07:54:44 | 02:06:53 | 00:00:00 | |
| DD8BA-10 | 2026-09-02 11:44:03 | 52.38760 | 8.71376 | 131° | 77km/h | 7852m | -4.6m/s | -31.3°C | 32.3% | 373.8hPa | 2.5V | 00:00:00 | 00:00:00 | 00:00:00 | |
| BUE01 | 2026-09-02 11:44:02 | 52.38774 | 8.71348 | 131° | 84km/h | 7857m | -5.0m/s | -31.3°C | 30.4% | 373.6hPa | 2.5V | 00:00:00 | 00:00:00 | 00:00:00 | |
| DF5WG-10 | 2026-09-02 11:44:01 | 52.38788 | 8.71322 | 131° | 78km/h | 7861m | -5.2m/s | -31.3°C | 33.0% | 373.4hPa | 2.5V | 00:00:00 | 02:06:55 | 00:00:00 | |
| DM0DOS-11 | 2026-09-02 11:44:00 | 52.38851 | 8.71172 | 113° | 73km/h | 7888m | -5.1m/s | -31.6°C | 34.6% | 372hPa | 2.5V | 07:54:34 | 02:06:49 | 00:00:00 | |
| DO2JMG | 2026-09-02 11:43:57 | 52.38835 | 8.71224 | 120° | 69km/h | 7880m | -4.6m/s | -31.5°C | 37.2% | 372.4hPa | 2.6V | 07:54:44 | 02:06:51 | 00:00:00 | |
| DB0DAN | 2026-09-02 11:43:55 | 52.38851 | 8.71172 | 113° | 69km/h | 7888m | -5.1m/s | -31.6°C | 32.2% | 371.96hPa | 2.5V | 00:00:00 | 00:00:00 | 00:00:00 | |
| HSKMA3-T | 2026-09-02 11:43:54 | 52.38859 | 8.71144 | 113° | 75km/h | 7893m | -5.1m/s | -31.7°C | 38.1% | 371.8hPa | 2.5V | 07:54:44 | 02:06:48 | 00:00:00 | |
| GOEST3-10 | 2026-09-02 11:43:54 | 52.38859 | 8.71144 | 113° | 84km/h | 7893m | -5.0m/s | -31.6°C | 34.8% | 371.7hPa | 2.6V | 07:54:00 | 00:00:00 | 00:00:00 | |
| DL1XH-15 | 2026-09-02 11:43:53 | 52.38911 | 8.70945 | 117° | 99km/h | 7921m | -4m/s | -31.9°C | 35.5% | 370.4hPa | 2.6V | 07:54:41 | 02:06:42 | 00:00:00 | |
| DL1XH-west | 2026-09-02 11:43:53 | 52.38866 | 8.71115 | 112° | 80km/h | 7897m | -4.9m/s | -31.7°C | 38.4% | 371.7hPa | 2.6V | 07:54:44 | 02:06:47 | 00:00:00 | |
| DD8BA-10 | 2026-09-02 11:43:53 | 52.38866 | 8.71114 | 113° | 91km/h | 7898m | -4.8m/s | -31.7°C | 35.0% | 371.7hPa | 2.6V | 00:00:00 | 00:00:00 | 00:00:00 | |
| DD1CC2-15 | 2026-09-02 11:43:52 | 52.38866 | 8.71114 | 113° | 80km/h | 7898m | -4.9m/s | -31.7°C | 32.6% | 371.7hPa | 2.6V | 07:54:00 | 00:00:00 | 00:00:00 | |
| GOEST3-10 | 2026-09-02 11:43:49 | 52.38900 | 8.70981 | 115° | 97km/h | 7917m | -4.7m/s | -31.8°C | 35.4% | 370.5hPa | 2.6V | 00:00:00 | 02:06:43 | 00:00:00 | |
| DF5WG-10 | 2026-09-02 11:43:48 | 52.38911 | 8.70945 | 118° | 95km/h | 7921m | -4.0m/s | -31.9°C | 35.5% | 370.4hPa | 2.6V | 00:00:00 | 02:06:42 | 00:00:00 | |
| DL1XH1-15 | 2026-09-02 11:43:47 | 52.38992 | 8.70756 | 126° | 80km/h | 7951m | -4.8m/s | -32.2°C | 36.4% | 368.8hPa | 2.6V | 07:54:47 | 02:06:36 | 00:00:00 | |
| DO2JMG | 2026-09-02 11:43:46 | 52.38936 | 8.70876 | 123° | 95km/h | 7932m | -4.5m/s | -32°C | 39.3% | 369.8hPa | 2.5V | 07:54:44 | 02:06:40 | 00:00:00 | |
| DM0DOS-11 | 2026-09-02 11:43:46 | 52.38950 | 8.70843 | 126° | 97km/h | 7936m | -4.8m/s | -32°C | 35.8% | 369.6hPa | 2.5V | 07:54:44 | 02:06:39 | 00:00:00 | |
| HSKMA3-T | 2026-09-02 11:43:44 | 52.38965 | 8.70812 | 128° | 93km/h | 7941m | -5.3m/s | -32.1°C | 39.4% | 369.2hPa | 2.6V | 07:55:35 | 02:06:38 | 00:00:00 | |
| DL1XH-west | 2026-09-02 11:43:43 | 52.38979 | 8.70783 | 128° | 86km/h | 7946m | -5m/s | -32.1°C | 39.6% | 369hPa | 2.6V | 07:55:35 | 02:06:37 | 00:00:00 | |
| BIOWL1-15 | 2026-09-02 11:43:42 | 52.38992 | 8.70756 | 126° | 80km/h | 7951m | -4.8m/s | -32.2°C | 39.8% | 368.8hPa | 2.6V | 07:55:35 | 02:06:36 | 00:00:00 | |
| DL1XH-15 | 2026-09-02 11:43:41 | 52.39029 | 8.70652 | 112° | 71km/h | 7966m | -4.5m/s | -32.4°C | 36.8% | 367.9hPa | 2.6V | 07:54:51 | 02:06:32 | 00:00:00 | |
| DM0DOS-11 | 2026-09-02 11:43:40 | 52.39051 | 8.70562 | 111° | 84km/h | 7978m | -4.4m/s | -32.5°C | 37.1% | 367.2hPa | 2.5V | 07:54:54 | 02:06:29 | 00:00:00 | |
| DJ2DS-15 | 2026-09-02 11:43:40 | 52.39013 | 8.70704 | 121° | 88km/h | 7959m | -3.9m/s | -32.2°C | 36.6% | 368.4hPa | 2.6V | 00:00:00 | 02:06:34 | 00:00:00 | |
| DD1CC3-15 | 2026-09-02 11:43:39 | 52.39013 | 8.70704 | 121° | 71km/h | 7959m | -3.9m/s | -32.3°C | 34.1% | 368.5hPa | 2.6V | 07:55:00 | 00:00:00 | 00:00:00 | |
| SONCRA | 2026-09-02 11:43:38 | 52.39036 | 8.70624 | 110° | 75km/h | 7970m | -4.7m/s | -32.4°C | 34.3% | 367.7hPa | 2.6V | 00:00:00 | 00:00:00 | 00:00:00 | |
| DL1XH1-15 | 2026-09-02 11:43:37 | 52.39077 | 8.70460 | 115° | 91km/h | 7990m | -4m/s | -32.6°C | 37.6% | 366.5hPa | 2.6V | 07:54:57 | 02:06:26 | 00:00:00 | |
| AA1-15 | 2026-09-02 11:43:36 | 52.39051 | 8.70562 | 111° | 84km/h | 7978m | -4.4m/s | -32.5°C | 40.6% | 367.2hPa | 2.5V | 07:55:35 | 02:06:29 | 00:00:00 | |
| DO2JMG | 2026-09-02 11:43:36 | 52.39043 | 8.70594 | 110° | 80km/h | 7974m | -4.3m/s | -32.4°C | 40.5% | 367.4hPa | 2.6V | 07:55:35 | 02:06:30 | 00:00:00 | |
| HSKMA3-T | 2026-09-02 11:43:34 | 52.39058 | 8.70529 | 111° | 88km/h | 7982m | -4.8m/s | -32.5°C | 40.6% | 366.9hPa | 2.5V | 07:55:35 | 02:06:28 | 00:00:00 | |
| DL1XH-west | 2026-09-02 11:43:33 | 52.39067 | 8.70495 | 114° | 93km/h | 7987m | -4.2m/s | -32.6°C | 40.7% | 366.7hPa | 2.5V | 07:55:35 | 02:06:27 | 00:00:00 | |
| DD8BA-10 | 2026-09-02 11:43:33 | 52.39067 | 8.70495 | 114° | 95km/h | 7987m | -4.1m/s | -32.5°C | 37.5% | 366.7hPa | 2.5V | 00:00:00 | 00:00:00 | 00:00:00 | |
| DJ2DS-15 | 2026-09-02 11:43:32 | 52.39077 | 8.70460 | 115° | 91km/h | 7990m | -4.0m/s | -32.6°C | 35.0% | 366.5hPa | 2.5V | 00:00:00 | 00:00:00 | 00:00:00 | |
| BUE01 | 2026-09-02 11:43:31 | 52.39087 | 8.70425 | 115° | 93km/h | 7994m | -4.7m/s | -32.7°C | 35.0% | 366.3hPa | 2.5V | 00:00:00 | 00:00:00 | 00:00:00 | |
| DL4BBY-15 | 2026-09-02 11:43:30 | 52.39097 | 8.70390 | 117° | 86km/h | 7999m | -4.8m/s | -33.5°C | 0% | 0hPa | 2.5V | 00:00:00 | 00:00:00 | 00:00:00 | |
| DF5WG-10 | 2026-09-02 11:43:29 | 52.39108 | 8.70354 | 118° | 80km/h | 8004m | -4.8m/s | -32.7°C | 37.7% | 365.8hPa | 2.5V | 00:00:00 | 02:06:23 | 00:00:00 | |
| GOEST3-10 | 2026-09-02 11:43:28 | 52.39119 | 8.70319 | 119° | 95km/h | 8009m | -4.4m/s | -32.7°C | 37.8% | 365.5hPa | 2.5V | 00:00:00 | 02:06:22 | 00:00:00 | |
| DL1XH1-15 | 2026-09-02 11:43:27 | 52.39198 | 8.70130 | 126° | 78km/h | 8034m | -5.1m/s | -33°C | 39.1% | 364.3hPa | 2.5V | 07:55:07 | 02:06:16 | 00:00:00 | |
| DM0DOS-11 | 2026-09-02 11:43:26 | 52.39157 | 8.70219 | 125° | 95km/h | 8021m | -4.3m/s | -32.9°C | 38.4% | 365hPa | 2.6V | 07:55:04 | 02:06:19 | 00:00:00 | |
| DO2JMG | 2026-09-02 11:43:25 | 52.39158 | 8.70219 | 125° | 95km/h | 8021m | -4.3m/s | -32.9°C | 41.1% | 365hPa | 2.6V | 07:55:35 | 02:06:19 | 00:00:00 | |
| HSKMA3-T | 2026-09-02 11:43:24 | 52.39172 | 8.70187 | 127° | 93km/h | 8025m | -4.7m/s | -32.9°C | 41.2% | 364.8hPa | 2.6V | 07:55:35 | 02:06:18 | 00:00:00 | |
| DL1XH-west | 2026-09-02 11:43:23 | 52.39185 | 8.70158 | 126° | 88km/h | 8030m | -4.8m/s | -33°C | 41.3% | 364.4hPa | 2.5V | 07:55:35 | 02:06:17 | 00:00:00 | |
| DD8BA-10 | 2026-09-02 11:43:23 | 52.39185 | 8.70158 | 127° | 77km/h | 8030m | -4.7m/s | -32.9°C | 38.9% | 364.4hPa | 2.5V | 00:00:00 | 00:00:00 | 00:00:00 | |
| DL1XH-15 | 2026-09-02 11:43:21 | 52.39240 | 8.70028 | 114° | 71km/h | 8055m | -4.7m/s | -33.2°C | 39.8% | 363.4hPa | 2.5V | 07:55:11 | 02:06:12 | 00:00:00 | |
| DM0DOS-11 | 2026-09-02 11:43:20 | 52.39260 | 8.69942 | 107° | 80km/h | 8068m | -4.8m/s | -33.3°C | 39.8% | 362.7hPa | 2.6V | 07:55:14 | 02:06:09 | 00:00:00 | |
| DL4XJ-10 | 2026-09-02 11:43:20 | 52.39221 | 8.70080 | 127° | 84km/h | 8044m | -5.4m/s | -33.9°C | 0% | 0hPa | 2.6V | 00:00:00 | 00:00:00 | 00:00:00 | |
| DJ2DS-15 | 2026-09-02 11:43:19 | 52.39231 | 8.70054 | 122° | 84km/h | 8049m | -5.4m/s | -33.1°C | 39.7% | 363.5hPa | 2.6V | 00:00:00 | 02:06:13 | 00:00:00 | |
| GOEST3-10 | 2026-09-02 11:43:18 | 52.39240 | 8.70027 | 115° | 77km/h | 8055m | -4.7m/s | -33.1°C | 39.8% | 363.3hPa | 2.6V | 00:00:00 | 02:06:12 | 00:00:00 | |
| DL1XH1-15 | 2026-09-02 11:43:17 | 52.39289 | 8.69807 | 112° | 95km/h | 8088m | -3.9m/s | -33.5°C | 40% | 361.8hPa | 2.6V | 07:55:18 | 02:06:05 | 00:00:00 | |
| DO2JMG | 2026-09-02 11:43:15 | 52.39261 | 8.69942 | 108° | 80km/h | 8068m | -4.8m/s | -33.3°C | 43.4% | 362.7hPa | 2.6V | 07:55:35 | 02:06:09 | 00:00:00 | |
| HSKMA3-T | 2026-09-02 11:43:14 | 52.39267 | 8.69910 | 107° | 84km/h | 8073m | -5.3m/s | -33.4°C | 43.4% | 362.4hPa | 2.5V | 07:55:35 | 02:06:08 | 00:00:00 | |
| DL1XH-west | 2026-09-02 11:43:12 | 52.39280 | 8.69842 | 110° | 91km/h | 8083m | -4.1m/s | -33.5°C | 43.4% | 362hPa | 2.6V | 07:55:35 | 02:06:06 | 00:00:00 | |
| DD1CC2-15 | 2026-09-02 11:43:12 | 52.39280 | 8.69842 | 111° | 91km/h | 8084m | -4.1m/s | -33.5°C | 37.1% | 362.0hPa | 2.5V | 07:55:00 | 00:00:00 | 00:00:00 | |
| DB0DAN | 2026-09-02 11:43:10 | 52.39299 | 8.69771 | 115° | 93km/h | 8092m | -3.8m/s | -33.5°C | 37.2% | 361.61hPa | 2.5V | 00:00:00 | 00:00:00 | 00:00:00 | |
| SMARD9-10 | 2026-09-02 11:43:09 | 52.39299 | 8.69771 | 116° | 99km/h | 8092m | -3.8m/s | -33.5°C | 37.2% | 361.6hPa | 2.6V | 00:00:00 | 00:00:00 | 00:00:00 | |
| GOEST3-10 | 2026-09-02 11:43:08 | 52.39322 | 8.69699 | 120° | 93km/h | 8100m | -4.1m/s | -33.6°C | 40.2% | 361.1hPa | 2.6V | 00:00:00 | 02:06:02 | 00:00:00 | |
| BIOWL1-15 | 2026-09-02 11:43:08 | 52.39322 | 8.69699 | 120° | 97km/h | 8100m | -4.1m/s | -33.6°C | 43.3% | 361.2hPa | 2.5V | 07:55:35 | 02:06:02 | 00:00:00 | |
| DD1CC8 | 2026-09-02 11:43:07 | 52.39384 | 8.69541 | 122° | 78km/h | 8122m | -4.6m/s | -33.8°C | 38.1% | 360.0hPa | 2.6V | 00:00:00 | 00:00:00 | 00:00:00 | |
| DL1XH1-15 | 2026-09-02 11:43:06 | 52.39404 | 8.69487 | 118° | 75km/h | 8131m | -4.6m/s | -33.9°C | 41% | 359.5hPa | 2.6V | 07:55:28 | 02:05:55 | 00:00:00 | |
| DM0DOS-11 | 2026-09-02 11:43:06 | 52.39360 | 8.69600 | 123° | 89km/h | 8113m | -4.7m/s | -33.7°C | 40.7% | 360.4hPa | 2.6V | 07:55:24 | 02:05:59 | 00:00:00 | |
| DO2JMG | 2026-09-02 11:43:05 | 52.39360 | 8.69600 | 124° | 91km/h | 8113m | -4.7m/s | -33.7°C | 43.4% | 360.4hPa | 2.6V | 07:55:35 | 02:05:59 | 00:00:00 | |
| AA1-15 | 2026-09-02 11:43:04 | 52.39373 | 8.69570 | 124° | 86km/h | 8117m | -4.2m/s | -33.8°C | 43.6% | 360.2hPa | 2.5V | 07:55:35 | 02:05:58 | 00:00:00 | |
| HSKMA3-T | 2026-09-02 11:43:03 | 52.39384 | 8.69541 | 123° | 80km/h | 8122m | -4.6m/s | -33.8°C | 43.7% | 360hPa | 2.5V | 07:55:35 | 02:05:57 | 00:00:00 | |
| DL1XH-west | 2026-09-02 11:43:01 | 52.39404 | 8.69487 | 119° | 75km/h | 8131m | -4.6m/s | -33.9°C | 43.8% | 359.5hPa | 2.6V | 07:55:35 | 02:05:55 | 00:00:00 | |
| DM0DOS-11 | 2026-09-02 11:43:00 | 52.39470 | 8.69314 | 122° | 86km/h | 8156m | -5m/s | -34.1°C | 40.9% | 358.3hPa | 2.6V | 07:55:34 | 02:05:49 | 00:00:00 | |
| BIOWL1-15 | 2026-09-02 11:42:57 | 52.39469 | 8.69314 | 122° | 86km/h | 8156m | -5m/s | -34.1°C | 43.3% | 358.3hPa | 2.6V | 07:55:35 | 02:05:49 | 00:00:00 | |
| HTAHTA | 2026-09-02 11:42:57 | 52.39445 | 8.69374 | 123° | 86km/h | 8147m | -4.2m/s | -34.0°C | 38.2% | 358.6hPa | 2.6V | 00:00:00 | 00:00:00 | 00:00:00 | |
| DL1XH1-15 | 2026-09-02 11:42:56 | 52.39513 | 8.69202 | 118° | 73km/h | 8175m | -4.2m/s | -34.2°C | 40.6% | 357.2hPa | 2.6V | 07:55:38 | 02:05:45 | 00:00:00 | |
| DO2JMG | 2026-09-02 11:42:54 | 52.39481 | 8.69285 | 123° | 84km/h | 8162m | -5m/s | -34.1°C | 43.3% | 358hPa | 2.6V | 07:55:35 | 02:05:48 | 00:00:00 | |
| AA1-15 | 2026-09-02 11:42:53 | 52.39503 | 8.69229 | 121° | 77km/h | 8171m | -4.2m/s | -34.2°C | 43.2% | 357.5hPa | 2.5V | 07:56:26 | 02:05:46 | 00:00:00 | |
| HSKMA3-T | 2026-09-02 11:42:53 | 52.39492 | 8.69257 | 123° | 80km/h | 8167m | -4.7m/s | -34.2°C | 43.3% | 357.8hPa | 2.5V | 07:56:26 | 02:05:47 | 00:00:00 | |
| DL1XH-west | 2026-09-02 11:42:51 | 52.39513 | 8.69202 | 118° | 73km/h | 8175m | -4.3m/s | -34.2°C | 43% | 357.2hPa | 2.6V | 07:56:26 | 02:05:45 | 00:00:00 | |
| DD1CC2-15 | 2026-09-02 11:42:50 | 52.39512 | 8.69202 | 119° | 73km/h | 8176m | -4.3m/s | -34.2°C | 37.7% | 357.3hPa | 2.6V | 07:56:00 | 00:00:00 | 00:00:00 | |
| DJ2KF-10 | 2026-09-02 11:42:48 | 52.39534 | 8.69122 | 108° | 82km/h | 8187m | -5.7m/s | -34.3°C | 40.2% | 356.6hPa | 2.6V | 00:00:00 | 02:05:42 | 00:00:00 | |
| DC6BW-12 | 2026-09-02 11:42:47 | 52.39534 | 8.69122 | 109° | 71km/h | 8187m | -5.7m/s | -34.3°C | 37.3% | 356.7hPa | 2.6V | 07:56:00 | 00:00:00 | 00:00:00 | |
| DM0DOS-11 | 2026-09-02 11:42:46 | 52.39550 | 8.69032 | 103° | 80km/h | 8201m | -4.4m/s | -34.5°C | 39.7% | 355.9hPa | 2.6V | 07:55:44 | 02:05:39 | 00:00:00 | |
| DL1XH1-15 | 2026-09-02 11:42:46 | 52.39573 | 8.68891 | 109° | 95km/h | 8219m | -4.5m/s | -34.6°C | 38.8% | 355hPa | 2.5V | 07:55:48 | 02:05:35 | 00:00:00 | |
| DL3AQ-11 | 2026-09-02 11:42:45 | 52.39555 | 8.68999 | 103° | 82km/h | 8205m | -4.8m/s | -34.5°C | 36.7% | 355.7hPa | 2.5V | 00:00:00 | 00:00:00 | 00:00:00 | |
| DO2JMG | 2026-09-02 11:42:43 | 52.39560 | 8.68964 | 104° | 88km/h | 8210m | -4.6m/s | -34.5°C | 42.5% | 355.4hPa | 2.5V | 07:56:26 | 02:05:37 | 00:00:00 | |
| HSKMA3-T | 2026-09-02 11:42:42 | 52.39566 | 8.68928 | 106° | 93km/h | 8214m | -5.3m/s | -34.6°C | 42.2% | 355.2hPa | 2.5V | 07:56:26 | 02:05:36 | 00:00:00 | |
| AA1-15 | 2026-09-02 11:42:42 | 52.39573 | 8.68891 | 109° | 95km/h | 8219m | -4.5m/s | -34.6°C | 41.9% | 355hPa | 2.5V | 07:56:26 | 02:05:35 | 00:00:00 | |
| DL1XH-west | 2026-09-02 11:42:40 | 52.39581 | 8.68854 | 111° | 95km/h | 8224m | -5.2m/s | -34.6°C | 41.5% | 354.7hPa | 2.6V | 07:56:26 | 02:05:34 | 00:00:00 | |
| DL4XJ-10 | 2026-09-02 11:42:40 | 52.39581 | 8.68854 | 111° | 89km/h | 8224m | -5.2m/s | -35.4°C | 0% | 0hPa | 2.5V | 00:00:00 | 00:00:00 | 00:00:00 | |
| DB0DAN | 2026-09-02 11:42:40 | 52.39581 | 8.68854 | 111° | 91km/h | 8224m | -5.2m/s | -34.6°C | 35.7% | 354.71hPa | 2.6V | 00:00:00 | 00:00:00 | 00:00:00 | |
| DJ2DS-15 | 2026-09-02 11:42:39 | 52.39589 | 8.68818 | 113° | 89km/h | 8229m | -4.9m/s | -34.6°C | 38.4% | 354.5hPa | 2.5V | 07:55:00 | 02:05:33 | 00:00:00 | |
| GOEST3-10 | 2026-09-02 11:42:38 | 52.39599 | 8.68783 | 115° | 91km/h | 8234m | -4.1m/s | -34.7°C | 38.2% | 354.3hPa | 2.5V | 00:00:00 | 02:05:32 | 00:00:00 | |
| DL1XH1-15 | 2026-09-02 11:42:36 | 52.39664 | 8.68539 | 109° | 95km/h | 8263m | -4m/s | -35°C | 36% | 352.8hPa | 2.5V | 07:55:58 | 02:05:25 | 00:00:00 | |
| BIOWL1-15 | 2026-09-02 11:42:34 | 52.39640 | 8.68648 | 115° | 93km/h | 8250m | -4.3m/s | -34.9°C | 40.3% | 353.5hPa | 2.6V | 07:56:26 | 02:05:28 | 00:00:00 | |
| DO2JMG | 2026-09-02 11:42:33 | 52.39649 | 8.68613 | 111° | 93km/h | 8254m | -4.1m/s | -34.9°C | 40% | 353.2hPa | 2.6V | 07:56:26 | 02:05:27 | 00:00:00 | |
| HSKMA3-T | 2026-09-02 11:42:32 | 52.39657 | 8.68576 | 109° | 95km/h | 8258m | -4.4m/s | -34.9°C | 39.8% | 353hPa | 2.5V | 07:56:26 | 02:05:26 | 00:00:00 | |
| AA1-15 | 2026-09-02 11:42:31 | 52.39664 | 8.68539 | 109° | 95km/h | 8263m | -4m/s | -35°C | 39.5% | 352.8hPa | 2.5V | 07:56:26 | 02:05:25 | 00:00:00 | |
| DL1XH-west | 2026-09-02 11:42:30 | 52.39673 | 8.68502 | 111° | 97km/h | 8267m | -4.1m/s | -35°C | 39.2% | 352.6hPa | 2.5V | 07:56:26 | 02:05:24 | 00:00:00 | |
| DL4BBY-15 | 2026-09-02 11:42:30 | 52.39673 | 8.68502 | 112° | 84km/h | 8267m | -4.0m/s | -35.8°C | 0% | 0hPa | 2.6V | 00:00:00 | 00:00:00 | 00:00:00 | |
| BUE01 | 2026-09-02 11:42:29 | 52.39691 | 8.68428 | 115° | 97km/h | 8276m | -4.5m/s | -35.1°C | 32.9% | 352.1hPa | 2.6V | 00:00:00 | 00:00:00 | 00:00:00 | |
| GOEST3-10 | 2026-09-02 11:42:28 | 52.39691 | 8.68428 | 116° | 89km/h | 8276m | -4.5m/s | -35.0°C | 35.6% | 352.0hPa | 2.6V | 00:00:00 | 02:05:22 | 00:00:00 | |
| BIOWL9-15 | 2026-09-02 11:42:27 | 52.39702 | 8.68393 | 118° | 95km/h | 8281m | -4.8m/s | -35.1°C | 32.7% | 351.9hPa | 2.6V | 00:00:00 | 00:00:00 | 00:00:00 | |
| DL1XH1-15 | 2026-09-02 11:42:26 | 52.39765 | 8.68218 | 114° | 71km/h | 8308m | -5.1m/s | -35.4°C | 35.8% | 350.5hPa | 2.6V | 07:56:08 | 02:05:15 | 00:00:00 | |
| DM0DOS-11 | 2026-09-02 11:42:26 | 52.39725 | 8.68328 | 122° | 88km/h | 8290m | -4.5m/s | -35.2°C | 35.5% | 351.4hPa | 2.5V | 07:56:04 | 02:05:19 | 00:00:00 | |
| DB0DAN | 2026-09-02 11:42:25 | 52.39725 | 8.68328 | 122° | 84km/h | 8290m | -4.5m/s | -35.2°C | 32.7% | 351.4hPa | 2.5V | 00:00:00 | 00:00:00 | 00:00:00 | |
| BIOWL1-15 | 2026-09-02 11:42:23 | 52.39747 | 8.68271 | 122° | 77km/h | 8298m | -4.9m/s | -35.3°C | 38.5% | 350.9hPa | 2.6V | 07:56:26 | 02:05:17 | 00:00:00 | |
| HSKMA3-T | 2026-09-02 11:42:22 | 52.39757 | 8.68245 | 119° | 73km/h | 8303m | -5m/s | -35.3°C | 38.5% | 350.7hPa | 2.6V | 07:56:26 | 02:05:16 | 00:00:00 | |
| AA1-15 | 2026-09-02 11:42:21 | 52.39773 | 8.68191 | 115° | 73km/h | 8313m | -5.7m/s | -35.4°C | 38.6% | 350.2hPa | 2.5V | 07:56:26 | 02:05:14 | 00:00:00 | |
| DL1XH-15 | 2026-09-02 11:42:21 | 52.39786 | 8.68135 | 108° | 73km/h | 8322m | -4.5m/s | -35.5°C | 36.3% | 349.8hPa | 2.5V | 07:56:11 | 02:05:12 | 00:00:00 | |
| DL1XH-west | 2026-09-02 11:42:19 | 52.39780 | 8.68164 | 109° | 71km/h | 8318m | -4.5m/s | -35.5°C | 38.6% | 350.1hPa | 2.5V | 07:56:26 | 02:05:13 | 00:00:00 | |
| DJ2DS-15 | 2026-09-02 11:42:19 | 52.39780 | 8.68164 | 109° | 80km/h | 8318m | -4.4m/s | -35.4°C | 36.1% | 350.1hPa | 2.5V | 00:00:00 | 02:05:13 | 00:00:00 | |
| GOEST3-10 | 2026-09-02 11:42:18 | 52.39786 | 8.68135 | 109° | 75km/h | 8322m | -4.5m/s | -35.5°C | 36.3% | 349.7hPa | 2.5V | 00:00:00 | 02:05:12 | 00:00:00 | |
| DK9SH | 2026-09-02 11:42:17 | 52.39786 | 8.68135 | 109° | 73km/h | 8322m | -4.5m/s | -35.5°C | 33.4% | 349.8hPa | 2.5V | 07:56:00 | 00:00:00 | 00:00:00 | |
| DL1XH1-15 | 2026-09-02 11:42:16 | 52.39823 | 8.67929 | 103° | 68km/h | 8351m | -4.8m/s | -35.8°C | 34.9% | 348.4hPa | 2.5V | 07:56:18 | 02:05:05 | 00:00:00 | |
| DL3OBA | 2026-09-02 11:42:15 | 52.39797 | 8.68076 | 106° | 75km/h | 8330m | -4.3m/s | -35.6°C | 33.5% | 349.4hPa | 2.6V | 07:56:00 | 00:00:00 | 00:00:00 | |
| DO3DL | 2026-09-02 11:42:14 | 52.39802 | 8.68045 | 107° | 78km/h | 8334m | -4.4m/s | -35.6°C | 33.4% | 349.2hPa | 2.6V | 07:56:00 | 00:00:00 | 00:00:00 | |
| DL1XH-15 | 2026-09-02 11:42:13 | 52.39835 | 8.67842 | 101° | 77km/h | 8365m | -5m/s | -35.9°C | 32.8% | 347.6hPa | 2.6V | 07:56:21 | 02:05:02 | 00:00:00 | |
| BIOWL1-15 | 2026-09-02 11:42:13 | 52.39813 | 8.67986 | 108° | 71km/h | 8342m | -4.3m/s | -35.7°C | 38.7% | 348.7hPa | 2.6V | 07:56:26 | 02:05:07 | 00:00:00 | |
| DO2JMG | 2026-09-02 11:42:12 | 52.39819 | 8.67957 | 107° | 71km/h | 8346m | -4.5m/s | -35.7°C | 38.4% | 348.6hPa | 2.6V | 07:56:26 | 02:05:06 | 00:00:00 | |
| HSKMA3-T | 2026-09-02 11:42:11 | 52.39823 | 8.67929 | 104° | 68km/h | 8351m | -4.8m/s | -35.8°C | 38% | 348.4hPa | 2.5V | 07:56:26 | 02:05:05 | 00:00:00 | |
| DL1XH-west | 2026-09-02 11:42:08 | 52.39835 | 8.67842 | 101° | 77km/h | 8365m | -5m/s | -35.9°C | 35.8% | 347.6hPa | 2.6V | 07:56:26 | 02:05:02 | 00:00:00 | |
| GOEST3-10 | 2026-09-02 11:42:08 | 52.39835 | 8.67842 | 102° | 86km/h | 8365m | -5.0m/s | -35.8°C | 32.8% | 347.5hPa | 2.5V | 00:00:00 | 02:05:02 | 00:00:00 | |
| DM0DOS-11 | 2026-09-02 11:42:06 | 52.39849 | 8.67739 | 105° | 91km/h | 8379m | -5.1m/s | -36°C | 31.2% | 346.9hPa | 2.5V | 07:56:24 | 02:04:59 | 00:00:00 | |
| BIOWL1-15 | 2026-09-02 11:42:02 | 52.39907 | 8.67535 | 121° | 82km/h | 8409m | -5.3m/s | -36.2°C | 33.6% | 345.5hPa | 2.5V | 07:57:17 | 02:04:53 | 00:00:00 | |
| DL1XH-15 | 2026-09-02 11:42:01 | 52.39918 | 8.67506 | 124° | 78km/h | 8413m | -5m/s | -36.3°C | 31% | 345.3hPa | 2.6V | 07:56:31 | 02:04:52 | 00:00:00 | |
| DO2JMG | 2026-09-02 11:42:01 | 52.39884 | 8.67597 | 117° | 89km/h | 8398m | -4.8m/s | -36.1°C | 33.5% | 346hPa | 2.6V | 07:57:17 | 02:04:55 | 00:00:00 | |
| DM0DOS-11 | 2026-09-02 11:42:00 | 52.39946 | 8.67431 | 116° | 68km/h | 8428m | -5.1m/s | -36.4°C | 31.3% | 344.5hPa | 2.5V | 07:56:34 | 02:04:49 | 00:00:00 | |
| DL1XH-west | 2026-09-02 11:41:58 | 52.39918 | 8.67506 | 125° | 78km/h | 8413m | -5m/s | -36.3°C | 33.7% | 345.3hPa | 2.6V | 07:57:17 | 02:04:52 | 00:00:00 | |
| AA1-15 | 2026-09-02 11:41:58 | 52.39928 | 8.67480 | 121° | 73km/h | 8418m | -5m/s | -36.3°C | 33.8% | 345hPa | 2.6V | 07:57:17 | 02:04:51 | 00:00:00 | |
| DL1XH1-15 | 2026-09-02 11:41:56 | 52.39966 | 8.67325 | 101° | 73km/h | 8445m | -4.4m/s | -36.6°C | 31.9% | 343.8hPa | 2.6V | 07:56:38 | 02:04:45 | 00:00:00 | |
| BIOWL9-15 | 2026-09-02 11:41:56 | 52.39937 | 8.67455 | 120° | 66km/h | 8422m | -5.9m/s | -36.4°C | 28.5% | 344.7hPa | 2.5V | 00:00:00 | 00:00:00 | 00:00:00 | |
| HTAHTA | 2026-09-02 11:41:55 | 52.39945 | 8.67431 | 116° | 66km/h | 8428m | -5.1m/s | -36.4°C | 28.6% | 344.5hPa | 2.5V | 00:00:00 | 00:00:00 | 00:00:00 | |
| DO3DL | 2026-09-02 11:41:54 | 52.39945 | 8.67431 | 117° | 68km/h | 8428m | -5.1m/s | -36.4°C | 28.6% | 344.5hPa | 2.5V | 07:57:00 | 00:00:00 | 00:00:00 | |
| DL1XH-15 | 2026-09-02 11:41:53 | 52.39980 | 8.67227 | 105° | 89km/h | 8459m | -5.4m/s | -36.7°C | 33% | 343hPa | 2.5V | 07:56:41 | 02:04:42 | 00:00:00 | |
| DO2JMG | 2026-09-02 11:41:51 | 52.39966 | 8.67325 | 101° | 73km/h | 8445m | -4.4m/s | -36.6°C | 35.1% | 343.8hPa | 2.6V | 07:57:17 | 02:04:45 | 00:00:00 | |
| BIOWL1-15 | 2026-09-02 11:41:50 | 52.40003 | 8.67121 | 114° | 93km/h | 8472m | -5.4m/s | -36.8°C | 37.4% | 342.2hPa | 2.5V | 07:57:17 | 02:04:39 | 00:00:00 | |
| DL1XH-west | 2026-09-02 11:41:47 | 52.39986 | 8.67192 | 109° | 89km/h | 8463m | -4.1m/s | -36.8°C | 36.7% | 342.7hPa | 2.6V | 07:57:17 | 02:04:41 | 00:00:00 | |
| AA1-15 | 2026-09-02 11:41:47 | 52.39994 | 8.67156 | 113° | 95km/h | 8468m | -4.5m/s | -36.8°C | 37.3% | 342.6hPa | 2.6V | 07:57:17 | 02:04:40 | 00:00:00 | |
| DL1XH1-15 | 2026-09-02 11:41:46 | 52.40048 | 8.66995 | 125° | 82km/h | 8490m | -4.7m/s | -37°C | 35.1% | 341.4hPa | 2.5V | 07:56:48 | 02:04:35 | 00:00:00 | |
| DF5WG-10 | 2026-09-02 11:41:44 | 52.40025 | 8.67054 | 122° | 75km/h | 8481m | -5.0m/s | -36.9°C | 34.7% | 341.8hPa | 2.6V | 00:00:00 | 02:04:37 | 00:00:00 | |
| DD8BA-10 | 2026-09-02 11:41:43 | 52.40025 | 8.67054 | 122° | 73km/h | 8481m | -5.0m/s | -36.9°C | 34.7% | 341.8hPa | 2.6V | 00:00:00 | 00:00:00 | 00:00:00 | |
| DL1XH-15 | 2026-09-02 11:41:41 | 52.40078 | 8.66920 | 116° | 64km/h | 8503m | -5.2m/s | -37.1°C | 35.5% | 340.7hPa | 2.6V | 07:56:51 | 02:04:32 | 00:00:00 | |
| HSKMA3-T | 2026-09-02 11:41:40 | 52.40059 | 8.66968 | 123° | 71km/h | 8494m | -5.3m/s | -37.1°C | 38.3% | 341.1hPa | 2.5V | 07:57:17 | 02:04:34 | 00:00:00 | |
| DM0DOS-11 | 2026-09-02 11:41:40 | 52.40096 | 8.66845 | 106° | 68km/h | 8517m | -5.5m/s | -37.3°C | 35.8% | 339.9hPa | 2.5V | 07:56:54 | 02:04:29 | 00:00:00 | |
| DL1XH-west | 2026-09-02 11:41:37 | 52.40086 | 8.66896 | 116° | 64km/h | 8507m | -5.9m/s | -37.2°C | 38.9% | 340.4hPa | 2.6V | 07:57:17 | 02:04:31 | 00:00:00 | |
| DL1XH1-15 | 2026-09-02 11:41:36 | 52.40115 | 8.66719 | 106° | 89km/h | 8535m | -5.4m/s | -37.5°C | 36.3% | 339.1hPa | 2.6V | 07:56:58 | 02:04:25 | 00:00:00 | |
| AA1-15 | 2026-09-02 11:41:35 | 52.40101 | 8.66817 | 101° | 75km/h | 8522m | -4.5m/s | -37.3°C | 39.2% | 339.8hPa | 2.5V | 07:57:17 | 02:04:28 | 00:00:00 | |
| DO2JMG | 2026-09-02 11:41:29 | 52.40130 | 8.66649 | 113° | 89km/h | 8546m | -4.8m/s | -37.6°C | 39.3% | 338.5hPa | 2.5V | 07:57:17 | 02:04:23 | 00:00:00 | |
| DL1XH-west | 2026-09-02 11:41:27 | 52.40149 | 8.66584 | 120° | 86km/h | 8555m | -4m/s | -37.6°C | 39.6% | 338.2hPa | 2.6V | 07:57:17 | 02:04:21 | 00:00:00 | |
| DM0DOS-11 | 2026-09-02 11:41:27 | 52.40172 | 8.66524 | 124° | 84km/h | 8564m | -4.8m/s | -37.7°C | 37.6% | 337.7hPa | 2.6V | 07:57:04 | 02:04:19 | 00:00:00 | |
| BIOWL1-15 | 2026-09-02 11:41:27 | 52.40183 | 8.66496 | 122° | 78km/h | 8569m | -5m/s | -37.8°C | 40.2% | 337.4hPa | 2.5V | 07:57:17 | 02:04:18 | 00:00:00 | |
| DB0DAN | 2026-09-02 11:41:25 | 52.40172 | 8.66524 | 124° | 80km/h | 8564m | -4.8m/s | -37.7°C | 34.5% | 337.73hPa | 2.6V | 00:00:00 | 00:00:00 | 00:00:00 | |
| AA1-15 | 2026-09-02 11:41:24 | 52.40194 | 8.66469 | 124° | 71km/h | 8574m | -5.3m/s | -37.8°C | 40.3% | 337.3hPa | 2.5V | 07:57:17 | 02:04:17 | 00:00:00 | |
| DL1XH-15 | 2026-09-02 11:41:23 | 52.40235 | 8.66348 | 107° | 62km/h | 8598m | -4.6m/s | -38°C | 38.7% | 336hPa | 2.5V | 07:57:11 | 02:04:12 | 00:00:00 | |
| HSKMA3-T | 2026-09-02 11:41:18 | 52.40235 | 8.66348 | 108° | 62km/h | 8598m | -4.6m/s | -38.1°C | 41.4% | 336hPa | 2.5V | 07:57:17 | 02:04:12 | 00:00:00 | |
| BIOWL1-15 | 2026-09-02 11:41:17 | 52.40254 | 8.66234 | 104° | 82km/h | 8616m | -4.8m/s | -38.2°C | 41.9% | 335.2hPa | 2.5V | 07:57:17 | 02:04:08 | 00:00:00 | |
| DM0DOS-11 | 2026-09-02 11:41:16 | 52.40249 | 8.66265 | 101° | 75km/h | 8611m | -4.6m/s | -38.2°C | 39% | 335.3hPa | 2.5V | 07:57:14 | 02:04:09 | 00:00:00 | |
| DL1XH-west | 2026-09-02 11:41:16 | 52.40245 | 8.66295 | 103° | 75km/h | 8607m | -4.6m/s | -38.1°C | 41.7% | 335.7hPa | 2.6V | 07:57:17 | 02:04:10 | 00:00:00 | |
| AA1-15 | 2026-09-02 11:41:13 | 52.40265 | 8.66166 | 107° | 88km/h | 8626m | -4.5m/s | -38.3°C | 42% | 334.6hPa | 2.6V | 07:57:17 | 02:04:06 | 00:00:00 | |
| DD8BA-10 | 2026-09-02 11:41:13 | 52.40259 | 8.66200 | 105° | 84km/h | 8621m | -5.2m/s | -38.2°C | 39.3% | 334.9hPa | 2.5V | 00:00:00 | 00:00:00 | 00:00:00 | |
| DL1XH-15 | 2026-09-02 11:41:11 | 52.40302 | 8.66031 | 121° | 88km/h | 8644m | -4.4m/s | -38.5°C | 40.3% | 333.8hPa | 2.5V | 07:57:21 | 02:04:02 | 00:00:00 | |
| DM0DOS-11 | 2026-09-02 11:41:10 | 52.40337 | 8.65946 | 125° | 78km/h | 8659m | -5m/s | -38.6°C | 40.6% | 333.1hPa | 2.6V | 07:57:24 | 02:03:59 | 00:00:00 | |
| DB0DAN | 2026-09-02 11:41:10 | 52.40282 | 8.66097 | 115° | 89km/h | 8635m | -5.4m/s | -38.4°C | 36.6% | 334.27hPa | 2.6V | 00:00:00 | 00:00:00 | 00:00:00 | |
| DO2JMG | 2026-09-02 11:41:08 | 52.40326 | 8.65972 | 125° | 77km/h | 8654m | -4.9m/s | -38.6°C | 42.8% | 333.3hPa | 2.6V | 07:58:08 | 02:04:00 | 00:00:00 | |
| BIOWL1-15 | 2026-09-02 11:41:06 | 52.40357 | 8.65897 | 122° | 68km/h | 8669m | -5.5m/s | -38.7°C | 43% | 332.5hPa | 2.5V | 07:58:08 | 02:03:57 | 00:00:00 | |
| DL1XH-west | 2026-09-02 11:41:05 | 52.40337 | 8.65946 | 126° | 78km/h | 8659m | -5m/s | -38.6°C | 42.9% | 333.1hPa | 2.6V | 07:58:08 | 02:03:59 | 00:00:00 | |
| DL1XH1-15 | 2026-09-02 11:41:04 | 52.40373 | 8.65851 | 114° | 64km/h | 8679m | -5.8m/s | -38.8°C | 40.7% | 332.1hPa | 2.6V | 07:57:28 | 02:03:55 | 00:00:00 | |
| AA1-15 | 2026-09-02 11:41:02 | 52.40373 | 8.65851 | 114° | 64km/h | 8679m | -5.8m/s | -38.8°C | 43.2% | 332.1hPa | 2.6V | 07:58:08 | 02:03:55 | 00:00:00 | |
| DL1LOL-11 | 2026-09-02 11:41:01 | 52.40366 | 8.65874 | 121° | 62km/h | 8675m | -5.8m/s | -38.8°C | 37.4% | 332.4hPa | 2.5V | 00:00:00 | 00:00:00 | 00:00:00 | |
| DL4XJ-10 | 2026-09-02 11:41:00 | 52.40379 | 8.65827 | 108° | 75km/h | 8685m | -5.7m/s | -39.6°C | 0% | 0hPa | 2.5V | 00:00:00 | 00:00:00 | 00:00:00 | |
| DL1XH-15 | 2026-09-02 11:40:59 | 52.40388 | 8.65775 | 102° | 71km/h | 8695m | -4.4m/s | -38.9°C | 40.9% | 331.5hPa | 2.5V | 07:57:31 | 02:03:52 | 00:00:00 | |
| DO2JMG | 2026-09-02 11:40:56 | 52.40397 | 8.65714 | 106° | 82km/h | 8704m | -4.9m/s | -39°C | 43.9% | 331.1hPa | 2.5V | 07:58:08 | 02:03:50 | 00:00:00 | |
| BUE01 | 2026-09-02 11:40:56 | 52.40403 | 8.65681 | 106° | 86km/h | 8710m | -5.0m/s | -39.1°C | 38.2% | 330.8hPa | 2.6V | 00:00:00 | 00:00:00 | 00:00:00 | |
| DB0DAN | 2026-09-02 11:40:55 | 52.40403 | 8.65681 | 107° | 82km/h | 8710m | -5m/s | -39.1°C | 38.2% | 330.75hPa | 2.6V | 00:00:00 | 00:00:00 | 00:00:00 | |
| DL1XH-west | 2026-09-02 11:40:55 | 52.40403 | 8.65681 | 107° | 88km/h | 8710m | -5m/s | -39.1°C | 44.1% | 330.8hPa | 2.6V | 07:58:08 | 02:03:49 | 00:00:00 | |
| BIOWL1-15 | 2026-09-02 11:40:54 | 52.40419 | 8.65612 | 115° | 93km/h | 8719m | -5m/s | -39.2°C | 44.2% | 330.4hPa | 2.5V | 07:58:08 | 02:03:47 | 00:00:00 | |
| DL1XH-15 | 2026-09-02 11:40:53 | 52.40475 | 8.65460 | 126° | 73km/h | 8744m | -5m/s | -39.4°C | 42.6% | 329.2hPa | 2.6V | 07:57:41 | 02:03:42 | 00:00:00 | |
| AA1-15 | 2026-09-02 11:40:50 | 52.40452 | 8.65516 | 124° | 84km/h | 8734m | -4.5m/s | -39.3°C | 44.2% | 329.7hPa | 2.6V | 07:58:08 | 02:03:44 | 00:00:00 | |
| DO2JMG | 2026-09-02 11:40:46 | 52.40497 | 8.65413 | 123° | 62km/h | 8753m | -5.9m/s | -39.5°C | 44.4% | 328.8hPa | 2.5V | 07:58:08 | 02:03:40 | 00:00:00 | |
| DM0DOS-11 | 2026-09-02 11:40:46 | 52.40505 | 8.65391 | 120° | 64km/h | 8758m | -5.7m/s | -39.5°C | 42.5% | 328.4hPa | 2.5V | 07:57:44 | 02:03:39 | 00:00:00 | |
| DL1XH-west | 2026-09-02 11:40:44 | 52.40512 | 8.65368 | 112° | 62km/h | 8763m | -5.3m/s | -39.5°C | 44.4% | 328.3hPa | 2.6V | 07:58:08 | 02:03:38 | 00:00:00 | |
| BIOWL1-15 | 2026-09-02 11:40:43 | 52.40518 | 8.65344 | 111° | 62km/h | 8768m | -6.1m/s | -39.6°C | 44.3% | 328.1hPa | 2.6V | 07:58:08 | 02:03:37 | 00:00:00 | |
| DL1XH-15 | 2026-09-02 11:40:43 | 52.40546 | 8.65203 | 108° | 80km/h | 8791m | -4.7m/s | -39.8°C | 40.2% | 326.9hPa | 2.6V | 07:57:51 | 02:03:32 | 00:00:00 | |
| DD8BA-10 | 2026-09-02 11:40:43 | 52.40518 | 8.65344 | 111° | 77km/h | 8768m | -6.0m/s | -39.5°C | 42.1% | 328.1hPa | 2.5V | 00:00:00 | 00:00:00 | 00:00:00 | |
| DB0DAN | 2026-09-02 11:40:40 | 52.40534 | 8.65264 | 108° | 71km/h | 8782m | -4.8m/s | -39.7°C | 37.7% | 327.45hPa | 2.5V | 00:00:00 | 00:00:00 | 00:00:00 | |
| AA1-15 | 2026-09-02 11:40:40 | 52.40540 | 8.65234 | 108° | 77km/h | 8786m | -4.4m/s | -39.8°C | 43% | 327.2hPa | 2.6V | 07:58:08 | 02:03:33 | 00:00:00 | |
| DO2JMG | 2026-09-02 11:40:36 | 52.40570 | 8.65106 | 113° | 84km/h | 8803m | -4.2m/s | -39.9°C | 40.8% | 326.4hPa | 2.5V | 07:58:08 | 02:03:29 | 00:00:00 | |
| DK9SH | 2026-09-02 11:40:36 | 52.40562 | 8.65138 | 114° | 84km/h | 8799m | -4.5m/s | -39.9°C | 35.4% | 326.5hPa | 2.5V | 07:58:00 | 00:00:00 | 00:00:00 | |
| DL1XH1-15 | 2026-09-02 11:40:35 | 52.40600 | 8.64977 | 111° | 86km/h | 8818m | -4.6m/s | -40°C | 37.1% | 325.5hPa | 2.5V | 07:57:58 | 02:03:25 | 00:00:00 | |
| DL1XH-west | 2026-09-02 11:40:34 | 52.40578 | 8.65074 | 111° | 82km/h | 8807m | -4.1m/s | -39.9°C | 40.5% | 326.1hPa | 2.5V | 07:58:08 | 02:03:28 | 00:00:00 | |
| BIOWL1-15 | 2026-09-02 11:40:33 | 52.40585 | 8.65042 | 110° | 82km/h | 8811m | -4m/s | -40°C | 40.2% | 325.8hPa | 2.6V | 07:58:08 | 02:03:27 | 00:00:00 | |
| DD8BA-10 | 2026-09-02 11:40:33 | 52.40585 | 8.65042 | 111° | 86km/h | 8811m | -3.9m/s | -39.9°C | 37.8% | 325.7hPa | 2.6V | 00:00:00 | 00:00:00 | 00:00:00 | |
| DJ2DS-15 | 2026-09-02 11:40:32 | 52.40600 | 8.64977 | 111° | 84km/h | 8818m | -4.6m/s | -40.1°C | 33.8% | 325.5hPa | 2.5V | 00:00:00 | 00:00:00 | 00:00:00 | |
| DM0DOS-11 | 2026-09-02 11:40:31 | 52.40652 | 8.64781 | 120° | 82km/h | 8847m | -4.3m/s | -40.2°C | 36.4% | 324.3hPa | 2.5V | 07:58:04 | 02:03:19 | 00:00:00 | |
| AA1-15 | 2026-09-02 11:40:29 | 52.40625 | 8.64876 | 112° | 88km/h | 8833m | -5.5m/s | -40.1°C | 38.8% | 324.8hPa | 2.6V | 07:58:08 | 02:03:22 | 00:00:00 | |
| GOEST3-10 | 2026-09-02 11:40:28 | 52.40625 | 8.64876 | 113° | 84km/h | 8833m | -5.4m/s | -40.1°C | 36.6% | 324.8hPa | 2.6V | 00:00:00 | 02:03:22 | 00:00:00 | |
| DO3DL | 2026-09-02 11:40:26 | 52.40633 | 8.64843 | 115° | 86km/h | 8838m | -4.9m/s | -40.2°C | 33.1% | 324.6hPa | 2.5V | 07:58:00 | 00:00:00 | 00:00:00 | |
| DB0DAN | 2026-09-02 11:40:25 | 52.40652 | 8.64781 | 120° | 77km/h | 8847m | -4.3m/s | -40.2°C | 33.1% | 324.27hPa | 2.5V | 00:00:00 | 00:00:00 | 00:00:00 | |
| DO2JMG | 2026-09-02 11:40:25 | 52.40652 | 8.64781 | 120° | 82km/h | 8847m | -4.3m/s | -40.2°C | 38.2% | 324.3hPa | 2.5V | 07:58:08 | 02:03:19 | 00:00:00 | |
| BIOWL1-15 | 2026-09-02 11:40:24 | 52.40711 | 8.64628 | 121° | 62km/h | 8875m | -5.7m/s | -40.4°C | 38.7% | 322.9hPa | 2.5V | 07:58:59 | 02:03:13 | 00:00:00 | |
| DL1XH1-15 | 2026-09-02 11:40:24 | 52.40695 | 8.64674 | 121° | 69km/h | 8864m | -5.1m/s | -40.4°C | 36.7% | 323.3hPa | 2.6V | 07:58:08 | 02:03:15 | 00:00:00 | |
| DL1XH-west | 2026-09-02 11:40:23 | 52.40674 | 8.64726 | 124° | 77km/h | 8855m | -4.8m/s | -40.3°C | 38.2% | 323.8hPa | 2.5V | 07:58:08 | 02:03:17 | 00:00:00 | |
| BIOWL9-15 | 2026-09-02 11:40:23 | 52.40685 | 8.64699 | 124° | 75km/h | 8860m | -4.9m/s | -40.3°C | 33.2% | 323.5hPa | 2.6V | 00:00:00 | 00:00:00 | 00:00:00 | |
| HTAHTA | 2026-09-02 11:40:22 | 52.40703 | 8.64650 | 119° | 62km/h | 8869m | -6.0m/s | -40.4°C | 33.2% | 323.1hPa | 2.6V | 00:00:00 | 00:00:00 | 00:00:00 | |
| DM0DOS-11 | 2026-09-02 11:40:20 | 52.40733 | 8.64531 | 101° | 62km/h | 8895m | -4.7m/s | -40.6°C | 36% | 322hPa | 2.6V | 07:58:14 | 02:03:09 | 00:00:00 | |
| AA1-15 | 2026-09-02 11:40:17 | 52.40724 | 8.64581 | 110° | 60km/h | 8885m | -5.6m/s | -40.5°C | 38.9% | 322.4hPa | 2.6V | 07:58:59 | 02:03:11 | 00:00:00 | |
| DO2JMG | 2026-09-02 11:40:14 | 52.40736 | 8.64504 | 100° | 73km/h | 8900m | -5.3m/s | -40.6°C | 39.2% | 321.6hPa | 2.5V | 07:58:59 | 02:03:08 | 00:00:00 | |
| HSKMA3-T | 2026-09-02 11:40:13 | 52.40739 | 8.64474 | 99° | 75km/h | 8905m | -5.3m/s | -40.7°C | 39.2% | 321.4hPa | 2.5V | 07:58:59 | 02:03:07 | 00:00:00 | |
| DL1XH1-15 | 2026-09-02 11:40:13 | 52.40746 | 8.64408 | 101° | 84km/h | 8915m | -5m/s | -40.8°C | 36.2% | 320.9hPa | 2.6V | 07:58:18 | 02:03:05 | 00:00:00 | |
| DL1XH-west | 2026-09-02 11:40:12 | 52.40742 | 8.64442 | 100° | 82km/h | 8911m | -5m/s | -40.7°C | 39.2% | 321.2hPa | 2.5V | 07:58:59 | 02:03:06 | 00:00:00 | |
| DL1XH-15 | 2026-09-02 11:40:11 | 52.40775 | 8.64271 | 116° | 89km/h | 8936m | -5.1m/s | -41°C | 37.2% | 320.1hPa | 2.5V | 07:58:22 | 02:03:01 | 00:00:00 | |
| BIOWL1-15 | 2026-09-02 11:40:11 | 52.40766 | 8.64304 | 113° | 88km/h | 8931m | -5.1m/s | -40.9°C | 39.4% | 320.3hPa | 2.5V | 07:58:59 | 02:03:02 | 00:00:00 | |
| DM0DOS-11 | 2026-09-02 11:40:10 | 52.40813 | 8.64155 | 117° | 71km/h | 8955m | -4.5m/s | -41.1°C | 38% | 319.2hPa | 2.5V | 07:58:26 | 02:02:57 | 00:00:00 | |
| AA1-15 | 2026-09-02 11:40:07 | 52.40814 | 8.64155 | 117° | 71km/h | 8955m | -4.5m/s | -41.1°C | 40.3% | 319.2hPa | 2.5V | 07:58:59 | 02:02:57 | 00:00:00 | |
| DO2JMG | 2026-09-02 11:40:05 | 52.40805 | 8.64181 | 119° | 75km/h | 8950m | -4.9m/s | -41.1°C | 40.1% | 319.4hPa | 2.6V | 07:58:59 | 02:02:58 | 00:00:00 | |
| DL3AQ-11 | 2026-09-02 11:40:05 | 52.40805 | 8.64181 | 118° | 73km/h | 8950m | -4.9m/s | -41.1°C | 34.4% | 319.4hPa | 2.5V | 00:00:00 | 00:00:00 | 00:00:00 | |
| DL1XH1-15 | 2026-09-02 11:40:02 | 52.40828 | 8.64102 | 112° | 68km/h | 8964m | -4.5m/s | -41.2°C | 38.2% | 318.8hPa | 2.5V | 07:58:28 | 02:02:55 | 00:00:00 | |
| HSKMA3-T | 2026-09-02 11:40:02 | 52.40821 | 8.64128 | 115° | 69km/h | 8960m | -4.3m/s | -41.2°C | 40.4% | 319hPa | 2.5V | 07:58:59 | 02:02:56 | 00:00:00 | |
| DL1XH-west | 2026-09-02 11:40:01 | 52.40828 | 8.64102 | 113° | 68km/h | 8964m | -4.5m/s | -41.2°C | 40.5% | 318.8hPa | 2.5V | 07:58:59 | 02:02:55 | 00:00:00 | |
| BIOWL1-15 | 2026-09-02 11:40:00 | 52.40835 | 8.64076 | 112° | 68km/h | 8969m | -4.8m/s | -41.3°C | 40.6% | 318.6hPa | 2.5V | 07:58:59 | 02:02:54 | 00:00:00 | |
| DL4BBY-15 | 2026-09-02 11:40:00 | 52.40835 | 8.64076 | 113° | 75km/h | 8969m | -4.8m/s | -42.1°C | 0% | 0hPa | 2.6V | 00:00:00 | 00:00:00 | 00:00:00 | |
| DJ2DS-15 | 2026-09-02 11:39:59 | 52.40842 | 8.64051 | 113° | 73km/h | 8974m | -4.6m/s | -41.3°C | 38.4% | 318.3hPa | 2.6V | 07:58:00 | 02:02:53 | 00:00:00 | |
| GOEST3-10 | 2026-09-02 11:39:58 | 52.40849 | 8.64025 | 115° | 69km/h | 8978m | -4.7m/s | -41.2°C | 38.3% | 318.1hPa | 2.6V | 00:00:00 | 02:02:52 | 00:00:00 | |
| DL1XH1-15 | 2026-09-02 11:39:56 | 52.40899 | 8.63845 | 107° | 66km/h | 9011m | -4.7m/s | -41.6°C | 39.6% | 316.6hPa | 2.5V | 07:58:38 | 02:02:45 | 00:00:00 | |
| DB0DAN | 2026-09-02 11:39:55 | 52.40872 | 8.63947 | 117° | 66km/h | 8993m | -4.9m/s | -41.4°C | 35.3% | 317.5hPa | 2.5V | 00:00:00 | 00:00:00 | 00:00:00 | |
| DO2JMG | 2026-09-02 11:39:54 | 52.40880 | 8.63921 | 116° | 69km/h | 8997m | -4.9m/s | -41.5°C | 41.4% | 317.3hPa | 2.5V | 07:58:59 | 02:02:48 | 00:00:00 | |
| HSKMA3-T | 2026-09-02 11:39:52 | 52.40893 | 8.63871 | 111° | 66km/h | 9007m | -4.7m/s | -41.6°C | 41.9% | 316.8hPa | 2.6V | 07:58:59 | 02:02:46 | 00:00:00 | |
| DL1XH-west | 2026-09-02 11:39:50 | 52.40904 | 8.63819 | 105° | 66km/h | 9016m | -4.7m/s | -41.7°C | 42.3% | 316.3hPa | 2.5V | 07:58:59 | 02:02:44 | 00:00:00 | |
| DM0DOS-11 | 2026-09-02 11:39:48 | 52.40923 | 8.63644 | 99° | 80km/h | 9044m | -4.6m/s | -41.9°C | 41.3% | 315.1hPa | 2.5V | 07:58:45 | 02:02:38 | 00:00:00 | |
| DO2JMG | 2026-09-02 11:39:44 | 52.40923 | 8.63644 | 99° | 80km/h | 9044m | -4.6m/s | -41.9°C | 43.7% | 315.1hPa | 2.5V | 07:58:59 | 02:02:38 | 00:00:00 | |
| DD8BA-10 | 2026-09-02 11:39:43 | 52.40927 | 8.63610 | 101° | 88km/h | 9049m | -4.9m/s | -41.9°C | 41.7% | 314.8hPa | 2.6V | 07:58:00 | 00:00:00 | 00:00:00 | |
| DL1XH1-15 | 2026-09-02 11:39:42 | 52.40937 | 8.63539 | 104° | 89km/h | 9057m | -4.4m/s | -42.1°C | 42% | 314.4hPa | 2.6V | 07:58:48 | 02:02:35 | 00:00:00 | |
| AA1-15 | 2026-09-02 11:39:42 | 52.40932 | 8.63575 | 103° | 89km/h | 9053m | -4.5m/s | -42°C | 44.2% | 314.6hPa | 2.5V | 07:58:59 | 02:02:36 | 00:00:00 | |
| HSKMA3-T | 2026-09-02 11:39:41 | 52.40937 | 8.63539 | 104° | 89km/h | 9058m | -4.4m/s | -42.1°C | 44.5% | 314.4hPa | 2.6V | 07:58:59 | 02:02:35 | 00:00:00 | |
| DL1XH-west | 2026-09-02 11:39:40 | 52.40943 | 8.63503 | 106° | 91km/h | 9062m | -4.8m/s | -42.1°C | 44.8% | 314.2hPa | 2.6V | 07:58:59 | 02:02:34 | 00:00:00 | |
| DB0DAN | 2026-09-02 11:39:40 | 52.40943 | 8.63503 | 106° | 86km/h | 9062m | -4.8m/s | -42.1°C | 38.6% | 314.18hPa | 2.6V | 00:00:00 | 00:00:00 | 00:00:00 | |
| DL4XJ-10 | 2026-09-02 11:39:40 | 52.40943 | 8.63503 | 106° | 80km/h | 9062m | -4.7m/s | -42.9°C | 0% | 0hPa | 2.5V | 00:00:00 | 00:00:00 | 00:00:00 | |
| BIOWL1-15 | 2026-09-02 11:39:40 | 52.40958 | 8.63431 | 111° | 91km/h | 9071m | -4.4m/s | -42.2°C | 45.2% | 313.8hPa | 2.5V | 07:58:59 | 02:02:32 | 00:00:00 | |
| DJ2DS-15 | 2026-09-02 11:39:39 | 52.40950 | 8.63466 | 108° | 82km/h | 9067m | -5.1m/s | -42.1°C | 42.8% | 313.9hPa | 2.5V | 00:00:00 | 02:02:33 | 00:00:00 | |
| DL1XH-15 | 2026-09-02 11:39:38 | 52.40966 | 8.63396 | 112° | 89km/h | 9076m | -5m/s | -42.2°C | 43.3% | 313.4hPa | 2.5V | 07:58:52 | 02:02:31 | 00:00:00 | |
| DL3AQ-11 | 2026-09-02 11:39:38 | 52.40966 | 8.63396 | 112° | 89km/h | 9076m | -5.0m/s | -42.3°C | 39.4% | 313.4hPa | 2.5V | 00:00:00 | 00:00:00 | 00:00:00 | |
| DL1XH1-15 | 2026-09-02 11:39:36 | 52.41019 | 8.63224 | 112° | 64km/h | 9104m | -4.8m/s | -42.5°C | 45% | 312.2hPa | 2.5V | 07:58:58 | 02:02:25 | 00:00:00 | |
| DO2JMG | 2026-09-02 11:39:33 | 52.41004 | 8.63275 | 117° | 73km/h | 9094m | -5.2m/s | -42.4°C | 46.7% | 312.6hPa | 2.5V | 07:58:59 | 02:02:27 | 00:00:00 | |
| DL1XH-15 | 2026-09-02 11:39:33 | 52.41036 | 8.63119 | 99° | 73km/h | 9123m | -5.2m/s | -42.7°C | 45.7% | 311.3hPa | 2.5V | 07:59:02 | 02:02:21 | 00:00:00 | |
| AA1-15 | 2026-09-02 11:39:31 | 52.41019 | 8.63224 | 113° | 64km/h | 9104m | -4.8m/s | -42.5°C | 47.3% | 312.2hPa | 2.5V | 07:58:59 | 02:02:25 | 00:00:00 | |
| HSKMA3-T | 2026-09-02 11:39:30 | 52.41025 | 8.63199 | 111° | 64km/h | 9109m | -4.2m/s | -42.6°C | 47.8% | 312hPa | 2.6V | 07:58:59 | 02:02:24 | 00:00:00 | |
| DL1XH-west | 2026-09-02 11:39:29 | 52.41030 | 8.63174 | 105° | 64km/h | 9114m | -4.1m/s | -42.6°C | 48.1% | 311.8hPa | 2.6V | 07:59:50 | 02:02:23 | 00:00:00 | |
| BIOWL1-15 | 2026-09-02 11:39:28 | 52.41039 | 8.63088 | 100° | 78km/h | 9128m | -5.2m/s | -42.7°C | 48.9% | 311.1hPa | 2.5V | 07:59:50 | 02:02:20 | 00:00:00 | |
| GOEST3-10 | 2026-09-02 11:39:28 | 52.41033 | 8.63148 | 101° | 78km/h | 9118m | -4.6m/s | -42.6°C | 45.6% | 311.5hPa | 2.6V | 00:00:00 | 02:02:22 | 00:00:00 | |
| DO3DL | 2026-09-02 11:39:27 | 52.41033 | 8.63148 | 102° | 68km/h | 9118m | -4.7m/s | -42.6°C | 41.6% | 311.5hPa | 2.6V | 07:59:00 | 00:00:00 | 00:00:00 | |
| DL3AQ-11 | 2026-09-02 11:39:25 | 52.41043 | 8.63055 | 100° | 80km/h | 9133m | -5.0m/s | -42.8°C | 42.1% | 310.8hPa | 2.6V | 00:00:00 | 00:00:00 | 00:00:00 | |
| DD8BA-10 | 2026-09-02 11:39:23 | 52.41052 | 8.62984 | 105° | 86km/h | 9143m | -4.7m/s | -42.8°C | 47.1% | 310.4hPa | 2.6V | 00:00:00 | 00:00:00 | 00:00:00 | |
| DL1XH1-15 | 2026-09-02 11:39:22 | 52.41066 | 8.62911 | 110° | 97km/h | 9152m | -5m/s | -42.9°C | 48% | 310hPa | 2.6V | 07:59:08 | 02:02:15 | 00:00:00 | |
| DO2JMG | 2026-09-02 11:39:22 | 52.41059 | 8.62948 | 107° | 93km/h | 9147m | -4.8m/s | -42.9°C | 50% | 310.2hPa | 2.6V | 07:59:50 | 02:02:16 | 00:00:00 | |
| HSKMA3-T | 2026-09-02 11:39:20 | 52.41075 | 8.62874 | 111° | 91km/h | 9157m | -5.5m/s | -43°C | 50.3% | 309.7hPa | 2.5V | 07:59:50 | 02:02:14 | 00:00:00 | |
| BIOWL1-15 | 2026-09-02 11:39:20 | 52.41094 | 8.62806 | 117° | 89km/h | 9166m | -5.5m/s | -43.1°C | 50.6% | 309.3hPa | 2.5V | 07:59:50 | 02:02:12 | 00:00:00 | |
| DJ2DS-15 | 2026-09-02 11:39:20 | 52.41084 | 8.62839 | 115° | 89km/h | 9162m | -4.3m/s | -43.0°C | 44.5% | 309.4hPa | 2.6V | 00:00:00 | 00:00:00 | 00:00:00 | |
| DL1XH-15 | 2026-09-02 11:39:19 | 52.41104 | 8.62775 | 118° | 80km/h | 9171m | -5.2m/s | -43.1°C | 49.4% | 309hPa | 2.6V | 07:59:12 | 02:02:11 | 00:00:00 | |
| DL1XH-west | 2026-09-02 11:39:19 | 52.41084 | 8.62839 | 116° | 91km/h | 9162m | -4.3m/s | -43°C | 50.4% | 309.4hPa | 2.5V | 07:59:50 | 02:02:13 | 00:00:00 | |
| DJ2DS-15 | 2026-09-02 11:39:19 | 52.41084 | 8.62839 | 116° | 80km/h | 9162m | -4.2m/s | -43.0°C | 48.8% | 309.4hPa | 2.6V | 00:00:00 | 02:02:13 | 00:00:00 | |
| GOEST3-10 | 2026-09-02 11:39:18 | 52.41094 | 8.62806 | 118° | 77km/h | 9167m | -5.4m/s | -43.0°C | 49.1% | 309.2hPa | 2.6V | 00:00:00 | 02:02:12 | 00:00:00 | |
| DL1XH1-15 | 2026-09-02 11:39:16 | 52.41151 | 8.62618 | 107° | 66km/h | 9203m | -4.7m/s | -43.3°C | 48.6% | 307.7hPa | 2.6V | 07:59:18 | 02:02:05 | 00:00:00 | |
| DO2JMG | 2026-09-02 11:39:12 | 52.41145 | 8.62644 | 111° | 66km/h | 9198m | -5m/s | -43.3°C | 51.5% | 308hPa | 2.6V | 07:59:50 | 02:02:06 | 00:00:00 | |
| HSKMA3-T | 2026-09-02 11:39:10 | 52.41155 | 8.62591 | 102° | 68km/h | 9208m | -4.5m/s | -43.4°C | 51.4% | 307.5hPa | 2.6V | 07:59:50 | 02:02:04 | 00:00:00 | |
| DB0DAN | 2026-09-02 11:39:10 | 52.41155 | 8.62591 | 101° | 64km/h | 9208m | -4.5m/s | -43.4°C | 44% | 307.47hPa | 2.6V | 00:00:00 | 00:00:00 | 00:00:00 | |
| AA1-15 | 2026-09-02 11:39:10 | 52.41158 | 8.62563 | 99° | 69km/h | 9213m | -4.6m/s | -43.4°C | 51.2% | 307.3hPa | 2.5V | 07:59:50 | 02:02:03 | 00:00:00 | |
| BIOWL1-15 | 2026-09-02 11:39:09 | 52.41164 | 8.62501 | 100° | 82km/h | 9222m | -5.1m/s | -43.5°C | 51.1% | 306.8hPa | 2.5V | 07:59:50 | 02:02:01 | 00:00:00 | |
| DL1XH-west | 2026-09-02 11:39:08 | 52.41161 | 8.62533 | 99° | 75km/h | 9217m | -5.5m/s | -43.5°C | 51.2% | 306.9hPa | 2.5V | 07:59:50 | 02:02:02 | 00:00:00 | |
| DO9LL-15 | 2026-09-02 11:39:08 | 52.41161 | 8.62533 | 100° | 78km/h | 9217m | -5.4m/s | -43.4°C | 48.1% | 306.9hPa | 2.5V | 00:00:00 | 02:02:02 | 00:00:00 | |
| DO3DL | 2026-09-02 11:39:07 | 52.41160 | 8.62533 | 100° | 75km/h | 9217m | -5.5m/s | -43.5°C | 43.8% | 306.9hPa | 2.5V | 07:59:00 | 00:00:00 | 00:00:00 | |
| DL8DAS-15 | 2026-09-02 11:39:06 | 52.41164 | 8.62501 | 101° | 82km/h | 9222m | -5.1m/s | 0°C | 0% | 0hPa | 2.5V | 00:00:00 | 00:00:00 | 00:00:00 | |
| DD1CC2-15 | 2026-09-02 11:39:05 | 52.41168 | 8.62467 | 102° | 86km/h | 9227m | -5.3m/s | -43.6°C | 44.1% | 306.6hPa | 2.5V | 07:59:00 | 00:00:00 | 00:00:00 | |
| GOEST3-10 | 2026-09-02 11:39:03 | 52.41188 | 8.62360 | 113° | 86km/h | 9241m | -4.9m/s | -43.7°C | 48.8% | 305.9hPa | 2.5V | 00:00:00 | 00:00:00 | 00:00:00 | |
| DL1XH1-15 | 2026-09-02 11:39:02 | 52.41208 | 8.62294 | 119° | 88km/h | 9250m | -4.6m/s | -43.8°C | 49.6% | 305.5hPa | 2.5V | 07:59:28 | 02:01:55 | 00:00:00 | |
| DO2JMG | 2026-09-02 11:39:02 | 52.41198 | 8.62326 | 114° | 88km/h | 9245m | -4.9m/s | -43.8°C | 51.1% | 305.6hPa | 2.5V | 07:59:50 | 02:01:56 | 00:00:00 | |
| HSKMA3-T | 2026-09-02 11:38:59 | 52.41228 | 8.62235 | 119° | 77km/h | 9259m | -4.9m/s | -43.9°C | 51.7% | 305hPa | 2.5V | 07:59:50 | 02:01:53 | 00:00:00 | |
| BIOWL1-15 | 2026-09-02 11:38:59 | 52.41246 | 8.62184 | 120° | 68km/h | 9269m | -5.2m/s | -44°C | 52.3% | 304.6hPa | 2.6V | 07:59:50 | 02:01:51 | 00:00:00 | |
| DL1XH-15 | 2026-09-02 11:38:59 | 52.41246 | 8.62184 | 120° | 68km/h | 9269m | -5.2m/s | -44°C | 50.5% | 304.6hPa | 2.6V | 07:59:32 | 02:01:51 | 00:00:00 | |
| DL1XH-west | 2026-09-02 11:38:58 | 52.41237 | 8.62209 | 120° | 71km/h | 9264m | -5.2m/s | -43.9°C | 52% | 304.9hPa | 2.6V | 07:59:50 | 02:01:52 | 00:00:00 | |
| DL1XH1-15 | 2026-09-02 11:38:56 | 52.41273 | 8.62022 | 98° | 80km/h | 9299m | -5.3m/s | -44.3°C | 50.5% | 303.1hPa | 2.6V | 07:59:38 | 02:01:45 | 00:00:00 | |
| DM0DOS-11 | 2026-09-02 11:38:56 | 52.41264 | 8.62110 | 102° | 64km/h | 9285m | -4.3m/s | -44.1°C | 50.5% | 303.9hPa | 2.5V | 07:59:35 | 02:01:48 | 00:00:00 | |
| DB0DAN | 2026-09-02 11:38:55 | 52.41260 | 8.62136 | 107° | 62km/h | 9280m | -4.9m/s | -44.1°C | 46.1% | 304.18hPa | 2.5V | 00:00:00 | 00:00:00 | 00:00:00 | |
| DO2JMG | 2026-09-02 11:38:51 | 52.41273 | 8.62022 | 99° | 80km/h | 9299m | -5.3m/s | -44.3°C | 53.6% | 303.1hPa | 2.6V | 07:59:50 | 02:01:45 | 00:00:00 | |
| DM0DOS-11 | 2026-09-02 11:38:49 | 52.41325 | 8.61782 | 120° | 80km/h | 9335m | -5.4m/s | -44.6°C | 52.4% | 301.6hPa | 2.5V | 07:59:45 | 02:01:38 | 00:00:00 | |
| DL1XH-15 | 2026-09-02 11:38:49 | 52.41295 | 8.61880 | 110° | 91km/h | 9320m | -5.5m/s | -44.4°C | 51.5% | 302.2hPa | 2.6V | 07:59:42 | 02:01:41 | 00:00:00 | |
| HSKMA3-T | 2026-09-02 11:38:49 | 52.41288 | 8.61916 | 107° | 93km/h | 9315m | -5.6m/s | -44.4°C | 53.7% | 302.5hPa | 2.5V | 07:59:50 | 02:01:42 | 00:00:00 | |
| DL1XH-west | 2026-09-02 11:38:47 | 52.41295 | 8.61880 | 111° | 91km/h | 9320m | -5.5m/s | -44.4°C | 53.9% | 302.2hPa | 2.6V | 07:59:50 | 02:01:41 | 00:00:00 | |
| SONDE2-11 | 2026-09-02 11:38:46 | 52.41314 | 8.61812 | 118° | 88km/h | 9330m | -5.1m/s | -44.5°C | 47.4% | 301.9hPa | 2.6V | 00:00:00 | 00:00:00 | 00:00:00 | |
| DL3AQ-11 | 2026-09-02 11:38:45 | 52.41325 | 8.61781 | 120° | 80km/h | 9335m | -5.4m/s | -44.6°C | 47.8% | 301.6hPa | 2.6V | 00:00:00 | 00:00:00 | 00:00:00 | |
| DO2JMG | 2026-09-02 11:38:40 | 52.41357 | 8.61675 | 111° | 64km/h | 9357m | -4.8m/s | -44.7°C | 54.9% | 300.7hPa | 2.6V | 07:59:50 | 02:01:34 | 00:00:00 | |
| HSKMA3-T | 2026-09-02 11:38:37 | 52.41370 | 8.61593 | 100° | 71km/h | 9372m | -5.2m/s | -44.9°C | 55.1% | 300.1hPa | 2.5V | 08:00:41 | 02:01:31 | 00:00:00 | |
| AA1-15 | 2026-09-02 11:38:36 | 52.41373 | 8.61562 | 100° | 80km/h | 9377m | -5m/s | -44.9°C | 55.1% | 299.9hPa | 2.5V | 08:00:41 | 02:01:30 | 00:00:00 | |
| BIOWL1-15 | 2026-09-02 11:38:34 | 52.41495 | 8.61078 | 110° | 66km/h | 9449m | -5.2m/s | -45.5°C | 54.8% | 296.6hPa | 2.6V | 08:00:41 | 02:01:15 | 00:00:00 | |
| DD8BA-10 | 2026-09-02 11:38:33 | 52.41387 | 8.61458 | 107° | 89km/h | 9391m | -4.7m/s | -45.0°C | 53.1% | 299.1hPa | 2.6V | 00:00:00 | 00:00:00 | 00:00:00 | |
| DM0DOS-11 | 2026-09-02 11:38:29 | 52.41472 | 8.61158 | 120° | 80km/h | 9435m | -4.7m/s | -45.3°C | 52.7% | 297.2hPa | 2.5V | 08:00:05 | 02:01:18 | 00:00:00 | |
| DO2JMG | 2026-09-02 11:38:29 | 52.41420 | 8.61313 | 116° | 95km/h | 9411m | -5m/s | -45.2°C | 54.8% | 298.3hPa | 2.5V | 08:00:41 | 02:01:23 | 00:00:00 | |
| DL4BBY-15 | 2026-09-02 11:38:29 | 52.41420 | 8.61313 | 116° | 84km/h | 9411m | -5.0m/s | -46.0°C | 0% | 0hPa | 2.6V | 00:00:00 | 00:00:00 | 00:00:00 | |
| DL1XH-15 | 2026-09-02 11:38:28 | 52.41440 | 8.61246 | 118° | 86km/h | 9421m | -4.7m/s | -45.2°C | 53% | 297.9hPa | 2.6V | 08:00:02 | 02:01:21 | 00:00:00 | |
| DL1XH-west | 2026-09-02 11:38:26 | 52.41451 | 8.61216 | 121° | 86km/h | 9426m | -4.6m/s | -45.3°C | 54.5% | 297.7hPa | 2.6V | 08:00:41 | 02:01:20 | 00:00:00 | |
| AA1-15 | 2026-09-02 11:38:26 | 52.41462 | 8.61186 | 122° | 84km/h | 9431m | -4.6m/s | -45.3°C | 54.4% | 297.5hPa | 2.5V | 08:00:41 | 02:01:19 | 00:00:00 | |
| DD1CC2-15 | 2026-09-02 11:38:24 | 52.41472 | 8.61158 | 122° | 80km/h | 9435m | -4.7m/s | -45.3°C | 47.9% | 297.2hPa | 2.5V | 08:00:00 | 00:00:00 | 00:00:00 | |
| DD8BA-10 | 2026-09-02 11:38:23 | 52.41481 | 8.61130 | 118° | 78km/h | 9440m | -4.6m/s | -45.3°C | 52.6% | 296.9hPa | 2.5V | 00:00:00 | 00:00:00 | 00:00:00 | |
| DL1XH-15 | 2026-09-02 11:38:22 | 52.41512 | 8.60959 | 101° | 84km/h | 9471m | -5.4m/s | -45.7°C | 51.8% | 295.7hPa | 2.5V | 08:00:12 | 02:01:11 | 00:00:00 | |
| DL1XH1-15 | 2026-09-02 11:38:22 | 52.41495 | 8.61078 | 109° | 66km/h | 9449m | -5.2m/s | -45.5°C | 52.6% | 296.6hPa | 2.6V | 08:00:08 | 02:01:15 | 00:00:00 | |
| DO2JMG | 2026-09-02 11:38:18 | 52.41508 | 8.60993 | 102° | 80km/h | 9466m | -5.1m/s | -45.6°C | 54.5% | 295.8hPa | 2.5V | 08:00:41 | 02:01:12 | 00:00:00 | |
| BIOWL1-15 | 2026-09-02 11:38:17 | 52.41517 | 8.60924 | 102° | 91km/h | 9477m | -5.7m/s | -45.7°C | 54.2% | 295.5hPa | 2.5V | 08:00:41 | 02:01:10 | 00:00:00 | |
| DL1XH-west | 2026-09-02 11:38:16 | 52.41529 | 8.60848 | 107° | 99km/h | 9488m | -5.7m/s | -45.8°C | 54% | 295.1hPa | 2.6V | 08:00:41 | 02:01:08 | 00:00:00 | |
| HSKMA3-T | 2026-09-02 11:38:16 | 52.41522 | 8.60886 | 104° | 95km/h | 9482m | -5.6m/s | -45.8°C | 54.1% | 295.3hPa | 2.6V | 08:00:41 | 02:01:09 | 00:00:00 | |
| DM0DOS-11 | 2026-09-02 11:38:16 | 52.41529 | 8.60848 | 107° | 99km/h | 9488m | -5.7m/s | -45.8°C | 51.7% | 295.1hPa | 2.6V | 08:00:15 | 02:01:08 | 00:00:00 | |
| DF5WG-10 | 2026-09-02 11:38:16 | 52.41517 | 8.60923 | 103° | 89km/h | 9477m | -5.6m/s | -45.7°C | 51.7% | 295.5hPa | 2.5V | 00:00:00 | 02:01:10 | 00:00:00 | |
| SONDE2-11 | 2026-09-02 11:38:15 | 52.41529 | 8.60848 | 107° | 97km/h | 9488m | -5.7m/s | -45.8°C | 46.9% | 295.1hPa | 2.5V | 00:00:00 | 00:00:00 | 00:00:00 | |
| DD8BA-10 | 2026-09-02 11:38:13 | 52.41536 | 8.60809 | 111° | 84km/h | 9493m | -5.1m/s | -45.8°C | 51.7% | 294.7hPa | 2.5V | 00:00:00 | 00:00:00 | 00:00:00 | |
| GOEST3-10 | 2026-09-02 11:38:12 | 52.41546 | 8.60771 | 114° | 93km/h | 9498m | -5.1m/s | -45.8°C | 51.6% | 294.5hPa | 2.5V | 00:00:00 | 00:00:00 | 00:00:00 | |
| DM0DOS-11 | 2026-09-02 11:38:09 | 52.41620 | 8.60532 | 107° | 71km/h | 9536m | -5.7m/s | -46.1°C | 49.9% | 292.7hPa | 2.5V | 08:00:25 | 02:00:58 | 00:00:00 | |
| DL1XH-15 | 2026-09-02 11:38:08 | 52.41600 | 8.60612 | 119° | 77km/h | 9522m | -4.6m/s | -46°C | 50.6% | 293.4hPa | 2.6V | 08:00:22 | 02:01:01 | 00:00:00 | |
| DO2JMG | 2026-09-02 11:38:07 | 52.41600 | 8.60612 | 119° | 77km/h | 9522m | -4.6m/s | -46°C | 52.6% | 293.4hPa | 2.6V | 08:00:41 | 02:01:01 | 00:00:00 | |
| BIOWL1-15 | 2026-09-02 11:38:07 | 52.41608 | 8.60585 | 113° | 71km/h | 9527m | -4.6m/s | -46°C | 52.5% | 293.2hPa | 2.6V | 08:00:41 | 02:01:00 | 00:00:00 | |
| HSKMA3-T | 2026-09-02 11:38:04 | 52.41620 | 8.60532 | 108° | 71km/h | 9536m | -5.7m/s | -46.1°C | 52.4% | 292.7hPa | 2.5V | 08:00:41 | 02:00:58 | 00:00:00 | |
| DL1XH-west | 2026-09-02 11:38:03 | 52.41625 | 8.60503 | 104° | 78km/h | 9542m | -5.4m/s | -46.2°C | 52.3% | 292.5hPa | 2.5V | 08:00:41 | 02:00:57 | 00:00:00 | |
| DD8BA-10 | 2026-09-02 11:38:03 | 52.41625 | 8.60503 | 104° | 93km/h | 9542m | -5.3m/s | -46.1°C | 49.8% | 292.5hPa | 2.5V | 00:00:00 | 00:00:00 | 00:00:00 | |
| DL1XH-15 | 2026-09-02 11:38:02 | 52.41664 | 8.60281 | 112° | 100km/h | 9570m | -5.5m/s | -46.3°C | 49% | 291.1hPa | 2.6V | 08:00:32 | 02:00:51 | 00:00:00 | |
| BIOWL1-15 | 2026-09-02 11:37:56 | 52.41687 | 8.60208 | 121° | 97km/h | 9580m | -5.1m/s | -46.4°C | 51.4% | 290.8hPa | 2.5V | 08:00:41 | 02:00:49 | 00:00:00 | |
| DO2JMG | 2026-09-02 11:37:56 | 52.41675 | 8.60244 | 117° | 102km/h | 9575m | -5.4m/s | -46.4°C | 51.3% | 291hPa | 2.6V | 08:00:41 | 02:00:50 | 00:00:00 | |
| DF5WG-10 | 2026-09-02 11:37:56 | 52.41675 | 8.60244 | 118° | 84km/h | 9575m | -5.4m/s | -46.3°C | 49.3% | 290.9hPa | 2.6V | 08:00:00 | 02:00:50 | 00:00:00 | |
| DM0DOS-11 | 2026-09-02 11:37:55 | 52.41700 | 8.60176 | 123° | 88km/h | 9584m | -5.1m/s | -46.5°C | 49.8% | 290.6hPa | 2.5V | 08:00:35 | 02:00:48 | 00:00:00 | |
| DB0DAN | 2026-09-02 11:37:55 | 52.41687 | 8.60208 | 121° | 93km/h | 9580m | -5.1m/s | -46.4°C | 44.9% | 290.81hPa | 2.5V | 00:00:00 | 00:00:00 | 00:00:00 | |
| HSKMA3-T | 2026-09-02 11:37:53 | 52.41711 | 8.60146 | 122° | 82km/h | 9589m | -5.6m/s | -46.5°C | 51.6% | 290.4hPa | 2.5V | 08:00:41 | 02:00:47 | 00:00:00 | |
| DL1XH-west | 2026-09-02 11:37:53 | 52.41721 | 8.60119 | 120° | 77km/h | 9595m | -5m/s | -46.5°C | 51.7% | 290.1hPa | 2.6V | 08:00:41 | 02:00:46 | 00:00:00 | |
| DK9SH | 2026-09-02 11:37:53 | 52.41711 | 8.60146 | 123° | 82km/h | 9589m | -5.6m/s | -46.5°C | 45.1% | 290.4hPa | 2.6V | 08:00:00 | 00:00:00 | 00:00:00 | |
| GOEST3-10 | 2026-09-02 11:37:52 | 52.41721 | 8.60119 | 120° | 77km/h | 9595m | -5.0m/s | -46.5°C | 50.0% | 290.1hPa | 2.6V | 00:00:00 | 00:00:00 | 00:00:00 | |
| DM0DOS-11 | 2026-09-02 11:37:49 | 52.41781 | 8.59822 | 111° | 100km/h | 9640m | -4.8m/s | -46.9°C | 47.5% | 288.1hPa | 2.6V | 08:00:46 | 02:00:37 | 00:00:00 | |
| DO2JMG | 2026-09-02 11:37:45 | 52.41765 | 8.59899 | 105° | 93km/h | 9631m | -4.4m/s | -46.9°C | 50.7% | 288.6hPa | 2.6V | 08:01:32 | 02:00:39 | 00:00:00 | |
| BIOWL1-15 | 2026-09-02 11:37:44 | 52.41861 | 8.59592 | 122° | 82km/h | 9675m | -4.9m/s | -47.2°C | 49.8% | 286.7hPa | 2.6V | 08:01:32 | 02:00:30 | 00:00:00 | |
| SONDE2-11 | 2026-09-02 11:37:44 | 52.41781 | 8.59822 | 111° | 99km/h | 9640m | -4.8m/s | -46.9°C | 42.7% | 288.1hPa | 2.5V | 00:00:00 | 00:00:00 | 00:00:00 | |
| DL1XH1-15 | 2026-09-02 11:37:43 | 52.41802 | 8.59747 | 117° | 97km/h | 9649m | -5.1m/s | -47°C | 47.8% | 287.7hPa | 2.5V | 08:00:48 | 02:00:35 | 00:00:00 | |
| HSKMA3-T | 2026-09-02 11:37:42 | 52.41791 | 8.59783 | 115° | 100km/h | 9644m | -5.4m/s | -47°C | 50.1% | 287.9hPa | 2.5V | 08:01:32 | 02:00:36 | 00:00:00 | |
| GOEST3-10 | 2026-09-02 11:37:42 | 52.41791 | 8.59783 | 115° | 95km/h | 9644m | -5.3m/s | -46.9°C | 47.7% | 287.9hPa | 2.5V | 08:00:00 | 00:00:00 | 00:00:00 | |
| DB0DAN | 2026-09-02 11:37:40 | 52.41814 | 8.59712 | 121° | 91km/h | 9655m | -5.3m/s | -47°C | 43.1% | 287.44hPa | 2.5V | 00:00:00 | 00:00:00 | 00:00:00 | |
| DL4XJ-10 | 2026-09-02 11:37:40 | 52.41814 | 8.59712 | 121° | 93km/h | 9655m | -5.2m/s | -47.8°C | 0% | 0hPa | 2.5V | 00:00:00 | 00:00:00 | 00:00:00 | |
| DJ2DS-15 | 2026-09-02 11:37:39 | 52.41827 | 8.59679 | 123° | 93km/h | 9659m | -5.4m/s | -47.0°C | 48.0% | 287.3hPa | 2.5V | 00:00:00 | 02:00:33 | 00:00:00 | |
| DL3AQ-11 | 2026-09-02 11:37:38 | 52.41850 | 8.59620 | 124° | 82km/h | 9670m | -5.4m/s | -47.1°C | 43.3% | 286.8hPa | 2.5V | 00:00:00 | 00:00:00 | 00:00:00 | |
| GOEST3-10 | 2026-09-02 11:37:37 | 52.41850 | 8.59620 | 125° | 80km/h | 9670m | -5.4m/s | -47.1°C | 48.2% | 286.8hPa | 2.5V | 00:00:00 | 02:00:31 | 00:00:00 | |
| DF5WG-10 | 2026-09-02 11:37:36 | 52.41861 | 8.59592 | 122° | 89km/h | 9675m | -4.8m/s | -47.1°C | 48.1% | 286.6hPa | 2.5V | 00:00:00 | 02:00:30 | 00:00:00 | |
| DM0DOS-11 | 2026-09-02 11:37:35 | 52.41879 | 8.59535 | 114° | 75km/h | 9685m | -5.2m/s | -47.2°C | 47.4% | 286.2hPa | 2.5V | 08:00:55 | 02:00:28 | 00:00:00 | |
| DO2JMG | 2026-09-02 11:37:35 | 52.41871 | 8.59563 | 116° | 77km/h | 9680m | -4.6m/s | -47.2°C | 49.6% | 286.4hPa | 2.5V | 08:01:32 | 02:00:29 | 00:00:00 | |
| DL1XH1-15 | 2026-09-02 11:37:35 | 52.41899 | 8.59438 | 105° | 89km/h | 9701m | -5.3m/s | -47.4°C | 46.5% | 285.6hPa | 2.6V | 08:00:58 | 02:00:25 | 00:00:00 | |
| BIOWL1-15 | 2026-09-02 11:37:33 | 52.41940 | 8.59240 | 115° | 108km/h | 9724m | -4.2m/s | -47.5°C | 48.7% | 284.5hPa | 2.6V | 08:01:32 | 02:00:20 | 00:00:00 | |
| DD8BA-10 | 2026-09-02 11:37:33 | 52.41886 | 8.59505 | 111° | 99km/h | 9691m | -4.6m/s | -47.2°C | 47.1% | 286.0hPa | 2.5V | 00:00:00 | 00:00:00 | 00:00:00 | |
| DL1XH-15 | 2026-09-02 11:37:32 | 52.41930 | 8.59281 | 111° | 110km/h | 9719m | -4.8m/s | -47.5°C | 46.3% | 284.8hPa | 2.6V | 08:01:02 | 02:00:21 | 00:00:00 | |
| HSKMA3-T | 2026-09-02 11:37:31 | 52.41899 | 8.59438 | 106° | 89km/h | 9701m | -5.4m/s | -47.4°C | 49.1% | 285.6hPa | 2.6V | 08:01:32 | 02:00:25 | 00:00:00 | |
| DL4BBY-15 | 2026-09-02 11:37:29 | 52.41912 | 8.59363 | 107° | 100km/h | 9711m | -4.8m/s | -48.2°C | 0% | 0hPa | 2.6V | 00:00:00 | 00:00:00 | 00:00:00 | |
| GOEST3-10 | 2026-09-02 11:37:27 | 52.41930 | 8.59281 | 112° | 108km/h | 9720m | -4.8m/s | -47.4°C | 46.3% | 284.8hPa | 2.6V | 00:00:00 | 02:00:21 | 00:00:00 | |
| DB0DAN | 2026-09-02 11:37:25 | 52.41952 | 8.59200 | 117° | 104km/h | 9729m | -5.5m/s | -47.5°C | 41.8% | 284.26hPa | 2.5V | 00:00:00 | 00:00:00 | 00:00:00 | |
| DO2JMG | 2026-09-02 11:37:24 | 52.41966 | 8.59161 | 122° | 110km/h | 9734m | -5m/s | -47.6°C | 48.8% | 284.1hPa | 2.5V | 08:01:32 | 02:00:18 | 00:00:00 | |
| DD8BA-10 | 2026-09-02 11:37:23 | 52.41980 | 8.59125 | 124° | 93km/h | 9739m | -5.0m/s | -47.5°C | 47.0% | 283.8hPa | 2.6V | 00:00:00 | 00:00:00 | 00:00:00 | |
| DL1XH1-15 | 2026-09-02 11:37:22 | 52.42008 | 8.59058 | 126° | 97km/h | 9749m | -4.8m/s | -47.7°C | 47.4% | 283.4hPa | 2.6V | 08:01:08 | 02:00:15 | 00:00:00 | |
| BIOWL1-15 | 2026-09-02 11:37:21 | 52.42008 | 8.59058 | 126° | 97km/h | 9749m | -4.8m/s | -47.7°C | 49.2% | 283.4hPa | 2.6V | 08:01:32 | 02:00:15 | 00:00:00 | |
| HSKMA3-T | 2026-09-02 11:37:20 | 52.42022 | 8.59028 | 126° | 89km/h | 9754m | -5.1m/s | -47.7°C | 49.4% | 283.3hPa | 2.6V | 08:01:32 | 02:00:14 | 00:00:00 | |
| DL4XJ-10 | 2026-09-02 11:37:20 | 52.42021 | 8.59028 | 126° | 99km/h | 9754m | -5.0m/s | -48.5°C | 0% | 0hPa | 2.5V | 00:00:00 | 00:00:00 | 00:00:00 | |
| DL1XH-15 | 2026-09-02 11:37:19 | 52.42053 | 8.58937 | 110° | 84km/h | 9769m | -4.5m/s | -47.8°C | 47.4% | 282.6hPa | 2.5V | 08:01:12 | 02:00:11 | 00:00:00 | |
| DJ2DS-15 | 2026-09-02 11:37:19 | 52.42034 | 8.58998 | 123° | 99km/h | 9759m | -5.2m/s | -47.7°C | 47.4% | 283.0hPa | 2.5V | 00:00:00 | 02:00:13 | 00:00:00 | |
| BUE01 | 2026-09-02 11:37:18 | 52.42044 | 8.58968 | 115° | 82km/h | 9764m | -4.9m/s | -47.8°C | 42.4% | 282.7hPa | 2.5V | 00:00:00 | 00:00:00 | 00:00:00 | |
| GOEST3-10 | 2026-09-02 11:37:17 | 52.42053 | 8.58936 | 111° | 95km/h | 9769m | -4.4m/s | 0°C | 0% | 0hPa | 2.5V | 00:00:00 | 02:00:11 | 00:00:00 | |
| DL1XH1-15 | 2026-09-02 11:37:16 | 52.42106 | 8.58700 | 114° | 110km/h | 9795m | -4.5m/s | -48°C | 47.6% | 281.4hPa | 2.5V | 08:01:18 | 02:00:05 | 00:00:00 | |
| DO2JMG | 2026-09-02 11:37:14 | 52.42075 | 8.58827 | 109° | 102km/h | 9783m | -5.4m/s | -47.9°C | 49.9% | 282hPa | 2.6V | 08:01:32 | 02:00:08 | 00:00:00 | |
| DJ2KF-10 | 2026-09-02 11:37:14 | 52.42075 | 8.58827 | 109° | 113km/h | 9783m | -5.3m/s | -47.9°C | 47.2% | 281.9hPa | 2.6V | 00:00:00 | 02:00:08 | 00:00:00 | |
| SONDE2-11 | 2026-09-02 11:37:13 | 52.42095 | 8.58743 | 112° | 110km/h | 9791m | -4.2m/s | -48.0°C | 42.5% | 281.5hPa | 2.6V | 00:00:00 | 00:00:00 | 00:00:00 | |
| DL1XH-15 | 2026-09-02 11:37:12 | 52.42161 | 8.58538 | 124° | 108km/h | 9814m | -4.9m/s | -48.2°C | 48.6% | 280.5hPa | 2.6V | 08:01:22 | 02:00:01 | 00:00:00 | |
| BIOWL1-15 | 2026-09-02 11:37:12 | 52.42146 | 8.58576 | 122° | 115km/h | 9810m | -4.8m/s | -48.2°C | 50.3% | 280.7hPa | 2.6V | 08:01:32 | 02:00:02 | 00:00:00 | |
| AA1-15 | 2026-09-02 11:37:10 | 52.42131 | 8.58617 | 118° | 113km/h | 9805m | -5.6m/s | -48.1°C | 50.3% | 280.8hPa | 2.5V | 08:01:32 | 02:00:03 | 00:00:00 | |
| HSKMA3-T | 2026-09-02 11:37:10 | 52.42118 | 8.58659 | 116° | 111km/h | 9799m | -5.4m/s | -48.1°C | 50.2% | 281.1hPa | 2.5V | 08:01:32 | 02:00:04 | 00:00:00 | |
| DO2JMG | 2026-09-02 11:37:03 | 52.42219 | 8.58406 | 126° | 91km/h | 9837m | -5.1m/s | -48.3°C | 51% | 279.6hPa | 2.5V | 08:01:32 | 01:59:57 | 00:00:00 | |
| DD8BA-10 | 2026-09-02 11:37:03 | 52.42219 | 8.58406 | 126° | 99km/h | 9837m | -5.0m/s | -48.3°C | 49.2% | 279.5hPa | 2.5V | 08:01:00 | 00:00:00 | 00:00:00 | |
| DL1XH1-15 | 2026-09-02 11:37:02 | 52.42241 | 8.58342 | 114° | 88km/h | 9847m | -4.5m/s | -48.4°C | 48.8% | 279.3hPa | 2.6V | 08:01:28 | 01:59:55 | 00:00:00 | |
| DL1XH-west | 2026-09-02 11:37:00 | 52.42250 | 8.58308 | 112° | 89km/h | 9852m | -5.2m/s | -48.4°C | 51.1% | 279hPa | 2.6V | 08:01:32 | 01:59:54 | 00:00:00 | |
| DL4XJ-10 | 2026-09-02 11:37:00 | 52.42250 | 8.58308 | 113° | 102km/h | 9852m | -5.2m/s | -49.2°C | 0% | 0hPa | 2.5V | 00:00:00 | 00:00:00 | 00:00:00 | |
| DL1XH-15 | 2026-09-02 11:36:59 | 52.42275 | 8.58196 | 109° | 102km/h | 9868m | -5.2m/s | -48.5°C | 48.6% | 278.3hPa | 2.5V | 08:01:32 | 01:59:51 | 00:00:00 | |
| AA1-15 | 2026-09-02 11:36:59 | 52.42266 | 8.58236 | 109° | 97km/h | 9862m | -5.4m/s | -48.5°C | 51.1% | 278.6hPa | 2.5V | 08:01:32 | 01:59:52 | 00:00:00 | |
| BIOWL1-15 | 2026-09-02 11:36:59 | 52.42258 | 8.58273 | 111° | 93km/h | 9857m | -5.5m/s | -48.5°C | 51.1% | 278.8hPa | 2.6V | 08:01:32 | 01:59:53 | 00:00:00 | |
| DL4BBY-15 | 2026-09-02 11:36:59 | 52.42258 | 8.58273 | 111° | 111km/h | 9858m | -5.4m/s | -49.2°C | 0% | 0hPa | 2.6V | 00:00:00 | 00:00:00 | 00:00:00 | |
| DM0DOS-11 | 2026-09-02 11:36:58 | 52.42307 | 8.58069 | 116° | 117km/h | 9881m | -4m/s | -48.6°C | 49.1% | 277.7hPa | 2.6V | 08:01:35 | 01:59:48 | 00:00:00 | |
| DL3AQ-11 | 2026-09-02 11:36:57 | 52.42275 | 8.58196 | 109° | 102km/h | 9868m | -5.2m/s | -48.5°C | 43.5% | 278.3hPa | 2.5V | 00:00:00 | 00:00:00 | 00:00:00 | |
| DL1XH1-15 | 2026-09-02 11:36:56 | 52.42351 | 8.57942 | 122° | 113km/h | 9895m | -4.8m/s | -48.7°C | 49.5% | 277.1hPa | 2.5V | 08:01:38 | 01:59:45 | 00:00:00 | |
| DO2JMG | 2026-09-02 11:36:53 | 52.42321 | 8.58025 | 119° | 120km/h | 9885m | -4.7m/s | -48.6°C | 50.9% | 277.5hPa | 2.5V | 08:02:23 | 01:59:47 | 00:00:00 | |
| DL1XH-west | 2026-09-02 11:36:49 | 52.42383 | 8.57866 | 125° | 108km/h | 9904m | -5m/s | -48.8°C | 50.9% | 276.6hPa | 2.6V | 08:02:23 | 01:59:43 | 00:00:00 | |
| AA1-15 | 2026-09-02 11:36:48 | 52.42398 | 8.57831 | 126° | 104km/h | 9910m | -5.4m/s | -48.8°C | 50.9% | 276.4hPa | 2.5V | 08:02:23 | 01:59:42 | 00:00:00 | |
| BUE01 | 2026-09-02 11:36:47 | 52.42426 | 8.57764 | 124° | 93km/h | 9920m | -5.0m/s | -48.9°C | 44.6% | 275.9hPa | 2.5V | 00:00:00 | 00:00:00 | 00:00:00 | |
| DL3AQ-11 | 2026-09-02 11:36:45 | 52.42451 | 8.57700 | 121° | 89km/h | 9931m | -5.8m/s | -48.9°C | 44.3% | 275.6hPa | 2.5V | 00:00:00 | 00:00:00 | 00:00:00 | |
| DO3DL | 2026-09-02 11:36:44 | 52.42439 | 8.57732 | 125° | 91km/h | 9926m | -5.6m/s | -48.9°C | 44.6% | 275.9hPa | 2.5V | 08:02:00 | 00:00:00 | 00:00:00 | |
| DD8BA-10 | 2026-09-02 11:36:43 | 52.42462 | 8.57667 | 117° | 110km/h | 9937m | -5.9m/s | -48.9°C | 49.2% | 275.3hPa | 2.5V | 00:00:00 | 00:00:00 | 00:00:00 | |
| DL1XH1-15 | 2026-09-02 11:36:42 | 52.42481 | 8.57594 | 111° | 100km/h | 9948m | -5.2m/s | -48.9°C | 47.8% | 274.9hPa | 2.5V | 08:01:48 | 01:59:35 | 00:00:00 | |
| DO2JMG | 2026-09-02 11:36:42 | 52.42472 | 8.57632 | 113° | 95km/h | 9943m | -5.3m/s | -49°C | 50.9% | 275.1hPa | 2.5V | 08:02:23 | 01:59:36 | 00:00:00 | |
| GOEST3-10 | 2026-09-02 11:36:42 | 52.42472 | 8.57632 | 114° | 104km/h | 9943m | -5.2m/s | -48.9°C | 48.5% | 275.1hPa | 2.5V | 00:00:00 | 01:59:36 | 00:00:00 | |
| DD1CC2-15 | 2026-09-02 11:36:41 | 52.42472 | 8.57631 | 114° | 95km/h | 9943m | -5.3m/s | -49.0°C | 43.4% | 275.1hPa | 2.5V | 08:02:00 | 00:00:00 | 00:00:00 | |
| DB0DAN | 2026-09-02 11:36:40 | 52.42490 | 8.57555 | 110° | 99km/h | 9954m | -5.1m/s | -48.9°C | 42.3% | 274.8hPa | 2.5V | 00:00:00 | 00:00:00 | 00:00:00 | |
| BIOWL1-15 | 2026-09-02 11:36:39 | 52.42500 | 8.57513 | 111° | 110km/h | 9959m | -5.4m/s | -49°C | 50.3% | 274.6hPa | 2.5V | 08:02:23 | 01:59:33 | 00:00:00 | |
| AA1-15 | 2026-09-02 11:36:38 | 52.42522 | 8.57425 | 114° | 119km/h | 9970m | -5.8m/s | -49°C | 50.3% | 274.1hPa | 2.6V | 08:02:23 | 01:59:31 | 00:00:00 | |
| DO9LL-15 | 2026-09-02 11:36:38 | 52.42510 | 8.57470 | 113° | 115km/h | 9965m | -5.3m/s | -49.0°C | 47.3% | 274.3hPa | 2.6V | 00:00:00 | 01:59:32 | 00:00:00 | |
| GOEST3-10 | 2026-09-02 11:36:37 | 52.42522 | 8.57425 | 115° | 119km/h | 9970m | -5.7m/s | -49.0°C | 47.5% | 274.1hPa | 2.6V | 00:00:00 | 00:00:00 | 00:00:00 | |
| DL1XH1-15 | 2026-09-02 11:36:36 | 52.42611 | 8.57167 | 123° | 120km/h | 10003m | -4.8m/s | -49.1°C | 48.8% | 272.9hPa | 2.6V | 08:01:58 | 01:59:25 | 00:00:00 | |
| DO2JMG | 2026-09-02 11:36:31 | 52.42611 | 8.57167 | 123° | 120km/h | 10003m | -4.8m/s | -49.1°C | 50.9% | 272.9hPa | 2.6V | 08:02:23 | 01:59:25 | 00:00:00 | |
| DL1XH-west | 2026-09-02 11:36:29 | 52.42644 | 8.57087 | 125° | 115km/h | 10013m | -4.4m/s | -49.2°C | 51.3% | 272.6hPa | 2.6V | 08:02:23 | 01:59:23 | 00:00:00 | |
| AA1-15 | 2026-09-02 11:36:28 | 52.42660 | 8.57049 | 126° | 115km/h | 10018m | -4.6m/s | -49.3°C | 51.5% | 272.4hPa | 2.5V | 08:02:23 | 01:59:22 | 00:00:00 | |
| DL1LOL-11 | 2026-09-02 11:36:28 | 52.42644 | 8.57087 | 126° | 115km/h | 10013m | -4.4m/s | -49.2°C | 43.7% | 272.5hPa | 2.5V | 00:00:00 | 00:00:00 | 00:00:00 | |
| GOEST3-10 | 2026-09-02 11:36:27 | 52.42677 | 8.57011 | 127° | 113km/h | 10024m | -4.9m/s | -49.3°C | 49.0% | 272.1hPa | 2.5V | 00:00:00 | 00:00:00 | 00:00:00 | |
| DD1CC3-15 | 2026-09-02 11:36:26 | 52.42677 | 8.57011 | 128° | 111km/h | 10024m | -5.0m/s | -49.3°C | 43.8% | 272.1hPa | 2.5V | 08:02:00 | 00:00:00 | 00:00:00 | |
| DB0DAN | 2026-09-02 11:36:25 | 52.42711 | 8.56938 | 127° | 108km/h | 10034m | -5.1m/s | -49.4°C | 44.4% | 271.64hPa | 2.5V | 00:00:00 | 00:00:00 | 00:00:00 | |
| DO3DL | 2026-09-02 11:36:24 | 52.42711 | 8.56938 | 128° | 113km/h | 10034m | -5.1m/s | -49.4°C | 44.4% | 271.6hPa | 2.5V | 08:02:00 | 00:00:00 | 00:00:00 | |
| DD8BA-10 | 2026-09-02 11:36:23 | 52.42746 | 8.56863 | 126° | 122km/h | 10045m | -4.9m/s | -49.4°C | 50.6% | 271.2hPa | 2.5V | 00:00:00 | 00:00:00 | 00:00:00 | |
| DL1XH1-15 | 2026-09-02 11:36:22 | 52.42781 | 8.56779 | 122° | 120km/h | 10056m | -5.7m/s | -49.5°C | 51.2% | 270.7hPa | 2.5V | 08:02:08 | 01:59:15 | 00:00:00 | |
| DO2JMG | 2026-09-02 11:36:21 | 52.42781 | 8.56779 | 122° | 120km/h | 10056m | -5.7m/s | -49.5°C | 53.3% | 270.7hPa | 2.5V | 08:02:23 | 01:59:15 | 00:00:00 | |
| DL1XH-west | 2026-09-02 11:36:18 | 52.42822 | 8.56644 | 113° | 119km/h | 10072m | -5.4m/s | -49.7°C | 53.9% | 270.2hPa | 2.5V | 08:02:23 | 01:59:12 | 00:00:00 | |
| AA1-15 | 2026-09-02 11:36:18 | 52.42834 | 8.56598 | 114° | 122km/h | 10078m | -6.2m/s | -49.8°C | 54.1% | 270hPa | 2.6V | 08:02:23 | 01:59:11 | 00:00:00 | |
| BIOWL7-15 | 2026-09-02 11:36:17 | 52.42834 | 8.56598 | 115° | 122km/h | 10078m | -6.2m/s | -49.8°C | 45.2% | 270.0hPa | 2.5V | 00:00:00 | 00:00:00 | 00:00:00 | |
| DL1XH1-15 | 2026-09-02 11:36:16 | 52.42926 | 8.56358 | 122° | 99km/h | 10110m | -6.2m/s | -50.1°C | 52.2% | 268.6hPa | 2.5V | 08:02:18 | 01:59:05 | 00:00:00 | |
| DO2JMG | 2026-09-02 11:36:11 | 52.42926 | 8.56358 | 122° | 99km/h | 10110m | -6.3m/s | -50.1°C | 55.5% | 268.6hPa | 2.5V | 08:02:23 | 01:59:05 | 00:00:00 | |
| DL1XH-west | 2026-09-02 11:36:08 | 52.42963 | 8.56239 | 118° | 119km/h | 10127m | -4.5m/s | -50.2°C | 56.1% | 268hPa | 2.6V | 08:02:23 | 01:59:02 | 00:00:00 | |
| HSKMA3-T | 2026-09-02 11:36:07 | 52.42979 | 8.56195 | 122° | 124km/h | 10131m | -4.6m/s | -50.3°C | 56.3% | 267.8hPa | 2.5V | 08:02:23 | 01:59:01 | 00:00:00 | |
| AA1-15 | 2026-09-02 11:36:06 | 52.42996 | 8.56153 | 125° | 126km/h | 10137m | -6.2m/s | -50.3°C | 56.7% | 267.5hPa | 2.5V | 08:02:23 | 01:59:00 | 00:00:00 | |
| DO2JMG | 2026-09-02 11:36:01 | 52.43072 | 8.55956 | 115° | 117km/h | 10166m | -4.9m/s | -50.5°C | 58.2% | 266.6hPa | 2.6V | 08:03:14 | 01:58:55 | 00:00:00 | |
| DL4XJ-10 | 2026-09-02 11:36:00 | 52.43085 | 8.55910 | 116° | 119km/h | 10173m | -6.5m/s | -51.4°C | 0% | 0hPa | 2.6V | 00:00:00 | 00:00:00 | 00:00:00 | |
| DL1XH-15 | 2026-09-02 11:35:59 | 52.43136 | 8.55778 | 128° | 120km/h | 10189m | -5m/s | -50.7°C | 57.6% | 265.6hPa | 2.6V | 08:02:32 | 01:58:51 | 00:00:00 | |
| DL4BBY-15 | 2026-09-02 11:35:59 | 52.43100 | 8.55863 | 121° | 120km/h | 10179m | -5.0m/s | -51.4°C | 0% | 0hPa | 2.5V | 00:00:00 | 00:00:00 | 00:00:00 | |
| DM0DOS-11 | 2026-09-02 11:35:58 | 52.43185 | 8.55672 | 120° | 97km/h | 10205m | -5.3m/s | -50.9°C | 58% | 265hPa | 2.5V | 08:02:35 | 01:58:48 | 00:00:00 | |
| DL1XH-west | 2026-09-02 11:35:58 | 52.43118 | 8.55819 | 125° | 126km/h | 10184m | -4.3m/s | -50.7°C | 59.3% | 265.8hPa | 2.5V | 08:03:14 | 01:58:52 | 00:00:00 | |
| HSKMA3-T | 2026-09-02 11:35:57 | 52.43136 | 8.55778 | 129° | 120km/h | 10189m | -5.1m/s | -50.7°C | 59.7% | 265.6hPa | 2.6V | 08:03:14 | 01:58:51 | 00:00:00 | |
| AA1-15 | 2026-09-02 11:35:57 | 52.43155 | 8.55741 | 129° | 108km/h | 10194m | -5m/s | -50.8°C | 60% | 265.5hPa | 2.6V | 08:03:14 | 01:58:50 | 00:00:00 | |
| DB0DAN | 2026-09-02 11:35:55 | 52.43171 | 8.55706 | 126° | 99km/h | 10200m | -5.1m/s | -50.8°C | 51.8% | 265.11hPa | 2.5V | 00:00:00 | 00:00:00 | 00:00:00 | |
| EDDB2-12 | 2026-09-02 11:35:54 | 52.43197 | 8.55634 | 115° | 106km/h | 10210m | -4.7m/s | -50.9°C | 52.3% | 264.8hPa | 2.6V | 00:00:00 | 00:00:00 | 00:00:00 | |
| DD8BA-10 | 2026-09-02 11:35:53 | 52.43197 | 8.55634 | 116° | 115km/h | 10211m | -4.6m/s | -50.9°C | 58.3% | 264.7hPa | 2.6V | 00:00:00 | 00:00:00 | 00:00:00 | |
| DL1XH-15 | 2026-09-02 11:35:52 | 52.43291 | 8.55376 | 126° | 108km/h | 10241m | -5m/s | -51.2°C | 60.7% | 263.5hPa | 2.6V | 08:02:42 | 01:58:41 | 00:00:00 | |
| DO2JMG | 2026-09-02 11:35:51 | 52.43222 | 8.55546 | 116° | 124km/h | 10220m | -5.8m/s | -51°C | 61.3% | 264.3hPa | 2.6V | 08:03:14 | 01:58:45 | 00:00:00 | |
| DL1XH-west | 2026-09-02 11:35:48 | 52.43273 | 8.55413 | 128° | 119km/h | 10236m | -4.5m/s | -51.2°C | 62.3% | 263.7hPa | 2.5V | 08:03:14 | 01:58:42 | 00:00:00 | |
| HSKMA3-T | 2026-09-02 11:35:46 | 52.43305 | 8.55340 | 121° | 104km/h | 10246m | -4.8m/s | -51.3°C | 62.8% | 263.3hPa | 2.6V | 08:03:14 | 01:58:40 | 00:00:00 | |
| AA1-15 | 2026-09-02 11:35:46 | 52.43318 | 8.55302 | 117° | 104km/h | 10252m | -5.5m/s | -51.3°C | 62.9% | 263.1hPa | 2.6V | 08:03:14 | 01:58:39 | 00:00:00 | |
| DM0DOS-11 | 2026-09-02 11:35:45 | 52.43330 | 8.55261 | 114° | 117km/h | 10258m | -4.8m/s | -51.4°C | 60.5% | 262.8hPa | 2.5V | 08:02:45 | 01:58:38 | 00:00:00 | |
| DO3DL | 2026-09-02 11:35:45 | 52.43318 | 8.55302 | 118° | 104km/h | 10252m | -5.5m/s | -51.3°C | 54.1% | 263.1hPa | 2.6V | 08:03:00 | 00:00:00 | 00:00:00 | |
| DL3OBA | 2026-09-02 11:35:44 | 52.43318 | 8.55302 | 118° | 104km/h | 10252m | -5.5m/s | -51.3°C | 54.1% | 263.1hPa | 2.6V | 08:03:00 | 00:00:00 | 00:00:00 | |
| DD8BA-10 | 2026-09-02 11:35:43 | 52.43343 | 8.55215 | 115° | 124km/h | 10263m | -5.9m/s | -51.4°C | 61.0% | 262.7hPa | 2.6V | 00:00:00 | 00:00:00 | 00:00:00 | |
| DF5WG-10 | 2026-09-02 11:35:42 | 52.43357 | 8.55167 | 119° | 120km/h | 10268m | -3.6m/s | -51.4°C | 61.6% | 262.3hPa | 2.6V | 00:00:00 | 01:58:36 | 00:00:00 | |
| DB0DAN | 2026-09-02 11:35:40 | 52.43394 | 8.55074 | 126° | 124km/h | 10279m | -5.7m/s | -51.5°C | 56.4% | 261.96hPa | 2.6V | 00:00:00 | 00:00:00 | 00:00:00 | |
| DO2JMG | 2026-09-02 11:35:40 | 52.43394 | 8.55074 | 126° | 130km/h | 10279m | -5.7m/s | -51.5°C | 64.2% | 262hPa | 2.6V | 08:03:14 | 01:58:34 | 00:00:00 | |
| EDDB2-11 | 2026-09-02 11:35:40 | 52.43414 | 8.55034 | 130° | 120km/h | 10285m | -4.5m/s | -51.6°C | 56.7% | 261.8hPa | 2.5V | 00:00:00 | 00:00:00 | 00:00:00 | |
| DL1XH-15 | 2026-09-02 11:35:39 | 52.43449 | 8.54961 | 123° | 100km/h | 10296m | -4.1m/s | -51.7°C | 62.9% | 261.4hPa | 2.5V | 08:02:52 | 01:58:31 | 00:00:00 | |
| DL1XH-west | 2026-09-02 11:35:37 | 52.43449 | 8.54961 | 124° | 102km/h | 10296m | -4.1m/s | -51.7°C | 64.8% | 261.4hPa | 2.5V | 08:03:14 | 01:58:31 | 00:00:00 | |
| BIOWL1-15 | 2026-09-02 11:35:35 | 52.43475 | 8.54883 | 114° | 113km/h | 10306m | -4.7m/s | -51.8°C | 65.1% | 261hPa | 2.5V | 08:03:14 | 01:58:29 | 00:00:00 | |
| DD8BA-10 | 2026-09-02 11:35:33 | 52.43501 | 8.54790 | 117° | 122km/h | 10317m | -6.7m/s | -51.8°C | 64.1% | 260.4hPa | 2.6V | 08:02:00 | 00:00:00 | 00:00:00 | |
| DL1XH-15 | 2026-09-02 11:35:32 | 52.43607 | 8.54539 | 122° | 106km/h | 10350m | -6.2m/s | -52.1°C | 64.8% | 259.1hPa | 2.5V | 08:03:02 | 01:58:21 | 00:00:00 | |
| DO2JMG | 2026-09-02 11:35:29 | 52.43575 | 8.54610 | 129° | 119km/h | 10341m | -3.7m/s | -52°C | 66.4% | 259.5hPa | 2.5V | 08:03:14 | 01:58:23 | 00:00:00 | |
| DL1XH-west | 2026-09-02 11:35:27 | 52.43607 | 8.54539 | 122° | 106km/h | 10350m | -6.2m/s | -52.2°C | 66.5% | 259.1hPa | 2.5V | 08:03:14 | 01:58:21 | 00:00:00 | |
| HSKMA3-T | 2026-09-02 11:35:25 | 52.43633 | 8.54455 | 115° | 120km/h | 10360m | -5.2m/s | -52.3°C | 66.3% | 258.6hPa | 2.6V | 08:03:14 | 01:58:19 | 00:00:00 | |
| AA1-15 | 2026-09-02 11:35:25 | 52.43648 | 8.54407 | 117° | 135km/h | 10364m | -5.4m/s | -52.3°C | 66.1% | 258.5hPa | 2.6V | 08:03:14 | 01:58:18 | 00:00:00 | |
| DO2JMG | 2026-09-02 11:35:18 | 52.43763 | 8.54145 | 127° | 113km/h | 10398m | -5.2m/s | -52.5°C | 65.6% | 257.1hPa | 2.5V | 08:03:14 | 01:58:12 | 00:00:00 | |
| DL1XH-west | 2026-09-02 11:35:16 | 52.43793 | 8.54067 | 118° | 117km/h | 10408m | -5.6m/s | -52.5°C | 64.7% | 256.7hPa | 2.5V | 08:03:14 | 01:58:10 | 00:00:00 | |
| HSKMA3-T | 2026-09-02 11:35:15 | 52.43807 | 8.54021 | 117° | 130km/h | 10413m | -5.7m/s | -52.5°C | 64.4% | 256.5hPa | 2.6V | 08:03:14 | 01:58:09 | 00:00:00 | |
| BIOWL1-15 | 2026-09-02 11:35:14 | 52.44018 | 8.53493 | 126° | 137km/h | 10478m | -5.6m/s | -52.9°C | 59.7% | 253.9hPa | 2.6V | 08:04:05 | 01:57:57 | 00:00:00 | |
| AA1-15 | 2026-09-02 11:35:14 | 52.43903 | 8.53792 | 130° | 122km/h | 10439m | -4.1m/s | -52.6°C | 63.3% | 255.4hPa | 2.6V | 08:04:05 | 01:58:04 | 00:00:00 | |
| DL3AQ-11 | 2026-09-02 11:35:14 | 52.43840 | 8.53923 | 122° | 142km/h | 10423m | -5.2m/s | -52.5°C | 56.7% | 256.1hPa | 2.5V | 00:00:00 | 00:00:00 | 00:00:00 | |
| DD8BA-10 | 2026-09-02 11:35:13 | 52.43840 | 8.53923 | 123° | 126km/h | 10423m | -5.2m/s | -52.4°C | 63.3% | 256.0hPa | 2.5V | 00:00:00 | 00:00:00 | 00:00:00 | |
| DO3DL | 2026-09-02 11:35:12 | 52.43860 | 8.53875 | 128° | 139km/h | 10428m | -5.5m/s | -52.5°C | 56.6% | 255.8hPa | 2.5V | 08:04:00 | 00:00:00 | 00:00:00 | |
| DM0DOS-11 | 2026-09-02 11:35:10 | 52.43998 | 8.53541 | 121° | 141km/h | 10471m | -5.9m/s | -52.9°C | 59.7% | 254.2hPa | 2.5V | 08:03:25 | 01:57:58 | 00:00:00 | |
| DO2JMG | 2026-09-02 11:35:08 | 52.43937 | 8.53721 | 125° | 110km/h | 10450m | -6.4m/s | -52.7°C | 62.5% | 255hPa | 2.6V | 08:04:05 | 01:58:02 | 00:00:00 | |
| DL1XH-15 | 2026-09-02 11:35:07 | 52.43952 | 8.53681 | 117° | 115km/h | 10456m | -5.3m/s | -52.8°C | 60.8% | 254.8hPa | 2.5V | 08:03:22 | 01:58:01 | 00:00:00 | |
| DL1XH-west | 2026-09-02 11:35:05 | 52.43980 | 8.53590 | 118° | 133km/h | 10466m | -4.6m/s | -52.9°C | 60.9% | 254.2hPa | 2.5V | 08:04:05 | 01:57:59 | 00:00:00 | |
| GOEST3-10 | 2026-09-02 11:35:04 | 52.43998 | 8.53540 | 122° | 128km/h | 10471m | -5.9m/s | -52.9°C | 59.7% | 254.1hPa | 2.5V | 00:00:00 | 00:00:00 | 00:00:00 | |
| DD8BA-10 | 2026-09-02 11:35:03 | 52.44018 | 8.53493 | 127° | 122km/h | 10478m | -5.6m/s | -52.9°C | 59.3% | 253.8hPa | 2.6V | 00:00:00 | 00:00:00 | 00:00:00 | |
| DL1XH-15 | 2026-09-02 11:35:02 | 52.44122 | 8.53259 | 115° | 113km/h | 10513m | -5.5m/s | -53.1°C | 53.1% | 252.6hPa | 2.5V | 08:03:32 | 01:57:51 | 00:00:00 | |
| DL1XH1-15 | 2026-09-02 11:35:02 | 52.44060 | 8.53409 | 130° | 124km/h | 10488m | -5.1m/s | -53°C | 58% | 253.4hPa | 2.6V | 08:03:28 | 01:57:55 | 00:00:00 | |
| AA1-15 | 2026-09-02 11:35:01 | 52.44060 | 8.53409 | 130° | 124km/h | 10488m | -5.1m/s | -53°C | 58.4% | 253.4hPa | 2.6V | 08:04:05 | 01:57:55 | 00:00:00 | |
| DO2JMG | 2026-09-02 11:34:58 | 52.44110 | 8.53301 | 118° | 111km/h | 10507m | -5.7m/s | -53.1°C | 55.3% | 252.9hPa | 2.5V | 08:04:05 | 01:57:52 | 00:00:00 | |
| DJ2DS-15 | 2026-09-02 11:34:58 | 52.44110 | 8.53301 | 119° | 119km/h | 10507m | -5.6m/s | -53.1°C | 54.2% | 252.9hPa | 2.5V | 00:00:00 | 01:57:52 | 00:00:00 | |
| DO3DL | 2026-09-02 11:34:57 | 52.44110 | 8.53301 | 119° | 111km/h | 10507m | -5.7m/s | -53.1°C | 47.9% | 252.9hPa | 2.6V | 08:04:00 | 00:00:00 | 00:00:00 | |
| DL1XH1-15 | 2026-09-02 11:34:56 | 52.44241 | 8.52974 | 124° | 100km/h | 10551m | -6m/s | -53.2°C | 47.1% | 251.2hPa | 2.6V | 08:03:39 | 01:57:44 | 00:00:00 | |
| DM0DOS-11 | 2026-09-02 11:34:55 | 52.44168 | 8.53122 | 124° | 133km/h | 10530m | -5.2m/s | -53.1°C | 51.3% | 252hPa | 2.6V | 08:03:35 | 01:57:48 | 00:00:00 | |
| DL1XH-west | 2026-09-02 11:34:55 | 52.44151 | 8.53168 | 120° | 131km/h | 10524m | -6.8m/s | -53.1°C | 52.4% | 252.2hPa | 2.6V | 08:04:05 | 01:57:49 | 00:00:00 | |
| HSKMA3-T | 2026-09-02 11:34:54 | 52.44169 | 8.53122 | 125° | 133km/h | 10531m | -5.2m/s | -53.2°C | 51.7% | 252hPa | 2.6V | 08:04:05 | 01:57:48 | 00:00:00 | |
| EDDB2-12 | 2026-09-02 11:34:52 | 52.44226 | 8.53008 | 128° | 104km/h | 10546m | -4.2m/s | -53.2°C | 42.3% | 251.4hPa | 2.5V | 00:00:00 | 00:00:00 | 00:00:00 | |
| DL1XH-15 | 2026-09-02 11:34:51 | 52.44280 | 8.52849 | 116° | 124km/h | 10568m | -5.6m/s | -53.3°C | 44.2% | 250.5hPa | 2.5V | 08:03:42 | 01:57:41 | 00:00:00 | |
| AA1-15 | 2026-09-02 11:34:51 | 52.44241 | 8.52974 | 125° | 100km/h | 10551m | -6m/s | -53.2°C | 48.5% | 251.2hPa | 2.6V | 08:04:05 | 01:57:44 | 00:00:00 | |
| DD1CC8 | 2026-09-02 11:34:50 | 52.44241 | 8.52974 | 124° | 100km/h | 10551m | -6.0m/s | -53.2°C | 41.2% | 251.2hPa | 2.5V | 00:00:00 | 00:00:00 | 00:00:00 | |
| DM0DOS-11 | 2026-09-02 11:34:49 | 52.44351 | 8.52674 | 128° | 115km/h | 10591m | -4.8m/s | -53.4°C | 40.6% | 249.7hPa | 2.5V | 08:03:46 | 01:57:37 | 00:00:00 | |
| DO2JMG | 2026-09-02 11:34:47 | 52.44280 | 8.52849 | 116° | 124km/h | 10568m | -5.6m/s | -53.3°C | 45.6% | 250.5hPa | 2.5V | 08:04:05 | 01:57:41 | 00:00:00 | |
| BIOWL1-15 | 2026-09-02 11:34:44 | 52.44333 | 8.52712 | 129° | 126km/h | 10585m | -4.9m/s | -53.4°C | 42.6% | 250hPa | 2.6V | 08:04:05 | 01:57:38 | 00:00:00 | |
| HSKMA3-T | 2026-09-02 11:34:43 | 52.44351 | 8.52674 | 129° | 115km/h | 10591m | -4.8m/s | -53.4°C | 41.4% | 249.7hPa | 2.5V | 08:04:05 | 01:57:37 | 00:00:00 | |
| DD8BA-10 | 2026-09-02 11:34:43 | 52.44351 | 8.52673 | 129° | 117km/h | 10591m | -4.7m/s | -53.3°C | 40.6% | 249.7hPa | 2.5V | 00:00:00 | 00:00:00 | 00:00:00 | |
| DL8DAS-14 | 2026-09-02 11:34:42 | 52.44368 | 8.52639 | 129° | 100km/h | 10595m | -4.8m/s | -53.4°C | 33.6% | 249.5hPa | 2.5V | 00:00:00 | 00:00:00 | 00:00:00 | |
| DL1XH-15 | 2026-09-02 11:34:41 | 52.44435 | 8.52435 | 121° | 133km/h | 10622m | -5.5m/s | -53.3°C | 34.8% | 248.5hPa | 2.5V | 08:03:52 | 01:57:31 | 00:00:00 | |
| AA1-15 | 2026-09-02 11:34:41 | 52.44395 | 8.52568 | 115° | 108km/h | 10606m | -5.7m/s | -53.3°C | 37.5% | 249.1hPa | 2.6V | 08:04:05 | 01:57:34 | 00:00:00 | |
| DO2JMG | 2026-09-02 11:34:37 | 52.44435 | 8.52435 | 121° | 133km/h | 10622m | -5.6m/s | -53.3°C | 36.1% | 248.5hPa | 2.5V | 08:04:05 | 01:57:31 | 00:00:00 | |
| DM0DOS-11 | 2026-09-02 11:34:34 | 52.44508 | 8.52279 | 127° | 99km/h | 10643m | -3.5m/s | -53.3°C | 33.4% | 247.6hPa | 2.6V | 08:03:56 | 01:57:27 | 00:00:00 | |
| BIOWL1-15 | 2026-09-02 11:34:34 | 52.44492 | 8.52313 | 130° | 111km/h | 10639m | -4m/s | -53.3°C | 35.2% | 247.8hPa | 2.5V | 08:04:05 | 01:57:28 | 00:00:00 | |
| HSKMA3-T | 2026-09-02 11:34:33 | 52.44508 | 8.52279 | 127° | 99km/h | 10643m | -3.5m/s | -53.3°C | 34.9% | 247.7hPa | 2.6V | 08:04:05 | 01:57:27 | 00:00:00 | |
| DD8BA-10 | 2026-09-02 11:34:33 | 52.44508 | 8.52279 | 128° | 113km/h | 10643m | -3.4m/s | -53.2°C | 33.4% | 247.6hPa | 2.6V | 00:00:00 | 00:00:00 | 00:00:00 | |
| DL1XH1-15 | 2026-09-02 11:34:32 | 52.44546 | 8.52168 | 113° | 113km/h | 10661m | -5.5m/s | -53.2°C | 32.3% | 247hPa | 2.5V | 08:03:59 | 01:57:24 | 00:00:00 | |
| DL1XH-15 | 2026-09-02 11:34:31 | 52.44592 | 8.52033 | 126° | 128km/h | 10676m | -5.3m/s | -53.3°C | 32.6% | 246.3hPa | 2.6V | 08:04:02 | 01:57:21 | 00:00:00 | |
| AA1-15 | 2026-09-02 11:34:29 | 52.44558 | 8.52124 | 116° | 122km/h | 10666m | -3.7m/s | -53.3°C | 34% | 246.8hPa | 2.5V | 08:04:05 | 01:57:23 | 00:00:00 | |
| DO2JMG | 2026-09-02 11:34:27 | 52.44592 | 8.52033 | 126° | 128km/h | 10677m | -5.3m/s | -53.3°C | 33.7% | 246.3hPa | 2.6V | 08:04:05 | 01:57:21 | 00:00:00 | |
| DL1XH1-15 | 2026-09-02 11:34:25 | 52.44698 | 8.51771 | 117° | 122km/h | 10712m | -5.8m/s | -53.5°C | 30.6% | 244.9hPa | 2.5V | 08:04:09 | 01:57:14 | 00:00:00 | |
| DB0DAN | 2026-09-02 11:34:25 | 52.44631 | 8.51959 | 132° | 104km/h | 10686m | -4.6m/s | -53.3°C | 27.2% | 245.95hPa | 2.5V | 00:00:00 | 00:00:00 | 00:00:00 | |
| DL1XH-west | 2026-09-02 11:34:24 | 52.44647 | 8.51925 | 126° | 99km/h | 10691m | -4.1m/s | -53.3°C | 33.3% | 245.7hPa | 2.5V | 08:04:05 | 01:57:18 | 00:00:00 | |
| HSKMA3-T | 2026-09-02 11:34:23 | 52.44661 | 8.51892 | 121° | 93km/h | 10696m | -4.3m/s | -53.4°C | 33.1% | 245.6hPa | 2.5V | 08:04:56 | 01:57:17 | 00:00:00 | |
| AA1-15 | 2026-09-02 11:34:18 | 52.44733 | 8.51683 | 128° | 128km/h | 10722m | -5.5m/s | -53.6°C | 32.2% | 244.5hPa | 2.6V | 08:04:56 | 01:57:12 | 00:00:00 | |
| DO2JMG | 2026-09-02 11:34:16 | 52.44771 | 8.51610 | 135° | 106km/h | 10733m | -5.3m/s | -53.6°C | 31.8% | 244.1hPa | 2.5V | 08:04:56 | 01:57:10 | 00:00:00 | |
| DM0DOS-11 | 2026-09-02 11:34:15 | 52.44818 | 8.51516 | 119° | 97km/h | 10750m | -4.6m/s | -53.6°C | 29.6% | 243.4hPa | 2.6V | 08:04:16 | 01:57:07 | 00:00:00 | |
| DL1XH-west | 2026-09-02 11:34:13 | 52.44818 | 8.51516 | 120° | 97km/h | 10750m | -4.6m/s | -53.6°C | 31.1% | 243.4hPa | 2.6V | 08:04:56 | 01:57:07 | 00:00:00 | |
| HSKMA3-T | 2026-09-02 11:34:13 | 52.44830 | 8.51479 | 118° | 111km/h | 10755m | -5.1m/s | -53.7°C | 31% | 243.2hPa | 2.6V | 08:04:56 | 01:57:06 | 00:00:00 | |
| BUE01 | 2026-09-02 11:34:12 | 52.44830 | 8.51479 | 118° | 111km/h | 10755m | -5.1m/s | -53.7°C | 24.7% | 243.2hPa | 2.5V | 00:00:00 | 00:00:00 | 00:00:00 | |
| DO3DL | 2026-09-02 11:34:11 | 52.44830 | 8.51479 | 119° | 111km/h | 10755m | -5.1m/s | -53.7°C | 24.7% | 243.2hPa | 2.5V | 08:04:00 | 00:00:00 | 00:00:00 | |
| DB0DAN | 2026-09-02 11:34:10 | 52.44862 | 8.51392 | 124° | 122km/h | 10765m | -6.3m/s | -53.6°C | 24.4% | 242.72hPa | 2.5V | 00:00:00 | 00:00:00 | 00:00:00 | |
| GOEST3-10 | 2026-09-02 11:34:09 | 52.44881 | 8.51349 | 130° | 108km/h | 10771m | -5.3m/s | -53.6°C | 29.5% | 242.6hPa | 2.5V | 00:00:00 | 01:57:03 | 00:00:00 | |
| DM0DOS-11 | 2026-09-02 11:34:08 | 52.44979 | 8.51140 | 118° | 115km/h | 10800m | -5.5m/s | -53.8°C | 28.4% | 241.4hPa | 2.5V | 08:04:26 | 01:56:57 | 00:00:00 | |
| AA1-15 | 2026-09-02 11:34:08 | 52.44921 | 8.51278 | 132° | 108km/h | 10780m | -3.6m/s | -53.7°C | 30.2% | 242.2hPa | 2.6V | 08:04:56 | 01:57:01 | 00:00:00 | |
| DO2JMG | 2026-09-02 11:34:05 | 52.44952 | 8.51216 | 125° | 95km/h | 10788m | -6.3m/s | -53.7°C | 29.7% | 241.8hPa | 2.5V | 08:04:56 | 01:56:59 | 00:00:00 | |
| DL1XH-west | 2026-09-02 11:34:03 | 52.44979 | 8.51140 | 119° | 115km/h | 10800m | -5.5m/s | -53.8°C | 29.4% | 241.4hPa | 2.5V | 08:04:56 | 01:56:57 | 00:00:00 | |
| BIOWL1-15 | 2026-09-02 11:34:02 | 52.45053 | 8.50983 | 135° | 108km/h | 10820m | -5.4m/s | -53.7°C | 28.7% | 240.6hPa | 2.6V | 08:04:56 | 01:56:53 | 00:00:00 | |
| HSKMA3-T | 2026-09-02 11:34:01 | 52.45013 | 8.51056 | 129° | 128km/h | 10809m | -4.9m/s | -53.8°C | 29.1% | 241hPa | 2.6V | 08:04:56 | 01:56:55 | 00:00:00 | |
| DL4XJ-10 | 2026-09-02 11:34:00 | 52.45033 | 8.51017 | 132° | 108km/h | 10814m | -5.5m/s | -54.5°C | 0% | 0hPa | 2.5V | 00:00:00 | 00:00:00 | 00:00:00 | |
| DL1XH-15 | 2026-09-02 11:33:59 | 52.45087 | 8.50922 | 124° | 95km/h | 10833m | -5.4m/s | -53.7°C | 27.6% | 240.1hPa | 2.5V | 08:04:32 | 01:56:51 | 00:00:00 | |
| AA1-15 | 2026-09-02 11:33:57 | 52.45099 | 8.50889 | 118° | 95km/h | 10839m | -4.4m/s | -53.7°C | 28.1% | 239.9hPa | 2.5V | 08:04:56 | 01:56:50 | 00:00:00 | |
| DM0DOS-11 | 2026-09-02 11:33:56 | 52.45139 | 8.50768 | 121° | 124km/h | 10854m | -5.4m/s | -53.6°C | 27.1% | 239.3hPa | 2.6V | 08:04:36 | 01:56:47 | 00:00:00 | |
| DJ2DS-15 | 2026-09-02 11:33:56 | 52.45123 | 8.50811 | 117° | 113km/h | 10849m | -4.7m/s | -53.7°C | 22.5% | 239.6hPa | 2.5V | 00:00:00 | 00:00:00 | 00:00:00 | |
| DB0DAN | 2026-09-02 11:33:55 | 52.45111 | 8.50852 | 116° | 100km/h | 10844m | -5.9m/s | -53.7°C | 22.3% | 239.66hPa | 2.5V | 00:00:00 | 00:00:00 | 00:00:00 | |
| DO2JMG | 2026-09-02 11:33:54 | 52.45123 | 8.50811 | 118° | 115km/h | 10849m | -4.7m/s | -53.7°C | 27.8% | 239.6hPa | 2.6V | 08:04:56 | 01:56:48 | 00:00:00 | |
| DL1XH-west | 2026-09-02 11:33:53 | 52.45138 | 8.50768 | 122° | 126km/h | 10854m | -5.4m/s | -53.6°C | 27.6% | 239.3hPa | 2.6V | 08:04:56 | 01:56:47 | 00:00:00 | |
| DL1XH-15 | 2026-09-02 11:33:53 | 52.45237 | 8.50563 | 119° | 88km/h | 10888m | -6m/s | -53.6°C | 25.6% | 238hPa | 2.6V | 08:04:42 | 01:56:41 | 00:00:00 | |
| HSKMA3-T | 2026-09-02 11:33:51 | 52.45176 | 8.50687 | 133° | 115km/h | 10867m | -4.4m/s | -53.6°C | 27.4% | 239hPa | 2.5V | 08:04:56 | 01:56:45 | 00:00:00 | |
| EDDB2-12 | 2026-09-02 11:33:50 | 52.45211 | 8.50623 | 130° | 93km/h | 10877m | -4.0m/s | -53.6°C | 21.6% | 238.6hPa | 2.5V | 00:00:00 | 00:00:00 | 00:00:00 | |
| GOEST3-10 | 2026-09-02 11:33:49 | 52.45211 | 8.50623 | 131° | 97km/h | 10877m | -3.9m/s | -53.6°C | 26.2% | 238.5hPa | 2.5V | 08:04:00 | 01:56:43 | 00:00:00 | |
| DM0DOS-11 | 2026-09-02 11:33:48 | 52.45290 | 8.50403 | 125° | 122km/h | 10912m | -6m/s | -53.6°C | 25.5% | 237.2hPa | 2.6V | 08:04:46 | 01:56:37 | 00:00:00 | |
| AA1-15 | 2026-09-02 11:33:46 | 52.45259 | 8.50489 | 116° | 113km/h | 10899m | -5.1m/s | -53.6°C | 26.2% | 237.7hPa | 2.5V | 08:04:56 | 01:56:39 | 00:00:00 | |
| DK9SH | 2026-09-02 11:33:46 | 52.45236 | 8.50563 | 120° | 88km/h | 10888m | -6.0m/s | -53.6°C | 21.1% | 238.0hPa | 2.5V | 08:04:00 | 00:00:00 | 00:00:00 | |
| DL1XH1-15 | 2026-09-02 11:33:45 | 52.45346 | 8.50299 | 130° | 99km/h | 10931m | -4.8m/s | -53.5°C | 24.8% | 236.7hPa | 2.5V | 08:04:49 | 01:56:34 | 00:00:00 | |
| DO2JMG | 2026-09-02 11:33:44 | 52.45273 | 8.50445 | 120° | 122km/h | 10905m | -6.3m/s | -53.6°C | 26.1% | 237.5hPa | 2.5V | 08:04:56 | 01:56:38 | 00:00:00 | |
| DL1XH-west | 2026-09-02 11:33:42 | 52.45309 | 8.50364 | 131° | 115km/h | 10918m | -5.2m/s | -53.5°C | 25.8% | 237.1hPa | 2.6V | 08:04:56 | 01:56:36 | 00:00:00 | |
| HSKMA3-T | 2026-09-02 11:33:40 | 52.45346 | 8.50299 | 131° | 99km/h | 10931m | -4.8m/s | -53.5°C | 25.4% | 236.7hPa | 2.5V | 08:04:56 | 01:56:34 | 00:00:00 | |
| DL4XJ-10 | 2026-09-02 11:33:40 | 52.45346 | 8.50299 | 131° | 104km/h | 10931m | -4.8m/s | -54.3°C | 0% | 0hPa | 2.5V | 00:00:00 | 00:00:00 | 00:00:00 | |
| DL1XH-15 | 2026-09-02 11:33:39 | 52.45381 | 8.50204 | 113° | 97km/h | 10947m | -5.9m/s | -53.5°C | 23.5% | 236hPa | 2.5V | 08:04:52 | 01:56:31 | 00:00:00 | |
| DF5WG-10 | 2026-09-02 11:33:39 | 52.45360 | 8.50269 | 124° | 102km/h | 10937m | -4.3m/s | -53.4°C | 24.3% | 236.5hPa | 2.5V | 00:00:00 | 01:56:33 | 00:00:00 | |
| DM0DOS-11 | 2026-09-02 11:33:37 | 52.45437 | 8.50041 | 129° | 115km/h | 10970m | -3.6m/s | -53.4°C | 23.4% | 235.3hPa | 2.5V | 08:04:56 | 01:56:27 | 00:00:00 | |
| DO2JMG | 2026-09-02 11:33:34 | 52.45420 | 8.50080 | 123° | 119km/h | 10964m | -5.1m/s | -53.4°C | 24.1% | 235.5hPa | 2.6V | 08:04:56 | 01:56:28 | 00:00:00 | |
| DD8BA-10 | 2026-09-02 11:33:33 | 52.45437 | 8.50041 | 130° | 110km/h | 10970m | -3.6m/s | -53.3°C | 23.4% | 235.3hPa | 2.5V | 00:00:00 | 00:00:00 | 00:00:00 | |
| DL1XH-15 | 2026-09-02 11:33:32 | 52.45521 | 8.49825 | 116° | 120km/h | 11002m | -6.7m/s | -53.2°C | 21.7% | 234.1hPa | 2.6V | 08:05:02 | 01:56:21 | 00:00:00 | |
| DL1XH1-15 | 2026-09-02 11:33:32 | 52.45485 | 8.49943 | 123° | 91km/h | 10986m | -6.2m/s | -53.2°C | 22.2% | 234.7hPa | 2.5V | 08:04:59 | 01:56:24 | 00:00:00 | |
| DL1XH-west | 2026-09-02 11:33:32 | 52.45456 | 8.50006 | 132° | 106km/h | 10974m | -5.4m/s | -53.3°C | 23.7% | 235.1hPa | 2.5V | 08:05:47 | 01:56:26 | 00:00:00 | |
| BIOWL1-15 | 2026-09-02 11:33:30 | 52.45508 | 8.49869 | 114° | 111km/h | 10997m | -5.2m/s | -53.2°C | 22.8% | 234.4hPa | 2.6V | 08:05:47 | 01:56:22 | 00:00:00 | |
| HSKMA3-T | 2026-09-02 11:33:29 | 52.45497 | 8.49909 | 115° | 100km/h | 10991m | -5.2m/s | -53.2°C | 23% | 234.5hPa | 2.6V | 08:05:47 | 01:56:23 | 00:00:00 | |
| DL4BBY-15 | 2026-09-02 11:33:29 | 52.45497 | 8.49909 | 116° | 111km/h | 10992m | -5.1m/s | -54.0°C | 0% | 0hPa | 2.5V | 00:00:00 | 00:00:00 | 00:00:00 | |
| DJ2KF-10 | 2026-09-02 11:33:26 | 52.45535 | 8.49781 | 122° | 113km/h | 11009m | -4.8m/s | -53.1°C | 21.8% | 233.8hPa | 2.5V | 00:00:00 | 01:56:20 | 00:00:00 | |
| DL1XH1-15 | 2026-09-02 11:33:25 | 52.45638 | 8.49528 | 115° | 115km/h | 11045m | -4.8m/s | -53.1°C | 21% | 232.5hPa | 2.5V | 08:05:10 | 01:56:13 | 00:00:00 | |
| DM0DOS-11 | 2026-09-02 11:33:25 | 52.45589 | 8.49667 | 129° | 102km/h | 11025m | -4m/s | -53.1°C | 21.7% | 233.3hPa | 2.6V | 08:05:06 | 01:56:17 | 00:00:00 | |
| DB0DAN | 2026-09-02 11:33:25 | 52.45553 | 8.49739 | 127° | 115km/h | 11014m | -4.8m/s | -53.1°C | 17.6% | 233.73hPa | 2.5V | 00:00:00 | 00:00:00 | 00:00:00 | |
| DO2JMG | 2026-09-02 11:33:23 | 52.45589 | 8.49667 | 129° | 102km/h | 11025m | -4.1m/s | -53.1°C | 22.1% | 233.3hPa | 2.6V | 08:05:47 | 01:56:17 | 00:00:00 | |
| DL1XH-west | 2026-09-02 11:33:22 | 52.45603 | 8.49636 | 126° | 89km/h | 11029m | -4.4m/s | -53.2°C | 22% | 233.2hPa | 2.6V | 08:05:47 | 01:56:16 | 00:00:00 | |
| BIOWL1-15 | 2026-09-02 11:33:20 | 52.45626 | 8.49569 | 116° | 102km/h | 11040m | -5.6m/s | -53.1°C | 21.7% | 232.7hPa | 2.5V | 08:05:47 | 01:56:14 | 00:00:00 | |
| HSKMA3-T | 2026-09-02 11:33:19 | 52.45638 | 8.49528 | 116° | 115km/h | 11045m | -4.8m/s | -53.1°C | 21.5% | 232.5hPa | 2.5V | 08:05:47 | 01:56:13 | 00:00:00 | |
| DF5WG-10 | 2026-09-02 11:33:19 | 52.45638 | 8.49528 | 116° | 110km/h | 11045m | -4.8m/s | -53.0°C | 21.0% | 232.5hPa | 2.5V | 08:05:00 | 01:56:13 | 00:00:00 | |
| DM0DOS-11 | 2026-09-02 11:33:18 | 52.45736 | 8.49299 | 126° | 93km/h | 11075m | -5.2m/s | -53.2°C | 20.1% | 231.3hPa | 2.5V | 08:05:16 | 01:56:07 | 00:00:00 | |
| DJ2DS-15 | 2026-09-02 11:33:18 | 52.45651 | 8.49484 | 118° | 113km/h | 11049m | -5.7m/s | -53.0°C | 20.8% | 232.2hPa | 2.6V | 00:00:00 | 01:56:12 | 00:00:00 | |
| DD1CC8 | 2026-09-02 11:33:17 | 52.45686 | 8.49400 | 129° | 120km/h | 11060m | -4.7m/s | -53.1°C | 16.7% | 232.0hPa | 2.6V | 00:00:00 | 00:00:00 | 00:00:00 | |
| SONCRA | 2026-09-02 11:33:16 | 52.45686 | 8.49400 | 129° | 120km/h | 11060m | -4.7m/s | -53.1°C | 16.7% | 232.0hPa | 2.6V | 00:00:00 | 00:00:00 | 00:00:00 | |
| DL1XH1-15 | 2026-09-02 11:33:14 | 52.45781 | 8.49143 | 114° | 117km/h | 11099m | -5.9m/s | -53°C | 19.2% | 230.4hPa | 2.6V | 08:05:20 | 01:56:03 | 00:00:00 | |
| DO2JMG | 2026-09-02 11:33:13 | 52.45736 | 8.49299 | 127° | 93km/h | 11075m | -5.3m/s | -53.2°C | 20.7% | 231.3hPa | 2.5V | 08:05:47 | 01:56:07 | 00:00:00 | |
| DL1XH-west | 2026-09-02 11:33:12 | 52.45749 | 8.49266 | 118° | 97km/h | 11081m | -6.3m/s | -53.2°C | 20.4% | 231.1hPa | 2.5V | 08:05:47 | 01:56:06 | 00:00:00 | |
| DL1XH-15 | 2026-09-02 11:33:12 | 52.45813 | 8.49057 | 126° | 122km/h | 11109m | -4.8m/s | -52.9°C | 18.9% | 230.1hPa | 2.5V | 08:05:22 | 01:56:01 | 00:00:00 | |
| DO3DL | 2026-09-02 11:33:11 | 52.45749 | 8.49266 | 119° | 97km/h | 11081m | -6.3m/s | -53.2°C | 15.7% | 231.1hPa | 2.6V | 08:05:00 | 00:00:00 | 00:00:00 | |
| DB0DAN | 2026-09-02 11:33:10 | 52.45770 | 8.49186 | 113° | 108km/h | 11093m | -6.1m/s | -53.1°C | 15.3% | 230.7hPa | 2.6V | 00:00:00 | 00:00:00 | 00:00:00 | |
| BIOWL1-15 | 2026-09-02 11:33:10 | 52.45770 | 8.49186 | 113° | 113km/h | 11094m | -6.1m/s | -53.1°C | 20% | 230.7hPa | 2.6V | 08:05:47 | 01:56:04 | 00:00:00 | |
| HSKMA3-T | 2026-09-02 11:33:08 | 52.45796 | 8.49099 | 122° | 124km/h | 11104m | -4.1m/s | -52.9°C | 19.6% | 230.4hPa | 2.5V | 08:05:47 | 01:56:02 | 00:00:00 | |
| DO9LL-15 | 2026-09-02 11:33:08 | 52.45796 | 8.49099 | 122° | 115km/h | 11104m | -4.1m/s | -52.9°C | 19.2% | 230.3hPa | 2.5V | 00:00:00 | 01:56:02 | 00:00:00 | |
| HTAHTA | 2026-09-02 11:33:07 | 52.45813 | 8.49057 | 126° | 122km/h | 11109m | -4.8m/s | -52.9°C | 15.0% | 230.1hPa | 2.5V | 00:00:00 | 00:00:00 | 00:00:00 | |
| DK9SH | 2026-09-02 11:33:06 | 52.45831 | 8.49019 | 129° | 111km/h | 11114m | -4.9m/s | -52.9°C | 14.9% | 229.8hPa | 2.5V | 08:05:00 | 00:00:00 | 00:00:00 | |
| SONDE2-11 | 2026-09-02 11:33:05 | 52.45860 | 8.48952 | 121° | 97km/h | 11124m | -5.6m/s | -52.8°C | 14.3% | 229.5hPa | 2.5V | 00:00:00 | 00:00:00 | 00:00:00 | |
| DL1XH1-15 | 2026-09-02 11:33:04 | 52.45927 | 8.48733 | 125° | 130km/h | 11153m | -5m/s | -52.7°C | 18.1% | 228.5hPa | 2.5V | 08:05:30 | 01:55:53 | 00:00:00 | |
| DO2JMG | 2026-09-02 11:33:02 | 52.45882 | 8.48873 | 112° | 117km/h | 11136m | -5.1m/s | -52.7°C | 18.5% | 229.2hPa | 2.6V | 08:05:47 | 01:55:56 | 00:00:00 | |
| BIOWL1-15 | 2026-09-02 11:33:01 | 52.45927 | 8.48733 | 125° | 130km/h | 11153m | -5m/s | -52.7°C | 18.3% | 228.5hPa | 2.5V | 08:05:47 | 01:55:53 | 00:00:00 | |
| DL1XH-west | 2026-09-02 11:33:01 | 52.45894 | 8.48826 | 114° | 126km/h | 11141m | -5.9m/s | -52.7°C | 18.4% | 228.9hPa | 2.5V | 08:05:47 | 01:55:55 | 00:00:00 | |
| DL4XJ-10 | 2026-09-02 11:33:00 | 52.45909 | 8.48778 | 120° | 117km/h | 11147m | -5.9m/s | -53.5°C | 0% | 0hPa | 2.6V | 00:00:00 | 00:00:00 | 00:00:00 | |
| DL1XH-15 | 2026-09-02 11:32:59 | 52.45963 | 8.48655 | 128° | 110km/h | 11164m | -4.5m/s | -52.7°C | 17.8% | 228.1hPa | 2.6V | 08:05:32 | 01:55:51 | 00:00:00 | |
| HSKMA3-T | 2026-09-02 11:32:58 | 52.45945 | 8.48692 | 129° | 119km/h | 11158m | -5.1m/s | -52.7°C | 18.3% | 228.3hPa | 2.6V | 08:05:47 | 01:55:52 | 00:00:00 | |
| DL3AQ-11 | 2026-09-02 11:32:58 | 52.45963 | 8.48655 | 128° | 110km/h | 11164m | -4.5m/s | -52.7°C | 14.0% | 228.1hPa | 2.5V | 00:00:00 | 00:00:00 | 00:00:00 | |
| DO3DL | 2026-09-02 11:32:57 | 52.45945 | 8.48692 | 130° | 119km/h | 11158m | -5.1m/s | -52.7°C | 14.2% | 228.3hPa | 2.5V | 08:05:00 | 00:00:00 | 00:00:00 | |
| DL1XH1-15 | 2026-09-02 11:32:54 | 52.46078 | 8.48321 | 128° | 119km/h | 11204m | -4.6m/s | -52.8°C | 16.6% | 226.4hPa | 2.5V | 08:05:40 | 01:55:43 | 00:00:00 | |
| DO2JMG | 2026-09-02 11:32:52 | 52.46025 | 8.48455 | 116° | 130km/h | 11189m | -4.2m/s | -52.8°C | 17.4% | 227hPa | 2.6V | 08:05:47 | 01:55:46 | 00:00:00 | |
| DL1XH-west | 2026-09-02 11:32:50 | 52.46060 | 8.48362 | 126° | 130km/h | 11199m | -5.2m/s | -52.8°C | 17.1% | 226.8hPa | 2.5V | 08:05:47 | 01:55:44 | 00:00:00 | |
| BIOWL1-15 | 2026-09-02 11:32:49 | 52.46079 | 8.48321 | 128° | 119km/h | 11204m | -4.6m/s | -52.8°C | 16.9% | 226.4hPa | 2.5V | 08:05:47 | 01:55:43 | 00:00:00 | |
| HSKMA3-T | 2026-09-02 11:32:47 | 52.46110 | 8.48251 | 122° | 95km/h | 11213m | -5m/s | -52.9°C | 16.5% | 226.2hPa | 2.5V | 08:05:47 | 01:55:41 | 00:00:00 | |
| DD1CC8 | 2026-09-02 11:32:46 | 52.46133 | 8.48178 | 113° | 106km/h | 11224m | -4.9m/s | -52.7°C | 11.9% | 225.7hPa | 2.5V | 00:00:00 | 00:00:00 | 00:00:00 | |
| DM0DOS-11 | 2026-09-02 11:32:45 | 52.46157 | 8.48087 | 115° | 130km/h | 11233m | -4.8m/s | -52.7°C | 15.3% | 225.3hPa | 2.5V | 08:05:46 | 01:55:37 | 00:00:00 | |
| DL3AQ-11 | 2026-09-02 11:32:45 | 52.46144 | 8.48134 | 112° | 120km/h | 11229m | -4.3m/s | -52.7°C | 11.8% | 225.6hPa | 2.6V | 00:00:00 | 00:00:00 | 00:00:00 | |
| GOEST3-10 | 2026-09-02 11:32:44 | 52.46144 | 8.48134 | 113° | 126km/h | 11229m | -4.2m/s | -52.7°C | 15.3% | 225.5hPa | 2.6V | 00:00:00 | 00:00:00 | 00:00:00 | |
| DL1XH1-15 | 2026-09-02 11:32:43 | 52.46225 | 8.47919 | 129° | 102km/h | 11253m | -4.9m/s | -52.6°C | 15% | 224.5hPa | 2.6V | 08:05:50 | 01:55:33 | 00:00:00 | |
| DO2JMG | 2026-09-02 11:32:42 | 52.46173 | 8.48039 | 121° | 133km/h | 11238m | -6.2m/s | -52.6°C | 15.5% | 225.1hPa | 2.5V | 08:05:47 | 01:55:36 | 00:00:00 | |
| BIOWL1-15 | 2026-09-02 11:32:40 | 52.46240 | 8.47887 | 122° | 93km/h | 11258m | -4.5m/s | -52.7°C | 15% | 224.4hPa | 2.5V | 08:06:38 | 01:55:32 | 00:00:00 | |
| DL1XH-west | 2026-09-02 11:32:40 | 52.46208 | 8.47954 | 129° | 115km/h | 11249m | -4.4m/s | -52.6°C | 15.3% | 224.8hPa | 2.6V | 08:06:38 | 01:55:34 | 00:00:00 | |
| DB0DAN | 2026-09-02 11:32:40 | 52.46208 | 8.47954 | 129° | 110km/h | 11249m | -4.4m/s | -52.6°C | 11.6% | 224.75hPa | 2.6V | 00:00:00 | 00:00:00 | 00:00:00 | |
| AA1-15 | 2026-09-02 11:32:39 | 52.46225 | 8.47919 | 130° | 102km/h | 11253m | -4.9m/s | -52.7°C | 15.2% | 224.5hPa | 2.6V | 08:06:38 | 01:55:33 | 00:00:00 | |
| DL1XH-15 | 2026-09-02 11:32:39 | 52.46251 | 8.47853 | 117° | 93km/h | 11263m | -6.8m/s | -52.8°C | 14.8% | 224.2hPa | 2.5V | 08:05:52 | 01:55:31 | 00:00:00 | |
| BUE01 | 2026-09-02 11:32:39 | 52.46240 | 8.47887 | 122° | 91km/h | 11258m | -4.5m/s | -52.7°C | 11.3% | 224.4hPa | 2.6V | 00:00:00 | 00:00:00 | 00:00:00 | |
| DM0DOS-11 | 2026-09-02 11:32:38 | 52.46303 | 8.47688 | 124° | 124km/h | 11284m | -5.6m/s | -52.8°C | 14.8% | 223.4hPa | 2.6V | 08:05:56 | 01:55:27 | 00:00:00 | |
| HSKMA3-T | 2026-09-02 11:32:37 | 52.46251 | 8.47853 | 118° | 93km/h | 11263m | -6.8m/s | -52.8°C | 14.9% | 224.2hPa | 2.5V | 08:06:38 | 01:55:31 | 00:00:00 | |
| DO3DL | 2026-09-02 11:32:37 | 52.46251 | 8.47853 | 119° | 93km/h | 11264m | -6.8m/s | -52.8°C | 11.2% | 224.2hPa | 2.6V | 08:06:00 | 00:00:00 | 00:00:00 | |
| HTAHTA | 2026-09-02 11:32:36 | 52.46262 | 8.47816 | 113° | 102km/h | 11270m | -5.8m/s | -52.8°C | 11.2% | 223.8hPa | 2.6V | 00:00:00 | 00:00:00 | 00:00:00 | |
| SMARD9-15 | 2026-09-02 11:32:35 | 52.46287 | 8.47732 | 118° | 122km/h | 11279m | -4.5m/s | -52.9°C | 11.3% | 223.6hPa | 2.6V | 00:00:00 | 00:00:00 | 00:00:00 | |
| GOEST3-10 | 2026-09-02 11:32:34 | 52.46287 | 8.47732 | 119° | 113km/h | 11280m | -4.4m/s | -52.8°C | 14.9% | 223.5hPa | 2.6V | 00:00:00 | 00:00:00 | 00:00:00 | |
| DL1XH1-15 | 2026-09-02 11:32:33 | 52.46370 | 8.47548 | 123° | 91km/h | 11306m | -5m/s | -52.8°C | 13.5% | 222.6hPa | 2.5V | 08:06:00 | 01:55:23 | 00:00:00 | |
| DD8BA-10 | 2026-09-02 11:32:33 | 52.46303 | 8.47688 | 125° | 110km/h | 11285m | -5.5m/s | -52.8°C | 14.8% | 223.4hPa | 2.6V | 08:05:00 | 00:00:00 | 00:00:00 | |
| DL1XH-15 | 2026-09-02 11:32:32 | 52.46391 | 8.47478 | 112° | 102km/h | 11315m | -5.4m/s | -52.9°C | 13.1% | 222.2hPa | 2.6V | 08:06:02 | 01:55:21 | 00:00:00 | |
| DO2JMG | 2026-09-02 11:32:31 | 52.46339 | 8.47612 | 130° | 108km/h | 11296m | -5.3m/s | -52.8°C | 14% | 223hPa | 2.5V | 08:06:38 | 01:55:25 | 00:00:00 | |
| DL1XH-west | 2026-09-02 11:32:30 | 52.46356 | 8.47579 | 129° | 97km/h | 11301m | -5.5m/s | -52.8°C | 13.7% | 222.8hPa | 2.5V | 08:06:38 | 01:55:24 | 00:00:00 | |
| BIOWL1-15 | 2026-09-02 11:32:28 | 52.46381 | 8.47515 | 117° | 93km/h | 11311m | -5m/s | -52.9°C | 13.2% | 222.4hPa | 2.6V | 08:06:38 | 01:55:22 | 00:00:00 | |
| HSKMA3-T | 2026-09-02 11:32:26 | 52.46402 | 8.47438 | 114° | 113km/h | 11321m | -5.5m/s | -52.8°C | 12.8% | 222.1hPa | 2.6V | 08:06:38 | 01:55:20 | 00:00:00 | |
| DM0DOS-11 | 2026-09-02 11:32:25 | 52.46448 | 8.47311 | 128° | 117km/h | 11336m | -5.9m/s | -52.4°C | 12.5% | 221.5hPa | 2.5V | 08:06:06 | 01:55:17 | 00:00:00 | |
| DB0DAN | 2026-09-02 11:32:25 | 52.46415 | 8.47394 | 118° | 115km/h | 11326m | -5.4m/s | -52.7°C | 9.6% | 221.89hPa | 2.5V | 00:00:00 | 00:00:00 | 00:00:00 | |
| GOEST3-10 | 2026-09-02 11:32:24 | 52.46430 | 8.47351 | 124° | 106km/h | 11331m | -5.3m/s | -52.5°C | 12.7% | 221.6hPa | 2.5V | 00:00:00 | 00:00:00 | 00:00:00 | |
| DL1XH1-15 | 2026-09-02 11:32:23 | 52.46507 | 8.47178 | 115° | 95km/h | 11358m | -5.6m/s | -52.3°C | 11.8% | 220.8hPa | 2.5V | 08:06:10 | 01:55:13 | 00:00:00 | |
| DO2JMG | 2026-09-02 11:32:20 | 52.46496 | 8.47212 | 122° | 91km/h | 11353m | -5.6m/s | -52.4°C | 11.9% | 220.9hPa | 2.5V | 08:06:38 | 01:55:14 | 00:00:00 | |
| DL1XH-15 | 2026-09-02 11:32:20 | 52.46530 | 8.47098 | 116° | 119km/h | 11368m | -5.6m/s | -52.2°C | 11.9% | 220.4hPa | 2.6V | 08:06:12 | 01:55:11 | 00:00:00 | |
| DL1XH-west | 2026-09-02 11:32:19 | 52.46507 | 8.47178 | 116° | 95km/h | 11358m | -5.6m/s | -52.3°C | 11.7% | 220.8hPa | 2.5V | 08:06:38 | 01:55:13 | 00:00:00 | |
| GOEST3-10 | 2026-09-02 11:32:19 | 52.46507 | 8.47178 | 116° | 113km/h | 11358m | -5.6m/s | -52.3°C | 11.8% | 220.7hPa | 2.5V | 08:06:00 | 01:55:13 | 00:00:00 | |
| DM0DOS-11 | 2026-09-02 11:32:18 | 52.46600 | 8.46939 | 132° | 104km/h | 11390m | -5.5m/s | -52.3°C | 12% | 219.6hPa | 2.5V | 08:06:16 | 01:55:07 | 00:00:00 | |
| HSKMA3-T | 2026-09-02 11:32:15 | 52.46563 | 8.47012 | 127° | 124km/h | 11379m | -5.6m/s | -52.2°C | 11.7% | 220.1hPa | 2.6V | 08:06:38 | 01:55:09 | 00:00:00 | |
| AA1-15 | 2026-09-02 11:32:14 | 52.46582 | 8.46973 | 131° | 117km/h | 11385m | -5.7m/s | -52.2°C | 11.7% | 219.8hPa | 2.5V | 08:06:38 | 01:55:08 | 00:00:00 | |
| DD8BA-10 | 2026-09-02 11:32:13 | 52.46600 | 8.46939 | 133° | 110km/h | 11390m | -5.5m/s | -52.2°C | 12.0% | 219.6hPa | 2.5V | 00:00:00 | 00:00:00 | 00:00:00 | |
| DD1CC2-15 | 2026-09-02 11:32:12 | 52.46600 | 8.46939 | 133° | 104km/h | 11390m | -5.5m/s | -52.3°C | 8.8% | 219.6hPa | 2.5V | 08:06:00 | 00:00:00 | 00:00:00 | |
| DL1XH-15 | 2026-09-02 11:32:11 | 52.46678 | 8.46716 | 121° | 126km/h | 11421m | -5.7m/s | -52.4°C | 11.2% | 218.5hPa | 2.5V | 08:06:22 | 01:55:01 | 00:00:00 | |
| DO2JMG | 2026-09-02 11:32:10 | 52.46640 | 8.46842 | 115° | 99km/h | 11405m | -5.9m/s | -52.5°C | 11.2% | 219hPa | 2.6V | 08:06:38 | 01:55:04 | 00:00:00 | |
| DL1XH-west | 2026-09-02 11:32:09 | 52.46651 | 8.46803 | 113° | 110km/h | 11410m | -6.2m/s | -52.4°C | 11.1% | 218.8hPa | 2.6V | 08:06:38 | 01:55:03 | 00:00:00 | |
| HSKMA3-T | 2026-09-02 11:32:05 | 52.46715 | 8.46635 | 133° | 117km/h | 11432m | -5.9m/s | -52.6°C | 10.8% | 218.1hPa | 2.5V | 08:06:38 | 01:54:59 | 00:00:00 | |
| DM0DOS-11 | 2026-09-02 11:32:04 | 52.46753 | 8.46571 | 132° | 93km/h | 11443m | -5.9m/s | -52.8°C | 11.2% | 217.7hPa | 2.6V | 08:06:26 | 01:54:57 | 00:00:00 | |
| BIOWL1-15 | 2026-09-02 11:32:04 | 52.46735 | 8.46601 | 135° | 106km/h | 11438m | -6.2m/s | -52.7°C | 10.7% | 217.9hPa | 2.6V | 08:06:38 | 01:54:58 | 00:00:00 | |
| DO2JMG | 2026-09-02 11:31:59 | 52.46800 | 8.46434 | 115° | 115km/h | 11464m | -5m/s | -52.7°C | 10% | 216.9hPa | 2.6V | 08:06:38 | 01:54:53 | 00:00:00 | |
| DL1XH-15 | 2026-09-02 11:31:59 | 52.46830 | 8.46348 | 125° | 126km/h | 11473m | -5.5m/s | -52.7°C | 10.9% | 216.6hPa | 2.6V | 08:06:32 | 01:54:51 | 00:00:00 | |
| DL1XH-west | 2026-09-02 11:31:58 | 52.46814 | 8.46391 | 119° | 122km/h | 11468m | -6m/s | -52.7°C | 9.9% | 216.7hPa | 2.6V | 08:06:38 | 01:54:52 | 00:00:00 | |
| HSKMA3-T | 2026-09-02 11:31:54 | 52.46886 | 8.46242 | 133° | 95km/h | 11488m | -7.4m/s | -52.7°C | 9.5% | 216hPa | 2.5V | 08:06:38 | 01:54:48 | 00:00:00 | |
| BIOWL1-15 | 2026-09-02 11:31:54 | 52.46937 | 8.46102 | 117° | 113km/h | 11511m | -6.2m/s | -52.9°C | 8.8% | 215.2hPa | 2.6V | 08:07:29 | 01:54:44 | 00:00:00 | |
| AA1-15 | 2026-09-02 11:31:53 | 52.46901 | 8.46212 | 126° | 91km/h | 11494m | -6.8m/s | -52.8°C | 9.4% | 215.9hPa | 2.5V | 08:06:38 | 01:54:47 | 00:00:00 | |
| DD8BA-10 | 2026-09-02 11:31:53 | 52.46901 | 8.46212 | 126° | 106km/h | 11495m | -6.7m/s | -52.7°C | 10.6% | 215.8hPa | 2.5V | 00:00:00 | 00:00:00 | 00:00:00 | |
| DL1XH1-15 | 2026-09-02 11:31:52 | 52.46951 | 8.46060 | 120° | 122km/h | 11516m | -6.2m/s | -52.9°C | 10.2% | 215hPa | 2.5V | 08:06:40 | 01:54:43 | 00:00:00 | |
| DO2JMG | 2026-09-02 11:31:48 | 52.46968 | 8.46017 | 127° | 126km/h | 11521m | -6.4m/s | -52.9°C | 8.5% | 214.8hPa | 2.5V | 08:07:29 | 01:54:42 | 00:00:00 | |
| D01LWL | 2026-09-02 11:31:46 | 52.47028 | 8.45916 | 138° | 97km/h | 11538m | -7.0m/s | -52.7°C | 6.4% | 214.3hPa | 2.5V | 00:00:00 | 00:00:00 | 00:00:00 | |
| HSKMA3-T | 2026-09-02 11:31:43 | 52.47061 | 8.45864 | 130° | 80km/h | 11549m | -5.9m/s | -52.3°C | 7.2% | 213.8hPa | 2.5V | 08:07:29 | 01:54:37 | 00:00:00 | |
| DL1XH1-15 | 2026-09-02 11:31:43 | 52.47108 | 8.45727 | 116° | 115km/h | 11574m | -6.3m/s | -51.9°C | 7.9% | 213.1hPa | 2.6V | 08:06:50 | 01:54:33 | 00:00:00 | |
| AA1-15 | 2026-09-02 11:31:42 | 52.47073 | 8.45836 | 122° | 86km/h | 11555m | -7.3m/s | -52.1°C | 7% | 213.6hPa | 2.5V | 08:07:29 | 01:54:36 | 00:00:00 | |
| DD8BA-10 | 2026-09-02 11:31:42 | 52.47073 | 8.45836 | 123° | 108km/h | 11555m | -7.2m/s | -52.1°C | 8.4% | 213.5hPa | 2.6V | 00:00:00 | 00:00:00 | 00:00:00 | |
| DB0DAN | 2026-09-02 11:31:40 | 52.47095 | 8.45768 | 116° | 99km/h | 11567m | -6.4m/s | -52°C | 5.2% | 213.19hPa | 2.6V | 00:00:00 | 00:00:00 | 00:00:00 | |
| DL4XJ-10 | 2026-09-02 11:31:40 | 52.47095 | 8.45768 | 116° | 111km/h | 11568m | -6.3m/s | -52.8°C | 0% | 0hPa | 2.5V | 00:00:00 | 00:00:00 | 00:00:00 | |
| DL1XH-15 | 2026-09-02 11:31:39 | 52.47140 | 8.45641 | 127° | 128km/h | 11585m | -7.3m/s | -51.8°C | 7.8% | 212.6hPa | 2.5V | 08:06:52 | 01:54:31 | 00:00:00 | |
| DL1XH-west | 2026-09-02 11:31:37 | 52.47140 | 8.45641 | 127° | 128km/h | 11585m | -7.3m/s | -51.8°C | 6.2% | 212.6hPa | 2.5V | 08:07:29 | 01:54:31 | 00:00:00 | |
| HSKMA3-T | 2026-09-02 11:31:32 | 52.47235 | 8.45478 | 126° | 89km/h | 11617m | -5.3m/s | -51.7°C | 5.6% | 211.8hPa | 2.6V | 08:07:29 | 01:54:26 | 00:00:00 | |
| AA1-15 | 2026-09-02 11:31:31 | 52.47248 | 8.45446 | 118° | 95km/h | 11622m | -4.7m/s | -51.7°C | 5.5% | 211.6hPa | 2.5V | 08:07:29 | 01:54:25 | 00:00:00 | |
| DL1XH1-15 | 2026-09-02 11:31:31 | 52.47272 | 8.45367 | 118° | 119km/h | 11634m | -5.9m/s | -51.8°C | 6.9% | 211.1hPa | 2.5V | 08:07:00 | 01:54:23 | 00:00:00 | |
| DL1XH-west | 2026-09-02 11:31:26 | 52.47328 | 8.45236 | 133° | 128km/h | 11652m | -6m/s | -51.7°C | 4.9% | 210.5hPa | 2.5V | 08:07:29 | 01:54:20 | 00:00:00 | |
| DB0DAN | 2026-09-02 11:31:25 | 52.47350 | 8.45200 | 136° | 115km/h | 11658m | -7m/s | -51.6°C | 4.1% | 210.32hPa | 2.5V | 00:00:00 | 00:00:00 | 00:00:00 | |
| GOEST3-10 | 2026-09-02 11:31:24 | 52.47371 | 8.45167 | 137° | 99km/h | 11665m | -5.7m/s | -51.6°C | 6.6% | 210.0hPa | 2.6V | 00:00:00 | 00:00:00 | 00:00:00 | |
| DM0DOS-11 | 2026-09-02 11:31:23 | 52.47406 | 8.45109 | 127° | 89km/h | 11677m | -5.4m/s | -51.5°C | 6.4% | 209.8hPa | 2.6V | 08:07:07 | 01:54:16 | 00:00:00 | |
| DL1XH1-15 | 2026-09-02 11:31:23 | 52.47444 | 8.45002 | 119° | 115km/h | 11692m | -6.1m/s | -51.3°C | 6% | 209.2hPa | 2.5V | 08:07:10 | 01:54:13 | 00:00:00 | |
| HSKMA3-T | 2026-09-02 11:31:22 | 52.47405 | 8.45109 | 128° | 89km/h | 11677m | -5.4m/s | -51.5°C | 4.3% | 209.8hPa | 2.6V | 08:07:29 | 01:54:16 | 00:00:00 | |
| AA1-15 | 2026-09-02 11:31:20 | 52.47431 | 8.45042 | 118° | 106km/h | 11687m | -5.8m/s | -51.4°C | 4% | 209.4hPa | 2.5V | 08:07:29 | 01:54:14 | 00:00:00 | |
| DL4XJ-10 | 2026-09-02 11:31:20 | 52.47431 | 8.45042 | 118° | 102km/h | 11687m | -5.8m/s | -52.2°C | 0% | 0hPa | 2.5V | 00:00:00 | 00:00:00 | 00:00:00 | |
| GOEST3-10 | 2026-09-02 11:31:19 | 52.47444 | 8.45002 | 120° | 120km/h | 11693m | -6.0m/s | -51.3°C | 6.0% | 209.2hPa | 2.5V | 00:00:00 | 01:54:13 | 00:00:00 | |
| DM0DOS-11 | 2026-09-02 11:31:18 | 52.47573 | 8.44763 | 130° | 84km/h | 11735m | -7.6m/s | -50.9°C | 5.1% | 207.9hPa | 2.5V | 08:07:17 | 01:54:06 | 00:00:00 | |
| BIOWL1-15 | 2026-09-02 11:31:17 | 52.47520 | 8.44845 | 139° | 115km/h | 11715m | -6.6m/s | -51.2°C | 3.4% | 208.5hPa | 2.6V | 08:07:29 | 01:54:09 | 00:00:00 | |
| DO2JMG | 2026-09-02 11:31:16 | 52.47498 | 8.44878 | 134° | 122km/h | 11710m | -5.4m/s | -51.3°C | 3.5% | 208.7hPa | 2.6V | 08:07:29 | 01:54:10 | 00:00:00 | |
| HSKMA3-T | 2026-09-02 11:31:12 | 52.47586 | 8.44734 | 119° | 84km/h | 11742m | -4.7m/s | -50.8°C | 2.6% | 207.7hPa | 2.5V | 08:07:29 | 01:54:05 | 00:00:00 | |
| DL1XH1-15 | 2026-09-02 11:31:11 | 52.47608 | 8.44665 | 117° | 108km/h | 11754m | -5.9m/s | -50.7°C | 4.8% | 207.3hPa | 2.6V | 08:07:20 | 01:54:03 | 00:00:00 | |
| DD1CC2-15 | 2026-09-02 11:31:11 | 52.47573 | 8.44763 | 131° | 84km/h | 11735m | -7.6m/s | -50.9°C | 2.9% | 207.9hPa | 2.6V | 08:07:00 | 00:00:00 | 00:00:00 | |
| DB0DAN | 2026-09-02 11:31:10 | 52.47596 | 8.44702 | 116° | 88km/h | 11748m | -6.1m/s | -50.8°C | 2.6% | 207.3hPa | 2.6V | 00:00:00 | 00:00:00 | 00:00:00 | |
| AA1-15 | 2026-09-02 11:31:09 | 52.47608 | 8.44665 | 117° | 108km/h | 11754m | -5.9m/s | -50.7°C | 2.4% | 207.3hPa | 2.6V | 08:07:29 | 01:54:03 | 00:00:00 | |
| BIOWL1-15 | 2026-09-02 11:31:06 | 52.47697 | 8.44486 | 141° | 97km/h | 11782m | -7m/s | -50.6°C | 2% | 206.3hPa | 2.6V | 08:07:29 | 01:53:58 | 00:00:00 | |
| DO2JMG | 2026-09-02 11:31:05 | 52.47678 | 8.44513 | 137° | 108km/h | 11776m | -5.5m/s | -50.6°C | 2.1% | 206.5hPa | 2.6V | 08:07:29 | 01:53:59 | 00:00:00 | |
| DM0DOS-11 | 2026-09-02 11:31:05 | 52.47728 | 8.44439 | 131° | 77km/h | 11797m | -7.5m/s | -50.6°C | 4.4% | 205.8hPa | 2.5V | 08:07:27 | 01:53:56 | 00:00:00 | |
| GOEST3-10 | 2026-09-02 11:31:04 | 52.47697 | 8.44486 | 142° | 82km/h | 11782m | -6.9m/s | -50.5°C | 4.5% | 206.3hPa | 2.6V | 00:00:00 | 00:00:00 | 00:00:00 | |
| DL1XH1-15 | 2026-09-02 11:31:03 | 52.47760 | 8.44353 | 116° | 99km/h | 11815m | -5.3m/s | -50.7°C | 4.4% | 205.3hPa | 2.5V | 08:07:30 | 01:53:53 | 00:00:00 | |
| HSKMA3-T | 2026-09-02 11:31:01 | 52.47740 | 8.44414 | 122° | 73km/h | 11804m | -6.1m/s | -50.6°C | 1.9% | 205.7hPa | 2.5V | 08:07:29 | 01:53:55 | 00:00:00 | |
| AA1-15 | 2026-09-02 11:30:58 | 52.47773 | 8.44315 | 120° | 111km/h | 11821m | -6.1m/s | -50.7°C | 1.8% | 205.2hPa | 2.6V | 08:08:20 | 01:53:52 | 00:00:00 | |
| BIOWL1-15 | 2026-09-02 11:30:56 | 52.47844 | 8.44180 | 143° | 95km/h | 11847m | -6.5m/s | -50.8°C | 1.7% | 204.4hPa | 2.5V | 08:08:20 | 01:53:48 | 00:00:00 | |
| DL1XH-west | 2026-09-02 11:30:55 | 52.47825 | 8.44207 | 137° | 106km/h | 11840m | -6.7m/s | -50.8°C | 1.7% | 204.5hPa | 2.5V | 08:08:20 | 01:53:49 | 00:00:00 | |
| DJ2DS-15 | 2026-09-02 11:30:55 | 52.47844 | 8.44180 | 142° | 93km/h | 11847m | -6.5m/s | -50.8°C | 2.2% | 204.4hPa | 2.6V | 00:00:00 | 00:00:00 | 00:00:00 | |
| GOEST3-10 | 2026-09-02 11:30:53 | 52.47862 | 8.44156 | 140° | 77km/h | 11854m | -5.6m/s | -50.7°C | 4.4% | 204.1hPa | 2.6V | 00:00:00 | 00:00:00 | 00:00:00 | |
| DL1XH-15 | 2026-09-02 11:30:52 | 52.47930 | 8.43987 | 120° | 104km/h | 11891m | -5m/s | -51°C | 4.3% | 203.1hPa | 2.6V | 08:07:42 | 01:53:41 | 00:00:00 | |
| HSKMA3-T | 2026-09-02 11:30:51 | 52.47889 | 8.44113 | 124° | 69km/h | 11866m | -5.4m/s | -50.9°C | 1.6% | 203.8hPa | 2.6V | 08:08:20 | 01:53:45 | 00:00:00 | |
| AA1-15 | 2026-09-02 11:30:48 | 52.47930 | 8.43987 | 120° | 104km/h | 11891m | -5m/s | -51°C | 1.6% | 203.1hPa | 2.6V | 08:08:20 | 01:53:41 | 00:00:00 | |
| DJ2KF-10 | 2026-09-02 11:30:48 | 52.47918 | 8.44024 | 115° | 91km/h | 11884m | -6.6m/s | -50.9°C | 4.4% | 203.3hPa | 2.5V | 08:07:00 | 01:53:42 | 00:00:00 | |
| DM0DOS-11 | 2026-09-02 11:30:47 | 52.48014 | 8.43838 | 135° | 75km/h | 11920m | -6.2m/s | -51°C | 4.3% | 202.2hPa | 2.5V | 08:07:47 | 01:53:36 | 00:00:00 | |
| DL1XH-west | 2026-09-02 11:30:44 | 52.47980 | 8.43885 | 137° | 99km/h | 11908m | -5.2m/s | -51°C | 1.6% | 202.5hPa | 2.5V | 08:08:20 | 01:53:38 | 00:00:00 | |
| BIOWL1-15 | 2026-09-02 11:30:43 | 52.48093 | 8.43626 | 130° | 104km/h | 11963m | -4.9m/s | -51.1°C | 1.3% | 200.9hPa | 2.5V | 08:08:20 | 01:53:29 | 00:00:00 | |
| HSKMA3-T | 2026-09-02 11:30:41 | 52.48027 | 8.43817 | 131° | 66km/h | 11927m | -7.7m/s | -51.1°C | 1.4% | 202hPa | 2.5V | 08:08:20 | 01:53:35 | 00:00:00 | |
| DL1XH-15 | 2026-09-02 11:30:40 | 52.48064 | 8.43698 | 115° | 100km/h | 11953m | -6.4m/s | -51°C | 4.1% | 201.3hPa | 2.5V | 08:07:52 | 01:53:31 | 00:00:00 | |
| DL4XJ-10 | 2026-09-02 11:30:40 | 52.48036 | 8.43794 | 118° | 88km/h | 11934m | -5.2m/s | -51.8°C | 0% | 0hPa | 2.5V | 00:00:00 | 00:00:00 | 00:00:00 | |
| DJ2DS-15 | 2026-09-02 11:30:38 | 52.48054 | 8.43734 | 115° | 91km/h | 11947m | -5.4m/s | -51.0°C | 4.1% | 201.4hPa | 2.5V | 00:00:00 | 01:53:32 | 00:00:00 | |
| DM0DOS-11 | 2026-09-02 11:30:37 | 52.48140 | 8.43548 | 133° | 69km/h | 11980m | -7.2m/s | -51°C | 4.1% | 200.3hPa | 2.5V | 08:07:57 | 01:53:26 | 00:00:00 | |
| AA1-15 | 2026-09-02 11:30:36 | 52.48077 | 8.43661 | 123° | 104km/h | 11959m | -5.5m/s | -51°C | 1.3% | 201hPa | 2.5V | 08:08:20 | 01:53:30 | 00:00:00 | |
| DL1XH-west | 2026-09-02 11:30:34 | 52.48110 | 8.43596 | 136° | 97km/h | 11968m | -4.3m/s | -51.1°C | 1.4% | 200.7hPa | 2.6V | 08:08:20 | 01:53:28 | 00:00:00 | |
| DO2JMG | 2026-09-02 11:30:33 | 52.48127 | 8.43570 | 138° | 82km/h | 11973m | -6.8m/s | -51.1°C | 1.4% | 200.6hPa | 2.6V | 08:08:20 | 01:53:27 | 00:00:00 | |
| HSKMA3-T | 2026-09-02 11:30:30 | 52.48161 | 8.43499 | 113° | 78km/h | 11993m | -5.6m/s | -51°C | 1.2% | 200hPa | 2.5V | 08:08:20 | 01:53:24 | 00:00:00 | |
| DL1XH-15 | 2026-09-02 11:30:30 | 52.48191 | 8.43393 | 119° | 108km/h | 12011m | -6.9m/s | -51°C | 4% | 199.4hPa | 2.6V | 08:08:02 | 01:53:21 | 00:00:00 | |
| DL4BBY-15 | 2026-09-02 11:30:29 | 52.48168 | 8.43467 | 111° | 89km/h | 11999m | -6.4m/s | -51.8°C | 0% | 0hPa | 2.6V | 00:00:00 | 00:00:00 | 00:00:00 | |
| GOEST3-10 | 2026-09-02 11:30:28 | 52.48178 | 8.43431 | 117° | 100km/h | 12005m | -6.1m/s | -50.9°C | 4.0% | 199.5hPa | 2.6V | 00:00:00 | 01:53:22 | 00:00:00 | |
| DM0DOS-11 | 2026-09-02 11:30:27 | 52.48265 | 8.43249 | 127° | 66km/h | 12042m | -8.4m/s | -51.1°C | 3.9% | 198.5hPa | 2.6V | 08:08:07 | 01:53:16 | 00:00:00 | |
| AA1-15 | 2026-09-02 11:30:25 | 52.48222 | 8.43323 | 132° | 100km/h | 12022m | -7.4m/s | -51°C | 1.1% | 199hPa | 2.5V | 08:08:20 | 01:53:19 | 00:00:00 | |
| DB0DAN | 2026-09-02 11:30:25 | 52.48222 | 8.43323 | 132° | 95km/h | 12022m | -7.4m/s | -51°C | 1.9% | 199.04hPa | 2.5V | 00:00:00 | 00:00:00 | 00:00:00 | |
| DL1XH-west | 2026-09-02 11:30:23 | 52.48253 | 8.43272 | 131° | 75km/h | 12035m | -6.6m/s | -51°C | 1.1% | 198.6hPa | 2.5V | 08:08:20 | 01:53:17 | 00:00:00 | |
| BIOWL1-15 | 2026-09-02 11:30:23 | 52.48445 | 8.42702 | 132° | 99km/h | 12143m | -7.6m/s | -51.3°C | 1% | 195.4hPa | 2.5V | 08:09:11 | 01:52:59 | 00:00:00 | |
| DO2JMG | 2026-09-02 11:30:22 | 52.48265 | 8.43249 | 128° | 66km/h | 12042m | -8.4m/s | -51.1°C | 1% | 198.5hPa | 2.6V | 08:08:20 | 01:53:16 | 00:00:00 | |
| HSKMA3-T | 2026-09-02 11:30:20 | 52.48280 | 8.43199 | 108° | 78km/h | 12055m | -7.5m/s | -51.2°C | 1% | 198hPa | 2.6V | 08:08:20 | 01:53:14 | 00:00:00 | |
| DL4XJ-10 | 2026-09-02 11:30:20 | 52.48280 | 8.43199 | 109° | 89km/h | 12055m | -7.5m/s | -52.0°C | 0% | 0hPa | 2.5V | 00:00:00 | 00:00:00 | 00:00:00 | |
| DJ2DS-15 | 2026-09-02 11:30:19 | 52.48294 | 8.43131 | 110° | 99km/h | 12068m | -6.0m/s | -51.2°C | 1.7% | 197.7hPa | 2.5V | 00:00:00 | 00:00:00 | 00:00:00 | |
| DJ2KF-10 | 2026-09-02 11:30:18 | 52.48294 | 8.43131 | 111° | 91km/h | 12068m | -6.0m/s | -51.2°C | 3.9% | 197.6hPa | 2.5V | 00:00:00 | 01:53:12 | 00:00:00 | |
| DM0DOS-11 | 2026-09-02 11:30:17 | 52.48373 | 8.42936 | 123° | 69km/h | 12104m | -5.7m/s | -51.4°C | 4% | 196.7hPa | 2.5V | 08:08:17 | 01:53:06 | 00:00:00 | |
| AA1-15 | 2026-09-02 11:30:14 | 52.48347 | 8.42987 | 132° | 93km/h | 12092m | -6.3m/s | -51.3°C | 1.1% | 196.9hPa | 2.5V | 08:08:20 | 01:53:08 | 00:00:00 | |
| DL1XH-west | 2026-09-02 11:30:13 | 52.48361 | 8.42960 | 130° | 80km/h | 12098m | -5.6m/s | -51.3°C | 1.1% | 196.7hPa | 2.5V | 08:08:20 | 01:53:07 | 00:00:00 | |
| DO2JMG | 2026-09-02 11:30:12 | 52.48373 | 8.42936 | 124° | 69km/h | 12104m | -5.7m/s | -51.4°C | 1% | 196.7hPa | 2.5V | 08:08:20 | 01:53:06 | 00:00:00 | |
| HSKMA3-T | 2026-09-02 11:30:09 | 52.48394 | 8.42850 | 107° | 91km/h | 12120m | -6.5m/s | -51.4°C | 0.9% | 195.9hPa | 2.6V | 08:08:20 | 01:53:03 | 00:00:00 | |
| GOEST3-10 | 2026-09-02 11:30:08 | 52.48403 | 8.42811 | 113° | 100km/h | 12126m | -5.8m/s | -51.2°C | 3.9% | 195.8hPa | 2.6V | 00:00:00 | 01:53:02 | 00:00:00 | |
| DM0DOS-11 | 2026-09-02 11:30:07 | 52.48484 | 8.42626 | 119° | 69km/h | 12163m | -7.9m/s | -51.4°C | 4% | 194.8hPa | 2.6V | 08:08:27 | 01:52:56 | 00:00:00 | |
| AA1-15 | 2026-09-02 11:30:03 | 52.48474 | 8.42650 | 127° | 73km/h | 12157m | -6.5m/s | -51.3°C | 0.9% | 194.9hPa | 2.6V | 08:09:11 | 01:52:57 | 00:00:00 | |
| DL1XH-west | 2026-09-02 11:30:02 | 52.48484 | 8.42626 | 120° | 69km/h | 12163m | -7.9m/s | -51.4°C | 0.9% | 194.8hPa | 2.6V | 08:09:11 | 01:52:56 | 00:00:00 | |
| DL1XH1-15 | 2026-09-02 11:30:02 | 52.48504 | 8.42530 | 106° | 99km/h | 12181m | -7m/s | -51.4°C | 3.9% | 194.1hPa | 2.5V | 08:08:30 | 01:52:53 | 00:00:00 | |
| DO2JMG | 2026-09-02 11:30:01 | 52.48491 | 8.42599 | 107° | 73km/h | 12169m | -4.7m/s | -51.4°C | 0.9% | 194.6hPa | 2.5V | 08:09:11 | 01:52:55 | 00:00:00 | |
| HSKMA3-T | 2026-09-02 11:29:58 | 52.48512 | 8.42489 | 111° | 110km/h | 12188m | -7.6m/s | -51.4°C | 1% | 194hPa | 2.6V | 08:09:11 | 01:52:52 | 00:00:00 | |
| BIOWL1-15 | 2026-09-02 11:29:56 | 52.48614 | 8.42200 | 100° | 89km/h | 12246m | -6.1m/s | -50.9°C | 0.7% | 192.4hPa | 2.5V | 08:09:11 | 01:52:43 | 00:00:00 | |
| AA1-15 | 2026-09-02 11:29:53 | 52.48584 | 8.42314 | 129° | 77km/h | 12219m | -7.5m/s | -51.1°C | 0.9% | 193.1hPa | 2.6V | 08:09:11 | 01:52:47 | 00:00:00 | |
| DL1XH-west | 2026-09-02 11:29:52 | 52.48595 | 8.42289 | 120° | 73km/h | 12225m | -8.5m/s | -50.9°C | 0.9% | 192.8hPa | 2.6V | 08:09:11 | 01:52:46 | 00:00:00 | |
| DD8BA-10 | 2026-09-02 11:29:52 | 52.48595 | 8.42288 | 121° | 95km/h | 12226m | -8.5m/s | -50.9°C | 3.9% | 192.8hPa | 2.5V | 00:00:00 | 00:00:00 | 00:00:00 | |
| DL1XH1-15 | 2026-09-02 11:29:51 | 52.48614 | 8.42200 | 100° | 89km/h | 12246m | -6.1m/s | -50.9°C | 3.7% | 192.4hPa | 2.5V | 08:08:40 | 01:52:43 | 00:00:00 | |
| DO2JMG | 2026-09-02 11:29:51 | 52.48603 | 8.42262 | 114° | 73km/h | 12233m | -8.3m/s | -50.9°C | 0.8% | 192.7hPa | 2.6V | 08:09:11 | 01:52:45 | 00:00:00 | |
| DD1CC2-15 | 2026-09-02 11:29:49 | 52.48610 | 8.42233 | 105° | 75km/h | 12240m | -6.3m/s | -50.9°C | 1.7% | 192.5hPa | 2.5V | 08:09:00 | 00:00:00 | 00:00:00 | |
| DJ2KF-10 | 2026-09-02 11:29:48 | 52.48618 | 8.42161 | 104° | 100km/h | 12252m | -6.0m/s | -50.8°C | 3.7% | 192.0hPa | 2.5V | 00:00:00 | 01:52:42 | 00:00:00 | |
| DM0DOS-11 | 2026-09-02 11:29:47 | 52.48687 | 8.41932 | 117° | 77km/h | 12286m | -6.7m/s | -50.4°C | 3.7% | 191hPa | 2.5V | 08:08:47 | 01:52:36 | 00:00:00 | |
| HSKMA3-T | 2026-09-02 11:29:47 | 52.48626 | 8.42119 | 108° | 111km/h | 12257m | -5.8m/s | -50.9°C | 0.7% | 191.9hPa | 2.5V | 08:09:11 | 01:52:41 | 00:00:00 | |
| BIOWL1-15 | 2026-09-02 11:29:45 | 52.48648 | 8.42032 | 120° | 115km/h | 12269m | -7m/s | -50.7°C | 0.8% | 191.6hPa | 2.6V | 08:09:11 | 01:52:39 | 00:00:00 | |
| AA1-15 | 2026-09-02 11:29:42 | 52.48687 | 8.41932 | 117° | 77km/h | 12286m | -6.7m/s | -50.4°C | 0.6% | 191hPa | 2.5V | 08:09:11 | 01:52:36 | 00:00:00 | |
| DL1XH1-15 | 2026-09-02 11:29:42 | 52.48703 | 8.41837 | 99° | 97km/h | 12305m | -6.4m/s | -50.4°C | 3.6% | 190.5hPa | 2.6V | 08:08:50 | 01:52:33 | 00:00:00 | |
| DL1XH-west | 2026-09-02 11:29:41 | 52.48695 | 8.41904 | 110° | 75km/h | 12292m | -8.4m/s | -50.4°C | 0.6% | 190.9hPa | 2.5V | 08:09:11 | 01:52:35 | 00:00:00 | |
| DO2JMG | 2026-09-02 11:29:40 | 52.48700 | 8.41873 | 100° | 78km/h | 12299m | -5.8m/s | -50.4°C | 0.5% | 190.7hPa | 2.6V | 08:09:11 | 01:52:34 | 00:00:00 | |
| DB0DAN | 2026-09-02 11:29:40 | 52.48700 | 8.41873 | 100° | 75km/h | 12299m | -5.8m/s | -50.4°C | 1.5% | 190.67hPa | 2.6V | 00:00:00 | 00:00:00 | 00:00:00 | |
| SONCRA | 2026-09-02 11:29:39 | 52.48703 | 8.41837 | 99° | 97km/h | 12305m | -6.4m/s | -50.4°C | 1.5% | 190.5hPa | 2.5V | 00:00:00 | 00:00:00 | 00:00:00 | |
| DL3AQ-11 | 2026-09-02 11:29:38 | 52.48715 | 8.41751 | 106° | 117km/h | 12317m | -6.9m/s | -50.4°C | 1.5% | 190.2hPa | 2.5V | 00:00:00 | 00:00:00 | 00:00:00 | |
| DM0DOS-11 | 2026-09-02 11:29:37 | 52.48778 | 8.41560 | 118° | 77km/h | 12349m | -7.1m/s | -50.5°C | 3.7% | 189.2hPa | 2.5V | 08:08:57 | 01:52:26 | 00:00:00 | |
| BIOWL1-15 | 2026-09-02 11:29:37 | 52.48739 | 8.41662 | 120° | 113km/h | 12331m | -6.3m/s | -50.4°C | 0.7% | 189.8hPa | 2.6V | 08:09:11 | 01:52:29 | 00:00:00 | |
| HSKMA3-T | 2026-09-02 11:29:36 | 52.48725 | 8.41705 | 115° | 122km/h | 12324m | -8m/s | -50.4°C | 0.6% | 190hPa | 2.5V | 08:09:11 | 01:52:30 | 00:00:00 | |
| DL1XH-west | 2026-09-02 11:29:31 | 52.48786 | 8.41530 | 107° | 78km/h | 12355m | -6.2m/s | -50.5°C | 0.7% | 189hPa | 2.5V | 08:09:11 | 01:52:25 | 00:00:00 | |
| DO2JMG | 2026-09-02 11:29:30 | 52.48791 | 8.41497 | 101° | 86km/h | 12361m | -7.8m/s | -50.5°C | 0.6% | 188.8hPa | 2.5V | 08:09:11 | 01:52:24 | 00:00:00 | |
| DL1XH1-15 | 2026-09-02 11:29:30 | 52.48795 | 8.41460 | 96° | 97km/h | 12369m | -6.8m/s | -50.6°C | 3.6% | 188.7hPa | 2.5V | 08:09:00 | 01:52:23 | 00:00:00 | |
| HTAHTA | 2026-09-02 11:29:30 | 52.48795 | 8.41460 | 96° | 97km/h | 12369m | -6.8m/s | -50.6°C | 1.5% | 188.7hPa | 2.6V | 00:00:00 | 00:00:00 | 00:00:00 | |
| SMARD9-15 | 2026-09-02 11:29:29 | 52.48799 | 8.41417 | 100° | 111km/h | 12376m | -6.1m/s | -50.6°C | 1.5% | 188.6hPa | 2.6V | 00:00:00 | 00:00:00 | 00:00:00 | |
| GOEST3-10 | 2026-09-02 11:29:28 | 52.48799 | 8.41417 | 101° | 115km/h | 12376m | -6.1m/s | -50.6°C | 3.7% | 188.5hPa | 2.6V | 00:00:00 | 01:52:22 | 00:00:00 | |
| DM0DOS-11 | 2026-09-02 11:29:27 | 52.48870 | 8.41180 | 125° | 78km/h | 12414m | -7.1m/s | -50.5°C | 3.7% | 187.3hPa | 2.6V | 08:09:07 | 01:52:16 | 00:00:00 | |
| HSKMA3-T | 2026-09-02 11:29:25 | 52.48829 | 8.41281 | 119° | 117km/h | 12394m | -7.5m/s | -50.5°C | 0.6% | 187.8hPa | 2.5V | 08:09:11 | 01:52:19 | 00:00:00 | |
| DB0DAN | 2026-09-02 11:29:25 | 52.48829 | 8.41281 | 119° | 111km/h | 12393m | -7.5m/s | -50.5°C | 1.5% | 187.85hPa | 2.5V | 00:00:00 | 00:00:00 | 00:00:00 | |
| BIOWL1-15 | 2026-09-02 11:29:24 | 52.48843 | 8.41242 | 123° | 106km/h | 12400m | -7.7m/s | -50.5°C | 0.6% | 187.8hPa | 2.5V | 08:09:11 | 01:52:18 | 00:00:00 | |
| DL1XH-15 | 2026-09-02 11:29:23 | 52.48903 | 8.41006 | 107° | 119km/h | 12446m | -6.7m/s | -50.2°C | 3.5% | 186.5hPa | 2.6V | 08:09:12 | 01:52:11 | 00:00:00 | |
| DL1XH1-15 | 2026-09-02 11:29:23 | 52.48891 | 8.41089 | 101° | 93km/h | 12432m | -7.4m/s | -50.4°C | 3.6% | 186.7hPa | 2.5V | 08:09:10 | 01:52:13 | 00:00:00 | |
| DL1XH-west | 2026-09-02 11:29:21 | 52.48879 | 8.41153 | 114° | 71km/h | 12420m | -5.5m/s | -50.5°C | 0.5% | 187.2hPa | 2.6V | 08:09:11 | 01:52:15 | 00:00:00 | |
| DO2JMG | 2026-09-02 11:29:20 | 52.48886 | 8.41124 | 104° | 80km/h | 12426m | -5.8m/s | -50.4°C | 0.5% | 187hPa | 2.5V | 08:09:11 | 01:52:14 | 00:00:00 | |
| DL4XJ-10 | 2026-09-02 11:29:20 | 52.48886 | 8.41123 | 104° | 99km/h | 12426m | -5.7m/s | -51.2°C | 0% | 0hPa | 2.5V | 00:00:00 | 00:00:00 | 00:00:00 | |
| DM0DOS-11 | 2026-09-02 11:29:18 | 52.48971 | 8.40813 | 122° | 86km/h | 12475m | -8.4m/s | -50°C | 3.5% | 185.5hPa | 2.5V | 08:09:17 | 01:52:06 | 00:00:00 | |
| HSKMA3-T | 2026-09-02 11:29:15 | 52.48927 | 8.40916 | 121° | 117km/h | 12458m | -5.5m/s | -50.1°C | 0.4% | 186.1hPa | 2.6V | 08:10:02 | 01:52:09 | 00:00:00 | |
| BIOWL1-15 | 2026-09-02 11:29:14 | 52.49031 | 8.40558 | 122° | 113km/h | 12519m | -5.4m/s | -49.7°C | 0.4% | 184.3hPa | 2.5V | 08:10:02 | 01:51:59 | 00:00:00 | |
| DL1XH-west | 2026-09-02 11:29:11 | 52.48982 | 8.40785 | 119° | 75km/h | 12482m | -7.7m/s | -49.9°C | 0.4% | 185.4hPa | 2.5V | 08:10:02 | 01:52:05 | 00:00:00 | |
| AA1-15 | 2026-09-02 11:29:10 | 52.48989 | 8.40756 | 107° | 75km/h | 12489m | -5.7m/s | -49.9°C | 0.4% | 185.2hPa | 2.6V | 08:10:02 | 01:52:04 | 00:00:00 | |
| DO3DL | 2026-09-02 11:29:09 | 52.48989 | 8.40756 | 108° | 75km/h | 12489m | -5.7m/s | -49.9°C | 1.4% | 185.1hPa | 2.5V | 08:10:00 | 00:00:00 | 00:00:00 | |
| DM0DOS-11 | 2026-09-02 11:29:08 | 52.49088 | 8.40435 | 120° | 71km/h | 12542m | -7.6m/s | -49.7°C | 3.5% | 183.6hPa | 2.5V | 08:09:28 | 01:51:55 | 00:00:00 | |
| HSKMA3-T | 2026-09-02 11:29:04 | 52.49047 | 8.40521 | 127° | 106km/h | 12523m | -6m/s | -49.7°C | 0.5% | 184.1hPa | 2.6V | 08:10:02 | 01:51:58 | 00:00:00 | |
| DO3DL | 2026-09-02 11:29:03 | 52.49047 | 8.40521 | 128° | 106km/h | 12524m | -6.0m/s | -49.7°C | 1.5% | 184.1hPa | 2.6V | 08:10:00 | 00:00:00 | 00:00:00 | |
| DL1XH1-15 | 2026-09-02 11:29:02 | 52.49102 | 8.40374 | 106° | 89km/h | 12554m | -6.9m/s | -49.8°C | 3.5% | 183.2hPa | 2.6V | 08:09:30 | 01:51:53 | 00:00:00 | |
| BIOWL1-15 | 2026-09-02 11:29:02 | 52.49077 | 8.40460 | 130° | 80km/h | 12535m | -8.4m/s | -49.7°C | 0.4% | 183.7hPa | 2.5V | 08:10:02 | 01:51:56 | 00:00:00 | |
| DL1XH-west | 2026-09-02 11:29:00 | 52.49095 | 8.40407 | 109° | 78km/h | 12549m | -6.2m/s | -49.7°C | 0.4% | 183.4hPa | 2.5V | 08:10:02 | 01:51:54 | 00:00:00 | |
| DO2JMG | 2026-09-02 11:28:59 | 52.49102 | 8.40374 | 107° | 89km/h | 12554m | -6.9m/s | -49.8°C | 0.4% | 183.2hPa | 2.6V | 08:10:02 | 01:51:53 | 00:00:00 | |
| HTAHTA | 2026-09-02 11:28:59 | 52.49109 | 8.40337 | 107° | 102km/h | 12560m | -7.1m/s | -49.8°C | 1.4% | 183.1hPa | 2.6V | 00:00:00 | 00:00:00 | 00:00:00 | |
| DL1XH-15 | 2026-09-02 11:28:58 | 52.49118 | 8.40294 | 113° | 117km/h | 12566m | -7m/s | -49.8°C | 3.5% | 182.9hPa | 2.6V | 08:09:32 | 01:51:51 | 00:00:00 | |
| SMARD9-15 | 2026-09-02 11:28:58 | 52.49118 | 8.40294 | 113° | 115km/h | 12566m | -7.0m/s | -49.8°C | 1.5% | 182.9hPa | 2.6V | 00:00:00 | 00:00:00 | 00:00:00 | |
| DJ2DS-15 | 2026-09-02 11:28:57 | 52.49118 | 8.40294 | 114° | 93km/h | 12566m | -7.0m/s | -49.7°C | 3.5% | 182.9hPa | 2.6V | 00:00:00 | 01:51:51 | 00:00:00 | |
| DM0DOS-11 | 2026-09-02 11:28:56 | 52.49195 | 8.40124 | 132° | 75km/h | 12596m | -8.4m/s | -49.9°C | 3.5% | 181.9hPa | 2.6V | 08:09:37 | 01:51:46 | 00:00:00 | |
| BIOWL1-15 | 2026-09-02 11:28:53 | 52.49205 | 8.40101 | 122° | 68km/h | 12603m | -7.2m/s | -49.9°C | 0.5% | 181.8hPa | 2.6V | 08:10:02 | 01:51:45 | 00:00:00 | |
| HSKMA3-T | 2026-09-02 11:28:53 | 52.49180 | 8.40148 | 136° | 89km/h | 12589m | -8m/s | -49.8°C | 0.5% | 182.1hPa | 2.5V | 08:10:02 | 01:51:47 | 00:00:00 | |
| GOEST3-10 | 2026-09-02 11:28:53 | 52.49180 | 8.40148 | 136° | 77km/h | 12589m | -7.9m/s | -49.8°C | 3.5% | 182.1hPa | 2.5V | 00:00:00 | 00:00:00 | 00:00:00 | |
| DD8BA-10 | 2026-09-02 11:28:52 | 52.49195 | 8.40123 | 133° | 91km/h | 12596m | -8.3m/s | -49.8°C | 3.5% | 181.9hPa | 2.5V | 00:00:00 | 00:00:00 | 00:00:00 | |
| DL3OBA | 2026-09-02 11:28:51 | 52.49205 | 8.40101 | 123° | 68km/h | 12603m | -7.2m/s | -49.9°C | 1.4% | 181.8hPa | 2.5V | 08:10:00 | 00:00:00 | 00:00:00 | |
| DL1XH1-15 | 2026-09-02 11:28:50 | 52.49219 | 8.40045 | 104° | 84km/h | 12614m | -6.4m/s | -49.9°C | 3.4% | 181.3hPa | 2.5V | 08:09:40 | 01:51:43 | 00:00:00 | |
| DL1XH-west | 2026-09-02 11:28:49 | 52.49219 | 8.40045 | 105° | 84km/h | 12614m | -6.4m/s | -49.9°C | 0.5% | 181.3hPa | 2.5V | 08:10:02 | 01:51:43 | 00:00:00 | |
| DO2JMG | 2026-09-02 11:28:48 | 52.49225 | 8.40009 | 107° | 99km/h | 12620m | -6.3m/s | -49.9°C | 0.4% | 181.2hPa | 2.5V | 08:10:02 | 01:51:42 | 00:00:00 | |
| DL3AQ-11 | 2026-09-02 11:28:45 | 52.49276 | 8.39854 | 130° | 102km/h | 12645m | -7.7m/s | -50.0°C | 1.4% | 180.5hPa | 2.6V | 00:00:00 | 00:00:00 | 00:00:00 | |
| GOEST3-10 | 2026-09-02 11:28:43 | 52.49292 | 8.39825 | 135° | 78km/h | 12653m | -7.4m/s | -49.9°C | 3.5% | 180.3hPa | 2.6V | 00:00:00 | 00:00:00 | 00:00:00 | |
| DL1XH1-15 | 2026-09-02 11:28:42 | 52.49330 | 8.39715 | 103° | 82km/h | 12682m | -5.7m/s | -50.1°C | 3.5% | 179.6hPa | 2.6V | 08:09:50 | 01:51:33 | 00:00:00 | |
| HSKMA3-T | 2026-09-02 11:28:42 | 52.49306 | 8.39799 | 127° | 77km/h | 12660m | -6.8m/s | -49.9°C | 0.5% | 180.1hPa | 2.5V | 08:10:02 | 01:51:36 | 00:00:00 | |
| DD8BA-10 | 2026-09-02 11:28:42 | 52.49306 | 8.39799 | 127° | 93km/h | 12660m | -6.8m/s | -49.9°C | 3.5% | 180.0hPa | 2.6V | 00:00:00 | 00:00:00 | 00:00:00 | |
| DB0DAN | 2026-09-02 11:28:40 | 52.49324 | 8.39746 | 110° | 71km/h | 12675m | -7.7m/s | -50°C | 1.4% | 179.8hPa | 2.6V | 00:00:00 | 00:00:00 | 00:00:00 | |
| DL1XH-west | 2026-09-02 11:28:38 | 52.49336 | 8.39679 | 105° | 100km/h | 12688m | -5.6m/s | -50.1°C | 0.5% | 179.4hPa | 2.5V | 08:10:02 | 01:51:32 | 00:00:00 | |
| DO2JMG | 2026-09-02 11:28:37 | 52.49344 | 8.39638 | 111° | 108km/h | 12693m | -6.1m/s | -50.1°C | 0.5% | 179.1hPa | 2.5V | 08:10:02 | 01:51:31 | 00:00:00 | |
| HSKMA3-T | 2026-09-02 11:28:31 | 52.49423 | 8.39443 | 120° | 69km/h | 12732m | -8.6m/s | -50.1°C | 0.6% | 178.1hPa | 2.5V | 08:10:02 | 01:51:25 | 00:00:00 | |
| BIOWL1-15 | 2026-09-02 11:28:31 | 52.49459 | 8.39262 | 116° | 113km/h | 12769m | -6.1m/s | -50.2°C | 0.5% | 177.3hPa | 2.5V | 08:10:53 | 01:51:20 | 00:00:00 | |
| DL1XH1-15 | 2026-09-02 11:28:30 | 52.49435 | 8.39385 | 100° | 84km/h | 12748m | -6.8m/s | -50.1°C | 3.5% | 177.8hPa | 2.5V | 08:10:00 | 01:51:23 | 00:00:00 | |
| DL1XH-west | 2026-09-02 11:28:28 | 52.49440 | 8.39347 | 103° | 100km/h | 12755m | -6.8m/s | -50.1°C | 0.5% | 177.6hPa | 2.6V | 08:10:02 | 01:51:22 | 00:00:00 | |
| DO2JMG | 2026-09-02 11:28:27 | 52.49448 | 8.39306 | 110° | 113km/h | 12762m | -7.1m/s | -50.1°C | 0.5% | 177.5hPa | 2.6V | 08:10:02 | 01:51:21 | 00:00:00 | |
| DD1CC2-15 | 2026-09-02 11:28:26 | 52.49447 | 8.39306 | 111° | 113km/h | 12762m | -7.1m/s | -50.1°C | 1.5% | 177.5hPa | 2.5V | 08:10:00 | 00:00:00 | 00:00:00 | |
| DB0DAN | 2026-09-02 11:28:25 | 52.49472 | 8.39222 | 122° | 104km/h | 12774m | -6.2m/s | -50.2°C | 1.5% | 176.96hPa | 2.5V | 00:00:00 | 00:00:00 | 00:00:00 | |
| SONDE2-11 | 2026-09-02 11:28:25 | 52.49487 | 8.39185 | 126° | 100km/h | 12781m | -6.7m/s | -50.2°C | 1.5% | 176.8hPa | 2.5V | 00:00:00 | 00:00:00 | 00:00:00 | |
| DF5WG-10 | 2026-09-02 11:28:24 | 52.49486 | 8.39185 | 127° | 97km/h | 12781m | -6.7m/s | -50.1°C | 3.7% | 176.7hPa | 2.5V | 00:00:00 | 01:51:18 | 00:00:00 | |
| DC6BW-12 | 2026-09-02 11:28:23 | 52.49486 | 8.39185 | 128° | 102km/h | 12781m | -6.7m/s | -50.2°C | 1.5% | 176.8hPa | 2.5V | 08:10:00 | 00:00:00 | 00:00:00 | |
| DL1XH1-15 | 2026-09-02 11:28:22 | 52.49532 | 8.39040 | 100° | 91km/h | 12811m | -6.8m/s | -50.1°C | 3.5% | 176hPa | 2.5V | 08:10:10 | 01:51:13 | 00:00:00 | |
| HSKMA3-T | 2026-09-02 11:28:21 | 52.49523 | 8.39102 | 113° | 66km/h | 12800m | -6.3m/s | -50.1°C | 0.6% | 176.4hPa | 2.6V | 08:10:53 | 01:51:15 | 00:00:00 | |
| BIOWL1-15 | 2026-09-02 11:28:20 | 52.49528 | 8.39074 | 102° | 77km/h | 12806m | -5.8m/s | -50.1°C | 0.6% | 176.2hPa | 2.5V | 08:10:53 | 01:51:14 | 00:00:00 | |
| DL1XH-west | 2026-09-02 11:28:17 | 52.49544 | 8.38958 | 107° | 111km/h | 12824m | -7m/s | -50°C | 0.5% | 175.5hPa | 2.5V | 08:10:53 | 01:51:11 | 00:00:00 | |
| AA1-15 | 2026-09-02 11:28:16 | 52.49553 | 8.38914 | 113° | 117km/h | 12831m | -8.3m/s | -50°C | 0.5% | 175.3hPa | 2.6V | 08:10:53 | 01:51:10 | 00:00:00 | |
| HSKMA3-T | 2026-09-02 11:28:11 | 52.49621 | 8.38744 | 121° | 69km/h | 12868m | -7.3m/s | -50.1°C | 0.6% | 174.6hPa | 2.5V | 08:10:53 | 01:51:05 | 00:00:00 | |
| DL1XH1-15 | 2026-09-02 11:28:10 | 52.49634 | 8.38686 | 104° | 86km/h | 12880m | -7m/s | -50.1°C | 3.6% | 174.1hPa | 2.6V | 08:10:20 | 01:51:03 | 00:00:00 | |
| DO2JMG | 2026-09-02 11:28:06 | 52.49657 | 8.38564 | 117° | 120km/h | 12899m | -7.3m/s | -50.1°C | 0.6% | 173.7hPa | 2.5V | 08:10:53 | 01:51:00 | 00:00:00 | |
| AA1-15 | 2026-09-02 11:28:05 | 52.49672 | 8.38521 | 123° | 117km/h | 12906m | -6.8m/s | -50°C | 0.6% | 173.5hPa | 2.6V | 08:10:53 | 01:50:59 | 00:00:00 | |
| HSKMA3-T | 2026-09-02 11:28:01 | 52.49733 | 8.38397 | 123° | 77km/h | 12932m | -8.1m/s | -49.9°C | 0.7% | 172.7hPa | 2.5V | 08:10:53 | 01:50:55 | 00:00:00 | |
| DL4XJ-10 | 2026-09-02 11:28:00 | 52.49742 | 8.38370 | 114° | 93km/h | 12940m | -7.6m/s | -50.7°C | 0% | 0hPa | 2.6V | 00:00:00 | 00:00:00 | 00:00:00 | |
| DL4BBY-15 | 2026-09-02 11:27:59 | 52.49749 | 8.38339 | 105° | 91km/h | 12948m | -7.2m/s | -50.7°C | 0% | 0hPa | 2.6V | 00:00:00 | 00:00:00 | 00:00:00 | |
| DL1XH-15 | 2026-09-02 11:27:58 | 52.49761 | 8.38260 | 107° | 111km/h | 12961m | -7.4m/s | -50°C | 3.6% | 172.1hPa | 2.6V | 08:10:32 | 01:50:51 | 00:00:00 | |
| DL1XH-west | 2026-09-02 11:27:57 | 52.49845 | 8.38050 | 124° | 69km/h | 12997m | -7.3m/s | -49.8°C | 0.6% | 171hPa | 2.6V | 08:10:53 | 01:50:45 | 00:00:00 | |
| DO2JMG | 2026-09-02 11:27:56 | 52.49771 | 8.38216 | 115° | 120km/h | 12968m | -7.7m/s | -50.1°C | 0.6% | 171.9hPa | 2.6V | 08:10:53 | 01:50:50 | 00:00:00 | |
| BIOWL1-15 | 2026-09-02 11:27:55 | 52.49785 | 8.38172 | 122° | 117km/h | 12974m | -5.9m/s | -50.1°C | 0.7% | 171.7hPa | 2.5V | 08:10:53 | 01:50:49 | 00:00:00 | |
| AA1-15 | 2026-09-02 11:27:54 | 52.49802 | 8.38134 | 128° | 110km/h | 12980m | -5.8m/s | -50°C | 0.7% | 171.6hPa | 2.5V | 08:10:53 | 01:50:48 | 00:00:00 | |
| SONDE2-11 | 2026-09-02 11:27:54 | 52.49833 | 8.38074 | 131° | 80km/h | 12991m | -7.4m/s | -49.9°C | 1.5% | 171.2hPa | 2.5V | 00:00:00 | 00:00:00 | 00:00:00 | |
| DF5WG-10 | 2026-09-02 11:27:53 | 52.49818 | 8.38101 | 132° | 91km/h | 12985m | -6.1m/s | -49.8°C | 3.6% | 171.3hPa | 2.5V | 00:00:00 | 01:50:47 | 00:00:00 | |
| DL1XH1-15 | 2026-09-02 11:27:52 | 52.49860 | 8.37998 | 107° | 77km/h | 13010m | -7.8m/s | -49.7°C | 3.5% | 170.6hPa | 2.5V | 08:10:40 | 01:50:43 | 00:00:00 | |
| DD8BA-10 | 2026-09-02 11:27:52 | 52.49833 | 8.38074 | 132° | 91km/h | 12991m | -7.4m/s | -49.8°C | 3.6% | 171.2hPa | 2.6V | 00:00:00 | 00:00:00 | 00:00:00 | |
| DL1XH-15 | 2026-09-02 11:27:51 | 52.49873 | 8.37930 | 106° | 99km/h | 13024m | -7.8m/s | -49.8°C | 3.4% | 170.2hPa | 2.6V | 08:10:42 | 01:50:41 | 00:00:00 | |
| HSKMA3-T | 2026-09-02 11:27:50 | 52.49853 | 8.38026 | 114° | 69km/h | 13004m | -7.1m/s | -49.8°C | 0.6% | 170.8hPa | 2.5V | 08:10:53 | 01:50:44 | 00:00:00 | |
| DO3DL | 2026-09-02 11:27:49 | 52.49853 | 8.38025 | 115° | 69km/h | 13004m | -7.1m/s | -49.8°C | 1.5% | 170.7hPa | 2.5V | 08:10:00 | 00:00:00 | 00:00:00 | |
| DJ2KF-10 | 2026-09-02 11:27:48 | 52.49866 | 8.37966 | 105° | 82km/h | 13017m | -7.1m/s | -49.7°C | 3.5% | 170.4hPa | 2.5V | 00:00:00 | 01:50:42 | 00:00:00 | |
| GOEST3-10 | 2026-09-02 11:27:47 | 52.49873 | 8.37930 | 107° | 106km/h | 13024m | -7.8m/s | -49.7°C | 3.4% | 170.2hPa | 2.6V | 08:10:00 | 01:50:41 | 00:00:00 | |
| DM0DOS-11 | 2026-09-02 11:27:46 | 52.49955 | 8.37728 | 131° | 69km/h | 13066m | -7.4m/s | -50°C | 3.6% | 169.3hPa | 2.5V | 08:10:48 | 01:50:35 | 00:00:00 | |
| DL1XH-west | 2026-09-02 11:27:46 | 52.49881 | 8.37890 | 112° | 110km/h | 13031m | -8.3m/s | -49.8°C | 0.7% | 170.1hPa | 2.6V | 08:10:53 | 01:50:40 | 00:00:00 | |
| BIOWL1-15 | 2026-09-02 11:27:45 | 52.49893 | 8.37849 | 120° | 113km/h | 13039m | -9.1m/s | -49.8°C | 0.6% | 170hPa | 2.6V | 08:10:53 | 01:50:39 | 00:00:00 | |
| AA1-15 | 2026-09-02 11:27:44 | 52.49925 | 8.37777 | 134° | 100km/h | 13052m | -6.5m/s | -49.9°C | 0.7% | 169.7hPa | 2.5V | 08:10:53 | 01:50:37 | 00:00:00 | |
| DF5WG-10 | 2026-09-02 11:27:43 | 52.49925 | 8.37777 | 134° | 88km/h | 13052m | -6.5m/s | -49.9°C | 3.6% | 169.6hPa | 2.5V | 00:00:00 | 01:50:37 | 00:00:00 | |
| DD8BA-10 | 2026-09-02 11:27:42 | 52.49941 | 8.37750 | 137° | 88km/h | 13059m | -7.8m/s | -49.9°C | 3.6% | 169.4hPa | 2.6V | 00:00:00 | 00:00:00 | 00:00:00 | |
| DL1XH1-15 | 2026-09-02 11:27:40 | 52.49973 | 8.37679 | 111° | 73km/h | 13080m | -7.9m/s | -50.1°C | 3.6% | 168.8hPa | 2.6V | 08:10:50 | 01:50:33 | 00:00:00 | |
| HSKMA3-T | 2026-09-02 11:27:40 | 52.49966 | 8.37705 | 120° | 68km/h | 13073m | -6.4m/s | -50.1°C | 0.7% | 169.1hPa | 2.6V | 08:10:53 | 01:50:34 | 00:00:00 | |
| DB0DAN | 2026-09-02 11:27:40 | 52.49966 | 8.37705 | 119° | 64km/h | 13073m | -6.4m/s | -50.1°C | 1.5% | 169.11hPa | 2.6V | 00:00:00 | 00:00:00 | 00:00:00 | |
| BIOWL1-15 | 2026-09-02 11:27:36 | 52.50095 | 8.37335 | 107° | 88km/h | 13162m | -7.8m/s | -50.3°C | 0.6% | 166.8hPa | 2.6V | 08:11:44 | 01:50:21 | 00:00:00 | |
| DO2JMG | 2026-09-02 11:27:36 | 52.49997 | 8.37576 | 117° | 106km/h | 13102m | -6.3m/s | -50.2°C | 0.6% | 168.4hPa | 2.5V | 08:10:53 | 01:50:30 | 00:00:00 | |
| DL1XH-west | 2026-09-02 11:27:35 | 52.50010 | 8.37538 | 124° | 104km/h | 13107m | -5.7m/s | -50.2°C | 0.7% | 168.2hPa | 2.5V | 08:11:44 | 01:50:29 | 00:00:00 | |
| AA1-15 | 2026-09-02 11:27:33 | 52.50056 | 8.37455 | 137° | 73km/h | 13126m | -7.6m/s | -50.3°C | 0.6% | 167.6hPa | 2.5V | 08:11:44 | 01:50:26 | 00:00:00 | |
| DD8BA-10 | 2026-09-02 11:27:32 | 52.50056 | 8.37455 | 137° | 77km/h | 13126m | -7.6m/s | -50.2°C | 3.6% | 167.5hPa | 2.5V | 00:00:00 | 00:00:00 | 00:00:00 | |
| DL1XH-15 | 2026-09-02 11:27:30 | 52.50095 | 8.37335 | 107° | 88km/h | 13162m | -7.8m/s | -50.3°C | 3.6% | 166.8hPa | 2.6V | 08:11:02 | 01:50:21 | 00:00:00 | |
| HSKMA3-T | 2026-09-02 11:27:29 | 52.50084 | 8.37393 | 109° | 60km/h | 13148m | -7.4m/s | -50.3°C | 0.5% | 167.1hPa | 2.6V | 08:11:44 | 01:50:23 | 00:00:00 | |
| DO3DL | 2026-09-02 11:27:29 | 52.50084 | 8.37393 | 110° | 60km/h | 13148m | -7.4m/s | -50.3°C | 1.4% | 167.1hPa | 2.6V | 08:11:00 | 00:00:00 | 00:00:00 | |
| BUE01 | 2026-09-02 11:27:28 | 52.50089 | 8.37367 | 103° | 71km/h | 13155m | -7.6m/s | -50.3°C | 1.4% | 166.9hPa | 2.6V | 00:00:00 | 00:00:00 | 00:00:00 | |
| GOEST3-10 | 2026-09-02 11:27:27 | 52.50095 | 8.37335 | 108° | 91km/h | 13162m | -7.8m/s | -50.3°C | 3.6% | 166.7hPa | 2.6V | 00:00:00 | 01:50:21 | 00:00:00 | |
| DM0DOS-11 | 2026-09-02 11:27:26 | 52.50167 | 8.37171 | 126° | 51km/h | 13199m | -7.7m/s | -50.5°C | 3.5% | 165.7hPa | 2.6V | 08:11:08 | 01:50:15 | 00:00:00 | |
| DO2JMG | 2026-09-02 11:27:26 | 52.50103 | 8.37300 | 114° | 99km/h | 13169m | -7.6m/s | -50.4°C | 0.6% | 166.6hPa | 2.5V | 08:11:44 | 01:50:20 | 00:00:00 | |
| DB0DAN | 2026-09-02 11:27:25 | 52.50115 | 8.37264 | 124° | 95km/h | 13176m | -6.6m/s | -50.4°C | 1.4% | 166.44hPa | 2.5V | 00:00:00 | 00:00:00 | 00:00:00 | |
| BIOWL1-15 | 2026-09-02 11:27:24 | 52.50129 | 8.37234 | 132° | 91km/h | 13182m | -5.8m/s | -50.4°C | 0.6% | 166.3hPa | 2.5V | 08:11:44 | 01:50:18 | 00:00:00 | |
| AA1-15 | 2026-09-02 11:27:21 | 52.50167 | 8.37171 | 126° | 51km/h | 13199m | -7.7m/s | -50.5°C | 0.5% | 165.7hPa | 2.6V | 08:11:44 | 01:50:15 | 00:00:00 | |
| DC6BW-12 | 2026-09-02 11:27:21 | 52.50157 | 8.37188 | 137° | 64km/h | 13193m | -7.2m/s | -50.5°C | 1.4% | 165.9hPa | 2.5V | 00:00:00 | 00:00:00 | 00:00:00 | |
| DL1XH1-15 | 2026-09-02 11:27:20 | 52.50178 | 8.37130 | 103° | 62km/h | 13214m | -7.8m/s | -50.5°C | 3.4% | 165.3hPa | 2.5V | 08:11:10 | 01:50:13 | 00:00:00 | |
| DL4XJ-10 | 2026-09-02 11:27:20 | 52.50173 | 8.37153 | 114° | 73km/h | 13206m | -8.4m/s | -51.3°C | 0% | 0hPa | 2.5V | 00:00:00 | 00:00:00 | 00:00:00 | |
| DL1XH-15 | 2026-09-02 11:27:18 | 52.50186 | 8.37072 | 105° | 82km/h | 13228m | -7.7m/s | -50.6°C | 3.5% | 165hPa | 2.5V | 08:11:12 | 01:50:11 | 00:00:00 | |
| HSKMA3-T | 2026-09-02 11:27:18 | 52.50181 | 8.37103 | 100° | 71km/h | 13221m | -7.3m/s | -50.6°C | 0.5% | 165.1hPa | 2.5V | 08:11:44 | 01:50:12 | 00:00:00 | |
| DJ2KF-10 | 2026-09-02 11:27:18 | 52.50181 | 8.37103 | 101° | 77km/h | 13222m | -7.3m/s | -50.5°C | 3.5% | 165.1hPa | 2.6V | 00:00:00 | 01:50:12 | 00:00:00 | |
| DJ2DS-15 | 2026-09-02 11:27:17 | 52.50186 | 8.37072 | 106° | 73km/h | 13228m | -7.7m/s | -50.5°C | 3.5% | 164.9hPa | 2.6V | 00:00:00 | 01:50:11 | 00:00:00 | |
| DM0DOS-11 | 2026-09-02 11:27:16 | 52.50248 | 8.36913 | 115° | 46km/h | 13273m | -6.5m/s | -50.6°C | 3.5% | 164.1hPa | 2.6V | 08:11:18 | 01:50:05 | 00:00:00 | |
| DO2JMG | 2026-09-02 11:27:15 | 52.50203 | 8.37003 | 120° | 95km/h | 13242m | -8.3m/s | -50.6°C | 0.5% | 164.7hPa | 2.6V | 08:11:44 | 01:50:09 | 00:00:00 | |
| BIOWL1-15 | 2026-09-02 11:27:14 | 52.50215 | 8.36972 | 128° | 86km/h | 13250m | -7.7m/s | -50.6°C | 0.5% | 164.6hPa | 2.5V | 08:11:44 | 01:50:08 | 00:00:00 | |
| DL1XH-west | 2026-09-02 11:27:13 | 52.50228 | 8.36948 | 136° | 71km/h | 13258m | -8.1m/s | -50.6°C | 0.6% | 164.3hPa | 2.5V | 08:11:44 | 01:50:07 | 00:00:00 | |
| DL1XH-15 | 2026-09-02 11:27:13 | 52.50261 | 8.36803 | 105° | 93km/h | 13299m | -6.9m/s | -50.9°C | 3.5% | 163.3hPa | 2.5V | 08:11:22 | 01:50:01 | 00:00:00 | |
| DL1XH1-15 | 2026-09-02 11:27:13 | 52.50253 | 8.36868 | 96° | 69km/h | 13286m | -6.8m/s | -50.8°C | 3.5% | 163.7hPa | 2.6V | 08:11:20 | 01:50:03 | 00:00:00 | |
| AA1-15 | 2026-09-02 11:27:10 | 52.50251 | 8.36893 | 99° | 55km/h | 13280m | -6.1m/s | -50.7°C | 0.5% | 163.9hPa | 2.6V | 08:11:44 | 01:50:04 | 00:00:00 | |
| DB0DAN | 2026-09-02 11:27:10 | 52.50251 | 8.36893 | 99° | 51km/h | 13280m | -6.1m/s | -50.7°C | 1.4% | 163.86hPa | 2.6V | 00:00:00 | 00:00:00 | 00:00:00 | |
| HSKMA3-T | 2026-09-02 11:27:08 | 52.50256 | 8.36838 | 99° | 82km/h | 13293m | -6.5m/s | -50.8°C | 0.5% | 163.4hPa | 2.5V | 08:11:44 | 01:50:02 | 00:00:00 | |
| DM0DOS-11 | 2026-09-02 11:27:07 | 52.50317 | 8.36639 | 112° | 51km/h | 13339m | -8.7m/s | -51°C | 3.6% | 162.3hPa | 2.5V | 08:11:28 | 01:49:55 | 00:00:00 | |
| DO2JMG | 2026-09-02 11:27:04 | 52.50290 | 8.36702 | 127° | 82km/h | 13317m | -7m/s | -50.9°C | 0.6% | 162.8hPa | 2.6V | 08:11:44 | 01:49:58 | 00:00:00 | |
| DL1XH-west | 2026-09-02 11:27:02 | 52.50311 | 8.36658 | 123° | 57km/h | 13331m | -8.4m/s | -51°C | 0.6% | 162.5hPa | 2.6V | 08:11:44 | 01:49:56 | 00:00:00 | |
| AA1-15 | 2026-09-02 11:26:59 | 52.50321 | 8.36592 | 89° | 68km/h | 13356m | -7.9m/s | -51.1°C | 0.5% | 161.9hPa | 2.5V | 08:11:44 | 01:49:53 | 00:00:00 | |
| HSKMA3-T | 2026-09-02 11:26:58 | 52.50322 | 8.36561 | 92° | 82km/h | 13365m | -7.5m/s | -51.2°C | 0.5% | 161.8hPa | 2.6V | 08:11:44 | 01:49:52 | 00:00:00 | |
| DJ2DS-15 | 2026-09-02 11:26:57 | 52.50324 | 8.36525 | 100° | 78km/h | 13372m | -7.8m/s | -51.2°C | 3.6% | 161.6hPa | 2.6V | 08:11:00 | 01:49:51 | 00:00:00 | |
| DM0DOS-11 | 2026-09-02 11:26:56 | 52.50377 | 8.36354 | 104° | 47km/h | 13418m | -5.8m/s | -51.5°C | 3.7% | 160.6hPa | 2.6V | 08:11:38 | 01:49:45 | 00:00:00 | |
| DB0DAN | 2026-09-02 11:26:55 | 52.50340 | 8.36450 | 118° | 91km/h | 13387m | -7.4m/s | -51.3°C | 1.5% | 161.26hPa | 2.5V | 00:00:00 | 00:00:00 | 00:00:00 | |
| DO2JMG | 2026-09-02 11:26:54 | 52.50351 | 8.36418 | 126° | 82km/h | 13395m | -7m/s | -51.4°C | 0.6% | 161.1hPa | 2.5V | 08:11:44 | 01:49:48 | 00:00:00 | |
| BIOWL1-15 | 2026-09-02 11:26:53 | 52.50379 | 8.36305 | 89° | 75km/h | 13431m | -7.2m/s | -51.6°C | 0.6% | 160.1hPa | 2.5V | 08:11:44 | 01:49:43 | 00:00:00 | |
| DL1XH-west | 2026-09-02 11:26:52 | 52.50372 | 8.36373 | 120° | 53km/h | 13410m | -8m/s | -51.5°C | 0.6% | 160.7hPa | 2.6V | 08:11:44 | 01:49:46 | 00:00:00 | |
| AA1-15 | 2026-09-02 11:26:49 | 52.50380 | 8.36272 | 93° | 88km/h | 13439m | -7.2m/s | -51.6°C | 0.6% | 160hPa | 2.5V | 08:11:44 | 01:49:42 | 00:00:00 | |
| HSKMA3-T | 2026-09-02 11:26:47 | 52.50383 | 8.36235 | 98° | 95km/h | 13446m | -6.3m/s | -51.6°C | 0.6% | 159.7hPa | 2.6V | 08:11:44 | 01:49:41 | 00:00:00 | |
| DL3AQ-11 | 2026-09-02 11:26:45 | 52.50396 | 8.36158 | 113° | 95km/h | 13457m | -6.8m/s | -51.7°C | 1.5% | 159.4hPa | 2.5V | 00:00:00 | 00:00:00 | 00:00:00 | |
| DO2JMG | 2026-09-02 11:26:43 | 52.50416 | 8.36096 | 121° | 73km/h | 13470m | -6.9m/s | -51.7°C | 0.7% | 159hPa | 2.5V | 08:12:35 | 01:49:37 | 00:00:00 | |
| DL1XH1-15 | 2026-09-02 11:26:42 | 52.50433 | 8.35995 | 86° | 75km/h | 13499m | -7.5m/s | -51.8°C | 3.7% | 158.4hPa | 2.5V | 08:11:50 | 01:49:33 | 00:00:00 | |
| DL1XH-west | 2026-09-02 11:26:41 | 52.50430 | 8.36048 | 106° | 57km/h | 13483m | -9.2m/s | -51.7°C | 0.7% | 158.8hPa | 2.6V | 08:12:35 | 01:49:35 | 00:00:00 | |
| DB0DAN | 2026-09-02 11:26:40 | 52.50433 | 8.36024 | 93° | 60km/h | 13492m | -8m/s | -51.8°C | 1.5% | 158.62hPa | 2.6V | 00:00:00 | 00:00:00 | 00:00:00 | |
| BIOWL1-15 | 2026-09-02 11:26:39 | 52.50440 | 8.35879 | 106° | 108km/h | 13522m | -8.2m/s | -51.8°C | 0.6% | 157.9hPa | 2.5V | 08:12:35 | 01:49:30 | 00:00:00 | |
| AA1-15 | 2026-09-02 11:26:38 | 52.50432 | 8.35961 | 90° | 91km/h | 13507m | -8m/s | -51.8°C | 0.6% | 158.2hPa | 2.5V | 08:12:35 | 01:49:32 | 00:00:00 | |
| HSKMA3-T | 2026-09-02 11:26:37 | 52.50434 | 8.35921 | 98° | 102km/h | 13515m | -8.2m/s | -51.9°C | 0.6% | 158.1hPa | 2.5V | 08:12:35 | 01:49:31 | 00:00:00 | |
| DO2JMG | 2026-09-02 11:26:33 | 52.50471 | 8.35772 | 127° | 80km/h | 13545m | -8.3m/s | -51.6°C | 0.6% | 157.4hPa | 2.6V | 08:12:35 | 01:49:27 | 00:00:00 | |
| DL1XH-west | 2026-09-02 11:26:31 | 52.50491 | 8.35728 | 118° | 51km/h | 13563m | -7.9m/s | -51.5°C | 0.6% | 157hPa | 2.5V | 08:12:35 | 01:49:25 | 00:00:00 | |
| DL1XH1-15 | 2026-09-02 11:26:30 | 52.50497 | 8.35686 | 90° | 60km/h | 13577m | -6.1m/s | -51.5°C | 3.7% | 156.6hPa | 2.6V | 08:12:00 | 01:49:23 | 00:00:00 | |
| AA1-15 | 2026-09-02 11:26:28 | 52.50500 | 8.35624 | 98° | 88km/h | 13590m | -6.4m/s | -51.5°C | 0.5% | 156.3hPa | 2.5V | 08:12:35 | 01:49:21 | 00:00:00 | |
| BIOWL1-15 | 2026-09-02 11:26:27 | 52.50513 | 8.35552 | 115° | 93km/h | 13602m | -6.7m/s | -51.6°C | 0.5% | 155.9hPa | 2.5V | 08:12:35 | 01:49:19 | 00:00:00 | |
| GOEST3-10 | 2026-09-02 11:26:27 | 52.50500 | 8.35624 | 99° | 88km/h | 13590m | -6.4m/s | -51.5°C | 3.7% | 156.2hPa | 2.5V | 00:00:00 | 01:49:21 | 00:00:00 | |
| DM0DOS-11 | 2026-09-02 11:26:26 | 52.50555 | 8.35448 | 116° | 57km/h | 13624m | -9.3m/s | -51.5°C | 3.7% | 155.3hPa | 2.5V | 08:12:08 | 01:49:15 | 00:00:00 | |
| HSKMA3-T | 2026-09-02 11:26:26 | 52.50505 | 8.35588 | 106° | 93km/h | 13596m | -6.4m/s | -51.6°C | 0.5% | 156.1hPa | 2.5V | 08:12:35 | 01:49:20 | 00:00:00 | |
| DB0DAN | 2026-09-02 11:26:25 | 52.50513 | 8.35552 | 115° | 89km/h | 13602m | -6.7m/s | -51.6°C | 1.4% | 155.88hPa | 2.5V | 00:00:00 | 00:00:00 | 00:00:00 | |
| BIOWL9-15 | 2026-09-02 11:26:24 | 52.50524 | 8.35519 | 123° | 88km/h | 13607m | -7.1m/s | -51.6°C | 1.4% | 155.7hPa | 2.5V | 00:00:00 | 00:00:00 | 00:00:00 | |
| HTAHTA | 2026-09-02 11:26:23 | 52.50536 | 8.35492 | 127° | 77km/h | 13613m | -7.3m/s | -51.6°C | 1.4% | 155.5hPa | 2.5V | 00:00:00 | 00:00:00 | 00:00:00 | |
| DL1XH1-15 | 2026-09-02 11:26:22 | 52.50562 | 8.35400 | 95° | 69km/h | 13639m | -8.1m/s | -51.4°C | 3.5% | 155hPa | 2.5V | 08:12:10 | 01:49:13 | 00:00:00 | |
| DO2JMG | 2026-09-02 11:26:22 | 52.50547 | 8.35469 | 128° | 66km/h | 13618m | -7.7m/s | -51.5°C | 0.6% | 155.5hPa | 2.6V | 08:12:35 | 01:49:16 | 00:00:00 | |
| DL1XH-west | 2026-09-02 11:26:21 | 52.50555 | 8.35448 | 117° | 57km/h | 13624m | -9.3m/s | -51.5°C | 0.5% | 155.3hPa | 2.5V | 08:12:35 | 01:49:15 | 00:00:00 | |
| AA1-15 | 2026-09-02 11:26:17 | 52.50576 | 8.35291 | 111° | 104km/h | 13661m | -8.3m/s | -51°C | 0.3% | 154.5hPa | 2.6V | 08:12:35 | 01:49:10 | 00:00:00 | |
| BIOWL1-15 | 2026-09-02 11:26:15 | 52.50587 | 8.35252 | 119° | 104km/h | 13668m | -8m/s | -50.9°C | 0.3% | 154.3hPa | 2.6V | 08:12:35 | 01:49:09 | 00:00:00 | |
| DL1XH-west | 2026-09-02 11:26:11 | 52.50632 | 8.35142 | 115° | 58km/h | 13698m | -8.8m/s | -50.9°C | 0.2% | 153.6hPa | 2.6V | 08:12:35 | 01:49:05 | 00:00:00 | |
| DL1XH1-15 | 2026-09-02 11:26:10 | 52.50639 | 8.35088 | 94° | 78km/h | 13714m | -7.6m/s | -51.1°C | 3.4% | 153.2hPa | 2.5V | 08:12:20 | 01:49:03 | 00:00:00 | |
| DF5WG-10 | 2026-09-02 11:26:10 | 52.50637 | 8.35117 | 101° | 86km/h | 13707m | -7.6m/s | -51.0°C | 3.4% | 153.4hPa | 2.6V | 00:00:00 | 01:49:04 | 00:00:00 | |
| DL1XH-15 | 2026-09-02 11:26:08 | 52.50648 | 8.35012 | 107° | 108km/h | 13730m | -8.7m/s | -51.2°C | 3.5% | 152.9hPa | 2.5V | 08:12:22 | 01:49:01 | 00:00:00 | |
| AA1-15 | 2026-09-02 11:26:07 | 52.50658 | 8.34971 | 115° | 110km/h | 13739m | -7.9m/s | -51.2°C | 0.3% | 152.8hPa | 2.7V | 08:12:35 | 01:49:00 | 00:00:00 | |
| DM0DOS-11 | 2026-09-02 11:26:06 | 52.50714 | 8.34828 | 104° | 58km/h | 13780m | -6m/s | -51.1°C | 3.4% | 151.9hPa | 2.5V | 08:12:28 | 01:48:55 | 00:00:00 | |
| BIOWL1-15 | 2026-09-02 11:26:04 | 52.50723 | 8.34730 | 103° | 100km/h | 13801m | -6.7m/s | -51.3°C | 0.3% | 151.4hPa | 2.5V | 08:12:35 | 01:48:52 | 00:00:00 | |
| HSKMA3-T | 2026-09-02 11:26:04 | 52.50685 | 8.34900 | 130° | 89km/h | 13753m | -8m/s | -51.2°C | 0.3% | 152.5hPa | 2.6V | 08:12:35 | 01:48:58 | 00:00:00 | |
| DO2JMG | 2026-09-02 11:26:01 | 52.50714 | 8.34828 | 105° | 58km/h | 13780m | -6m/s | -51.2°C | 0.3% | 151.9hPa | 2.5V | 08:12:35 | 01:48:55 | 00:00:00 | |
| DL1XH-15 | 2026-09-02 11:26:01 | 52.50731 | 8.34689 | 108° | 108km/h | 13808m | -6m/s | -51.3°C | 3.5% | 151.2hPa | 2.5V | 08:12:32 | 01:48:51 | 00:00:00 | |
| DC6BW-12 | 2026-09-02 11:26:00 | 52.50717 | 8.34802 | 97° | 73km/h | 13786m | -6.5m/s | -51.2°C | 1.2% | 151.8hPa | 2.5V | 00:00:00 | 00:00:00 | 00:00:00 | |
| DL1XH-west | 2026-09-02 11:26:00 | 52.50717 | 8.34802 | 96° | 73km/h | 13786m | -6.5m/s | -51.2°C | 0.2% | 151.8hPa | 2.7V | 08:12:35 | 01:48:54 | 00:00:00 | |
| DL4BBY-15 | 2026-09-02 11:25:59 | 52.50719 | 8.34769 | 97° | 88km/h | 13794m | -7.2m/s | -52.0°C | 0% | 0hPa | 2.5V | 00:00:00 | 00:00:00 | 00:00:00 | |
| DO3DL | 2026-09-02 11:25:58 | 52.50719 | 8.34769 | 98° | 89km/h | 13793m | -7.3m/s | -51.2°C | 1.2% | 151.6hPa | 2.5V | 08:12:00 | 00:00:00 | 00:00:00 | |
| DJ2DS-15 | 2026-09-02 11:25:57 | 52.50730 | 8.34688 | 109° | 89km/h | 13808m | -5.9m/s | -51.3°C | 3.5% | 151.2hPa | 2.5V | 00:00:00 | 01:48:51 | 00:00:00 | |
| DM0DOS-11 | 2026-09-02 11:25:56 | 52.50797 | 8.34503 | 107° | 69km/h | 13848m | -7.9m/s | -51.5°C | 3.5% | 150.1hPa | 2.5V | 08:12:38 | 01:48:45 | 00:00:00 | |
| AA1-15 | 2026-09-02 11:25:56 | 52.50754 | 8.34611 | 125° | 100km/h | 13821m | -6.4m/s | -51.4°C | 0.3% | 150.9hPa | 2.7V | 08:12:35 | 01:48:49 | 00:00:00 | |
| DB0DAN | 2026-09-02 11:25:55 | 52.50754 | 8.34611 | 125° | 97km/h | 13821m | -6.4m/s | -51.4°C | 1.2% | 150.94hPa | 2.7V | 00:00:00 | 00:00:00 | 00:00:00 | |
| HSKMA3-T | 2026-09-02 11:25:54 | 52.50768 | 8.34579 | 129° | 89km/h | 13828m | -6.7m/s | -51.4°C | 0.3% | 150.7hPa | 2.7V | 08:12:35 | 01:48:48 | 00:00:00 | |
| BIOWL1-15 | 2026-09-02 11:25:50 | 52.50811 | 8.34399 | 106° | 104km/h | 13870m | -7.6m/s | -51.6°C | 0.3% | 149.7hPa | 2.7V | 08:13:26 | 01:48:42 | 00:00:00 | |
| DO2JMG | 2026-09-02 11:25:50 | 52.50801 | 8.34473 | 101° | 80km/h | 13856m | -7.7m/s | -51.6°C | 0.3% | 150hPa | 2.5V | 08:13:26 | 01:48:44 | 00:00:00 | |
| DL1XH-west | 2026-09-02 11:25:49 | 52.50805 | 8.34438 | 101° | 91km/h | 13863m | -7.8m/s | -51.6°C | 0.3% | 149.8hPa | 2.5V | 08:13:26 | 01:48:43 | 00:00:00 | |
| DL1XH-15 | 2026-09-02 11:25:48 | 52.50820 | 8.34358 | 114° | 110km/h | 13877m | -8.4m/s | -51.6°C | 3.6% | 149.6hPa | 2.6V | 08:12:42 | 01:48:41 | 00:00:00 | |
| DJ2KF-10 | 2026-09-02 11:25:48 | 52.50811 | 8.34399 | 106° | 93km/h | 13871m | -7.6m/s | -51.5°C | 3.5% | 149.7hPa | 2.6V | 00:00:00 | 01:48:42 | 00:00:00 | |
| GOEST3-10 | 2026-09-02 11:25:47 | 52.50820 | 8.34358 | 115° | 91km/h | 13878m | -8.4m/s | -51.5°C | 3.6% | 149.5hPa | 2.6V | 00:00:00 | 01:48:41 | 00:00:00 | |
| DM0DOS-11 | 2026-09-02 11:25:46 | 52.50884 | 8.34182 | 102° | 71km/h | 13922m | -8.3m/s | -51.8°C | 3.6% | 148.6hPa | 2.6V | 08:12:48 | 01:48:35 | 00:00:00 | |
| AA1-15 | 2026-09-02 11:25:44 | 52.50860 | 8.34256 | 130° | 80km/h | 13900m | -7.7m/s | -51.6°C | 0.4% | 149.1hPa | 2.5V | 08:13:26 | 01:48:38 | 00:00:00 | |
| HSKMA3-T | 2026-09-02 11:25:44 | 52.50871 | 8.34232 | 126° | 69km/h | 13907m | -8.1m/s | -51.7°C | 0.4% | 149hPa | 2.5V | 08:13:26 | 01:48:37 | 00:00:00 | |
| BIOWL7-15 | 2026-09-02 11:25:42 | 52.50879 | 8.34208 | 115° | 64km/h | 13914m | -8.4m/s | -51.7°C | 1.3% | 148.8hPa | 2.7V | 00:00:00 | 00:00:00 | 00:00:00 | |
| DL1XH-15 | 2026-09-02 11:25:40 | 52.50912 | 8.34030 | 119° | 111km/h | 13953m | -8.7m/s | -51.9°C | 3.7% | 147.9hPa | 2.7V | 08:12:52 | 01:48:31 | 00:00:00 | |
| BIOWL1-15 | 2026-09-02 11:25:40 | 52.50888 | 8.34151 | 98° | 86km/h | 13929m | -8.5m/s | -51.8°C | 0.4% | 148.4hPa | 2.5V | 08:13:26 | 01:48:34 | 00:00:00 | |
| DO2JMG | 2026-09-02 11:25:39 | 52.50892 | 8.34113 | 104° | 100km/h | 13937m | -8.5m/s | -51.8°C | 0.4% | 148.2hPa | 2.5V | 08:13:26 | 01:48:33 | 00:00:00 | |
| DL1XH-west | 2026-09-02 11:25:38 | 52.50900 | 8.34072 | 112° | 111km/h | 13945m | -8.9m/s | -51.9°C | 0.4% | 148.1hPa | 2.5V | 08:13:26 | 01:48:32 | 00:00:00 | |
| DL3AQ-11 | 2026-09-02 11:25:38 | 52.50912 | 8.34030 | 119° | 111km/h | 13953m | -8.7m/s | -51.9°C | 1.3% | 147.9hPa | 2.6V | 00:00:00 | 00:00:00 | 00:00:00 | |
| DJ2DS-15 | 2026-09-02 11:25:37 | 52.50912 | 8.34030 | 120° | 86km/h | 13953m | -8.6m/s | -51.9°C | 3.7% | 147.9hPa | 2.6V | 00:00:00 | 01:48:31 | 00:00:00 | |
| DM0DOS-11 | 2026-09-02 11:25:36 | 52.50979 | 8.33868 | 100° | 68km/h | 14002m | -7.5m/s | -51.7°C | 3.5% | 146.9hPa | 2.6V | 08:12:58 | 01:48:25 | 00:00:00 | |
| BIOWL1-15 | 2026-09-02 11:25:36 | 52.51006 | 8.33721 | 119° | 106km/h | 14034m | -6.9m/s | -52°C | 0.5% | 146.2hPa | 2.5V | 08:13:26 | 01:48:21 | 00:00:00 | |
| HSKMA3-T | 2026-09-02 11:25:33 | 52.50967 | 8.33914 | 126° | 62km/h | 13986m | -8.6m/s | -51.7°C | 0.5% | 147.2hPa | 2.5V | 08:13:26 | 01:48:27 | 00:00:00 | |
| D01LWL | 2026-09-02 11:25:33 | 52.50975 | 8.33893 | 111° | 58km/h | 13995m | -7.3m/s | -51.7°C | 1.3% | 147.0hPa | 2.5V | 00:00:00 | 00:00:00 | 00:00:00 | |
| DD8BA-10 | 2026-09-02 11:25:32 | 52.50975 | 8.33893 | 112° | 84km/h | 13995m | -7.2m/s | -51.6°C | 3.6% | 147.0hPa | 2.5V | 00:00:00 | 00:00:00 | 00:00:00 | |
| DD1CC8 | 2026-09-02 11:25:31 | 52.50979 | 8.33868 | 100° | 68km/h | 14002m | -7.5m/s | -51.7°C | 1.3% | 146.9hPa | 2.5V | 00:00:00 | 00:00:00 | 00:00:00 | |
| DL1XH1-15 | 2026-09-02 11:25:30 | 52.50986 | 8.33801 | 104° | 99km/h | 14018m | -7.7m/s | -51.9°C | 3.6% | 146.5hPa | 2.5V | 08:13:00 | 01:48:23 | 00:00:00 | |
| DO2JMG | 2026-09-02 11:25:29 | 52.50987 | 8.33801 | 104° | 99km/h | 14018m | -7.7m/s | -51.9°C | 0.4% | 146.5hPa | 2.5V | 08:13:26 | 01:48:23 | 00:00:00 | |
| DL4BBY-15 | 2026-09-02 11:25:29 | 52.50986 | 8.33801 | 105° | 84km/h | 14018m | -7.6m/s | -52.6°C | 0% | 0hPa | 2.5V | 00:00:00 | 00:00:00 | 00:00:00 | |
| DL1XH-15 | 2026-09-02 11:25:28 | 52.51006 | 8.33721 | 119° | 106km/h | 14034m | -6.9m/s | -52°C | 3.7% | 146.2hPa | 2.5V | 08:13:02 | 01:48:21 | 00:00:00 | |
| DL1XH-west | 2026-09-02 11:25:28 | 52.50994 | 8.33761 | 112° | 108km/h | 14026m | -7.7m/s | -51.9°C | 0.5% | 146.4hPa | 2.5V | 08:13:26 | 01:48:22 | 00:00:00 | |
| GOEST3-10 | 2026-09-02 11:25:27 | 52.51006 | 8.33721 | 120° | 84km/h | 14034m | -6.8m/s | -51.9°C | 3.7% | 146.2hPa | 2.5V | 00:00:00 | 01:48:21 | 00:00:00 | |
| DM0DOS-11 | 2026-09-02 11:25:26 | 52.51073 | 8.33568 | 102° | 69km/h | 14076m | -7m/s | -52°C | 3.7% | 145.2hPa | 2.5V | 08:13:08 | 01:48:15 | 00:00:00 | |
| AA1-15 | 2026-09-02 11:25:23 | 52.51068 | 8.33593 | 110° | 58km/h | 14070m | -6.5m/s | -52.1°C | 0.6% | 145.4hPa | 2.5V | 08:13:26 | 01:48:16 | 00:00:00 | |
| HSKMA3-T | 2026-09-02 11:25:23 | 52.51061 | 8.33614 | 125° | 57km/h | 14062m | -7m/s | -52.1°C | 0.6% | 145.5hPa | 2.5V | 08:13:26 | 01:48:17 | 00:00:00 | |
| DL1XH1-15 | 2026-09-02 11:25:22 | 52.51084 | 8.33500 | 109° | 97km/h | 14090m | -7.1m/s | -52°C | 3.7% | 144.8hPa | 2.7V | 08:13:10 | 01:48:13 | 00:00:00 | |
| DO2JMG | 2026-09-02 11:25:19 | 52.51084 | 8.33500 | 109° | 99km/h | 14090m | -7.1m/s | -52.1°C | 0.5% | 144.8hPa | 2.7V | 08:13:26 | 01:48:13 | 00:00:00 | |
| DL1XH-west | 2026-09-02 11:25:18 | 52.51093 | 8.33462 | 116° | 104km/h | 14097m | -6.9m/s | -52.1°C | 0.6% | 144.7hPa | 2.6V | 08:13:26 | 01:48:12 | 00:00:00 | |
| DL4XJ-10 | 2026-09-02 11:25:18 | 52.51093 | 8.33462 | 117° | 82km/h | 14097m | -6.9m/s | -52.9°C | 0% | 0hPa | 2.5V | 00:00:00 | 00:00:00 | 00:00:00 | |
| DJ2DS-15 | 2026-09-02 11:25:17 | 52.51106 | 8.33425 | 125° | 82km/h | 14104m | -7.0m/s | -52.1°C | 3.8% | 144.4hPa | 2.5V | 00:00:00 | 01:48:11 | 00:00:00 | |
| DK9SH | 2026-09-02 11:25:13 | 52.51150 | 8.33343 | 132° | 68km/h | 14125m | -7.5m/s | -52.2°C | 1.4% | 144.0hPa | 2.5V | 08:13:00 | 00:00:00 | 00:00:00 | |
| DM0DOS-11 | 2026-09-02 11:25:12 | 52.51170 | 8.33274 | 101° | 73km/h | 14148m | -8m/s | -52.1°C | 3.7% | 143.4hPa | 2.5V | 08:13:18 | 01:48:05 | 00:00:00 | |
| AA1-15 | 2026-09-02 11:25:12 | 52.51165 | 8.33301 | 108° | 62km/h | 14140m | -8m/s | -52.1°C | 0.5% | 143.7hPa | 2.6V | 08:13:26 | 01:48:06 | 00:00:00 | |
| DD8BA-10 | 2026-09-02 11:25:12 | 52.51165 | 8.33301 | 109° | 82km/h | 14140m | -8.0m/s | -52.1°C | 3.7% | 143.6hPa | 2.5V | 00:00:00 | 00:00:00 | 00:00:00 | |
| DL1XH1-15 | 2026-09-02 11:25:10 | 52.51179 | 8.33206 | 105° | 95km/h | 14164m | -7.1m/s | -52°C | 3.6% | 143.1hPa | 2.5V | 08:13:20 | 01:48:03 | 00:00:00 | |
| DO2JMG | 2026-09-02 11:25:09 | 52.51179 | 8.33206 | 106° | 95km/h | 14164m | -7.1m/s | -52°C | 0.5% | 143.1hPa | 2.5V | 08:13:26 | 01:48:03 | 00:00:00 | |
| DL1XH-15 | 2026-09-02 11:25:09 | 52.51199 | 8.33130 | 121° | 102km/h | 14178m | -7.4m/s | -52°C | 3.7% | 142.8hPa | 2.6V | 08:13:22 | 01:48:01 | 00:00:00 | |
| DL1XH-west | 2026-09-02 11:25:07 | 52.51199 | 8.33130 | 122° | 102km/h | 14178m | -7.4m/s | -52°C | 0.5% | 142.8hPa | 2.6V | 08:13:26 | 01:48:01 | 00:00:00 | |
| GOEST3-10 | 2026-09-02 11:25:07 | 52.51199 | 8.33130 | 122° | 80km/h | 14178m | -7.4m/s | -52.0°C | 3.7% | 142.7hPa | 2.6V | 00:00:00 | 01:48:01 | 00:00:00 | |
| DM0DOS-11 | 2026-09-02 11:25:06 | 52.51263 | 8.32978 | 103° | 75km/h | 14221m | -7.8m/s | -52.2°C | 3.7% | 141.8hPa | 2.6V | 08:13:28 | 01:47:55 | 00:00:00 | |
| AU51GT2 | 2026-09-02 11:25:05 | 52.51229 | 8.33070 | 133° | 82km/h | 14192m | -7.4m/s | -52.1°C | 1.4% | 142.4hPa | 2.5V | 00:00:00 | 00:00:00 | 00:00:00 | |
| DO3DL | 2026-09-02 11:25:03 | 52.51242 | 8.33047 | 132° | 68km/h | 14200m | -7.8m/s | -52.1°C | 1.4% | 142.3hPa | 2.5V | 08:13:00 | 00:00:00 | 00:00:00 | |
| DL1XH1-15 | 2026-09-02 11:25:02 | 52.51276 | 8.32909 | 110° | 97km/h | 14237m | -7.6m/s | -52.3°C | 3.8% | 141.5hPa | 2.5V | 08:13:30 | 01:47:53 | 00:00:00 | |
| HSKMA3-T | 2026-09-02 11:25:02 | 52.51258 | 8.33004 | 110° | 62km/h | 14214m | -7.8m/s | -52.1°C | 0.5% | 142hPa | 2.6V | 08:14:17 | 01:47:56 | 00:00:00 | |
| AA1-15 | 2026-09-02 11:25:02 | 52.51264 | 8.32978 | 103° | 75km/h | 14221m | -7.8m/s | -52.2°C | 0.5% | 141.8hPa | 2.6V | 08:14:17 | 01:47:55 | 00:00:00 | |
| DO2JMG | 2026-09-02 11:24:58 | 52.51286 | 8.32872 | 117° | 100km/h | 14244m | -8m/s | -52.3°C | 0.6% | 141.3hPa | 2.5V | 08:14:17 | 01:47:52 | 00:00:00 | |
| DL1XH-west | 2026-09-02 11:24:57 | 52.51299 | 8.32836 | 127° | 100km/h | 14250m | -8.2m/s | -52.3°C | 0.6% | 141.2hPa | 2.7V | 08:14:17 | 01:47:51 | 00:00:00 | |
| DJ2DS-15 | 2026-09-02 11:24:57 | 52.51299 | 8.32836 | 127° | 82km/h | 14250m | -8.2m/s | -52.3°C | 3.9% | 141.2hPa | 2.7V | 00:00:00 | 01:47:51 | 00:00:00 | |
| DM0DOS-11 | 2026-09-02 11:24:56 | 52.51354 | 8.32686 | 102° | 80km/h | 14296m | -7.3m/s | -52.6°C | 3.8% | 140.2hPa | 2.6V | 08:13:38 | 01:47:45 | 00:00:00 | |
| HSKMA3-T | 2026-09-02 11:24:52 | 52.51350 | 8.32716 | 103° | 68km/h | 14288m | -7.8m/s | -52.6°C | 0.4% | 140.4hPa | 2.5V | 08:14:17 | 01:47:46 | 00:00:00 | |
| AA1-15 | 2026-09-02 11:24:50 | 52.51360 | 8.32651 | 107° | 93km/h | 14303m | -7.3m/s | -52.6°C | 0.5% | 140.1hPa | 2.6V | 08:14:17 | 01:47:44 | 00:00:00 | |
| DL1XH1-15 | 2026-09-02 11:24:50 | 52.51368 | 8.32613 | 112° | 99km/h | 14309m | -6.6m/s | -52.6°C | 3.9% | 139.9hPa | 2.5V | 08:13:40 | 01:47:43 | 00:00:00 | |
| DL1XH-west | 2026-09-02 11:24:47 | 52.51393 | 8.32542 | 129° | 97km/h | 14322m | -7.8m/s | -52.5°C | 0.7% | 139.6hPa | 2.5V | 08:14:17 | 01:47:41 | 00:00:00 | |
| GOEST3-10 | 2026-09-02 11:24:47 | 52.51393 | 8.32542 | 130° | 75km/h | 14322m | -7.8m/s | -52.4°C | 4.0% | 139.6hPa | 2.5V | 08:13:00 | 01:47:41 | 00:00:00 | |
| DM0DOS-11 | 2026-09-02 11:24:46 | 52.51449 | 8.32391 | 103° | 86km/h | 14368m | -8m/s | -52.5°C | 3.9% | 138.6hPa | 2.5V | 08:13:48 | 01:47:35 | 00:00:00 | |
| DL3AQ-11 | 2026-09-02 11:24:45 | 52.51431 | 8.32470 | 121° | 58km/h | 14343m | -8.7m/s | -52.4°C | 1.4% | 139.1hPa | 2.6V | 00:00:00 | 00:00:00 | 00:00:00 | |
| DD1CC3-15 | 2026-09-02 11:24:44 | 52.51421 | 8.32490 | 132° | 71km/h | 14336m | -8.0m/s | -52.4°C | 1.5% | 139.2hPa | 2.6V | 08:14:00 | 00:00:00 | 00:00:00 | |
| DO3DL | 2026-09-02 11:24:43 | 52.51431 | 8.32469 | 122° | 60km/h | 14343m | -8.7m/s | -52.4°C | 1.4% | 139.1hPa | 2.6V | 08:14:00 | 00:00:00 | 00:00:00 | |
| DL1XH1-15 | 2026-09-02 11:24:42 | 52.51465 | 8.32318 | 116° | 102km/h | 14383m | -8.2m/s | -52.4°C | 3.9% | 138.3hPa | 2.6V | 08:13:50 | 01:47:33 | 00:00:00 | |
| HSKMA3-T | 2026-09-02 11:24:41 | 52.51449 | 8.32391 | 103° | 86km/h | 14368m | -8m/s | -52.5°C | 0.5% | 138.6hPa | 2.5V | 08:14:17 | 01:47:35 | 00:00:00 | |
| AA1-15 | 2026-09-02 11:24:39 | 52.51465 | 8.32318 | 117° | 104km/h | 14383m | -8.2m/s | -52.4°C | 0.5% | 138.3hPa | 2.6V | 08:14:17 | 01:47:33 | 00:00:00 | |
| DL1XH-west | 2026-09-02 11:24:36 | 52.51509 | 8.32225 | 137° | 80km/h | 14406m | -7.3m/s | -51.8°C | 0.4% | 137.8hPa | 2.5V | 08:14:17 | 01:47:30 | 00:00:00 | |
| BIOWL1-15 | 2026-09-02 11:24:32 | 52.51561 | 8.32069 | 118° | 102km/h | 14448m | -7.7m/s | -50.9°C | 0.2% | 137hPa | 2.5V | 08:14:17 | 01:47:24 | 00:00:00 | |
| HSKMA3-T | 2026-09-02 11:24:31 | 52.51551 | 8.32106 | 111° | 91km/h | 14441m | -7.7m/s | -51.1°C | 0.3% | 137.1hPa | 2.5V | 08:14:17 | 01:47:25 | 00:00:00 | |
| DL1XH1-15 | 2026-09-02 11:24:30 | 52.51574 | 8.32034 | 126° | 100km/h | 14456m | -7.7m/s | -50.9°C | 3.5% | 136.8hPa | 2.5V | 08:14:00 | 01:47:23 | 00:00:00 | |
| AA1-15 | 2026-09-02 11:24:29 | 52.51589 | 8.32003 | 134° | 95km/h | 14463m | -8.2m/s | -50.9°C | 0.3% | 136.7hPa | 2.7V | 08:14:17 | 01:47:22 | 00:00:00 | |
| DO2JMG | 2026-09-02 11:24:26 | 52.51620 | 8.31959 | 138° | 64km/h | 14480m | -7.8m/s | -50.8°C | 0.3% | 136.3hPa | 2.6V | 08:14:17 | 01:47:20 | 00:00:00 | |
| DL1XH-west | 2026-09-02 11:24:25 | 52.51651 | 8.31835 | 109° | 91km/h | 14518m | -7.1m/s | -50.7°C | 0.1% | 135.5hPa | 2.6V | 08:14:17 | 01:47:15 | 00:00:00 | |
| BIOWL1-15 | 2026-09-02 11:24:20 | 52.51660 | 8.31799 | 117° | 95km/h | 14524m | -6.9m/s | -50.7°C | 0.2% | 135.3hPa | 2.5V | 08:14:17 | 01:47:14 | 00:00:00 | |
| AA1-15 | 2026-09-02 11:24:17 | 52.51700 | 8.31717 | 140° | 68km/h | 14544m | -8.4m/s | -50.4°C | 0.1% | 134.9hPa | 2.7V | 08:14:17 | 01:47:11 | 00:00:00 | |
| DO2JMG | 2026-09-02 11:24:15 | 52.51719 | 8.31688 | 122° | 40km/h | 14561m | -7.3m/s | -50.2°C | 0% | 134.5hPa | 2.6V | 08:14:17 | 01:47:09 | 00:00:00 | |
| DL1XH-west | 2026-09-02 11:24:12 | 52.51739 | 8.31592 | 117° | 86km/h | 14587m | -6.8m/s | -50.2°C | 0% | 133.9hPa | 2.5V | 08:15:08 | 01:47:05 | 00:00:00 | |
| DD8BA-10 | 2026-09-02 11:24:12 | 52.51732 | 8.31623 | 107° | 62km/h | 14581m | -6.8m/s | -50.1°C | 3.2% | 134.0hPa | 2.7V | 00:00:00 | 00:00:00 | 00:00:00 | |
| DL1XH1-15 | 2026-09-02 11:24:11 | 52.51764 | 8.31537 | 138° | 78km/h | 14598m | -7.5m/s | -50.2°C | 3.3% | 133.7hPa | 2.7V | 08:14:20 | 01:47:03 | 00:00:00 | |
| BIOWL1-15 | 2026-09-02 11:24:10 | 52.51812 | 8.31446 | 102° | 66km/h | 14643m | -8.5m/s | -50.4°C | 0% | 132.7hPa | 2.7V | 08:15:08 | 01:46:57 | 00:00:00 | |
| HSKMA3-T | 2026-09-02 11:24:09 | 52.51764 | 8.31537 | 139° | 80km/h | 14598m | -7.5m/s | -50.3°C | 0.1% | 133.7hPa | 2.7V | 08:15:08 | 01:47:03 | 00:00:00 | |
| AA1-15 | 2026-09-02 11:24:07 | 52.51801 | 8.31495 | 142° | 37km/h | 14623m | -8.2m/s | -50.3°C | 0% | 133.2hPa | 2.5V | 08:15:08 | 01:47:00 | 00:00:00 | |
| DM0DOS-11 | 2026-09-02 11:24:07 | 52.51826 | 8.31389 | 121° | 86km/h | 14658m | -9.7m/s | -50.4°C | 3.2% | 132.4hPa | 2.5V | 08:14:28 | 01:46:55 | 00:00:00 | |
| DO2JMG | 2026-09-02 11:24:05 | 52.51807 | 8.31484 | 113° | 35km/h | 14631m | -6.9m/s | -50.3°C | 0.1% | 133hPa | 2.5V | 08:15:08 | 01:46:59 | 00:00:00 | |
| DL3AQ-11 | 2026-09-02 11:24:05 | 52.51810 | 8.31468 | 99° | 47km/h | 14637m | -7.2m/s | -50.3°C | 1.0% | 132.9hPa | 2.7V | 00:00:00 | 00:00:00 | 00:00:00 | |
| AU51GT2 | 2026-09-02 11:24:03 | 52.51812 | 8.31446 | 102° | 64km/h | 14643m | -8.5m/s | -50.4°C | 1.0% | 132.7hPa | 2.7V | 00:00:00 | 00:00:00 | 00:00:00 | |
| DL1XH1-15 | 2026-09-02 11:24:02 | 52.51852 | 8.31339 | 142° | 77km/h | 14674m | -9.1m/s | -50.3°C | 3.3% | 132.1hPa | 2.7V | 08:14:30 | 01:46:53 | 00:00:00 | |
| DL1XH-west | 2026-09-02 11:24:01 | 52.51826 | 8.31389 | 122° | 86km/h | 14658m | -9.7m/s | -50.4°C | 0% | 132.4hPa | 2.5V | 08:15:08 | 01:46:55 | 00:00:00 | |
| HSKMA3-T | 2026-09-02 11:23:59 | 52.51852 | 8.31339 | 142° | 77km/h | 14674m | -9.1m/s | -50.4°C | 0% | 132.1hPa | 2.7V | 08:15:08 | 01:46:53 | 00:00:00 | |
| BIOWL1-15 | 2026-09-02 11:23:57 | 52.51880 | 8.31312 | 154° | 49km/h | 14690m | -9.7m/s | -50.3°C | 0% | 131.7hPa | 2.7V | 08:15:08 | 01:46:51 | 00:00:00 | |
| DJ2DS-15 | 2026-09-02 11:23:57 | 52.51880 | 8.31312 | 155° | 51km/h | 14691m | -9.7m/s | -50.3°C | 3.2% | 131.7hPa | 2.7V | 08:14:00 | 01:46:51 | 00:00:00 | |
| DM0DOS-11 | 2026-09-02 11:23:56 | 52.51916 | 8.31215 | 123° | 71km/h | 14741m | -8.3m/s | -50.1°C | 3.2% | 130.7hPa | 2.5V | 08:14:38 | 01:46:45 | 00:00:00 | |
| AA1-15 | 2026-09-02 11:23:56 | 52.51895 | 8.31294 | 123° | 33km/h | 14709m | -9.4m/s | -50.3°C | 0% | 131.4hPa | 2.5V | 08:15:08 | 01:46:49 | 00:00:00 | |
| DO2JMG | 2026-09-02 11:23:54 | 52.51899 | 8.31280 | 106° | 40km/h | 14718m | -8.7m/s | -50.2°C | 0% | 131.3hPa | 2.5V | 08:15:08 | 01:46:48 | 00:00:00 | |
| DL3AQ-11 | 2026-09-02 11:23:54 | 52.51902 | 8.31262 | 103° | 53km/h | 14726m | -8.1m/s | -50.2°C | 1.0% | 131.1hPa | 2.7V | 00:00:00 | 00:00:00 | 00:00:00 | |
| DO9LL-15 | 2026-09-02 11:23:53 | 52.51902 | 8.31262 | 104° | 46km/h | 14726m | -8.0m/s | -50.1°C | 3.1% | 131.0hPa | 2.7V | 00:00:00 | 01:46:47 | 00:00:00 | |
| DL1XH-15 | 2026-09-02 11:23:52 | 52.51960 | 8.31156 | 144° | 29km/h | 14772m | -8.3m/s | -50.2°C | 3.1% | 130.1hPa | 2.7V | 08:14:42 | 01:46:41 | 00:00:00 | |
| DL1XH-west | 2026-09-02 11:23:51 | 52.51916 | 8.31215 | 124° | 71km/h | 14741m | -8.3m/s | -50.1°C | 0% | 130.7hPa | 2.5V | 08:15:08 | 01:46:45 | 00:00:00 | |
| HSKMA3-T | 2026-09-02 11:23:48 | 52.51952 | 8.31163 | 152° | 46km/h | 14765m | -7.4m/s | -50.1°C | 0% | 130.3hPa | 2.7V | 08:15:08 | 01:46:42 | 00:00:00 | |
| HTAHTA | 2026-09-02 11:23:48 | 52.51952 | 8.31163 | 152° | 46km/h | 14765m | -7.4m/s | -50.1°C | 1.0% | 130.3hPa | 2.7V | 00:00:00 | 00:00:00 | 00:00:00 | |
| SMARD9-15 | 2026-09-02 11:23:47 | 52.51960 | 8.31156 | 144° | 29km/h | 14772m | -8.3m/s | -50.2°C | 1.0% | 130.1hPa | 2.7V | 00:00:00 | 00:00:00 | 00:00:00 | |
| DM0DOS-11 | 2026-09-02 11:23:46 | 52.51989 | 8.31040 | 131° | 71km/h | 14817m | -8.9m/s | -50.4°C | 3.2% | 129.2hPa | 2.7V | 08:14:48 | 01:46:35 | 00:00:00 | |
| DO2JMG | 2026-09-02 11:23:44 | 52.51968 | 8.31116 | 98° | 55km/h | 14796m | -7.6m/s | -50.3°C | 0% | 129.6hPa | 2.5V | 08:15:08 | 01:46:38 | 00:00:00 | |
| DL1XH-west | 2026-09-02 11:23:41 | 52.51989 | 8.31040 | 132° | 71km/h | 14817m | -8.9m/s | -50.4°C | 0% | 129.3hPa | 2.7V | 08:15:08 | 01:46:35 | 00:00:00 | |
| HSKMA3-T | 2026-09-02 11:23:38 | 52.52023 | 8.31000 | 152° | 31km/h | 14843m | -10.6m/s | -50.6°C | 0% | 128.8hPa | 2.5V | 08:15:08 | 01:46:32 | 00:00:00 | |
| DL3AQ-11 | 2026-09-02 11:23:38 | 52.52028 | 8.30994 | 122° | 18km/h | 14853m | -8.7m/s | -50.6°C | 1.0% | 128.6hPa | 2.5V | 00:00:00 | 00:00:00 | 00:00:00 | |
| DJ2DS-15 | 2026-09-02 11:23:37 | 52.52028 | 8.30994 | 123° | 51km/h | 14853m | -8.7m/s | -50.6°C | 3.2% | 128.6hPa | 2.5V | 00:00:00 | 01:46:31 | 00:00:00 | |
| DM0DOS-11 | 2026-09-02 11:23:36 | 52.52045 | 8.30868 | 125° | 68km/h | 14903m | -8.7m/s | -50.9°C | 3.4% | 127.7hPa | 2.5V | 08:14:58 | 01:46:25 | 00:00:00 | |
| DO2JMG | 2026-09-02 11:23:33 | 52.52031 | 8.30921 | 103° | 69km/h | 14886m | -9.4m/s | -50.8°C | 0% | 128hPa | 2.5V | 08:15:08 | 01:46:27 | 00:00:00 | |
| DL1XH-west | 2026-09-02 11:23:30 | 52.52055 | 8.30848 | 136° | 58km/h | 14911m | -8.7m/s | -50.9°C | 0.1% | 127.5hPa | 2.7V | 08:15:08 | 01:46:24 | 00:00:00 | |
| DL1XH1-15 | 2026-09-02 11:23:30 | 52.52065 | 8.30834 | 139° | 42km/h | 14920m | -8.9m/s | -51°C | 3.4% | 127.4hPa | 2.6V | 08:15:00 | 01:46:23 | 00:00:00 | |
| HSKMA3-T | 2026-09-02 11:23:27 | 52.52074 | 8.30814 | 101° | 27km/h | 14938m | -10.6m/s | -51.1°C | 0% | 127.1hPa | 2.5V | 08:15:08 | 01:46:21 | 00:00:00 | |
| DD1CC8 | 2026-09-02 11:23:27 | 52.52074 | 8.30801 | 80° | 38km/h | 14948m | -9.6m/s | -51.1°C | 1.0% | 126.8hPa | 2.5V | 00:00:00 | 00:00:00 | 00:00:00 | |
| DM0DOS-11 | 2026-09-02 11:23:26 | 52.52084 | 8.30673 | 122° | 68km/h | 14986m | -7.1m/s | -51.2°C | 3.5% | 126.1hPa | 2.5V | 08:15:08 | 01:46:15 | 00:00:00 | |
| BIOWL1-15 | 2026-09-02 11:23:25 | 52.52085 | 8.30673 | 122° | 68km/h | 14986m | -7.1m/s | -51.2°C | 0.1% | 126.1hPa | 2.5V | 08:15:08 | 01:46:15 | 00:00:00 | |
| AA1-15 | 2026-09-02 11:23:23 | 52.52077 | 8.30699 | 111° | 75km/h | 14980m | -6.7m/s | -51.2°C | 0.1% | 126.2hPa | 2.5V | 08:15:08 | 01:46:16 | 00:00:00 | |
| DO2JMG | 2026-09-02 11:23:23 | 52.52072 | 8.30729 | 98° | 73km/h | 14974m | -6.6m/s | -51.2°C | 0.1% | 126.3hPa | 2.6V | 08:15:08 | 01:46:17 | 00:00:00 | |
| DL1XH1-15 | 2026-09-02 11:23:22 | 52.52102 | 8.30637 | 129° | 38km/h | 15002m | -10.1m/s | -51.1°C | 3.4% | 125.8hPa | 2.7V | 08:15:10 | 01:46:13 | 00:00:00 | |
| DL1XH-15 | 2026-09-02 11:23:22 | 52.52103 | 8.30595 | 71° | 51km/h | 15027m | -7.3m/s | -51.1°C | 3.4% | 125.3hPa | 2.5V | 08:15:13 | 01:46:10 | 00:00:00 | |
| DL1XH-west | 2026-09-02 11:23:20 | 52.52102 | 8.30637 | 130° | 38km/h | 15002m | -10.1m/s | -51.1°C | 0.1% | 125.8hPa | 2.7V | 08:15:59 | 01:46:13 | 00:00:00 | |
| HSKMA3-T | 2026-09-02 11:23:17 | 52.52106 | 8.30612 | 76° | 35km/h | 15020m | -7.1m/s | -51.1°C | 0.1% | 125.5hPa | 2.6V | 08:15:59 | 01:46:11 | 00:00:00 | |
| DO2JMG | 2026-09-02 11:23:12 | 52.52105 | 8.30479 | 114° | 78km/h | 15055m | -9.3m/s | -50.9°C | 0.1% | 124.7hPa | 2.6V | 08:15:59 | 01:46:06 | 00:00:00 | |
| AA1-15 | 2026-09-02 11:23:12 | 52.52114 | 8.30453 | 124° | 68km/h | 15064m | -9.6m/s | -50.9°C | 0% | 124.7hPa | 2.5V | 08:15:59 | 01:46:05 | 00:00:00 | |
| GOEST3-10 | 2026-09-02 11:23:11 | 52.52114 | 8.30453 | 124° | 42km/h | 15064m | -9.5m/s | -50.9°C | 3.3% | 124.6hPa | 2.5V | 00:00:00 | 00:00:00 | 00:00:00 | |
| DL1XH1-15 | 2026-09-02 11:23:10 | 52.52131 | 8.30419 | 133° | 38km/h | 15081m | -10.2m/s | -51°C | 3.3% | 124.2hPa | 2.5V | 08:15:20 | 01:46:03 | 00:00:00 | |
| DL1XH-west | 2026-09-02 11:23:09 | 52.52130 | 8.30419 | 134° | 38km/h | 15081m | -10.2m/s | -51°C | 0% | 124.2hPa | 2.5V | 08:15:59 | 01:46:03 | 00:00:00 | |
| DM0DOS-11 | 2026-09-02 11:23:06 | 52.52143 | 8.30256 | 124° | 62km/h | 15143m | -8.5m/s | -50.9°C | 3.4% | 123hPa | 2.7V | 08:15:28 | 01:45:55 | 00:00:00 | |
| HSKMA3-T | 2026-09-02 11:23:06 | 52.52134 | 8.30385 | 74° | 42km/h | 15108m | -8.8m/s | -51.2°C | 0% | 123.7hPa | 2.6V | 08:15:59 | 01:46:00 | 00:00:00 | |
| DJ2DS-15 | 2026-09-02 11:23:06 | 52.52131 | 8.30366 | 78° | 57km/h | 15115m | -8.0m/s | -51.2°C | 1.0% | 123.4hPa | 2.6V | 00:00:00 | 00:00:00 | 00:00:00 | |
| DO3DL | 2026-09-02 11:23:04 | 52.52131 | 8.30366 | 79° | 58km/h | 15116m | -8.0m/s | -51.2°C | 1.0% | 123.4hPa | 2.6V | 08:15:00 | 00:00:00 | 00:00:00 | |
| DL1XH1-15 | 2026-09-02 11:23:02 | 52.52159 | 8.30224 | 129° | 35km/h | 15161m | -10.3m/s | -50.9°C | 3.3% | 122.7hPa | 2.6V | 08:15:30 | 01:45:53 | 00:00:00 | |
| DO2JMG | 2026-09-02 11:23:02 | 52.52136 | 8.30281 | 113° | 73km/h | 15136m | -8m/s | -51°C | 0.1% | 123.2hPa | 2.5V | 08:15:59 | 01:45:56 | 00:00:00 | |
| AA1-15 | 2026-09-02 11:23:01 | 52.52152 | 8.30237 | 133° | 49km/h | 15151m | -9.7m/s | -50.9°C | 0% | 122.8hPa | 2.7V | 08:15:59 | 01:45:54 | 00:00:00 | |
| DL1XH-west | 2026-09-02 11:22:59 | 52.52162 | 8.30213 | 102° | 24km/h | 15171m | -10.8m/s | -50.9°C | 0.1% | 122.5hPa | 2.5V | 08:15:59 | 01:45:52 | 00:00:00 | |
| EDDB2-12 | 2026-09-02 11:22:58 | 52.52162 | 8.30201 | 77° | 33km/h | 15181m | -9.8m/s | -50.9°C | 1.0% | 122.4hPa | 2.5V | 00:00:00 | 00:00:00 | 00:00:00 | |
| DJ2DS-15 | 2026-09-02 11:22:57 | 52.52162 | 8.30201 | 78° | 57km/h | 15181m | -9.8m/s | -50.9°C | 3.3% | 122.3hPa | 2.5V | 00:00:00 | 01:45:51 | 00:00:00 | |
| DM0DOS-11 | 2026-09-02 11:22:56 | 52.52163 | 8.30042 | 118° | 71km/h | 15229m | -8.2m/s | -51.1°C | 3.3% | 121.3hPa | 2.6V | 08:15:38 | 01:45:45 | 00:00:00 | |
| HSKMA3-T | 2026-09-02 11:22:56 | 52.52156 | 8.30163 | 76° | 64km/h | 15199m | -9m/s | -51°C | 0% | 122hPa | 2.7V | 08:15:59 | 01:45:49 | 00:00:00 | |
| SONCRA | 2026-09-02 11:22:55 | 52.52156 | 8.30163 | 75° | 64km/h | 15199m | -9.0m/s | -51.0°C | 1.0% | 122.0hPa | 2.5V | 00:00:00 | 00:00:00 | 00:00:00 | |
| BIOWL1-15 | 2026-09-02 11:22:53 | 52.52182 | 8.29842 | 115° | 75km/h | 15304m | -8.3m/s | -50.9°C | 0% | 120hPa | 2.5V | 08:15:59 | 01:45:36 | 00:00:00 | |
| DO2JMG | 2026-09-02 11:22:51 | 52.52163 | 8.30042 | 119° | 71km/h | 15229m | -8.2m/s | -51.1°C | 0% | 121.3hPa | 2.6V | 08:15:59 | 01:45:45 | 00:00:00 | |
| DL1XH1-15 | 2026-09-02 11:22:51 | 52.52179 | 8.30001 | 125° | 40km/h | 15245m | -9.4m/s | -51°C | 3.3% | 121.1hPa | 2.7V | 08:15:40 | 01:45:43 | 00:00:00 | |
| AA1-15 | 2026-09-02 11:22:51 | 52.52171 | 8.30018 | 124° | 58km/h | 15237m | -7.7m/s | -51.1°C | 0% | 121.2hPa | 2.7V | 08:15:59 | 01:45:44 | 00:00:00 | |
| DL1XH-west | 2026-09-02 11:22:48 | 52.52182 | 8.29989 | 100° | 29km/h | 15254m | -9m/s | -51°C | 0% | 121hPa | 2.7V | 08:15:59 | 01:45:42 | 00:00:00 | |
| DL8DAS-14 | 2026-09-02 11:22:48 | 52.52182 | 8.29989 | 100° | 29km/h | 15254m | -9.0m/s | -51.0°C | 1.0% | 121.0hPa | 2.5V | 00:00:00 | 00:00:00 | 00:00:00 | |
| DM0DOS-11 | 2026-09-02 11:22:47 | 52.52190 | 8.29817 | 125° | 62km/h | 15311m | -8.1m/s | -50.9°C | 3.3% | 119.8hPa | 2.5V | 08:15:48 | 01:45:35 | 00:00:00 | |
| HSKMA3-T | 2026-09-02 11:22:44 | 52.52174 | 8.29903 | 91° | 78km/h | 15288m | -8.9m/s | -50.8°C | 0% | 120.4hPa | 2.7V | 08:15:59 | 01:45:38 | 00:00:00 | |
| BIOWL1-15 | 2026-09-02 11:22:44 | 52.52199 | 8.29800 | 130° | 46km/h | 15319m | -8.3m/s | -51°C | 0.1% | 119.7hPa | 2.6V | 08:15:59 | 01:45:34 | 00:00:00 | |
| DO2JMG | 2026-09-02 11:22:41 | 52.52190 | 8.29817 | 125° | 62km/h | 15311m | -8.1m/s | -50.9°C | 0% | 119.9hPa | 2.5V | 08:15:59 | 01:45:35 | 00:00:00 | |
| DL1XH-15 | 2026-09-02 11:22:41 | 52.52205 | 8.29764 | 71° | 40km/h | 15340m | -7.8m/s | -51.1°C | 3.3% | 119.3hPa | 2.7V | 08:15:52 | 01:45:31 | 00:00:00 | |
| AA1-15 | 2026-09-02 11:22:39 | 52.52205 | 8.29787 | 119° | 31km/h | 15327m | -7.7m/s | -51°C | 0% | 119.5hPa | 2.7V | 08:15:59 | 01:45:33 | 00:00:00 | |
| DL1XH-west | 2026-09-02 11:22:37 | 52.52204 | 8.29764 | 71° | 40km/h | 15341m | -7.8m/s | -51.1°C | 0% | 119.3hPa | 2.7V | 08:15:59 | 01:45:31 | 00:00:00 | |
| HSKMA3-T | 2026-09-02 11:22:34 | 52.52201 | 8.29692 | 103° | 77km/h | 15363m | -9.6m/s | -51.3°C | 0.1% | 118.9hPa | 2.5V | 08:15:59 | 01:45:28 | 00:00:00 | |
| BIOWL1-15 | 2026-09-02 11:22:33 | 52.52225 | 8.29621 | 137° | 53km/h | 15387m | -9.9m/s | -51.4°C | 0.2% | 118.5hPa | 2.5V | 08:15:59 | 01:45:25 | 00:00:00 | |
| DL1XH1-15 | 2026-09-02 11:22:31 | 52.52239 | 8.29599 | 124° | 24km/h | 15405m | -10.3m/s | -51.4°C | 3.4% | 118.1hPa | 2.6V | 08:16:00 | 01:45:23 | 00:00:00 | |
| DO2JMG | 2026-09-02 11:22:30 | 52.52234 | 8.29608 | 139° | 37km/h | 15396m | -10.2m/s | -51.4°C | 0.1% | 118.2hPa | 2.5V | 08:15:59 | 01:45:24 | 00:00:00 | |
| AA1-15 | 2026-09-02 11:22:28 | 52.52240 | 8.29590 | 89° | 29km/h | 15415m | -9.5m/s | -51.4°C | 0.1% | 117.9hPa | 2.7V | 08:16:50 | 01:45:22 | 00:00:00 | |
| DL1XH-west | 2026-09-02 11:22:26 | 52.52236 | 8.29554 | 82° | 62km/h | 15432m | -8.3m/s | -51.3°C | 0.1% | 117.6hPa | 2.7V | 08:16:50 | 01:45:20 | 00:00:00 | |
| DM0DOS-11 | 2026-09-02 11:22:26 | 52.52261 | 8.29430 | 136° | 42km/h | 15474m | -10m/s | -51.3°C | 3.4% | 116.9hPa | 2.7V | 08:16:08 | 01:45:15 | 00:00:00 | |
| DB0DAN | 2026-09-02 11:22:25 | 52.52235 | 8.29526 | 95° | 69km/h | 15439m | -8.8m/s | -51.3°C | 1% | 117.49hPa | 2.5V | 00:00:00 | 00:00:00 | 00:00:00 | |
| HSKMA3-T | 2026-09-02 11:22:23 | 52.52245 | 8.29468 | 120° | 73km/h | 15455m | -10.3m/s | -51.3°C | 0.1% | 117.2hPa | 2.5V | 08:16:50 | 01:45:17 | 00:00:00 | |
| DF5WG-10 | 2026-09-02 11:22:23 | 52.52245 | 8.29468 | 120° | 60km/h | 15455m | -10.3m/s | -51.2°C | 3.4% | 117.2hPa | 2.5V | 00:00:00 | 01:45:17 | 00:00:00 | |
| DL1XH1-15 | 2026-09-02 11:22:22 | 52.52270 | 8.29411 | 90° | 24km/h | 15495m | -9.8m/s | -51.4°C | 3.3% | 116.5hPa | 2.5V | 08:16:10 | 01:45:13 | 00:00:00 | |
| BIOWL1-15 | 2026-09-02 11:22:21 | 52.52268 | 8.29420 | 128° | 26km/h | 15484m | -10.4m/s | -51.4°C | 0.1% | 116.8hPa | 2.5V | 08:16:50 | 01:45:14 | 00:00:00 | |
| DO2JMG | 2026-09-02 11:22:19 | 52.52270 | 8.29411 | 90° | 24km/h | 15495m | -9.8m/s | -51.4°C | 0.1% | 116.5hPa | 2.5V | 08:16:50 | 01:45:13 | 00:00:00 | |
| DL1XH-15 | 2026-09-02 11:22:19 | 52.52264 | 8.29384 | 69° | 51km/h | 15513m | -8.3m/s | -51.4°C | 3.3% | 116.2hPa | 2.7V | 08:16:12 | 01:45:11 | 00:00:00 | |
| AA1-15 | 2026-09-02 11:22:18 | 52.52264 | 8.29384 | 69° | 51km/h | 15513m | -8.3m/s | -51.4°C | 0% | 116.2hPa | 2.7V | 08:16:50 | 01:45:11 | 00:00:00 | |
| DM0DOS-11 | 2026-09-02 11:22:17 | 52.52281 | 8.29239 | 128° | 37km/h | 15565m | -9.5m/s | -51.3°C | 3.3% | 115.4hPa | 2.7V | 08:16:18 | 01:45:05 | 00:00:00 | |
| DL1XH-west | 2026-09-02 11:22:15 | 52.52259 | 8.29333 | 93° | 75km/h | 15529m | -9.5m/s | -51.3°C | 0% | 116hPa | 2.7V | 08:16:50 | 01:45:09 | 00:00:00 | |
| HSKMA3-T | 2026-09-02 11:22:12 | 52.52274 | 8.29254 | 126° | 53km/h | 15555m | -9.7m/s | -51.2°C | 0.1% | 115.5hPa | 2.5V | 08:16:50 | 01:45:06 | 00:00:00 | |
| BIOWL1-15 | 2026-09-02 11:22:11 | 52.52281 | 8.29239 | 129° | 37km/h | 15565m | -9.5m/s | -51.3°C | 0% | 115.4hPa | 2.7V | 08:16:50 | 01:45:05 | 00:00:00 | |
| DD8BA-10 | 2026-09-02 11:22:11 | 52.52281 | 8.29239 | 129° | 55km/h | 15565m | -9.4m/s | -51.2°C | 3.3% | 115.3hPa | 2.5V | 00:00:00 | 00:00:00 | 00:00:00 | |
| DL1XH1-15 | 2026-09-02 11:22:10 | 52.52285 | 8.29218 | 74° | 31km/h | 15584m | -9.4m/s | -51.4°C | 3.4% | 115hPa | 2.5V | 08:16:20 | 01:45:03 | 00:00:00 | |
| DB0DAN | 2026-09-02 11:22:10 | 52.52285 | 8.29228 | 107° | 24km/h | 15574m | -9.6m/s | -51.4°C | 1% | 115.24hPa | 2.7V | 00:00:00 | 00:00:00 | 00:00:00 | |
| DO2JMG | 2026-09-02 11:22:08 | 52.52282 | 8.29203 | 68° | 49km/h | 15593m | -8.6m/s | -51.5°C | 0% | 114.9hPa | 2.5V | 08:16:50 | 01:45:02 | 00:00:00 | |
| AA1-15 | 2026-09-02 11:22:07 | 52.52278 | 8.29181 | 76° | 66km/h | 15601m | -9m/s | -51.5°C | 0% | 114.7hPa | 2.6V | 08:16:50 | 01:45:01 | 00:00:00 | |
| DL1XH-west | 2026-09-02 11:22:04 | 52.52282 | 8.29091 | 112° | 75km/h | 15628m | -9.6m/s | -51.6°C | 0.1% | 114.4hPa | 2.7V | 08:16:50 | 01:44:58 | 00:00:00 | |
| HSKMA3-T | 2026-09-02 11:22:02 | 52.52297 | 8.29045 | 124° | 46km/h | 15649m | -8.3m/s | -51.6°C | 0.1% | 114hPa | 2.5V | 08:16:50 | 01:44:56 | 00:00:00 | |
| BIOWL1-15 | 2026-09-02 11:22:01 | 52.52299 | 8.29006 | 59° | 46km/h | 15674m | -7.9m/s | -51.8°C | 0.1% | 113.6hPa | 2.6V | 08:16:50 | 01:44:53 | 00:00:00 | |
| DD8BA-10 | 2026-09-02 11:22:01 | 52.52302 | 8.29031 | 109° | 57km/h | 15657m | -8.3m/s | -51.6°C | 3.4% | 113.8hPa | 2.5V | 08:16:00 | 00:00:00 | 00:00:00 | |
| DL1XH-15 | 2026-09-02 11:21:59 | 52.52288 | 8.28960 | 77° | 73km/h | 15692m | -8.8m/s | -52°C | 3.5% | 113.3hPa | 2.5V | 08:16:32 | 01:44:51 | 00:00:00 | |
| DO2JMG | 2026-09-02 11:21:59 | 52.52293 | 8.28986 | 66° | 62km/h | 15683m | -8.7m/s | -51.9°C | 0.1% | 113.5hPa | 2.5V | 08:16:50 | 01:44:52 | 00:00:00 | |
| AA1-15 | 2026-09-02 11:21:58 | 52.52286 | 8.28930 | 90° | 78km/h | 15701m | -9.1m/s | -52°C | 0.1% | 113.1hPa | 2.6V | 08:16:50 | 01:44:50 | 00:00:00 | |
| EDDB2-12 | 2026-09-02 11:21:56 | 52.52289 | 8.28898 | 105° | 75km/h | 15710m | -8.6m/s | -51.9°C | 1.1% | 112.9hPa | 2.7V | 00:00:00 | 00:00:00 | 00:00:00 | |
| DB0DAN | 2026-09-02 11:21:55 | 52.52289 | 8.28898 | 105° | 73km/h | 15710m | -8.6m/s | -51.9°C | 1.1% | 112.92hPa | 2.7V | 00:00:00 | 00:00:00 | 00:00:00 | |
| DL1XH-west | 2026-09-02 11:21:54 | 52.52295 | 8.28870 | 115° | 66km/h | 15719m | -8.1m/s | -51.9°C | 0.2% | 112.7hPa | 2.7V | 08:16:50 | 01:44:48 | 00:00:00 | |
| DD1CC8 | 2026-09-02 11:21:54 | 52.52302 | 8.28847 | 122° | 55km/h | 15728m | -8.3m/s | -51.9°C | 1.1% | 112.6hPa | 2.5V | 00:00:00 | 00:00:00 | 00:00:00 | |
| SONCRA | 2026-09-02 11:21:53 | 52.52302 | 8.28847 | 122° | 55km/h | 15728m | -8.3m/s | -51.9°C | 1.1% | 112.6hPa | 2.5V | 00:00:00 | 00:00:00 | 00:00:00 | |
| DL1XH-15 | 2026-09-02 11:21:52 | 52.52301 | 8.28724 | 93° | 84km/h | 15785m | -8.4m/s | -51.8°C | 3.4% | 111.7hPa | 2.5V | 08:16:42 | 01:44:41 | 00:00:00 | |
| HSKMA3-T | 2026-09-02 11:21:51 | 52.52311 | 8.28819 | 93° | 27km/h | 15746m | -9.2m/s | -52°C | 0.2% | 112.4hPa | 2.5V | 08:16:50 | 01:44:45 | 00:00:00 | |
| GOEST3-10 | 2026-09-02 11:21:51 | 52.52311 | 8.28819 | 93° | 58km/h | 15746m | -9.2m/s | -51.9°C | 3.5% | 112.4hPa | 2.7V | 00:00:00 | 00:00:00 | 00:00:00 | |
| DL1XH1-15 | 2026-09-02 11:21:50 | 52.52306 | 8.28785 | 72° | 60km/h | 15766m | -9.8m/s | -51.9°C | 3.4% | 112.1hPa | 2.7V | 08:16:40 | 01:44:43 | 00:00:00 | |
| DO2JMG | 2026-09-02 11:21:47 | 52.52302 | 8.28724 | 94° | 84km/h | 15785m | -8.4m/s | -51.8°C | 0.1% | 111.7hPa | 2.5V | 08:16:50 | 01:44:41 | 00:00:00 | |
| DM0DOS-11 | 2026-09-02 11:21:47 | 52.52342 | 8.28587 | 92° | 31km/h | 15845m | -9m/s | -51.9°C | 3.6% | 110.9hPa | 2.5V | 08:16:48 | 01:44:35 | 00:00:00 | |
| AA1-15 | 2026-09-02 11:21:46 | 52.52313 | 8.28658 | 119° | 80km/h | 15803m | -9.7m/s | -51.9°C | 0.1% | 111.5hPa | 2.6V | 08:16:50 | 01:44:39 | 00:00:00 | |
| BIOWL9-15 | 2026-09-02 11:21:45 | 52.52313 | 8.28658 | 119° | 78km/h | 15803m | -9.7m/s | -51.9°C | 1.1% | 111.5hPa | 2.7V | 00:00:00 | 00:00:00 | 00:00:00 | |
| DL1XH-west | 2026-09-02 11:21:44 | 52.52333 | 8.28614 | 133° | 51km/h | 15824m | -10m/s | -52°C | 0.2% | 111.2hPa | 2.7V | 08:16:50 | 01:44:37 | 00:00:00 | |
| SMARD9-15 | 2026-09-02 11:21:43 | 52.52340 | 8.28600 | 123° | 35km/h | 15835m | -9.8m/s | -52.0°C | 1.1% | 111.1hPa | 2.5V | 00:00:00 | 00:00:00 | 00:00:00 | |
| DL1XH1-15 | 2026-09-02 11:21:42 | 52.52339 | 8.28548 | 80° | 64km/h | 15863m | -8.6m/s | -51.7°C | 3.5% | 110.6hPa | 2.5V | 08:16:50 | 01:44:33 | 00:00:00 | |
| HSKMA3-T | 2026-09-02 11:21:40 | 52.52341 | 8.28571 | 78° | 47km/h | 15854m | -8.8m/s | -51.7°C | 0.1% | 110.8hPa | 2.5V | 08:16:50 | 01:44:34 | 00:00:00 | |
| DB0DAN | 2026-09-02 11:21:40 | 52.52341 | 8.28571 | 78° | 46km/h | 15854m | -8.8m/s | -51.7°C | 1% | 110.78hPa | 2.5V | 00:00:00 | 00:00:00 | 00:00:00 | |
| BIOWL1-15 | 2026-09-02 11:21:39 | 52.52339 | 8.28548 | 80° | 64km/h | 15863m | -8.6m/s | -51.7°C | 0.1% | 110.6hPa | 2.5V | 08:16:50 | 01:44:33 | 00:00:00 | |
| DL1XH-15 | 2026-09-02 11:21:38 | 52.52338 | 8.28484 | 98° | 88km/h | 15881m | -9.1m/s | -51.6°C | 3.5% | 110.3hPa | 2.7V | 08:16:52 | 01:44:31 | 00:00:00 | |
| DM0DOS-11 | 2026-09-02 11:21:37 | 52.52382 | 8.28339 | 89° | 44km/h | 15933m | -8.1m/s | -51.8°C | 3.5% | 109.4hPa | 2.7V | 08:16:58 | 01:44:25 | 00:00:00 | |
| DO2JMG | 2026-09-02 11:21:36 | 52.52344 | 8.28448 | 110° | 88km/h | 15891m | -8.8m/s | -51.7°C | 0.1% | 110.2hPa | 2.5V | 08:17:41 | 01:44:30 | 00:00:00 | |
| AA1-15 | 2026-09-02 11:21:35 | 52.52353 | 8.28416 | 120° | 84km/h | 15900m | -8.3m/s | -51.6°C | 0.2% | 110.1hPa | 2.5V | 08:17:41 | 01:44:29 | 00:00:00 | |
| DL1XH-west | 2026-09-02 11:21:33 | 52.52380 | 8.28355 | 118° | 38km/h | 15924m | -8.2m/s | -51.7°C | 0.2% | 109.7hPa | 2.7V | 08:17:41 | 01:44:26 | 00:00:00 | |
| HSKMA3-T | 2026-09-02 11:21:29 | 52.52382 | 8.28288 | 93° | 77km/h | 15950m | -8.6m/s | -51.7°C | 0.1% | 109.2hPa | 2.5V | 08:17:41 | 01:44:23 | 00:00:00 | |
| DO2JMG | 2026-09-02 11:21:26 | 52.52404 | 8.28188 | 128° | 86km/h | 15976m | -9.3m/s | -51.4°C | 0.1% | 108.8hPa | 2.7V | 08:17:41 | 01:44:20 | 00:00:00 | |
| AA1-15 | 2026-09-02 11:21:25 | 52.52430 | 8.28146 | 141° | 57km/h | 15994m | -7.5m/s | -51.3°C | 0.2% | 108.5hPa | 2.5V | 08:17:41 | 01:44:18 | 00:00:00 | |
| DB0DAN | 2026-09-02 11:21:25 | 52.52417 | 8.28164 | 138° | 69km/h | 15986m | -8.6m/s | -51.4°C | 1% | 108.62hPa | 2.5V | 00:00:00 | 00:00:00 | 00:00:00 | |
| DL8DAS-15 | 2026-09-02 11:21:25 | 52.52417 | 8.28164 | 139° | 73km/h | 15986m | -8.6m/s | 0°C | 0% | 0hPa | 2.5V | 00:00:00 | 00:00:00 | 00:00:00 | |
| D01LWL | 2026-09-02 11:21:24 | 52.52430 | 8.28146 | 141° | 57km/h | 15994m | -7.5m/s | -51.3°C | 1.0% | 108.5hPa | 2.5V | 00:00:00 | 00:00:00 | 00:00:00 | |
| DD1CC8 | 2026-09-02 11:21:23 | 52.52444 | 8.28120 | 112° | 35km/h | 16010m | -8.7m/s | -51.1°C | 1.0% | 108.2hPa | 2.5V | 00:00:00 | 00:00:00 | 00:00:00 | |
| DL1XH1-15 | 2026-09-02 11:21:22 | 52.52449 | 8.28050 | 105° | 78km/h | 16035m | -9.3m/s | -51.1°C | 3.4% | 107.8hPa | 2.5V | 08:17:10 | 01:44:13 | 00:00:00 | |
| DL1XH-west | 2026-09-02 11:21:22 | 52.52444 | 8.28120 | 112° | 35km/h | 16010m | -8.7m/s | -51.1°C | 0% | 108.2hPa | 2.7V | 08:17:41 | 01:44:16 | 00:00:00 | |
| HSKMA3-T | 2026-09-02 11:21:18 | 52.52457 | 8.28020 | 119° | 82km/h | 16044m | -7.4m/s | -51.2°C | 0% | 107.7hPa | 2.5V | 08:17:41 | 01:44:12 | 00:00:00 | |
| BIOWL1-15 | 2026-09-02 11:21:17 | 52.52468 | 8.27993 | 130° | 77km/h | 16053m | -8.3m/s | -51.2°C | 0.1% | 107.5hPa | 2.6V | 08:17:41 | 01:44:11 | 00:00:00 | |
| DO2JMG | 2026-09-02 11:21:16 | 52.52481 | 8.27972 | 141° | 64km/h | 16061m | -7.9m/s | -51.2°C | 0.1% | 107.3hPa | 2.7V | 08:17:41 | 01:44:10 | 00:00:00 | |
| AA1-15 | 2026-09-02 11:21:14 | 52.52503 | 8.27940 | 105° | 31km/h | 16088m | -9.6m/s | -51.3°C | 0.1% | 106.8hPa | 2.5V | 08:17:41 | 01:44:07 | 00:00:00 | |
| DL1XH-west | 2026-09-02 11:21:11 | 52.52505 | 8.27901 | 93° | 64km/h | 16105m | -8m/s | -51.3°C | 0.2% | 106.6hPa | 2.7V | 08:17:41 | 01:44:05 | 00:00:00 | |
| DB0DAN | 2026-09-02 11:21:10 | 52.52507 | 8.27872 | 102° | 73km/h | 16114m | -8.6m/s | -51.2°C | 1% | 106.52hPa | 2.7V | 00:00:00 | 00:00:00 | 00:00:00 | |
| HSKMA3-T | 2026-09-02 11:21:07 | 52.52538 | 8.27794 | 143° | 69km/h | 16140m | -8.6m/s | -50.8°C | 0.1% | 106hPa | 2.5V | 08:17:41 | 01:44:01 | 00:00:00 | |
| BIOWL1-15 | 2026-09-02 11:21:07 | 52.52602 | 8.27631 | 147° | 64km/h | 16217m | -8.8m/s | -50.6°C | 0% | 104.8hPa | 2.7V | 08:17:41 | 01:43:52 | 00:00:00 | |
| DM0DOS-11 | 2026-09-02 11:21:07 | 52.52571 | 8.27701 | 104° | 69km/h | 16192m | -8.5m/s | -50.8°C | 3.3% | 105.2hPa | 2.6V | 08:17:28 | 01:43:55 | 00:00:00 | |
| DO2JMG | 2026-09-02 11:21:05 | 52.52561 | 8.27771 | 148° | 37km/h | 16158m | -7.6m/s | -50.9°C | 0.1% | 105.8hPa | 2.7V | 08:17:41 | 01:43:59 | 00:00:00 | |
| AA1-15 | 2026-09-02 11:21:05 | 52.52567 | 8.27762 | 117° | 29km/h | 16166m | -7.9m/s | -50.8°C | 0% | 105.5hPa | 2.7V | 08:17:41 | 01:43:58 | 00:00:00 | |
| DL1XH1-15 | 2026-09-02 11:21:04 | 52.52589 | 8.27649 | 134° | 73km/h | 16208m | -8.5m/s | -50.7°C | 3.4% | 105hPa | 2.7V | 08:17:30 | 01:43:53 | 00:00:00 | |
| DL1XH-west | 2026-09-02 11:21:01 | 52.52571 | 8.27701 | 104° | 69km/h | 16192m | -8.5m/s | -50.8°C | 0% | 105.2hPa | 2.6V | 08:17:41 | 01:43:55 | 00:00:00 | |
| GOEST3-10 | 2026-09-02 11:21:01 | 52.52571 | 8.27701 | 105° | 66km/h | 16192m | -8.5m/s | -50.7°C | 3.3% | 105.2hPa | 2.6V | 08:17:00 | 00:00:00 | 00:00:00 | |
| DD8BA-10 | 2026-09-02 11:21:00 | 52.52578 | 8.27673 | 118° | 57km/h | 16200m | -7.1m/s | -50.7°C | 3.3% | 105.0hPa | 2.7V | 00:00:00 | 00:00:00 | 00:00:00 | |
| DL4BBY-15 | 2026-09-02 11:20:59 | 52.52589 | 8.27649 | 135° | 46km/h | 16209m | -8.5m/s | -51.5°C | 0% | 0hPa | 2.5V | 00:00:00 | 00:00:00 | 00:00:00 | |
| DL1XH-15 | 2026-09-02 11:20:58 | 52.52614 | 8.27621 | 156° | 47km/h | 16226m | -8m/s | -50.5°C | 3.3% | 104.7hPa | 2.5V | 08:17:32 | 01:43:51 | 00:00:00 | |
| HSKMA3-T | 2026-09-02 11:20:57 | 52.52614 | 8.27621 | 157° | 47km/h | 16226m | -8m/s | -50.5°C | 0.1% | 104.7hPa | 2.5V | 08:17:41 | 01:43:51 | 00:00:00 | |
| DO2JMG | 2026-09-02 11:20:55 | 52.52627 | 8.27608 | 116° | 22km/h | 16244m | -8.3m/s | -50.4°C | 0% | 104.3hPa | 2.6V | 08:17:41 | 01:43:49 | 00:00:00 | |
| BIOWL1-15 | 2026-09-02 11:20:54 | 52.52628 | 8.27596 | 90° | 38km/h | 16252m | -7.8m/s | -50.4°C | 0% | 104.2hPa | 2.7V | 08:17:41 | 01:43:48 | 00:00:00 | |
| AA1-15 | 2026-09-02 11:20:54 | 52.52629 | 8.27577 | 95° | 55km/h | 16261m | -8m/s | -50.4°C | 0% | 104.2hPa | 2.7V | 08:17:41 | 01:43:47 | 00:00:00 | |
| DL1XH-15 | 2026-09-02 11:20:53 | 52.52681 | 8.27481 | 162° | 22km/h | 16316m | -7.9m/s | -50.5°C | 3.1% | 103.2hPa | 2.7V | 08:17:42 | 01:43:41 | 00:00:00 | |
| DM0DOS-11 | 2026-09-02 11:20:52 | 52.52639 | 8.27527 | 122° | 68km/h | 16280m | -9.5m/s | -50.4°C | 3.2% | 103.9hPa | 2.6V | 08:17:38 | 01:43:45 | 00:00:00 | |
| DL1XH1-15 | 2026-09-02 11:20:52 | 52.52663 | 8.27492 | 151° | 55km/h | 16299m | -8.2m/s | -50.4°C | 3.2% | 103.5hPa | 2.7V | 08:17:40 | 01:43:43 | 00:00:00 | |
| DL1XH-west | 2026-09-02 11:20:51 | 52.52640 | 8.27527 | 123° | 68km/h | 16280m | -9.5m/s | -50.4°C | 0% | 103.9hPa | 2.6V | 08:17:41 | 01:43:45 | 00:00:00 | |
| HSKMA3-T | 2026-09-02 11:20:46 | 52.52684 | 8.27477 | 114° | 15km/h | 16324m | -9.1m/s | -50.6°C | 0% | 103.1hPa | 2.5V | 08:18:32 | 01:43:40 | 00:00:00 | |
| DO2JMG | 2026-09-02 11:20:44 | 52.52684 | 8.27451 | 90° | 47km/h | 16343m | -7.8m/s | -50.7°C | 0% | 102.8hPa | 2.6V | 08:18:32 | 01:43:38 | 00:00:00 | |
| AA1-15 | 2026-09-02 11:20:42 | 52.52692 | 8.27406 | 121° | 64km/h | 16358m | -7.4m/s | -50.8°C | 0.1% | 102.6hPa | 2.7V | 08:18:32 | 01:43:36 | 00:00:00 | |
| DM0DOS-11 | 2026-09-02 11:20:41 | 52.52702 | 8.27386 | 137° | 60km/h | 16367m | -7.6m/s | -50.8°C | 3.4% | 102.5hPa | 2.5V | 08:17:48 | 01:43:35 | 00:00:00 | |
| DL1XH1-15 | 2026-09-02 11:20:41 | 52.52723 | 8.27367 | 167° | 35km/h | 16385m | -8.9m/s | -50.9°C | 3.4% | 102.2hPa | 2.6V | 08:17:50 | 01:43:33 | 00:00:00 | |
| DL1XH-west | 2026-09-02 11:20:40 | 52.52713 | 8.27373 | 155° | 51km/h | 16375m | -8.8m/s | -50.9°C | 0.1% | 102.4hPa | 2.5V | 08:18:32 | 01:43:34 | 00:00:00 | |
| HSKMA3-T | 2026-09-02 11:20:36 | 52.52729 | 8.27354 | 70° | 31km/h | 16410m | -8.3m/s | -51°C | 0% | 101.8hPa | 2.7V | 08:18:32 | 01:43:30 | 00:00:00 | |
| DO2JMG | 2026-09-02 11:20:34 | 52.52728 | 8.27316 | 101° | 58km/h | 16428m | -9.1m/s | -51.1°C | 0.1% | 101.5hPa | 2.6V | 08:18:32 | 01:43:28 | 00:00:00 | |
| DO3DL | 2026-09-02 11:20:33 | 52.52728 | 8.27316 | 102° | 58km/h | 16428m | -9.1m/s | -51.1°C | 1.0% | 101.5hPa | 2.7V | 08:18:00 | 00:00:00 | 00:00:00 | |
| DL1XH-15 | 2026-09-02 11:20:32 | 52.52760 | 8.27241 | 68° | 38km/h | 16485m | -8.6m/s | -51.3°C | 3.4% | 100.5hPa | 2.7V | 08:18:02 | 01:43:21 | 00:00:00 | |
| AA1-15 | 2026-09-02 11:20:32 | 52.52743 | 8.27275 | 137° | 57km/h | 16447m | -8.1m/s | -51.2°C | 0.1% | 101.2hPa | 2.7V | 08:18:32 | 01:43:26 | 00:00:00 | |
| DL1XH-west | 2026-09-02 11:20:30 | 52.52760 | 8.27258 | 164° | 26km/h | 16463m | -6.7m/s | -51.3°C | 0.1% | 100.9hPa | 2.5V | 08:18:32 | 01:43:24 | 00:00:00 | |
| HSKMA3-T | 2026-09-02 11:20:26 | 52.52757 | 8.27223 | 83° | 51km/h | 16494m | -8.7m/s | -51.3°C | 0.1% | 100.4hPa | 2.7V | 08:18:32 | 01:43:20 | 00:00:00 | |
| DO2JMG | 2026-09-02 11:20:24 | 52.52762 | 8.27178 | 116° | 57km/h | 16513m | -9.6m/s | -51.2°C | 0.2% | 100.1hPa | 2.5V | 08:18:32 | 01:43:18 | 00:00:00 | |
| AA1-15 | 2026-09-02 11:20:21 | 52.52784 | 8.27146 | 167° | 18km/h | 16540m | -8.6m/s | -51°C | 0% | 99.7hPa | 2.7V | 08:18:32 | 01:43:15 | 00:00:00 | |
| DL1XH-west | 2026-09-02 11:20:19 | 52.52784 | 8.27143 | 28° | 18km/h | 16559m | -9.5m/s | -50.9°C | 0% | 99.4hPa | 2.5V | 08:18:32 | 01:43:13 | 00:00:00 | |
| DD1CC3-15 | 2026-09-02 11:20:19 | 52.52784 | 8.27143 | 29° | 18km/h | 16560m | -9.5m/s | -50.9°C | 1.0% | 99.4hPa | 2.6V | 08:18:00 | 00:00:00 | 00:00:00 | |
| DJ2DS-15 | 2026-09-02 11:20:17 | 52.52773 | 8.27121 | 69° | 40km/h | 16579m | -9.5m/s | -51.0°C | 3.3% | 99.1hPa | 2.6V | 00:00:00 | 01:43:11 | 00:00:00 | |
| DM0DOS-11 | 2026-09-02 11:20:16 | 52.52792 | 8.27037 | 74° | 5km/h | 16634m | -7.6m/s | -51.2°C | 3.3% | 98.3hPa | 2.6V | 08:18:18 | 01:43:05 | 00:00:00 | |
| HSKMA3-T | 2026-09-02 11:20:15 | 52.52772 | 8.27078 | 105° | 55km/h | 16598m | -8.4m/s | -51.1°C | 0% | 98.9hPa | 2.7V | 08:18:32 | 01:43:09 | 00:00:00 | |
| DO2JMG | 2026-09-02 11:20:13 | 52.52784 | 8.27046 | 141° | 37km/h | 16617m | -8.1m/s | -51.2°C | 0.1% | 98.6hPa | 2.5V | 08:18:32 | 01:43:07 | 00:00:00 | |
| AA1-15 | 2026-09-02 11:20:11 | 52.52790 | 8.27033 | 38° | 24km/h | 16643m | -7.7m/s | -51.2°C | 0% | 98.2hPa | 2.7V | 08:18:32 | 01:43:04 | 00:00:00 | |
| GOEST3-10 | 2026-09-02 11:20:11 | 52.52792 | 8.27037 | 75° | 38km/h | 16634m | -7.6m/s | -51.2°C | 3.3% | 98.3hPa | 2.7V | 00:00:00 | 00:00:00 | 00:00:00 | |
| DL1XH1-15 | 2026-09-02 11:20:09 | 52.52784 | 8.27023 | 55° | 46km/h | 16651m | -8.4m/s | -51.2°C | 3.2% | 98hPa | 2.7V | 08:18:20 | 01:43:03 | 00:00:00 | |
| DL1XH-west | 2026-09-02 11:20:09 | 52.52784 | 8.27023 | 56° | 46km/h | 16651m | -8.4m/s | -51.2°C | 0% | 98hPa | 2.7V | 08:18:32 | 01:43:03 | 00:00:00 | |
| SONDE2-11 | 2026-09-02 11:20:08 | 52.52778 | 8.27003 | 75° | 57km/h | 16660m | -8.8m/s | -51.2°C | 0.9% | 98.0hPa | 2.6V | 00:00:00 | 00:00:00 | 00:00:00 | |
| DM0DOS-11 | 2026-09-02 11:20:07 | 52.52801 | 8.26908 | 40° | 18km/h | 16722m | -9.5m/s | -51.1°C | 3.3% | 96.9hPa | 2.6V | 08:18:28 | 01:42:55 | 00:00:00 | |
| HSKMA3-T | 2026-09-02 11:20:05 | 52.52787 | 8.26935 | 128° | 51km/h | 16688m | -8.2m/s | -50.9°C | 0% | 97.5hPa | 2.7V | 08:18:32 | 01:42:59 | 00:00:00 | |
| DO2JMG | 2026-09-02 11:20:03 | 52.52800 | 8.26915 | 150° | 20km/h | 16705m | -7m/s | -50.9°C | 0% | 97.2hPa | 2.7V | 08:18:32 | 01:42:57 | 00:00:00 | |
| AA1-15 | 2026-09-02 11:20:01 | 52.52801 | 8.26908 | 41° | 18km/h | 16722m | -9.5m/s | -51.1°C | 0% | 96.9hPa | 2.6V | 08:18:32 | 01:42:55 | 00:00:00 | |
| DL1XH-west | 2026-09-02 11:19:59 | 52.52791 | 8.26885 | 65° | 49km/h | 16743m | -8.6m/s | -51.1°C | 0% | 96.6hPa | 2.7V | 08:18:32 | 01:42:53 | 00:00:00 | |
| DL4BBY-15 | 2026-09-02 11:19:59 | 52.52791 | 8.26884 | 66° | 44km/h | 16742m | -8.6m/s | -51.9°C | 0% | 0hPa | 2.5V | 00:00:00 | 00:00:00 | 00:00:00 | |
| DL1XH-15 | 2026-09-02 11:19:58 | 52.52788 | 8.26842 | 99° | 53km/h | 16760m | -7.4m/s | -51.1°C | 3.3% | 96.4hPa | 2.5V | 08:18:32 | 01:42:51 | 00:00:00 | |
| BIOWL1-15 | 2026-09-02 11:19:57 | 52.52788 | 8.26842 | 99° | 53km/h | 16760m | -7.4m/s | -51.1°C | 0% | 96.4hPa | 2.5V | 08:18:32 | 01:42:51 | 00:00:00 | |
| HSKMA3-T | 2026-09-02 11:19:54 | 52.52804 | 8.26805 | 153° | 15km/h | 16785m | -6.5m/s | -51.2°C | 0% | 96hPa | 2.7V | 08:19:23 | 01:42:48 | 00:00:00 | |
| DO2JMG | 2026-09-02 11:19:52 | 52.52801 | 8.26799 | 33° | 26km/h | 16801m | -9.6m/s | -51.4°C | 0% | 95.7hPa | 2.7V | 08:19:23 | 01:42:46 | 00:00:00 | |
| AA1-15 | 2026-09-02 11:19:52 | 52.52794 | 8.26789 | 45° | 42km/h | 16811m | -9.4m/s | -51.4°C | 0% | 95.6hPa | 2.6V | 08:21:56 | 01:42:45 | 00:00:00 | |
| BIOWL1-15 | 2026-09-02 11:19:49 | 52.52789 | 8.26708 | 122° | 44km/h | 16849m | -8.9m/s | -51.4°C | 0.1% | 95.1hPa | 2.7V | 08:19:23 | 01:42:41 | 00:00:00 | |
| DL1XH-west | 2026-09-02 11:19:48 | 52.52784 | 8.26727 | 102° | 55km/h | 16839m | -8.8m/s | -51.4°C | 0% | 95.2hPa | 2.7V | 08:19:23 | 01:42:42 | 00:00:00 | |
| DF8AY | 2026-09-02 11:19:47 | 52.52794 | 8.26696 | 135° | 26km/h | 16859m | -9.1m/s | -51.3°C | 0% | 95hPa | 2.5V | 08:21:56 | 01:42:40 | 00:00:00 | |
| HSKMA3-T | 2026-09-02 11:19:43 | 52.52789 | 8.26682 | 29° | 38km/h | 16887m | -7.9m/s | -51.4°C | 0% | 94.6hPa | 2.7V | 08:19:23 | 01:42:37 | 00:00:00 | |
| DO2JMG | 2026-09-02 11:19:42 | 52.52780 | 8.26670 | 46° | 55km/h | 16896m | -8.1m/s | -51.5°C | 0% | 94.5hPa | 2.7V | 08:19:23 | 01:42:36 | 00:00:00 | |
| DM0DOS-11 | 2026-09-02 11:19:41 | 52.52771 | 8.26650 | 64° | 66km/h | 16905m | -8.6m/s | -51.5°C | 3.4% | 94.3hPa | 2.7V | 08:18:48 | 01:42:35 | 00:00:00 | |
| AA1-15 | 2026-09-02 11:19:40 | 52.52766 | 8.26623 | 79° | 68km/h | 16913m | -8.2m/s | -51.6°C | 0% | 94.2hPa | 2.5V | 08:19:23 | 01:42:34 | 00:00:00 | |
| DL1XH-west | 2026-09-02 11:19:37 | 52.52772 | 8.26556 | 121° | 38km/h | 16940m | -8.2m/s | -51.7°C | 0.1% | 93.7hPa | 2.7V | 08:19:23 | 01:42:31 | 00:00:00 | |
| DM0DOS-11 | 2026-09-02 11:19:36 | 52.52750 | 8.26469 | 86° | 73km/h | 16990m | -10.2m/s | -51.4°C | 3.3% | 93hPa | 2.7V | 08:18:58 | 01:42:25 | 00:00:00 | |
| BIOWL1-15 | 2026-09-02 11:19:36 | 52.52775 | 8.26545 | 116° | 20km/h | 16948m | -7.8m/s | -51.6°C | 0.1% | 93.6hPa | 2.7V | 08:19:23 | 01:42:30 | 00:00:00 | |
| DF8AY | 2026-09-02 11:19:35 | 52.52775 | 8.26540 | 51° | 15km/h | 16956m | -6.3m/s | -51.5°C | 0.1% | 93.5hPa | 2.5V | 08:21:56 | 01:42:29 | 00:00:00 | |
| HSKMA3-T | 2026-09-02 11:19:33 | 52.52762 | 8.26519 | 51° | 55km/h | 16971m | -9m/s | -51.4°C | 0% | 93.3hPa | 2.6V | 08:19:23 | 01:42:27 | 00:00:00 | |
| DO2JMG | 2026-09-02 11:19:31 | 52.52750 | 8.26469 | 87° | 73km/h | 16990m | -10.2m/s | -51.4°C | 0% | 93hPa | 2.7V | 08:19:23 | 01:42:25 | 00:00:00 | |
| AA1-15 | 2026-09-02 11:19:29 | 52.52757 | 8.26416 | 119° | 58km/h | 17011m | -9.3m/s | -51.4°C | 0% | 92.7hPa | 2.5V | 08:19:23 | 01:42:23 | 00:00:00 | |
| DL1XH-west | 2026-09-02 11:19:27 | 52.52770 | 8.26390 | 133° | 24km/h | 17030m | -9.2m/s | -51.4°C | 0% | 92.4hPa | 2.6V | 08:19:23 | 01:42:21 | 00:00:00 | |
| BIOWL1-15 | 2026-09-02 11:19:25 | 52.52779 | 8.26124 | 115° | 68km/h | 17166m | -9.4m/s | -51.6°C | 0.1% | 90.5hPa | 2.6V | 08:19:23 | 01:42:06 | 00:00:00 | |
| HSKMA3-T | 2026-09-02 11:19:23 | 52.52761 | 8.26335 | 79° | 64km/h | 17069m | -7.3m/s | -51.4°C | 0% | 91.9hPa | 2.6V | 08:19:23 | 01:42:17 | 00:00:00 | |
| DL1XH1-15 | 2026-09-02 11:19:22 | 52.52780 | 8.26248 | 139° | 37km/h | 17102m | -7.3m/s | -51.2°C | 3.2% | 91.3hPa | 2.7V | 08:19:10 | 01:42:13 | 00:00:00 | |
| DO2JMG | 2026-09-02 11:19:21 | 52.52765 | 8.26282 | 112° | 64km/h | 17085m | -7.3m/s | -51.4°C | 0% | 91.7hPa | 2.7V | 08:19:23 | 01:42:15 | 00:00:00 | |
| DF8AY | 2026-09-02 11:19:20 | 52.52772 | 8.26261 | 130° | 57km/h | 17093m | -8.1m/s | -51.3°C | 0% | 91.5hPa | 2.7V | 08:21:56 | 01:42:14 | 00:00:00 | |
| AA1-15 | 2026-09-02 11:19:19 | 52.52785 | 8.26240 | 130° | 18km/h | 17109m | -7.4m/s | -51.2°C | 0% | 91.2hPa | 2.6V | 08:19:23 | 01:42:12 | 00:00:00 | |
| SONCRA | 2026-09-02 11:19:18 | 52.52785 | 8.26240 | 130° | 18km/h | 17109m | -7.4m/s | -51.2°C | 0.9% | 91.2hPa | 2.7V | 00:00:00 | 00:00:00 | 00:00:00 | |
| DJ2DS-15 | 2026-09-02 11:19:17 | 52.52785 | 8.26234 | 66° | 47km/h | 17117m | -9.7m/s | -51.2°C | 3.2% | 91.0hPa | 2.7V | 00:00:00 | 01:42:11 | 00:00:00 | |
| DM0DOS-11 | 2026-09-02 11:19:16 | 52.52787 | 8.26102 | 128° | 53km/h | 17177m | -9.6m/s | -51.7°C | 3.4% | 90.3hPa | 2.7V | 08:19:18 | 01:42:05 | 00:00:00 | |
| DL1XH-west | 2026-09-02 11:19:16 | 52.52782 | 8.26223 | 62° | 38km/h | 17127m | -9.7m/s | -51.3°C | 0% | 91hPa | 2.6V | 08:19:23 | 01:42:10 | 00:00:00 | |
| BIOWL1-15 | 2026-09-02 11:19:14 | 52.52794 | 8.26089 | 134° | 31km/h | 17186m | -9.5m/s | -51.8°C | 0% | 90.2hPa | 2.7V | 08:19:23 | 01:42:04 | 00:00:00 | |
| HSKMA3-T | 2026-09-02 11:19:13 | 52.52774 | 8.26151 | 99° | 71km/h | 17156m | -9.5m/s | -51.6°C | 0% | 90.7hPa | 2.6V | 08:19:23 | 01:42:07 | 00:00:00 | |
| DL1XH-15 | 2026-09-02 11:19:12 | 52.52789 | 8.26055 | 65° | 53km/h | 17212m | -9.4m/s | -52°C | 3.4% | 89.8hPa | 2.6V | 08:19:22 | 01:42:01 | 00:00:00 | |
| DO2JMG | 2026-09-02 11:19:11 | 52.52787 | 8.26102 | 129° | 53km/h | 17177m | -9.6m/s | -51.7°C | 0.1% | 90.3hPa | 2.7V | 08:19:23 | 01:42:05 | 00:00:00 | |
| DL1XH1-15 | 2026-09-02 11:19:09 | 52.52797 | 8.26081 | 101° | 18km/h | 17196m | -7.7m/s | -51.9°C | 3.4% | 90.1hPa | 2.6V | 08:19:20 | 01:42:03 | 00:00:00 | |
| AA1-15 | 2026-09-02 11:19:08 | 52.52795 | 8.26071 | 56° | 33km/h | 17204m | -6.7m/s | -51.9°C | 0.1% | 90hPa | 2.6V | 08:19:23 | 01:42:02 | 00:00:00 | |
| DL1XH-west | 2026-09-02 11:19:05 | 52.52781 | 8.26002 | 86° | 75km/h | 17232m | -9.6m/s | -52.2°C | 0.1% | 89.5hPa | 2.7V | 08:20:14 | 01:41:59 | 00:00:00 | |
| HSKMA3-T | 2026-09-02 11:19:02 | 52.52796 | 8.25926 | 131° | 44km/h | 17264m | -8.3m/s | -52.2°C | 0.1% | 89.2hPa | 2.6V | 08:20:14 | 01:41:56 | 00:00:00 | |
| DO2JMG | 2026-09-02 11:19:01 | 52.52802 | 8.25915 | 123° | 22km/h | 17273m | -7.2m/s | -52.2°C | 0.1% | 89.1hPa | 2.6V | 08:20:14 | 01:41:55 | 00:00:00 | |
| BIOWL1-15 | 2026-09-02 11:18:59 | 52.52781 | 8.25833 | 84° | 69km/h | 17319m | -9.9m/s | -52.1°C | 0.1% | 88.4hPa | 2.6V | 08:20:14 | 01:41:50 | 00:00:00 | |
| DL4BBY-15 | 2026-09-02 11:18:59 | 52.52797 | 8.25898 | 52° | 49km/h | 17289m | -9.8m/s | -53.0°C | 0% | 0hPa | 2.6V | 00:00:00 | 00:00:00 | 00:00:00 | |
| DL1XH-15 | 2026-09-02 11:18:58 | 52.52784 | 8.25861 | 68° | 66km/h | 17308m | -9.7m/s | -52.1°C | 3.5% | 88.5hPa | 2.6V | 08:19:32 | 01:41:51 | 00:00:00 | |
| AA1-15 | 2026-09-02 11:18:57 | 52.52784 | 8.25861 | 69° | 66km/h | 17308m | -9.7m/s | -52.1°C | 0.1% | 88.5hPa | 2.6V | 08:20:14 | 01:41:51 | 00:00:00 | |
| DL1XH-west | 2026-09-02 11:18:54 | 52.52787 | 8.25781 | 117° | 55km/h | 17340m | -9.7m/s | -52°C | 0.2% | 88.1hPa | 2.7V | 08:20:14 | 01:41:48 | 00:00:00 | |
| HSKMA3-T | 2026-09-02 11:18:52 | 52.52796 | 8.25758 | 114° | 16km/h | 17360m | -8.7m/s | -52.1°C | 0.1% | 87.9hPa | 2.5V | 08:20:14 | 01:41:46 | 00:00:00 | |
| DO2JMG | 2026-09-02 11:18:50 | 52.52790 | 8.25741 | 53° | 42km/h | 17376m | -8.9m/s | -52.2°C | 0.1% | 87.6hPa | 2.6V | 08:20:14 | 01:41:44 | 00:00:00 | |
| AA1-15 | 2026-09-02 11:18:46 | 52.52781 | 8.25637 | 113° | 71km/h | 17416m | -10.1m/s | -51.9°C | 0.1% | 87.1hPa | 2.6V | 08:20:14 | 01:41:40 | 00:00:00 | |
| DM0DOS-11 | 2026-09-02 11:18:46 | 52.52799 | 8.25568 | 58° | 42km/h | 17462m | -9.3m/s | -51.7°C | 3.3% | 86.5hPa | 2.6V | 08:19:48 | 01:41:35 | 00:00:00 | |
| BIOWL1-15 | 2026-09-02 11:18:45 | 52.52790 | 8.25613 | 126° | 58km/h | 17427m | -8.8m/s | -51.8°C | 0.1% | 87hPa | 2.7V | 08:20:14 | 01:41:39 | 00:00:00 | |
| DL1XH-west | 2026-09-02 11:18:43 | 52.52802 | 8.25588 | 124° | 24km/h | 17443m | -7.5m/s | -51.7°C | 0% | 86.7hPa | 2.6V | 08:20:14 | 01:41:37 | 00:00:00 | |
| HSKMA3-T | 2026-09-02 11:18:42 | 52.52803 | 8.25580 | 75° | 22km/h | 17452m | -10.2m/s | -51.7°C | 0% | 86.6hPa | 2.6V | 08:20:14 | 01:41:36 | 00:00:00 | |
| DO2JMG | 2026-09-02 11:18:41 | 52.52794 | 8.25548 | 74° | 60km/h | 17471m | -9.3m/s | -51.8°C | 0% | 86.3hPa | 2.7V | 08:20:14 | 01:41:34 | 00:00:00 | |
| DF8AY | 2026-09-02 11:18:37 | 52.52799 | 8.25466 | 122° | 71km/h | 17499m | -10.6m/s | -51.7°C | 0% | 85.9hPa | 2.6V | 08:21:56 | 01:41:31 | 00:00:00 | |
| DJ2DS-15 | 2026-09-02 11:18:37 | 52.52799 | 8.25466 | 122° | 47km/h | 17499m | -10.5m/s | -51.6°C | 3.4% | 85.9hPa | 2.6V | 00:00:00 | 01:41:31 | 00:00:00 | |
| DM0DOS-11 | 2026-09-02 11:18:36 | 52.52823 | 8.25392 | 77° | 57km/h | 17558m | -8.7m/s | -51.6°C | 3.3% | 85.2hPa | 2.6V | 08:19:58 | 01:41:25 | 00:00:00 | |
| AA1-15 | 2026-09-02 11:18:36 | 52.52820 | 8.25433 | 149° | 42km/h | 17521m | -9m/s | -51.6°C | 0% | 85.6hPa | 2.6V | 08:20:14 | 01:41:29 | 00:00:00 | |
| DL1XH-west | 2026-09-02 11:18:33 | 52.52829 | 8.25420 | 94° | 16km/h | 17538m | -10.2m/s | -51.6°C | 0% | 85.4hPa | 2.7V | 08:20:14 | 01:41:27 | 00:00:00 | |
| DL1XH-15 | 2026-09-02 11:18:32 | 52.52842 | 8.25295 | 140° | 51km/h | 17597m | -10m/s | -51.8°C | 3.4% | 84.6hPa | 2.7V | 08:20:02 | 01:41:21 | 00:00:00 | |
| HSKMA3-T | 2026-09-02 11:18:31 | 52.52823 | 8.25392 | 77° | 57km/h | 17558m | -8.7m/s | -51.7°C | 0% | 85.2hPa | 2.6V | 08:20:14 | 01:41:25 | 00:00:00 | |
| DO2JMG | 2026-09-02 11:18:30 | 52.52822 | 8.25366 | 91° | 68km/h | 17567m | -8m/s | -51.7°C | 0% | 85hPa | 2.6V | 08:20:14 | 01:41:24 | 00:00:00 | |
| DF8AY | 2026-09-02 11:18:27 | 52.52842 | 8.25295 | 140° | 51km/h | 17597m | -10m/s | -51.8°C | 0.1% | 84.6hPa | 2.7V | 08:21:56 | 01:41:21 | 00:00:00 | |
| DM0DOS-11 | 2026-09-02 11:18:26 | 52.52838 | 8.25219 | 87° | 68km/h | 17659m | -11m/s | -51.9°C | 3.4% | 83.8hPa | 2.6V | 08:20:08 | 01:41:15 | 00:00:00 | |
| DB0DAN | 2026-09-02 11:18:25 | 52.52854 | 8.25282 | 111° | 9km/h | 17617m | -8.1m/s | -51.8°C | 0.9% | 84.42hPa | 2.6V | 00:00:00 | 00:00:00 | 00:00:00 | |
| BIOWL1-15 | 2026-09-02 11:18:24 | 52.52852 | 8.25276 | 53° | 26km/h | 17626m | -8.9m/s | -51.9°C | 0% | 84.3hPa | 2.6V | 08:20:14 | 01:41:18 | 00:00:00 | |
| DL1XH-west | 2026-09-02 11:18:23 | 52.52847 | 8.25264 | 59° | 44km/h | 17636m | -10.6m/s | -51.9°C | 0% | 84.1hPa | 2.7V | 08:20:14 | 01:41:17 | 00:00:00 | |
| HSKMA3-T | 2026-09-02 11:18:21 | 52.52838 | 8.25219 | 87° | 68km/h | 17659m | -11m/s | -51.9°C | 0% | 83.8hPa | 2.6V | 08:20:14 | 01:41:15 | 00:00:00 | |
| DO2JMG | 2026-09-02 11:18:19 | 52.52846 | 8.25168 | 124° | 57km/h | 17681m | -8.9m/s | -51.9°C | 0% | 83.6hPa | 2.7V | 08:20:14 | 01:41:13 | 00:00:00 | |
| DL1XH-15 | 2026-09-02 11:18:18 | 52.52859 | 8.25145 | 142° | 18km/h | 17700m | -8m/s | -52°C | 3.4% | 83.3hPa | 2.5V | 08:20:12 | 01:41:11 | 00:00:00 | |
| DF8AY | 2026-09-02 11:18:16 | 52.52861 | 8.25142 | 69° | 9km/h | 17709m | -9.7m/s | -52.1°C | 0.1% | 83.2hPa | 2.6V | 08:21:56 | 01:41:10 | 00:00:00 | |
| DM0DOS-11 | 2026-09-02 11:18:16 | 52.52847 | 8.25057 | 111° | 55km/h | 17759m | -8.6m/s | -52.3°C | 3.5% | 82.6hPa | 2.6V | 08:20:18 | 01:41:05 | 00:00:00 | |
| BIOWL1-15 | 2026-09-02 11:18:16 | 52.52852 | 8.25125 | 52° | 44km/h | 17730m | -8.8m/s | -52.3°C | 0% | 83hPa | 2.7V | 08:21:05 | 01:41:08 | 00:00:00 | |
| AA1-15 | 2026-09-02 11:18:13 | 52.52846 | 8.25105 | 74° | 60km/h | 17740m | -9.4m/s | -52.3°C | 0.1% | 82.9hPa | 2.7V | 08:21:05 | 01:41:07 | 00:00:00 | |
| DL1XH-west | 2026-09-02 11:18:12 | 52.52844 | 8.25080 | 91° | 60km/h | 17749m | -8m/s | -52.3°C | 0.1% | 82.7hPa | 2.7V | 08:21:05 | 01:41:06 | 00:00:00 | |
| HSKMA3-T | 2026-09-02 11:18:10 | 52.52853 | 8.25039 | 130° | 44km/h | 17768m | -8m/s | -52.3°C | 0.2% | 82.4hPa | 2.6V | 08:21:05 | 01:41:04 | 00:00:00 | |
| DO2JMG | 2026-09-02 11:18:09 | 52.52859 | 8.25030 | 144° | 26km/h | 17776m | -8.4m/s | -52.3°C | 0.1% | 82.4hPa | 2.6V | 08:21:05 | 01:41:03 | 00:00:00 | |
| DF5WG-10 | 2026-09-02 11:18:09 | 52.52859 | 8.25030 | 145° | 29km/h | 17777m | -8.3m/s | -52.3°C | 3.5% | 82.3hPa | 2.6V | 00:00:00 | 01:41:03 | 00:00:00 | |
| DL1CLM-18 | 2026-09-02 11:18:07 | 52.52862 | 8.25027 | 106° | 2km/h | 17785m | -9.7m/s | -52.3°C | 0.9% | 82.3hPa | 2.7V | 00:00:00 | 00:00:00 | 00:00:00 | |
| DM0DOS-11 | 2026-09-02 11:18:06 | 52.52851 | 8.24905 | 128° | 42km/h | 17856m | -8.8m/s | -52.2°C | 3.5% | 81.2hPa | 2.7V | 08:20:28 | 01:40:55 | 00:00:00 | |
| BIOWL1-15 | 2026-09-02 11:18:04 | 52.52839 | 8.24975 | 80° | 68km/h | 17824m | -10.4m/s | -52.2°C | 0.1% | 81.7hPa | 2.6V | 08:21:05 | 01:40:58 | 00:00:00 | |
| DF8AY | 2026-09-02 11:18:03 | 52.52839 | 8.24947 | 101° | 69km/h | 17835m | -10.3m/s | -52.2°C | 0.2% | 81.6hPa | 2.7V | 08:21:56 | 01:40:57 | 00:00:00 | |
| DL1XH-west | 2026-09-02 11:18:02 | 52.52844 | 8.24923 | 118° | 58km/h | 17846m | -9.1m/s | -52.2°C | 0.2% | 81.5hPa | 2.7V | 08:21:05 | 01:40:56 | 00:00:00 | |
| DL1XH1-15 | 2026-09-02 11:18:00 | 52.52858 | 8.24891 | 56° | 9km/h | 17874m | -9.4m/s | -52.2°C | 3.5% | 81.1hPa | 2.5V | 08:20:30 | 01:40:53 | 00:00:00 | |
| HSKMA3-T | 2026-09-02 11:17:59 | 52.52858 | 8.24891 | 57° | 9km/h | 17874m | -9.4m/s | -52.2°C | 0.1% | 81.1hPa | 2.5V | 08:21:05 | 01:40:53 | 00:00:00 | |
| DO2JMG | 2026-09-02 11:17:58 | 52.52854 | 8.24884 | 40° | 33km/h | 17884m | -8.5m/s | -52.2°C | 0.1% | 81hPa | 2.6V | 08:21:05 | 01:40:52 | 00:00:00 | |
| DJ2DS-15 | 2026-09-02 11:17:57 | 52.52847 | 8.24871 | 55° | 51km/h | 17894m | -10.3m/s | -52.2°C | 3.4% | 80.7hPa | 2.7V | 08:20:00 | 01:40:51 | 00:00:00 | |
| DM0DOS-11 | 2026-09-02 11:17:56 | 52.52855 | 8.24737 | 129° | 18km/h | 17956m | -9.8m/s | -52.4°C | 3.6% | 80.1hPa | 2.6V | 08:20:38 | 01:40:45 | 00:00:00 | |
| BIOWL1-15 | 2026-09-02 11:17:55 | 52.52844 | 8.24764 | 119° | 62km/h | 17937m | -8.7m/s | -52.4°C | 0.1% | 80.3hPa | 2.7V | 08:21:05 | 01:40:47 | 00:00:00 | |
| GOEST3-10 | 2026-09-02 11:17:55 | 52.52836 | 8.24821 | 87° | 53km/h | 17916m | -11.1m/s | -52.3°C | 3.5% | 80.6hPa | 2.7V | 00:00:00 | 01:40:49 | 00:00:00 | |
| DF5WG-10 | 2026-09-02 11:17:54 | 52.52838 | 8.24790 | 103° | 64km/h | 17928m | -9.1m/s | -52.3°C | 3.5% | 80.4hPa | 2.7V | 00:00:00 | 01:40:48 | 00:00:00 | |
| DO3DL | 2026-09-02 11:17:53 | 52.52838 | 8.24790 | 103° | 71km/h | 17928m | -9.1m/s | -52.4°C | 0.9% | 80.4hPa | 2.7V | 08:21:00 | 00:00:00 | 00:00:00 | |
| DL1XH-15 | 2026-09-02 11:17:52 | 52.52839 | 8.24679 | 80° | 71km/h | 17996m | -11.1m/s | -52°C | 3.4% | 79.6hPa | 2.7V | 08:20:42 | 01:40:41 | 00:00:00 | |
| DL1XH1-15 | 2026-09-02 11:17:52 | 52.52850 | 8.24722 | 50° | 40km/h | 17976m | -9.1m/s | -52.2°C | 3.5% | 79.8hPa | 2.6V | 08:20:40 | 01:40:43 | 00:00:00 | |
| DL1XH-west | 2026-09-02 11:17:52 | 52.52851 | 8.24747 | 128° | 40km/h | 17946m | -9.5m/s | -52.4°C | 0.2% | 80.1hPa | 2.7V | 08:21:05 | 01:40:46 | 00:00:00 | |
| AA1-15 | 2026-09-02 11:17:51 | 52.52855 | 8.24737 | 130° | 18km/h | 17956m | -9.8m/s | -52.4°C | 0.2% | 80.1hPa | 2.6V | 08:21:05 | 01:40:45 | 00:00:00 | |
| HSKMA3-T | 2026-09-02 11:17:48 | 52.52843 | 8.24705 | 65° | 57km/h | 17985m | -10.1m/s | -52.1°C | 0.1% | 79.6hPa | 2.7V | 08:21:05 | 01:40:42 | 00:00:00 | |
| DO2JMG | 2026-09-02 11:17:47 | 52.52838 | 8.24679 | 80° | 71km/h | 17996m | -11.1m/s | -52°C | 0.1% | 79.6hPa | 2.7V | 08:21:05 | 01:40:41 | 00:00:00 | |
| D01LWL | 2026-09-02 11:17:47 | 52.52838 | 8.24679 | 80° | 69km/h | 17996m | -11.1m/s | -52.0°C | 0.9% | 79.6hPa | 2.7V | 00:00:00 | 00:00:00 | 00:00:00 | |
| SONCRA | 2026-09-02 11:17:45 | 52.52852 | 8.24597 | 128° | 58km/h | 18029m | -10.5m/s | -51.8°C | 1.0% | 79.2hPa | 2.7V | 00:00:00 | 00:00:00 | 00:00:00 | |
| DL1XH-west | 2026-09-02 11:17:41 | 52.52867 | 8.24567 | 71° | 20km/h | 18059m | -11.1m/s | -52.1°C | 0.1% | 78.8hPa | 2.7V | 08:21:05 | 01:40:35 | 00:00:00 | |
| DL1XH1-15 | 2026-09-02 11:17:41 | 52.52858 | 8.24536 | 68° | 62km/h | 18081m | -9.3m/s | -52.2°C | 3.5% | 78.5hPa | 2.6V | 08:20:50 | 01:40:33 | 00:00:00 | |
| DO3DL | 2026-09-02 11:17:41 | 52.52868 | 8.24567 | 72° | 20km/h | 18059m | -11.1m/s | -52.1°C | 0.9% | 78.8hPa | 2.7V | 08:21:00 | 00:00:00 | 00:00:00 | |
| AA1-15 | 2026-09-02 11:17:41 | 52.52863 | 8.24555 | 55° | 42km/h | 18070m | -10.1m/s | -52.2°C | 0.1% | 78.7hPa | 2.6V | 08:21:05 | 01:40:34 | 00:00:00 | |
| DD8BA-10 | 2026-09-02 11:17:40 | 52.52863 | 8.24555 | 55° | 55km/h | 18071m | -10.1m/s | -52.1°C | 3.5% | 78.7hPa | 2.7V | 00:00:00 | 00:00:00 | 00:00:00 | |
| GOEST3-10 | 2026-09-02 11:17:39 | 52.52858 | 8.24536 | 69° | 73km/h | 18081m | -9.2m/s | -52.2°C | 3.5% | 78.5hPa | 2.7V | 00:00:00 | 00:00:00 | 00:00:00 | |
| DL1XH-15 | 2026-09-02 11:17:38 | 52.52853 | 8.24476 | 96° | 82km/h | 18101m | -10.2m/s | -52.3°C | 3.6% | 78.3hPa | 2.7V | 08:20:52 | 01:40:31 | 00:00:00 | |
| HSKMA3-T | 2026-09-02 11:17:38 | 52.52853 | 8.24508 | 81° | 75km/h | 18090m | -8.9m/s | -52.3°C | 0.2% | 78.4hPa | 2.7V | 08:21:05 | 01:40:32 | 00:00:00 | |
| DO2JMG | 2026-09-02 11:17:36 | 52.52858 | 8.24445 | 113° | 78km/h | 18111m | -9.2m/s | -52.4°C | 0.2% | 78.2hPa | 2.6V | 08:21:05 | 01:40:30 | 00:00:00 | |
| DL4XJ-10 | 2026-09-02 11:17:36 | 52.52858 | 8.24445 | 113° | 55km/h | 18111m | -9.1m/s | -53.1°C | 0% | 0hPa | 2.7V | 00:00:00 | 00:00:00 | 00:00:00 | |
| HTAHTA | 2026-09-02 11:17:35 | 52.52867 | 8.24419 | 128° | 64km/h | 18121m | -9.3m/s | -52.4°C | 1.0% | 78.0hPa | 2.7V | 00:00:00 | 00:00:00 | 00:00:00 | |
| EDDB2-11 | 2026-09-02 11:17:34 | 52.52881 | 8.24391 | 124° | 24km/h | 18140m | -10.6m/s | -52.3°C | 1.0% | 77.8hPa | 2.7V | 00:00:00 | 00:00:00 | 00:00:00 | |
| SONDE2-11 | 2026-09-02 11:17:33 | 52.52881 | 8.24391 | 124° | 24km/h | 18140m | -10.6m/s | -52.3°C | 1.0% | 77.8hPa | 2.7V | 00:00:00 | 00:00:00 | 00:00:00 | |
| DL1XH-15 | 2026-09-02 11:17:31 | 52.52883 | 8.24253 | 122° | 75km/h | 18206m | -9.5m/s | -51.7°C | 3.5% | 77hPa | 2.7V | 08:21:02 | 01:40:21 | 00:00:00 | |
| DL1XH-west | 2026-09-02 11:17:31 | 52.52873 | 8.24345 | 75° | 64km/h | 18171m | -11m/s | -52.1°C | 0.2% | 77.4hPa | 2.6V | 08:21:05 | 01:40:24 | 00:00:00 | |
| DF8AY | 2026-09-02 11:17:30 | 52.52911 | 8.24193 | 74° | 38km/h | 18257m | -10.3m/s | -51.7°C | 0.1% | 76.4hPa | 2.7V | 08:21:56 | 01:40:16 | 00:00:00 | |
| AA1-15 | 2026-09-02 11:17:30 | 52.52871 | 8.24316 | 89° | 78km/h | 18183m | -11.6m/s | -51.9°C | 0.2% | 77.3hPa | 2.6V | 08:21:05 | 01:40:23 | 00:00:00 | |
| BIOWL1-15 | 2026-09-02 11:17:27 | 52.52912 | 8.24210 | 152° | 20km/h | 18238m | -10m/s | -51.7°C | 0.1% | 76.7hPa | 2.6V | 08:21:05 | 01:40:18 | 00:00:00 | |
| HSKMA3-T | 2026-09-02 11:17:27 | 52.52883 | 8.24253 | 123° | 75km/h | 18206m | -9.5m/s | -51.7°C | 0.1% | 77hPa | 2.7V | 08:21:05 | 01:40:21 | 00:00:00 | |
| DM0DOS-11 | 2026-09-02 11:17:27 | 52.52908 | 8.24173 | 82° | 57km/h | 18268m | -11m/s | -51.6°C | 3.4% | 76.2hPa | 2.6V | 08:21:08 | 01:40:15 | 00:00:00 | |
| DO2JMG | 2026-09-02 11:17:25 | 52.52905 | 8.24217 | 150° | 42km/h | 18227m | -10.1m/s | -51.6°C | 0.1% | 76.8hPa | 2.6V | 08:21:05 | 01:40:19 | 00:00:00 | |
| DB0DAN | 2026-09-02 11:17:25 | 52.52905 | 8.24217 | 150° | 40km/h | 18227m | -10.1m/s | -51.6°C | 0.9% | 76.76hPa | 2.6V | 00:00:00 | 00:00:00 | 00:00:00 | |
| DL1XH-west | 2026-09-02 11:17:20 | 52.52909 | 8.24147 | 99° | 71km/h | 18280m | -11.1m/s | -51.6°C | 0.1% | 76.2hPa | 2.6V | 08:21:56 | 01:40:14 | 00:00:00 | |
| DL1XH1-15 | 2026-09-02 11:17:20 | 52.52915 | 8.24119 | 115° | 71km/h | 18292m | -9m/s | -51.6°C | 3.5% | 76hPa | 2.6V | 08:21:10 | 01:40:13 | 00:00:00 | |
| DD8BA-10 | 2026-09-02 11:17:20 | 52.52909 | 8.24147 | 100° | 46km/h | 18280m | -11.1m/s | -51.6°C | 3.5% | 76.1hPa | 2.7V | 00:00:00 | 00:00:00 | 00:00:00 | |
| DL1XH-15 | 2026-09-02 11:17:19 | 52.52937 | 8.24081 | 154° | 53km/h | 18312m | -10.6m/s | -51.4°C | 3.4% | 75.8hPa | 2.7V | 08:21:12 | 01:40:11 | 00:00:00 | |
| AA1-15 | 2026-09-02 11:17:19 | 52.52925 | 8.24095 | 135° | 66km/h | 18302m | -9.7m/s | -51.5°C | 0.1% | 75.9hPa | 2.7V | 08:21:56 | 01:40:12 | 00:00:00 | |
| HSKMA3-T | 2026-09-02 11:17:17 | 52.52936 | 8.24081 | 155° | 53km/h | 18312m | -10.6m/s | -51.4°C | 0.1% | 75.8hPa | 2.7V | 08:21:56 | 01:40:11 | 00:00:00 | |
| DJ2DS-15 | 2026-09-02 11:17:17 | 52.52936 | 8.24081 | 155° | 38km/h | 18312m | -10.6m/s | -51.3°C | 3.4% | 75.7hPa | 2.7V | 00:00:00 | 01:40:11 | 00:00:00 | |
| DM0DOS-11 | 2026-09-02 11:17:16 | 52.52944 | 8.24031 | 94° | 58km/h | 18379m | -9.4m/s | -51.1°C | 3.3% | 75.1hPa | 2.7V | 08:21:18 | 01:40:05 | 00:00:00 | |
| DO2JMG | 2026-09-02 11:17:15 | 52.52952 | 8.24076 | 198° | 9km/h | 18334m | -9.1m/s | -51.3°C | 0% | 75.5hPa | 2.6V | 08:21:56 | 01:40:09 | 00:00:00 | |
| DL1XH1-15 | 2026-09-02 11:17:14 | 52.52956 | 8.23991 | 138° | 51km/h | 18399m | -11.4m/s | -51°C | 3.3% | 74.8hPa | 2.6V | 08:21:20 | 01:40:03 | 00:00:00 | |
| DF8AY | 2026-09-02 11:17:13 | 52.52949 | 8.24069 | 56° | 29km/h | 18355m | -11.4m/s | -51.1°C | 0% | 75.2hPa | 2.6V | 08:21:56 | 01:40:07 | 00:00:00 | |
| DD1CC3-15 | 2026-09-02 11:17:13 | 52.52952 | 8.24075 | 42° | 11km/h | 18344m | -10.1m/s | -51.2°C | 0.9% | 75.4hPa | 2.7V | 08:21:00 | 00:00:00 | 00:00:00 | |
| DO3DL | 2026-09-02 11:17:12 | 52.52949 | 8.24069 | 57° | 29km/h | 18355m | -11.4m/s | -51.1°C | 0.8% | 75.2hPa | 2.7V | 08:21:00 | 00:00:00 | 00:00:00 | |
| DL1XH-15 | 2026-09-02 11:17:11 | 52.52973 | 8.23981 | 188° | 20km/h | 18420m | -8.3m/s | -50.9°C | 3.2% | 74.5hPa | 2.7V | 08:21:22 | 01:40:01 | 00:00:00 | |
| DB0DAN | 2026-09-02 11:17:10 | 52.52948 | 8.24008 | 114° | 53km/h | 18389m | -8.3m/s | -51.1°C | 0.9% | 74.95hPa | 2.6V | 00:00:00 | 00:00:00 | 00:00:00 | |
| DL1XH-west | 2026-09-02 11:17:10 | 52.52948 | 8.24008 | 114° | 57km/h | 18389m | -8.3m/s | -51.1°C | 0% | 75hPa | 2.6V | 08:21:56 | 01:40:04 | 00:00:00 | |
| HSKMA3-T | 2026-09-02 11:17:07 | 52.52973 | 8.23981 | 189° | 20km/h | 18420m | -8.3m/s | -50.9°C | 0% | 74.5hPa | 2.7V | 08:21:56 | 01:40:01 | 00:00:00 | |
| DO2JMG | 2026-09-02 11:17:04 | 52.52966 | 8.23974 | 53° | 40km/h | 18450m | -10m/s | -51.1°C | 0% | 74.2hPa | 2.6V | 08:21:56 | 01:39:58 | 00:00:00 | |
| DL1XH-west | 2026-09-02 11:16:59 | 52.52980 | 8.23885 | 165° | 35km/h | 18506m | -12.1m/s | -51.4°C | 0% | 73.6hPa | 2.6V | 08:21:56 | 01:39:53 | 00:00:00 | |
| DL1XH-15 | 2026-09-02 11:16:59 | 52.52987 | 8.23887 | 317° | 7km/h | 18527m | -10.5m/s | -51.4°C | 3.3% | 73.2hPa | 2.7V | 08:21:32 | 01:39:51 | 00:00:00 | |
| HSKMA3-T | 2026-09-02 11:16:56 | 52.52983 | 8.23886 | 12° | 24km/h | 18538m | -11.5m/s | -51.5°C | 0% | 73.1hPa | 2.7V | 08:21:56 | 01:39:50 | 00:00:00 | |
| DO2JMG | 2026-09-02 11:16:54 | 52.52969 | 8.23862 | 67° | 55km/h | 18560m | -10.1m/s | -51.7°C | 0% | 72.9hPa | 2.6V | 08:21:56 | 01:39:48 | 00:00:00 | |
| GOEST3-10 | 2026-09-02 11:16:54 | 52.52969 | 8.23862 | 67° | 49km/h | 18560m | -10.1m/s | -51.6°C | 3.3% | 72.9hPa | 2.7V | 00:00:00 | 01:39:48 | 00:00:00 | |
| DJ2KF-10 | 2026-09-02 11:16:53 | 52.52966 | 8.23839 | 87° | 58km/h | 18572m | -10.8m/s | -51.7°C | 3.4% | 72.7hPa | 2.7V | 08:21:00 | 01:39:47 | 00:00:00 | |
| DL1XH-15 | 2026-09-02 11:16:52 | 52.52983 | 8.23789 | 28° | 29km/h | 18636m | -11.2m/s | -51.8°C | 3.3% | 72.1hPa | 2.7V | 08:21:42 | 01:39:41 | 00:00:00 | |
| DL1XH-west | 2026-09-02 11:16:49 | 52.52988 | 8.23789 | 206° | 15km/h | 18614m | -10.8m/s | -51.8°C | 0.1% | 72.3hPa | 2.6V | 08:21:56 | 01:39:43 | 00:00:00 | |
| DF8AY | 2026-09-02 11:16:48 | 52.52988 | 8.23791 | 340° | 13km/h | 18625m | -9.3m/s | -51.7°C | 0% | 72.2hPa | 2.7V | 08:21:56 | 01:39:42 | 00:00:00 | |
| HSKMA3-T | 2026-09-02 11:16:46 | 52.52976 | 8.23779 | 49° | 46km/h | 18647m | -11.3m/s | -51.7°C | 0% | 71.9hPa | 2.7V | 08:21:56 | 01:39:40 | 00:00:00 | |
| AA1-15 | 2026-09-02 11:16:45 | 52.52970 | 8.23759 | 73° | 60km/h | 18659m | -10.1m/s | -51.7°C | 0.1% | 71.8hPa | 2.6V | 08:21:56 | 01:39:39 | 00:00:00 | |
| D01LWL | 2026-09-02 11:16:45 | 52.52968 | 8.23734 | 90° | 60km/h | 18670m | -7.8m/s | -51.7°C | 0.9% | 71.7hPa | 2.6V | 00:00:00 | 00:00:00 | 00:00:00 | |
| DO2JMG | 2026-09-02 11:16:43 | 52.52971 | 8.23710 | 111° | 57km/h | 18679m | -10.1m/s | -51.8°C | 0.1% | 71.5hPa | 2.6V | 08:21:56 | 01:39:37 | 00:00:00 | |
| DL1XH-west | 2026-09-02 11:16:39 | 52.52985 | 8.23678 | 29° | 22km/h | 18721m | -11.5m/s | -52.1°C | 0.1% | 71.1hPa | 2.6V | 08:21:56 | 01:39:33 | 00:00:00 | |
| GOEST3-10 | 2026-09-02 11:16:39 | 52.52985 | 8.23678 | 29° | 51km/h | 18721m | -11.4m/s | -52.0°C | 3.4% | 71.1hPa | 2.7V | 00:00:00 | 00:00:00 | 00:00:00 | |
| DL1XH-15 | 2026-09-02 11:16:38 | 52.52967 | 8.23625 | 83° | 69km/h | 18756m | -11.3m/s | -52.1°C | 3.4% | 70.7hPa | 2.7V | 08:21:53 | 01:39:30 | 00:00:00 | |
| AA1-15 | 2026-09-02 11:16:35 | 52.52969 | 8.23598 | 102° | 62km/h | 18767m | -8.8m/s | -52.1°C | 0.1% | 70.6hPa | 2.7V | 08:21:56 | 01:39:29 | 00:00:00 | |
| DF8AY | 2026-09-02 11:16:33 | 52.52983 | 8.23563 | 152° | 37km/h | 18789m | -10.3m/s | -52.1°C | 0.1% | 70.5hPa | 2.6V | 08:21:56 | 01:39:27 | 00:00:00 | |
| BIOWL1-15 | 2026-09-02 11:16:32 | 52.52984 | 8.23558 | 19° | 31km/h | 18821m | -9.5m/s | -52.3°C | 0.1% | 70hPa | 2.7V | 08:22:47 | 01:39:24 | 00:00:00 | |
| DO2JMG | 2026-09-02 11:16:32 | 52.52988 | 8.23560 | 174° | 13km/h | 18800m | -9.5m/s | -52.2°C | 0.1% | 70.3hPa | 2.6V | 08:22:47 | 01:39:26 | 00:00:00 | |
| DL1XH-15 | 2026-09-02 11:16:31 | 52.52969 | 8.23481 | 112° | 58km/h | 18865m | -10.8m/s | -52.5°C | 3.5% | 69.6hPa | 2.6V | 08:22:03 | 01:39:20 | 00:00:00 | |
| DL1XH-west | 2026-09-02 11:16:29 | 52.52976 | 8.23548 | 47° | 47km/h | 18831m | -9.8m/s | -52.4°C | 0.1% | 69.9hPa | 2.7V | 08:22:47 | 01:39:23 | 00:00:00 | |
| AA1-15 | 2026-09-02 11:16:25 | 52.52976 | 8.23464 | 135° | 44km/h | 18876m | -9.4m/s | -52.5°C | 0.1% | 69.5hPa | 2.7V | 08:22:47 | 01:39:19 | 00:00:00 | |
| DF8AY | 2026-09-02 11:16:23 | 52.52984 | 8.23456 | 317° | 4km/h | 18897m | -12.5m/s | -52.5°C | 0.1% | 69.2hPa | 2.6V | 08:22:47 | 01:39:17 | 00:00:00 | |
| DO2JMG | 2026-09-02 11:16:22 | 52.52980 | 8.23456 | 7° | 26km/h | 18909m | -10m/s | -52.5°C | 0.1% | 69.1hPa | 2.6V | 08:22:47 | 01:39:16 | 00:00:00 | |
| DL1XH-west | 2026-09-02 11:16:19 | 52.52957 | 8.23409 | 78° | 69km/h | 18943m | -9.2m/s | -52.7°C | 0.2% | 68.8hPa | 2.7V | 08:22:47 | 01:39:13 | 00:00:00 | |
| DJ2KF-10 | 2026-09-02 11:16:19 | 52.52957 | 8.23409 | 78° | 55km/h | 18944m | -9.2m/s | -52.7°C | 3.6% | 68.7hPa | 2.6V | 00:00:00 | 01:39:13 | 00:00:00 | |
| DL1XH-15 | 2026-09-02 11:16:18 | 52.52967 | 8.23345 | 137° | 35km/h | 18977m | -10.9m/s | -52.5°C | 3.6% | 68.4hPa | 2.6V | 08:22:13 | 01:39:10 | 00:00:00 | |
| HSKMA3-T | 2026-09-02 11:16:14 | 52.52971 | 8.23336 | 15° | 15km/h | 18999m | -11.5m/s | -52.7°C | 0.2% | 68.2hPa | 2.7V | 08:22:47 | 01:39:08 | 00:00:00 | |
| DF8AY | 2026-09-02 11:16:13 | 52.52965 | 8.23331 | 30° | 38km/h | 19010m | -10.1m/s | -52.7°C | 0.2% | 68hPa | 2.7V | 08:22:47 | 01:39:07 | 00:00:00 | |
| DO2JMG | 2026-09-02 11:16:12 | 52.52956 | 8.23319 | 47° | 57km/h | 19022m | -11.3m/s | -52.8°C | 0.2% | 67.8hPa | 2.7V | 08:22:47 | 01:39:06 | 00:00:00 | |
| DL1XH-west | 2026-09-02 11:16:08 | 52.52950 | 8.23215 | 125° | 57km/h | 19067m | -12.2m/s | -53°C | 0.3% | 67.4hPa | 2.7V | 08:22:47 | 01:39:02 | 00:00:00 | |
| AA1-15 | 2026-09-02 11:16:04 | 52.52951 | 8.23190 | 32° | 46km/h | 19111m | -9.7m/s | -52.8°C | 0.2% | 67hPa | 2.6V | 08:22:47 | 01:38:58 | 00:00:00 | |
| HSKMA3-T | 2026-09-02 11:16:03 | 52.52941 | 8.23174 | 52° | 58km/h | 19121m | -10.8m/s | -52.8°C | 0.2% | 66.8hPa | 2.7V | 08:22:47 | 01:38:57 | 00:00:00 | |
| DO2JMG | 2026-09-02 11:16:01 | 52.52931 | 8.23124 | 90° | 64km/h | 19145m | -10m/s | -52.8°C | 0.3% | 66.6hPa | 2.7V | 08:22:47 | 01:38:55 | 00:00:00 | |
| DL1XH1-15 | 2026-09-02 11:16:01 | 52.52939 | 8.23084 | 127° | 37km/h | 19168m | -9.6m/s | -52.8°C | 3.8% | 66.4hPa | 2.6V | 08:22:30 | 01:38:53 | 00:00:00 | |
| SONDE2-11 | 2026-09-02 11:16:00 | 52.52939 | 8.23084 | 127° | 35km/h | 19168m | -9.6m/s | -52.8°C | 1.0% | 66.4hPa | 2.7V | 00:00:00 | 00:00:00 | 00:00:00 | |
| DL4BBY-15 | 2026-09-02 11:15:59 | 52.52939 | 8.23084 | 128° | 47km/h | 19168m | -9.5m/s | -53.6°C | 0% | 0hPa | 2.7V | 00:00:00 | 00:00:00 | 00:00:00 | |
| DL1XH-15 | 2026-09-02 11:15:58 | 52.52934 | 8.23071 | 23° | 44km/h | 19199m | -10.2m/s | -52.5°C | 3.7% | 66hPa | 2.7V | 08:22:33 | 01:38:50 | 00:00:00 | |
| DL1XH-west | 2026-09-02 11:15:58 | 52.52943 | 8.23077 | 151° | 9km/h | 19178m | -10.9m/s | -52.7°C | 0.3% | 66.3hPa | 2.6V | 08:22:47 | 01:38:52 | 00:00:00 | |
| BIOWL1-15 | 2026-09-02 11:15:58 | 52.52941 | 8.23075 | 18° | 16km/h | 19189m | -9.8m/s | -52.6°C | 0.2% | 66.1hPa | 2.7V | 08:22:47 | 01:38:51 | 00:00:00 | |
| AA1-15 | 2026-09-02 11:15:53 | 52.52910 | 8.23008 | 85° | 69km/h | 19234m | -11.3m/s | -52.2°C | 0.2% | 65.6hPa | 2.6V | 08:22:47 | 01:38:47 | 00:00:00 | |
| HSKMA3-T | 2026-09-02 11:15:52 | 52.52912 | 8.22980 | 110° | 66km/h | 19246m | -11m/s | -52.2°C | 0.2% | 65.6hPa | 2.6V | 08:22:47 | 01:38:46 | 00:00:00 | |
| DL1XH-15 | 2026-09-02 11:15:51 | 52.52914 | 8.22908 | 69° | 64km/h | 19314m | -11m/s | -52°C | 3.5% | 64.9hPa | 2.7V | 08:22:43 | 01:38:40 | 00:00:00 | |
| DL1XH1-15 | 2026-09-02 11:15:51 | 52.52930 | 8.22943 | 107° | 9km/h | 19280m | -10.4m/s | -52.1°C | 3.6% | 65.1hPa | 2.6V | 08:22:40 | 01:38:43 | 00:00:00 | |
| DO2JMG | 2026-09-02 11:15:50 | 52.52927 | 8.22947 | 148° | 29km/h | 19269m | -11.1m/s | -52.2°C | 0.2% | 65.3hPa | 2.7V | 08:22:47 | 01:38:44 | 00:00:00 | |
| DL1XH-west | 2026-09-02 11:15:48 | 52.52928 | 8.22938 | 30° | 26km/h | 19291m | -9.6m/s | -52.1°C | 0.1% | 65.1hPa | 2.6V | 08:22:47 | 01:38:42 | 00:00:00 | |
| BIOWL1-15 | 2026-09-02 11:15:46 | 52.52914 | 8.22908 | 69° | 64km/h | 19314m | -11m/s | -52°C | 0.2% | 64.9hPa | 2.7V | 08:22:47 | 01:38:40 | 00:00:00 | |
| AU51GT2 | 2026-09-02 11:15:46 | 52.52914 | 8.22908 | 69° | 64km/h | 19314m | -11.0m/s | -52.0°C | 0.9% | 64.9hPa | 2.6V | 00:00:00 | 00:00:00 | 00:00:00 | |
| AA1-15 | 2026-09-02 11:15:42 | 52.52932 | 8.22806 | 142° | 51km/h | 19362m | -10.3m/s | -51.9°C | 0.1% | 64.4hPa | 2.6V | 08:22:47 | 01:38:36 | 00:00:00 | |
| HSKMA3-T | 2026-09-02 11:15:41 | 52.52941 | 8.22798 | 162° | 29km/h | 19373m | -11.3m/s | -51.9°C | 0.2% | 64.2hPa | 2.6V | 08:23:38 | 01:38:35 | 00:00:00 | |
| DL1XH1-15 | 2026-09-02 11:15:41 | 52.52942 | 8.22787 | 53° | 29km/h | 19394m | -9.1m/s | -51.8°C | 3.4% | 64.1hPa | 2.7V | 08:22:50 | 01:38:33 | 00:00:00 | |
| DO2JMG | 2026-09-02 11:15:39 | 52.52942 | 8.22787 | 53° | 29km/h | 19395m | -9.1m/s | -51.8°C | 0.1% | 64.1hPa | 2.7V | 08:23:38 | 01:38:33 | 00:00:00 | |
| DL1XH-west | 2026-09-02 11:15:37 | 52.52934 | 8.22748 | 85° | 68km/h | 19418m | -11.9m/s | -51.8°C | 0.1% | 63.8hPa | 2.6V | 08:23:38 | 01:38:31 | 00:00:00 | |
| BIOWL1-15 | 2026-09-02 11:15:36 | 52.52935 | 8.22719 | 104° | 75km/h | 19430m | -10.8m/s | -51.8°C | 0.1% | 63.7hPa | 2.6V | 08:23:38 | 01:38:30 | 00:00:00 | |
| DF8AY | 2026-09-02 11:15:35 | 52.52943 | 8.22691 | 125° | 75km/h | 19442m | -13.1m/s | -51.8°C | 0.2% | 63.6hPa | 2.6V | 08:23:38 | 01:38:29 | 00:00:00 | |
| AA1-15 | 2026-09-02 11:15:32 | 52.52973 | 8.22661 | 180° | 13km/h | 19479m | -10.4m/s | -51.7°C | 0.1% | 63.2hPa | 2.6V | 08:23:38 | 01:38:26 | 00:00:00 | |
| DL1XH1-15 | 2026-09-02 11:15:31 | 52.52964 | 8.22636 | 71° | 53km/h | 19515m | -10.8m/s | -51.7°C | 3.5% | 62.9hPa | 2.7V | 08:23:00 | 01:38:23 | 00:00:00 | |
| HSKMA3-T | 2026-09-02 11:15:31 | 52.52973 | 8.22660 | 26° | 15km/h | 19490m | -10.2m/s | -51.7°C | 0.1% | 63.1hPa | 2.6V | 08:23:38 | 01:38:25 | 00:00:00 | |
| DO2JMG | 2026-09-02 11:15:28 | 52.52963 | 8.22613 | 94° | 60km/h | 19526m | -9.5m/s | -51.8°C | 0.2% | 62.8hPa | 2.7V | 08:23:38 | 01:38:22 | 00:00:00 | |
| DL1XH-west | 2026-09-02 11:15:27 | 52.52967 | 8.22589 | 120° | 62km/h | 19537m | -11.9m/s | -51.8°C | 0.2% | 62.7hPa | 2.7V | 08:23:38 | 01:38:21 | 00:00:00 | |
| BIOWL1-15 | 2026-09-02 11:15:26 | 52.52976 | 8.22541 | 73° | 55km/h | 19620m | -10m/s | -52°C | 0.3% | 61.8hPa | 2.6V | 08:23:38 | 01:38:14 | 00:00:00 | |
| DF8AY | 2026-09-02 11:15:25 | 52.52987 | 8.22564 | 172° | 37km/h | 19561m | -9.9m/s | -51.9°C | 0.2% | 62.5hPa | 2.6V | 08:23:38 | 01:38:19 | 00:00:00 | |
| HSKMA3-T | 2026-09-02 11:15:21 | 52.52982 | 8.22560 | 53° | 47km/h | 19607m | -11.7m/s | -52°C | 0.2% | 62hPa | 2.7V | 08:23:38 | 01:38:15 | 00:00:00 | |
| DL1XH1-15 | 2026-09-02 11:15:21 | 52.52975 | 8.22518 | 101° | 57km/h | 19630m | -10.5m/s | -51.9°C | 3.6% | 61.8hPa | 2.6V | 08:23:10 | 01:38:13 | 00:00:00 | |
| DO2JMG | 2026-09-02 11:15:17 | 52.52989 | 8.22486 | 153° | 35km/h | 19655m | -10.3m/s | -51.5°C | 0.1% | 61.5hPa | 2.7V | 08:23:38 | 01:38:11 | 00:00:00 | |
| DF8AY | 2026-09-02 11:15:16 | 52.52997 | 8.22486 | 315° | 11km/h | 19675m | -9.2m/s | -51.4°C | 0.1% | 61.4hPa | 2.6V | 08:23:38 | 01:38:09 | 00:00:00 | |
| AU51GT2 | 2026-09-02 11:15:16 | 52.52997 | 8.22486 | 314° | 11km/h | 19675m | -9.2m/s | -51.4°C | 0.9% | 61.4hPa | 2.6V | 00:00:00 | 00:00:00 | 00:00:00 | |
| GOEST3-10 | 2026-09-02 11:15:15 | 52.52991 | 8.22486 | 13° | 53km/h | 19686m | -11.9m/s | -51.3°C | 3.4% | 61.2hPa | 2.6V | 00:00:00 | 01:38:08 | 00:00:00 | |
| DL4XJ-10 | 2026-09-02 11:15:14 | 52.52991 | 8.22486 | 13° | 27km/h | 19686m | -11.9m/s | -52.1°C | 0% | 0hPa | 2.7V | 00:00:00 | 00:00:00 | 00:00:00 | |
| DJ2KF-10 | 2026-09-02 11:15:13 | 52.52983 | 8.22477 | 44° | 55km/h | 19698m | -12.7m/s | -51.3°C | 3.4% | 61.0hPa | 2.7V | 00:00:00 | 01:38:07 | 00:00:00 | |
| DM0DOS-11 | 2026-09-02 11:15:12 | 52.52999 | 8.22392 | 241° | 15km/h | 19771m | -11.1m/s | -51°C | 3.3% | 60.4hPa | 2.7V | 08:23:22 | 01:38:01 | 00:00:00 | |
| AA1-15 | 2026-09-02 11:15:10 | 52.52979 | 8.22411 | 118° | 60km/h | 19736m | -12m/s | -51°C | 0.1% | 60.7hPa | 2.6V | 08:23:38 | 01:38:04 | 00:00:00 | |
| DL1XH1-15 | 2026-09-02 11:15:10 | 52.52987 | 8.22395 | 143° | 47km/h | 19748m | -11.7m/s | -51°C | 3.3% | 60.6hPa | 2.6V | 08:23:20 | 01:38:03 | 00:00:00 | |
| DB0DAN | 2026-09-02 11:15:10 | 52.52979 | 8.22411 | 118° | 57km/h | 19736m | -12m/s | -51°C | 0.9% | 60.72hPa | 2.6V | 00:00:00 | 00:00:00 | 00:00:00 | |
| DO2JMG | 2026-09-02 11:15:06 | 52.52998 | 8.22394 | 360° | 15km/h | 19783m | -13m/s | -51°C | 0.1% | 60.2hPa | 2.7V | 08:23:38 | 01:38:00 | 00:00:00 | |
| DL1XH-west | 2026-09-02 11:15:04 | 52.52988 | 8.22375 | 68° | 49km/h | 19808m | -11.1m/s | -50.9°C | 0.1% | 60.1hPa | 2.6V | 08:23:38 | 01:37:58 | 00:00:00 | |
| GOEST3-10 | 2026-09-02 11:15:04 | 52.52988 | 8.22375 | 68° | 49km/h | 19809m | -11.0m/s | -50.9°C | 3.3% | 60.1hPa | 2.6V | 00:00:00 | 01:37:58 | 00:00:00 | |
| BUE01 | 2026-09-02 11:15:03 | 52.52986 | 8.22353 | 93° | 58km/h | 19821m | -11.7m/s | -50.9°C | 0.8% | 60.0hPa | 2.6V | 00:00:00 | 00:00:00 | 00:00:00 | |
| DM0DOS-11 | 2026-09-02 11:15:02 | 52.53009 | 8.22315 | 13° | 33km/h | 19893m | -10.4m/s | -50.9°C | 3.3% | 59.3hPa | 2.6V | 08:23:32 | 01:37:51 | 00:00:00 | |
| HSKMA3-T | 2026-09-02 11:15:00 | 52.53009 | 8.22308 | 176° | 33km/h | 19860m | -12m/s | -50.9°C | 0.1% | 59.6hPa | 2.7V | 08:23:38 | 01:37:54 | 00:00:00 | |
| BIOWL1-15 | 2026-09-02 11:14:59 | 52.53009 | 8.22315 | 14° | 33km/h | 19893m | -10.4m/s | -50.9°C | 0% | 59.4hPa | 2.6V | 08:23:38 | 01:37:51 | 00:00:00 | |
| AA1-15 | 2026-09-02 11:14:59 | 52.53015 | 8.22310 | 224° | 18km/h | 19872m | -10.1m/s | -50.8°C | 0.1% | 59.5hPa | 2.6V | 08:23:38 | 01:37:53 | 00:00:00 | |
| DD8BA-10 | 2026-09-02 11:14:59 | 52.53015 | 8.22310 | 225° | 37km/h | 19872m | -10.0m/s | -50.8°C | 3.4% | 59.5hPa | 2.6V | 00:00:00 | 00:00:00 | 00:00:00 | |
| DL1XH-15 | 2026-09-02 11:14:58 | 52.53000 | 8.22306 | 45° | 46km/h | 19904m | -12m/s | -50.9°C | 3.3% | 59.2hPa | 2.7V | 08:23:33 | 01:37:50 | 00:00:00 | |
| DO2JMG | 2026-09-02 11:14:55 | 52.52994 | 8.22288 | 70° | 55km/h | 19917m | -11m/s | -50.9°C | 0.1% | 59.1hPa | 2.7V | 08:23:38 | 01:37:49 | 00:00:00 | |
| DL1XH-west | 2026-09-02 11:14:54 | 52.52993 | 8.22266 | 97° | 53km/h | 19929m | -10.3m/s | -50.9°C | 0.1% | 59hPa | 2.6V | 08:23:38 | 01:37:48 | 00:00:00 | |
| DM0DOS-11 | 2026-09-02 11:14:52 | 52.52975 | 8.22207 | 76° | 60km/h | 20027m | -12.2m/s | -50.9°C | 3.4% | 58hPa | 2.7V | 08:23:43 | 01:37:40 | 00:00:00 | |
| DL1XH-15 | 2026-09-02 11:14:51 | 52.52975 | 8.22207 | 76° | 60km/h | 20027m | -12.2m/s | -50.9°C | 3.4% | 58hPa | 2.7V | 08:23:43 | 01:37:40 | 00:00:00 | |
| DF8AY | 2026-09-02 11:14:50 | 52.53010 | 8.22247 | 314° | 24km/h | 19976m | -12.6m/s | -50.9°C | 0% | 58.5hPa | 2.6V | 08:24:29 | 01:37:44 | 00:00:00 | |
| HSKMA3-T | 2026-09-02 11:14:49 | 52.53002 | 8.22251 | 357° | 37km/h | 19989m | -12.9m/s | -50.9°C | 0% | 58.3hPa | 2.6V | 08:24:29 | 01:37:43 | 00:00:00 | |
| AA1-15 | 2026-09-02 11:14:48 | 52.52992 | 8.22246 | 29° | 51km/h | 20002m | -11.6m/s | -50.9°C | 0.1% | 58.3hPa | 2.6V | 08:24:29 | 01:37:42 | 00:00:00 | |
| BIOWL1-15 | 2026-09-02 11:14:47 | 52.52981 | 8.22230 | 55° | 62km/h | 20014m | -11.9m/s | -50.9°C | 0.1% | 58.2hPa | 2.7V | 08:24:29 | 01:37:41 | 00:00:00 | |
| DO2JMG | 2026-09-02 11:14:44 | 52.52980 | 8.22169 | 133° | 40km/h | 20051m | -10.4m/s | -50.8°C | 0.2% | 57.9hPa | 2.6V | 08:24:29 | 01:37:38 | 00:00:00 | |
| DL1XH-west | 2026-09-02 11:14:43 | 52.52985 | 8.22163 | 178° | 20km/h | 20062m | -12m/s | -50.8°C | 0.1% | 57.8hPa | 2.6V | 08:24:29 | 01:37:37 | 00:00:00 | |
| DL1XH1-15 | 2026-09-02 11:14:42 | 52.52963 | 8.22155 | 49° | 55km/h | 20114m | -12.3m/s | -50.6°C | 3.3% | 57.3hPa | 2.7V | 08:23:50 | 01:37:33 | 00:00:00 | |
| BIOWL1-15 | 2026-09-02 11:14:38 | 52.52973 | 8.22089 | 9° | 31km/h | 20198m | -10.6m/s | -50.2°C | 0% | 56.6hPa | 2.6V | 08:24:29 | 01:37:26 | 00:00:00 | |
| HSKMA3-T | 2026-09-02 11:14:38 | 52.52957 | 8.22134 | 75° | 60km/h | 20127m | -11.1m/s | -50.6°C | 0% | 57.2hPa | 2.6V | 08:24:29 | 01:37:32 | 00:00:00 | |
| DL1XH-15 | 2026-09-02 11:14:38 | 52.52963 | 8.22091 | 132° | 51km/h | 20153m | -12.3m/s | -50.4°C | 3.3% | 57hPa | 2.6V | 08:23:53 | 01:37:30 | 00:00:00 | |
| AA1-15 | 2026-09-02 11:14:37 | 52.52956 | 8.22111 | 104° | 58km/h | 20139m | -11.7m/s | -50.5°C | 0.1% | 57.1hPa | 2.6V | 08:24:29 | 01:37:31 | 00:00:00 | |
| DJ2DS-15 | 2026-09-02 11:14:37 | 52.52956 | 8.22110 | 104° | 42km/h | 20140m | -11.7m/s | -50.5°C | 3.4% | 57.1hPa | 2.6V | 00:00:00 | 01:37:31 | 00:00:00 | |
| DL3OBA | 2026-09-02 11:14:35 | 52.52963 | 8.22091 | 134° | 51km/h | 20153m | -12.3m/s | -50.4°C | 0.8% | 57.0hPa | 2.6V | 08:24:00 | 00:00:00 | 00:00:00 | |
| DL1XH1-15 | 2026-09-02 11:14:34 | 52.52955 | 8.22043 | 98° | 58km/h | 20234m | -14.2m/s | -50.1°C | 3.2% | 56.3hPa | 2.6V | 08:24:00 | 01:37:23 | 00:00:00 | |
| DL1XH-west | 2026-09-02 11:14:33 | 52.52979 | 8.22087 | 305° | 15km/h | 20188m | -10.1m/s | -50.3°C | 0% | 56.7hPa | 2.6V | 08:24:29 | 01:37:27 | 00:00:00 | |
| DL8DAS-14 | 2026-09-02 11:14:32 | 52.52964 | 8.22082 | 38° | 44km/h | 20209m | -10.7m/s | -50.1°C | 0.8% | 56.4hPa | 2.7V | 00:00:00 | 00:00:00 | 00:00:00 | |
| DL1XH-15 | 2026-09-02 11:14:31 | 52.52975 | 8.22011 | 208° | 18km/h | 20275m | -12m/s | -50.2°C | 3.2% | 55.9hPa | 2.7V | 08:24:03 | 01:37:20 | 00:00:00 | |
| HSKMA3-T | 2026-09-02 11:14:27 | 52.52969 | 8.22011 | 154° | 37km/h | 20262m | -12.6m/s | -50.3°C | 0% | 56hPa | 2.6V | 08:24:29 | 01:37:21 | 00:00:00 | |
| AA1-15 | 2026-09-02 11:14:26 | 52.52975 | 8.22011 | 209° | 18km/h | 20275m | -12m/s | -50.2°C | 0% | 55.9hPa | 2.7V | 08:24:29 | 01:37:20 | 00:00:00 | |
| DB0DAN | 2026-09-02 11:14:25 | 52.52976 | 8.22017 | 303° | 16km/h | 20287m | -12.2m/s | -50.1°C | 0.8% | 55.75hPa | 2.7V | 00:00:00 | 00:00:00 | 00:00:00 | |
| BIOWL1-15 | 2026-09-02 11:14:25 | 52.52970 | 8.22021 | 349° | 35km/h | 20300m | -12.2m/s | -50.2°C | 0% | 55.7hPa | 2.7V | 08:24:29 | 01:37:18 | 00:00:00 | |
| DL1XH1-15 | 2026-09-02 11:14:24 | 52.52946 | 8.21939 | 125° | 42km/h | 20366m | -12.8m/s | -50.3°C | 3.3% | 55hPa | 2.7V | 08:24:10 | 01:37:13 | 00:00:00 | |
| DO2JMG | 2026-09-02 11:14:22 | 52.52949 | 8.22004 | 50° | 62km/h | 20325m | -11.9m/s | -50.3°C | 0% | 55.5hPa | 2.6V | 08:24:29 | 01:37:16 | 00:00:00 | |
| DF8AY | 2026-09-02 11:14:19 | 52.52946 | 8.21939 | 126° | 42km/h | 20366m | -12.8m/s | -50.3°C | 0.1% | 55.1hPa | 2.7V | 08:24:29 | 01:37:13 | 00:00:00 | |
| HSKMA3-T | 2026-09-02 11:14:17 | 52.52952 | 8.21933 | 297° | 11km/h | 20389m | -10m/s | -50.2°C | 0% | 55hPa | 2.6V | 08:24:29 | 01:37:11 | 00:00:00 | |
| DJ2DS-15 | 2026-09-02 11:14:17 | 52.52952 | 8.21933 | 298° | 40km/h | 20389m | -10.0m/s | -50.1°C | 3.2% | 54.9hPa | 2.6V | 00:00:00 | 01:37:11 | 00:00:00 | |
| DO3DL | 2026-09-02 11:14:16 | 52.52952 | 8.21933 | 298° | 11km/h | 20389m | -10.0m/s | -50.1°C | 0.8% | 55.0hPa | 2.6V | 08:24:00 | 00:00:00 | 00:00:00 | |
| DM0DOS-11 | 2026-09-02 11:14:15 | 52.52937 | 8.21935 | 19° | 49km/h | 20410m | -11.8m/s | -49.9°C | 3.1% | 54.7hPa | 2.6V | 08:24:14 | 01:37:09 | 00:00:00 | |
| AA1-15 | 2026-09-02 11:14:15 | 52.52937 | 8.21935 | 20° | 49km/h | 20410m | -11.8m/s | -49.9°C | 0% | 54.7hPa | 2.6V | 08:24:29 | 01:37:09 | 00:00:00 | |
| DF8AY | 2026-09-02 11:14:14 | 52.52930 | 8.21856 | 258° | 22km/h | 20489m | -12.1m/s | -49.9°C | 0% | 54.1hPa | 2.7V | 08:24:29 | 01:37:03 | 00:00:00 | |
| DO2JMG | 2026-09-02 11:14:11 | 52.52920 | 8.21859 | 127° | 46km/h | 20463m | -12.9m/s | -49.9°C | 0% | 54.3hPa | 2.6V | 08:24:29 | 01:37:05 | 00:00:00 | |
| HSKMA3-T | 2026-09-02 11:14:06 | 52.52908 | 8.21865 | 29° | 51km/h | 20528m | -13.2m/s | -50.2°C | 0% | 53.7hPa | 2.6V | 08:24:29 | 01:37:00 | 00:00:00 | |
| DM0DOS-11 | 2026-09-02 11:14:06 | 52.52899 | 8.21849 | 59° | 55km/h | 20541m | -12.3m/s | -50.1°C | 3.1% | 53.6hPa | 2.7V | 08:24:24 | 01:36:59 | 00:00:00 | |
| DL3AQ-11 | 2026-09-02 11:14:05 | 52.52906 | 8.21802 | 160° | 27km/h | 20581m | -12.9m/s | -50.3°C | 0.8% | 53.3hPa | 2.7V | 00:00:00 | 00:00:00 | 00:00:00 | |
| DL1XH1-15 | 2026-09-02 11:14:04 | 52.52902 | 8.21813 | 356° | 38km/h | 20619m | -13.1m/s | -50.5°C | 3.1% | 53hPa | 2.7V | 08:24:30 | 01:36:53 | 00:00:00 | |
| AA1-15 | 2026-09-02 11:14:04 | 52.52896 | 8.21829 | 88° | 51km/h | 20554m | -12.3m/s | -50.2°C | 0% | 53.5hPa | 2.7V | 08:24:29 | 01:36:58 | 00:00:00 | |
| DL1XH-west | 2026-09-02 11:14:00 | 52.52909 | 8.21809 | 313° | 22km/h | 20606m | -12.5m/s | -50.4°C | 0% | 53.1hPa | 2.6V | 08:24:29 | 01:36:54 | 00:00:00 | |
| DF8AY | 2026-09-02 11:13:57 | 52.52891 | 8.21739 | 312° | 18km/h | 20710m | -12.7m/s | -51°C | 0% | 52.3hPa | 2.7V | 08:27:02 | 01:36:46 | 00:00:00 | |
| BIOWL1-15 | 2026-09-02 11:13:56 | 52.52885 | 8.21738 | 143° | 37km/h | 20685m | -12.5m/s | -50.9°C | 0% | 52.5hPa | 2.6V | 08:25:20 | 01:36:48 | 00:00:00 | |
| HSKMA3-T | 2026-09-02 11:13:56 | 52.52878 | 8.21772 | 82° | 55km/h | 20660m | -12.1m/s | -50.7°C | 0% | 52.7hPa | 2.6V | 08:25:20 | 01:36:50 | 00:00:00 | |
| EDDB2-11 | 2026-09-02 11:13:56 | 52.52878 | 8.21772 | 82° | 53km/h | 20660m | -12.1m/s | -50.7°C | 0.8% | 52.7hPa | 2.7V | 00:00:00 | 00:00:00 | 00:00:00 | |
| SONDE2-11 | 2026-09-02 11:13:55 | 52.52879 | 8.21751 | 109° | 47km/h | 20673m | -12.1m/s | -50.8°C | 0.8% | 52.6hPa | 2.7V | 00:00:00 | 00:00:00 | 00:00:00 | |
| DM0DOS-11 | 2026-09-02 11:13:55 | 52.52885 | 8.21738 | 142° | 37km/h | 20685m | -12.4m/s | -50.9°C | 3.3% | 52.5hPa | 2.6V | 08:24:35 | 01:36:48 | 00:00:00 | |
| DL1XH1-15 | 2026-09-02 11:13:54 | 52.52864 | 8.21725 | 50° | 58km/h | 20751m | -12.1m/s | -51.3°C | 3.3% | 51.9hPa | 2.7V | 08:24:40 | 01:36:43 | 00:00:00 | |
| AA1-15 | 2026-09-02 11:13:53 | 52.52890 | 8.21735 | 201° | 13km/h | 20697m | -11.9m/s | -50.9°C | 0% | 52.4hPa | 2.7V | 08:25:20 | 01:36:47 | 00:00:00 | |
| DL1XH-west | 2026-09-02 11:13:50 | 52.52874 | 8.21739 | 26° | 49km/h | 20738m | -12.8m/s | -51.2°C | 0.1% | 52hPa | 2.6V | 08:25:20 | 01:36:44 | 00:00:00 | |
| BIOWL1-15 | 2026-09-02 11:13:46 | 52.52875 | 8.21658 | 260° | 13km/h | 20814m | -11.3m/s | -51.6°C | 0.2% | 51.4hPa | 2.7V | 08:25:20 | 01:36:38 | 00:00:00 | |
| HSKMA3-T | 2026-09-02 11:13:46 | 52.52864 | 8.21663 | 134° | 44km/h | 20791m | -12.3m/s | -51.5°C | 0.2% | 51.6hPa | 2.6V | 08:25:20 | 01:36:40 | 00:00:00 | |
| DC6BW-12 | 2026-09-02 11:13:45 | 52.52864 | 8.21663 | 135° | 44km/h | 20791m | -12.3m/s | -51.5°C | 0.9% | 51.6hPa | 2.7V | 08:25:00 | 00:00:00 | 00:00:00 | |
| GOEST3-10 | 2026-09-02 11:13:44 | 52.52875 | 8.21658 | 260° | 40km/h | 20815m | -11.2m/s | -51.6°C | 3.5% | 51.4hPa | 2.7V | 00:00:00 | 01:36:38 | 00:00:00 | |
| BIOWL7-15 | 2026-09-02 11:13:43 | 52.52875 | 8.21658 | 261° | 13km/h | 20815m | -11.3m/s | -51.6°C | 0.9% | 51.4hPa | 2.6V | 00:00:00 | 00:00:00 | 00:00:00 | |
| DL1XH1-15 | 2026-09-02 11:13:42 | 52.52850 | 8.21596 | 110° | 64km/h | 20884m | -12.2m/s | -51.8°C | 3.6% | 50.9hPa | 2.6V | 08:24:50 | 01:36:33 | 00:00:00 | |
| AA1-15 | 2026-09-02 11:13:42 | 52.52864 | 8.21660 | 25° | 46km/h | 20841m | -13.9m/s | -51.7°C | 0.2% | 51.2hPa | 2.7V | 08:25:20 | 01:36:36 | 00:00:00 | |
| DO2JMG | 2026-09-02 11:13:39 | 52.52850 | 8.21596 | 110° | 64km/h | 20884m | -12.2m/s | -51.8°C | 0.2% | 50.9hPa | 2.6V | 08:25:20 | 01:36:33 | 00:00:00 | |
| DF8AY | 2026-09-02 11:13:37 | 52.52868 | 8.21569 | 172° | 38km/h | 20910m | -12.5m/s | -51.7°C | 0.2% | 50.7hPa | 2.7V | 08:27:02 | 01:36:31 | 00:00:00 | |
| BIOWL1-15 | 2026-09-02 11:13:36 | 52.52875 | 8.21571 | 219° | 20km/h | 20922m | -11.5m/s | -51.6°C | 0.3% | 50.5hPa | 2.7V | 08:25:20 | 01:36:30 | 00:00:00 | |
| AA1-15 | 2026-09-02 11:13:31 | 52.52858 | 8.21517 | 108° | 66km/h | 20990m | -14m/s | -51.4°C | 0.2% | 50hPa | 2.7V | 08:25:20 | 01:36:25 | 00:00:00 | |
| DO9LL-15 | 2026-09-02 11:13:31 | 52.52858 | 8.21517 | 108° | 40km/h | 20990m | -13.9m/s | -51.3°C | 3.5% | 50.0hPa | 2.6V | 00:00:00 | 01:36:25 | 00:00:00 | |
| DL1XH-15 | 2026-09-02 11:13:30 | 52.52878 | 8.21487 | 42° | 38km/h | 21071m | -12.5m/s | -51°C | 3.4% | 49.5hPa | 2.6V | 08:25:04 | 01:36:19 | 00:00:00 | |
| BIOWL1-15 | 2026-09-02 11:13:30 | 52.52886 | 8.21492 | 358° | 26km/h | 21058m | -11.8m/s | -51°C | 0.1% | 49.5hPa | 2.6V | 08:25:20 | 01:36:20 | 00:00:00 | |
| DL1XH-west | 2026-09-02 11:13:29 | 52.52878 | 8.21482 | 169° | 46km/h | 21020m | -13.4m/s | -51.2°C | 0.2% | 49.9hPa | 2.6V | 08:25:20 | 01:36:23 | 00:00:00 | |
| DO2JMG | 2026-09-02 11:13:28 | 52.52887 | 8.21483 | 206° | 29km/h | 21034m | -12.2m/s | -51.2°C | 0.2% | 49.8hPa | 2.7V | 08:25:20 | 01:36:22 | 00:00:00 | |
| DF8AY | 2026-09-02 11:13:27 | 52.52890 | 8.21489 | 281° | 16km/h | 21046m | -10.9m/s | -51°C | 0.1% | 49.7hPa | 2.7V | 08:27:02 | 01:36:21 | 00:00:00 | |
| HSKMA3-T | 2026-09-02 11:13:25 | 52.52878 | 8.21487 | 43° | 38km/h | 21071m | -12.5m/s | -51°C | 0.1% | 49.5hPa | 2.6V | 08:25:20 | 01:36:19 | 00:00:00 | |
| AA1-15 | 2026-09-02 11:13:21 | 52.52890 | 8.21420 | 167° | 49km/h | 21124m | -13.9m/s | -50.5°C | 0.1% | 49hPa | 2.7V | 08:25:20 | 01:36:15 | 00:00:00 | |
| DL1XH-west | 2026-09-02 11:13:19 | 52.52905 | 8.21433 | 260° | 29km/h | 21151m | -12.1m/s | -50.5°C | 0% | 48.9hPa | 2.6V | 08:25:20 | 01:36:13 | 00:00:00 | |
| DO2JMG | 2026-09-02 11:13:18 | 52.52903 | 8.21441 | 326° | 27km/h | 21163m | -11.7m/s | -50.5°C | 0% | 48.7hPa | 2.6V | 08:25:20 | 01:36:12 | 00:00:00 | |
| HSKMA3-T | 2026-09-02 11:13:15 | 52.52888 | 8.21413 | 99° | 44km/h | 21201m | -12.8m/s | -50.4°C | 0% | 48.4hPa | 2.7V | 08:25:20 | 01:36:09 | 00:00:00 | |
| MET0W-2 | 2026-09-02 11:13:15 | 52.52894 | 8.21396 | 134° | 46km/h | 21215m | -13.7m/s | -50.4°C | 0.8% | 48.3hPa | 2.7V | 00:00:00 | 00:00:00 | 00:00:00 | |
| DL1XH1-15 | 2026-09-02 11:13:14 | 52.52914 | 8.21419 | 357° | 29km/h | 21279m | -14.2m/s | -50.7°C | 3.1% | 47.7hPa | 2.7V | 08:25:20 | 01:36:03 | 00:00:00 | |
| DF8AY | 2026-09-02 11:13:13 | 52.52904 | 8.21387 | 168° | 51km/h | 21228m | -14m/s | -50.4°C | 0% | 48.2hPa | 2.6V | 08:27:02 | 01:36:07 | 00:00:00 | |
| AA1-15 | 2026-09-02 11:13:10 | 52.52920 | 8.21413 | 299° | 31km/h | 21266m | -13.6m/s | -50.6°C | 0% | 47.9hPa | 2.7V | 08:25:20 | 01:36:04 | 00:00:00 | |
| DL1XH-west | 2026-09-02 11:13:08 | 52.52907 | 8.21414 | 42° | 35km/h | 21293m | -13.8m/s | -50.8°C | 0% | 47.6hPa | 2.6V | 08:26:11 | 01:36:02 | 00:00:00 | |
| DO2JMG | 2026-09-02 11:13:07 | 52.52904 | 8.21400 | 88° | 42km/h | 21306m | -13.7m/s | -50.9°C | 0% | 47.5hPa | 2.6V | 08:26:11 | 01:36:01 | 00:00:00 | |
| HSKMA3-T | 2026-09-02 11:13:04 | 52.52927 | 8.21374 | 205° | 46km/h | 21345m | -12.9m/s | -51.2°C | 0.1% | 47.3hPa | 2.7V | 08:26:11 | 01:35:58 | 00:00:00 | |
| DF8AY | 2026-09-02 11:13:03 | 52.52934 | 8.21386 | 246° | 42km/h | 21358m | -13.2m/s | -51.3°C | 0% | 47.2hPa | 2.6V | 08:27:02 | 01:35:57 | 00:00:00 | |
| BIOWL1-15 | 2026-09-02 11:13:02 | 52.52935 | 8.21401 | 289° | 37km/h | 21370m | -13.9m/s | -51.4°C | 0% | 47hPa | 2.6V | 08:26:11 | 01:35:56 | 00:00:00 | |
| AA1-15 | 2026-09-02 11:12:59 | 52.52919 | 8.21396 | 90° | 38km/h | 21409m | -15m/s | -51.6°C | 0.1% | 46.8hPa | 2.6V | 08:26:11 | 01:35:53 | 00:00:00 | |
| DL1XH-west | 2026-09-02 11:12:57 | 52.52932 | 8.21374 | 174° | 42km/h | 21438m | -15m/s | -51.6°C | 0.1% | 46.6hPa | 2.6V | 08:26:11 | 01:35:51 | 00:00:00 | |
| BIOWL9-15 | 2026-09-02 11:12:57 | 52.52932 | 8.21374 | 174° | 42km/h | 21438m | -15.0m/s | -51.6°C | 0.8% | 46.6hPa | 2.6V | 00:00:00 | 00:00:00 | 00:00:00 | |
| HTAHTA | 2026-09-02 11:12:56 | 52.52943 | 8.21378 | 210° | 46km/h | 21452m | -14.4m/s | -51.7°C | 0.9% | 46.4hPa | 2.6V | 00:00:00 | 00:00:00 | 00:00:00 | |
| DO2JMG | 2026-09-02 11:12:56 | 52.52943 | 8.21378 | 211° | 47km/h | 21452m | -14.4m/s | -51.7°C | 0.1% | 46.4hPa | 2.7V | 08:26:11 | 01:35:50 | 00:00:00 | |
| SMARD9-15 | 2026-09-02 11:12:55 | 52.52949 | 8.21408 | 293° | 40km/h | 21480m | -13.3m/s | -51.8°C | 0.9% | 46.2hPa | 2.6V | 00:00:00 | 00:00:00 | 00:00:00 | |
| DM0DOS-11 | 2026-09-02 11:12:54 | 52.52942 | 8.21419 | 339° | 37km/h | 21493m | -13.9m/s | -51.8°C | 3.4% | 46.2hPa | 2.6V | 08:25:36 | 01:35:47 | 00:00:00 | |
| HSKMA3-T | 2026-09-02 11:12:54 | 52.52949 | 8.21408 | 294° | 40km/h | 21480m | -13.3m/s | -51.8°C | 0.1% | 46.2hPa | 2.7V | 08:26:11 | 01:35:48 | 00:00:00 | |
| EDDB2-11 | 2026-09-02 11:12:54 | 52.52949 | 8.21408 | 293° | 40km/h | 21480m | -13.3m/s | -51.8°C | 0.9% | 46.2hPa | 2.7V | 00:00:00 | 00:00:00 | 00:00:00 | |
| DJ2DS-15 | 2026-09-02 11:12:53 | 52.52934 | 8.21417 | 30° | 35km/h | 21507m | -13.8m/s | -51.9°C | 0.8% | 46.1hPa | 2.7V | 00:00:00 | 00:00:00 | 00:00:00 | |
| DL1XH1-15 | 2026-09-02 11:12:52 | 52.52940 | 8.21385 | 172° | 40km/h | 21548m | -14.6m/s | -52.1°C | 3.5% | 45.8hPa | 2.7V | 08:25:40 | 01:35:43 | 00:00:00 | |
| DL1XH-15 | 2026-09-02 11:12:50 | 52.52945 | 8.21431 | 339° | 46km/h | 21604m | -14.3m/s | -52.5°C | 3.5% | 45.3hPa | 2.6V | 08:25:44 | 01:35:39 | 00:00:00 | |
| AA1-15 | 2026-09-02 11:12:49 | 52.52940 | 8.21385 | 173° | 40km/h | 21548m | -14.6m/s | -52.1°C | 0.2% | 45.8hPa | 2.7V | 08:29:35 | 01:35:43 | 00:00:00 | |
| DL1XH-west | 2026-09-02 11:12:47 | 52.52955 | 8.21403 | 259° | 44km/h | 21576m | -14.5m/s | -52.3°C | 0.2% | 45.5hPa | 2.6V | 08:26:11 | 01:35:41 | 00:00:00 | |
| DO2JMG | 2026-09-02 11:12:45 | 52.52945 | 8.21431 | 340° | 46km/h | 21604m | -14.3m/s | -52.5°C | 0.1% | 45.3hPa | 2.6V | 08:26:11 | 01:35:39 | 00:00:00 | |
| HSKMA3-T | 2026-09-02 11:12:43 | 52.52928 | 8.21421 | 61° | 37km/h | 21630m | -13.9m/s | -52.6°C | 0.2% | 45.1hPa | 2.7V | 08:26:11 | 01:35:37 | 00:00:00 | |
| BIOWL1-15 | 2026-09-02 11:12:41 | 52.52941 | 8.21407 | 224° | 37km/h | 21671m | -14.3m/s | -52.4°C | 0.2% | 44.9hPa | 2.6V | 08:26:11 | 01:35:34 | 00:00:00 | |
| DF8AY | 2026-09-02 11:12:39 | 52.52944 | 8.21421 | 272° | 44km/h | 21685m | -15.4m/s | -52.5°C | 0.2% | 44.7hPa | 2.6V | 08:27:02 | 01:35:33 | 00:00:00 | |
| DL1XH1-15 | 2026-09-02 11:12:39 | 52.52944 | 8.21421 | 272° | 44km/h | 21685m | -15.4m/s | -52.5°C | 3.5% | 44.7hPa | 2.6V | 08:25:50 | 01:35:33 | 00:00:00 | |
| AA1-15 | 2026-09-02 11:12:38 | 52.52940 | 8.21438 | 312° | 49km/h | 21700m | -15.5m/s | -52.6°C | 0.2% | 44.7hPa | 2.7V | 08:26:11 | 01:35:32 | 00:00:00 | |
| DL1XH-15 | 2026-09-02 11:12:38 | 52.52911 | 8.21434 | 66° | 40km/h | 21742m | -14.4m/s | -52.8°C | 3.6% | 44.4hPa | 2.6V | 08:25:54 | 01:35:29 | 00:00:00 | |
| DL1XH-west | 2026-09-02 11:12:36 | 52.52918 | 8.21446 | 25° | 47km/h | 21728m | -14.5m/s | -52.7°C | 0.3% | 44.4hPa | 2.6V | 08:26:11 | 01:35:30 | 00:00:00 | |
| DO2JMG | 2026-09-02 11:12:35 | 52.52911 | 8.21434 | 66° | 40km/h | 21742m | -14.4m/s | -52.8°C | 0.2% | 44.4hPa | 2.6V | 08:26:11 | 01:35:29 | 00:00:00 | |
| HSKMA3-T | 2026-09-02 11:12:32 | 52.52922 | 8.21410 | 213° | 29km/h | 21783m | -15.5m/s | -53.1°C | 0.4% | 44.1hPa | 2.6V | 08:26:11 | 01:35:26 | 00:00:00 | |
| DO9LL-15 | 2026-09-02 11:12:31 | 52.52925 | 8.21419 | 269° | 42km/h | 21799m | -14.7m/s | -53.1°C | 3.8% | 43.9hPa | 2.6V | 00:00:00 | 01:35:25 | 00:00:00 | |
| DL1XH-15 | 2026-09-02 11:12:30 | 52.52891 | 8.21376 | 116° | 37km/h | 21885m | -14.5m/s | -53.4°C | 4% | 43.4hPa | 2.7V | 08:26:04 | 01:35:19 | 00:00:00 | |
| AA1-15 | 2026-09-02 11:12:27 | 52.52891 | 8.21414 | 62° | 57km/h | 21857m | -13m/s | -53.3°C | 0.4% | 43.6hPa | 2.6V | 08:26:11 | 01:35:21 | 00:00:00 | |
| DJ2KF-10 | 2026-09-02 11:12:27 | 52.52891 | 8.21414 | 63° | 51km/h | 21858m | -13.0m/s | -53.3°C | 3.9% | 43.5hPa | 2.7V | 00:00:00 | 01:35:21 | 00:00:00 | |
| DM0DOS-11 | 2026-09-02 11:12:26 | 52.52900 | 8.21364 | 228° | 13km/h | 21914m | -15.6m/s | -53°C | 3.9% | 43.1hPa | 2.7V | 08:26:06 | 01:35:17 | 00:00:00 | |
| DO2JMG | 2026-09-02 11:12:25 | 52.52891 | 8.21376 | 116° | 37km/h | 21885m | -14.5m/s | -53.4°C | 0.5% | 43.4hPa | 2.7V | 08:26:11 | 01:35:19 | 00:00:00 | |
| DF8AY | 2026-09-02 11:12:24 | 52.52896 | 8.21366 | 148° | 26km/h | 21899m | -14.7m/s | -53.4°C | 0.5% | 43.2hPa | 2.7V | 08:27:02 | 01:35:18 | 00:00:00 | |
| SMARD9-15 | 2026-09-02 11:12:24 | 52.52900 | 8.21364 | 228° | 13km/h | 21914m | -15.6m/s | -53.1°C | 1.0% | 43.1hPa | 2.7V | 00:00:00 | 00:00:00 | 00:00:00 | |
| EDDB2-11 | 2026-09-02 11:12:23 | 52.52900 | 8.21364 | 228° | 13km/h | 21914m | -15.6m/s | -53.1°C | 1.0% | 43.1hPa | 2.7V | 00:00:00 | 00:00:00 | 00:00:00 | |
| DL1XH1-15 | 2026-09-02 11:12:22 | 52.52869 | 8.21354 | 51° | 60km/h | 21975m | -15.3m/s | -52.5°C | 3.6% | 42.8hPa | 2.7V | 08:26:10 | 01:35:13 | 00:00:00 | |
| HSKMA3-T | 2026-09-02 11:12:22 | 52.52899 | 8.21369 | 317° | 22km/h | 21929m | -16.4m/s | -52.7°C | 0.3% | 43.1hPa | 2.6V | 08:26:11 | 01:35:16 | 00:00:00 | |
| GOEST3-10 | 2026-09-02 11:12:19 | 52.52869 | 8.21354 | 52° | 46km/h | 21975m | -15.2m/s | -52.5°C | 3.6% | 42.7hPa | 2.6V | 00:00:00 | 00:00:00 | 00:00:00 | |
| DL1XH-15 | 2026-09-02 11:12:18 | 52.52879 | 8.21296 | 207° | 24km/h | 22036m | -14.4m/s | -52.4°C | 3.7% | 42.4hPa | 2.6V | 08:26:14 | 01:35:09 | 00:00:00 | |
| AA1-15 | 2026-09-02 11:12:17 | 52.52864 | 8.21311 | 119° | 49km/h | 22004m | -16.5m/s | -52.4°C | 0.3% | 42.6hPa | 2.7V | 08:27:02 | 01:35:11 | 00:00:00 | |
| BIOWL1-15 | 2026-09-02 11:12:16 | 52.52877 | 8.21313 | 325° | 38km/h | 22064m | -13.8m/s | -52.2°C | 0.1% | 42.2hPa | 2.7V | 08:27:02 | 01:35:07 | 00:00:00 | |
| DO2JMG | 2026-09-02 11:12:15 | 52.52879 | 8.21296 | 207° | 24km/h | 22036m | -14.4m/s | -52.4°C | 0.3% | 42.4hPa | 2.6V | 08:27:02 | 01:35:09 | 00:00:00 | |
| DM0DOS-11 | 2026-09-02 11:12:14 | 52.52877 | 8.21313 | 325° | 38km/h | 22064m | -13.8m/s | -52.2°C | 3.5% | 42.2hPa | 2.7V | 08:26:16 | 01:35:07 | 00:00:00 | |
| DF8AY | 2026-09-02 11:12:14 | 52.52881 | 8.21304 | 278° | 26km/h | 22050m | -14.8m/s | -52.3°C | 0.2% | 42.3hPa | 2.6V | 08:27:02 | 01:35:08 | 00:00:00 | |
| DL1XH1-15 | 2026-09-02 11:12:14 | 52.52851 | 8.21280 | 120° | 38km/h | 22118m | -15.1m/s | -52°C | 3.5% | 41.9hPa | 2.6V | 08:26:20 | 01:35:03 | 00:00:00 | |
| HSKMA3-T | 2026-09-02 11:12:11 | 52.52856 | 8.21310 | 40° | 47km/h | 22090m | -15.1m/s | -52.1°C | 0.1% | 42hPa | 2.7V | 08:27:02 | 01:35:05 | 00:00:00 | |
| GOEST3-10 | 2026-09-02 11:12:09 | 52.52851 | 8.21280 | 121° | 46km/h | 22118m | -15.1m/s | -51.9°C | 3.5% | 41.8hPa | 2.6V | 00:00:00 | 00:00:00 | 00:00:00 | |
| DM0DOS-11 | 2026-09-02 11:12:06 | 52.52836 | 8.21298 | 33° | 55km/h | 22209m | -15.7m/s | -52.4°C | 3.6% | 41.2hPa | 2.6V | 08:26:26 | 01:34:57 | 00:00:00 | |
| AA1-15 | 2026-09-02 11:12:06 | 52.52866 | 8.21285 | 282° | 40km/h | 22164m | -15.8m/s | -52.2°C | 0.2% | 41.6hPa | 2.7V | 08:27:02 | 01:35:00 | 00:00:00 | |
| DL1XH-west | 2026-09-02 11:12:04 | 52.52849 | 8.21304 | 360° | 53km/h | 22195m | -15.1m/s | -52.3°C | 0.2% | 41.3hPa | 2.6V | 08:27:02 | 01:34:58 | 00:00:00 | |
| HSKMA3-T | 2026-09-02 11:12:00 | 52.52829 | 8.21258 | 165° | 22km/h | 22253m | -15.5m/s | -52.4°C | 0.3% | 41hPa | 2.7V | 08:27:02 | 01:34:54 | 00:00:00 | |
| DL1XH-15 | 2026-09-02 11:11:59 | 52.52799 | 8.21278 | 34° | 66km/h | 22330m | -14.9m/s | -52.6°C | 3.7% | 40.5hPa | 2.6V | 08:26:34 | 01:34:49 | 00:00:00 | |
| AA1-15 | 2026-09-02 11:11:55 | 52.52799 | 8.21278 | 35° | 66km/h | 22330m | -14.9m/s | -52.6°C | 0.3% | 40.5hPa | 2.6V | 08:27:02 | 01:34:49 | 00:00:00 | |
| BIOWL9-15 | 2026-09-02 11:11:55 | 52.52799 | 8.21278 | 34° | 64km/h | 22330m | -14.9m/s | -52.6°C | 0.9% | 40.5hPa | 2.7V | 00:00:00 | 00:00:00 | 00:00:00 | |
| DM0DOS-11 | 2026-09-02 11:11:54 | 52.52786 | 8.21240 | 95° | 46km/h | 22359m | -13.8m/s | -52.7°C | 3.8% | 40.3hPa | 2.7V | 08:26:36 | 01:34:47 | 00:00:00 | |
| DO2JMG | 2026-09-02 11:11:54 | 52.52789 | 8.21260 | 63° | 60km/h | 22344m | -15.6m/s | -52.7°C | 0.3% | 40.4hPa | 2.6V | 08:27:02 | 01:34:48 | 00:00:00 | |
| DF8AY | 2026-09-02 11:11:50 | 52.52793 | 8.21228 | 303° | 27km/h | 22403m | -16.8m/s | -52.4°C | 0.3% | 40.1hPa | 2.6V | 08:27:02 | 01:34:44 | 00:00:00 | |
| DL1XH-15 | 2026-09-02 11:11:49 | 52.52752 | 8.21170 | 106° | 58km/h | 22480m | -16m/s | -52.2°C | 3.7% | 39.5hPa | 2.6V | 08:26:44 | 01:34:39 | 00:00:00 | |
| HSKMA3-T | 2026-09-02 11:11:49 | 52.52786 | 8.21235 | 346° | 42km/h | 22420m | -17m/s | -52.5°C | 0.2% | 39.9hPa | 2.6V | 08:27:02 | 01:34:43 | 00:00:00 | |
| DM0DOS-11 | 2026-09-02 11:11:46 | 52.52768 | 8.21149 | 273° | 11km/h | 22524m | -15.8m/s | -52.1°C | 3.7% | 39.3hPa | 2.7V | 08:26:47 | 01:34:36 | 00:00:00 | |
| AA1-15 | 2026-09-02 11:11:44 | 52.52758 | 8.21153 | 140° | 42km/h | 22495m | -14.1m/s | -52.2°C | 0.3% | 39.5hPa | 2.6V | 08:27:02 | 01:34:38 | 00:00:00 | |
| DL1XH1-15 | 2026-09-02 11:11:44 | 52.52747 | 8.21131 | 63° | 60km/h | 22570m | -17.6m/s | -51.8°C | 3.6% | 39hPa | 2.6V | 08:26:50 | 01:34:33 | 00:00:00 | |
| DL1XH-west | 2026-09-02 11:11:43 | 52.52765 | 8.21147 | 181° | 24km/h | 22509m | -15.7m/s | -52.1°C | 0.4% | 39.4hPa | 2.6V | 08:27:02 | 01:34:37 | 00:00:00 | |
| HSKMA3-T | 2026-09-02 11:11:38 | 52.52744 | 8.21106 | 92° | 69km/h | 22586m | -16m/s | -51.7°C | 0.2% | 38.9hPa | 2.6V | 08:27:02 | 01:34:32 | 00:00:00 | |
| AU51GT2 | 2026-09-02 11:11:38 | 52.52744 | 8.21106 | 92° | 68km/h | 22586m | -16.0m/s | -51.7°C | 0.9% | 38.9hPa | 2.7V | 00:00:00 | 00:00:00 | 00:00:00 | |
| DL1XH-15 | 2026-09-02 11:11:37 | 52.52769 | 8.21056 | 180° | 38km/h | 22632m | -15.5m/s | -51.4°C | 3.5% | 38.6hPa | 2.7V | 08:26:54 | 01:34:29 | 00:00:00 | |
| BIOWL1-15 | 2026-09-02 11:11:36 | 52.52768 | 8.21066 | 23° | 37km/h | 22679m | -16m/s | -51.3°C | 0.1% | 38.4hPa | 2.6V | 08:27:02 | 01:34:26 | 00:00:00 | |
| DF8AY | 2026-09-02 11:11:34 | 52.52775 | 8.21060 | 243° | 26km/h | 22648m | -16.5m/s | -51.3°C | 0.2% | 38.5hPa | 2.7V | 08:27:02 | 01:34:28 | 00:00:00 | |
| DL1XH1-15 | 2026-09-02 11:11:34 | 52.52765 | 8.21013 | 130° | 58km/h | 22725m | -16.5m/s | -51.4°C | 3.5% | 38hPa | 2.7V | 08:27:00 | 01:34:23 | 00:00:00 | |
| DM0DOS-11 | 2026-09-02 11:11:33 | 52.52768 | 8.21066 | 23° | 37km/h | 22679m | -16m/s | -51.3°C | 3.4% | 38.4hPa | 2.6V | 08:26:57 | 01:34:26 | 00:00:00 | |
| DO2JMG | 2026-09-02 11:11:33 | 52.52775 | 8.21067 | 326° | 20km/h | 22663m | -16m/s | -51.3°C | 0.1% | 38.4hPa | 2.6V | 08:27:02 | 01:34:27 | 00:00:00 | |
| HSKMA3-T | 2026-09-02 11:11:28 | 52.52776 | 8.21001 | 165° | 53km/h | 22741m | -17.4m/s | -51.4°C | 0.2% | 38hPa | 2.7V | 08:27:02 | 01:34:22 | 00:00:00 | |
| DL4BBY-15 | 2026-09-02 11:11:28 | 52.52776 | 8.21001 | 166° | 40km/h | 22741m | -17.3m/s | -52.2°C | 0% | 0hPa | 2.6V | 00:00:00 | 00:00:00 | 00:00:00 | |
| DM0DOS-11 | 2026-09-02 11:11:26 | 52.52773 | 8.21000 | 94° | 47km/h | 22833m | -17.2m/s | -51.2°C | 3.4% | 37.4hPa | 2.6V | 08:27:07 | 01:34:16 | 00:00:00 | |
| BIOWL1-15 | 2026-09-02 11:11:23 | 52.52777 | 8.20984 | 130° | 42km/h | 22848m | -16.4m/s | -51.1°C | 0.2% | 37.3hPa | 2.6V | 08:27:53 | 01:34:15 | 00:00:00 | |
| DD8BA-10 | 2026-09-02 11:11:23 | 52.52776 | 8.21017 | 54° | 42km/h | 22817m | -15.7m/s | -51.2°C | 3.5% | 37.5hPa | 2.7V | 08:27:00 | 00:00:00 | 00:00:00 | |
| DL1XH1-15 | 2026-09-02 11:11:22 | 52.52793 | 8.20979 | 222° | 31km/h | 22879m | -16.1m/s | -50.9°C | 3.4% | 37.1hPa | 2.7V | 08:27:10 | 01:34:13 | 00:00:00 | |
| DL1XH-west | 2026-09-02 11:11:22 | 52.52773 | 8.21000 | 94° | 47km/h | 22833m | -17.2m/s | -51.2°C | 0.1% | 37.5hPa | 2.6V | 08:27:53 | 01:34:16 | 00:00:00 | |
| DF8AY | 2026-09-02 11:11:19 | 52.52795 | 8.20991 | 278° | 35km/h | 22895m | -16.9m/s | -50.9°C | 0.1% | 37.1hPa | 2.6V | 08:28:44 | 01:34:12 | 00:00:00 | |
| DL1XH-15 | 2026-09-02 11:11:18 | 52.52770 | 8.20996 | 51° | 47km/h | 22944m | -16.5m/s | -51°C | 3.4% | 36.8hPa | 2.7V | 08:27:14 | 01:34:09 | 00:00:00 | |
| HSKMA3-T | 2026-09-02 11:11:18 | 52.52790 | 8.21002 | 326° | 40km/h | 22912m | -16.1m/s | -50.9°C | 0.1% | 37hPa | 2.6V | 08:27:53 | 01:34:11 | 00:00:00 | |
| DO3DL | 2026-09-02 11:11:18 | 52.52795 | 8.20991 | 279° | 35km/h | 22896m | -16.9m/s | -50.9°C | 0.8% | 37.1hPa | 2.6V | 08:27:00 | 00:00:00 | 00:00:00 | |
| DL3OBA | 2026-09-02 11:11:17 | 52.52790 | 8.21002 | 327° | 40km/h | 22912m | -16.1m/s | -50.9°C | 0.8% | 37.0hPa | 2.6V | 00:00:00 | 00:00:00 | 00:00:00 | |
| GOEST3-10 | 2026-09-02 11:11:16 | 52.52780 | 8.21005 | 12° | 46km/h | 22928m | -17.5m/s | -50.9°C | 3.4% | 36.9hPa | 2.6V | 00:00:00 | 00:00:00 | 00:00:00 | |
| DL1XH1-15 | 2026-09-02 11:11:14 | 52.52786 | 8.20975 | 332° | 33km/h | 23036m | -17.3m/s | -51°C | 3.4% | 36.3hPa | 2.6V | 08:27:20 | 01:34:03 | 00:00:00 | |
| BIOWL1-15 | 2026-09-02 11:11:12 | 52.52790 | 8.20966 | 272° | 29km/h | 23020m | -17.3m/s | -51°C | 0.1% | 36.2hPa | 2.6V | 08:27:53 | 01:34:04 | 00:00:00 | |
| DL1XH-west | 2026-09-02 11:11:11 | 52.52786 | 8.20955 | 219° | 37km/h | 23004m | -16.3m/s | -51°C | 0.2% | 36.5hPa | 2.7V | 08:27:53 | 01:34:05 | 00:00:00 | |
| DF8AY | 2026-09-02 11:11:09 | 52.52786 | 8.20975 | 333° | 33km/h | 23036m | -17.3m/s | -51°C | 0.1% | 36.3hPa | 2.6V | 08:28:44 | 01:34:03 | 00:00:00 | |
| HSKMA3-T | 2026-09-02 11:11:07 | 52.52771 | 8.20962 | 75° | 47km/h | 23067m | -18m/s | -50.9°C | 0.1% | 36hPa | 2.7V | 08:27:53 | 01:34:01 | 00:00:00 | |
| AU51GT2 | 2026-09-02 11:11:07 | 52.52771 | 8.20962 | 75° | 47km/h | 23067m | -18.0m/s | -50.9°C | 0.8% | 36.0hPa | 2.7V | 00:00:00 | 00:00:00 | 00:00:00 | |
| GOEST3-10 | 2026-09-02 11:11:06 | 52.52771 | 8.20941 | 109° | 53km/h | 23084m | -17.9m/s | -50.8°C | 3.4% | 36.0hPa | 2.7V | 00:00:00 | 00:00:00 | 00:00:00 | |
| EDDB2-12 | 2026-09-02 11:11:04 | 52.52802 | 8.20916 | 211° | 38km/h | 23131m | -17.1m/s | -50.5°C | 0.8% | 35.7hPa | 2.7V | 00:00:00 | 00:00:00 | 00:00:00 | |
| DD8BA-10 | 2026-09-02 11:11:03 | 52.52802 | 8.20916 | 212° | 42km/h | 23131m | -17.1m/s | -50.5°C | 3.3% | 35.6hPa | 2.7V | 00:00:00 | 00:00:00 | 00:00:00 | |
| DL1XH1-15 | 2026-09-02 11:11:02 | 52.52794 | 8.20924 | 76° | 44km/h | 23194m | -17.2m/s | -50.3°C | 3.3% | 35.4hPa | 2.7V | 08:27:30 | 01:33:53 | 00:00:00 | |
| DL1XH-west | 2026-09-02 11:11:01 | 52.52806 | 8.20935 | 326° | 26km/h | 23164m | -16.6m/s | -50.3°C | 0.1% | 35.5hPa | 2.7V | 08:27:53 | 01:33:55 | 00:00:00 | |
| AA1-15 | 2026-09-02 11:11:00 | 52.52799 | 8.20935 | 28° | 33km/h | 23179m | -16.2m/s | -50.3°C | 0% | 35.5hPa | 2.7V | 08:27:53 | 01:33:54 | 00:00:00 | |
| DL3AQ-11 | 2026-09-02 11:10:58 | 52.52830 | 8.20897 | 228° | 49km/h | 23263m | -15.8m/s | -50.4°C | 0.8% | 35.1hPa | 2.7V | 00:00:00 | 00:00:00 | 00:00:00 | |
| DL1XH-15 | 2026-09-02 11:10:57 | 52.52830 | 8.20897 | 228° | 49km/h | 23263m | -15.8m/s | -50.4°C | 3.3% | 35.1hPa | 2.7V | 08:27:34 | 01:33:49 | 00:00:00 | |
| HSKMA3-T | 2026-09-02 11:10:57 | 52.52805 | 8.20891 | 156° | 57km/h | 23229m | -18.4m/s | -50.4°C | 0.1% | 35.2hPa | 2.6V | 08:27:53 | 01:33:51 | 00:00:00 | |
| DF8AY | 2026-09-02 11:10:56 | 52.52819 | 8.20888 | 190° | 55km/h | 23246m | -17m/s | -50.4°C | 0.1% | 35.1hPa | 2.6V | 08:28:44 | 01:33:50 | 00:00:00 | |
| DL1XH-west | 2026-09-02 11:10:50 | 52.52823 | 8.20912 | 136° | 44km/h | 23340m | -18.4m/s | -50.2°C | 0% | 34.6hPa | 2.6V | 08:27:53 | 01:33:44 | 00:00:00 | |
| AA1-15 | 2026-09-02 11:10:49 | 52.52833 | 8.20905 | 175° | 47km/h | 23358m | -16.2m/s | -50.3°C | 0% | 34.5hPa | 2.7V | 08:27:53 | 01:33:43 | 00:00:00 | |
| HSKMA3-T | 2026-09-02 11:10:47 | 52.52853 | 8.20926 | 247° | 55km/h | 23389m | -18.4m/s | -50.4°C | 0.1% | 34.3hPa | 2.7V | 08:27:53 | 01:33:41 | 00:00:00 | |
| DM0DOS-11 | 2026-09-02 11:10:47 | 52.52838 | 8.20939 | 125° | 40km/h | 23470m | -17m/s | -50.5°C | 3.3% | 33.9hPa | 2.7V | 08:27:47 | 01:33:36 | 00:00:00 | |
| BIOWL1-15 | 2026-09-02 11:10:46 | 52.52854 | 8.20945 | 285° | 47km/h | 23407m | -18.4m/s | -50.4°C | 0% | 34.2hPa | 2.6V | 08:27:53 | 01:33:40 | 00:00:00 | |
| GOEST3-10 | 2026-09-02 11:10:46 | 52.52854 | 8.20945 | 285° | 38km/h | 23407m | -18.4m/s | -50.3°C | 3.2% | 34.1hPa | 2.6V | 00:00:00 | 00:00:00 | 00:00:00 | |
| SMARD9-10 | 2026-09-02 11:10:45 | 52.52854 | 8.20945 | 286° | 47km/h | 23407m | -18.4m/s | -50.4°C | 0.8% | 34.2hPa | 2.6V | 08:27:00 | 00:00:00 | 00:00:00 | |
| DO3DL | 2026-09-02 11:10:44 | 52.52848 | 8.20959 | 329° | 38km/h | 23424m | -17.4m/s | -50.4°C | 0.8% | 34.2hPa | 2.6V | 08:27:00 | 00:00:00 | 00:00:00 | |
| DD8BA-10 | 2026-09-02 11:10:43 | 52.52836 | 8.20952 | 85° | 42km/h | 23455m | -16.5m/s | -50.4°C | 3.3% | 33.9hPa | 2.6V | 00:00:00 | 00:00:00 | 00:00:00 | |
| DL1XH1-15 | 2026-09-02 11:10:42 | 52.52861 | 8.20948 | 259° | 42km/h | 23521m | -17.8m/s | -50.7°C | 3.4% | 33.6hPa | 2.6V | 08:27:50 | 01:33:33 | 00:00:00 | |
| DL1XH-west | 2026-09-02 11:10:40 | 52.52856 | 8.20935 | 214° | 42km/h | 23505m | -16.7m/s | -50.6°C | 0.1% | 33.7hPa | 2.6V | 08:27:53 | 01:33:34 | 00:00:00 | |
| AA1-15 | 2026-09-02 11:10:38 | 52.52859 | 8.20964 | 306° | 44km/h | 23538m | -17m/s | -50.8°C | 0.2% | 33.6hPa | 2.6V | 08:27:53 | 01:33:32 | 00:00:00 | |
| DL1XH-15 | 2026-09-02 11:10:37 | 52.52834 | 8.20952 | 81° | 47km/h | 23585m | -16.9m/s | -50.6°C | 3.4% | 33.3hPa | 2.6V | 08:27:54 | 01:33:29 | 00:00:00 | |
| HSKMA3-T | 2026-09-02 11:10:36 | 52.52840 | 8.20967 | 39° | 46km/h | 23570m | -16.6m/s | -50.7°C | 0.2% | 33.3hPa | 2.7V | 08:27:53 | 01:33:30 | 00:00:00 | |
| BIOWL1-15 | 2026-09-02 11:10:35 | 52.52853 | 8.20934 | 277° | 31km/h | 23653m | -18.1m/s | -50.5°C | 0.1% | 33hPa | 2.6V | 08:28:44 | 01:33:25 | 00:00:00 | |
| DM0DOS-11 | 2026-09-02 11:10:35 | 52.52850 | 8.20924 | 218° | 27km/h | 23636m | -16.4m/s | -50.5°C | 3.4% | 33hPa | 2.7V | 08:27:57 | 01:33:26 | 00:00:00 | |
| DL1XH1-15 | 2026-09-02 11:10:35 | 52.52838 | 8.20947 | 9° | 46km/h | 23688m | -17.6m/s | -50.4°C | 3.3% | 32.8hPa | 2.7V | 08:28:00 | 01:33:23 | 00:00:00 | |
| DF8AY | 2026-09-02 11:10:33 | 52.52843 | 8.20923 | 161° | 40km/h | 23619m | -18.8m/s | -50.5°C | 0.1% | 33.1hPa | 2.7V | 08:28:44 | 01:33:27 | 00:00:00 | |
| EDDB2-12 | 2026-09-02 11:10:33 | 52.52850 | 8.20924 | 218° | 27km/h | 23637m | -16.4m/s | -50.5°C | 0.8% | 33.0hPa | 2.7V | 00:00:00 | 00:00:00 | 00:00:00 | |
| D01LWL | 2026-09-02 11:10:32 | 52.52850 | 8.20924 | 218° | 27km/h | 23637m | -16.4m/s | -50.5°C | 0.8% | 33.0hPa | 2.7V | 00:00:00 | 00:00:00 | 00:00:00 | |
| DD1CC8 | 2026-09-02 11:10:31 | 52.52848 | 8.20945 | 328° | 38km/h | 23671m | -17.9m/s | -50.4°C | 0.8% | 32.9hPa | 2.7V | 00:00:00 | 00:00:00 | 00:00:00 | |
| DL1XH-15 | 2026-09-02 11:10:30 | 52.52834 | 8.20888 | 163° | 37km/h | 23756m | -15.9m/s | -50.1°C | 3.2% | 32.4hPa | 2.7V | 08:28:04 | 01:33:19 | 00:00:00 | |
| DO2JMG | 2026-09-02 11:10:29 | 52.52838 | 8.20947 | 9° | 46km/h | 23688m | -17.6m/s | -50.4°C | 0% | 32.8hPa | 2.7V | 08:28:44 | 01:33:23 | 00:00:00 | |
| AA1-15 | 2026-09-02 11:10:27 | 52.52823 | 8.20918 | 87° | 55km/h | 23721m | -18.9m/s | -50.2°C | 0.1% | 32.6hPa | 2.6V | 08:28:44 | 01:33:21 | 00:00:00 | |
| HSKMA3-T | 2026-09-02 11:10:25 | 52.52834 | 8.20888 | 164° | 37km/h | 23756m | -15.9m/s | -50.1°C | 0% | 32.5hPa | 2.7V | 08:28:44 | 01:33:19 | 00:00:00 | |
| BIOWL1-15 | 2026-09-02 11:10:25 | 52.52842 | 8.20915 | 316° | 35km/h | 23807m | -17.3m/s | -50°C | 0% | 32.2hPa | 2.6V | 08:28:44 | 01:33:16 | 00:00:00 | |
| DL1XH-west | 2026-09-02 11:10:18 | 52.52827 | 8.20886 | 144° | 38km/h | 23874m | -17.1m/s | -49.7°C | 0% | 31.8hPa | 2.7V | 08:28:44 | 01:33:12 | 00:00:00 | |
| DJ2KF-10 | 2026-09-02 11:10:18 | 52.52827 | 8.20886 | 145° | 42km/h | 23874m | -17.1m/s | -49.6°C | 3.1% | 31.8hPa | 2.6V | 00:00:00 | 01:33:12 | 00:00:00 | |
| DL1XH-15 | 2026-09-02 11:10:17 | 52.52849 | 8.20910 | 271° | 49km/h | 23925m | -17.7m/s | -49.9°C | 3.1% | 31.6hPa | 2.6V | 08:28:14 | 01:33:09 | 00:00:00 | |
| AA1-15 | 2026-09-02 11:10:17 | 52.52837 | 8.20883 | 196° | 42km/h | 23890m | -17.6m/s | -49.7°C | 0% | 31.8hPa | 2.6V | 08:28:44 | 01:33:11 | 00:00:00 | |
| HSKMA3-T | 2026-09-02 11:10:14 | 52.52845 | 8.20928 | 308° | 47km/h | 23943m | -18.3m/s | -50.1°C | 0% | 31.6hPa | 2.7V | 08:28:44 | 01:33:08 | 00:00:00 | |
| DO1YAY-16 | 2026-09-02 11:10:12 | 52.52828 | 8.20937 | 29° | 33km/h | 23976m | -17.1m/s | -50.3°C | 0.8% | 31.3hPa | 2.6V | 00:00:00 | 00:00:00 | 00:00:00 | |
| DL1XH1-15 | 2026-09-02 11:10:11 | 52.52836 | 8.20922 | 203° | 46km/h | 24026m | -16.8m/s | -50.4°C | 3.3% | 31.1hPa | 2.6V | 08:28:20 | 01:33:03 | 00:00:00 | |
| BIOWL1-15 | 2026-09-02 11:10:11 | 52.52824 | 8.20928 | 93° | 27km/h | 23993m | -19.1m/s | -50.4°C | 0.1% | 31.3hPa | 2.6V | 08:28:44 | 01:33:05 | 00:00:00 | |
| GOEST3-10 | 2026-09-02 11:10:11 | 52.52824 | 8.20928 | 94° | 44km/h | 23993m | -19.0m/s | -50.3°C | 3.3% | 31.3hPa | 2.6V | 00:00:00 | 01:33:05 | 00:00:00 | |
| DL1XH-15 | 2026-09-02 11:10:10 | 52.52832 | 8.20990 | 345° | 46km/h | 24097m | -17.7m/s | -50.6°C | 3.3% | 30.8hPa | 2.6V | 08:28:24 | 01:32:59 | 00:00:00 | |
| DO2JMG | 2026-09-02 11:10:08 | 52.52845 | 8.20935 | 243° | 51km/h | 24044m | -19m/s | -50.4°C | 0% | 31hPa | 2.7V | 08:28:44 | 01:33:02 | 00:00:00 | |
| DL1XH-west | 2026-09-02 11:10:07 | 52.52847 | 8.20957 | 276° | 60km/h | 24062m | -19.2m/s | -50.4°C | 0% | 30.9hPa | 2.7V | 08:28:44 | 01:33:01 | 00:00:00 | |
| AA1-15 | 2026-09-02 11:10:07 | 52.52842 | 8.20978 | 307° | 55km/h | 24080m | -18.7m/s | -50.5°C | 0% | 30.9hPa | 2.7V | 08:28:44 | 01:33:00 | 00:00:00 | |
| DL4XJ-10 | 2026-09-02 11:10:06 | 52.52842 | 8.20978 | 308° | 44km/h | 24080m | -18.6m/s | -51.3°C | 0% | 0hPa | 2.6V | 00:00:00 | 00:00:00 | 00:00:00 | |
| DL1XH1-15 | 2026-09-02 11:10:04 | 52.52836 | 8.21000 | 286° | 49km/h | 24202m | -20.5m/s | -50.8°C | 3.3% | 30.2hPa | 2.6V | 08:28:30 | 01:32:53 | 00:00:00 | |
| HSKMA3-T | 2026-09-02 11:10:03 | 52.52818 | 8.20980 | 89° | 27km/h | 24129m | -18.2m/s | -50.6°C | 0.1% | 30.6hPa | 2.6V | 08:28:44 | 01:32:57 | 00:00:00 | |
| BIOWL1-15 | 2026-09-02 11:10:01 | 52.52829 | 8.20971 | 203° | 38km/h | 24164m | -19.5m/s | -50.7°C | 0.1% | 30.4hPa | 2.7V | 08:28:44 | 01:32:55 | 00:00:00 | |
| DF8AY | 2026-09-02 11:09:58 | 52.52829 | 8.21016 | 323° | 51km/h | 24221m | -19.1m/s | -50.7°C | 0% | 30.2hPa | 2.6V | 08:28:44 | 01:32:52 | 00:00:00 | |
| DL4BBY-15 | 2026-09-02 11:09:58 | 52.52829 | 8.21016 | 323° | 42km/h | 24221m | -19.0m/s | -51.5°C | 0% | 0hPa | 2.7V | 00:00:00 | 00:00:00 | 00:00:00 | |
| DL1XH-15 | 2026-09-02 11:09:57 | 52.52802 | 8.21000 | 86° | 42km/h | 24273m | -18m/s | -50.7°C | 3.3% | 29.9hPa | 2.7V | 08:28:34 | 01:32:49 | 00:00:00 | |
| DL1XH-west | 2026-09-02 11:09:57 | 52.52817 | 8.21022 | 4° | 53km/h | 24238m | -18.9m/s | -50.8°C | 0.1% | 30.1hPa | 2.6V | 08:28:44 | 01:32:51 | 00:00:00 | |
| AA1-15 | 2026-09-02 11:09:56 | 52.52806 | 8.21015 | 49° | 44km/h | 24255m | -18.4m/s | -50.7°C | 0% | 30hPa | 2.7V | 08:28:44 | 01:32:50 | 00:00:00 | |
| GOEST3-10 | 2026-09-02 11:09:56 | 52.52806 | 8.21015 | 49° | 37km/h | 24256m | -18.3m/s | -50.7°C | 3.3% | 30.0hPa | 2.7V | 00:00:00 | 00:00:00 | 00:00:00 | |
| DL1XH1-15 | 2026-09-02 11:09:54 | 52.52798 | 8.21008 | 12° | 57km/h | 24385m | -18.6m/s | -50.7°C | 3.2% | 29.5hPa | 2.7V | 08:28:40 | 01:32:43 | 00:00:00 | |
| HSKMA3-T | 2026-09-02 11:09:52 | 52.52817 | 8.20984 | 238° | 29km/h | 24328m | -18.3m/s | -50.5°C | 0.1% | 29.6hPa | 2.6V | 08:28:44 | 01:32:46 | 00:00:00 | |
| BIOWL1-15 | 2026-09-02 11:09:51 | 52.52817 | 8.20995 | 296° | 38km/h | 24347m | -20.1m/s | -50.5°C | 0% | 29.6hPa | 2.6V | 08:28:44 | 01:32:45 | 00:00:00 | |
| BIOWL9-15 | 2026-09-02 11:09:51 | 52.52810 | 8.21006 | 334° | 46km/h | 24367m | -18.6m/s | -50.6°C | 0.8% | 29.5hPa | 2.6V | 00:00:00 | 00:00:00 | 00:00:00 | |
| DL1XH-15 | 2026-09-02 11:09:50 | 52.52791 | 8.20952 | 173° | 35km/h | 24455m | -18.9m/s | -50.9°C | 3.4% | 29.1hPa | 2.6V | 08:28:44 | 01:32:39 | 00:00:00 | |
| DL1XH-west | 2026-09-02 11:09:46 | 52.52783 | 8.20961 | 126° | 46km/h | 24437m | -18.5m/s | -50.9°C | 0.1% | 29.2hPa | 2.6V | 08:28:44 | 01:32:40 | 00:00:00 | |
| AA1-15 | 2026-09-02 11:09:45 | 52.52791 | 8.20952 | 174° | 35km/h | 24455m | -18.9m/s | -50.9°C | 0.1% | 29.1hPa | 2.6V | 08:28:44 | 01:32:39 | 00:00:00 | |
| DL3OBA | 2026-09-02 11:09:43 | 52.52799 | 8.20955 | 219° | 35km/h | 24473m | -20.1m/s | -50.9°C | 0.8% | 29.1hPa | 2.6V | 08:29:00 | 00:00:00 | 00:00:00 | |
| DL1XH1-15 | 2026-09-02 11:09:42 | 52.52777 | 8.20950 | 99° | 51km/h | 24567m | -18.4m/s | -51°C | 3.4% | 28.6hPa | 2.6V | 08:28:50 | 01:32:33 | 00:00:00 | |
| HSKMA3-T | 2026-09-02 11:09:41 | 52.52788 | 8.20979 | 15° | 46km/h | 24531m | -19.1m/s | -51°C | 0.1% | 28.8hPa | 2.6V | 08:29:35 | 01:32:35 | 00:00:00 | |
| BIOWL1-15 | 2026-09-02 11:09:40 | 52.52781 | 8.20933 | 133° | 46km/h | 24585m | -17.4m/s | -51°C | 0.2% | 28.5hPa | 2.7V | 08:29:35 | 01:32:32 | 00:00:00 | |
| DD8BA-10 | 2026-09-02 11:09:39 | 52.52777 | 8.20950 | 100° | 44km/h | 24567m | -18.4m/s | -51.0°C | 3.4% | 28.6hPa | 2.6V | 00:00:00 | 00:00:00 | 00:00:00 | |
| DO3DL | 2026-09-02 11:09:38 | 52.52777 | 8.20950 | 100° | 51km/h | 24567m | -18.4m/s | -51.0°C | 0.8% | 28.6hPa | 2.6V | 08:29:00 | 00:00:00 | 00:00:00 | |
| DL1XH-15 | 2026-09-02 11:09:37 | 52.52803 | 8.20943 | 271° | 35km/h | 24642m | -19.7m/s | -51°C | 3.4% | 28.3hPa | 2.6V | 08:28:54 | 01:32:29 | 00:00:00 | |
| DM0DOS-11 | 2026-09-02 11:09:36 | 52.52783 | 8.20953 | 44° | 44km/h | 24696m | -16.1m/s | -50.9°C | 3.3% | 28.1hPa | 2.6V | 08:28:57 | 01:32:26 | 00:00:00 | |
| DL1XH-west | 2026-09-02 11:09:36 | 52.52800 | 8.20930 | 225° | 40km/h | 24622m | -20.5m/s | -51°C | 0.1% | 28.4hPa | 2.6V | 08:29:35 | 01:32:30 | 00:00:00 | |
| DF8AY | 2026-09-02 11:09:36 | 52.52803 | 8.20943 | 272° | 35km/h | 24642m | -19.7m/s | -51°C | 0.1% | 28.3hPa | 2.6V | 08:29:35 | 01:32:29 | 00:00:00 | |
| AA1-15 | 2026-09-02 11:09:34 | 52.52799 | 8.20955 | 318° | 35km/h | 24661m | -19.4m/s | -51°C | 0.1% | 28.2hPa | 2.7V | 08:29:35 | 01:32:28 | 00:00:00 | |
| HSKMA3-T | 2026-09-02 11:09:30 | 52.52777 | 8.20918 | 99° | 47km/h | 24731m | -19.4m/s | -50.8°C | 0.1% | 28hPa | 2.7V | 08:29:35 | 01:32:24 | 00:00:00 | |
| DO2JMG | 2026-09-02 11:09:26 | 52.52795 | 8.20884 | 203° | 22km/h | 24796m | -15.1m/s | -50.8°C | 0.1% | 27.7hPa | 2.7V | 08:29:35 | 01:32:20 | 00:00:00 | |
| DL1XH-west | 2026-09-02 11:09:25 | 52.52800 | 8.20888 | 214° | 22km/h | 24812m | -16.6m/s | -50.9°C | 0.1% | 27.6hPa | 2.7V | 08:29:35 | 01:32:19 | 00:00:00 | |
| DB0DAN | 2026-09-02 11:09:25 | 52.52800 | 8.20888 | 214° | 20km/h | 24812m | -16.6m/s | -50.9°C | 0.8% | 27.6hPa | 2.7V | 00:00:00 | 00:00:00 | 00:00:00 | |
| AA1-15 | 2026-09-02 11:09:24 | 52.52805 | 8.20891 | 194° | 24km/h | 24828m | -16.2m/s | -50.9°C | 0.1% | 27.6hPa | 2.6V | 08:29:35 | 01:32:18 | 00:00:00 | |
| DM0DOS-11 | 2026-09-02 11:09:24 | 52.52819 | 8.20895 | 185° | 33km/h | 24860m | -18.3m/s | -50.9°C | 3.4% | 27.4hPa | 2.7V | 08:29:07 | 01:32:16 | 00:00:00 | |
| DF8AY | 2026-09-02 11:09:21 | 52.52850 | 8.20850 | 89° | 38km/h | 24952m | -19.8m/s | -50.8°C | 0.1% | 27hPa | 2.7V | 08:29:35 | 01:32:11 | 00:00:00 | |
| HSKMA3-T | 2026-09-02 11:09:20 | 52.52835 | 8.20888 | 146° | 37km/h | 24895m | -17.8m/s | -50.9°C | 0.2% | 27.3hPa | 2.6V | 08:29:35 | 01:32:14 | 00:00:00 | |
| SMARD9-10 | 2026-09-02 11:09:19 | 52.52835 | 8.20888 | 147° | 37km/h | 24895m | -17.8m/s | -50.9°C | 0.8% | 27.3hPa | 2.6V | 00:00:00 | 00:00:00 | 00:00:00 | |
| DL4XJ-10 | 2026-09-02 11:09:18 | 52.52847 | 8.20865 | 117° | 44km/h | 24933m | -20.3m/s | -51.6°C | 0% | 0hPa | 2.6V | 00:00:00 | 00:00:00 | 00:00:00 | |
| DM0DOS-11 | 2026-09-02 11:09:17 | 52.52812 | 8.20839 | 293° | 47km/h | 25052m | -17.9m/s | -50.9°C | 3.4% | 26.5hPa | 2.6V | 08:29:17 | 01:32:06 | 00:00:00 | |
| BIOWL1-15 | 2026-09-02 11:09:15 | 52.52830 | 8.20821 | 354° | 46km/h | 25014m | -20.2m/s | -50.9°C | 0.1% | 26.7hPa | 2.6V | 08:29:35 | 01:32:08 | 00:00:00 | |
| DL1XH-west | 2026-09-02 11:09:15 | 52.52840 | 8.20824 | 24° | 42km/h | 24992m | -22.1m/s | -50.8°C | 0.1% | 26.8hPa | 2.7V | 08:29:35 | 01:32:09 | 00:00:00 | |
| AA1-15 | 2026-09-02 11:09:14 | 52.52820 | 8.20826 | 330° | 47km/h | 25034m | -19.6m/s | -50.9°C | 0.2% | 26.7hPa | 2.6V | 08:29:35 | 01:32:07 | 00:00:00 | |
| DF8AY | 2026-09-02 11:09:10 | 52.52815 | 8.20869 | 210° | 33km/h | 25087m | -18.3m/s | -50.9°C | 0.2% | 26.4hPa | 2.7V | 08:29:35 | 01:32:04 | 00:00:00 | |
| HSKMA3-T | 2026-09-02 11:09:09 | 52.52821 | 8.20869 | 147° | 24km/h | 25106m | -19.4m/s | -50.8°C | 0.2% | 26.4hPa | 2.7V | 08:29:35 | 01:32:03 | 00:00:00 | |
| DL1XH-west | 2026-09-02 11:09:05 | 52.52799 | 8.20842 | 351° | 51km/h | 25177m | -16.6m/s | -50.8°C | 0.2% | 26.1hPa | 2.7V | 08:29:35 | 01:31:59 | 00:00:00 | |
| AA1-15 | 2026-09-02 11:09:03 | 52.52778 | 8.20857 | 321° | 44km/h | 25211m | -15.7m/s | -50.8°C | 0.2% | 26hPa | 2.7V | 08:29:35 | 01:31:57 | 00:00:00 | |
| HSKMA3-T | 2026-09-02 11:08:59 | 52.52756 | 8.20908 | 291° | 37km/h | 25277m | -18.9m/s | -50.5°C | 0.2% | 25.7hPa | 2.7V | 08:29:35 | 01:31:53 | 00:00:00 | |
| DF8AY | 2026-09-02 11:08:57 | 52.52752 | 8.20934 | 269° | 29km/h | 25312m | -16.3m/s | -50.4°C | 0.2% | 25.5hPa | 2.7V | 08:29:35 | 01:31:51 | 00:00:00 | |
| DL1XH-15 | 2026-09-02 11:08:57 | 52.52759 | 8.20952 | 207° | 27km/h | 25343m | -16m/s | -50.3°C | 3.5% | 25.4hPa | 2.6V | 08:29:34 | 01:31:49 | 00:00:00 | |
| DM0DOS-11 | 2026-09-02 11:08:57 | 52.52774 | 8.20974 | 259° | 20km/h | 25401m | -21.8m/s | -50.1°C | 3.5% | 25.2hPa | 2.7V | 08:30:00 | 01:31:46 | 00:00:00 | |
| BIOWL1-15 | 2026-09-02 11:08:54 | 52.52774 | 8.20974 | 259° | 22km/h | 25401m | -21.8m/s | -50.1°C | 0.2% | 25.2hPa | 2.7V | 18:12:15 | 01:31:46 | 00:00:00 | |
| DL1XH-west | 2026-09-02 11:08:54 | 52.52765 | 8.20958 | 212° | 31km/h | 25360m | -19.8m/s | -50.2°C | 0.2% | 25.4hPa | 2.6V | 08:29:35 | 01:31:48 | 00:00:00 | |
| AA1-15 | 2026-09-02 11:08:53 | 52.52771 | 8.20966 | 226° | 26km/h | 25380m | -21.1m/s | -50°C | 0.2% | 25.3hPa | 2.7V | 18:12:15 | 01:31:47 | 00:00:00 | |
| DO3DL | 2026-09-02 11:08:52 | 52.52771 | 8.20966 | 227° | 26km/h | 25380m | -21.1m/s | -50.0°C | 0.8% | 25.3hPa | 2.6V | 00:00:00 | 00:00:00 | 00:00:00 | |
| DL1XH1-15 | 2026-09-02 11:08:51 | 52.52757 | 8.20985 | 26° | 44km/h | 25459m | -21.6m/s | -49.9°C | 3.3% | 25hPa | 2.6V | 08:30:00 | 01:31:43 | 00:00:00 | |
| GOEST3-10 | 2026-09-02 11:08:51 | 52.52772 | 8.20982 | 310° | 42km/h | 25422m | -19.2m/s | -50.0°C | 3.5% | 25.1hPa | 2.7V | 00:00:00 | 01:31:45 | 00:00:00 | |
| DL1XH-15 | 2026-09-02 11:08:50 | 52.52746 | 8.20910 | 124° | 53km/h | 25542m | -21m/s | -49.6°C | 3.4% | 24.6hPa | 2.7V | 08:30:00 | 01:31:39 | 00:00:00 | |
| HSKMA3-T | 2026-09-02 11:08:49 | 52.52757 | 8.20985 | 27° | 44km/h | 25459m | -21.7m/s | -49.9°C | 0.1% | 25hPa | 2.6V | 18:12:15 | 01:31:43 | 00:00:00 | |
| BIOWL9-15 | 2026-09-02 11:08:49 | 52.52748 | 8.20973 | 48° | 49km/h | 25480m | -21.5m/s | -49.8°C | 0.8% | 24.9hPa | 2.6V | 00:00:00 | 00:00:00 | 00:00:00 | |
| DM0DOS-11 | 2026-09-02 11:08:47 | 52.52769 | 8.20906 | 274° | 26km/h | 25602m | -20.9m/s | -49.5°C | 3.3% | 24.4hPa | 2.6V | 08:30:00 | 01:31:36 | 00:00:00 | |
| DF8AY | 2026-09-02 11:08:47 | 52.52741 | 8.20931 | 100° | 60km/h | 25521m | -20.8m/s | -49.7°C | 0.1% | 24.7hPa | 2.7V | 18:12:15 | 01:31:40 | 00:00:00 | |
| EDDB2-11 | 2026-09-02 11:08:46 | 52.52746 | 8.20910 | 124° | 53km/h | 25542m | -21.0m/s | -49.6°C | 0.8% | 24.6hPa | 2.7V | 00:00:00 | 00:00:00 | 00:00:00 | |
| DL3AQ-11 | 2026-09-02 11:08:45 | 52.52765 | 8.20898 | 211° | 33km/h | 25581m | -20.1m/s | -49.5°C | 0.7% | 24.5hPa | 2.7V | 00:00:00 | 00:00:00 | 00:00:00 | |
| DL1XH1-15 | 2026-09-02 11:08:44 | 52.52745 | 8.20903 | 56° | 51km/h | 25662m | -20.7m/s | -49.2°C | 3.2% | 24.1hPa | 2.7V | 08:30:00 | 01:31:33 | 00:00:00 | |
| BIOWL1-15 | 2026-09-02 11:08:43 | 52.52764 | 8.20914 | 338° | 38km/h | 25622m | -21.2m/s | -49.5°C | 0.1% | 24.3hPa | 2.7V | 18:12:15 | 01:31:35 | 00:00:00 | |
| DO2JMG | 2026-09-02 11:08:43 | 52.52765 | 8.20898 | 211° | 35km/h | 25581m | -20.1m/s | -49.5°C | 0.1% | 24.5hPa | 2.6V | 18:12:15 | 01:31:37 | 00:00:00 | |
| AA1-15 | 2026-09-02 11:08:42 | 52.52769 | 8.20906 | 275° | 26km/h | 25602m | -20.9m/s | -49.5°C | 0.1% | 24.4hPa | 2.6V | 18:12:15 | 01:31:36 | 00:00:00 | |
| HSKMA3-T | 2026-09-02 11:08:38 | 52.52742 | 8.20882 | 90° | 57km/h | 25682m | -21.4m/s | -49.2°C | 0.1% | 24.1hPa | 2.6V | 18:12:15 | 01:31:32 | 00:00:00 | |
| DL1XH-15 | 2026-09-02 11:08:37 | 52.52761 | 8.20853 | 219° | 33km/h | 25742m | -21.6m/s | -48.7°C | 3.1% | 23.9hPa | 2.7V | 08:30:00 | 01:31:29 | 00:00:00 | |
| DF8AY | 2026-09-02 11:08:35 | 52.52761 | 8.20853 | 219° | 33km/h | 25742m | -21.6m/s | -48.7°C | 0% | 23.9hPa | 2.7V | 18:12:15 | 01:31:29 | 00:00:00 | |
| DO2JMG | 2026-09-02 11:08:33 | 52.52753 | 8.20876 | 9° | 44km/h | 25806m | -20.1m/s | -48.6°C | 0% | 23.7hPa | 2.6V | 18:12:15 | 01:31:26 | 00:00:00 | |
| DL1XH1-15 | 2026-09-02 11:08:32 | 52.52742 | 8.20831 | 118° | 49km/h | 25868m | -22.4m/s | -48.6°C | 3.1% | 23.4hPa | 2.6V | 08:30:00 | 01:31:23 | 00:00:00 | |
| AA1-15 | 2026-09-02 11:08:31 | 52.52743 | 8.20867 | 51° | 46km/h | 25826m | -21.3m/s | -48.6°C | 0% | 23.6hPa | 2.7V | 18:12:15 | 01:31:25 | 00:00:00 | |
| DO9LL-15 | 2026-09-02 11:08:31 | 52.52743 | 8.20867 | 51° | 35km/h | 25826m | -21.2m/s | -48.6°C | 3.0% | 23.5hPa | 2.6V | 00:00:00 | 01:31:25 | 00:00:00 | |
| DL1XH-15 | 2026-09-02 11:08:30 | 52.52771 | 8.20836 | 261° | 37km/h | 25948m | -21.5m/s | -48.6°C | 3.1% | 23.2hPa | 2.6V | 08:30:00 | 01:31:19 | 00:00:00 | |
| HSKMA3-T | 2026-09-02 11:08:27 | 52.52759 | 8.20816 | 191° | 40km/h | 25908m | -19m/s | -48.6°C | 0% | 23.3hPa | 2.7V | 18:12:15 | 01:31:21 | 00:00:00 | |
| DF8AY | 2026-09-02 11:08:26 | 52.52772 | 8.20836 | 261° | 37km/h | 25948m | -21.5m/s | -48.6°C | 0% | 23.2hPa | 2.6V | 18:12:15 | 01:31:19 | 00:00:00 | |
| DB0DAN | 2026-09-02 11:08:25 | 52.52772 | 8.20836 | 261° | 35km/h | 25948m | -21.5m/s | -48.6°C | 0.7% | 23.17hPa | 2.6V | 00:00:00 | 00:00:00 | 00:00:00 | |
| DL1XH-west | 2026-09-02 11:08:22 | 52.52761 | 8.20861 | 6° | 24km/h | 26010m | -17.8m/s | -48.9°C | 0.1% | 22.9hPa | 2.7V | 18:12:15 | 01:31:16 | 00:00:00 | |
| AA1-15 | 2026-09-02 11:08:21 | 52.52756 | 8.20856 | 48° | 27km/h | 26027m | -16.6m/s | -48.9°C | 0.1% | 22.9hPa | 2.6V | 18:12:15 | 01:31:15 | 00:00:00 | |
| DD8BA-10 | 2026-09-02 11:08:21 | 52.52756 | 8.20856 | 48° | 40km/h | 26028m | -16.5m/s | -48.9°C | 3.2% | 22.8hPa | 2.6V | 00:00:00 | 00:00:00 | 00:00:00 | |
| BUE01 | 2026-09-02 11:08:19 | 52.52751 | 8.20829 | 85° | 38km/h | 26063m | -17.4m/s | -48.7°C | 0.7% | 22.8hPa | 2.6V | 00:00:00 | 00:00:00 | 00:00:00 | |
| DL3AQ-11 | 2026-09-02 11:08:18 | 52.52750 | 8.20796 | 87° | 42km/h | 26097m | -18.1m/s | -48.5°C | 0.7% | 22.7hPa | 2.6V | 00:00:00 | 00:00:00 | 00:00:00 | |
| DL1XH-15 | 2026-09-02 11:08:17 | 52.52749 | 8.20758 | 85° | 47km/h | 26134m | -19.8m/s | -48.4°C | 3.2% | 22.5hPa | 2.6V | 08:30:00 | 01:31:09 | 00:00:00 | |
| HSKMA3-T | 2026-09-02 11:08:16 | 52.52750 | 8.20777 | 88° | 47km/h | 26115m | -18.2m/s | -48.5°C | 0.1% | 22.6hPa | 2.6V | 18:12:15 | 01:31:10 | 00:00:00 | |
| DF8AY | 2026-09-02 11:08:14 | 52.52748 | 8.20738 | 81° | 47km/h | 26154m | -20.7m/s | -48.3°C | 0.1% | 22.5hPa | 2.7V | 18:12:15 | 01:31:08 | 00:00:00 | |
| DM0DOS-11 | 2026-09-02 11:08:13 | 52.52743 | 8.20706 | 63° | 33km/h | 26195m | -19.6m/s | -48.2°C | 3.2% | 22.3hPa | 2.7V | 08:30:00 | 01:31:06 | 00:00:00 | |
| DL1XH1-15 | 2026-09-02 11:08:13 | 52.52726 | 8.20694 | 355° | 24km/h | 26262m | -27.8m/s | -47.8°C | 3% | 22.2hPa | 2.6V | 08:30:00 | 01:31:03 | 00:00:00 | |
| DL1XH-west | 2026-09-02 11:08:13 | 52.52743 | 8.20706 | 63° | 33km/h | 26195m | -19.6m/s | -48.2°C | 0% | 22.3hPa | 2.7V | 18:12:15 | 01:31:06 | 00:00:00 | |
| DO2JMG | 2026-09-02 11:08:11 | 52.52738 | 8.20697 | 35° | 26km/h | 26215m | -19.5m/s | -48°C | 0% | 22.3hPa | 2.6V | 18:12:15 | 01:31:05 | 00:00:00 | |
| AA1-15 | 2026-09-02 11:08:11 | 52.52732 | 8.20694 | 360° | 26km/h | 26236m | -24.3m/s | -47.9°C | 0% | 22.2hPa | 2.6V | 18:12:15 | 01:31:04 | 00:00:00 | |
| DB0DAN | 2026-09-02 11:08:10 | 52.52732 | 8.20694 | 360° | 24km/h | 26236m | -24.3m/s | -47.9°C | 0.7% | 22.23hPa | 2.6V | 00:00:00 | 00:00:00 | 00:00:00 | |
| DO2SHX-10 | 2026-09-02 11:08:09 | 52.52726 | 8.20694 | 356° | 18km/h | 26263m | -27.7m/s | -47.8°C | 3.0% | 22.1hPa | 2.6V | 00:00:00 | 01:31:03 | 08:30:00 | |
| DD1CC2-15 | 2026-09-02 11:08:08 | 52.52726 | 8.20694 | 356° | 24km/h | 26263m | -27.8m/s | -47.8°C | 0.7% | 22.2hPa | 2.7V | 00:00:00 | 00:00:00 | 00:00:00 | |
| DK9SH | 2026-09-02 11:08:07 | 52.52721 | 8.20694 | 7° | 20km/h | 26289m | -25.3m/s | -47.7°C | 0.7% | 22.1hPa | 2.7V | 00:00:00 | 00:00:00 | 00:00:00 | |
| DM0DOS-11 | 2026-09-02 11:08:06 | 52.52725 | 8.20641 | 100° | 18km/h | 26436m | -25.9m/s | -47.3°C | 2.8% | 21.6hPa | 2.7V | 08:30:00 | 01:30:56 | 00:00:00 | |
| HSKMA3-T | 2026-09-02 11:08:06 | 52.52716 | 8.20685 | 85° | 18km/h | 26337m | -21.9m/s | -47.4°C | 0% | 21.9hPa | 2.7V | 18:12:15 | 01:31:00 | 00:00:00 | |
| BIOWL1-15 | 2026-09-02 11:08:05 | 52.52717 | 8.20676 | 106° | 27km/h | 26360m | -24.1m/s | -47.2°C | 0% | 21.8hPa | 2.6V | 18:12:15 | 01:30:59 | 00:00:00 | |
| DL3AQ-11 | 2026-09-02 11:08:05 | 52.52723 | 8.20651 | 110° | 29km/h | 26411m | -24.6m/s | -47.2°C | 0.6% | 21.6hPa | 2.6V | 00:00:00 | 00:00:00 | 00:00:00 | |
| DL1XH1-15 | 2026-09-02 11:08:04 | 52.52728 | 8.20620 | 104° | 16km/h | 26476m | -0.2m/s | -47.4°C | 2.9% | 21.3hPa | 2.6V | 08:30:00 | 01:30:53 | 00:00:00 | |
| DF8AY | 2026-09-02 11:08:03 | 52.52723 | 8.20651 | 111° | 31km/h | 26411m | -24.6m/s | -47.2°C | 0% | 21.6hPa | 2.6V | 18:12:15 | 01:30:57 | 00:00:00 | |
| DL1XH-west | 2026-09-02 11:08:01 | 52.52726 | 8.20634 | 104° | 18km/h | 26458m | -18.3m/s | -47.3°C | 0% | 21.5hPa | 2.7V | 18:12:15 | 01:30:55 | 00:00:00 | |
| DO2JMG | 2026-09-02 11:08:00 | 52.52727 | 8.20627 | 103° | 18km/h | 26472m | -9.1m/s | -47.3°C | 0% | 21.4hPa | 2.7V | 18:12:15 | 01:30:54 | 00:00:00 | |
| DO2SHX-10 | 2026-09-02 11:07:59 | 52.52727 | 8.20620 | 105° | 24km/h | 26477m | -0.1m/s | -47.4°C | 2.9% | 21.3hPa | 2.6V | 00:00:00 | 01:30:53 | 00:00:00 | |
| DL4BBY-15 | 2026-09-02 11:07:58 | 52.52729 | 8.20613 | 111° | 24km/h | 26474m | 5.6m/s | -48.2°C | 0% | 0hPa | 2.7V | 00:00:00 | 00:00:00 | 00:00:00 | |
| DL1XH-15 | 2026-09-02 11:07:57 | 52.52736 | 8.20582 | 98° | 35km/h | 26457m | 4.1m/s | -47.4°C | 3% | 21.4hPa | 2.7V | 08:30:00 | 01:30:49 | 00:00:00 | |
| BIOWL1-15 | 2026-09-02 11:07:55 | 52.52736 | 8.20582 | 99° | 35km/h | 26457m | 4.1m/s | -47.4°C | 0% | 21.4hPa | 2.7V | 18:12:15 | 01:30:49 | 00:00:00 | |
| DB0DAN | 2026-09-02 11:07:55 | 52.52736 | 8.20582 | 99° | 33km/h | 26457m | 4.1m/s | -47.4°C | 0.7% | 21.45hPa | 2.7V | 00:00:00 | 00:00:00 | 00:00:00 | |
| DL3AQ-11 | 2026-09-02 11:07:54 | 52.52733 | 8.20554 | 58° | 38km/h | 26445m | 8.7m/s | -47.4°C | 0.7% | 21.4hPa | 2.6V | 00:00:00 | 00:00:00 | 00:00:00 | |
| DM0DOS-11 | 2026-09-02 11:07:53 | 52.52726 | 8.20542 | 35° | 38km/h | 26438m | 5.2m/s | -47.3°C | 2.8% | 21.5hPa | 2.6V | 08:30:00 | 01:30:46 | 00:00:00 | |
| DF8AY | 2026-09-02 11:07:52 | 52.52726 | 8.20542 | 36° | 38km/h | 26438m | 5.2m/s | -47.3°C | 0% | 21.5hPa | 2.6V | 18:12:15 | 01:30:46 | 00:00:00 | |
| DL1XH-west | 2026-09-02 11:07:51 | 52.52719 | 8.20535 | 26° | 31km/h | 26433m | 4.3m/s | -47.3°C | 0% | 21.5hPa | 2.6V | 18:12:15 | 01:30:45 | 00:00:00 | |
| DO2JMG | 2026-09-02 11:07:49 | 52.52711 | 8.20525 | 92° | 15km/h | 26422m | 6.6m/s | -47.2°C | 0% | 21.5hPa | 2.7V | 18:12:15 | 01:30:43 | 00:00:00 | |
| BUE01 | 2026-09-02 11:07:48 | 52.52713 | 8.20518 | 119° | 22km/h | 26415m | 6.7m/s | -47.2°C | 0.6% | 21.5hPa | 2.6V | 00:00:00 | 00:00:00 | 00:00:00 | |
| DJ2KF-10 | 2026-09-02 11:07:47 | 52.52716 | 8.20509 | 120° | 22km/h | 26409m | 5.6m/s | -47.1°C | 2.8% | 21.5hPa | 2.6V | 00:00:00 | 01:30:41 | 00:00:00 | |
| DM0DOS-11 | 2026-09-02 11:07:46 | 52.52711 | 8.20467 | 39° | 29km/h | 26378m | 5.3m/s | -47.3°C | 2.8% | 21.7hPa | 2.6V | 08:30:00 | 01:30:36 | 00:00:00 | |
| BIOWL1-15 | 2026-09-02 11:07:45 | 52.52705 | 8.20458 | 49° | 33km/h | 26372m | 7.5m/s | -47.2°C | 0% | 21.7hPa | 2.6V | 18:12:15 | 01:30:35 | 00:00:00 | |
| SMARD9-15 | 2026-09-02 11:07:44 | 52.52719 | 8.20480 | 61° | 18km/h | 26391m | 7.0m/s | -47.1°C | 0.6% | 21.6hPa | 2.6V | 00:00:00 | 00:00:00 | 00:00:00 | |
| HSKMA3-T | 2026-09-02 11:07:44 | 52.52719 | 8.20480 | 62° | 20km/h | 26391m | 7m/s | -47.1°C | 0% | 21.6hPa | 2.7V | 18:12:15 | 01:30:38 | 00:00:00 | |
| DF8AY | 2026-09-02 11:07:42 | 52.52711 | 8.20467 | 40° | 29km/h | 26379m | 5.3m/s | -47.3°C | 0% | 21.7hPa | 2.6V | 18:12:15 | 01:30:36 | 00:00:00 | |
| DL1XH-west | 2026-09-02 11:07:40 | 52.52701 | 8.20446 | 65° | 33km/h | 26366m | 5.1m/s | -47.3°C | 0% | 21.7hPa | 2.7V | 18:12:15 | 01:30:34 | 00:00:00 | |
| DB0DAN | 2026-09-02 11:07:40 | 52.52701 | 8.20446 | 65° | 31km/h | 26366m | 5.1m/s | -47.3°C | 0.6% | 21.71hPa | 2.7V | 00:00:00 | 00:00:00 | 00:00:00 | |
| DO2JMG | 2026-09-02 11:07:39 | 52.52697 | 8.20427 | 83° | 16km/h | 26354m | 7.8m/s | -47.4°C | 0% | 21.8hPa | 2.6V | 18:12:15 | 01:30:32 | 00:00:00 | |
| HSKMA3-T | 2026-09-02 11:07:33 | 52.52693 | 8.20408 | 61° | 22km/h | 26323m | 5.7m/s | -47.7°C | 0% | 21.9hPa | 2.6V | 18:12:15 | 01:30:27 | 00:00:00 | |
| DO2SHX-10 | 2026-09-02 11:07:33 | 52.52693 | 8.20408 | 61° | 20km/h | 26323m | 5.6m/s | -47.6°C | 2.9% | 21.8hPa | 2.6V | 00:00:00 | 01:30:27 | 08:30:00 | |
| DL1XH1-15 | 2026-09-02 11:07:32 | 52.52678 | 8.20383 | 76° | 13km/h | 26293m | 7m/s | -48°C | 3% | 22hPa | 2.6V | 08:30:00 | 01:30:22 | 00:00:00 | |
| DF8AY | 2026-09-02 11:07:31 | 52.52686 | 8.20394 | 37° | 20km/h | 26311m | 6.7m/s | -47.8°C | 0% | 21.9hPa | 2.7V | 18:12:15 | 01:30:25 | 00:00:00 | |
| DL1XH-west | 2026-09-02 11:07:29 | 52.52679 | 8.20387 | 40° | 11km/h | 26299m | 5.3m/s | -48°C | 0% | 21.9hPa | 2.6V | 18:12:15 | 01:30:23 | 00:00:00 | |
| DO2SHX-10 | 2026-09-02 11:07:29 | 52.52679 | 8.20387 | 41° | 13km/h | 26299m | 5.2m/s | -47.9°C | 3.0% | 21.9hPa | 2.7V | 00:00:00 | 01:30:23 | 00:00:00 | |
| DL1XH-15 | 2026-09-02 11:07:28 | 52.52681 | 8.20359 | 116° | 18km/h | 26273m | 6.6m/s | -47.9°C | 2.9% | 22hPa | 2.7V | 08:30:00 | 01:30:19 | 00:00:00 | |
| DO2JMG | 2026-09-02 11:07:27 | 52.52677 | 8.20376 | 97° | 22km/h | 26286m | 7.1m/s | -47.9°C | 0% | 22hPa | 2.7V | 18:12:15 | 01:30:21 | 00:00:00 | |
| DF8AY | 2026-09-02 11:07:26 | 52.52676 | 8.20354 | 17° | 18km/h | 26249m | 7.3m/s | -48.1°C | 0% | 22.1hPa | 2.7V | 18:12:15 | 01:30:15 | 00:00:00 | |
| HSKMA3-T | 2026-09-02 11:07:23 | 52.52682 | 8.20354 | 335° | 5km/h | 26260m | 5.7m/s | -48°C | 0% | 22.1hPa | 2.6V | 18:12:15 | 01:30:17 | 00:00:00 | |
| BIOWL1-15 | 2026-09-02 11:07:20 | 52.52666 | 8.20328 | 126° | 9km/h | 26217m | 5.6m/s | -48°C | 0% | 22.2hPa | 2.6V | 18:12:15 | 01:30:10 | 00:00:00 | |
| DL1XH-west | 2026-09-02 11:07:19 | 52.52668 | 8.20343 | 57° | 22km/h | 26237m | 5.1m/s | -48.2°C | 0% | 22.2hPa | 2.7V | 18:12:15 | 01:30:13 | 00:00:00 | |
| DO2JMG | 2026-09-02 11:07:17 | 52.52665 | 8.20331 | 100° | 9km/h | 26223m | 6.8m/s | -48.1°C | 0% | 22.2hPa | 2.6V | 18:12:15 | 01:30:11 | 00:00:00 | |
| DL1XH-15 | 2026-09-02 11:07:17 | 52.52668 | 8.20324 | 117° | 13km/h | 26210m | 7.5m/s | -48.1°C | 3% | 22.2hPa | 2.7V | 08:30:00 | 01:30:09 | 00:00:00 | |
| HSKMA3-T | 2026-09-02 11:07:13 | 52.52669 | 8.20313 | 76° | 11km/h | 26198m | 6m/s | -48.2°C | 0% | 22.3hPa | 2.7V | 18:12:15 | 01:30:07 | 00:00:00 | |
| DF8AY | 2026-09-02 11:07:11 | 52.52666 | 8.20309 | 1° | 9km/h | 26184m | 6m/s | -48.3°C | 0% | 22.4hPa | 2.6V | 18:12:15 | 01:30:05 | 00:00:00 | |
| DB0DAN | 2026-09-02 11:07:10 | 52.52663 | 8.20308 | 16° | 9km/h | 26178m | 5.1m/s | -48.3°C | 0.7% | 22.38hPa | 2.6V | 00:00:00 | 00:00:00 | 00:00:00 | |
| DL1XH-west | 2026-09-02 11:07:09 | 52.52659 | 8.20300 | 79° | 16km/h | 26166m | 6.1m/s | -48.2°C | 0% | 22.4hPa | 2.7V | 18:12:15 | 01:30:02 | 00:00:00 | |
| DL1XH-15 | 2026-09-02 11:07:08 | 52.52664 | 8.20285 | 165° | 13km/h | 26145m | 6.7m/s | -48.2°C | 3% | 22.5hPa | 2.6V | 08:30:00 | 01:29:59 | 00:00:00 | |
| AA1-15 | 2026-09-02 11:07:08 | 52.52661 | 8.20288 | 132° | 15km/h | 26153m | 8.1m/s | -48.2°C | 0% | 22.4hPa | 2.6V | 18:12:15 | 01:30:00 | 00:00:00 | |
| DO2JMG | 2026-09-02 11:07:08 | 52.52660 | 8.20293 | 105° | 16km/h | 26160m | 5.4m/s | -48.3°C | 0% | 22.4hPa | 2.7V | 18:12:15 | 01:30:01 | 00:00:00 | |
| DK9SH | 2026-09-02 11:07:07 | 52.52660 | 8.20293 | 106° | 16km/h | 26160m | 5.4m/s | -48.3°C | 0.7% | 22.4hPa | 2.6V | 00:00:00 | 00:00:00 | 00:00:00 | |
| DD1CC2-15 | 2026-09-02 11:07:06 | 52.52660 | 8.20293 | 106° | 16km/h | 26160m | 5.4m/s | -48.3°C | 0.7% | 22.4hPa | 2.6V | 00:00:00 | 00:00:00 | 00:00:00 | |
| DO1YAY-16 | 2026-09-02 11:07:05 | 52.52664 | 8.20285 | 165° | 11km/h | 26146m | 6.7m/s | -48.2°C | 0.7% | 22.5hPa | 2.6V | 00:00:00 | 00:00:00 | 00:00:00 | |
| DO2SHX-10 | 2026-09-02 11:07:04 | 52.52667 | 8.20284 | 164° | 11km/h | 26140m | 5.1m/s | -48.2°C | 3.0% | 22.4hPa | 2.6V | 00:00:00 | 01:29:58 | 08:30:00 | |
| DM0DOS-11 | 2026-09-02 11:07:03 | 52.52667 | 8.20279 | 49° | 13km/h | 26127m | 5.8m/s | -48.2°C | 3% | 22.5hPa | 2.7V | 08:30:00 | 01:29:56 | 00:00:00 | |
| BIOWL1-15 | 2026-09-02 11:07:03 | 52.52661 | 8.20250 | 94° | 9km/h | 26040m | 5.3m/s | -48.7°C | 0% | 22.8hPa | 2.7V | 18:12:15 | 01:29:42 | 00:00:00 | |
| HSKMA3-T | 2026-09-02 11:07:02 | 52.52667 | 8.20279 | 50° | 13km/h | 26127m | 5.9m/s | -48.2°C | 0% | 22.5hPa | 2.7V | 18:12:15 | 01:29:56 | 00:00:00 | |
| MET0W-2 | 2026-09-02 11:07:02 | 52.52656 | 8.20271 | 123° | 4km/h | 26098m | 5.3m/s | -48.5°C | 0.7% | 22.6hPa | 2.6V | 00:00:00 | 00:00:00 | 00:00:00 | |
| DL1XH1-15 | 2026-09-02 11:07:01 | 52.52656 | 8.20271 | 333° | 4km/h | 26102m | 4.9m/s | -48.4°C | 3% | 22.6hPa | 2.6V | 08:30:00 | 01:29:52 | 00:00:00 | |
| DF8AY | 2026-09-02 11:07:01 | 52.52664 | 8.20275 | 35° | 16km/h | 26121m | 5.3m/s | -48.3°C | 0% | 22.6hPa | 2.7V | 18:12:15 | 01:29:55 | 00:00:00 | |
| DL1XH-west | 2026-09-02 11:06:58 | 52.52656 | 8.20271 | 334° | 4km/h | 26102m | 4.9m/s | -48.4°C | 0% | 22.6hPa | 2.6V | 18:12:15 | 01:29:52 | 00:00:00 | |
| DL3AQ-11 | 2026-09-02 11:06:58 | 52.52656 | 8.20271 | 123° | 4km/h | 26098m | 5.3m/s | -48.5°C | 0.7% | 22.6hPa | 2.6V | 00:00:00 | 00:00:00 | 00:00:00 | |
| DL1XH-15 | 2026-09-02 11:06:57 | 52.52659 | 8.20261 | 111° | 22km/h | 26084m | 6.3m/s | -48.5°C | 3.1% | 22.7hPa | 2.6V | 08:30:00 | 01:29:49 | 00:00:00 | |
| DO2JMG | 2026-09-02 11:06:57 | 52.52656 | 8.20271 | 123° | 5km/h | 26097m | 5.3m/s | -48.5°C | 0% | 22.6hPa | 2.7V | 18:12:15 | 01:29:51 | 00:00:00 | |
| AA1-15 | 2026-09-02 11:06:56 | 52.52657 | 8.20267 | 115° | 13km/h | 26091m | 7.9m/s | -48.5°C | 0% | 22.7hPa | 2.7V | 18:12:15 | 01:29:50 | 00:00:00 | |
| DB0DAN | 2026-09-02 11:06:55 | 52.52659 | 8.20261 | 111° | 20km/h | 26084m | 6.3m/s | -48.5°C | 0.7% | 22.67hPa | 2.6V | 00:00:00 | 00:00:00 | 00:00:00 | |
| HSKMA3-T | 2026-09-02 11:06:52 | 52.52664 | 8.20245 | 213° | 2km/h | 26065m | 6.8m/s | -48.8°C | 0% | 22.7hPa | 2.7V | 18:12:15 | 01:29:46 | 00:00:00 | |
| DF8AY | 2026-09-02 11:06:51 | 52.52662 | 8.20250 | 305° | 9km/h | 26053m | 6.4m/s | -48.9°C | 0% | 22.8hPa | 2.6V | 18:12:15 | 01:29:44 | 00:00:00 | |
| DL1XH1-15 | 2026-09-02 11:06:51 | 52.52661 | 8.20250 | 94° | 9km/h | 26040m | 5.3m/s | -48.7°C | 3.1% | 22.8hPa | 2.7V | 08:30:00 | 01:29:42 | 00:00:00 | |
| DO2JMG | 2026-09-02 11:06:47 | 52.52662 | 8.20246 | 121° | 11km/h | 26035m | 4.9m/s | -48.7°C | 0% | 22.9hPa | 2.6V | 18:12:15 | 01:29:41 | 00:00:00 | |
| BIOWL1-15 | 2026-09-02 11:06:45 | 52.52666 | 8.20241 | 168° | 11km/h | 26023m | 6.4m/s | -48.6°C | 0% | 22.9hPa | 2.7V | 18:12:15 | 01:29:39 | 00:00:00 | |
| DL3AQ-11 | 2026-09-02 11:06:45 | 52.52666 | 8.20241 | 167° | 9km/h | 26023m | 6.4m/s | -48.6°C | 0.7% | 22.9hPa | 2.7V | 00:00:00 | 00:00:00 | 00:00:00 | |
| BIOWL9-15 | 2026-09-02 11:06:44 | 52.52668 | 8.20240 | 156° | 9km/h | 26017m | 5.6m/s | -48.6°C | 0.7% | 22.9hPa | 2.7V | 00:00:00 | 00:00:00 | 00:00:00 | |
| DO2SHX-10 | 2026-09-02 11:06:43 | 52.52670 | 8.20237 | 127° | 11km/h | 26010m | 8.0m/s | -48.6°C | 3.1% | 22.9hPa | 2.7V | 00:00:00 | 01:29:37 | 00:00:00 | |
| SMARD9-15 | 2026-09-02 11:06:42 | 52.52671 | 8.20233 | 104° | 11km/h | 26003m | 6.0m/s | -48.6°C | 0.7% | 23.0hPa | 2.7V | 00:00:00 | 00:00:00 | 00:00:00 | |
| DL1XH1-15 | 2026-09-02 11:06:41 | 52.52678 | 8.20223 | 158° | 13km/h | 25979m | 5.1m/s | -48.5°C | 3% | 23hPa | 2.7V | 08:30:00 | 01:29:32 | 00:00:00 | |
| HSKMA3-T | 2026-09-02 11:06:41 | 52.52672 | 8.20229 | 109° | 11km/h | 25997m | 5.6m/s | -48.7°C | 0% | 22.9hPa | 2.6V | 18:12:15 | 01:29:35 | 00:00:00 | |
| DF8AY | 2026-09-02 11:06:39 | 52.52690 | 8.20192 | 118° | 11km/h | 25920m | 6.1m/s | -48.4°C | 0% | 23.3hPa | 2.6V | 18:12:15 | 01:29:23 | 00:00:00 | |
| DC6BW-12 | 2026-09-02 11:06:38 | 52.52675 | 8.20224 | 171° | 9km/h | 25985m | 5.6m/s | -48.5°C | 0.7% | 23.1hPa | 2.7V | 00:00:00 | 00:00:00 | 00:00:00 | |
| DM0DOS-11 | 2026-09-02 11:06:37 | 52.52689 | 8.20197 | 274° | 2km/h | 25940m | 5.3m/s | -48.4°C | 3.1% | 23.2hPa | 2.7V | 08:30:00 | 01:29:26 | 00:00:00 | |
| DL1XH-west | 2026-09-02 11:06:37 | 52.52684 | 8.20213 | 121° | 22km/h | 25966m | 6.5m/s | -48.5°C | 0% | 23.1hPa | 2.6V | 18:12:15 | 01:29:30 | 00:00:00 | |
| BIOWL1-15 | 2026-09-02 11:06:35 | 52.52686 | 8.20205 | 113° | 20km/h | 25960m | 5.2m/s | -48.4°C | 0% | 23.1hPa | 2.6V | 18:12:15 | 01:29:29 | 00:00:00 | |
| AA1-15 | 2026-09-02 11:06:34 | 52.52688 | 8.20199 | 111° | 13km/h | 25953m | 7.5m/s | -48.4°C | 0% | 23.1hPa | 2.7V | 18:12:15 | 01:29:28 | 00:00:00 | |
| HSKMA3-T | 2026-09-02 11:06:30 | 52.52689 | 8.20195 | 109° | 7km/h | 25927m | 6.3m/s | -48.4°C | 0% | 23.2hPa | 2.6V | 18:12:15 | 01:29:24 | 00:00:00 | |
| DO2SHX-10 | 2026-09-02 11:06:30 | 52.52689 | 8.20195 | 110° | 9km/h | 25927m | 6.3m/s | -48.4°C | 3.1% | 23.2hPa | 2.7V | 00:00:00 | 01:29:24 | 00:00:00 | |
| AU51GT2 | 2026-09-02 11:06:28 | 52.52693 | 8.20185 | 135° | 7km/h | 25907m | 6.7m/s | -48.4°C | 0.7% | 23.3hPa | 2.7V | 00:00:00 | 00:00:00 | 00:00:00 | |
| DM0DOS-11 | 2026-09-02 11:06:27 | 52.52702 | 8.20158 | 107° | 16km/h | 25878m | 4.6m/s | -48.5°C | 3% | 23.4hPa | 2.7V | 08:30:00 | 01:29:16 | 00:00:00 | |
| DL1XH-west | 2026-09-02 11:06:26 | 52.52695 | 8.20183 | 137° | 7km/h | 25901m | 5m/s | -48.4°C | 0% | 23.3hPa | 2.7V | 18:12:15 | 01:29:20 | 00:00:00 | |
| DO2JMG | 2026-09-02 11:06:25 | 52.52696 | 8.20179 | 126° | 13km/h | 25896m | 5.6m/s | -48.4°C | 0% | 23.3hPa | 2.6V | 18:12:15 | 01:29:19 | 00:00:00 | |
| BIOWL1-15 | 2026-09-02 11:06:24 | 52.52698 | 8.20174 | 118° | 18km/h | 25889m | 7.4m/s | -48.5°C | 0% | 23.4hPa | 2.6V | 18:12:15 | 01:29:18 | 00:00:00 | |
| AA1-15 | 2026-09-02 11:06:23 | 52.52700 | 8.20166 | 112° | 24km/h | 25883m | 5.6m/s | -48.5°C | 0% | 23.4hPa | 2.6V | 18:12:15 | 01:29:17 | 00:00:00 | |
| DF5WG-10 | 2026-09-02 11:06:23 | 52.52700 | 8.20166 | 113° | 16km/h | 25883m | 5.5m/s | -48.4°C | 3.0% | 23.4hPa | 2.6V | 00:00:00 | 01:29:17 | 00:00:00 | |
| SONCRA | 2026-09-02 11:06:22 | 52.52703 | 8.20153 | 105° | 9km/h | 25872m | 7.7m/s | -48.5°C | 0.7% | 23.5hPa | 2.6V | 00:00:00 | 00:00:00 | 00:00:00 | |
| DL1XH1-15 | 2026-09-02 11:06:21 | 52.52703 | 8.20154 | 168° | 2km/h | 25851m | 7.6m/s | -48.4°C | 3% | 23.5hPa | 2.6V | 08:30:00 | 01:29:12 | 00:00:00 | |
| DF8AY | 2026-09-02 11:06:20 | 52.52703 | 8.20152 | 290° | 2km/h | 25864m | 7.4m/s | -48.5°C | 0% | 23.5hPa | 2.7V | 18:12:15 | 01:29:14 | 00:00:00 | |
| HSKMA3-T | 2026-09-02 11:06:19 | 52.52703 | 8.20153 | 279° | 4km/h | 25858m | 5.8m/s | -48.4°C | 0% | 23.5hPa | 2.6V | 18:12:15 | 01:29:13 | 00:00:00 | |
| DL1XH-15 | 2026-09-02 11:06:18 | 52.52706 | 8.20141 | 109° | 16km/h | 25833m | 7.3m/s | -48.4°C | 3% | 23.6hPa | 2.7V | 08:30:00 | 01:29:09 | 00:00:00 | |
| DO2JMG | 2026-09-02 11:06:16 | 52.52706 | 8.20141 | 109° | 16km/h | 25833m | 7.3m/s | -48.4°C | 0% | 23.6hPa | 2.7V | 18:12:15 | 01:29:09 | 00:00:00 | |
| AA1-15 | 2026-09-02 11:06:13 | 52.52710 | 8.20123 | 103° | 18km/h | 25814m | 6.7m/s | -48.4°C | 0% | 23.7hPa | 2.7V | 18:12:15 | 01:29:06 | 00:00:00 | |
| DO2SHX-10 | 2026-09-02 11:06:12 | 52.52710 | 8.20123 | 104° | 9km/h | 25814m | 6.6m/s | -48.3°C | 3.0% | 23.6hPa | 2.7V | 00:00:00 | 01:29:06 | 00:00:00 | |
| DL1XH1-15 | 2026-09-02 11:06:11 | 52.52708 | 8.20096 | 32° | 7km/h | 25789m | 8.3m/s | -48.3°C | 2.9% | 23.7hPa | 2.7V | 08:30:00 | 01:29:02 | 00:00:00 | |
| HSKMA3-T | 2026-09-02 11:06:09 | 52.52710 | 8.20099 | 70° | 15km/h | 25796m | 5.4m/s | -48.3°C | 0% | 23.7hPa | 2.6V | 18:12:15 | 01:29:03 | 00:00:00 | |
| DL1XH-15 | 2026-09-02 11:06:07 | 52.52705 | 8.20096 | 98° | 7km/h | 25770m | 7.4m/s | -48.4°C | 3% | 23.8hPa | 2.6V | 08:30:00 | 01:28:59 | 00:00:00 | |
| DM0DOS-11 | 2026-09-02 11:06:06 | 52.52708 | 8.20072 | 91° | 24km/h | 25751m | 7m/s | -48.5°C | 3.1% | 23.8hPa | 2.6V | 08:30:00 | 01:28:56 | 00:00:00 | |
| DL1XH-west | 2026-09-02 11:06:05 | 52.52705 | 8.20096 | 98° | 7km/h | 25770m | 7.4m/s | -48.4°C | 0% | 23.8hPa | 2.6V | 18:12:15 | 01:28:59 | 00:00:00 | |
| AA1-15 | 2026-09-02 11:06:01 | 52.52707 | 8.20063 | 74° | 20km/h | 25744m | 5.9m/s | -48.6°C | 0% | 23.9hPa | 2.6V | 18:12:15 | 01:28:55 | 00:00:00 | |
| DL1XH1-15 | 2026-09-02 11:06:01 | 52.52701 | 8.20041 | 68° | 15km/h | 25725m | 5.6m/s | -48.7°C | 3% | 23.9hPa | 2.7V | 08:30:00 | 01:28:52 | 00:00:00 | |
| DF8AY | 2026-09-02 11:05:59 | 52.52699 | 8.20034 | 56° | 4km/h | 25713m | 7.2m/s | -48.9°C | 0% | 24.1hPa | 2.6V | 18:12:15 | 01:28:50 | 00:00:00 | |
| HSKMA3-T | 2026-09-02 11:05:58 | 52.52701 | 8.20041 | 68° | 16km/h | 25725m | 5.6m/s | -48.7°C | 0% | 23.9hPa | 2.7V | 18:12:15 | 01:28:52 | 00:00:00 | |
| AU51GT2 | 2026-09-02 11:05:57 | 52.52699 | 8.20034 | 55° | 2km/h | 25713m | 7.2m/s | -48.9°C | 0.7% | 24.1hPa | 2.6V | 00:00:00 | 00:00:00 | 00:00:00 | |
| DL1XH-15 | 2026-09-02 11:05:56 | 52.52699 | 8.20034 | 305° | 5km/h | 25706m | 8m/s | -49°C | 3% | 24.1hPa | 2.6V | 08:30:00 | 01:28:49 | 00:00:00 | |
| DO2JMG | 2026-09-02 11:05:54 | 52.52697 | 8.20036 | 328° | 7km/h | 25700m | 3.8m/s | -49°C | 0% | 24.1hPa | 2.6V | 18:12:15 | 01:28:48 | 00:00:00 | |
| AA1-15 | 2026-09-02 11:05:50 | 52.52693 | 8.20007 | 82° | 37km/h | 25675m | 5.5m/s | -48.9°C | 0% | 24.2hPa | 2.6V | 18:12:15 | 01:28:44 | 00:00:00 | |
| DL1XH-15 | 2026-09-02 11:05:48 | 52.52689 | 8.19978 | 165° | 7km/h | 25644m | 6m/s | -49.1°C | 3.1% | 24.2hPa | 2.7V | 08:30:00 | 01:28:39 | 00:00:00 | |
| HSKMA3-T | 2026-09-02 11:05:47 | 52.52688 | 8.19980 | 56° | 7km/h | 25657m | 6.5m/s | -49°C | 0% | 24.2hPa | 2.7V | 18:12:15 | 01:28:41 | 00:00:00 | |
| DL8DAS-14 | 2026-09-02 11:05:44 | 52.52690 | 8.19977 | 130° | 7km/h | 25639m | 5.0m/s | -49.1°C | 0.7% | 24.3hPa | 2.6V | 00:00:00 | 00:00:00 | 00:00:00 | |
| DO2JMG | 2026-09-02 11:05:43 | 52.52691 | 8.19974 | 87° | 9km/h | 25633m | 6.1m/s | -49.1°C | 0% | 24.3hPa | 2.6V | 18:12:15 | 01:28:37 | 00:00:00 | |
| DO2SHX-10 | 2026-09-02 11:05:43 | 52.52691 | 8.19973 | 88° | 18km/h | 25633m | 6.0m/s | -49.1°C | 3.1% | 24.3hPa | 2.7V | 00:00:00 | 01:28:37 | 00:00:00 | |
| BIOWL9-15 | 2026-09-02 11:05:42 | 52.52690 | 8.19970 | 54° | 13km/h | 25626m | 7.0m/s | -49.2°C | 0.7% | 24.4hPa | 2.7V | 00:00:00 | 00:00:00 | 00:00:00 | |
| DO3DL | 2026-09-02 11:05:41 | 52.52690 | 8.19969 | 55° | 13km/h | 25627m | 7.0m/s | -49.2°C | 0.7% | 24.4hPa | 2.7V | 00:00:00 | 00:00:00 | 00:00:00 | |
| DB0DAN | 2026-09-02 11:05:40 | 52.52686 | 8.19956 | 76° | 22km/h | 25615m | 5.8m/s | -49.3°C | 0.7% | 24.38hPa | 2.7V | 00:00:00 | 00:00:00 | 00:00:00 | |
| AA1-15 | 2026-09-02 11:05:40 | 52.52686 | 8.19956 | 77° | 24km/h | 25615m | 5.8m/s | -49.3°C | 0% | 24.4hPa | 2.7V | 18:12:15 | 01:28:34 | 00:00:00 | |
| DF8AY | 2026-09-02 11:05:38 | 52.52687 | 8.19934 | 108° | 29km/h | 25602m | 5m/s | -49.2°C | 0% | 24.4hPa | 2.6V | 18:12:15 | 01:28:32 | 00:00:00 | |
| DL3AQ-11 | 2026-09-02 11:05:38 | 52.52689 | 8.19924 | 112° | 22km/h | 25596m | 6.1m/s | -49.3°C | 0.7% | 24.4hPa | 2.7V | 00:00:00 | 00:00:00 | 00:00:00 | |
| DL1XH-15 | 2026-09-02 11:05:36 | 52.52691 | 8.19915 | 120° | 4km/h | 25582m | 6.1m/s | -49.4°C | 3.1% | 24.5hPa | 2.7V | 08:30:00 | 01:28:29 | 00:00:00 | |
| HSKMA3-T | 2026-09-02 11:05:36 | 52.52690 | 8.19918 | 113° | 11km/h | 25589m | 7.6m/s | -49.3°C | 0% | 24.5hPa | 2.6V | 18:12:15 | 01:28:30 | 00:00:00 | |
| DO2JMG | 2026-09-02 11:05:33 | 52.52693 | 8.19912 | 121° | 9km/h | 25570m | 6.2m/s | -49.3°C | 0% | 24.6hPa | 2.6V | 18:12:15 | 01:28:27 | 00:00:00 | |
| DL1XH-west | 2026-09-02 11:05:32 | 52.52694 | 8.19907 | 100° | 13km/h | 25564m | 5.3m/s | -49.3°C | 0% | 24.6hPa | 2.6V | 18:12:15 | 01:28:26 | 00:00:00 | |
| AA1-15 | 2026-09-02 11:05:30 | 52.52693 | 8.19895 | 72° | 18km/h | 25552m | 6.3m/s | -49.3°C | 0% | 24.6hPa | 2.7V | 18:12:15 | 01:28:24 | 00:00:00 | |
| DL4BBY-15 | 2026-09-02 11:05:28 | 52.52691 | 8.19877 | 96° | 16km/h | 25541m | 7.4m/s | -50.1°C | 0% | 0hPa | 2.7V | 00:00:00 | 00:00:00 | 00:00:00 | |
| DO3DL | 2026-09-02 11:05:27 | 52.52691 | 8.19877 | 96° | 26km/h | 25540m | 7.5m/s | -49.4°C | 0.7% | 24.7hPa | 2.7V | 00:00:00 | 00:00:00 | 00:00:00 | |
| DL1XH-15 | 2026-09-02 11:05:27 | 52.52697 | 8.19850 | 111° | 15km/h | 25522m | 7.2m/s | -49.4°C | 3.2% | 24.8hPa | 2.6V | 08:30:00 | 01:28:19 | 00:00:00 | |
| DM0DOS-11 | 2026-09-02 11:05:26 | 52.52694 | 8.19841 | 44° | 11km/h | 25504m | 5.7m/s | -49.5°C | 3.1% | 24.8hPa | 2.7V | 08:30:00 | 01:28:16 | 00:00:00 | |
| HSKMA3-T | 2026-09-02 11:05:26 | 52.52695 | 8.19857 | 117° | 24km/h | 25528m | 4.3m/s | -49.3°C | 0% | 24.7hPa | 2.7V | 18:12:15 | 01:28:20 | 00:00:00 | |
| DO2JMG | 2026-09-02 11:05:23 | 52.52696 | 8.19844 | 25° | 9km/h | 25509m | 5.4m/s | -49.3°C | 0% | 24.8hPa | 2.7V | 18:12:15 | 01:28:17 | 00:00:00 | |
| DL1XH-west | 2026-09-02 11:05:22 | 52.52694 | 8.19841 | 44° | 11km/h | 25504m | 5.7m/s | -49.5°C | 0% | 24.8hPa | 2.7V | 18:12:15 | 01:28:16 | 00:00:00 | |
| DO2SHX-10 | 2026-09-02 11:05:22 | 52.52694 | 8.19841 | 45° | 16km/h | 25504m | 5.6m/s | -49.4°C | 3.1% | 24.8hPa | 2.7V | 00:00:00 | 01:28:16 | 00:00:00 | |
| DL1XH1-15 | 2026-09-02 11:05:21 | 52.52697 | 8.19808 | 101° | 26km/h | 25479m | 7.1m/s | -49.5°C | 3.1% | 24.9hPa | 2.7V | 08:30:00 | 01:28:12 | 00:00:00 | |
| AA1-15 | 2026-09-02 11:05:20 | 52.52693 | 8.19828 | 104° | 24km/h | 25491m | 6.1m/s | -49.4°C | 0% | 24.9hPa | 2.6V | 18:12:15 | 01:28:14 | 00:00:00 | |
| BIOWL1-15 | 2026-09-02 11:05:18 | 52.52702 | 8.19773 | 119° | 16km/h | 25454m | 5m/s | -49.5°C | 0% | 25hPa | 2.6V | 18:12:15 | 01:28:08 | 00:00:00 | |
| DJ2KF-10 | 2026-09-02 11:05:17 | 52.52697 | 8.19797 | 97° | 15km/h | 25473m | 5.9m/s | -49.5°C | 3.1% | 24.9hPa | 2.7V | 00:00:00 | 01:28:11 | 00:00:00 | |
| DM0DOS-11 | 2026-09-02 11:05:16 | 52.52703 | 8.19764 | 48° | 9km/h | 25442m | 6.9m/s | -49.5°C | 3.1% | 25hPa | 2.7V | 08:30:00 | 01:28:06 | 00:00:00 | |
| HSKMA3-T | 2026-09-02 11:05:16 | 52.52699 | 8.19788 | 103° | 22km/h | 25467m | 5.1m/s | -49.6°C | 0% | 25hPa | 2.7V | 18:12:15 | 01:28:10 | 00:00:00 | |
| DF8AY | 2026-09-02 11:05:15 | 52.52700 | 8.19780 | 113° | 22km/h | 25460m | 7.7m/s | -49.5°C | 0% | 25hPa | 2.6V | 18:12:15 | 01:28:09 | 00:00:00 | |
| DO2JMG | 2026-09-02 11:05:12 | 52.52703 | 8.19764 | 48° | 9km/h | 25442m | 6.9m/s | -49.5°C | 0% | 25hPa | 2.7V | 18:12:15 | 01:28:06 | 00:00:00 | |
| DL1XH-west | 2026-09-02 11:05:12 | 52.52701 | 8.19761 | 41° | 15km/h | 25436m | 4.6m/s | -49.6°C | 0% | 25.1hPa | 2.7V | 18:12:15 | 01:28:05 | 00:00:00 | |
| DL1XH1-15 | 2026-09-02 11:05:11 | 52.52697 | 8.19737 | 96° | 29km/h | 25418m | 6.3m/s | -49.8°C | 3.2% | 25.1hPa | 2.6V | 08:30:00 | 01:28:02 | 00:00:00 | |
| AA1-15 | 2026-09-02 11:05:10 | 52.52699 | 8.19756 | 61° | 18km/h | 25432m | 5.3m/s | -49.7°C | 0% | 25.1hPa | 2.7V | 18:12:15 | 01:28:04 | 00:00:00 | |
| DD8BA-10 | 2026-09-02 11:05:10 | 52.52699 | 8.19756 | 61° | 26km/h | 25432m | 5.3m/s | -49.6°C | 3.2% | 25.0hPa | 2.7V | 00:00:00 | 00:00:00 | 08:30:00 | |
| Es werden nur die letzten 3500 von 7129 Frames angezeigt. GPX/KML und Diagramme bleiben verfügbar. | |||||||||||||||